<?xml version='1.0' encoding='UTF-8'?><gpx version="1.1" creator="JPX - https://github.com/jenetics/jpx" xmlns="http://www.topografix.com/GPX/1/1"><trk><trkseg><trkpt lat="46.2791009" lon="13.1297032"><ele>198.0</ele><time>2026-04-24T09:17:28.315Z</time></trkpt><trkpt lat="46.2790241" lon="13.1296563"><ele>198.0</ele><time>2026-04-24T09:20:19.333Z</time></trkpt><trkpt lat="46.2789944" lon="13.129571"><ele>198.0</ele><time>2026-04-24T09:20:21.333Z</time></trkpt><trkpt lat="46.2789662" lon="13.1294606"><ele>198.0</ele><time>2026-04-24T09:20:37.332Z</time></trkpt><trkpt lat="46.2789717" lon="13.1293582"><ele>198.0</ele><time>2026-04-24T09:20:39.332Z</time></trkpt><trkpt lat="46.2790084" lon="13.129205"><ele>198.0</ele><time>2026-04-24T09:20:41.332Z</time></trkpt><trkpt lat="46.2790403" lon="13.1291073"><ele>197.66666666666666</ele><time>2026-04-24T09:20:42.333Z</time></trkpt><trkpt lat="46.2790595" lon="13.1290014"><ele>197.33333333333331</ele><time>2026-04-24T09:20:43.331Z</time></trkpt><trkpt lat="46.279072" lon="13.1288854"><ele>197.0</ele><time>2026-04-24T09:20:44.332Z</time></trkpt><trkpt lat="46.2790789" lon="13.1287657"><ele>196.66666666666666</ele><time>2026-04-24T09:20:45.333Z</time></trkpt><trkpt lat="46.2790761" lon="13.1286461"><ele>196.33333333333331</ele><time>2026-04-24T09:20:46.331Z</time></trkpt><trkpt lat="46.2790757" lon="13.1285224"><ele>196.0</ele><time>2026-04-24T09:20:47.332Z</time></trkpt><trkpt lat="46.2790627" lon="13.1283893"><ele>196.0</ele><time>2026-04-24T09:20:48.331Z</time></trkpt><trkpt lat="46.2790436" lon="13.128266"><ele>196.0</ele><time>2026-04-24T09:20:49.332Z</time></trkpt><trkpt lat="46.2790375" lon="13.1281538"><ele>196.0</ele><time>2026-04-24T09:20:50.331Z</time></trkpt><trkpt lat="46.2790302" lon="13.1280514"><ele>196.0</ele><time>2026-04-24T09:20:51.331Z</time></trkpt><trkpt lat="46.2790237" lon="13.1278849"><ele>196.0</ele><time>2026-04-24T09:20:53.332Z</time></trkpt><trkpt lat="46.2790186" lon="13.1277353"><ele>195.83333333333331</ele><time>2026-04-24T09:20:55.332Z</time></trkpt><trkpt lat="46.2790172" lon="13.1276077"><ele>195.66666666666666</ele><time>2026-04-24T09:20:57.332Z</time></trkpt><trkpt lat="46.2790143" lon="13.1275035"><ele>195.5</ele><time>2026-04-24T09:20:59.332Z</time></trkpt><trkpt lat="46.2790189" lon="13.1273736"><ele>195.33333333333331</ele><time>2026-04-24T09:21:01.332Z</time></trkpt><trkpt lat="46.2790227" lon="13.1272044"><ele>195.16666666666666</ele><time>2026-04-24T09:21:03.332Z</time></trkpt><trkpt lat="46.2790259" lon="13.1271069"><ele>195.0</ele><time>2026-04-24T09:21:04.331Z</time></trkpt><trkpt lat="46.2790223" lon="13.1270116"><ele>195.0</ele><time>2026-04-24T09:21:05.332Z</time></trkpt><trkpt lat="46.2790272" lon="13.1268432"><ele>195.0</ele><time>2026-04-24T09:21:07.333Z</time></trkpt><trkpt lat="46.2790271" lon="13.1267255"><ele>195.0</ele><time>2026-04-24T09:21:09.333Z</time></trkpt><trkpt lat="46.2790258" lon="13.1266341"><ele>195.0</ele><time>2026-04-24T09:22:05.333Z</time></trkpt><trkpt lat="46.2790239" lon="13.1264805"><ele>195.0</ele><time>2026-04-24T09:22:08.331Z</time></trkpt><trkpt lat="46.2790214" lon="13.1263068"><ele>195.2</ele><time>2026-04-24T09:22:10.331Z</time></trkpt><trkpt lat="46.2789477" lon="13.1262199"><ele>195.4</ele><time>2026-04-24T09:22:12.332Z</time></trkpt><trkpt lat="46.278831" lon="13.1262243"><ele>195.60000000000002</ele><time>2026-04-24T09:22:14.333Z</time></trkpt><trkpt lat="46.2787574" lon="13.1262709"><ele>195.8</ele><time>2026-04-24T09:22:15.331Z</time></trkpt><trkpt lat="46.2786749" lon="13.1263357"><ele>196.0</ele><time>2026-04-24T09:22:16.331Z</time></trkpt><trkpt lat="46.2785854" lon="13.1263995"><ele>196.0</ele><time>2026-04-24T09:22:17.332Z</time></trkpt><trkpt lat="46.2784889" lon="13.1264641"><ele>196.0</ele><time>2026-04-24T09:22:18.333Z</time></trkpt><trkpt lat="46.2783851" lon="13.1265296"><ele>196.0</ele><time>2026-04-24T09:22:19.333Z</time></trkpt><trkpt lat="46.278277" lon="13.1265919"><ele>196.0</ele><time>2026-04-24T09:22:20.331Z</time></trkpt><trkpt lat="46.2781595" lon="13.1266482"><ele>196.0</ele><time>2026-04-24T09:22:21.331Z</time></trkpt><trkpt lat="46.2780373" lon="13.1267073"><ele>196.0</ele><time>2026-04-24T09:22:22.331Z</time></trkpt><trkpt lat="46.2779176" lon="13.1267649"><ele>196.0</ele><time>2026-04-24T09:22:23.332Z</time></trkpt><trkpt lat="46.2777832" lon="13.1268327"><ele>196.0</ele><time>2026-04-24T09:22:24.332Z</time></trkpt><trkpt lat="46.2776535" lon="13.1269002"><ele>196.0</ele><time>2026-04-24T09:22:25.332Z</time></trkpt><trkpt lat="46.2775195" lon="13.126973"><ele>196.0</ele><time>2026-04-24T09:22:26.333Z</time></trkpt><trkpt lat="46.2773862" lon="13.1270438"><ele>196.0</ele><time>2026-04-24T09:22:27.332Z</time></trkpt><trkpt lat="46.2772552" lon="13.1271161"><ele>196.0</ele><time>2026-04-24T09:22:28.331Z</time></trkpt><trkpt lat="46.2771193" lon="13.127188"><ele>196.0</ele><time>2026-04-24T09:22:29.331Z</time></trkpt><trkpt lat="46.2769869" lon="13.1272593"><ele>196.0</ele><time>2026-04-24T09:22:30.331Z</time></trkpt><trkpt lat="46.2768671" lon="13.1273243"><ele>196.0</ele><time>2026-04-24T09:22:31.331Z</time></trkpt><trkpt lat="46.2767568" lon="13.1273841"><ele>196.0</ele><time>2026-04-24T09:22:32.331Z</time></trkpt><trkpt lat="46.2766509" lon="13.1274424"><ele>196.0</ele><time>2026-04-24T09:22:33.331Z</time></trkpt><trkpt lat="46.276551" lon="13.1274953"><ele>196.0</ele><time>2026-04-24T09:22:34.332Z</time></trkpt><trkpt lat="46.2764555" lon="13.1275505"><ele>196.0</ele><time>2026-04-24T09:22:35.331Z</time></trkpt><trkpt lat="46.2763625" lon="13.1276038"><ele>196.0</ele><time>2026-04-24T09:22:36.331Z</time></trkpt><trkpt lat="46.2762703" lon="13.127653"><ele>196.0</ele><time>2026-04-24T09:22:37.331Z</time></trkpt><trkpt lat="46.276173" lon="13.1277023"><ele>195.5</ele><time>2026-04-24T09:22:38.331Z</time></trkpt><trkpt lat="46.2760682" lon="13.1277527"><ele>195.0</ele><time>2026-04-24T09:22:39.33Z</time></trkpt><trkpt lat="46.2759618" lon="13.1278076"><ele>194.5</ele><time>2026-04-24T09:22:40.331Z</time></trkpt><trkpt lat="46.2758536" lon="13.1278648"><ele>194.0</ele><time>2026-04-24T09:22:41.332Z</time></trkpt><trkpt lat="46.2757435" lon="13.127926"><ele>194.0</ele><time>2026-04-24T09:22:42.331Z</time></trkpt><trkpt lat="46.2756321" lon="13.1279855"><ele>194.0</ele><time>2026-04-24T09:22:43.331Z</time></trkpt><trkpt lat="46.2755209" lon="13.1280436"><ele>194.0</ele><time>2026-04-24T09:22:44.33Z</time></trkpt><trkpt lat="46.2754155" lon="13.1280998"><ele>194.0</ele><time>2026-04-24T09:22:45.33Z</time></trkpt><trkpt lat="46.2753204" lon="13.1281529"><ele>194.0</ele><time>2026-04-24T09:22:46.332Z</time></trkpt><trkpt lat="46.2752307" lon="13.128201"><ele>194.0</ele><time>2026-04-24T09:22:47.332Z</time></trkpt><trkpt lat="46.2751404" lon="13.1282515"><ele>194.0</ele><time>2026-04-24T09:22:48.33Z</time></trkpt><trkpt lat="46.2750534" lon="13.1283008"><ele>194.0</ele><time>2026-04-24T09:22:49.331Z</time></trkpt><trkpt lat="46.2749712" lon="13.1283455"><ele>194.0</ele><time>2026-04-24T09:22:50.33Z</time></trkpt><trkpt lat="46.2748883" lon="13.1283915"><ele>194.00000000000003</ele><time>2026-04-24T09:22:51.332Z</time></trkpt><trkpt lat="46.2748125" lon="13.1284274"><ele>194.0</ele><time>2026-04-24T09:22:52.331Z</time></trkpt><trkpt lat="46.2747412" lon="13.1284594"><ele>194.0</ele><time>2026-04-24T09:22:53.33Z</time></trkpt><trkpt lat="46.2746689" lon="13.1284864"><ele>194.0</ele><time>2026-04-24T09:22:54.331Z</time></trkpt><trkpt lat="46.2746016" lon="13.1285079"><ele>194.00000000000003</ele><time>2026-04-24T09:22:55.331Z</time></trkpt><trkpt lat="46.2745177" lon="13.1285211"><ele>194.0</ele><time>2026-04-24T09:22:57.33Z</time></trkpt><trkpt lat="46.274445" lon="13.1285351"><ele>194.0</ele><time>2026-04-24T09:22:59.331Z</time></trkpt><trkpt lat="46.274362" lon="13.1285684"><ele>194.0</ele><time>2026-04-24T09:23:01.331Z</time></trkpt><trkpt lat="46.274275" lon="13.1286165"><ele>194.0</ele><time>2026-04-24T09:23:03.331Z</time></trkpt><trkpt lat="46.2741614" lon="13.1286486"><ele>194.0</ele><time>2026-04-24T09:23:05.332Z</time></trkpt><trkpt lat="46.2740357" lon="13.1286743"><ele>194.0</ele><time>2026-04-24T09:23:07.33Z</time></trkpt><trkpt lat="46.2739686" lon="13.1286899"><ele>193.83333333333334</ele><time>2026-04-24T09:23:08.331Z</time></trkpt><trkpt lat="46.2739012" lon="13.1287065"><ele>193.66666666666669</ele><time>2026-04-24T09:23:09.331Z</time></trkpt><trkpt lat="46.2738382" lon="13.128721"><ele>193.5</ele><time>2026-04-24T09:23:10.33Z</time></trkpt><trkpt lat="46.2737757" lon="13.1287344"><ele>193.33333333333331</ele><time>2026-04-24T09:23:11.332Z</time></trkpt><trkpt lat="46.273653" lon="13.1287574"><ele>193.16666666666666</ele><time>2026-04-24T09:23:13.331Z</time></trkpt><trkpt lat="46.2735848" lon="13.1287715"><ele>193.0</ele><time>2026-04-24T09:23:14.331Z</time></trkpt><trkpt lat="46.2735126" lon="13.1287834"><ele>192.99999999999997</ele><time>2026-04-24T09:23:15.331Z</time></trkpt><trkpt lat="46.273434" lon="13.1288004"><ele>193.0</ele><time>2026-04-24T09:23:16.33Z</time></trkpt><trkpt lat="46.2733567" lon="13.1288223"><ele>193.0</ele><time>2026-04-24T09:23:17.331Z</time></trkpt><trkpt lat="46.2732767" lon="13.1288478"><ele>193.0</ele><time>2026-04-24T09:23:18.332Z</time></trkpt><trkpt lat="46.2731939" lon="13.1288755"><ele>192.99999999999997</ele><time>2026-04-24T09:23:19.33Z</time></trkpt><trkpt lat="46.273117" lon="13.1289071"><ele>193.0</ele><time>2026-04-24T09:23:20.33Z</time></trkpt><trkpt lat="46.2730437" lon="13.1289389"><ele>193.00000000000003</ele><time>2026-04-24T09:23:21.331Z</time></trkpt><trkpt lat="46.2729707" lon="13.1289691"><ele>193.0</ele><time>2026-04-24T09:23:22.331Z</time></trkpt><trkpt lat="46.2729044" lon="13.1289988"><ele>193.0</ele><time>2026-04-24T09:23:23.331Z</time></trkpt><trkpt lat="46.2728362" lon="13.1290277"><ele>193.0</ele><time>2026-04-24T09:23:24.331Z</time></trkpt><trkpt lat="46.2727664" lon="13.1290601"><ele>193.0</ele><time>2026-04-24T09:23:25.332Z</time></trkpt><trkpt lat="46.2726979" lon="13.1290912"><ele>193.00000000000003</ele><time>2026-04-24T09:23:26.331Z</time></trkpt><trkpt lat="46.2726226" lon="13.1291203"><ele>193.0</ele><time>2026-04-24T09:23:27.33Z</time></trkpt><trkpt lat="46.2725465" lon="13.1291493"><ele>192.99999999999997</ele><time>2026-04-24T09:23:28.33Z</time></trkpt><trkpt lat="46.2724684" lon="13.129184"><ele>193.0</ele><time>2026-04-24T09:23:29.33Z</time></trkpt><trkpt lat="46.2723863" lon="13.1292232"><ele>193.0</ele><time>2026-04-24T09:23:30.331Z</time></trkpt><trkpt lat="46.2723148" lon="13.129261"><ele>193.0</ele><time>2026-04-24T09:23:31.332Z</time></trkpt><trkpt lat="46.2722421" lon="13.1292952"><ele>192.99999999999997</ele><time>2026-04-24T09:23:32.331Z</time></trkpt><trkpt lat="46.2721747" lon="13.1293262"><ele>193.0</ele><time>2026-04-24T09:23:33.331Z</time></trkpt><trkpt lat="46.2721087" lon="13.1293592"><ele>192.60000000000002</ele><time>2026-04-24T09:23:34.33Z</time></trkpt><trkpt lat="46.27201" lon="13.1293842"><ele>192.20000000000002</ele><time>2026-04-24T09:23:36.332Z</time></trkpt><trkpt lat="46.2719186" lon="13.1293906"><ele>191.8</ele><time>2026-04-24T09:23:38.331Z</time></trkpt><trkpt lat="46.2718512" lon="13.129461"><ele>191.4</ele><time>2026-04-24T09:23:40.331Z</time></trkpt><trkpt lat="46.2718424" lon="13.1296459"><ele>191.0</ele><time>2026-04-24T09:23:42.332Z</time></trkpt><trkpt lat="46.2718502" lon="13.1297552"><ele>191.16666666666666</ele><time>2026-04-24T09:23:43.331Z</time></trkpt><trkpt lat="46.2718748" lon="13.1298961"><ele>191.33333333333331</ele><time>2026-04-24T09:23:44.33Z</time></trkpt><trkpt lat="46.2718874" lon="13.1300107"><ele>191.5</ele><time>2026-04-24T09:23:45.33Z</time></trkpt><trkpt lat="46.271899" lon="13.1301166"><ele>191.66666666666666</ele><time>2026-04-24T09:23:46.33Z</time></trkpt><trkpt lat="46.2719059" lon="13.1302167"><ele>191.83333333333334</ele><time>2026-04-24T09:23:47.33Z</time></trkpt><trkpt lat="46.2719134" lon="13.1303082"><ele>192.0</ele><time>2026-04-24T09:23:48.332Z</time></trkpt><trkpt lat="46.271922" lon="13.1304667"><ele>192.0</ele><time>2026-04-24T09:23:50.33Z</time></trkpt><trkpt lat="46.2719491" lon="13.1305996"><ele>192.0</ele><time>2026-04-24T09:24:11.33Z</time></trkpt><trkpt lat="46.2719577" lon="13.1306959"><ele>192.0</ele><time>2026-04-24T09:24:13.331Z</time></trkpt><trkpt lat="46.2719645" lon="13.1308136"><ele>192.0</ele><time>2026-04-24T09:24:15.332Z</time></trkpt><trkpt lat="46.2719642" lon="13.1309859"><ele>192.0</ele><time>2026-04-24T09:24:17.331Z</time></trkpt><trkpt lat="46.2719617" lon="13.1310786"><ele>192.0</ele><time>2026-04-24T09:24:18.331Z</time></trkpt><trkpt lat="46.2719659" lon="13.1311921"><ele>191.8</ele><time>2026-04-24T09:24:19.33Z</time></trkpt><trkpt lat="46.2719779" lon="13.131335"><ele>191.6</ele><time>2026-04-24T09:24:20.331Z</time></trkpt><trkpt lat="46.2720042" lon="13.1315005"><ele>191.4</ele><time>2026-04-24T09:24:21.332Z</time></trkpt><trkpt lat="46.2720298" lon="13.1316586"><ele>191.20000000000002</ele><time>2026-04-24T09:24:22.33Z</time></trkpt><trkpt lat="46.2720644" lon="13.1318227"><ele>191.0</ele><time>2026-04-24T09:24:23.33Z</time></trkpt><trkpt lat="46.2721076" lon="13.131985"><ele>190.75</ele><time>2026-04-24T09:24:24.331Z</time></trkpt><trkpt lat="46.2721495" lon="13.1321375"><ele>190.5</ele><time>2026-04-24T09:24:25.332Z</time></trkpt><trkpt lat="46.2721939" lon="13.1322939"><ele>190.25</ele><time>2026-04-24T09:24:26.331Z</time></trkpt><trkpt lat="46.2722329" lon="13.1324548"><ele>190.0</ele><time>2026-04-24T09:24:27.332Z</time></trkpt><trkpt lat="46.272267" lon="13.1326045"><ele>190.25</ele><time>2026-04-24T09:24:28.332Z</time></trkpt><trkpt lat="46.2723086" lon="13.1327604"><ele>190.5</ele><time>2026-04-24T09:24:29.331Z</time></trkpt><trkpt lat="46.2723477" lon="13.1329155"><ele>190.75</ele><time>2026-04-24T09:24:30.33Z</time></trkpt><trkpt lat="46.2723872" lon="13.1330697"><ele>191.0</ele><time>2026-04-24T09:24:31.332Z</time></trkpt><trkpt lat="46.2724258" lon="13.1332246"><ele>191.25</ele><time>2026-04-24T09:24:32.33Z</time></trkpt><trkpt lat="46.2724659" lon="13.1333822"><ele>191.5</ele><time>2026-04-24T09:24:33.331Z</time></trkpt><trkpt lat="46.2725015" lon="13.1335305"><ele>191.75</ele><time>2026-04-24T09:24:34.331Z</time></trkpt><trkpt lat="46.2725487" lon="13.1336817"><ele>192.0</ele><time>2026-04-24T09:24:35.332Z</time></trkpt><trkpt lat="46.2726001" lon="13.1338229"><ele>192.0</ele><time>2026-04-24T09:24:36.33Z</time></trkpt><trkpt lat="46.2726551" lon="13.1339626"><ele>192.0</ele><time>2026-04-24T09:24:37.33Z</time></trkpt><trkpt lat="46.2727298" lon="13.1340862"><ele>192.0</ele><time>2026-04-24T09:24:38.332Z</time></trkpt><trkpt lat="46.2727832" lon="13.1342099"><ele>192.0</ele><time>2026-04-24T09:24:39.33Z</time></trkpt><trkpt lat="46.2728299" lon="13.1343284"><ele>192.0</ele><time>2026-04-24T09:24:40.331Z</time></trkpt><trkpt lat="46.2728783" lon="13.1344507"><ele>191.75</ele><time>2026-04-24T09:24:41.331Z</time></trkpt><trkpt lat="46.2729429" lon="13.13457"><ele>191.5</ele><time>2026-04-24T09:24:42.331Z</time></trkpt><trkpt lat="46.2730112" lon="13.1347073"><ele>191.25</ele><time>2026-04-24T09:24:43.331Z</time></trkpt><trkpt lat="46.2730963" lon="13.1348487"><ele>191.0</ele><time>2026-04-24T09:24:44.33Z</time></trkpt><trkpt lat="46.2731937" lon="13.1349708"><ele>192.0</ele><time>2026-04-24T09:24:45.33Z</time></trkpt><trkpt lat="46.2732919" lon="13.135082"><ele>193.0</ele><time>2026-04-24T09:24:46.331Z</time></trkpt><trkpt lat="46.2734001" lon="13.1351805"><ele>194.0</ele><time>2026-04-24T09:24:47.331Z</time></trkpt><trkpt lat="46.2735112" lon="13.1352765"><ele>195.0</ele><time>2026-04-24T09:24:48.331Z</time></trkpt><trkpt lat="46.2736305" lon="13.135365"><ele>195.0</ele><time>2026-04-24T09:24:49.33Z</time></trkpt><trkpt lat="46.273749" lon="13.1354685"><ele>195.0</ele><time>2026-04-24T09:24:50.331Z</time></trkpt><trkpt lat="46.2738583" lon="13.1355926"><ele>195.0</ele><time>2026-04-24T09:24:51.329Z</time></trkpt><trkpt lat="46.2739626" lon="13.1357264"><ele>195.0</ele><time>2026-04-24T09:24:52.329Z</time></trkpt><trkpt lat="46.2740673" lon="13.135861"><ele>197.75</ele><time>2026-04-24T09:24:53.331Z</time></trkpt><trkpt lat="46.2741594" lon="13.1360095"><ele>200.5</ele><time>2026-04-24T09:24:54.33Z</time></trkpt><trkpt lat="46.2742576" lon="13.136149"><ele>203.25</ele><time>2026-04-24T09:24:55.33Z</time></trkpt><trkpt lat="46.2743477" lon="13.1362881"><ele>206.0</ele><time>2026-04-24T09:24:56.329Z</time></trkpt><trkpt lat="46.2744253" lon="13.1364178"><ele>206.0</ele><time>2026-04-24T09:24:57.329Z</time></trkpt><trkpt lat="46.2744942" lon="13.1365421"><ele>206.0</ele><time>2026-04-24T09:24:58.33Z</time></trkpt><trkpt lat="46.2745462" lon="13.1366692"><ele>206.0</ele><time>2026-04-24T09:24:59.33Z</time></trkpt><trkpt lat="46.274572" lon="13.1368091"><ele>206.0</ele><time>2026-04-24T09:25:00.33Z</time></trkpt><trkpt lat="46.2745758" lon="13.1369586"><ele>206.0</ele><time>2026-04-24T09:25:01.329Z</time></trkpt><trkpt lat="46.2745621" lon="13.1371208"><ele>206.5</ele><time>2026-04-24T09:25:02.33Z</time></trkpt><trkpt lat="46.274536" lon="13.1372928"><ele>207.0</ele><time>2026-04-24T09:25:03.329Z</time></trkpt><trkpt lat="46.2745049" lon="13.1374753"><ele>207.5</ele><time>2026-04-24T09:25:04.331Z</time></trkpt><trkpt lat="46.2744762" lon="13.1376787"><ele>208.0</ele><time>2026-04-24T09:25:05.331Z</time></trkpt><trkpt lat="46.274441" lon="13.1378862"><ele>208.75</ele><time>2026-04-24T09:25:06.33Z</time></trkpt><trkpt lat="46.2744035" lon="13.1380819"><ele>209.5</ele><time>2026-04-24T09:25:07.33Z</time></trkpt><trkpt lat="46.2743662" lon="13.1382731"><ele>210.25</ele><time>2026-04-24T09:25:08.33Z</time></trkpt><trkpt lat="46.2743361" lon="13.1384449"><ele>211.0</ele><time>2026-04-24T09:25:09.33Z</time></trkpt><trkpt lat="46.274322" lon="13.1385824"><ele>211.8</ele><time>2026-04-24T09:25:10.33Z</time></trkpt><trkpt lat="46.2743229" lon="13.1387087"><ele>212.60000000000002</ele><time>2026-04-24T09:25:11.33Z</time></trkpt><trkpt lat="46.2743435" lon="13.1388519"><ele>213.4</ele><time>2026-04-24T09:25:12.331Z</time></trkpt><trkpt lat="46.2743745" lon="13.1390049"><ele>214.2</ele><time>2026-04-24T09:25:13.329Z</time></trkpt><trkpt lat="46.274419" lon="13.1391621"><ele>215.0</ele><time>2026-04-24T09:25:14.33Z</time></trkpt><trkpt lat="46.2744653" lon="13.1393085"><ele>216.2</ele><time>2026-04-24T09:25:15.331Z</time></trkpt><trkpt lat="46.2745067" lon="13.1394553"><ele>217.4</ele><time>2026-04-24T09:25:16.33Z</time></trkpt><trkpt lat="46.2745351" lon="13.1396051"><ele>218.60000000000002</ele><time>2026-04-24T09:25:17.33Z</time></trkpt><trkpt lat="46.2745491" lon="13.1397647"><ele>219.8</ele><time>2026-04-24T09:25:18.329Z</time></trkpt><trkpt lat="46.2745473" lon="13.1399291"><ele>221.0</ele><time>2026-04-24T09:25:19.331Z</time></trkpt><trkpt lat="46.2745362" lon="13.1401006"><ele>223.25</ele><time>2026-04-24T09:25:20.33Z</time></trkpt><trkpt lat="46.2745221" lon="13.1402801"><ele>225.5</ele><time>2026-04-24T09:25:21.331Z</time></trkpt><trkpt lat="46.274494" lon="13.1404521"><ele>227.75</ele><time>2026-04-24T09:25:22.331Z</time></trkpt><trkpt lat="46.274473" lon="13.1406316"><ele>230.0</ele><time>2026-04-24T09:25:23.331Z</time></trkpt><trkpt lat="46.2744784" lon="13.140799"><ele>230.75</ele><time>2026-04-24T09:25:24.33Z</time></trkpt><trkpt lat="46.2744993" lon="13.1409657"><ele>231.5</ele><time>2026-04-24T09:25:25.329Z</time></trkpt><trkpt lat="46.2745431" lon="13.1411308"><ele>232.25</ele><time>2026-04-24T09:25:26.329Z</time></trkpt><trkpt lat="46.2745862" lon="13.1413002"><ele>233.0</ele><time>2026-04-24T09:25:27.329Z</time></trkpt><trkpt lat="46.2746239" lon="13.1414842"><ele>232.25</ele><time>2026-04-24T09:25:28.331Z</time></trkpt><trkpt lat="46.2746416" lon="13.14167"><ele>231.5</ele><time>2026-04-24T09:25:29.33Z</time></trkpt><trkpt lat="46.2746506" lon="13.1418563"><ele>230.75</ele><time>2026-04-24T09:25:30.33Z</time></trkpt><trkpt lat="46.2746785" lon="13.142024"><ele>230.0</ele><time>2026-04-24T09:25:31.331Z</time></trkpt><trkpt lat="46.274729" lon="13.1421684"><ele>234.5</ele><time>2026-04-24T09:25:32.331Z</time></trkpt><trkpt lat="46.274796" lon="13.1422985"><ele>239.0</ele><time>2026-04-24T09:25:33.329Z</time></trkpt><trkpt lat="46.2748756" lon="13.1424273"><ele>243.5</ele><time>2026-04-24T09:25:34.329Z</time></trkpt><trkpt lat="46.2749584" lon="13.1425561"><ele>248.0</ele><time>2026-04-24T09:25:35.331Z</time></trkpt><trkpt lat="46.2750395" lon="13.1426637"><ele>248.00000000000003</ele><time>2026-04-24T09:25:36.331Z</time></trkpt><trkpt lat="46.275107" lon="13.1427578"><ele>248.0</ele><time>2026-04-24T09:25:37.329Z</time></trkpt><trkpt lat="46.2751584" lon="13.142824"><ele>248.0</ele><time>2026-04-24T09:25:38.33Z</time></trkpt><trkpt lat="46.2752266" lon="13.1428772"><ele>248.0</ele><time>2026-04-24T09:25:40.33Z</time></trkpt><trkpt lat="46.2753073" lon="13.1428711"><ele>248.00000000000003</ele><time>2026-04-24T09:26:48.33Z</time></trkpt><trkpt lat="46.2753821" lon="13.1429098"><ele>248.0</ele><time>2026-04-24T09:26:51.331Z</time></trkpt><trkpt lat="46.2754363" lon="13.1429709"><ele>248.00000000000003</ele><time>2026-04-24T09:26:54.33Z</time></trkpt><trkpt lat="46.2754641" lon="13.143066"><ele>248.0</ele><time>2026-04-24T09:26:57.33Z</time></trkpt><trkpt lat="46.2754364" lon="13.1432421"><ele>248.0</ele><time>2026-04-24T09:27:00.33Z</time></trkpt><trkpt lat="46.2754165" lon="13.1433667"><ele>248.0</ele><time>2026-04-24T09:27:01.33Z</time></trkpt><trkpt lat="46.2753827" lon="13.1434561"><ele>248.00000000000003</ele><time>2026-04-24T09:27:02.329Z</time></trkpt><trkpt lat="46.2753346" lon="13.1435692"><ele>248.0</ele><time>2026-04-24T09:27:03.33Z</time></trkpt><trkpt lat="46.2752891" lon="13.1436635"><ele>247.50000000000003</ele><time>2026-04-24T09:27:04.331Z</time></trkpt><trkpt lat="46.2752391" lon="13.1437386"><ele>247.0</ele><time>2026-04-24T09:27:05.329Z</time></trkpt><trkpt lat="46.2751729" lon="13.143854"><ele>246.5</ele><time>2026-04-24T09:27:06.33Z</time></trkpt><trkpt lat="46.2751029" lon="13.1439652"><ele>246.0</ele><time>2026-04-24T09:27:07.33Z</time></trkpt><trkpt lat="46.2750237" lon="13.1440122"><ele>245.50000000000003</ele><time>2026-04-24T09:27:08.329Z</time></trkpt><trkpt lat="46.2749493" lon="13.144056"><ele>245.0</ele><time>2026-04-24T09:27:09.33Z</time></trkpt><trkpt lat="46.2748748" lon="13.1441159"><ele>243.75</ele><time>2026-04-24T09:27:10.329Z</time></trkpt><trkpt lat="46.2747502" lon="13.1440998"><ele>242.5</ele><time>2026-04-24T09:27:11.329Z</time></trkpt><trkpt lat="46.2746174" lon="13.1441486"><ele>241.25</ele><time>2026-04-24T09:27:12.329Z</time></trkpt><trkpt lat="46.2744643" lon="13.1441558"><ele>240.0</ele><time>2026-04-24T09:27:13.329Z</time></trkpt><trkpt lat="46.2743954" lon="13.144206"><ele>240.0</ele><time>2026-04-24T09:27:14.328Z</time></trkpt><trkpt lat="46.2744061" lon="13.1443508"><ele>240.0</ele><time>2026-04-24T09:27:15.33Z</time></trkpt><trkpt lat="46.274227" lon="13.1443848"><ele>240.0</ele><time>2026-04-24T09:27:16.329Z</time></trkpt><trkpt lat="46.2740701" lon="13.1444205"><ele>240.0</ele><time>2026-04-24T09:27:17.328Z</time></trkpt><trkpt lat="46.273957" lon="13.1444881"><ele>236.0</ele><time>2026-04-24T09:27:18.33Z</time></trkpt><trkpt lat="46.2738144" lon="13.1445248"><ele>232.0</ele><time>2026-04-24T09:27:19.33Z</time></trkpt><trkpt lat="46.2736736" lon="13.1445582"><ele>228.0</ele><time>2026-04-24T09:27:20.329Z</time></trkpt><trkpt lat="46.2735705" lon="13.1445945"><ele>224.0</ele><time>2026-04-24T09:27:21.329Z</time></trkpt><trkpt lat="46.2734739" lon="13.144649"><ele>224.0</ele><time>2026-04-24T09:27:22.33Z</time></trkpt><trkpt lat="46.2733473" lon="13.1446887"><ele>224.0</ele><time>2026-04-24T09:27:23.33Z</time></trkpt><trkpt lat="46.2732178" lon="13.1447291"><ele>224.0</ele><time>2026-04-24T09:27:24.329Z</time></trkpt><trkpt lat="46.2730964" lon="13.1447613"><ele>224.0</ele><time>2026-04-24T09:27:25.328Z</time></trkpt><trkpt lat="46.2729653" lon="13.1448021"><ele>220.75</ele><time>2026-04-24T09:27:26.328Z</time></trkpt><trkpt lat="46.2728326" lon="13.1448428"><ele>217.5</ele><time>2026-04-24T09:27:27.329Z</time></trkpt><trkpt lat="46.2727034" lon="13.1448758"><ele>214.25</ele><time>2026-04-24T09:27:28.328Z</time></trkpt><trkpt lat="46.2725783" lon="13.1449211"><ele>211.0</ele><time>2026-04-24T09:27:29.329Z</time></trkpt><trkpt lat="46.2724593" lon="13.1449749"><ele>213.5</ele><time>2026-04-24T09:27:30.329Z</time></trkpt><trkpt lat="46.2723415" lon="13.1450205"><ele>216.0</ele><time>2026-04-24T09:27:31.329Z</time></trkpt><trkpt lat="46.272224" lon="13.1450771"><ele>218.5</ele><time>2026-04-24T09:27:32.328Z</time></trkpt><trkpt lat="46.2720998" lon="13.145143"><ele>221.0</ele><time>2026-04-24T09:27:33.328Z</time></trkpt><trkpt lat="46.2719784" lon="13.1452131"><ele>221.0</ele><time>2026-04-24T09:27:34.329Z</time></trkpt><trkpt lat="46.271856" lon="13.145283"><ele>221.0</ele><time>2026-04-24T09:27:35.329Z</time></trkpt><trkpt lat="46.2717448" lon="13.1453547"><ele>221.0</ele><time>2026-04-24T09:27:36.329Z</time></trkpt><trkpt lat="46.2716217" lon="13.1454374"><ele>221.0</ele><time>2026-04-24T09:27:37.33Z</time></trkpt><trkpt lat="46.271495" lon="13.1455212"><ele>224.25</ele><time>2026-04-24T09:27:38.33Z</time></trkpt><trkpt lat="46.2713647" lon="13.1455985"><ele>227.5</ele><time>2026-04-24T09:27:39.329Z</time></trkpt><trkpt lat="46.2712454" lon="13.1456693"><ele>230.75</ele><time>2026-04-24T09:27:40.329Z</time></trkpt><trkpt lat="46.2711229" lon="13.1457409"><ele>234.0</ele><time>2026-04-24T09:27:41.33Z</time></trkpt><trkpt lat="46.2710048" lon="13.1458213"><ele>234.0</ele><time>2026-04-24T09:27:42.33Z</time></trkpt><trkpt lat="46.2708934" lon="13.1458848"><ele>234.0</ele><time>2026-04-24T09:27:43.329Z</time></trkpt><trkpt lat="46.2707647" lon="13.1459749"><ele>234.0</ele><time>2026-04-24T09:27:44.328Z</time></trkpt><trkpt lat="46.2706418" lon="13.1460697"><ele>234.0</ele><time>2026-04-24T09:27:45.329Z</time></trkpt><trkpt lat="46.270507" lon="13.1461346"><ele>229.5</ele><time>2026-04-24T09:27:46.329Z</time></trkpt><trkpt lat="46.2703827" lon="13.1462007"><ele>225.0</ele><time>2026-04-24T09:27:47.329Z</time></trkpt><trkpt lat="46.2702507" lon="13.146258"><ele>220.5</ele><time>2026-04-24T09:27:48.329Z</time></trkpt><trkpt lat="46.2701145" lon="13.1463017"><ele>216.0</ele><time>2026-04-24T09:27:49.328Z</time></trkpt><trkpt lat="46.2699891" lon="13.1463167"><ele>216.0</ele><time>2026-04-24T09:27:50.328Z</time></trkpt><trkpt lat="46.2698573" lon="13.1463498"><ele>216.0</ele><time>2026-04-24T09:27:51.329Z</time></trkpt><trkpt lat="46.2697299" lon="13.1463823"><ele>216.0</ele><time>2026-04-24T09:27:52.328Z</time></trkpt><trkpt lat="46.2696011" lon="13.1464268"><ele>216.0</ele><time>2026-04-24T09:27:53.328Z</time></trkpt><trkpt lat="46.2694861" lon="13.1464816"><ele>217.4</ele><time>2026-04-24T09:27:54.329Z</time></trkpt><trkpt lat="46.2693923" lon="13.1465411"><ele>218.8</ele><time>2026-04-24T09:27:55.329Z</time></trkpt><trkpt lat="46.2692884" lon="13.146617"><ele>220.20000000000002</ele><time>2026-04-24T09:27:56.329Z</time></trkpt><trkpt lat="46.2691893" lon="13.1467035"><ele>221.60000000000002</ele><time>2026-04-24T09:27:57.328Z</time></trkpt><trkpt lat="46.2691001" lon="13.1467848"><ele>223.0</ele><time>2026-04-24T09:27:58.329Z</time></trkpt><trkpt lat="46.2690038" lon="13.1468635"><ele>221.0</ele><time>2026-04-24T09:27:59.328Z</time></trkpt><trkpt lat="46.268914" lon="13.1469428"><ele>219.0</ele><time>2026-04-24T09:28:00.329Z</time></trkpt><trkpt lat="46.2688166" lon="13.1470064"><ele>217.0</ele><time>2026-04-24T09:28:01.329Z</time></trkpt><trkpt lat="46.2687192" lon="13.1470647"><ele>215.0</ele><time>2026-04-24T09:28:02.329Z</time></trkpt><trkpt lat="46.2686025" lon="13.1471193"><ele>213.0</ele><time>2026-04-24T09:28:03.329Z</time></trkpt><trkpt lat="46.2684814" lon="13.1471598"><ele>213.0</ele><time>2026-04-24T09:28:04.329Z</time></trkpt><trkpt lat="46.2683485" lon="13.1471845"><ele>213.0</ele><time>2026-04-24T09:28:05.329Z</time></trkpt><trkpt lat="46.2682162" lon="13.1472054"><ele>213.0</ele><time>2026-04-24T09:28:06.33Z</time></trkpt><trkpt lat="46.2680895" lon="13.1472167"><ele>213.0</ele><time>2026-04-24T09:28:07.329Z</time></trkpt><trkpt lat="46.2679627" lon="13.1472191"><ele>211.75</ele><time>2026-04-24T09:28:08.33Z</time></trkpt><trkpt lat="46.2678427" lon="13.1472192"><ele>210.5</ele><time>2026-04-24T09:28:09.329Z</time></trkpt><trkpt lat="46.2677186" lon="13.1472153"><ele>209.25</ele><time>2026-04-24T09:28:10.329Z</time></trkpt><trkpt lat="46.2676083" lon="13.1472134"><ele>208.0</ele><time>2026-04-24T09:28:11.33Z</time></trkpt><trkpt lat="46.2675007" lon="13.1472195"><ele>208.0</ele><time>2026-04-24T09:28:12.33Z</time></trkpt><trkpt lat="46.2673879" lon="13.1472258"><ele>208.0</ele><time>2026-04-24T09:28:13.329Z</time></trkpt><trkpt lat="46.267276" lon="13.1472243"><ele>208.0</ele><time>2026-04-24T09:28:14.33Z</time></trkpt><trkpt lat="46.2671512" lon="13.1472253"><ele>208.0</ele><time>2026-04-24T09:28:15.329Z</time></trkpt><trkpt lat="46.267031" lon="13.147228"><ele>208.75</ele><time>2026-04-24T09:28:16.329Z</time></trkpt><trkpt lat="46.266909" lon="13.1472299"><ele>209.5</ele><time>2026-04-24T09:28:17.329Z</time></trkpt><trkpt lat="46.2667886" lon="13.1472266"><ele>210.25</ele><time>2026-04-24T09:28:18.328Z</time></trkpt><trkpt lat="46.2666685" lon="13.1472243"><ele>211.0</ele><time>2026-04-24T09:28:19.329Z</time></trkpt><trkpt lat="46.2665459" lon="13.1472179"><ele>211.5</ele><time>2026-04-24T09:28:20.329Z</time></trkpt><trkpt lat="46.2664209" lon="13.1471889"><ele>212.0</ele><time>2026-04-24T09:28:21.328Z</time></trkpt><trkpt lat="46.2663022" lon="13.1471405"><ele>212.5</ele><time>2026-04-24T09:28:22.328Z</time></trkpt><trkpt lat="46.2661921" lon="13.1470828"><ele>213.0</ele><time>2026-04-24T09:28:23.33Z</time></trkpt><trkpt lat="46.2660855" lon="13.1470078"><ele>213.0</ele><time>2026-04-24T09:28:24.328Z</time></trkpt><trkpt lat="46.2659816" lon="13.146939"><ele>213.0</ele><time>2026-04-24T09:28:25.328Z</time></trkpt><trkpt lat="46.2658801" lon="13.146879"><ele>213.0</ele><time>2026-04-24T09:28:26.329Z</time></trkpt><trkpt lat="46.2657788" lon="13.1468146"><ele>213.0</ele><time>2026-04-24T09:28:27.328Z</time></trkpt><trkpt lat="46.2656766" lon="13.1467571"><ele>213.0</ele><time>2026-04-24T09:28:28.328Z</time></trkpt><trkpt lat="46.2655656" lon="13.1467043"><ele>212.25</ele><time>2026-04-24T09:28:29.328Z</time></trkpt><trkpt lat="46.2654527" lon="13.1466545"><ele>211.5</ele><time>2026-04-24T09:28:30.328Z</time></trkpt><trkpt lat="46.2653416" lon="13.1466078"><ele>210.75</ele><time>2026-04-24T09:28:31.329Z</time></trkpt><trkpt lat="46.265223" lon="13.146572"><ele>210.0</ele><time>2026-04-24T09:28:32.328Z</time></trkpt><trkpt lat="46.2651031" lon="13.146537"><ele>210.0</ele><time>2026-04-24T09:28:33.329Z</time></trkpt><trkpt lat="46.2649899" lon="13.1464977"><ele>210.0</ele><time>2026-04-24T09:28:34.329Z</time></trkpt><trkpt lat="46.264872" lon="13.1464596"><ele>210.0</ele><time>2026-04-24T09:28:35.33Z</time></trkpt><trkpt lat="46.2647492" lon="13.1464353"><ele>210.0</ele><time>2026-04-24T09:28:36.329Z</time></trkpt><trkpt lat="46.2646217" lon="13.1464184"><ele>209.5</ele><time>2026-04-24T09:28:37.329Z</time></trkpt><trkpt lat="46.2644904" lon="13.1464146"><ele>209.0</ele><time>2026-04-24T09:28:38.329Z</time></trkpt><trkpt lat="46.2643577" lon="13.1464195"><ele>208.5</ele><time>2026-04-24T09:28:39.329Z</time></trkpt><trkpt lat="46.2642294" lon="13.1464294"><ele>208.0</ele><time>2026-04-24T09:28:40.329Z</time></trkpt><trkpt lat="46.2641068" lon="13.1464456"><ele>208.0</ele><time>2026-04-24T09:28:41.33Z</time></trkpt><trkpt lat="46.263983" lon="13.1464687"><ele>208.0</ele><time>2026-04-24T09:28:42.329Z</time></trkpt><trkpt lat="46.2638601" lon="13.1464951"><ele>208.0</ele><time>2026-04-24T09:28:43.329Z</time></trkpt><trkpt lat="46.2637351" lon="13.1465228"><ele>208.0</ele><time>2026-04-24T09:28:44.329Z</time></trkpt><trkpt lat="46.2636128" lon="13.1465446"><ele>209.5</ele><time>2026-04-24T09:28:45.33Z</time></trkpt><trkpt lat="46.2634857" lon="13.1465696"><ele>211.0</ele><time>2026-04-24T09:28:46.329Z</time></trkpt><trkpt lat="46.2633543" lon="13.1465953"><ele>212.5</ele><time>2026-04-24T09:28:47.329Z</time></trkpt><trkpt lat="46.2632176" lon="13.1466221"><ele>214.0</ele><time>2026-04-24T09:28:48.328Z</time></trkpt><trkpt lat="46.263079" lon="13.1466561"><ele>214.0</ele><time>2026-04-24T09:28:49.329Z</time></trkpt><trkpt lat="46.2629362" lon="13.146684"><ele>214.0</ele><time>2026-04-24T09:28:50.329Z</time></trkpt><trkpt lat="46.2627909" lon="13.1467196"><ele>214.0</ele><time>2026-04-24T09:28:51.329Z</time></trkpt><trkpt lat="46.2626539" lon="13.1467495"><ele>214.0</ele><time>2026-04-24T09:28:52.329Z</time></trkpt><trkpt lat="46.2625273" lon="13.1467805"><ele>214.0</ele><time>2026-04-24T09:28:53.329Z</time></trkpt><trkpt lat="46.2624064" lon="13.1468105"><ele>214.0</ele><time>2026-04-24T09:28:54.328Z</time></trkpt><trkpt lat="46.2622914" lon="13.146845"><ele>214.0</ele><time>2026-04-24T09:28:55.329Z</time></trkpt><trkpt lat="46.2621733" lon="13.1468809"><ele>214.0</ele><time>2026-04-24T09:28:56.329Z</time></trkpt><trkpt lat="46.2620532" lon="13.1469193"><ele>213.75</ele><time>2026-04-24T09:28:57.328Z</time></trkpt><trkpt lat="46.261934" lon="13.1469603"><ele>213.5</ele><time>2026-04-24T09:28:58.329Z</time></trkpt><trkpt lat="46.261814" lon="13.1470105"><ele>213.25</ele><time>2026-04-24T09:28:59.328Z</time></trkpt><trkpt lat="46.2616926" lon="13.1470643"><ele>213.0</ele><time>2026-04-24T09:29:00.329Z</time></trkpt><trkpt lat="46.2615692" lon="13.1471245"><ele>213.0</ele><time>2026-04-24T09:29:01.33Z</time></trkpt><trkpt lat="46.2614513" lon="13.1471843"><ele>213.0</ele><time>2026-04-24T09:29:02.329Z</time></trkpt><trkpt lat="46.261333" lon="13.1472438"><ele>213.0</ele><time>2026-04-24T09:29:03.328Z</time></trkpt><trkpt lat="46.2612074" lon="13.1473065"><ele>213.0</ele><time>2026-04-24T09:29:04.328Z</time></trkpt><trkpt lat="46.2610823" lon="13.1473629"><ele>213.25</ele><time>2026-04-24T09:29:05.329Z</time></trkpt><trkpt lat="46.2609617" lon="13.1474131"><ele>213.5</ele><time>2026-04-24T09:29:06.329Z</time></trkpt><trkpt lat="46.2608354" lon="13.1474742"><ele>213.75</ele><time>2026-04-24T09:29:07.328Z</time></trkpt><trkpt lat="46.2607129" lon="13.1475211"><ele>214.0</ele><time>2026-04-24T09:29:08.329Z</time></trkpt><trkpt lat="46.2605899" lon="13.1475618"><ele>213.5</ele><time>2026-04-24T09:29:09.329Z</time></trkpt><trkpt lat="46.2604662" lon="13.1475944"><ele>213.0</ele><time>2026-04-24T09:29:10.328Z</time></trkpt><trkpt lat="46.2603378" lon="13.1476201"><ele>212.5</ele><time>2026-04-24T09:29:11.329Z</time></trkpt><trkpt lat="46.2602111" lon="13.1476381"><ele>212.0</ele><time>2026-04-24T09:29:12.328Z</time></trkpt><trkpt lat="46.2600858" lon="13.147648"><ele>212.0</ele><time>2026-04-24T09:29:13.33Z</time></trkpt><trkpt lat="46.2599611" lon="13.147655"><ele>212.0</ele><time>2026-04-24T09:29:14.329Z</time></trkpt><trkpt lat="46.2598312" lon="13.1476598"><ele>212.0</ele><time>2026-04-24T09:29:15.328Z</time></trkpt><trkpt lat="46.2597067" lon="13.1476599"><ele>212.0</ele><time>2026-04-24T09:29:16.328Z</time></trkpt><trkpt lat="46.259574" lon="13.1476547"><ele>212.5</ele><time>2026-04-24T09:29:17.329Z</time></trkpt><trkpt lat="46.2594437" lon="13.1476513"><ele>213.0</ele><time>2026-04-24T09:29:18.33Z</time></trkpt><trkpt lat="46.259314" lon="13.1476488"><ele>213.5</ele><time>2026-04-24T09:29:19.329Z</time></trkpt><trkpt lat="46.2591844" lon="13.1476441"><ele>214.0</ele><time>2026-04-24T09:29:20.328Z</time></trkpt><trkpt lat="46.2590528" lon="13.1476483"><ele>212.5</ele><time>2026-04-24T09:29:21.328Z</time></trkpt><trkpt lat="46.2589165" lon="13.1476539"><ele>211.0</ele><time>2026-04-24T09:29:22.33Z</time></trkpt><trkpt lat="46.2587801" lon="13.1476598"><ele>209.5</ele><time>2026-04-24T09:29:23.329Z</time></trkpt><trkpt lat="46.2586421" lon="13.1476633"><ele>208.0</ele><time>2026-04-24T09:29:24.329Z</time></trkpt><trkpt lat="46.2585049" lon="13.1476694"><ele>208.0</ele><time>2026-04-24T09:29:25.329Z</time></trkpt><trkpt lat="46.2583695" lon="13.1476743"><ele>208.0</ele><time>2026-04-24T09:29:26.328Z</time></trkpt><trkpt lat="46.2582309" lon="13.1476832"><ele>208.0</ele><time>2026-04-24T09:29:27.329Z</time></trkpt><trkpt lat="46.2580905" lon="13.1476898"><ele>208.0</ele><time>2026-04-24T09:29:28.329Z</time></trkpt><trkpt lat="46.2579534" lon="13.1476951"><ele>207.25</ele><time>2026-04-24T09:29:29.329Z</time></trkpt><trkpt lat="46.2578116" lon="13.1477008"><ele>206.5</ele><time>2026-04-24T09:29:30.328Z</time></trkpt><trkpt lat="46.2576695" lon="13.1477065"><ele>205.75</ele><time>2026-04-24T09:29:31.328Z</time></trkpt><trkpt lat="46.2575293" lon="13.147717"><ele>205.0</ele><time>2026-04-24T09:29:32.329Z</time></trkpt><trkpt lat="46.2573924" lon="13.147721"><ele>205.0</ele><time>2026-04-24T09:29:33.329Z</time></trkpt><trkpt lat="46.2572587" lon="13.1477245"><ele>205.0</ele><time>2026-04-24T09:29:34.329Z</time></trkpt><trkpt lat="46.2571232" lon="13.1477301"><ele>205.0</ele><time>2026-04-24T09:29:35.329Z</time></trkpt><trkpt lat="46.2569851" lon="13.1477346"><ele>205.0</ele><time>2026-04-24T09:29:36.329Z</time></trkpt><trkpt lat="46.2568445" lon="13.1477333"><ele>205.0</ele><time>2026-04-24T09:29:37.33Z</time></trkpt><trkpt lat="46.2566996" lon="13.1477244"><ele>205.0</ele><time>2026-04-24T09:29:38.33Z</time></trkpt><trkpt lat="46.2565473" lon="13.1477078"><ele>205.0</ele><time>2026-04-24T09:29:39.329Z</time></trkpt><trkpt lat="46.2563823" lon="13.1476728"><ele>205.33333333333331</ele><time>2026-04-24T09:29:40.329Z</time></trkpt><trkpt lat="46.2562125" lon="13.147631"><ele>205.66666666666669</ele><time>2026-04-24T09:29:41.329Z</time></trkpt><trkpt lat="46.2560485" lon="13.147593"><ele>206.0</ele><time>2026-04-24T09:29:42.329Z</time></trkpt><trkpt lat="46.255885" lon="13.1475602"><ele>206.0</ele><time>2026-04-24T09:29:43.328Z</time></trkpt><trkpt lat="46.2557232" lon="13.1475339"><ele>206.0</ele><time>2026-04-24T09:29:44.327Z</time></trkpt><trkpt lat="46.2555548" lon="13.147516"><ele>206.0</ele><time>2026-04-24T09:29:45.327Z</time></trkpt><trkpt lat="46.2553929" lon="13.1474987"><ele>204.33333333333334</ele><time>2026-04-24T09:29:46.329Z</time></trkpt><trkpt lat="46.2552341" lon="13.1474855"><ele>202.66666666666669</ele><time>2026-04-24T09:29:47.328Z</time></trkpt><trkpt lat="46.2550758" lon="13.1474775"><ele>201.0</ele><time>2026-04-24T09:29:48.329Z</time></trkpt><trkpt lat="46.254914" lon="13.1474734"><ele>201.0</ele><time>2026-04-24T09:29:49.327Z</time></trkpt><trkpt lat="46.2547496" lon="13.1474709"><ele>201.0</ele><time>2026-04-24T09:29:50.329Z</time></trkpt><trkpt lat="46.2545833" lon="13.1474638"><ele>201.0</ele><time>2026-04-24T09:29:51.329Z</time></trkpt><trkpt lat="46.2544152" lon="13.1474516"><ele>201.0</ele><time>2026-04-24T09:29:52.329Z</time></trkpt><trkpt lat="46.2542456" lon="13.1474417"><ele>201.0</ele><time>2026-04-24T09:29:53.328Z</time></trkpt><trkpt lat="46.2540784" lon="13.1474318"><ele>201.0</ele><time>2026-04-24T09:29:54.328Z</time></trkpt><trkpt lat="46.2539136" lon="13.1474178"><ele>199.66666666666669</ele><time>2026-04-24T09:29:55.329Z</time></trkpt><trkpt lat="46.2537504" lon="13.1474079"><ele>198.33333333333334</ele><time>2026-04-24T09:29:56.327Z</time></trkpt><trkpt lat="46.253588" lon="13.1474011"><ele>197.0</ele><time>2026-04-24T09:29:57.328Z</time></trkpt><trkpt lat="46.2534264" lon="13.1473956"><ele>197.0</ele><time>2026-04-24T09:29:58.328Z</time></trkpt><trkpt lat="46.2532665" lon="13.1473896"><ele>197.0</ele><time>2026-04-24T09:29:59.328Z</time></trkpt><trkpt lat="46.25311" lon="13.1473833"><ele>197.0</ele><time>2026-04-24T09:30:00.328Z</time></trkpt><trkpt lat="46.252951" lon="13.1473892"><ele>196.0</ele><time>2026-04-24T09:30:01.328Z</time></trkpt><trkpt lat="46.2527899" lon="13.1474057"><ele>195.0</ele><time>2026-04-24T09:30:02.327Z</time></trkpt><trkpt lat="46.2526293" lon="13.1474279"><ele>194.0</ele><time>2026-04-24T09:30:03.327Z</time></trkpt><trkpt lat="46.252469" lon="13.1474515"><ele>194.0</ele><time>2026-04-24T09:30:04.329Z</time></trkpt><trkpt lat="46.2523097" lon="13.147475"><ele>194.0</ele><time>2026-04-24T09:30:05.328Z</time></trkpt><trkpt lat="46.2521518" lon="13.147503"><ele>194.0</ele><time>2026-04-24T09:30:06.328Z</time></trkpt><trkpt lat="46.2519955" lon="13.1475348"><ele>194.0</ele><time>2026-04-24T09:30:07.328Z</time></trkpt><trkpt lat="46.2518427" lon="13.1475762"><ele>194.0</ele><time>2026-04-24T09:30:08.327Z</time></trkpt><trkpt lat="46.2516909" lon="13.1476297"><ele>194.0</ele><time>2026-04-24T09:30:09.327Z</time></trkpt><trkpt lat="46.2515413" lon="13.1476955"><ele>193.0</ele><time>2026-04-24T09:30:10.327Z</time></trkpt><trkpt lat="46.2513948" lon="13.1477695"><ele>192.0</ele><time>2026-04-24T09:30:11.328Z</time></trkpt><trkpt lat="46.2512494" lon="13.1478506"><ele>191.0</ele><time>2026-04-24T09:30:12.328Z</time></trkpt><trkpt lat="46.2511039" lon="13.1479282"><ele>191.0</ele><time>2026-04-24T09:30:13.329Z</time></trkpt><trkpt lat="46.250963" lon="13.1480073"><ele>191.0</ele><time>2026-04-24T09:30:14.328Z</time></trkpt><trkpt lat="46.2508242" lon="13.1480862"><ele>191.0</ele><time>2026-04-24T09:30:15.328Z</time></trkpt><trkpt lat="46.2506883" lon="13.1481618"><ele>191.0</ele><time>2026-04-24T09:30:16.328Z</time></trkpt><trkpt lat="46.2505539" lon="13.1482428"><ele>191.5</ele><time>2026-04-24T09:30:17.327Z</time></trkpt><trkpt lat="46.250419" lon="13.1483227"><ele>192.0</ele><time>2026-04-24T09:30:18.328Z</time></trkpt><trkpt lat="46.2502832" lon="13.1484029"><ele>192.5</ele><time>2026-04-24T09:30:19.329Z</time></trkpt><trkpt lat="46.2501475" lon="13.1484866"><ele>193.0</ele><time>2026-04-24T09:30:20.329Z</time></trkpt><trkpt lat="46.2500084" lon="13.1485763"><ele>193.0</ele><time>2026-04-24T09:30:21.327Z</time></trkpt><trkpt lat="46.2498715" lon="13.1486753"><ele>193.0</ele><time>2026-04-24T09:30:22.328Z</time></trkpt><trkpt lat="46.2497341" lon="13.1487964"><ele>193.0</ele><time>2026-04-24T09:30:23.328Z</time></trkpt><trkpt lat="46.249597" lon="13.1489359"><ele>193.66666666666666</ele><time>2026-04-24T09:30:24.328Z</time></trkpt><trkpt lat="46.2494546" lon="13.1490739"><ele>194.33333333333331</ele><time>2026-04-24T09:30:25.327Z</time></trkpt><trkpt lat="46.2493077" lon="13.1492147"><ele>195.0</ele><time>2026-04-24T09:30:26.328Z</time></trkpt><trkpt lat="46.2491612" lon="13.1493619"><ele>195.0</ele><time>2026-04-24T09:30:27.329Z</time></trkpt><trkpt lat="46.2490151" lon="13.1495155"><ele>195.0</ele><time>2026-04-24T09:30:28.327Z</time></trkpt><trkpt lat="46.2488677" lon="13.1496635"><ele>195.0</ele><time>2026-04-24T09:30:29.327Z</time></trkpt><trkpt lat="46.248715" lon="13.1498242"><ele>197.0</ele><time>2026-04-24T09:30:30.328Z</time></trkpt><trkpt lat="46.2485491" lon="13.149994"><ele>199.0</ele><time>2026-04-24T09:30:31.328Z</time></trkpt><trkpt lat="46.2483726" lon="13.1501562"><ele>201.0</ele><time>2026-04-24T09:30:32.328Z</time></trkpt><trkpt lat="46.2481866" lon="13.1503254"><ele>201.33333333333331</ele><time>2026-04-24T09:30:33.327Z</time></trkpt><trkpt lat="46.2480015" lon="13.1505014"><ele>201.66666666666666</ele><time>2026-04-24T09:30:34.329Z</time></trkpt><trkpt lat="46.2478254" lon="13.1506734"><ele>202.0</ele><time>2026-04-24T09:30:35.329Z</time></trkpt><trkpt lat="46.2476603" lon="13.1508393"><ele>204.66666666666666</ele><time>2026-04-24T09:30:36.328Z</time></trkpt><trkpt lat="46.2475043" lon="13.1509996"><ele>207.33333333333331</ele><time>2026-04-24T09:30:37.327Z</time></trkpt><trkpt lat="46.2473551" lon="13.1511533"><ele>210.0</ele><time>2026-04-24T09:30:38.328Z</time></trkpt><trkpt lat="46.2472083" lon="13.1513011"><ele>211.33333333333331</ele><time>2026-04-24T09:30:39.329Z</time></trkpt><trkpt lat="46.2470626" lon="13.151445"><ele>212.66666666666666</ele><time>2026-04-24T09:30:40.328Z</time></trkpt><trkpt lat="46.2469193" lon="13.1515919"><ele>214.0</ele><time>2026-04-24T09:30:41.329Z</time></trkpt><trkpt lat="46.2467784" lon="13.1517382"><ele>215.0</ele><time>2026-04-24T09:30:42.329Z</time></trkpt><trkpt lat="46.2466436" lon="13.1518785"><ele>216.0</ele><time>2026-04-24T09:30:43.327Z</time></trkpt><trkpt lat="46.2465188" lon="13.1520044"><ele>217.0</ele><time>2026-04-24T09:30:44.328Z</time></trkpt><trkpt lat="46.2463983" lon="13.1521141"><ele>217.0</ele><time>2026-04-24T09:30:45.328Z</time></trkpt><trkpt lat="46.2462771" lon="13.152215"><ele>217.0</ele><time>2026-04-24T09:30:46.327Z</time></trkpt><trkpt lat="46.2461573" lon="13.1523063"><ele>217.0</ele><time>2026-04-24T09:30:47.328Z</time></trkpt><trkpt lat="46.2460438" lon="13.1523927"><ele>217.0</ele><time>2026-04-24T09:30:48.328Z</time></trkpt><trkpt lat="46.2459378" lon="13.1524714"><ele>216.8</ele><time>2026-04-24T09:30:49.328Z</time></trkpt><trkpt lat="46.2458352" lon="13.1525417"><ele>216.6</ele><time>2026-04-24T09:30:50.327Z</time></trkpt><trkpt lat="46.2457331" lon="13.1526012"><ele>216.40000000000003</ele><time>2026-04-24T09:30:51.329Z</time></trkpt><trkpt lat="46.2456296" lon="13.1526585"><ele>216.20000000000002</ele><time>2026-04-24T09:30:52.328Z</time></trkpt><trkpt lat="46.2455255" lon="13.1527143"><ele>216.0</ele><time>2026-04-24T09:30:53.329Z</time></trkpt><trkpt lat="46.2454263" lon="13.1527652"><ele>216.0</ele><time>2026-04-24T09:30:54.329Z</time></trkpt><trkpt lat="46.2453317" lon="13.152813"><ele>216.00000000000003</ele><time>2026-04-24T09:30:55.328Z</time></trkpt><trkpt lat="46.2452339" lon="13.1528599"><ele>216.00000000000003</ele><time>2026-04-24T09:30:56.328Z</time></trkpt><trkpt lat="46.2451351" lon="13.1529064"><ele>216.0</ele><time>2026-04-24T09:30:57.327Z</time></trkpt><trkpt lat="46.2450416" lon="13.1529704"><ele>216.0</ele><time>2026-04-24T09:30:58.329Z</time></trkpt><trkpt lat="46.2449545" lon="13.1530394"><ele>216.0</ele><time>2026-04-24T09:30:59.327Z</time></trkpt><trkpt lat="46.2448683" lon="13.1531298"><ele>216.00000000000003</ele><time>2026-04-24T09:31:00.327Z</time></trkpt><trkpt lat="46.2447877" lon="13.153237"><ele>216.00000000000003</ele><time>2026-04-24T09:31:01.328Z</time></trkpt><trkpt lat="46.2447062" lon="13.1533468"><ele>216.0</ele><time>2026-04-24T09:31:02.329Z</time></trkpt><trkpt lat="46.244625" lon="13.1534492"><ele>216.0</ele><time>2026-04-24T09:31:03.327Z</time></trkpt><trkpt lat="46.2445413" lon="13.1535348"><ele>215.66666666666666</ele><time>2026-04-24T09:31:04.329Z</time></trkpt><trkpt lat="46.2444636" lon="13.1536036"><ele>215.33333333333331</ele><time>2026-04-24T09:31:05.327Z</time></trkpt><trkpt lat="46.2443869" lon="13.1536542"><ele>215.0</ele><time>2026-04-24T09:31:06.329Z</time></trkpt><trkpt lat="46.2443131" lon="13.1536931"><ele>214.66666666666666</ele><time>2026-04-24T09:31:07.328Z</time></trkpt><trkpt lat="46.2442425" lon="13.1537342"><ele>214.33333333333331</ele><time>2026-04-24T09:31:08.328Z</time></trkpt><trkpt lat="46.2441765" lon="13.1537655"><ele>214.0</ele><time>2026-04-24T09:31:09.327Z</time></trkpt><trkpt lat="46.2441038" lon="13.1537682"><ele>214.0</ele><time>2026-04-24T09:31:10.327Z</time></trkpt><trkpt lat="46.2440065" lon="13.1537511"><ele>213.99999999999997</ele><time>2026-04-24T09:31:11.328Z</time></trkpt><trkpt lat="46.2439014" lon="13.1537528"><ele>213.99999999999997</ele><time>2026-04-24T09:31:12.327Z</time></trkpt><trkpt lat="46.2437959" lon="13.1537611"><ele>214.0</ele><time>2026-04-24T09:31:13.327Z</time></trkpt><trkpt lat="46.2436787" lon="13.1537526"><ele>214.0</ele><time>2026-04-24T09:31:14.327Z</time></trkpt><trkpt lat="46.2435616" lon="13.153764"><ele>214.2</ele><time>2026-04-24T09:31:15.328Z</time></trkpt><trkpt lat="46.2434518" lon="13.1537912"><ele>214.39999999999998</ele><time>2026-04-24T09:31:16.328Z</time></trkpt><trkpt lat="46.2433532" lon="13.1538082"><ele>214.6</ele><time>2026-04-24T09:31:17.328Z</time></trkpt><trkpt lat="46.2432622" lon="13.1538309"><ele>214.8</ele><time>2026-04-24T09:31:18.327Z</time></trkpt><trkpt lat="46.2431745" lon="13.1538564"><ele>215.0</ele><time>2026-04-24T09:31:19.328Z</time></trkpt><trkpt lat="46.2430917" lon="13.1538775"><ele>216.00000000000003</ele><time>2026-04-24T09:31:20.327Z</time></trkpt><trkpt lat="46.2430115" lon="13.153894"><ele>217.0</ele><time>2026-04-24T09:31:21.327Z</time></trkpt><trkpt lat="46.2429297" lon="13.1538984"><ele>218.0</ele><time>2026-04-24T09:31:22.328Z</time></trkpt><trkpt lat="46.2428434" lon="13.1539006"><ele>219.0</ele><time>2026-04-24T09:31:23.328Z</time></trkpt><trkpt lat="46.2427552" lon="13.1539198"><ele>220.00000000000003</ele><time>2026-04-24T09:31:24.327Z</time></trkpt><trkpt lat="46.2426745" lon="13.153944"><ele>221.0</ele><time>2026-04-24T09:31:25.328Z</time></trkpt><trkpt lat="46.2425949" lon="13.1539738"><ele>221.00000000000003</ele><time>2026-04-24T09:31:26.327Z</time></trkpt><trkpt lat="46.2425134" lon="13.1540083"><ele>221.0</ele><time>2026-04-24T09:31:27.327Z</time></trkpt><trkpt lat="46.2424322" lon="13.1540486"><ele>221.0</ele><time>2026-04-24T09:31:28.328Z</time></trkpt><trkpt lat="46.2423542" lon="13.1540925"><ele>221.0</ele><time>2026-04-24T09:31:29.328Z</time></trkpt><trkpt lat="46.2422758" lon="13.1541363"><ele>221.00000000000003</ele><time>2026-04-24T09:31:30.327Z</time></trkpt><trkpt lat="46.2422014" lon="13.1541855"><ele>221.0</ele><time>2026-04-24T09:31:31.327Z</time></trkpt><trkpt lat="46.2421435" lon="13.1542289"><ele>221.50000000000003</ele><time>2026-04-24T09:31:32.329Z</time></trkpt><trkpt lat="46.2420781" lon="13.1542731"><ele>222.0</ele><time>2026-04-24T09:31:33.327Z</time></trkpt><trkpt lat="46.2420187" lon="13.154309"><ele>222.5</ele><time>2026-04-24T09:31:34.327Z</time></trkpt><trkpt lat="46.2419048" lon="13.1543689"><ele>223.0</ele><time>2026-04-24T09:31:36.328Z</time></trkpt><trkpt lat="46.241809" lon="13.1544007"><ele>223.50000000000003</ele><time>2026-04-24T09:31:38.328Z</time></trkpt><trkpt lat="46.2417197" lon="13.1544248"><ele>224.0</ele><time>2026-04-24T09:31:40.327Z</time></trkpt><trkpt lat="46.2416287" lon="13.1544471"><ele>224.0</ele><time>2026-04-24T09:31:42.328Z</time></trkpt><trkpt lat="46.2415508" lon="13.1544672"><ele>223.99999999999997</ele><time>2026-04-24T09:31:44.328Z</time></trkpt><trkpt lat="46.2414663" lon="13.1545032"><ele>223.99999999999997</ele><time>2026-04-24T09:31:46.329Z</time></trkpt><trkpt lat="46.2413413" lon="13.1545784"><ele>224.0</ele><time>2026-04-24T09:31:48.327Z</time></trkpt><trkpt lat="46.2412725" lon="13.1546185"><ele>224.0</ele><time>2026-04-24T09:31:49.327Z</time></trkpt><trkpt lat="46.2411954" lon="13.1546544"><ele>224.66666666666669</ele><time>2026-04-24T09:31:50.328Z</time></trkpt><trkpt lat="46.2411094" lon="13.1546983"><ele>225.33333333333334</ele><time>2026-04-24T09:31:51.329Z</time></trkpt><trkpt lat="46.2410129" lon="13.1547552"><ele>226.0</ele><time>2026-04-24T09:31:52.329Z</time></trkpt><trkpt lat="46.2409364" lon="13.1547998"><ele>226.66666666666669</ele><time>2026-04-24T09:31:53.327Z</time></trkpt><trkpt lat="46.2408475" lon="13.1548311"><ele>227.33333333333334</ele><time>2026-04-24T09:31:54.329Z</time></trkpt><trkpt lat="46.2407891" lon="13.15487"><ele>228.0</ele><time>2026-04-24T09:31:55.328Z</time></trkpt><trkpt lat="46.2407228" lon="13.1549329"><ele>225.60000000000002</ele><time>2026-04-24T09:31:56.327Z</time></trkpt><trkpt lat="46.2406421" lon="13.1549709"><ele>223.20000000000002</ele><time>2026-04-24T09:31:57.328Z</time></trkpt><trkpt lat="46.2405597" lon="13.155015"><ele>220.8</ele><time>2026-04-24T09:31:58.328Z</time></trkpt><trkpt lat="46.2404723" lon="13.1550637"><ele>218.4</ele><time>2026-04-24T09:31:59.329Z</time></trkpt><trkpt lat="46.240382" lon="13.1550973"><ele>216.0</ele><time>2026-04-24T09:32:00.329Z</time></trkpt><trkpt lat="46.2402914" lon="13.1551428"><ele>215.0</ele><time>2026-04-24T09:32:01.327Z</time></trkpt><trkpt lat="46.2401961" lon="13.1551971"><ele>214.00000000000003</ele><time>2026-04-24T09:32:02.329Z</time></trkpt><trkpt lat="46.2401088" lon="13.1552364"><ele>213.0</ele><time>2026-04-24T09:32:03.328Z</time></trkpt><trkpt lat="46.2400023" lon="13.155292"><ele>212.0</ele><time>2026-04-24T09:32:04.328Z</time></trkpt><trkpt lat="46.239931" lon="13.1553081"><ele>211.0</ele><time>2026-04-24T09:32:05.328Z</time></trkpt><trkpt lat="46.2398363" lon="13.1553445"><ele>209.8</ele><time>2026-04-24T09:32:06.328Z</time></trkpt><trkpt lat="46.2397401" lon="13.1553822"><ele>208.60000000000002</ele><time>2026-04-24T09:32:07.328Z</time></trkpt><trkpt lat="46.2396561" lon="13.1554285"><ele>207.4</ele><time>2026-04-24T09:32:08.328Z</time></trkpt><trkpt lat="46.2395622" lon="13.1554738"><ele>206.2</ele><time>2026-04-24T09:32:09.327Z</time></trkpt><trkpt lat="46.2394738" lon="13.1555177"><ele>205.0</ele><time>2026-04-24T09:32:10.328Z</time></trkpt><trkpt lat="46.2393944" lon="13.1555551"><ele>204.99999999999997</ele><time>2026-04-24T09:32:11.329Z</time></trkpt><trkpt lat="46.2393169" lon="13.1555905"><ele>205.0</ele><time>2026-04-24T09:32:12.328Z</time></trkpt><trkpt lat="46.2392413" lon="13.155622"><ele>205.0</ele><time>2026-04-24T09:32:13.328Z</time></trkpt><trkpt lat="46.2391659" lon="13.1556492"><ele>205.0</ele><time>2026-04-24T09:32:14.329Z</time></trkpt><trkpt lat="46.2390917" lon="13.1556673"><ele>204.99999999999997</ele><time>2026-04-24T09:32:15.328Z</time></trkpt><trkpt lat="46.2390095" lon="13.1556847"><ele>205.0</ele><time>2026-04-24T09:32:16.328Z</time></trkpt><trkpt lat="46.2389209" lon="13.1557065"><ele>205.2</ele><time>2026-04-24T09:32:17.328Z</time></trkpt><trkpt lat="46.2388283" lon="13.155734"><ele>205.4</ele><time>2026-04-24T09:32:18.327Z</time></trkpt><trkpt lat="46.2387307" lon="13.1557755"><ele>205.60000000000002</ele><time>2026-04-24T09:32:19.327Z</time></trkpt><trkpt lat="46.2386382" lon="13.1558062"><ele>205.8</ele><time>2026-04-24T09:32:20.327Z</time></trkpt><trkpt lat="46.2385494" lon="13.1558541"><ele>206.0</ele><time>2026-04-24T09:32:21.328Z</time></trkpt><trkpt lat="46.238464" lon="13.1559116"><ele>206.0</ele><time>2026-04-24T09:32:22.328Z</time></trkpt><trkpt lat="46.2383823" lon="13.1559913"><ele>206.0</ele><time>2026-04-24T09:32:23.328Z</time></trkpt><trkpt lat="46.2382978" lon="13.1560837"><ele>206.0</ele><time>2026-04-24T09:32:24.327Z</time></trkpt><trkpt lat="46.2381973" lon="13.1561781"><ele>206.0</ele><time>2026-04-24T09:32:25.327Z</time></trkpt><trkpt lat="46.2380994" lon="13.1562773"><ele>206.0</ele><time>2026-04-24T09:32:26.327Z</time></trkpt><trkpt lat="46.2379921" lon="13.1563798"><ele>205.66666666666669</ele><time>2026-04-24T09:32:27.328Z</time></trkpt><trkpt lat="46.2378749" lon="13.1565005"><ele>205.33333333333331</ele><time>2026-04-24T09:32:28.329Z</time></trkpt><trkpt lat="46.2377379" lon="13.1566338"><ele>205.0</ele><time>2026-04-24T09:32:29.329Z</time></trkpt><trkpt lat="46.2376048" lon="13.1567684"><ele>205.0</ele><time>2026-04-24T09:32:30.328Z</time></trkpt><trkpt lat="46.2374651" lon="13.1569212"><ele>205.0</ele><time>2026-04-24T09:32:31.329Z</time></trkpt><trkpt lat="46.2373386" lon="13.1570763"><ele>205.0</ele><time>2026-04-24T09:32:32.328Z</time></trkpt><trkpt lat="46.2372171" lon="13.1572344"><ele>204.25</ele><time>2026-04-24T09:32:33.327Z</time></trkpt><trkpt lat="46.2371036" lon="13.1573864"><ele>203.5</ele><time>2026-04-24T09:32:34.329Z</time></trkpt><trkpt lat="46.2369944" lon="13.1575252"><ele>202.75</ele><time>2026-04-24T09:32:35.327Z</time></trkpt><trkpt lat="46.236884" lon="13.1576609"><ele>202.0</ele><time>2026-04-24T09:32:36.327Z</time></trkpt><trkpt lat="46.2367724" lon="13.1577953"><ele>202.0</ele><time>2026-04-24T09:32:37.329Z</time></trkpt><trkpt lat="46.2366364" lon="13.1579129"><ele>202.0</ele><time>2026-04-24T09:32:38.328Z</time></trkpt><trkpt lat="46.2364834" lon="13.1580182"><ele>202.0</ele><time>2026-04-24T09:32:39.328Z</time></trkpt><trkpt lat="46.2363126" lon="13.158136"><ele>201.33333333333331</ele><time>2026-04-24T09:32:40.327Z</time></trkpt><trkpt lat="46.236151" lon="13.1582668"><ele>200.66666666666669</ele><time>2026-04-24T09:32:41.328Z</time></trkpt><trkpt lat="46.2359968" lon="13.1584223"><ele>200.0</ele><time>2026-04-24T09:32:42.327Z</time></trkpt><trkpt lat="46.2358662" lon="13.1585859"><ele>200.0</ele><time>2026-04-24T09:32:43.328Z</time></trkpt><trkpt lat="46.2357431" lon="13.1587707"><ele>200.0</ele><time>2026-04-24T09:32:44.328Z</time></trkpt><trkpt lat="46.2356256" lon="13.1589874"><ele>200.0</ele><time>2026-04-24T09:32:45.328Z</time></trkpt><trkpt lat="46.2355236" lon="13.1592038"><ele>200.0</ele><time>2026-04-24T09:32:46.328Z</time></trkpt><trkpt lat="46.2354371" lon="13.1594306"><ele>200.0</ele><time>2026-04-24T09:32:47.328Z</time></trkpt><trkpt lat="46.2353642" lon="13.159656"><ele>200.0</ele><time>2026-04-24T09:32:48.328Z</time></trkpt><trkpt lat="46.2352923" lon="13.1598842"><ele>200.0</ele><time>2026-04-24T09:32:49.328Z</time></trkpt><trkpt lat="46.2352201" lon="13.1601085"><ele>200.0</ele><time>2026-04-24T09:32:50.329Z</time></trkpt><trkpt lat="46.2351496" lon="13.1603339"><ele>200.0</ele><time>2026-04-24T09:32:51.328Z</time></trkpt><trkpt lat="46.2350756" lon="13.160563"><ele>200.33333333333334</ele><time>2026-04-24T09:32:52.327Z</time></trkpt><trkpt lat="46.2350022" lon="13.1607937"><ele>200.66666666666669</ele><time>2026-04-24T09:32:53.328Z</time></trkpt><trkpt lat="46.23493" lon="13.1610221"><ele>201.0</ele><time>2026-04-24T09:32:54.326Z</time></trkpt><trkpt lat="46.2348614" lon="13.1612537"><ele>199.66666666666669</ele><time>2026-04-24T09:32:55.327Z</time></trkpt><trkpt lat="46.23479" lon="13.1614885"><ele>198.33333333333334</ele><time>2026-04-24T09:32:56.328Z</time></trkpt><trkpt lat="46.2347193" lon="13.161723"><ele>197.0</ele><time>2026-04-24T09:32:57.327Z</time></trkpt><trkpt lat="46.2346508" lon="13.1619603"><ele>197.0</ele><time>2026-04-24T09:32:58.327Z</time></trkpt><trkpt lat="46.2345771" lon="13.1621976"><ele>197.0</ele><time>2026-04-24T09:32:59.328Z</time></trkpt><trkpt lat="46.2345078" lon="13.1624366"><ele>197.0</ele><time>2026-04-24T09:33:00.326Z</time></trkpt><trkpt lat="46.234434" lon="13.1626697"><ele>197.0</ele><time>2026-04-24T09:33:01.327Z</time></trkpt><trkpt lat="46.2343603" lon="13.1629064"><ele>197.0</ele><time>2026-04-24T09:33:02.327Z</time></trkpt><trkpt lat="46.2342886" lon="13.1631412"><ele>197.0</ele><time>2026-04-24T09:33:03.328Z</time></trkpt><trkpt lat="46.2342162" lon="13.1633735"><ele>196.66666666666669</ele><time>2026-04-24T09:33:04.327Z</time></trkpt><trkpt lat="46.2341431" lon="13.1636062"><ele>196.33333333333331</ele><time>2026-04-24T09:33:05.327Z</time></trkpt><trkpt lat="46.2340805" lon="13.1638356"><ele>196.0</ele><time>2026-04-24T09:33:06.328Z</time></trkpt><trkpt lat="46.2340128" lon="13.1640693"><ele>195.66666666666666</ele><time>2026-04-24T09:33:07.327Z</time></trkpt><trkpt lat="46.2339422" lon="13.1643024"><ele>195.33333333333331</ele><time>2026-04-24T09:33:08.326Z</time></trkpt><trkpt lat="46.2338699" lon="13.1645358"><ele>195.0</ele><time>2026-04-24T09:33:09.327Z</time></trkpt><trkpt lat="46.2337951" lon="13.1647646"><ele>194.33333333333331</ele><time>2026-04-24T09:33:10.327Z</time></trkpt><trkpt lat="46.2337155" lon="13.1649906"><ele>193.66666666666666</ele><time>2026-04-24T09:33:11.327Z</time></trkpt><trkpt lat="46.2336359" lon="13.1652095"><ele>193.0</ele><time>2026-04-24T09:33:12.327Z</time></trkpt><trkpt lat="46.233548" lon="13.1654255"><ele>193.0</ele><time>2026-04-24T09:33:13.327Z</time></trkpt><trkpt lat="46.2334583" lon="13.1656286"><ele>193.0</ele><time>2026-04-24T09:33:14.327Z</time></trkpt><trkpt lat="46.233366" lon="13.1658268"><ele>193.0</ele><time>2026-04-24T09:33:15.328Z</time></trkpt><trkpt lat="46.233273" lon="13.1660274"><ele>193.33333333333331</ele><time>2026-04-24T09:33:16.326Z</time></trkpt><trkpt lat="46.233171" lon="13.1662329"><ele>193.66666666666669</ele><time>2026-04-24T09:33:17.328Z</time></trkpt><trkpt lat="46.2330768" lon="13.1664263"><ele>194.0</ele><time>2026-04-24T09:33:18.327Z</time></trkpt><trkpt lat="46.2329775" lon="13.1666145"><ele>193.0</ele><time>2026-04-24T09:33:19.327Z</time></trkpt><trkpt lat="46.2328647" lon="13.1668061"><ele>192.0</ele><time>2026-04-24T09:33:20.327Z</time></trkpt><trkpt lat="46.2327577" lon="13.1670001"><ele>191.0</ele><time>2026-04-24T09:33:21.326Z</time></trkpt><trkpt lat="46.2326582" lon="13.1671928"><ele>191.33333333333331</ele><time>2026-04-24T09:33:22.327Z</time></trkpt><trkpt lat="46.2325484" lon="13.1673823"><ele>191.66666666666666</ele><time>2026-04-24T09:33:23.327Z</time></trkpt><trkpt lat="46.2324514" lon="13.1675918"><ele>192.0</ele><time>2026-04-24T09:33:24.326Z</time></trkpt><trkpt lat="46.2323488" lon="13.1677921"><ele>192.0</ele><time>2026-04-24T09:33:25.326Z</time></trkpt><trkpt lat="46.2322448" lon="13.1679944"><ele>192.0</ele><time>2026-04-24T09:33:26.327Z</time></trkpt><trkpt lat="46.2321458" lon="13.1681987"><ele>192.0</ele><time>2026-04-24T09:33:27.326Z</time></trkpt><trkpt lat="46.2320352" lon="13.1684022"><ele>192.0</ele><time>2026-04-24T09:33:28.326Z</time></trkpt><trkpt lat="46.2319372" lon="13.1685855"><ele>192.0</ele><time>2026-04-24T09:33:29.326Z</time></trkpt><trkpt lat="46.2318312" lon="13.1687858"><ele>192.0</ele><time>2026-04-24T09:33:30.327Z</time></trkpt><trkpt lat="46.2317241" lon="13.168984"><ele>192.33333333333331</ele><time>2026-04-24T09:33:31.327Z</time></trkpt><trkpt lat="46.2316146" lon="13.1691782"><ele>192.66666666666666</ele><time>2026-04-24T09:33:32.326Z</time></trkpt><trkpt lat="46.2315147" lon="13.1693706"><ele>193.0</ele><time>2026-04-24T09:33:33.327Z</time></trkpt><trkpt lat="46.2314277" lon="13.1695382"><ele>192.66666666666666</ele><time>2026-04-24T09:33:34.327Z</time></trkpt><trkpt lat="46.2313374" lon="13.1697228"><ele>192.33333333333331</ele><time>2026-04-24T09:33:35.327Z</time></trkpt><trkpt lat="46.2312461" lon="13.1699081"><ele>192.0</ele><time>2026-04-24T09:33:36.327Z</time></trkpt><trkpt lat="46.2311451" lon="13.1701023"><ele>192.0</ele><time>2026-04-24T09:33:37.326Z</time></trkpt><trkpt lat="46.2310503" lon="13.1702936"><ele>192.0</ele><time>2026-04-24T09:33:38.326Z</time></trkpt><trkpt lat="46.2309611" lon="13.1704705"><ele>192.0</ele><time>2026-04-24T09:33:39.327Z</time></trkpt><trkpt lat="46.2308761" lon="13.17063"><ele>192.0</ele><time>2026-04-24T09:33:40.327Z</time></trkpt><trkpt lat="46.2307861" lon="13.1707946"><ele>192.0</ele><time>2026-04-24T09:33:41.327Z</time></trkpt><trkpt lat="46.2306995" lon="13.1709594"><ele>192.0</ele><time>2026-04-24T09:33:42.326Z</time></trkpt><trkpt lat="46.2306193" lon="13.1711198"><ele>192.0</ele><time>2026-04-24T09:33:43.327Z</time></trkpt><trkpt lat="46.2305357" lon="13.1712792"><ele>192.0</ele><time>2026-04-24T09:33:44.327Z</time></trkpt><trkpt lat="46.2304557" lon="13.1714266"><ele>192.0</ele><time>2026-04-24T09:33:45.326Z</time></trkpt><trkpt lat="46.2303825" lon="13.1715739"><ele>192.0</ele><time>2026-04-24T09:33:46.328Z</time></trkpt><trkpt lat="46.2303131" lon="13.1717095"><ele>192.0</ele><time>2026-04-24T09:33:47.326Z</time></trkpt><trkpt lat="46.2302407" lon="13.1718376"><ele>192.0</ele><time>2026-04-24T09:33:48.326Z</time></trkpt><trkpt lat="46.2301677" lon="13.1719645"><ele>192.0</ele><time>2026-04-24T09:33:49.327Z</time></trkpt><trkpt lat="46.2301093" lon="13.1720863"><ele>192.0</ele><time>2026-04-24T09:33:50.327Z</time></trkpt><trkpt lat="46.2300439" lon="13.1722063"><ele>192.0</ele><time>2026-04-24T09:33:51.328Z</time></trkpt><trkpt lat="46.2299782" lon="13.1723212"><ele>192.0</ele><time>2026-04-24T09:33:52.328Z</time></trkpt><trkpt lat="46.2299054" lon="13.1724459"><ele>192.0</ele><time>2026-04-24T09:33:53.327Z</time></trkpt><trkpt lat="46.2298301" lon="13.172585"><ele>192.0</ele><time>2026-04-24T09:33:54.327Z</time></trkpt><trkpt lat="46.2297582" lon="13.1727346"><ele>192.0</ele><time>2026-04-24T09:33:55.327Z</time></trkpt><trkpt lat="46.2296838" lon="13.172889"><ele>192.0</ele><time>2026-04-24T09:33:56.327Z</time></trkpt><trkpt lat="46.2296053" lon="13.1730432"><ele>191.75</ele><time>2026-04-24T09:33:57.328Z</time></trkpt><trkpt lat="46.2295134" lon="13.1731924"><ele>191.5</ele><time>2026-04-24T09:33:58.328Z</time></trkpt><trkpt lat="46.2294292" lon="13.1733155"><ele>191.25</ele><time>2026-04-24T09:33:59.327Z</time></trkpt><trkpt lat="46.2293458" lon="13.1734236"><ele>191.0</ele><time>2026-04-24T09:34:00.326Z</time></trkpt><trkpt lat="46.2292729" lon="13.1734961"><ele>191.0</ele><time>2026-04-24T09:34:01.327Z</time></trkpt><trkpt lat="46.2292106" lon="13.173542"><ele>191.0</ele><time>2026-04-24T09:34:02.326Z</time></trkpt><trkpt lat="46.2291023" lon="13.1736072"><ele>191.0</ele><time>2026-04-24T09:34:04.326Z</time></trkpt><trkpt lat="46.2290465" lon="13.1737202"><ele>191.0</ele><time>2026-04-24T09:34:06.326Z</time></trkpt><trkpt lat="46.2290843" lon="13.1738291"><ele>191.0</ele><time>2026-04-24T09:34:08.326Z</time></trkpt><trkpt lat="46.2291408" lon="13.1738788"><ele>191.0</ele><time>2026-04-24T09:34:09.328Z</time></trkpt><trkpt lat="46.2291956" lon="13.1739281"><ele>191.0</ele><time>2026-04-24T09:34:10.327Z</time></trkpt><trkpt lat="46.2292474" lon="13.1740194"><ele>191.0</ele><time>2026-04-24T09:34:12.327Z</time></trkpt><trkpt lat="46.2293313" lon="13.1741068"><ele>191.0</ele><time>2026-04-24T09:38:39.325Z</time></trkpt><trkpt lat="46.229381" lon="13.1741734"><ele>191.0</ele><time>2026-04-24T09:38:40.325Z</time></trkpt><trkpt lat="46.2294752" lon="13.1742921"><ele>191.0</ele><time>2026-04-24T09:38:42.324Z</time></trkpt><trkpt lat="46.2295279" lon="13.1743663"><ele>191.0</ele><time>2026-04-24T09:38:43.325Z</time></trkpt><trkpt lat="46.2295838" lon="13.1744409"><ele>191.0</ele><time>2026-04-24T09:38:44.326Z</time></trkpt><trkpt lat="46.2296415" lon="13.1745114"><ele>191.0</ele><time>2026-04-24T09:38:45.325Z</time></trkpt><trkpt lat="46.2297011" lon="13.1745974"><ele>191.0</ele><time>2026-04-24T09:38:46.325Z</time></trkpt><trkpt lat="46.2297657" lon="13.1746868"><ele>191.0</ele><time>2026-04-24T09:38:47.325Z</time></trkpt><trkpt lat="46.2298321" lon="13.174781"><ele>191.0</ele><time>2026-04-24T09:38:48.326Z</time></trkpt><trkpt lat="46.2299085" lon="13.17489"><ele>191.75</ele><time>2026-04-24T09:38:49.326Z</time></trkpt><trkpt lat="46.2299898" lon="13.1750042"><ele>192.5</ele><time>2026-04-24T09:38:50.325Z</time></trkpt><trkpt lat="46.2300691" lon="13.1751152"><ele>193.25</ele><time>2026-04-24T09:38:51.324Z</time></trkpt><trkpt lat="46.2301545" lon="13.1752343"><ele>194.0</ele><time>2026-04-24T09:38:52.325Z</time></trkpt><trkpt lat="46.2302476" lon="13.1753552"><ele>194.0</ele><time>2026-04-24T09:38:53.326Z</time></trkpt><trkpt lat="46.230342" lon="13.1754885"><ele>194.0</ele><time>2026-04-24T09:38:54.325Z</time></trkpt><trkpt lat="46.2304466" lon="13.1756114"><ele>194.0</ele><time>2026-04-24T09:38:55.325Z</time></trkpt><trkpt lat="46.2305566" lon="13.1757403"><ele>194.0</ele><time>2026-04-24T09:38:56.325Z</time></trkpt><trkpt lat="46.2306655" lon="13.1758728"><ele>195.25</ele><time>2026-04-24T09:38:57.324Z</time></trkpt><trkpt lat="46.2307672" lon="13.1759986"><ele>196.5</ele><time>2026-04-24T09:38:58.325Z</time></trkpt><trkpt lat="46.2308637" lon="13.1761171"><ele>197.75</ele><time>2026-04-24T09:38:59.326Z</time></trkpt><trkpt lat="46.2309569" lon="13.1762347"><ele>199.0</ele><time>2026-04-24T09:39:00.325Z</time></trkpt><trkpt lat="46.2310359" lon="13.1763633"><ele>199.0</ele><time>2026-04-24T09:39:01.325Z</time></trkpt><trkpt lat="46.2311037" lon="13.1764952"><ele>199.0</ele><time>2026-04-24T09:39:02.326Z</time></trkpt><trkpt lat="46.231163" lon="13.1766184"><ele>199.0</ele><time>2026-04-24T09:39:03.324Z</time></trkpt><trkpt lat="46.2312135" lon="13.1767348"><ele>199.0</ele><time>2026-04-24T09:39:04.324Z</time></trkpt><trkpt lat="46.231252" lon="13.1768516"><ele>199.0</ele><time>2026-04-24T09:39:05.325Z</time></trkpt><trkpt lat="46.2312906" lon="13.1769729"><ele>199.0</ele><time>2026-04-24T09:39:06.324Z</time></trkpt><trkpt lat="46.2313294" lon="13.1771045"><ele>199.0</ele><time>2026-04-24T09:39:07.325Z</time></trkpt><trkpt lat="46.2313684" lon="13.1772484"><ele>199.0</ele><time>2026-04-24T09:39:08.326Z</time></trkpt><trkpt lat="46.2313918" lon="13.1774193"><ele>199.0</ele><time>2026-04-24T09:39:09.325Z</time></trkpt><trkpt lat="46.2314138" lon="13.1776022"><ele>198.75</ele><time>2026-04-24T09:39:10.326Z</time></trkpt><trkpt lat="46.2314265" lon="13.1778043"><ele>198.5</ele><time>2026-04-24T09:39:11.326Z</time></trkpt><trkpt lat="46.2314372" lon="13.1780067"><ele>198.25</ele><time>2026-04-24T09:39:12.325Z</time></trkpt><trkpt lat="46.2314444" lon="13.1782205"><ele>198.0</ele><time>2026-04-24T09:39:13.325Z</time></trkpt><trkpt lat="46.231463" lon="13.1784435"><ele>201.0</ele><time>2026-04-24T09:39:14.326Z</time></trkpt><trkpt lat="46.2314847" lon="13.178677"><ele>204.0</ele><time>2026-04-24T09:39:15.325Z</time></trkpt><trkpt lat="46.2315023" lon="13.1788984"><ele>207.0</ele><time>2026-04-24T09:39:16.326Z</time></trkpt><trkpt lat="46.2315185" lon="13.1790993"><ele>207.25</ele><time>2026-04-24T09:39:17.324Z</time></trkpt><trkpt lat="46.2315365" lon="13.1792866"><ele>207.5</ele><time>2026-04-24T09:39:18.324Z</time></trkpt><trkpt lat="46.2315804" lon="13.1794587"><ele>207.75</ele><time>2026-04-24T09:39:19.324Z</time></trkpt><trkpt lat="46.2316363" lon="13.1796247"><ele>208.0</ele><time>2026-04-24T09:39:20.326Z</time></trkpt><trkpt lat="46.2317036" lon="13.1797956"><ele>208.0</ele><time>2026-04-24T09:39:21.325Z</time></trkpt><trkpt lat="46.2317682" lon="13.1799714"><ele>208.0</ele><time>2026-04-24T09:39:22.325Z</time></trkpt><trkpt lat="46.231841" lon="13.1801494"><ele>208.0</ele><time>2026-04-24T09:39:23.325Z</time></trkpt><trkpt lat="46.2319078" lon="13.1803291"><ele>208.0</ele><time>2026-04-24T09:39:24.324Z</time></trkpt><trkpt lat="46.2319612" lon="13.1805142"><ele>207.75</ele><time>2026-04-24T09:39:25.325Z</time></trkpt><trkpt lat="46.2319838" lon="13.1807141"><ele>207.5</ele><time>2026-04-24T09:39:26.324Z</time></trkpt><trkpt lat="46.2319763" lon="13.1809253"><ele>207.25</ele><time>2026-04-24T09:39:27.325Z</time></trkpt><trkpt lat="46.2319519" lon="13.1811341"><ele>207.0</ele><time>2026-04-24T09:39:28.326Z</time></trkpt><trkpt lat="46.2319285" lon="13.1813454"><ele>207.33333333333331</ele><time>2026-04-24T09:39:29.324Z</time></trkpt><trkpt lat="46.2319151" lon="13.1815671"><ele>207.66666666666666</ele><time>2026-04-24T09:39:30.325Z</time></trkpt><trkpt lat="46.231899" lon="13.1817914"><ele>208.0</ele><time>2026-04-24T09:39:31.324Z</time></trkpt><trkpt lat="46.231885" lon="13.1820205"><ele>208.0</ele><time>2026-04-24T09:39:32.324Z</time></trkpt><trkpt lat="46.2318657" lon="13.1822566"><ele>208.0</ele><time>2026-04-24T09:39:33.324Z</time></trkpt><trkpt lat="46.2318485" lon="13.1824932"><ele>208.0</ele><time>2026-04-24T09:39:34.323Z</time></trkpt><trkpt lat="46.2318327" lon="13.1827347"><ele>208.0</ele><time>2026-04-24T09:39:35.324Z</time></trkpt><trkpt lat="46.2318096" lon="13.1829831"><ele>208.0</ele><time>2026-04-24T09:39:36.323Z</time></trkpt><trkpt lat="46.2317895" lon="13.1832074"><ele>208.0</ele><time>2026-04-24T09:39:37.325Z</time></trkpt><trkpt lat="46.2317703" lon="13.18342"><ele>208.0</ele><time>2026-04-24T09:39:38.323Z</time></trkpt><trkpt lat="46.2317429" lon="13.1836221"><ele>208.0</ele><time>2026-04-24T09:39:39.324Z</time></trkpt><trkpt lat="46.2316999" lon="13.1838075"><ele>208.0</ele><time>2026-04-24T09:39:40.323Z</time></trkpt><trkpt lat="46.2316409" lon="13.1839781"><ele>208.0</ele><time>2026-04-24T09:39:41.324Z</time></trkpt><trkpt lat="46.2315682" lon="13.1841404"><ele>208.5</ele><time>2026-04-24T09:39:42.324Z</time></trkpt><trkpt lat="46.2314808" lon="13.1842902"><ele>209.0</ele><time>2026-04-24T09:39:43.324Z</time></trkpt><trkpt lat="46.2313841" lon="13.1844342"><ele>209.5</ele><time>2026-04-24T09:39:44.324Z</time></trkpt><trkpt lat="46.2312804" lon="13.1845763"><ele>210.0</ele><time>2026-04-24T09:39:45.324Z</time></trkpt><trkpt lat="46.231186" lon="13.1847279"><ele>209.0</ele><time>2026-04-24T09:39:46.323Z</time></trkpt><trkpt lat="46.2310934" lon="13.1848842"><ele>208.0</ele><time>2026-04-24T09:39:47.325Z</time></trkpt><trkpt lat="46.2310209" lon="13.1850527"><ele>207.0</ele><time>2026-04-24T09:39:48.325Z</time></trkpt><trkpt lat="46.230969" lon="13.1852353"><ele>206.0</ele><time>2026-04-24T09:39:49.325Z</time></trkpt><trkpt lat="46.2309352" lon="13.1854271"><ele>206.0</ele><time>2026-04-24T09:39:50.325Z</time></trkpt><trkpt lat="46.2309121" lon="13.1856293"><ele>206.0</ele><time>2026-04-24T09:39:51.324Z</time></trkpt><trkpt lat="46.230892" lon="13.1858387"><ele>206.0</ele><time>2026-04-24T09:39:52.324Z</time></trkpt><trkpt lat="46.2308706" lon="13.1860514"><ele>206.0</ele><time>2026-04-24T09:39:53.324Z</time></trkpt><trkpt lat="46.2308478" lon="13.1862704"><ele>206.33333333333334</ele><time>2026-04-24T09:39:54.324Z</time></trkpt><trkpt lat="46.2308257" lon="13.1864898"><ele>206.66666666666669</ele><time>2026-04-24T09:39:55.325Z</time></trkpt><trkpt lat="46.2308" lon="13.1867107"><ele>207.0</ele><time>2026-04-24T09:39:56.324Z</time></trkpt><trkpt lat="46.2307785" lon="13.1869199"><ele>207.8</ele><time>2026-04-24T09:39:57.323Z</time></trkpt><trkpt lat="46.23076" lon="13.1871031"><ele>208.6</ele><time>2026-04-24T09:39:58.325Z</time></trkpt><trkpt lat="46.2307456" lon="13.1872508"><ele>209.4</ele><time>2026-04-24T09:39:59.324Z</time></trkpt><trkpt lat="46.2307268" lon="13.1873832"><ele>210.20000000000002</ele><time>2026-04-24T09:40:00.325Z</time></trkpt><trkpt lat="46.2306821" lon="13.1874803"><ele>211.0</ele><time>2026-04-24T09:40:01.324Z</time></trkpt><trkpt lat="46.2306133" lon="13.1875422"><ele>212.20000000000002</ele><time>2026-04-24T09:40:02.324Z</time></trkpt><trkpt lat="46.2305323" lon="13.1875526"><ele>213.4</ele><time>2026-04-24T09:40:03.323Z</time></trkpt><trkpt lat="46.23045" lon="13.1875151"><ele>214.6</ele><time>2026-04-24T09:40:04.325Z</time></trkpt><trkpt lat="46.2303566" lon="13.1874501"><ele>215.8</ele><time>2026-04-24T09:40:05.323Z</time></trkpt><trkpt lat="46.2302449" lon="13.187389"><ele>217.0</ele><time>2026-04-24T09:40:06.324Z</time></trkpt><trkpt lat="46.2301384" lon="13.1873444"><ele>216.99999999999997</ele><time>2026-04-24T09:40:07.325Z</time></trkpt><trkpt lat="46.2300307" lon="13.1873219"><ele>217.0</ele><time>2026-04-24T09:40:08.324Z</time></trkpt><trkpt lat="46.229935" lon="13.1873274"><ele>217.0</ele><time>2026-04-24T09:40:09.325Z</time></trkpt><trkpt lat="46.229854" lon="13.1873501"><ele>217.0</ele><time>2026-04-24T09:40:10.324Z</time></trkpt><trkpt lat="46.2297808" lon="13.1873921"><ele>216.99999999999997</ele><time>2026-04-24T09:40:11.324Z</time></trkpt><trkpt lat="46.2297137" lon="13.1874042"><ele>217.0</ele><time>2026-04-24T09:40:12.325Z</time></trkpt><trkpt lat="46.229642" lon="13.1873798"><ele>215.66666666666666</ele><time>2026-04-24T09:40:13.323Z</time></trkpt><trkpt lat="46.2295665" lon="13.1873304"><ele>214.33333333333331</ele><time>2026-04-24T09:40:14.324Z</time></trkpt><trkpt lat="46.2294858" lon="13.1872726"><ele>213.0</ele><time>2026-04-24T09:40:15.323Z</time></trkpt><trkpt lat="46.2294034" lon="13.1872292"><ele>211.66666666666669</ele><time>2026-04-24T09:40:16.325Z</time></trkpt><trkpt lat="46.2293186" lon="13.1872019"><ele>210.33333333333334</ele><time>2026-04-24T09:40:17.323Z</time></trkpt><trkpt lat="46.2292274" lon="13.1871971"><ele>209.0</ele><time>2026-04-24T09:40:18.323Z</time></trkpt><trkpt lat="46.2291299" lon="13.1872086"><ele>209.0</ele><time>2026-04-24T09:40:19.325Z</time></trkpt><trkpt lat="46.22903" lon="13.1872307"><ele>209.0</ele><time>2026-04-24T09:40:20.323Z</time></trkpt><trkpt lat="46.228932" lon="13.1872554"><ele>209.0</ele><time>2026-04-24T09:40:21.323Z</time></trkpt><trkpt lat="46.2288325" lon="13.1872856"><ele>209.0</ele><time>2026-04-24T09:40:22.324Z</time></trkpt><trkpt lat="46.2287258" lon="13.1873305"><ele>209.0</ele><time>2026-04-24T09:40:23.324Z</time></trkpt><trkpt lat="46.2286198" lon="13.1873899"><ele>209.5</ele><time>2026-04-24T09:40:24.324Z</time></trkpt><trkpt lat="46.2285135" lon="13.1874531"><ele>210.0</ele><time>2026-04-24T09:40:25.324Z</time></trkpt><trkpt lat="46.228417" lon="13.1875277"><ele>210.5</ele><time>2026-04-24T09:40:26.324Z</time></trkpt><trkpt lat="46.2283182" lon="13.1876084"><ele>211.0</ele><time>2026-04-24T09:40:27.324Z</time></trkpt><trkpt lat="46.2282221" lon="13.1877011"><ele>209.0</ele><time>2026-04-24T09:40:28.323Z</time></trkpt><trkpt lat="46.228124" lon="13.187797"><ele>207.0</ele><time>2026-04-24T09:40:29.324Z</time></trkpt><trkpt lat="46.228031" lon="13.187887"><ele>205.0</ele><time>2026-04-24T09:40:30.323Z</time></trkpt><trkpt lat="46.227939" lon="13.1879821"><ele>203.0</ele><time>2026-04-24T09:40:31.325Z</time></trkpt><trkpt lat="46.2278564" lon="13.1880838"><ele>203.60000000000002</ele><time>2026-04-24T09:40:32.324Z</time></trkpt><trkpt lat="46.2277778" lon="13.1881877"><ele>204.20000000000002</ele><time>2026-04-24T09:40:33.324Z</time></trkpt><trkpt lat="46.2277068" lon="13.1883003"><ele>204.8</ele><time>2026-04-24T09:40:34.324Z</time></trkpt><trkpt lat="46.2276403" lon="13.1884163"><ele>205.4</ele><time>2026-04-24T09:40:35.324Z</time></trkpt><trkpt lat="46.2275765" lon="13.188531"><ele>206.0</ele><time>2026-04-24T09:40:36.324Z</time></trkpt><trkpt lat="46.2275012" lon="13.1886288"><ele>206.0</ele><time>2026-04-24T09:40:37.324Z</time></trkpt><trkpt lat="46.2274189" lon="13.1887222"><ele>206.0</ele><time>2026-04-24T09:40:38.324Z</time></trkpt><trkpt lat="46.2273294" lon="13.1887963"><ele>206.0</ele><time>2026-04-24T09:40:39.324Z</time></trkpt><trkpt lat="46.2272322" lon="13.1888642"><ele>206.0</ele><time>2026-04-24T09:40:40.324Z</time></trkpt><trkpt lat="46.2271362" lon="13.1889256"><ele>206.0</ele><time>2026-04-24T09:40:41.323Z</time></trkpt><trkpt lat="46.227037" lon="13.1889906"><ele>206.0</ele><time>2026-04-24T09:40:42.324Z</time></trkpt><trkpt lat="46.2269367" lon="13.1890644"><ele>206.0</ele><time>2026-04-24T09:40:43.324Z</time></trkpt><trkpt lat="46.2268442" lon="13.189138"><ele>206.0</ele><time>2026-04-24T09:40:44.323Z</time></trkpt><trkpt lat="46.2267548" lon="13.1892213"><ele>206.0</ele><time>2026-04-24T09:40:45.324Z</time></trkpt><trkpt lat="46.2266691" lon="13.1893138"><ele>206.0</ele><time>2026-04-24T09:40:46.324Z</time></trkpt><trkpt lat="46.2265849" lon="13.1894065"><ele>206.0</ele><time>2026-04-24T09:40:47.323Z</time></trkpt><trkpt lat="46.2265013" lon="13.1894882"><ele>206.0</ele><time>2026-04-24T09:40:48.324Z</time></trkpt><trkpt lat="46.2264108" lon="13.1895645"><ele>206.0</ele><time>2026-04-24T09:40:49.323Z</time></trkpt><trkpt lat="46.2263136" lon="13.1896389"><ele>206.0</ele><time>2026-04-24T09:40:50.324Z</time></trkpt><trkpt lat="46.2262141" lon="13.1897132"><ele>206.0</ele><time>2026-04-24T09:40:51.323Z</time></trkpt><trkpt lat="46.2261101" lon="13.1897965"><ele>205.75</ele><time>2026-04-24T09:40:52.324Z</time></trkpt><trkpt lat="46.2260036" lon="13.1898776"><ele>205.5</ele><time>2026-04-24T09:40:53.324Z</time></trkpt><trkpt lat="46.2258917" lon="13.1899522"><ele>205.25</ele><time>2026-04-24T09:40:54.323Z</time></trkpt><trkpt lat="46.2257726" lon="13.1900157"><ele>205.0</ele><time>2026-04-24T09:40:55.325Z</time></trkpt><trkpt lat="46.2256564" lon="13.1900785"><ele>204.0</ele><time>2026-04-24T09:40:56.324Z</time></trkpt><trkpt lat="46.2255365" lon="13.1901419"><ele>203.0</ele><time>2026-04-24T09:40:57.324Z</time></trkpt><trkpt lat="46.2254157" lon="13.1902098"><ele>202.0</ele><time>2026-04-24T09:40:58.325Z</time></trkpt><trkpt lat="46.225296" lon="13.1902731"><ele>201.0</ele><time>2026-04-24T09:40:59.324Z</time></trkpt><trkpt lat="46.2251759" lon="13.1903312"><ele>201.0</ele><time>2026-04-24T09:41:00.323Z</time></trkpt><trkpt lat="46.2250575" lon="13.190394"><ele>201.0</ele><time>2026-04-24T09:41:01.324Z</time></trkpt><trkpt lat="46.2249377" lon="13.1904635"><ele>201.0</ele><time>2026-04-24T09:41:02.324Z</time></trkpt><trkpt lat="46.2248163" lon="13.1905299"><ele>201.0</ele><time>2026-04-24T09:41:03.325Z</time></trkpt><trkpt lat="46.224698" lon="13.1906008"><ele>201.20000000000002</ele><time>2026-04-24T09:41:04.324Z</time></trkpt><trkpt lat="46.2245916" lon="13.1906708"><ele>201.4</ele><time>2026-04-24T09:41:05.324Z</time></trkpt><trkpt lat="46.2244933" lon="13.1907543"><ele>201.6</ele><time>2026-04-24T09:41:06.324Z</time></trkpt><trkpt lat="46.2244137" lon="13.190849"><ele>201.8</ele><time>2026-04-24T09:41:07.323Z</time></trkpt><trkpt lat="46.2243432" lon="13.1909529"><ele>202.0</ele><time>2026-04-24T09:41:08.323Z</time></trkpt><trkpt lat="46.2242723" lon="13.1910772"><ele>202.0</ele><time>2026-04-24T09:41:09.325Z</time></trkpt><trkpt lat="46.2242061" lon="13.1912058"><ele>202.0</ele><time>2026-04-24T09:41:10.324Z</time></trkpt><trkpt lat="46.2241361" lon="13.1913433"><ele>202.0</ele><time>2026-04-24T09:41:11.324Z</time></trkpt><trkpt lat="46.2240659" lon="13.1914761"><ele>202.0</ele><time>2026-04-24T09:41:12.323Z</time></trkpt><trkpt lat="46.2240003" lon="13.1916152"><ele>202.25</ele><time>2026-04-24T09:41:13.325Z</time></trkpt><trkpt lat="46.2239355" lon="13.1917589"><ele>202.5</ele><time>2026-04-24T09:41:14.324Z</time></trkpt><trkpt lat="46.2238671" lon="13.1918993"><ele>202.75</ele><time>2026-04-24T09:41:15.325Z</time></trkpt><trkpt lat="46.2237948" lon="13.1920371"><ele>203.0</ele><time>2026-04-24T09:41:16.324Z</time></trkpt><trkpt lat="46.223721" lon="13.1921709"><ele>203.0</ele><time>2026-04-24T09:41:17.324Z</time></trkpt><trkpt lat="46.2236493" lon="13.1923057"><ele>203.0</ele><time>2026-04-24T09:41:18.324Z</time></trkpt><trkpt lat="46.2235771" lon="13.1924444"><ele>203.0</ele><time>2026-04-24T09:41:19.325Z</time></trkpt><trkpt lat="46.2235074" lon="13.1925843"><ele>203.0</ele><time>2026-04-24T09:41:20.323Z</time></trkpt><trkpt lat="46.2234364" lon="13.192722"><ele>203.0</ele><time>2026-04-24T09:41:21.324Z</time></trkpt><trkpt lat="46.2233627" lon="13.1928632"><ele>203.0</ele><time>2026-04-24T09:41:22.323Z</time></trkpt><trkpt lat="46.2232906" lon="13.1930093"><ele>203.0</ele><time>2026-04-24T09:41:23.325Z</time></trkpt><trkpt lat="46.2232206" lon="13.1931611"><ele>203.0</ele><time>2026-04-24T09:41:24.323Z</time></trkpt><trkpt lat="46.2231457" lon="13.1933126"><ele>203.0</ele><time>2026-04-24T09:41:25.324Z</time></trkpt><trkpt lat="46.2230751" lon="13.1934668"><ele>203.0</ele><time>2026-04-24T09:41:26.324Z</time></trkpt><trkpt lat="46.223011" lon="13.1936238"><ele>203.0</ele><time>2026-04-24T09:41:27.323Z</time></trkpt><trkpt lat="46.2229415" lon="13.1937817"><ele>203.0</ele><time>2026-04-24T09:41:28.324Z</time></trkpt><trkpt lat="46.2228664" lon="13.1939413"><ele>203.75</ele><time>2026-04-24T09:41:29.323Z</time></trkpt><trkpt lat="46.2227976" lon="13.1941027"><ele>204.5</ele><time>2026-04-24T09:41:30.323Z</time></trkpt><trkpt lat="46.2227332" lon="13.1942657"><ele>205.25</ele><time>2026-04-24T09:41:31.323Z</time></trkpt><trkpt lat="46.2226696" lon="13.1944259"><ele>206.0</ele><time>2026-04-24T09:41:32.324Z</time></trkpt><trkpt lat="46.2226075" lon="13.1945854"><ele>206.0</ele><time>2026-04-24T09:41:33.324Z</time></trkpt><trkpt lat="46.2225445" lon="13.1947419"><ele>206.0</ele><time>2026-04-24T09:41:34.325Z</time></trkpt><trkpt lat="46.2224791" lon="13.1949044"><ele>206.0</ele><time>2026-04-24T09:41:35.324Z</time></trkpt><trkpt lat="46.2224106" lon="13.1950688"><ele>206.0</ele><time>2026-04-24T09:41:36.324Z</time></trkpt><trkpt lat="46.2223435" lon="13.1952344"><ele>206.25</ele><time>2026-04-24T09:41:37.324Z</time></trkpt><trkpt lat="46.2222739" lon="13.1954007"><ele>206.5</ele><time>2026-04-24T09:41:38.324Z</time></trkpt><trkpt lat="46.2222068" lon="13.1955609"><ele>206.75</ele><time>2026-04-24T09:41:39.323Z</time></trkpt><trkpt lat="46.2221395" lon="13.1957215"><ele>207.0</ele><time>2026-04-24T09:41:40.324Z</time></trkpt><trkpt lat="46.2220703" lon="13.1958884"><ele>207.75</ele><time>2026-04-24T09:41:41.323Z</time></trkpt><trkpt lat="46.2220007" lon="13.1960609"><ele>208.5</ele><time>2026-04-24T09:41:42.323Z</time></trkpt><trkpt lat="46.2219295" lon="13.1962418"><ele>209.25</ele><time>2026-04-24T09:41:43.325Z</time></trkpt><trkpt lat="46.2218548" lon="13.196432"><ele>210.0</ele><time>2026-04-24T09:41:44.324Z</time></trkpt><trkpt lat="46.2217718" lon="13.1966423"><ele>211.33333333333331</ele><time>2026-04-24T09:41:45.324Z</time></trkpt><trkpt lat="46.2216847" lon="13.1968635"><ele>212.66666666666666</ele><time>2026-04-24T09:41:46.323Z</time></trkpt><trkpt lat="46.2215994" lon="13.1970788"><ele>214.0</ele><time>2026-04-24T09:41:47.324Z</time></trkpt><trkpt lat="46.2215132" lon="13.1972848"><ele>214.66666666666666</ele><time>2026-04-24T09:41:48.324Z</time></trkpt><trkpt lat="46.2214269" lon="13.1974762"><ele>215.33333333333331</ele><time>2026-04-24T09:41:49.324Z</time></trkpt><trkpt lat="46.2213357" lon="13.1976454"><ele>216.0</ele><time>2026-04-24T09:41:50.323Z</time></trkpt><trkpt lat="46.2212435" lon="13.197806"><ele>216.0</ele><time>2026-04-24T09:41:51.323Z</time></trkpt><trkpt lat="46.2211512" lon="13.1979649"><ele>216.0</ele><time>2026-04-24T09:41:52.324Z</time></trkpt><trkpt lat="46.2210648" lon="13.1981163"><ele>216.0</ele><time>2026-04-24T09:41:53.323Z</time></trkpt><trkpt lat="46.2209747" lon="13.1982661"><ele>216.0</ele><time>2026-04-24T09:41:54.324Z</time></trkpt><trkpt lat="46.2208824" lon="13.1984141"><ele>216.0</ele><time>2026-04-24T09:41:55.324Z</time></trkpt><trkpt lat="46.2207965" lon="13.1985743"><ele>216.0</ele><time>2026-04-24T09:41:56.324Z</time></trkpt><trkpt lat="46.2207155" lon="13.1987454"><ele>216.0</ele><time>2026-04-24T09:41:57.324Z</time></trkpt><trkpt lat="46.2206381" lon="13.1989271"><ele>216.0</ele><time>2026-04-24T09:41:58.325Z</time></trkpt><trkpt lat="46.2205617" lon="13.1991142"><ele>216.33333333333331</ele><time>2026-04-24T09:41:59.324Z</time></trkpt><trkpt lat="46.2204823" lon="13.1993006"><ele>216.66666666666666</ele><time>2026-04-24T09:42:00.324Z</time></trkpt><trkpt lat="46.2204046" lon="13.1994858"><ele>217.0</ele><time>2026-04-24T09:42:01.324Z</time></trkpt><trkpt lat="46.2203247" lon="13.199671"><ele>218.66666666666666</ele><time>2026-04-24T09:42:02.324Z</time></trkpt><trkpt lat="46.2202415" lon="13.1998585"><ele>220.33333333333331</ele><time>2026-04-24T09:42:03.324Z</time></trkpt><trkpt lat="46.2201582" lon="13.2000452"><ele>222.0</ele><time>2026-04-24T09:42:04.324Z</time></trkpt><trkpt lat="46.2200787" lon="13.2002289"><ele>222.0</ele><time>2026-04-24T09:42:05.324Z</time></trkpt><trkpt lat="46.2199979" lon="13.2004011"><ele>222.0</ele><time>2026-04-24T09:42:06.323Z</time></trkpt><trkpt lat="46.2199277" lon="13.2005745"><ele>222.0</ele><time>2026-04-24T09:42:07.325Z</time></trkpt><trkpt lat="46.2198546" lon="13.2007462"><ele>222.0</ele><time>2026-04-24T09:42:08.325Z</time></trkpt><trkpt lat="46.2197817" lon="13.2009084"><ele>222.25</ele><time>2026-04-24T09:42:09.324Z</time></trkpt><trkpt lat="46.2197186" lon="13.2010691"><ele>222.5</ele><time>2026-04-24T09:42:10.325Z</time></trkpt><trkpt lat="46.2196598" lon="13.2012206"><ele>222.75</ele><time>2026-04-24T09:42:11.325Z</time></trkpt><trkpt lat="46.2196012" lon="13.2013652"><ele>223.0</ele><time>2026-04-24T09:42:12.324Z</time></trkpt><trkpt lat="46.2195482" lon="13.2015162"><ele>223.2</ele><time>2026-04-24T09:42:13.325Z</time></trkpt><trkpt lat="46.2194978" lon="13.2016512"><ele>223.4</ele><time>2026-04-24T09:42:14.325Z</time></trkpt><trkpt lat="46.2194369" lon="13.2017838"><ele>223.59999999999997</ele><time>2026-04-24T09:42:15.325Z</time></trkpt><trkpt lat="46.2193688" lon="13.2019142"><ele>223.79999999999998</ele><time>2026-04-24T09:42:16.324Z</time></trkpt><trkpt lat="46.2192966" lon="13.20204"><ele>224.0</ele><time>2026-04-24T09:42:17.324Z</time></trkpt><trkpt lat="46.2192341" lon="13.2021606"><ele>224.0</ele><time>2026-04-24T09:42:18.325Z</time></trkpt><trkpt lat="46.2191695" lon="13.2022631"><ele>223.99999999999997</ele><time>2026-04-24T09:42:19.324Z</time></trkpt><trkpt lat="46.2190903" lon="13.2023327"><ele>223.99999999999997</ele><time>2026-04-24T09:42:20.324Z</time></trkpt><trkpt lat="46.2189935" lon="13.2023789"><ele>224.0</ele><time>2026-04-24T09:42:21.323Z</time></trkpt><trkpt lat="46.218879" lon="13.2023992"><ele>224.0</ele><time>2026-04-24T09:42:22.324Z</time></trkpt><trkpt lat="46.2187456" lon="13.2024153"><ele>222.66666666666669</ele><time>2026-04-24T09:42:23.323Z</time></trkpt><trkpt lat="46.2186009" lon="13.2024324"><ele>221.33333333333331</ele><time>2026-04-24T09:42:24.324Z</time></trkpt><trkpt lat="46.218449" lon="13.2024449"><ele>220.0</ele><time>2026-04-24T09:42:25.324Z</time></trkpt><trkpt lat="46.2182841" lon="13.2024661"><ele>219.66666666666666</ele><time>2026-04-24T09:42:26.325Z</time></trkpt><trkpt lat="46.218114" lon="13.2024884"><ele>219.33333333333331</ele><time>2026-04-24T09:42:27.325Z</time></trkpt><trkpt lat="46.2179511" lon="13.202502"><ele>219.0</ele><time>2026-04-24T09:42:28.323Z</time></trkpt><trkpt lat="46.2177945" lon="13.20251"><ele>219.0</ele><time>2026-04-24T09:42:29.323Z</time></trkpt><trkpt lat="46.2176443" lon="13.2025112"><ele>219.0</ele><time>2026-04-24T09:42:30.324Z</time></trkpt><trkpt lat="46.2175039" lon="13.2025032"><ele>219.0</ele><time>2026-04-24T09:42:31.325Z</time></trkpt><trkpt lat="46.2173671" lon="13.2024839"><ele>219.0</ele><time>2026-04-24T09:42:32.324Z</time></trkpt><trkpt lat="46.2172392" lon="13.2024615"><ele>218.6</ele><time>2026-04-24T09:42:33.323Z</time></trkpt><trkpt lat="46.2171217" lon="13.2024452"><ele>218.2</ele><time>2026-04-24T09:42:34.324Z</time></trkpt><trkpt lat="46.217021" lon="13.2024287"><ele>217.79999999999998</ele><time>2026-04-24T09:42:35.323Z</time></trkpt><trkpt lat="46.2169381" lon="13.2024149"><ele>217.39999999999998</ele><time>2026-04-24T09:42:36.324Z</time></trkpt><trkpt lat="46.2168744" lon="13.2024014"><ele>217.0</ele><time>2026-04-24T09:42:37.324Z</time></trkpt><trkpt lat="46.2167901" lon="13.2023916"><ele>217.0</ele><time>2026-04-24T09:42:39.324Z</time></trkpt><trkpt lat="46.2167299" lon="13.2024542"><ele>217.0</ele><time>2026-04-24T09:42:44.322Z</time></trkpt><trkpt lat="46.2167105" lon="13.2025618"><ele>217.0</ele><time>2026-04-24T09:42:45.323Z</time></trkpt><trkpt lat="46.2167028" lon="13.2027098"><ele>217.0</ele><time>2026-04-24T09:42:46.322Z</time></trkpt><trkpt lat="46.2166861" lon="13.2028732"><ele>217.0</ele><time>2026-04-24T09:42:47.323Z</time></trkpt><trkpt lat="46.2166703" lon="13.2030712"><ele>216.66666666666666</ele><time>2026-04-24T09:42:48.322Z</time></trkpt><trkpt lat="46.2166535" lon="13.2032711"><ele>216.33333333333331</ele><time>2026-04-24T09:42:49.322Z</time></trkpt><trkpt lat="46.2166353" lon="13.2034996"><ele>216.0</ele><time>2026-04-24T09:42:50.323Z</time></trkpt><trkpt lat="46.216618" lon="13.2037206"><ele>216.0</ele><time>2026-04-24T09:42:51.324Z</time></trkpt><trkpt lat="46.2165972" lon="13.2039614"><ele>216.0</ele><time>2026-04-24T09:42:52.323Z</time></trkpt><trkpt lat="46.2165719" lon="13.2042071"><ele>216.0</ele><time>2026-04-24T09:42:53.323Z</time></trkpt><trkpt lat="46.2165428" lon="13.2044255"><ele>216.0</ele><time>2026-04-24T09:42:54.324Z</time></trkpt><trkpt lat="46.2165098" lon="13.2046309"><ele>216.0</ele><time>2026-04-24T09:42:55.322Z</time></trkpt><trkpt lat="46.2164769" lon="13.2048221"><ele>216.0</ele><time>2026-04-24T09:42:56.322Z</time></trkpt><trkpt lat="46.2164481" lon="13.2049978"><ele>216.0</ele><time>2026-04-24T09:42:57.322Z</time></trkpt><trkpt lat="46.2164189" lon="13.2051645"><ele>216.0</ele><time>2026-04-24T09:42:58.324Z</time></trkpt><trkpt lat="46.2163899" lon="13.2053191"><ele>216.00000000000003</ele><time>2026-04-24T09:42:59.323Z</time></trkpt><trkpt lat="46.2163582" lon="13.2054707"><ele>216.00000000000003</ele><time>2026-04-24T09:43:00.322Z</time></trkpt><trkpt lat="46.2163242" lon="13.2056262"><ele>216.0</ele><time>2026-04-24T09:43:01.324Z</time></trkpt><trkpt lat="46.2162865" lon="13.2057796"><ele>216.0</ele><time>2026-04-24T09:43:02.324Z</time></trkpt><trkpt lat="46.2162508" lon="13.2059185"><ele>216.0</ele><time>2026-04-24T09:43:03.322Z</time></trkpt><trkpt lat="46.2162145" lon="13.2060488"><ele>216.00000000000003</ele><time>2026-04-24T09:43:04.323Z</time></trkpt><trkpt lat="46.2161782" lon="13.2061764"><ele>216.00000000000003</ele><time>2026-04-24T09:43:05.324Z</time></trkpt><trkpt lat="46.2161387" lon="13.2063043"><ele>216.0</ele><time>2026-04-24T09:43:06.322Z</time></trkpt><trkpt lat="46.2160992" lon="13.2064347"><ele>216.0</ele><time>2026-04-24T09:43:07.324Z</time></trkpt><trkpt lat="46.2160599" lon="13.206575"><ele>215.75</ele><time>2026-04-24T09:43:08.324Z</time></trkpt><trkpt lat="46.2160137" lon="13.2067314"><ele>215.5</ele><time>2026-04-24T09:43:09.322Z</time></trkpt><trkpt lat="46.215965" lon="13.206897"><ele>215.25</ele><time>2026-04-24T09:43:10.322Z</time></trkpt><trkpt lat="46.2159241" lon="13.2070674"><ele>215.0</ele><time>2026-04-24T09:43:11.323Z</time></trkpt><trkpt lat="46.215885" lon="13.2072292"><ele>215.25</ele><time>2026-04-24T09:43:12.322Z</time></trkpt><trkpt lat="46.2158486" lon="13.2073947"><ele>215.5</ele><time>2026-04-24T09:43:13.323Z</time></trkpt><trkpt lat="46.2158178" lon="13.2075665"><ele>215.75</ele><time>2026-04-24T09:43:14.323Z</time></trkpt><trkpt lat="46.2157901" lon="13.2077435"><ele>216.0</ele><time>2026-04-24T09:43:15.323Z</time></trkpt><trkpt lat="46.215763" lon="13.2079246"><ele>216.0</ele><time>2026-04-24T09:43:16.323Z</time></trkpt><trkpt lat="46.2157387" lon="13.208093"><ele>216.00000000000003</ele><time>2026-04-24T09:43:17.323Z</time></trkpt><trkpt lat="46.2157176" lon="13.2082408"><ele>216.00000000000003</ele><time>2026-04-24T09:43:18.322Z</time></trkpt><trkpt lat="46.2156952" lon="13.2083799"><ele>216.0</ele><time>2026-04-24T09:43:19.324Z</time></trkpt><trkpt lat="46.2156782" lon="13.2084972"><ele>216.0</ele><time>2026-04-24T09:43:20.323Z</time></trkpt><trkpt lat="46.2156628" lon="13.2086034"><ele>216.4</ele><time>2026-04-24T09:43:21.324Z</time></trkpt><trkpt lat="46.2156421" lon="13.2086977"><ele>216.8</ele><time>2026-04-24T09:43:22.323Z</time></trkpt><trkpt lat="46.215619" lon="13.2087871"><ele>217.20000000000002</ele><time>2026-04-24T09:43:23.323Z</time></trkpt><trkpt lat="46.2155649" lon="13.2089542"><ele>217.60000000000002</ele><time>2026-04-24T09:43:25.324Z</time></trkpt><trkpt lat="46.2155127" lon="13.2091131"><ele>218.0</ele><time>2026-04-24T09:43:27.322Z</time></trkpt><trkpt lat="46.215458" lon="13.2093038"><ele>218.0</ele><time>2026-04-24T09:43:29.322Z</time></trkpt><trkpt lat="46.2154333" lon="13.2094471"><ele>218.0</ele><time>2026-04-24T09:43:30.324Z</time></trkpt><trkpt lat="46.2154238" lon="13.209604"><ele>218.0</ele><time>2026-04-24T09:43:31.323Z</time></trkpt><trkpt lat="46.2154151" lon="13.2097914"><ele>218.0</ele><time>2026-04-24T09:43:32.323Z</time></trkpt><trkpt lat="46.2154054" lon="13.209976"><ele>218.5</ele><time>2026-04-24T09:43:33.323Z</time></trkpt><trkpt lat="46.2153929" lon="13.2101688"><ele>219.0</ele><time>2026-04-24T09:43:34.324Z</time></trkpt><trkpt lat="46.2153806" lon="13.2103487"><ele>219.5</ele><time>2026-04-24T09:43:35.323Z</time></trkpt><trkpt lat="46.2153684" lon="13.2105284"><ele>220.0</ele><time>2026-04-24T09:43:36.323Z</time></trkpt><trkpt lat="46.2153507" lon="13.2107083"><ele>220.5</ele><time>2026-04-24T09:43:37.322Z</time></trkpt><trkpt lat="46.2153291" lon="13.2108843"><ele>221.0</ele><time>2026-04-24T09:43:38.323Z</time></trkpt><trkpt lat="46.2153039" lon="13.2110623"><ele>221.5</ele><time>2026-04-24T09:43:39.323Z</time></trkpt><trkpt lat="46.2152781" lon="13.2112425"><ele>222.0</ele><time>2026-04-24T09:43:40.322Z</time></trkpt><trkpt lat="46.2152616" lon="13.2114247"><ele>221.5</ele><time>2026-04-24T09:43:41.322Z</time></trkpt><trkpt lat="46.2152501" lon="13.2116091"><ele>221.0</ele><time>2026-04-24T09:43:42.322Z</time></trkpt><trkpt lat="46.2152384" lon="13.2117968"><ele>220.5</ele><time>2026-04-24T09:43:43.323Z</time></trkpt><trkpt lat="46.215216" lon="13.2119807"><ele>220.0</ele><time>2026-04-24T09:43:44.322Z</time></trkpt><trkpt lat="46.2151863" lon="13.2121624"><ele>220.5</ele><time>2026-04-24T09:43:45.322Z</time></trkpt><trkpt lat="46.2151598" lon="13.2123468"><ele>221.0</ele><time>2026-04-24T09:43:46.323Z</time></trkpt><trkpt lat="46.2151298" lon="13.2125322"><ele>221.5</ele><time>2026-04-24T09:43:47.323Z</time></trkpt><trkpt lat="46.2151031" lon="13.2127076"><ele>222.0</ele><time>2026-04-24T09:43:48.324Z</time></trkpt><trkpt lat="46.2150784" lon="13.2128589"><ele>222.0</ele><time>2026-04-24T09:43:49.323Z</time></trkpt><trkpt lat="46.2150579" lon="13.212976"><ele>222.0</ele><time>2026-04-24T09:43:50.323Z</time></trkpt><trkpt lat="46.2150265" lon="13.213055"><ele>222.0</ele><time>2026-04-24T09:43:51.323Z</time></trkpt><trkpt lat="46.2149733" lon="13.2131044"><ele>222.0</ele><time>2026-04-24T09:43:52.323Z</time></trkpt><trkpt lat="46.2149006" lon="13.2131234"><ele>222.0</ele><time>2026-04-24T09:43:53.324Z</time></trkpt><trkpt lat="46.2148145" lon="13.2131365"><ele>222.0</ele><time>2026-04-24T09:43:54.323Z</time></trkpt><trkpt lat="46.2147003" lon="13.2131109"><ele>221.6</ele><time>2026-04-24T09:43:55.324Z</time></trkpt><trkpt lat="46.2145796" lon="13.2130926"><ele>221.2</ele><time>2026-04-24T09:43:56.323Z</time></trkpt><trkpt lat="46.2144718" lon="13.2130721"><ele>220.8</ele><time>2026-04-24T09:43:57.322Z</time></trkpt><trkpt lat="46.214364" lon="13.2130422"><ele>220.4</ele><time>2026-04-24T09:43:58.323Z</time></trkpt><trkpt lat="46.2142669" lon="13.2130226"><ele>220.0</ele><time>2026-04-24T09:43:59.324Z</time></trkpt><trkpt lat="46.2141847" lon="13.213017"><ele>220.0</ele><time>2026-04-24T09:44:00.322Z</time></trkpt><trkpt lat="46.2141145" lon="13.2129932"><ele>220.0</ele><time>2026-04-24T09:44:01.322Z</time></trkpt><trkpt lat="46.2139829" lon="13.2129508"><ele>220.0</ele><time>2026-04-24T09:44:03.323Z</time></trkpt><trkpt lat="46.2138961" lon="13.2129541"><ele>220.0</ele><time>2026-04-24T09:44:04.324Z</time></trkpt><trkpt lat="46.2137976" lon="13.2129717"><ele>220.0</ele><time>2026-04-24T09:44:05.323Z</time></trkpt><trkpt lat="46.2136821" lon="13.212976"><ele>220.2</ele><time>2026-04-24T09:44:06.323Z</time></trkpt><trkpt lat="46.2135647" lon="13.2129743"><ele>220.4</ele><time>2026-04-24T09:44:07.323Z</time></trkpt><trkpt lat="46.2134552" lon="13.2129717"><ele>220.60000000000002</ele><time>2026-04-24T09:44:08.322Z</time></trkpt><trkpt lat="46.2133444" lon="13.2129675"><ele>220.8</ele><time>2026-04-24T09:44:09.323Z</time></trkpt><trkpt lat="46.213239" lon="13.212967"><ele>221.0</ele><time>2026-04-24T09:44:10.322Z</time></trkpt><trkpt lat="46.2131413" lon="13.2129628"><ele>220.33333333333334</ele><time>2026-04-24T09:44:11.323Z</time></trkpt><trkpt lat="46.2130535" lon="13.2129618"><ele>219.66666666666669</ele><time>2026-04-24T09:44:12.323Z</time></trkpt><trkpt lat="46.2129768" lon="13.2129626"><ele>219.0</ele><time>2026-04-24T09:44:13.322Z</time></trkpt><trkpt lat="46.2128708" lon="13.2129384"><ele>218.33333333333331</ele><time>2026-04-24T09:44:15.322Z</time></trkpt><trkpt lat="46.2127972" lon="13.2128621"><ele>217.66666666666666</ele><time>2026-04-24T09:44:17.324Z</time></trkpt><trkpt lat="46.2127427" lon="13.2127737"><ele>217.0</ele><time>2026-04-24T09:44:19.323Z</time></trkpt><trkpt lat="46.2126796" lon="13.2127495"><ele>216.99999999999997</ele><time>2026-04-24T09:44:21.323Z</time></trkpt><trkpt lat="46.2126061" lon="13.2127364"><ele>217.0</ele><time>2026-04-24T09:44:34.323Z</time></trkpt><trkpt lat="46.2125199" lon="13.2127533"><ele>217.0</ele><time>2026-04-24T09:47:05.323Z</time></trkpt><trkpt lat="46.212435" lon="13.212779"><ele>217.0</ele><time>2026-04-24T09:47:07.322Z</time></trkpt><trkpt lat="46.2123952" lon="13.2128852"><ele>216.99999999999997</ele><time>2026-04-24T09:47:10.321Z</time></trkpt><trkpt lat="46.212435" lon="13.2129666"><ele>217.0</ele><time>2026-04-24T09:47:16.322Z</time></trkpt><trkpt lat="46.2125487" lon="13.2130178"><ele>216.99999999999997</ele><time>2026-04-24T09:47:18.321Z</time></trkpt><trkpt lat="46.2126159" lon="13.2130271"><ele>217.0</ele><time>2026-04-24T09:47:19.322Z</time></trkpt><trkpt lat="46.2126976" lon="13.2130255"><ele>217.0</ele><time>2026-04-24T09:47:20.322Z</time></trkpt><trkpt lat="46.2127899" lon="13.2130255"><ele>217.0</ele><time>2026-04-24T09:47:21.323Z</time></trkpt><trkpt lat="46.2128776" lon="13.2130273"><ele>216.99999999999997</ele><time>2026-04-24T09:47:22.322Z</time></trkpt><trkpt lat="46.2129745" lon="13.2130273"><ele>217.0</ele><time>2026-04-24T09:47:23.322Z</time></trkpt><trkpt lat="46.2130746" lon="13.2130275"><ele>217.8</ele><time>2026-04-24T09:47:24.323Z</time></trkpt><trkpt lat="46.2131733" lon="13.2130274"><ele>218.6</ele><time>2026-04-24T09:47:25.322Z</time></trkpt><trkpt lat="46.2132709" lon="13.2130279"><ele>219.40000000000003</ele><time>2026-04-24T09:47:26.323Z</time></trkpt><trkpt lat="46.2133737" lon="13.2130278"><ele>220.20000000000002</ele><time>2026-04-24T09:47:27.322Z</time></trkpt><trkpt lat="46.2134687" lon="13.2130374"><ele>221.0</ele><time>2026-04-24T09:47:28.323Z</time></trkpt><trkpt lat="46.213563" lon="13.2130473"><ele>221.00000000000003</ele><time>2026-04-24T09:47:29.323Z</time></trkpt><trkpt lat="46.2136472" lon="13.2130529"><ele>221.0</ele><time>2026-04-24T09:47:30.322Z</time></trkpt><trkpt lat="46.2137153" lon="13.2130599"><ele>221.0</ele><time>2026-04-24T09:47:31.322Z</time></trkpt><trkpt lat="46.2138113" lon="13.2130785"><ele>221.0</ele><time>2026-04-24T09:47:33.321Z</time></trkpt><trkpt lat="46.213903" lon="13.2131912"><ele>221.00000000000003</ele><time>2026-04-24T09:47:35.322Z</time></trkpt><trkpt lat="46.2139329" lon="13.2132957"><ele>221.0</ele><time>2026-04-24T09:47:36.322Z</time></trkpt><trkpt lat="46.2139374" lon="13.2134272"><ele>221.0</ele><time>2026-04-24T09:47:37.321Z</time></trkpt><trkpt lat="46.2139323" lon="13.2135581"><ele>221.00000000000003</ele><time>2026-04-24T09:47:38.322Z</time></trkpt><trkpt lat="46.2139283" lon="13.2137"><ele>221.00000000000003</ele><time>2026-04-24T09:47:39.321Z</time></trkpt><trkpt lat="46.2139241" lon="13.213855"><ele>221.0</ele><time>2026-04-24T09:47:40.322Z</time></trkpt><trkpt lat="46.213917" lon="13.2140065"><ele>221.0</ele><time>2026-04-24T09:47:41.321Z</time></trkpt><trkpt lat="46.2139104" lon="13.2141639"><ele>221.0</ele><time>2026-04-24T09:47:42.321Z</time></trkpt><trkpt lat="46.2139029" lon="13.2143279"><ele>221.0</ele><time>2026-04-24T09:47:43.322Z</time></trkpt><trkpt lat="46.2138934" lon="13.2144898"><ele>221.0</ele><time>2026-04-24T09:47:44.322Z</time></trkpt><trkpt lat="46.2138861" lon="13.2146507"><ele>221.0</ele><time>2026-04-24T09:47:45.323Z</time></trkpt><trkpt lat="46.2138792" lon="13.2148152"><ele>221.5</ele><time>2026-04-24T09:47:46.322Z</time></trkpt><trkpt lat="46.2138705" lon="13.2149829"><ele>222.0</ele><time>2026-04-24T09:47:47.322Z</time></trkpt><trkpt lat="46.2138606" lon="13.215154"><ele>222.5</ele><time>2026-04-24T09:47:48.322Z</time></trkpt><trkpt lat="46.2138515" lon="13.2153307"><ele>223.0</ele><time>2026-04-24T09:47:49.322Z</time></trkpt><trkpt lat="46.2138404" lon="13.2155085"><ele>223.4</ele><time>2026-04-24T09:47:50.321Z</time></trkpt><trkpt lat="46.2138274" lon="13.2156805"><ele>223.8</ele><time>2026-04-24T09:47:51.322Z</time></trkpt><trkpt lat="46.2138181" lon="13.215836"><ele>224.2</ele><time>2026-04-24T09:47:52.322Z</time></trkpt><trkpt lat="46.2138083" lon="13.2159788"><ele>224.6</ele><time>2026-04-24T09:47:53.322Z</time></trkpt><trkpt lat="46.2137992" lon="13.2161111"><ele>225.0</ele><time>2026-04-24T09:47:54.322Z</time></trkpt><trkpt lat="46.213793" lon="13.2162338"><ele>225.0</ele><time>2026-04-24T09:47:55.322Z</time></trkpt><trkpt lat="46.2137857" lon="13.2163516"><ele>225.0</ele><time>2026-04-24T09:47:56.322Z</time></trkpt><trkpt lat="46.2137794" lon="13.2164685"><ele>225.0</ele><time>2026-04-24T09:47:57.323Z</time></trkpt><trkpt lat="46.2137689" lon="13.2165967"><ele>225.0</ele><time>2026-04-24T09:47:58.322Z</time></trkpt><trkpt lat="46.2137587" lon="13.2167224"><ele>225.0</ele><time>2026-04-24T09:47:59.322Z</time></trkpt><trkpt lat="46.2137508" lon="13.2168472"><ele>225.0</ele><time>2026-04-24T09:48:00.322Z</time></trkpt><trkpt lat="46.2137442" lon="13.2169636"><ele>224.83333333333334</ele><time>2026-04-24T09:48:01.323Z</time></trkpt><trkpt lat="46.2137367" lon="13.217067"><ele>224.66666666666669</ele><time>2026-04-24T09:48:02.323Z</time></trkpt><trkpt lat="46.2137275" lon="13.2171587"><ele>224.5</ele><time>2026-04-24T09:48:03.322Z</time></trkpt><trkpt lat="46.2137204" lon="13.21733"><ele>224.33333333333334</ele><time>2026-04-24T09:48:05.321Z</time></trkpt><trkpt lat="46.2137153" lon="13.2174297"><ele>224.16666666666669</ele><time>2026-04-24T09:48:06.321Z</time></trkpt><trkpt lat="46.21371" lon="13.2175344"><ele>224.0</ele><time>2026-04-24T09:48:07.321Z</time></trkpt><trkpt lat="46.213711" lon="13.2176332"><ele>224.0</ele><time>2026-04-24T09:48:08.322Z</time></trkpt><trkpt lat="46.2137119" lon="13.2177343"><ele>223.99999999999997</ele><time>2026-04-24T09:48:09.323Z</time></trkpt><trkpt lat="46.2137229" lon="13.2178332"><ele>223.99999999999997</ele><time>2026-04-24T09:48:10.322Z</time></trkpt><trkpt lat="46.2137465" lon="13.2180032"><ele>224.0</ele><time>2026-04-24T09:48:12.321Z</time></trkpt><trkpt lat="46.2137783" lon="13.2181809"><ele>224.0</ele><time>2026-04-24T09:48:14.322Z</time></trkpt><trkpt lat="46.2137959" lon="13.218273"><ele>224.16666666666669</ele><time>2026-04-24T09:48:15.321Z</time></trkpt><trkpt lat="46.2138101" lon="13.2183698"><ele>224.33333333333334</ele><time>2026-04-24T09:48:16.322Z</time></trkpt><trkpt lat="46.2138268" lon="13.2185391"><ele>224.5</ele><time>2026-04-24T09:48:18.323Z</time></trkpt><trkpt lat="46.2138397" lon="13.2186549"><ele>224.66666666666669</ele><time>2026-04-24T09:48:20.322Z</time></trkpt><trkpt lat="46.2138555" lon="13.2187957"><ele>224.83333333333334</ele><time>2026-04-24T09:48:24.322Z</time></trkpt><trkpt lat="46.2138573" lon="13.2188895"><ele>225.0</ele><time>2026-04-24T09:48:25.322Z</time></trkpt><trkpt lat="46.2138626" lon="13.2190052"><ele>225.16666666666666</ele><time>2026-04-24T09:48:26.322Z</time></trkpt><trkpt lat="46.2138738" lon="13.2191229"><ele>225.33333333333331</ele><time>2026-04-24T09:48:27.323Z</time></trkpt><trkpt lat="46.2138837" lon="13.2192487"><ele>225.5</ele><time>2026-04-24T09:48:28.322Z</time></trkpt><trkpt lat="46.2138882" lon="13.2193778"><ele>225.66666666666666</ele><time>2026-04-24T09:48:29.323Z</time></trkpt><trkpt lat="46.2138843" lon="13.2194898"><ele>225.83333333333331</ele><time>2026-04-24T09:48:30.321Z</time></trkpt><trkpt lat="46.2138664" lon="13.219627"><ele>226.0</ele><time>2026-04-24T09:48:32.323Z</time></trkpt><trkpt lat="46.2138769" lon="13.2197408"><ele>226.16666666666666</ele><time>2026-04-24T09:48:35.323Z</time></trkpt><trkpt lat="46.2139969" lon="13.2198264"><ele>226.33333333333331</ele><time>2026-04-24T09:48:37.321Z</time></trkpt><trkpt lat="46.2140621" lon="13.2198688"><ele>226.5</ele><time>2026-04-24T09:48:38.322Z</time></trkpt><trkpt lat="46.2141323" lon="13.2199072"><ele>226.66666666666669</ele><time>2026-04-24T09:48:39.322Z</time></trkpt><trkpt lat="46.2141967" lon="13.2199419"><ele>226.83333333333334</ele><time>2026-04-24T09:48:40.321Z</time></trkpt><trkpt lat="46.2142594" lon="13.2199663"><ele>227.0</ele><time>2026-04-24T09:48:41.322Z</time></trkpt><trkpt lat="46.214331" lon="13.2199761"><ele>227.00000000000003</ele><time>2026-04-24T09:48:42.322Z</time></trkpt><trkpt lat="46.2144078" lon="13.2199622"><ele>227.0</ele><time>2026-04-24T09:48:43.322Z</time></trkpt><trkpt lat="46.2144926" lon="13.2199449"><ele>227.0</ele><time>2026-04-24T09:48:44.322Z</time></trkpt><trkpt lat="46.2145792" lon="13.2199266"><ele>227.0</ele><time>2026-04-24T09:48:45.322Z</time></trkpt><trkpt lat="46.2146645" lon="13.2199094"><ele>227.00000000000003</ele><time>2026-04-24T09:48:46.321Z</time></trkpt><trkpt lat="46.2147451" lon="13.2198894"><ele>227.0</ele><time>2026-04-24T09:48:47.322Z</time></trkpt><trkpt lat="46.2148323" lon="13.219871"><ele>227.0</ele><time>2026-04-24T09:48:48.323Z</time></trkpt><trkpt lat="46.2149245" lon="13.2198591"><ele>227.0</ele><time>2026-04-24T09:48:49.322Z</time></trkpt><trkpt lat="46.2150149" lon="13.2198503"><ele>227.0</ele><time>2026-04-24T09:48:50.321Z</time></trkpt><trkpt lat="46.2151068" lon="13.2198438"><ele>227.0</ele><time>2026-04-24T09:48:51.322Z</time></trkpt><trkpt lat="46.215198" lon="13.2198408"><ele>227.0</ele><time>2026-04-24T09:48:52.322Z</time></trkpt><trkpt lat="46.2152876" lon="13.2198341"><ele>227.0</ele><time>2026-04-24T09:48:53.323Z</time></trkpt><trkpt lat="46.2153722" lon="13.2198247"><ele>227.0</ele><time>2026-04-24T09:48:54.322Z</time></trkpt><trkpt lat="46.2154684" lon="13.2198183"><ele>227.0</ele><time>2026-04-24T09:48:55.322Z</time></trkpt><trkpt lat="46.2155632" lon="13.2198057"><ele>227.0</ele><time>2026-04-24T09:48:56.321Z</time></trkpt><trkpt lat="46.2156678" lon="13.2197971"><ele>227.0</ele><time>2026-04-24T09:48:57.323Z</time></trkpt><trkpt lat="46.2157717" lon="13.2197877"><ele>227.33333333333334</ele><time>2026-04-24T09:48:58.323Z</time></trkpt><trkpt lat="46.2158719" lon="13.2197717"><ele>227.66666666666669</ele><time>2026-04-24T09:48:59.322Z</time></trkpt><trkpt lat="46.2159683" lon="13.2197612"><ele>228.0</ele><time>2026-04-24T09:49:00.321Z</time></trkpt><trkpt lat="46.2160581" lon="13.2197573"><ele>228.33333333333331</ele><time>2026-04-24T09:49:01.322Z</time></trkpt><trkpt lat="46.2161323" lon="13.2197619"><ele>228.66666666666666</ele><time>2026-04-24T09:49:02.322Z</time></trkpt><trkpt lat="46.2162012" lon="13.2197804"><ele>229.0</ele><time>2026-04-24T09:49:03.321Z</time></trkpt><trkpt lat="46.2162656" lon="13.2198263"><ele>229.33333333333331</ele><time>2026-04-24T09:49:04.321Z</time></trkpt><trkpt lat="46.2163098" lon="13.2198922"><ele>229.66666666666666</ele><time>2026-04-24T09:49:05.32Z</time></trkpt><trkpt lat="46.2163517" lon="13.220049"><ele>230.0</ele><time>2026-04-24T09:49:07.321Z</time></trkpt><trkpt lat="46.2163595" lon="13.2201481"><ele>230.33333333333331</ele><time>2026-04-24T09:49:08.32Z</time></trkpt><trkpt lat="46.2163613" lon="13.220269"><ele>230.66666666666666</ele><time>2026-04-24T09:49:09.321Z</time></trkpt><trkpt lat="46.2163588" lon="13.2204098"><ele>231.0</ele><time>2026-04-24T09:49:10.32Z</time></trkpt><trkpt lat="46.2163515" lon="13.2205517"><ele>231.0</ele><time>2026-04-24T09:49:11.321Z</time></trkpt><trkpt lat="46.2163401" lon="13.2206814"><ele>231.0</ele><time>2026-04-24T09:49:12.321Z</time></trkpt><trkpt lat="46.2163282" lon="13.2208016"><ele>231.0</ele><time>2026-04-24T09:49:13.322Z</time></trkpt><trkpt lat="46.2163204" lon="13.2209004"><ele>231.0</ele><time>2026-04-24T09:49:14.322Z</time></trkpt><trkpt lat="46.2163119" lon="13.220992"><ele>231.0</ele><time>2026-04-24T09:49:15.321Z</time></trkpt><trkpt lat="46.2163047" lon="13.2210884"><ele>231.0</ele><time>2026-04-24T09:49:16.321Z</time></trkpt><trkpt lat="46.2162985" lon="13.2211931"><ele>231.0</ele><time>2026-04-24T09:49:17.321Z</time></trkpt><trkpt lat="46.2162971" lon="13.2213063"><ele>231.0</ele><time>2026-04-24T09:49:18.322Z</time></trkpt><trkpt lat="46.2162945" lon="13.2214186"><ele>231.0</ele><time>2026-04-24T09:49:19.321Z</time></trkpt><trkpt lat="46.2162979" lon="13.2215334"><ele>231.0</ele><time>2026-04-24T09:49:20.322Z</time></trkpt><trkpt lat="46.2163012" lon="13.2216272"><ele>231.0</ele><time>2026-04-24T09:49:21.321Z</time></trkpt><trkpt lat="46.2162844" lon="13.221759"><ele>231.0</ele><time>2026-04-24T09:49:23.32Z</time></trkpt><trkpt lat="46.2162026" lon="13.2218615"><ele>231.0</ele><time>2026-04-24T09:49:25.321Z</time></trkpt><trkpt lat="46.2161503" lon="13.2219164"><ele>231.0</ele><time>2026-04-24T09:49:26.321Z</time></trkpt><trkpt lat="46.2161318" lon="13.2220419"><ele>231.0</ele><time>2026-04-24T09:49:27.322Z</time></trkpt><trkpt lat="46.2161483" lon="13.2221627"><ele>231.0</ele><time>2026-04-24T09:49:28.321Z</time></trkpt><trkpt lat="46.2161666" lon="13.2222901"><ele>231.0</ele><time>2026-04-24T09:49:29.321Z</time></trkpt><trkpt lat="46.2161828" lon="13.2223817"><ele>231.0</ele><time>2026-04-24T09:49:30.322Z</time></trkpt><trkpt lat="46.2161948" lon="13.2225144"><ele>231.0</ele><time>2026-04-24T09:49:32.32Z</time></trkpt><trkpt lat="46.216199" lon="13.2226119"><ele>231.0</ele><time>2026-04-24T09:49:40.321Z</time></trkpt><trkpt lat="46.2162595" lon="13.2226746"><ele>231.00000000000003</ele><time>2026-04-24T09:49:41.32Z</time></trkpt><trkpt lat="46.2163822" lon="13.2227473"><ele>231.00000000000003</ele><time>2026-04-24T09:49:43.321Z</time></trkpt><trkpt lat="46.2164802" lon="13.2228073"><ele>231.0</ele><time>2026-04-24T09:49:44.32Z</time></trkpt><trkpt lat="46.2165615" lon="13.2228606"><ele>231.0</ele><time>2026-04-24T09:49:45.32Z</time></trkpt><trkpt lat="46.2166312" lon="13.2229175"><ele>230.4</ele><time>2026-04-24T09:49:46.321Z</time></trkpt><trkpt lat="46.2167288" lon="13.2229714"><ele>229.8</ele><time>2026-04-24T09:49:47.322Z</time></trkpt><trkpt lat="46.2168099" lon="13.2230299"><ele>229.20000000000002</ele><time>2026-04-24T09:49:48.321Z</time></trkpt><trkpt lat="46.216898" lon="13.2230794"><ele>228.60000000000002</ele><time>2026-04-24T09:49:49.32Z</time></trkpt><trkpt lat="46.2169925" lon="13.223147"><ele>228.0</ele><time>2026-04-24T09:49:50.321Z</time></trkpt><trkpt lat="46.217085" lon="13.2232062"><ele>227.0</ele><time>2026-04-24T09:49:51.321Z</time></trkpt><trkpt lat="46.2171809" lon="13.223253"><ele>226.0</ele><time>2026-04-24T09:49:52.321Z</time></trkpt><trkpt lat="46.2172686" lon="13.2233087"><ele>225.0</ele><time>2026-04-24T09:49:53.321Z</time></trkpt><trkpt lat="46.2173589" lon="13.2233676"><ele>224.0</ele><time>2026-04-24T09:49:54.321Z</time></trkpt><trkpt lat="46.2174387" lon="13.2234281"><ele>223.0</ele><time>2026-04-24T09:49:55.321Z</time></trkpt><trkpt lat="46.2174998" lon="13.2235126"><ele>223.16666666666666</ele><time>2026-04-24T09:49:56.322Z</time></trkpt><trkpt lat="46.2175406" lon="13.2236155"><ele>223.33333333333331</ele><time>2026-04-24T09:49:57.322Z</time></trkpt><trkpt lat="46.2175723" lon="13.2237233"><ele>223.5</ele><time>2026-04-24T09:49:58.321Z</time></trkpt><trkpt lat="46.2175986" lon="13.2238373"><ele>223.66666666666669</ele><time>2026-04-24T09:49:59.321Z</time></trkpt><trkpt lat="46.2176242" lon="13.2239534"><ele>223.83333333333334</ele><time>2026-04-24T09:50:00.321Z</time></trkpt><trkpt lat="46.2176569" lon="13.2240578"><ele>224.0</ele><time>2026-04-24T09:50:01.32Z</time></trkpt><trkpt lat="46.2176797" lon="13.2241598"><ele>224.00000000000003</ele><time>2026-04-24T09:50:02.321Z</time></trkpt><trkpt lat="46.2176822" lon="13.224266"><ele>224.0</ele><time>2026-04-24T09:50:03.321Z</time></trkpt><trkpt lat="46.2176793" lon="13.2243999"><ele>224.0</ele><time>2026-04-24T09:50:05.32Z</time></trkpt><trkpt lat="46.2177418" lon="13.2244912"><ele>224.0</ele><time>2026-04-24T09:50:11.321Z</time></trkpt><trkpt lat="46.217812" lon="13.2244703"><ele>224.00000000000003</ele><time>2026-04-24T09:50:12.32Z</time></trkpt><trkpt lat="46.2178863" lon="13.2244467"><ele>224.0</ele><time>2026-04-24T09:50:13.32Z</time></trkpt><trkpt lat="46.2179748" lon="13.2244106"><ele>224.0</ele><time>2026-04-24T09:50:14.321Z</time></trkpt><trkpt lat="46.218089" lon="13.2243699"><ele>224.0</ele><time>2026-04-24T09:50:15.32Z</time></trkpt><trkpt lat="46.218207" lon="13.2243249"><ele>224.0</ele><time>2026-04-24T09:50:16.32Z</time></trkpt><trkpt lat="46.2183311" lon="13.2242822"><ele>224.0</ele><time>2026-04-24T09:50:17.321Z</time></trkpt><trkpt lat="46.2184636" lon="13.2242335"><ele>225.66666666666669</ele><time>2026-04-24T09:50:18.321Z</time></trkpt><trkpt lat="46.218607" lon="13.2241726"><ele>227.33333333333331</ele><time>2026-04-24T09:50:19.322Z</time></trkpt><trkpt lat="46.21875" lon="13.2241184"><ele>229.0</ele><time>2026-04-24T09:50:20.322Z</time></trkpt><trkpt lat="46.2188994" lon="13.2240653"><ele>227.33333333333331</ele><time>2026-04-24T09:50:21.321Z</time></trkpt><trkpt lat="46.2190516" lon="13.2240086"><ele>225.66666666666669</ele><time>2026-04-24T09:50:22.32Z</time></trkpt><trkpt lat="46.2192005" lon="13.2239491"><ele>224.0</ele><time>2026-04-24T09:50:23.32Z</time></trkpt><trkpt lat="46.21934" lon="13.2238954"><ele>224.0</ele><time>2026-04-24T09:50:24.322Z</time></trkpt><trkpt lat="46.2194697" lon="13.2238445"><ele>224.0</ele><time>2026-04-24T09:50:25.321Z</time></trkpt><trkpt lat="46.2195899" lon="13.2237948"><ele>224.0</ele><time>2026-04-24T09:50:26.322Z</time></trkpt><trkpt lat="46.2197036" lon="13.2237496"><ele>224.0</ele><time>2026-04-24T09:50:27.322Z</time></trkpt><trkpt lat="46.2198163" lon="13.2237187"><ele>224.75</ele><time>2026-04-24T09:50:28.321Z</time></trkpt><trkpt lat="46.2199362" lon="13.2237042"><ele>225.5</ele><time>2026-04-24T09:50:29.321Z</time></trkpt><trkpt lat="46.2200595" lon="13.2237024"><ele>226.25</ele><time>2026-04-24T09:50:30.321Z</time></trkpt><trkpt lat="46.2201839" lon="13.2237071"><ele>227.0</ele><time>2026-04-24T09:50:31.321Z</time></trkpt><trkpt lat="46.220312" lon="13.2237211"><ele>227.0</ele><time>2026-04-24T09:50:32.32Z</time></trkpt><trkpt lat="46.2204492" lon="13.223743"><ele>227.0</ele><time>2026-04-24T09:50:33.321Z</time></trkpt><trkpt lat="46.2205878" lon="13.2237602"><ele>227.0</ele><time>2026-04-24T09:50:34.321Z</time></trkpt><trkpt lat="46.2207334" lon="13.2237757"><ele>227.0</ele><time>2026-04-24T09:50:35.32Z</time></trkpt><trkpt lat="46.2208834" lon="13.2237889"><ele>227.0</ele><time>2026-04-24T09:50:36.321Z</time></trkpt><trkpt lat="46.2210357" lon="13.2238009"><ele>227.0</ele><time>2026-04-24T09:50:37.322Z</time></trkpt><trkpt lat="46.2211867" lon="13.2238199"><ele>227.0</ele><time>2026-04-24T09:50:38.321Z</time></trkpt><trkpt lat="46.2213429" lon="13.2238334"><ele>227.0</ele><time>2026-04-24T09:50:39.32Z</time></trkpt><trkpt lat="46.2214991" lon="13.2238489"><ele>227.0</ele><time>2026-04-24T09:50:40.32Z</time></trkpt><trkpt lat="46.2216559" lon="13.2238623"><ele>227.0</ele><time>2026-04-24T09:50:41.32Z</time></trkpt><trkpt lat="46.2218179" lon="13.2238774"><ele>227.0</ele><time>2026-04-24T09:50:42.321Z</time></trkpt><trkpt lat="46.2219773" lon="13.2239006"><ele>227.0</ele><time>2026-04-24T09:50:43.322Z</time></trkpt><trkpt lat="46.2221355" lon="13.2239316"><ele>227.0</ele><time>2026-04-24T09:50:44.322Z</time></trkpt><trkpt lat="46.222299" lon="13.2239642"><ele>231.66666666666669</ele><time>2026-04-24T09:50:45.321Z</time></trkpt><trkpt lat="46.2224628" lon="13.2240061"><ele>236.33333333333331</ele><time>2026-04-24T09:50:46.321Z</time></trkpt><trkpt lat="46.2226256" lon="13.2240512"><ele>241.0</ele><time>2026-04-24T09:50:47.321Z</time></trkpt><trkpt lat="46.2227911" lon="13.2240955"><ele>241.0</ele><time>2026-04-24T09:50:48.321Z</time></trkpt><trkpt lat="46.2229598" lon="13.2241405"><ele>241.0</ele><time>2026-04-24T09:50:49.321Z</time></trkpt><trkpt lat="46.2231283" lon="13.2241878"><ele>241.0</ele><time>2026-04-24T09:50:50.32Z</time></trkpt><trkpt lat="46.223298" lon="13.224234"><ele>241.0</ele><time>2026-04-24T09:50:51.321Z</time></trkpt><trkpt lat="46.2234709" lon="13.2242807"><ele>241.0</ele><time>2026-04-24T09:50:52.322Z</time></trkpt><trkpt lat="46.2236464" lon="13.2243283"><ele>241.0</ele><time>2026-04-24T09:50:53.321Z</time></trkpt><trkpt lat="46.2238237" lon="13.2243762"><ele>239.0</ele><time>2026-04-24T09:50:54.321Z</time></trkpt><trkpt lat="46.2239998" lon="13.2244328"><ele>237.0</ele><time>2026-04-24T09:50:55.321Z</time></trkpt><trkpt lat="46.2241818" lon="13.2244878"><ele>235.0</ele><time>2026-04-24T09:50:56.322Z</time></trkpt><trkpt lat="46.2243576" lon="13.2245397"><ele>235.0</ele><time>2026-04-24T09:50:57.322Z</time></trkpt><trkpt lat="46.2245296" lon="13.2245982"><ele>235.0</ele><time>2026-04-24T09:50:58.321Z</time></trkpt><trkpt lat="46.224705" lon="13.2246766"><ele>235.0</ele><time>2026-04-24T09:50:59.32Z</time></trkpt><trkpt lat="46.2248578" lon="13.2247933"><ele>240.33333333333331</ele><time>2026-04-24T09:51:00.321Z</time></trkpt><trkpt lat="46.2250119" lon="13.2249323"><ele>245.66666666666669</ele><time>2026-04-24T09:51:01.321Z</time></trkpt><trkpt lat="46.2251626" lon="13.2250787"><ele>251.0</ele><time>2026-04-24T09:51:02.32Z</time></trkpt><trkpt lat="46.2253104" lon="13.2252173"><ele>251.0</ele><time>2026-04-24T09:51:03.322Z</time></trkpt><trkpt lat="46.2254586" lon="13.225352"><ele>251.0</ele><time>2026-04-24T09:51:04.321Z</time></trkpt><trkpt lat="46.2256171" lon="13.2254885"><ele>251.0</ele><time>2026-04-24T09:51:05.321Z</time></trkpt><trkpt lat="46.225777" lon="13.2256121"><ele>254.66666666666669</ele><time>2026-04-24T09:51:06.322Z</time></trkpt><trkpt lat="46.2259465" lon="13.2257091"><ele>258.3333333333333</ele><time>2026-04-24T09:51:07.322Z</time></trkpt><trkpt lat="46.2261199" lon="13.2257562"><ele>262.0</ele><time>2026-04-24T09:51:08.32Z</time></trkpt><trkpt lat="46.2262921" lon="13.2258228"><ele>262.0</ele><time>2026-04-24T09:51:09.322Z</time></trkpt><trkpt lat="46.2264618" lon="13.2258867"><ele>262.0</ele><time>2026-04-24T09:51:10.321Z</time></trkpt><trkpt lat="46.2266305" lon="13.2259436"><ele>262.0</ele><time>2026-04-24T09:51:11.32Z</time></trkpt><trkpt lat="46.2267974" lon="13.226027"><ele>259.0</ele><time>2026-04-24T09:51:12.322Z</time></trkpt><trkpt lat="46.2269531" lon="13.2261307"><ele>256.0</ele><time>2026-04-24T09:51:13.32Z</time></trkpt><trkpt lat="46.2271032" lon="13.2262447"><ele>253.0</ele><time>2026-04-24T09:51:14.322Z</time></trkpt><trkpt lat="46.2272492" lon="13.2263804"><ele>259.3333333333333</ele><time>2026-04-24T09:51:15.321Z</time></trkpt><trkpt lat="46.227396" lon="13.2265215"><ele>265.6666666666667</ele><time>2026-04-24T09:51:16.32Z</time></trkpt><trkpt lat="46.2275404" lon="13.2266594"><ele>272.0</ele><time>2026-04-24T09:51:17.321Z</time></trkpt><trkpt lat="46.227685" lon="13.2267931"><ele>272.0</ele><time>2026-04-24T09:51:18.322Z</time></trkpt><trkpt lat="46.2278292" lon="13.2269259"><ele>272.0</ele><time>2026-04-24T09:51:19.321Z</time></trkpt><trkpt lat="46.227972" lon="13.2270578"><ele>272.0</ele><time>2026-04-24T09:51:20.32Z</time></trkpt><trkpt lat="46.2281091" lon="13.2271965"><ele>269.6666666666667</ele><time>2026-04-24T09:51:21.321Z</time></trkpt><trkpt lat="46.2282397" lon="13.2273365"><ele>267.3333333333333</ele><time>2026-04-24T09:51:22.321Z</time></trkpt><trkpt lat="46.2283605" lon="13.227466"><ele>265.0</ele><time>2026-04-24T09:51:23.32Z</time></trkpt><trkpt lat="46.2284708" lon="13.2275827"><ele>265.0</ele><time>2026-04-24T09:51:24.321Z</time></trkpt><trkpt lat="46.2285842" lon="13.2276736"><ele>265.0</ele><time>2026-04-24T09:51:25.321Z</time></trkpt><trkpt lat="46.2287084" lon="13.2277341"><ele>265.0</ele><time>2026-04-24T09:51:26.32Z</time></trkpt><trkpt lat="46.2288398" lon="13.2277609"><ele>265.0</ele><time>2026-04-24T09:51:27.322Z</time></trkpt><trkpt lat="46.228978" lon="13.2277528"><ele>265.5</ele><time>2026-04-24T09:51:28.322Z</time></trkpt><trkpt lat="46.2291185" lon="13.2277184"><ele>266.0</ele><time>2026-04-24T09:51:29.32Z</time></trkpt><trkpt lat="46.2292634" lon="13.2276766"><ele>266.5</ele><time>2026-04-24T09:51:30.32Z</time></trkpt><trkpt lat="46.2294059" lon="13.2276419"><ele>267.0</ele><time>2026-04-24T09:51:31.321Z</time></trkpt><trkpt lat="46.2295475" lon="13.2276129"><ele>267.0</ele><time>2026-04-24T09:51:32.321Z</time></trkpt><trkpt lat="46.2296907" lon="13.2275942"><ele>267.0</ele><time>2026-04-24T09:51:33.32Z</time></trkpt><trkpt lat="46.2298388" lon="13.2275869"><ele>267.0</ele><time>2026-04-24T09:51:34.322Z</time></trkpt><trkpt lat="46.2299893" lon="13.2275881"><ele>267.0</ele><time>2026-04-24T09:51:35.322Z</time></trkpt><trkpt lat="46.2301436" lon="13.2275876"><ele>267.0</ele><time>2026-04-24T09:51:36.321Z</time></trkpt><trkpt lat="46.230296" lon="13.2275814"><ele>267.0</ele><time>2026-04-24T09:51:37.321Z</time></trkpt><trkpt lat="46.2304408" lon="13.2275748"><ele>267.0</ele><time>2026-04-24T09:51:38.322Z</time></trkpt><trkpt lat="46.230575" lon="13.2275798"><ele>267.0</ele><time>2026-04-24T09:51:39.321Z</time></trkpt><trkpt lat="46.2307003" lon="13.227612"><ele>266.0</ele><time>2026-04-24T09:51:40.321Z</time></trkpt><trkpt lat="46.2308208" lon="13.2276821"><ele>265.0</ele><time>2026-04-24T09:51:41.322Z</time></trkpt><trkpt lat="46.2309396" lon="13.2277839"><ele>264.0</ele><time>2026-04-24T09:51:42.321Z</time></trkpt><trkpt lat="46.2310619" lon="13.2279024"><ele>263.0</ele><time>2026-04-24T09:51:43.321Z</time></trkpt><trkpt lat="46.2311861" lon="13.2280237"><ele>263.0</ele><time>2026-04-24T09:51:44.322Z</time></trkpt><trkpt lat="46.2313158" lon="13.2281325"><ele>263.0</ele><time>2026-04-24T09:51:45.32Z</time></trkpt><trkpt lat="46.2314483" lon="13.2282287"><ele>263.0</ele><time>2026-04-24T09:51:46.32Z</time></trkpt><trkpt lat="46.2316113" lon="13.2282887"><ele>264.6666666666667</ele><time>2026-04-24T09:51:47.319Z</time></trkpt><trkpt lat="46.2317669" lon="13.2283432"><ele>266.3333333333333</ele><time>2026-04-24T09:51:48.32Z</time></trkpt><trkpt lat="46.2319211" lon="13.2284035"><ele>268.0</ele><time>2026-04-24T09:51:49.319Z</time></trkpt><trkpt lat="46.2320729" lon="13.2284616"><ele>268.0</ele><time>2026-04-24T09:51:50.319Z</time></trkpt><trkpt lat="46.2322305" lon="13.2285422"><ele>268.0</ele><time>2026-04-24T09:51:51.321Z</time></trkpt><trkpt lat="46.2323841" lon="13.2286344"><ele>268.0</ele><time>2026-04-24T09:51:52.321Z</time></trkpt><trkpt lat="46.2325285" lon="13.2287308"><ele>269.0</ele><time>2026-04-24T09:51:53.32Z</time></trkpt><trkpt lat="46.2326714" lon="13.2288411"><ele>270.0</ele><time>2026-04-24T09:51:54.319Z</time></trkpt><trkpt lat="46.2328152" lon="13.2289495"><ele>271.0</ele><time>2026-04-24T09:51:55.32Z</time></trkpt><trkpt lat="46.2329527" lon="13.2290689"><ele>271.0</ele><time>2026-04-24T09:51:56.321Z</time></trkpt><trkpt lat="46.2330739" lon="13.229223"><ele>271.0</ele><time>2026-04-24T09:51:57.32Z</time></trkpt><trkpt lat="46.2331828" lon="13.2293938"><ele>271.0</ele><time>2026-04-24T09:51:58.32Z</time></trkpt><trkpt lat="46.2332916" lon="13.229554"><ele>271.66666666666663</ele><time>2026-04-24T09:51:59.321Z</time></trkpt><trkpt lat="46.2334126" lon="13.2296933"><ele>272.3333333333333</ele><time>2026-04-24T09:52:00.32Z</time></trkpt><trkpt lat="46.2335537" lon="13.2298046"><ele>273.0</ele><time>2026-04-24T09:52:01.32Z</time></trkpt><trkpt lat="46.2337035" lon="13.2298938"><ele>273.0</ele><time>2026-04-24T09:52:02.321Z</time></trkpt><trkpt lat="46.2338585" lon="13.2299895"><ele>273.0</ele><time>2026-04-24T09:52:03.32Z</time></trkpt><trkpt lat="46.2340207" lon="13.2300883"><ele>273.0</ele><time>2026-04-24T09:52:04.32Z</time></trkpt><trkpt lat="46.2341742" lon="13.2301975"><ele>272.3333333333333</ele><time>2026-04-24T09:52:05.321Z</time></trkpt><trkpt lat="46.2343391" lon="13.2302892"><ele>271.66666666666663</ele><time>2026-04-24T09:52:06.32Z</time></trkpt><trkpt lat="46.2344988" lon="13.2303893"><ele>271.0</ele><time>2026-04-24T09:52:07.319Z</time></trkpt><trkpt lat="46.2346596" lon="13.2304829"><ele>271.3333333333333</ele><time>2026-04-24T09:52:08.32Z</time></trkpt><trkpt lat="46.2348223" lon="13.2305681"><ele>271.6666666666667</ele><time>2026-04-24T09:52:09.321Z</time></trkpt><trkpt lat="46.2349924" lon="13.2306213"><ele>272.0</ele><time>2026-04-24T09:52:10.321Z</time></trkpt><trkpt lat="46.2351611" lon="13.2306502"><ele>272.0</ele><time>2026-04-24T09:52:11.321Z</time></trkpt><trkpt lat="46.2353392" lon="13.2306489"><ele>272.0</ele><time>2026-04-24T09:52:12.32Z</time></trkpt><trkpt lat="46.2355176" lon="13.2306282"><ele>272.0</ele><time>2026-04-24T09:52:13.321Z</time></trkpt><trkpt lat="46.2356935" lon="13.2306008"><ele>268.33333333333337</ele><time>2026-04-24T09:52:14.32Z</time></trkpt><trkpt lat="46.235872" lon="13.2305718"><ele>264.6666666666667</ele><time>2026-04-24T09:52:15.32Z</time></trkpt><trkpt lat="46.236052" lon="13.2305444"><ele>261.0</ele><time>2026-04-24T09:52:16.319Z</time></trkpt><trkpt lat="46.2362321" lon="13.2305156"><ele>261.0</ele><time>2026-04-24T09:52:17.32Z</time></trkpt><trkpt lat="46.2364116" lon="13.2304882"><ele>261.0</ele><time>2026-04-24T09:52:18.321Z</time></trkpt><trkpt lat="46.2365934" lon="13.2304607"><ele>261.0</ele><time>2026-04-24T09:52:19.321Z</time></trkpt><trkpt lat="46.2367726" lon="13.230434"><ele>261.0</ele><time>2026-04-24T09:52:20.32Z</time></trkpt><trkpt lat="46.2369536" lon="13.2304157"><ele>261.0</ele><time>2026-04-24T09:52:21.321Z</time></trkpt><trkpt lat="46.2371385" lon="13.2304118"><ele>261.0</ele><time>2026-04-24T09:52:22.319Z</time></trkpt><trkpt lat="46.2373189" lon="13.2304201"><ele>264.0</ele><time>2026-04-24T09:52:23.32Z</time></trkpt><trkpt lat="46.2374957" lon="13.2304355"><ele>267.0</ele><time>2026-04-24T09:52:24.321Z</time></trkpt><trkpt lat="46.2376638" lon="13.2304618"><ele>270.0</ele><time>2026-04-24T09:52:25.32Z</time></trkpt><trkpt lat="46.2378193" lon="13.2305193"><ele>270.0</ele><time>2026-04-24T09:52:26.319Z</time></trkpt><trkpt lat="46.237951" lon="13.2306162"><ele>270.0</ele><time>2026-04-24T09:52:27.319Z</time></trkpt><trkpt lat="46.2380652" lon="13.2307512"><ele>270.0</ele><time>2026-04-24T09:52:28.32Z</time></trkpt><trkpt lat="46.2381574" lon="13.2309244"><ele>270.0</ele><time>2026-04-24T09:52:29.321Z</time></trkpt><trkpt lat="46.2382333" lon="13.2311294"><ele>273.0</ele><time>2026-04-24T09:52:30.32Z</time></trkpt><trkpt lat="46.2383143" lon="13.2313551"><ele>276.0</ele><time>2026-04-24T09:52:31.319Z</time></trkpt><trkpt lat="46.2384106" lon="13.2315908"><ele>279.0</ele><time>2026-04-24T09:52:32.321Z</time></trkpt><trkpt lat="46.2385181" lon="13.2318235"><ele>292.0</ele><time>2026-04-24T09:52:33.32Z</time></trkpt><trkpt lat="46.238632" lon="13.232061"><ele>305.0</ele><time>2026-04-24T09:52:34.32Z</time></trkpt><trkpt lat="46.238735" lon="13.2322927"><ele>318.0</ele><time>2026-04-24T09:52:35.319Z</time></trkpt><trkpt lat="46.2388419" lon="13.2325188"><ele>333.0</ele><time>2026-04-24T09:52:36.32Z</time></trkpt><trkpt lat="46.2389425" lon="13.2327406"><ele>348.0</ele><time>2026-04-24T09:52:37.32Z</time></trkpt><trkpt lat="46.239039" lon="13.2329635"><ele>363.0</ele><time>2026-04-24T09:52:38.32Z</time></trkpt><trkpt lat="46.2391162" lon="13.2331961"><ele>363.0</ele><time>2026-04-24T09:52:39.319Z</time></trkpt><trkpt lat="46.2391777" lon="13.2334343"><ele>363.0</ele><time>2026-04-24T09:52:40.319Z</time></trkpt><trkpt lat="46.2392366" lon="13.2336546"><ele>363.0</ele><time>2026-04-24T09:52:41.321Z</time></trkpt><trkpt lat="46.239304" lon="13.2338496"><ele>363.0</ele><time>2026-04-24T09:52:42.319Z</time></trkpt><trkpt lat="46.2393889" lon="13.2340171"><ele>363.0</ele><time>2026-04-24T09:52:43.32Z</time></trkpt><trkpt lat="46.2394765" lon="13.2341837"><ele>363.0</ele><time>2026-04-24T09:52:44.319Z</time></trkpt><trkpt lat="46.2395651" lon="13.2343356"><ele>363.0</ele><time>2026-04-24T09:52:45.32Z</time></trkpt><trkpt lat="46.2396289" lon="13.2344741"><ele>372.5</ele><time>2026-04-24T09:52:46.321Z</time></trkpt><trkpt lat="46.2396905" lon="13.2346274"><ele>382.0</ele><time>2026-04-24T09:52:47.32Z</time></trkpt><trkpt lat="46.2397315" lon="13.2348041"><ele>391.5</ele><time>2026-04-24T09:52:48.32Z</time></trkpt><trkpt lat="46.2397651" lon="13.234993"><ele>401.0</ele><time>2026-04-24T09:52:49.321Z</time></trkpt><trkpt lat="46.2398011" lon="13.2351922"><ele>367.66666666666663</ele><time>2026-04-24T09:52:50.32Z</time></trkpt><trkpt lat="46.2398766" lon="13.2353793"><ele>334.3333333333333</ele><time>2026-04-24T09:52:51.321Z</time></trkpt><trkpt lat="46.2399545" lon="13.2355728"><ele>301.0</ele><time>2026-04-24T09:52:52.32Z</time></trkpt><trkpt lat="46.2400355" lon="13.2357782"><ele>301.0</ele><time>2026-04-24T09:52:53.319Z</time></trkpt><trkpt lat="46.2401139" lon="13.235997"><ele>301.0</ele><time>2026-04-24T09:52:54.32Z</time></trkpt><trkpt lat="46.2401884" lon="13.2362305"><ele>301.0</ele><time>2026-04-24T09:52:55.32Z</time></trkpt><trkpt lat="46.2402667" lon="13.2364789"><ele>312.66666666666663</ele><time>2026-04-24T09:52:56.321Z</time></trkpt><trkpt lat="46.2403424" lon="13.2367284"><ele>324.3333333333333</ele><time>2026-04-24T09:52:57.32Z</time></trkpt><trkpt lat="46.2404197" lon="13.2369736"><ele>336.0</ele><time>2026-04-24T09:52:58.321Z</time></trkpt><trkpt lat="46.2404938" lon="13.237231"><ele>336.3333333333333</ele><time>2026-04-24T09:52:59.32Z</time></trkpt><trkpt lat="46.2405738" lon="13.2374933"><ele>336.66666666666663</ele><time>2026-04-24T09:53:00.319Z</time></trkpt><trkpt lat="46.240654" lon="13.237769"><ele>337.0</ele><time>2026-04-24T09:53:01.319Z</time></trkpt><trkpt lat="46.2407334" lon="13.238043"><ele>336.5</ele><time>2026-04-24T09:53:02.32Z</time></trkpt><trkpt lat="46.2408173" lon="13.2383418"><ele>336.0</ele><time>2026-04-24T09:53:03.32Z</time></trkpt><trkpt lat="46.2409112" lon="13.2386479"><ele>336.0</ele><time>2026-04-24T09:53:04.32Z</time></trkpt><trkpt lat="46.2409948" lon="13.2389533"><ele>336.0</ele><time>2026-04-24T09:53:05.321Z</time></trkpt><trkpt lat="46.2410761" lon="13.2392297"><ele>336.0</ele><time>2026-04-24T09:53:06.32Z</time></trkpt><trkpt lat="46.2411499" lon="13.2394777"><ele>340.0</ele><time>2026-04-24T09:53:07.32Z</time></trkpt><trkpt lat="46.2412215" lon="13.2396972"><ele>344.0</ele><time>2026-04-24T09:53:08.319Z</time></trkpt><trkpt lat="46.2413159" lon="13.2398953"><ele>348.0</ele><time>2026-04-24T09:53:09.319Z</time></trkpt><trkpt lat="46.2414522" lon="13.2400711"><ele>349.0</ele><time>2026-04-24T09:53:10.319Z</time></trkpt><trkpt lat="46.2415434" lon="13.2402896"><ele>350.0</ele><time>2026-04-24T09:53:11.319Z</time></trkpt><trkpt lat="46.2416192" lon="13.240535"><ele>351.0</ele><time>2026-04-24T09:53:12.321Z</time></trkpt><trkpt lat="46.2416927" lon="13.2407826"><ele>351.0</ele><time>2026-04-24T09:53:13.319Z</time></trkpt><trkpt lat="46.2417637" lon="13.2410238"><ele>351.0</ele><time>2026-04-24T09:53:14.319Z</time></trkpt><trkpt lat="46.2418416" lon="13.2412664"><ele>351.0</ele><time>2026-04-24T09:53:15.321Z</time></trkpt><trkpt lat="46.2419263" lon="13.2415021"><ele>352.0</ele><time>2026-04-24T09:53:16.32Z</time></trkpt><trkpt lat="46.2420312" lon="13.2417252"><ele>353.0</ele><time>2026-04-24T09:53:17.32Z</time></trkpt><trkpt lat="46.2421503" lon="13.2419421"><ele>354.0</ele><time>2026-04-24T09:53:18.321Z</time></trkpt><trkpt lat="46.2422816" lon="13.2421491"><ele>351.0</ele><time>2026-04-24T09:53:19.319Z</time></trkpt><trkpt lat="46.2424221" lon="13.2423492"><ele>348.0</ele><time>2026-04-24T09:53:20.321Z</time></trkpt><trkpt lat="46.2425561" lon="13.2425391"><ele>345.0</ele><time>2026-04-24T09:53:21.32Z</time></trkpt><trkpt lat="46.2426722" lon="13.2427184"><ele>345.0</ele><time>2026-04-24T09:53:22.32Z</time></trkpt><trkpt lat="46.2427902" lon="13.2428935"><ele>345.0</ele><time>2026-04-24T09:53:23.321Z</time></trkpt><trkpt lat="46.2429112" lon="13.2430729"><ele>345.0</ele><time>2026-04-24T09:53:24.321Z</time></trkpt><trkpt lat="46.243034" lon="13.2432532"><ele>339.3333333333333</ele><time>2026-04-24T09:53:25.32Z</time></trkpt><trkpt lat="46.2431621" lon="13.243429"><ele>333.66666666666663</ele><time>2026-04-24T09:53:26.32Z</time></trkpt><trkpt lat="46.2432964" lon="13.2436015"><ele>328.0</ele><time>2026-04-24T09:53:27.32Z</time></trkpt><trkpt lat="46.2434299" lon="13.2437717"><ele>328.0</ele><time>2026-04-24T09:53:28.319Z</time></trkpt><trkpt lat="46.2435648" lon="13.2439205"><ele>328.0</ele><time>2026-04-24T09:53:29.319Z</time></trkpt><trkpt lat="46.2436847" lon="13.244058"><ele>328.0</ele><time>2026-04-24T09:53:30.321Z</time></trkpt><trkpt lat="46.2438013" lon="13.244161"><ele>330.0</ele><time>2026-04-24T09:53:31.32Z</time></trkpt><trkpt lat="46.24392" lon="13.2442137"><ele>332.0</ele><time>2026-04-24T09:53:32.319Z</time></trkpt><trkpt lat="46.2440589" lon="13.2442273"><ele>334.0</ele><time>2026-04-24T09:53:33.32Z</time></trkpt><trkpt lat="46.2442131" lon="13.2442166"><ele>336.0</ele><time>2026-04-24T09:53:34.321Z</time></trkpt><trkpt lat="46.244377" lon="13.2442026"><ele>336.0</ele><time>2026-04-24T09:53:35.319Z</time></trkpt><trkpt lat="46.2445498" lon="13.2441819"><ele>336.0</ele><time>2026-04-24T09:53:36.319Z</time></trkpt><trkpt lat="46.2447118" lon="13.2441592"><ele>336.0</ele><time>2026-04-24T09:53:37.321Z</time></trkpt><trkpt lat="46.2448583" lon="13.2441503"><ele>336.75</ele><time>2026-04-24T09:53:38.321Z</time></trkpt><trkpt lat="46.2449999" lon="13.2441443"><ele>337.5</ele><time>2026-04-24T09:53:39.319Z</time></trkpt><trkpt lat="46.2451231" lon="13.2441653"><ele>338.25</ele><time>2026-04-24T09:53:40.321Z</time></trkpt><trkpt lat="46.2452338" lon="13.2442162"><ele>339.0</ele><time>2026-04-24T09:53:41.32Z</time></trkpt><trkpt lat="46.2453379" lon="13.2442811"><ele>339.0</ele><time>2026-04-24T09:53:42.319Z</time></trkpt><trkpt lat="46.2454064" lon="13.2444111"><ele>339.0</ele><time>2026-04-24T09:53:43.32Z</time></trkpt><trkpt lat="46.2454676" lon="13.2445372"><ele>339.0</ele><time>2026-04-24T09:53:44.319Z</time></trkpt><trkpt lat="46.2454884" lon="13.244718"><ele>339.0</ele><time>2026-04-24T09:53:45.32Z</time></trkpt><trkpt lat="46.2455021" lon="13.2448891"><ele>344.75</ele><time>2026-04-24T09:53:46.319Z</time></trkpt><trkpt lat="46.2454883" lon="13.2450858"><ele>350.5</ele><time>2026-04-24T09:53:47.32Z</time></trkpt><trkpt lat="46.2454551" lon="13.2452857"><ele>356.25</ele><time>2026-04-24T09:53:48.32Z</time></trkpt><trkpt lat="46.2454323" lon="13.245483"><ele>362.0</ele><time>2026-04-24T09:53:49.32Z</time></trkpt><trkpt lat="46.2454215" lon="13.2456868"><ele>368.0</ele><time>2026-04-24T09:53:50.321Z</time></trkpt><trkpt lat="46.24543" lon="13.2458906"><ele>374.0</ele><time>2026-04-24T09:53:51.32Z</time></trkpt><trkpt lat="46.2454622" lon="13.2461016"><ele>380.0</ele><time>2026-04-24T09:53:52.32Z</time></trkpt><trkpt lat="46.2455208" lon="13.24632"><ele>390.33333333333337</ele><time>2026-04-24T09:53:53.32Z</time></trkpt><trkpt lat="46.2455817" lon="13.2465385"><ele>400.6666666666667</ele><time>2026-04-24T09:53:54.32Z</time></trkpt><trkpt lat="46.2456414" lon="13.2467428"><ele>411.0</ele><time>2026-04-24T09:53:55.321Z</time></trkpt><trkpt lat="46.2457037" lon="13.2469135"><ele>400.25</ele><time>2026-04-24T09:53:56.321Z</time></trkpt><trkpt lat="46.2457773" lon="13.2470553"><ele>389.5</ele><time>2026-04-24T09:53:57.32Z</time></trkpt><trkpt lat="46.2458673" lon="13.2471671"><ele>378.75</ele><time>2026-04-24T09:53:58.32Z</time></trkpt><trkpt lat="46.2459849" lon="13.2472541"><ele>368.0</ele><time>2026-04-24T09:53:59.321Z</time></trkpt><trkpt lat="46.2461115" lon="13.2473222"><ele>368.0</ele><time>2026-04-24T09:54:00.319Z</time></trkpt><trkpt lat="46.2462451" lon="13.2473845"><ele>368.0</ele><time>2026-04-24T09:54:01.32Z</time></trkpt><trkpt lat="46.2463909" lon="13.247454"><ele>368.0</ele><time>2026-04-24T09:54:02.32Z</time></trkpt><trkpt lat="46.2465363" lon="13.2475176"><ele>368.0</ele><time>2026-04-24T09:54:03.319Z</time></trkpt><trkpt lat="46.246666" lon="13.2475758"><ele>362.59999999999997</ele><time>2026-04-24T09:54:04.32Z</time></trkpt><trkpt lat="46.2467779" lon="13.2476265"><ele>357.2</ele><time>2026-04-24T09:54:05.319Z</time></trkpt><trkpt lat="46.2468709" lon="13.2476664"><ele>351.8</ele><time>2026-04-24T09:54:06.319Z</time></trkpt><trkpt lat="46.2469442" lon="13.2476974"><ele>346.4</ele><time>2026-04-24T09:54:07.32Z</time></trkpt><trkpt lat="46.2470359" lon="13.2477601"><ele>341.0</ele><time>2026-04-24T09:54:09.32Z</time></trkpt><trkpt lat="46.2470556" lon="13.2478671"><ele>341.0</ele><time>2026-04-24T09:54:11.321Z</time></trkpt><trkpt lat="46.2469957" lon="13.2479304"><ele>341.0</ele><time>2026-04-24T09:54:13.319Z</time></trkpt><trkpt lat="46.2468553" lon="13.2478636"><ele>341.0</ele><time>2026-04-24T09:54:15.319Z</time></trkpt><trkpt lat="46.2467624" lon="13.2478074"><ele>341.0</ele><time>2026-04-24T09:54:16.32Z</time></trkpt><trkpt lat="46.2466745" lon="13.2477512"><ele>341.0</ele><time>2026-04-24T09:54:17.319Z</time></trkpt><trkpt lat="46.2465928" lon="13.2476897"><ele>341.0</ele><time>2026-04-24T09:54:18.32Z</time></trkpt><trkpt lat="46.2465218" lon="13.2476419"><ele>341.0</ele><time>2026-04-24T09:54:19.32Z</time></trkpt><trkpt lat="46.2464303" lon="13.2476767"><ele>341.0</ele><time>2026-04-24T09:54:21.32Z</time></trkpt><trkpt lat="46.2464441" lon="13.2477945"><ele>341.0</ele><time>2026-04-24T09:54:23.321Z</time></trkpt><trkpt lat="46.2464953" lon="13.2478558"><ele>341.0</ele><time>2026-04-24T09:54:24.319Z</time></trkpt><trkpt lat="46.2465709" lon="13.247918"><ele>341.0</ele><time>2026-04-24T09:54:25.321Z</time></trkpt><trkpt lat="46.2466616" lon="13.2479861"><ele>341.0</ele><time>2026-04-24T09:54:26.319Z</time></trkpt><trkpt lat="46.2467391" lon="13.248043"><ele>341.0</ele><time>2026-04-24T09:54:27.321Z</time></trkpt><trkpt lat="46.2468272" lon="13.2480961"><ele>341.0</ele><time>2026-04-24T09:54:28.319Z</time></trkpt><trkpt lat="46.2469126" lon="13.2481447"><ele>341.0</ele><time>2026-04-24T09:54:29.32Z</time></trkpt><trkpt lat="46.2470003" lon="13.2481959"><ele>341.0</ele><time>2026-04-24T09:54:30.319Z</time></trkpt><trkpt lat="46.2470853" lon="13.2482658"><ele>345.0</ele><time>2026-04-24T09:54:31.321Z</time></trkpt><trkpt lat="46.2471656" lon="13.2483484"><ele>349.0</ele><time>2026-04-24T09:54:32.32Z</time></trkpt><trkpt lat="46.2472342" lon="13.2484452"><ele>353.0</ele><time>2026-04-24T09:54:33.32Z</time></trkpt><trkpt lat="46.2472957" lon="13.2485546"><ele>357.0</ele><time>2026-04-24T09:54:34.32Z</time></trkpt><trkpt lat="46.2473427" lon="13.248682"><ele>361.0</ele><time>2026-04-24T09:54:35.321Z</time></trkpt><trkpt lat="46.2473781" lon="13.2488309"><ele>362.75</ele><time>2026-04-24T09:54:36.32Z</time></trkpt><trkpt lat="46.2474157" lon="13.2489877"><ele>364.5</ele><time>2026-04-24T09:54:37.32Z</time></trkpt><trkpt lat="46.2474661" lon="13.2491425"><ele>366.25</ele><time>2026-04-24T09:54:38.319Z</time></trkpt><trkpt lat="46.2475211" lon="13.2492946"><ele>368.0</ele><time>2026-04-24T09:54:39.321Z</time></trkpt><trkpt lat="46.2475774" lon="13.249432"><ele>368.0</ele><time>2026-04-24T09:54:40.32Z</time></trkpt><trkpt lat="46.2476358" lon="13.2495679"><ele>368.0</ele><time>2026-04-24T09:54:41.32Z</time></trkpt><trkpt lat="46.2477002" lon="13.2497051"><ele>368.0</ele><time>2026-04-24T09:54:42.321Z</time></trkpt><trkpt lat="46.2477683" lon="13.2498389"><ele>368.0</ele><time>2026-04-24T09:54:43.321Z</time></trkpt><trkpt lat="46.2478467" lon="13.2499615"><ele>366.59999999999997</ele><time>2026-04-24T09:54:44.321Z</time></trkpt><trkpt lat="46.2479234" lon="13.2500773"><ele>365.2</ele><time>2026-04-24T09:54:45.319Z</time></trkpt><trkpt lat="46.2480035" lon="13.2501828"><ele>363.8</ele><time>2026-04-24T09:54:46.321Z</time></trkpt><trkpt lat="46.2480845" lon="13.2502805"><ele>362.4</ele><time>2026-04-24T09:54:47.32Z</time></trkpt><trkpt lat="46.248168" lon="13.2503699"><ele>361.0</ele><time>2026-04-24T09:54:48.32Z</time></trkpt><trkpt lat="46.2482509" lon="13.2504605"><ele>361.0</ele><time>2026-04-24T09:54:49.319Z</time></trkpt><trkpt lat="46.248335" lon="13.2505525"><ele>361.0</ele><time>2026-04-24T09:54:50.32Z</time></trkpt><trkpt lat="46.2484213" lon="13.2506417"><ele>361.0</ele><time>2026-04-24T09:54:51.321Z</time></trkpt><trkpt lat="46.2485159" lon="13.2507213"><ele>361.0</ele><time>2026-04-24T09:54:52.32Z</time></trkpt><trkpt lat="46.2486175" lon="13.2507909"><ele>361.0</ele><time>2026-04-24T09:54:53.32Z</time></trkpt><trkpt lat="46.2487259" lon="13.250851"><ele>361.8</ele><time>2026-04-24T09:54:54.32Z</time></trkpt><trkpt lat="46.2488387" lon="13.2509003"><ele>362.6</ele><time>2026-04-24T09:54:55.32Z</time></trkpt><trkpt lat="46.2489498" lon="13.250942"><ele>363.4</ele><time>2026-04-24T09:54:56.321Z</time></trkpt><trkpt lat="46.2490527" lon="13.2509776"><ele>364.2</ele><time>2026-04-24T09:54:57.32Z</time></trkpt><trkpt lat="46.2491526" lon="13.2510188"><ele>365.0</ele><time>2026-04-24T09:54:58.319Z</time></trkpt><trkpt lat="46.2492413" lon="13.2510615"><ele>365.0</ele><time>2026-04-24T09:54:59.32Z</time></trkpt><trkpt lat="46.2493253" lon="13.2511106"><ele>365.0</ele><time>2026-04-24T09:55:00.318Z</time></trkpt><trkpt lat="46.2494055" lon="13.2511656"><ele>365.0</ele><time>2026-04-24T09:55:01.319Z</time></trkpt><trkpt lat="46.2494727" lon="13.2512488"><ele>365.0</ele><time>2026-04-24T09:55:02.32Z</time></trkpt><trkpt lat="46.2495436" lon="13.2513283"><ele>365.0</ele><time>2026-04-24T09:55:03.32Z</time></trkpt><trkpt lat="46.2496115" lon="13.2514291"><ele>371.75</ele><time>2026-04-24T09:55:04.319Z</time></trkpt><trkpt lat="46.2496704" lon="13.2515295"><ele>378.5</ele><time>2026-04-24T09:55:05.319Z</time></trkpt><trkpt lat="46.2497339" lon="13.2516638"><ele>385.25</ele><time>2026-04-24T09:55:06.318Z</time></trkpt><trkpt lat="46.249805" lon="13.2518118"><ele>392.0</ele><time>2026-04-24T09:55:07.319Z</time></trkpt><trkpt lat="46.2498779" lon="13.2519531"><ele>392.0</ele><time>2026-04-24T09:55:08.318Z</time></trkpt><trkpt lat="46.2499558" lon="13.2520894"><ele>392.0</ele><time>2026-04-24T09:55:09.319Z</time></trkpt><trkpt lat="46.2500349" lon="13.2522029"><ele>392.0</ele><time>2026-04-24T09:55:10.318Z</time></trkpt><trkpt lat="46.2501189" lon="13.2523082"><ele>392.0</ele><time>2026-04-24T09:55:11.319Z</time></trkpt><trkpt lat="46.2502061" lon="13.2523961"><ele>401.0</ele><time>2026-04-24T09:55:12.318Z</time></trkpt><trkpt lat="46.2503006" lon="13.2524986"><ele>410.0</ele><time>2026-04-24T09:55:13.318Z</time></trkpt><trkpt lat="46.2503895" lon="13.2526073"><ele>419.0</ele><time>2026-04-24T09:55:14.32Z</time></trkpt><trkpt lat="46.2504838" lon="13.2527206"><ele>428.0</ele><time>2026-04-24T09:55:15.32Z</time></trkpt><trkpt lat="46.250575" lon="13.2528363"><ele>422.59999999999997</ele><time>2026-04-24T09:55:16.32Z</time></trkpt><trkpt lat="46.2506527" lon="13.2529486"><ele>417.19999999999993</ele><time>2026-04-24T09:55:17.319Z</time></trkpt><trkpt lat="46.250722" lon="13.2530521"><ele>411.8</ele><time>2026-04-24T09:55:18.32Z</time></trkpt><trkpt lat="46.2507772" lon="13.2531524"><ele>406.4</ele><time>2026-04-24T09:55:19.318Z</time></trkpt><trkpt lat="46.2508099" lon="13.2532484"><ele>401.0</ele><time>2026-04-24T09:55:20.319Z</time></trkpt><trkpt lat="46.2508227" lon="13.2533733"><ele>401.0</ele><time>2026-04-24T09:55:21.319Z</time></trkpt><trkpt lat="46.2508248" lon="13.2535206"><ele>401.0</ele><time>2026-04-24T09:55:22.32Z</time></trkpt><trkpt lat="46.2508196" lon="13.2536771"><ele>401.0</ele><time>2026-04-24T09:55:23.319Z</time></trkpt><trkpt lat="46.2508173" lon="13.2538499"><ele>401.0</ele><time>2026-04-24T09:55:24.318Z</time></trkpt><trkpt lat="46.2508152" lon="13.254027"><ele>405.0</ele><time>2026-04-24T09:55:25.319Z</time></trkpt><trkpt lat="46.250814" lon="13.2541972"><ele>409.0</ele><time>2026-04-24T09:55:26.319Z</time></trkpt><trkpt lat="46.2508027" lon="13.2543658"><ele>413.0</ele><time>2026-04-24T09:55:27.319Z</time></trkpt><trkpt lat="46.2507869" lon="13.2545223"><ele>417.0</ele><time>2026-04-24T09:55:28.319Z</time></trkpt><trkpt lat="46.2507775" lon="13.2546745"><ele>419.6</ele><time>2026-04-24T09:55:29.319Z</time></trkpt><trkpt lat="46.2507769" lon="13.2548048"><ele>422.20000000000005</ele><time>2026-04-24T09:55:30.32Z</time></trkpt><trkpt lat="46.2507958" lon="13.2549394"><ele>424.8</ele><time>2026-04-24T09:55:31.319Z</time></trkpt><trkpt lat="46.2508213" lon="13.2550637"><ele>427.4</ele><time>2026-04-24T09:55:32.318Z</time></trkpt><trkpt lat="46.2508563" lon="13.2551936"><ele>430.0</ele><time>2026-04-24T09:55:33.319Z</time></trkpt><trkpt lat="46.2508885" lon="13.2553278"><ele>430.0</ele><time>2026-04-24T09:55:34.318Z</time></trkpt><trkpt lat="46.250912" lon="13.2554758"><ele>430.0</ele><time>2026-04-24T09:55:35.318Z</time></trkpt><trkpt lat="46.2509393" lon="13.2556245"><ele>430.0</ele><time>2026-04-24T09:55:36.32Z</time></trkpt><trkpt lat="46.2509681" lon="13.255774"><ele>430.0</ele><time>2026-04-24T09:55:37.32Z</time></trkpt><trkpt lat="46.2510274" lon="13.2559153"><ele>430.0</ele><time>2026-04-24T09:55:38.319Z</time></trkpt><trkpt lat="46.2510916" lon="13.2560401"><ele>434.0</ele><time>2026-04-24T09:55:39.319Z</time></trkpt><trkpt lat="46.2511533" lon="13.2561442"><ele>438.0</ele><time>2026-04-24T09:55:40.318Z</time></trkpt><trkpt lat="46.2512027" lon="13.256226"><ele>442.0</ele><time>2026-04-24T09:55:41.32Z</time></trkpt><trkpt lat="46.2512955" lon="13.2563394"><ele>446.0</ele><time>2026-04-24T09:55:43.319Z</time></trkpt><trkpt lat="46.2513721" lon="13.2564337"><ele>450.0</ele><time>2026-04-24T09:55:45.319Z</time></trkpt><trkpt lat="46.2514127" lon="13.2565422"><ele>450.0</ele><time>2026-04-24T09:55:47.319Z</time></trkpt><trkpt lat="46.2514473" lon="13.2566291"><ele>450.0</ele><time>2026-04-24T09:55:49.32Z</time></trkpt><trkpt lat="46.2514781" lon="13.2567085"><ele>450.0</ele><time>2026-04-24T09:55:51.319Z</time></trkpt><trkpt lat="46.2514212" lon="13.2566389"><ele>450.0</ele><time>2026-04-24T09:56:05.32Z</time></trkpt><trkpt lat="46.2513644" lon="13.2564882"><ele>450.0</ele><time>2026-04-24T09:56:07.318Z</time></trkpt><trkpt lat="46.2513294" lon="13.2563823"><ele>450.0</ele><time>2026-04-24T09:56:08.319Z</time></trkpt><trkpt lat="46.2512508" lon="13.2563111"><ele>450.0</ele><time>2026-04-24T09:56:09.319Z</time></trkpt><trkpt lat="46.2511819" lon="13.2562187"><ele>450.0</ele><time>2026-04-24T09:56:10.318Z</time></trkpt><trkpt lat="46.2511149" lon="13.256111"><ele>450.0</ele><time>2026-04-24T09:56:11.319Z</time></trkpt><trkpt lat="46.251066" lon="13.2559906"><ele>450.0</ele><time>2026-04-24T09:56:12.318Z</time></trkpt><trkpt lat="46.2510209" lon="13.2559039"><ele>450.0</ele><time>2026-04-24T09:56:13.319Z</time></trkpt><trkpt lat="46.2509799" lon="13.2558084"><ele>450.0</ele><time>2026-04-24T09:56:14.319Z</time></trkpt><trkpt lat="46.2509508" lon="13.2556964"><ele>446.6666666666667</ele><time>2026-04-24T09:56:15.318Z</time></trkpt><trkpt lat="46.2509272" lon="13.2555902"><ele>443.33333333333337</ele><time>2026-04-24T09:56:16.319Z</time></trkpt><trkpt lat="46.2509103" lon="13.2554874"><ele>440.0</ele><time>2026-04-24T09:56:17.318Z</time></trkpt><trkpt lat="46.2509046" lon="13.2553932"><ele>436.6666666666667</ele><time>2026-04-24T09:56:18.318Z</time></trkpt><trkpt lat="46.2508818" lon="13.2552774"><ele>433.33333333333337</ele><time>2026-04-24T09:56:20.319Z</time></trkpt><trkpt lat="46.2508191" lon="13.2551604"><ele>430.0</ele><time>2026-04-24T09:57:42.319Z</time></trkpt><trkpt lat="46.2507885" lon="13.2550753"><ele>430.0</ele><time>2026-04-24T09:57:43.318Z</time></trkpt><trkpt lat="46.2507641" lon="13.2549587"><ele>430.0</ele><time>2026-04-24T09:57:44.318Z</time></trkpt><trkpt lat="46.2507461" lon="13.2548416"><ele>430.0</ele><time>2026-04-24T09:57:45.319Z</time></trkpt><trkpt lat="46.2507479" lon="13.2547049"><ele>430.0</ele><time>2026-04-24T09:57:46.319Z</time></trkpt><trkpt lat="46.2507623" lon="13.2545547"><ele>430.0</ele><time>2026-04-24T09:57:47.318Z</time></trkpt><trkpt lat="46.2507815" lon="13.254386"><ele>426.75</ele><time>2026-04-24T09:57:48.319Z</time></trkpt><trkpt lat="46.250795" lon="13.254211"><ele>423.5</ele><time>2026-04-24T09:57:49.318Z</time></trkpt><trkpt lat="46.2508002" lon="13.2540139"><ele>420.25</ele><time>2026-04-24T09:57:50.32Z</time></trkpt><trkpt lat="46.2508025" lon="13.2538232"><ele>417.0</ele><time>2026-04-24T09:57:51.318Z</time></trkpt><trkpt lat="46.2508074" lon="13.2536427"><ele>414.3333333333333</ele><time>2026-04-24T09:57:52.319Z</time></trkpt><trkpt lat="46.2508168" lon="13.253488"><ele>411.66666666666663</ele><time>2026-04-24T09:57:53.319Z</time></trkpt><trkpt lat="46.2508171" lon="13.2533466"><ele>409.0</ele><time>2026-04-24T09:57:54.32Z</time></trkpt><trkpt lat="46.2508023" lon="13.253238"><ele>406.3333333333333</ele><time>2026-04-24T09:57:55.32Z</time></trkpt><trkpt lat="46.2507727" lon="13.2531405"><ele>403.66666666666663</ele><time>2026-04-24T09:57:56.319Z</time></trkpt><trkpt lat="46.2507169" lon="13.2530441"><ele>401.0</ele><time>2026-04-24T09:57:57.32Z</time></trkpt><trkpt lat="46.2506361" lon="13.2529478"><ele>407.75</ele><time>2026-04-24T09:57:58.318Z</time></trkpt><trkpt lat="46.2505522" lon="13.2528433"><ele>414.5</ele><time>2026-04-24T09:57:59.318Z</time></trkpt><trkpt lat="46.2504545" lon="13.252725"><ele>421.25</ele><time>2026-04-24T09:58:00.318Z</time></trkpt><trkpt lat="46.2503614" lon="13.2526071"><ele>428.0</ele><time>2026-04-24T09:58:01.319Z</time></trkpt><trkpt lat="46.2502642" lon="13.2524979"><ele>428.0</ele><time>2026-04-24T09:58:02.319Z</time></trkpt><trkpt lat="46.2501595" lon="13.2523978"><ele>428.0</ele><time>2026-04-24T09:58:03.319Z</time></trkpt><trkpt lat="46.2500555" lon="13.252295"><ele>428.0</ele><time>2026-04-24T09:58:04.318Z</time></trkpt><trkpt lat="46.2499566" lon="13.252179"><ele>428.0</ele><time>2026-04-24T09:58:05.319Z</time></trkpt><trkpt lat="46.2498694" lon="13.2520567"><ele>426.25</ele><time>2026-04-24T09:58:06.318Z</time></trkpt><trkpt lat="46.2497915" lon="13.2519129"><ele>424.5</ele><time>2026-04-24T09:58:07.318Z</time></trkpt><trkpt lat="46.2497195" lon="13.2517654"><ele>422.75</ele><time>2026-04-24T09:58:08.32Z</time></trkpt><trkpt lat="46.249644" lon="13.2516176"><ele>421.0</ele><time>2026-04-24T09:58:09.32Z</time></trkpt><trkpt lat="46.2495918" lon="13.2514785"><ele>409.8</ele><time>2026-04-24T09:58:10.319Z</time></trkpt><trkpt lat="46.2495246" lon="13.2513667"><ele>398.6</ele><time>2026-04-24T09:58:11.32Z</time></trkpt><trkpt lat="46.2494512" lon="13.2512758"><ele>387.4</ele><time>2026-04-24T09:58:12.319Z</time></trkpt><trkpt lat="46.2493707" lon="13.2511835"><ele>376.2</ele><time>2026-04-24T09:58:13.319Z</time></trkpt><trkpt lat="46.249286" lon="13.2511108"><ele>365.0</ele><time>2026-04-24T09:58:14.318Z</time></trkpt><trkpt lat="46.2491947" lon="13.2510405"><ele>365.0</ele><time>2026-04-24T09:58:15.318Z</time></trkpt><trkpt lat="46.2490797" lon="13.2509989"><ele>365.0</ele><time>2026-04-24T09:58:16.319Z</time></trkpt><trkpt lat="46.2489486" lon="13.250956"><ele>365.0</ele><time>2026-04-24T09:58:17.32Z</time></trkpt><trkpt lat="46.2488127" lon="13.2509003"><ele>365.0</ele><time>2026-04-24T09:58:18.32Z</time></trkpt><trkpt lat="46.2486771" lon="13.2508307"><ele>364.0</ele><time>2026-04-24T09:58:19.32Z</time></trkpt><trkpt lat="46.2485443" lon="13.2507487"><ele>363.0</ele><time>2026-04-24T09:58:20.319Z</time></trkpt><trkpt lat="46.248422" lon="13.2506445"><ele>362.0</ele><time>2026-04-24T09:58:21.318Z</time></trkpt><trkpt lat="46.2483026" lon="13.2505245"><ele>361.0</ele><time>2026-04-24T09:58:22.32Z</time></trkpt><trkpt lat="46.2481826" lon="13.2503983"><ele>369.0</ele><time>2026-04-24T09:58:23.32Z</time></trkpt><trkpt lat="46.248069" lon="13.2502693"><ele>377.0</ele><time>2026-04-24T09:58:24.32Z</time></trkpt><trkpt lat="46.2479606" lon="13.250121"><ele>385.0</ele><time>2026-04-24T09:58:25.318Z</time></trkpt><trkpt lat="46.2478521" lon="13.2499708"><ele>393.0</ele><time>2026-04-24T09:58:26.318Z</time></trkpt><trkpt lat="46.2477495" lon="13.2497976"><ele>384.6666666666667</ele><time>2026-04-24T09:58:27.319Z</time></trkpt><trkpt lat="46.2476592" lon="13.2496224"><ele>376.33333333333337</ele><time>2026-04-24T09:58:28.32Z</time></trkpt><trkpt lat="46.2475736" lon="13.2494333"><ele>368.0</ele><time>2026-04-24T09:58:29.319Z</time></trkpt><trkpt lat="46.247507" lon="13.2492443"><ele>368.0</ele><time>2026-04-24T09:58:30.319Z</time></trkpt><trkpt lat="46.2474566" lon="13.2490686"><ele>368.0</ele><time>2026-04-24T09:58:31.319Z</time></trkpt><trkpt lat="46.2474215" lon="13.2489174"><ele>368.0</ele><time>2026-04-24T09:58:32.318Z</time></trkpt><trkpt lat="46.2473949" lon="13.2487848"><ele>368.0</ele><time>2026-04-24T09:58:33.32Z</time></trkpt><trkpt lat="46.2473654" lon="13.2486647"><ele>368.0</ele><time>2026-04-24T09:58:34.319Z</time></trkpt><trkpt lat="46.2473177" lon="13.2485553"><ele>367.79999999999995</ele><time>2026-04-24T09:58:35.319Z</time></trkpt><trkpt lat="46.2472599" lon="13.2484492"><ele>367.6</ele><time>2026-04-24T09:58:36.319Z</time></trkpt><trkpt lat="46.2471946" lon="13.2483536"><ele>367.4</ele><time>2026-04-24T09:58:37.319Z</time></trkpt><trkpt lat="46.247109" lon="13.2482639"><ele>367.20000000000005</ele><time>2026-04-24T09:58:38.319Z</time></trkpt><trkpt lat="46.2470022" lon="13.2481885"><ele>367.0</ele><time>2026-04-24T09:58:39.319Z</time></trkpt><trkpt lat="46.2468971" lon="13.2481187"><ele>367.20000000000005</ele><time>2026-04-24T09:58:40.319Z</time></trkpt><trkpt lat="46.2467805" lon="13.2480519"><ele>367.4</ele><time>2026-04-24T09:58:41.32Z</time></trkpt><trkpt lat="46.2466731" lon="13.2479759"><ele>367.6</ele><time>2026-04-24T09:58:42.319Z</time></trkpt><trkpt lat="46.2465779" lon="13.2479052"><ele>367.79999999999995</ele><time>2026-04-24T09:58:43.318Z</time></trkpt><trkpt lat="46.2465041" lon="13.247843"><ele>368.0</ele><time>2026-04-24T09:58:44.317Z</time></trkpt><trkpt lat="46.2464544" lon="13.2477118"><ele>363.5</ele><time>2026-04-24T09:58:46.318Z</time></trkpt><trkpt lat="46.2465186" lon="13.2476628"><ele>359.0</ele><time>2026-04-24T09:58:48.318Z</time></trkpt><trkpt lat="46.2465839" lon="13.2477031"><ele>354.5</ele><time>2026-04-24T09:58:49.317Z</time></trkpt><trkpt lat="46.2466643" lon="13.2477687"><ele>350.0</ele><time>2026-04-24T09:58:50.318Z</time></trkpt><trkpt lat="46.2467396" lon="13.247827"><ele>345.5</ele><time>2026-04-24T09:58:51.319Z</time></trkpt><trkpt lat="46.2468188" lon="13.2478737"><ele>341.0</ele><time>2026-04-24T09:58:52.319Z</time></trkpt><trkpt lat="46.2468802" lon="13.2479089"><ele>341.0</ele><time>2026-04-24T09:58:53.318Z</time></trkpt><trkpt lat="46.2469741" lon="13.2479557"><ele>341.0</ele><time>2026-04-24T09:58:55.317Z</time></trkpt><trkpt lat="46.2470547" lon="13.2479875"><ele>341.0</ele><time>2026-04-24T10:00:54.319Z</time></trkpt><trkpt lat="46.2470793" lon="13.2478945"><ele>341.0</ele><time>2026-04-24T10:00:57.317Z</time></trkpt><trkpt lat="46.2471693" lon="13.2478929"><ele>341.0</ele><time>2026-04-24T10:01:05.318Z</time></trkpt><trkpt lat="46.2472276" lon="13.2479629"><ele>341.0</ele><time>2026-04-24T10:01:06.318Z</time></trkpt><trkpt lat="46.2472838" lon="13.2480417"><ele>345.0</ele><time>2026-04-24T10:01:07.318Z</time></trkpt><trkpt lat="46.2473489" lon="13.248144"><ele>349.0</ele><time>2026-04-24T10:01:08.319Z</time></trkpt><trkpt lat="46.247412" lon="13.2482518"><ele>353.0</ele><time>2026-04-24T10:01:09.318Z</time></trkpt><trkpt lat="46.2474839" lon="13.2483803"><ele>357.0</ele><time>2026-04-24T10:01:10.318Z</time></trkpt><trkpt lat="46.2475578" lon="13.2485162"><ele>361.0</ele><time>2026-04-24T10:01:11.317Z</time></trkpt><trkpt lat="46.2476319" lon="13.2486593"><ele>361.0</ele><time>2026-04-24T10:01:12.318Z</time></trkpt><trkpt lat="46.2477026" lon="13.2488197"><ele>361.0</ele><time>2026-04-24T10:01:13.319Z</time></trkpt><trkpt lat="46.2477719" lon="13.2489804"><ele>361.0</ele><time>2026-04-24T10:01:14.319Z</time></trkpt><trkpt lat="46.247844" lon="13.2491436"><ele>361.0</ele><time>2026-04-24T10:01:15.318Z</time></trkpt><trkpt lat="46.2479173" lon="13.2493108"><ele>361.0</ele><time>2026-04-24T10:01:16.319Z</time></trkpt><trkpt lat="46.2480022" lon="13.249469"><ele>361.0</ele><time>2026-04-24T10:01:17.318Z</time></trkpt><trkpt lat="46.2480963" lon="13.2496151"><ele>361.0</ele><time>2026-04-24T10:01:18.319Z</time></trkpt><trkpt lat="46.2482035" lon="13.249759"><ele>361.0</ele><time>2026-04-24T10:01:19.318Z</time></trkpt><trkpt lat="46.2483187" lon="13.2498908"><ele>361.0</ele><time>2026-04-24T10:01:20.319Z</time></trkpt><trkpt lat="46.2484471" lon="13.2500118"><ele>361.0</ele><time>2026-04-24T10:01:21.318Z</time></trkpt><trkpt lat="46.2486016" lon="13.2501146"><ele>361.0</ele><time>2026-04-24T10:01:22.318Z</time></trkpt><trkpt lat="46.248767" lon="13.2502022"><ele>361.0</ele><time>2026-04-24T10:01:23.317Z</time></trkpt><trkpt lat="46.2489447" lon="13.2502876"><ele>361.0</ele><time>2026-04-24T10:01:24.318Z</time></trkpt><trkpt lat="46.249125" lon="13.2503705"><ele>361.0</ele><time>2026-04-24T10:01:25.317Z</time></trkpt><trkpt lat="46.2493021" lon="13.2504472"><ele>350.3333333333333</ele><time>2026-04-24T10:01:26.319Z</time></trkpt><trkpt lat="46.2494734" lon="13.2505166"><ele>339.6666666666667</ele><time>2026-04-24T10:01:27.318Z</time></trkpt><trkpt lat="46.249639" lon="13.2505855"><ele>329.0</ele><time>2026-04-24T10:01:28.319Z</time></trkpt><trkpt lat="46.2497953" lon="13.2506401"><ele>327.6666666666667</ele><time>2026-04-24T10:01:29.317Z</time></trkpt><trkpt lat="46.2499581" lon="13.2506791"><ele>326.3333333333333</ele><time>2026-04-24T10:01:30.318Z</time></trkpt><trkpt lat="46.250118" lon="13.2506868"><ele>325.0</ele><time>2026-04-24T10:01:31.317Z</time></trkpt><trkpt lat="46.2502669" lon="13.250684"><ele>325.0</ele><time>2026-04-24T10:01:32.317Z</time></trkpt><trkpt lat="46.2504051" lon="13.2506832"><ele>325.0</ele><time>2026-04-24T10:01:33.317Z</time></trkpt><trkpt lat="46.2505309" lon="13.2506962"><ele>325.0</ele><time>2026-04-24T10:01:34.318Z</time></trkpt><trkpt lat="46.2506482" lon="13.2507295"><ele>325.0</ele><time>2026-04-24T10:01:35.319Z</time></trkpt><trkpt lat="46.2507658" lon="13.250807"><ele>333.5</ele><time>2026-04-24T10:01:36.318Z</time></trkpt><trkpt lat="46.2508826" lon="13.2509052"><ele>342.0</ele><time>2026-04-24T10:01:37.317Z</time></trkpt><trkpt lat="46.2509927" lon="13.2510253"><ele>350.5</ele><time>2026-04-24T10:01:38.317Z</time></trkpt><trkpt lat="46.2510915" lon="13.2511692"><ele>359.0</ele><time>2026-04-24T10:01:39.317Z</time></trkpt><trkpt lat="46.2511832" lon="13.2513175"><ele>362.0</ele><time>2026-04-24T10:01:40.318Z</time></trkpt><trkpt lat="46.2512516" lon="13.2515263"><ele>365.0</ele><time>2026-04-24T10:01:41.317Z</time></trkpt><trkpt lat="46.2513194" lon="13.251755"><ele>368.0</ele><time>2026-04-24T10:01:42.318Z</time></trkpt><trkpt lat="46.2513841" lon="13.2519935"><ele>368.0</ele><time>2026-04-24T10:01:43.319Z</time></trkpt><trkpt lat="46.2514493" lon="13.252228"><ele>368.0</ele><time>2026-04-24T10:01:44.317Z</time></trkpt><trkpt lat="46.2515157" lon="13.2524705"><ele>368.0</ele><time>2026-04-24T10:01:45.319Z</time></trkpt><trkpt lat="46.2515801" lon="13.2527213"><ele>360.6666666666667</ele><time>2026-04-24T10:01:46.319Z</time></trkpt><trkpt lat="46.2516481" lon="13.2529603"><ele>353.3333333333333</ele><time>2026-04-24T10:01:47.317Z</time></trkpt><trkpt lat="46.2517114" lon="13.2531933"><ele>346.0</ele><time>2026-04-24T10:01:48.319Z</time></trkpt><trkpt lat="46.2517625" lon="13.2534233"><ele>346.0</ele><time>2026-04-24T10:01:49.318Z</time></trkpt><trkpt lat="46.2517973" lon="13.2536543"><ele>346.0</ele><time>2026-04-24T10:01:50.317Z</time></trkpt><trkpt lat="46.2518251" lon="13.2538842"><ele>346.0</ele><time>2026-04-24T10:01:51.318Z</time></trkpt><trkpt lat="46.2518703" lon="13.2541059"><ele>347.3333333333333</ele><time>2026-04-24T10:01:52.317Z</time></trkpt><trkpt lat="46.2519361" lon="13.2543217"><ele>348.6666666666667</ele><time>2026-04-24T10:01:53.318Z</time></trkpt><trkpt lat="46.2520137" lon="13.2545275"><ele>350.0</ele><time>2026-04-24T10:01:54.318Z</time></trkpt><trkpt lat="46.2520857" lon="13.2547299"><ele>354.5</ele><time>2026-04-24T10:01:55.318Z</time></trkpt><trkpt lat="46.2521493" lon="13.2549268"><ele>359.0</ele><time>2026-04-24T10:01:56.318Z</time></trkpt><trkpt lat="46.2521977" lon="13.2551229"><ele>363.5</ele><time>2026-04-24T10:01:57.319Z</time></trkpt><trkpt lat="46.2522471" lon="13.2553124"><ele>368.0</ele><time>2026-04-24T10:01:58.319Z</time></trkpt><trkpt lat="46.2523103" lon="13.2554812"><ele>368.25</ele><time>2026-04-24T10:01:59.319Z</time></trkpt><trkpt lat="46.2523926" lon="13.2555984"><ele>368.5</ele><time>2026-04-24T10:02:00.319Z</time></trkpt><trkpt lat="46.2525024" lon="13.2556958"><ele>368.75</ele><time>2026-04-24T10:02:01.317Z</time></trkpt><trkpt lat="46.2526297" lon="13.2557758"><ele>369.0</ele><time>2026-04-24T10:02:02.318Z</time></trkpt><trkpt lat="46.252779" lon="13.2558448"><ele>369.0</ele><time>2026-04-24T10:02:03.318Z</time></trkpt><trkpt lat="46.2529202" lon="13.2559158"><ele>369.0</ele><time>2026-04-24T10:02:04.318Z</time></trkpt><trkpt lat="46.253079" lon="13.2559835"><ele>369.0</ele><time>2026-04-24T10:02:05.318Z</time></trkpt><trkpt lat="46.2532413" lon="13.2560437"><ele>369.0</ele><time>2026-04-24T10:02:06.318Z</time></trkpt><trkpt lat="46.2534069" lon="13.2560975"><ele>369.0</ele><time>2026-04-24T10:02:07.317Z</time></trkpt><trkpt lat="46.253582" lon="13.2561404"><ele>369.0</ele><time>2026-04-24T10:02:08.317Z</time></trkpt><trkpt lat="46.2537669" lon="13.256176"><ele>359.0</ele><time>2026-04-24T10:02:09.318Z</time></trkpt><trkpt lat="46.2539562" lon="13.2562037"><ele>349.0</ele><time>2026-04-24T10:02:10.316Z</time></trkpt><trkpt lat="46.2541481" lon="13.2562212"><ele>339.0</ele><time>2026-04-24T10:02:11.316Z</time></trkpt><trkpt lat="46.2543284" lon="13.2562428"><ele>339.0</ele><time>2026-04-24T10:02:12.317Z</time></trkpt><trkpt lat="46.2545009" lon="13.2562668"><ele>339.0</ele><time>2026-04-24T10:02:13.317Z</time></trkpt><trkpt lat="46.2546641" lon="13.2563063"><ele>339.0</ele><time>2026-04-24T10:02:14.317Z</time></trkpt><trkpt lat="46.254826" lon="13.256378"><ele>341.3333333333333</ele><time>2026-04-24T10:02:15.317Z</time></trkpt><trkpt lat="46.2549829" lon="13.2564792"><ele>343.66666666666663</ele><time>2026-04-24T10:02:16.318Z</time></trkpt><trkpt lat="46.2551422" lon="13.256596"><ele>346.0</ele><time>2026-04-24T10:02:17.318Z</time></trkpt><trkpt lat="46.2552979" lon="13.2567014"><ele>346.0</ele><time>2026-04-24T10:02:18.318Z</time></trkpt><trkpt lat="46.2554578" lon="13.2567753"><ele>346.0</ele><time>2026-04-24T10:02:19.317Z</time></trkpt><trkpt lat="46.2556216" lon="13.2568361"><ele>346.0</ele><time>2026-04-24T10:02:20.317Z</time></trkpt><trkpt lat="46.2557834" lon="13.2568851"><ele>337.3333333333333</ele><time>2026-04-24T10:02:21.317Z</time></trkpt><trkpt lat="46.2559509" lon="13.256933"><ele>328.6666666666667</ele><time>2026-04-24T10:02:22.317Z</time></trkpt><trkpt lat="46.2561184" lon="13.2569787"><ele>320.0</ele><time>2026-04-24T10:02:23.318Z</time></trkpt><trkpt lat="46.2562911" lon="13.2570186"><ele>316.6666666666667</ele><time>2026-04-24T10:02:24.316Z</time></trkpt><trkpt lat="46.2564588" lon="13.2570562"><ele>313.3333333333333</ele><time>2026-04-24T10:02:25.317Z</time></trkpt><trkpt lat="46.2566269" lon="13.2570815"><ele>310.0</ele><time>2026-04-24T10:02:26.316Z</time></trkpt><trkpt lat="46.2567926" lon="13.2570805"><ele>310.0</ele><time>2026-04-24T10:02:27.317Z</time></trkpt><trkpt lat="46.2569566" lon="13.2570755"><ele>310.0</ele><time>2026-04-24T10:02:28.318Z</time></trkpt><trkpt lat="46.2571165" lon="13.2570689"><ele>310.0</ele><time>2026-04-24T10:02:29.318Z</time></trkpt><trkpt lat="46.2572751" lon="13.2570661"><ele>310.5</ele><time>2026-04-24T10:02:30.317Z</time></trkpt><trkpt lat="46.2574183" lon="13.2570811"><ele>311.0</ele><time>2026-04-24T10:02:31.317Z</time></trkpt><trkpt lat="46.2575553" lon="13.2571383"><ele>311.5</ele><time>2026-04-24T10:02:32.317Z</time></trkpt><trkpt lat="46.2576897" lon="13.2572153"><ele>312.0</ele><time>2026-04-24T10:02:33.316Z</time></trkpt><trkpt lat="46.2578176" lon="13.2573138"><ele>313.0</ele><time>2026-04-24T10:02:34.316Z</time></trkpt><trkpt lat="46.2579527" lon="13.2574215"><ele>314.0</ele><time>2026-04-24T10:02:35.317Z</time></trkpt><trkpt lat="46.2580984" lon="13.2575024"><ele>315.0</ele><time>2026-04-24T10:02:36.318Z</time></trkpt><trkpt lat="46.2582488" lon="13.257547"><ele>315.0</ele><time>2026-04-24T10:02:37.317Z</time></trkpt><trkpt lat="46.2584049" lon="13.2575643"><ele>315.0</ele><time>2026-04-24T10:02:38.317Z</time></trkpt><trkpt lat="46.2585695" lon="13.2575441"><ele>315.0</ele><time>2026-04-24T10:02:39.317Z</time></trkpt><trkpt lat="46.258732" lon="13.2575093"><ele>315.0</ele><time>2026-04-24T10:02:40.317Z</time></trkpt><trkpt lat="46.2588913" lon="13.2574902"><ele>315.0</ele><time>2026-04-24T10:02:41.317Z</time></trkpt><trkpt lat="46.2590635" lon="13.2574771"><ele>315.0</ele><time>2026-04-24T10:02:42.316Z</time></trkpt><trkpt lat="46.2592351" lon="13.2574085"><ele>316.6666666666667</ele><time>2026-04-24T10:02:43.317Z</time></trkpt><trkpt lat="46.2594145" lon="13.2573611"><ele>318.33333333333337</ele><time>2026-04-24T10:02:44.317Z</time></trkpt><trkpt lat="46.2595813" lon="13.2573359"><ele>320.0</ele><time>2026-04-24T10:02:45.317Z</time></trkpt><trkpt lat="46.2597564" lon="13.2573049"><ele>319.33333333333337</ele><time>2026-04-24T10:02:46.316Z</time></trkpt><trkpt lat="46.2599288" lon="13.2572663"><ele>318.6666666666667</ele><time>2026-04-24T10:02:47.318Z</time></trkpt><trkpt lat="46.2601035" lon="13.2572258"><ele>318.0</ele><time>2026-04-24T10:02:48.317Z</time></trkpt><trkpt lat="46.2602648" lon="13.2571919"><ele>318.0</ele><time>2026-04-24T10:02:49.316Z</time></trkpt><trkpt lat="46.2604172" lon="13.2571576"><ele>318.0</ele><time>2026-04-24T10:02:50.316Z</time></trkpt><trkpt lat="46.2605558" lon="13.2571278"><ele>318.0</ele><time>2026-04-24T10:02:51.317Z</time></trkpt><trkpt lat="46.2606836" lon="13.2570982"><ele>318.0</ele><time>2026-04-24T10:02:52.318Z</time></trkpt><trkpt lat="46.2608013" lon="13.2570863"><ele>317.75</ele><time>2026-04-24T10:02:53.317Z</time></trkpt><trkpt lat="46.2609138" lon="13.2570899"><ele>317.5</ele><time>2026-04-24T10:02:54.317Z</time></trkpt><trkpt lat="46.2610275" lon="13.257117"><ele>317.25</ele><time>2026-04-24T10:02:55.317Z</time></trkpt><trkpt lat="46.2611379" lon="13.2571821"><ele>317.0</ele><time>2026-04-24T10:02:56.317Z</time></trkpt><trkpt lat="46.2612434" lon="13.2572791"><ele>318.25</ele><time>2026-04-24T10:02:57.317Z</time></trkpt><trkpt lat="46.2613455" lon="13.2574064"><ele>319.5</ele><time>2026-04-24T10:02:58.317Z</time></trkpt><trkpt lat="46.2614361" lon="13.2575549"><ele>320.75</ele><time>2026-04-24T10:02:59.318Z</time></trkpt><trkpt lat="46.2615279" lon="13.257714"><ele>322.0</ele><time>2026-04-24T10:03:00.316Z</time></trkpt><trkpt lat="46.261623" lon="13.257873"><ele>322.0</ele><time>2026-04-24T10:03:01.318Z</time></trkpt><trkpt lat="46.2617174" lon="13.258036"><ele>322.0</ele><time>2026-04-24T10:03:02.316Z</time></trkpt><trkpt lat="46.2618091" lon="13.2581985"><ele>322.0</ele><time>2026-04-24T10:03:03.317Z</time></trkpt><trkpt lat="46.2618972" lon="13.2583505"><ele>322.0</ele><time>2026-04-24T10:03:04.318Z</time></trkpt><trkpt lat="46.2619869" lon="13.2584938"><ele>322.75</ele><time>2026-04-24T10:03:05.316Z</time></trkpt><trkpt lat="46.262078" lon="13.2586222"><ele>323.5</ele><time>2026-04-24T10:03:06.318Z</time></trkpt><trkpt lat="46.2621833" lon="13.2587178"><ele>324.25</ele><time>2026-04-24T10:03:07.316Z</time></trkpt><trkpt lat="46.2622956" lon="13.2587987"><ele>325.0</ele><time>2026-04-24T10:03:08.317Z</time></trkpt><trkpt lat="46.2624089" lon="13.2588577"><ele>325.0</ele><time>2026-04-24T10:03:09.317Z</time></trkpt><trkpt lat="46.2625333" lon="13.2588937"><ele>325.0</ele><time>2026-04-24T10:03:10.317Z</time></trkpt><trkpt lat="46.2626566" lon="13.2589295"><ele>325.0</ele><time>2026-04-24T10:03:11.317Z</time></trkpt><trkpt lat="46.2627858" lon="13.2589656"><ele>325.0</ele><time>2026-04-24T10:03:12.318Z</time></trkpt><trkpt lat="46.2629127" lon="13.2590041"><ele>325.4</ele><time>2026-04-24T10:03:13.318Z</time></trkpt><trkpt lat="46.26303" lon="13.2590373"><ele>325.8</ele><time>2026-04-24T10:03:14.316Z</time></trkpt><trkpt lat="46.26314" lon="13.2590836"><ele>326.20000000000005</ele><time>2026-04-24T10:03:15.317Z</time></trkpt><trkpt lat="46.2632357" lon="13.2591361"><ele>326.6</ele><time>2026-04-24T10:03:16.317Z</time></trkpt><trkpt lat="46.2633215" lon="13.2591906"><ele>327.0</ele><time>2026-04-24T10:03:17.317Z</time></trkpt><trkpt lat="46.2634058" lon="13.2592608"><ele>327.0</ele><time>2026-04-24T10:03:18.318Z</time></trkpt><trkpt lat="46.2634932" lon="13.2593361"><ele>327.0</ele><time>2026-04-24T10:03:19.317Z</time></trkpt><trkpt lat="46.2635804" lon="13.2594111"><ele>327.0</ele><time>2026-04-24T10:03:20.318Z</time></trkpt><trkpt lat="46.2636671" lon="13.2594919"><ele>327.0</ele><time>2026-04-24T10:03:21.317Z</time></trkpt><trkpt lat="46.263752" lon="13.2595724"><ele>327.0</ele><time>2026-04-24T10:03:22.317Z</time></trkpt><trkpt lat="46.2638345" lon="13.2596506"><ele>327.0</ele><time>2026-04-24T10:03:23.318Z</time></trkpt><trkpt lat="46.2639188" lon="13.2597274"><ele>327.0</ele><time>2026-04-24T10:03:24.318Z</time></trkpt><trkpt lat="46.2640014" lon="13.2597995"><ele>327.0</ele><time>2026-04-24T10:03:25.317Z</time></trkpt><trkpt lat="46.2640814" lon="13.2598657"><ele>327.0</ele><time>2026-04-24T10:03:26.317Z</time></trkpt><trkpt lat="46.2641625" lon="13.2599234"><ele>327.0</ele><time>2026-04-24T10:03:27.316Z</time></trkpt><trkpt lat="46.2642447" lon="13.2599728"><ele>327.6666666666667</ele><time>2026-04-24T10:03:28.317Z</time></trkpt><trkpt lat="46.2643306" lon="13.2600105"><ele>328.3333333333333</ele><time>2026-04-24T10:03:29.317Z</time></trkpt><trkpt lat="46.2644187" lon="13.2600342"><ele>329.0</ele><time>2026-04-24T10:03:30.318Z</time></trkpt><trkpt lat="46.2645047" lon="13.2600353"><ele>329.66666666666663</ele><time>2026-04-24T10:03:31.317Z</time></trkpt><trkpt lat="46.2645919" lon="13.2600252"><ele>330.3333333333333</ele><time>2026-04-24T10:03:32.317Z</time></trkpt><trkpt lat="46.2646764" lon="13.2600061"><ele>331.0</ele><time>2026-04-24T10:03:33.316Z</time></trkpt><trkpt lat="46.2647559" lon="13.2599782"><ele>330.16666666666663</ele><time>2026-04-24T10:03:34.317Z</time></trkpt><trkpt lat="46.2648373" lon="13.2599466"><ele>329.3333333333333</ele><time>2026-04-24T10:03:35.317Z</time></trkpt><trkpt lat="46.2649211" lon="13.2599148"><ele>328.5</ele><time>2026-04-24T10:03:36.317Z</time></trkpt><trkpt lat="46.2649987" lon="13.2598911"><ele>327.6666666666667</ele><time>2026-04-24T10:03:37.318Z</time></trkpt><trkpt lat="46.2650649" lon="13.2598825"><ele>326.83333333333337</ele><time>2026-04-24T10:03:38.317Z</time></trkpt><trkpt lat="46.2651863" lon="13.2599485"><ele>326.0</ele><time>2026-04-24T10:03:40.316Z</time></trkpt><trkpt lat="46.2652532" lon="13.2599953"><ele>326.0</ele><time>2026-04-24T10:03:41.316Z</time></trkpt><trkpt lat="46.2653265" lon="13.2600377"><ele>326.0</ele><time>2026-04-24T10:03:42.316Z</time></trkpt><trkpt lat="46.2653924" lon="13.2600788"><ele>326.0</ele><time>2026-04-24T10:03:43.317Z</time></trkpt><trkpt lat="46.2654554" lon="13.2601214"><ele>326.0</ele><time>2026-04-24T10:03:44.317Z</time></trkpt><trkpt lat="46.2655106" lon="13.2601727"><ele>326.0</ele><time>2026-04-24T10:03:45.316Z</time></trkpt><trkpt lat="46.2655606" lon="13.260236"><ele>326.0</ele><time>2026-04-24T10:03:46.317Z</time></trkpt><trkpt lat="46.2656166" lon="13.2603502"><ele>326.0</ele><time>2026-04-24T10:03:48.317Z</time></trkpt><trkpt lat="46.2656766" lon="13.2604958"><ele>326.6</ele><time>2026-04-24T10:04:35.318Z</time></trkpt><trkpt lat="46.2656973" lon="13.2606078"><ele>327.20000000000005</ele><time>2026-04-24T10:04:36.318Z</time></trkpt><trkpt lat="46.2657145" lon="13.2607153"><ele>327.79999999999995</ele><time>2026-04-24T10:04:37.316Z</time></trkpt><trkpt lat="46.265744" lon="13.2608429"><ele>328.4</ele><time>2026-04-24T10:04:38.317Z</time></trkpt><trkpt lat="46.2657804" lon="13.2609851"><ele>329.0</ele><time>2026-04-24T10:04:39.318Z</time></trkpt><trkpt lat="46.2658188" lon="13.2611192"><ele>329.1666666666667</ele><time>2026-04-24T10:04:40.317Z</time></trkpt><trkpt lat="46.2658597" lon="13.2612467"><ele>329.33333333333337</ele><time>2026-04-24T10:04:41.317Z</time></trkpt><trkpt lat="46.2659067" lon="13.2613695"><ele>329.5</ele><time>2026-04-24T10:04:42.316Z</time></trkpt><trkpt lat="46.2659515" lon="13.2614644"><ele>329.6666666666667</ele><time>2026-04-24T10:04:43.318Z</time></trkpt><trkpt lat="46.2660061" lon="13.2615177"><ele>329.8333333333333</ele><time>2026-04-24T10:04:44.316Z</time></trkpt><trkpt lat="46.2660719" lon="13.2615315"><ele>330.0</ele><time>2026-04-24T10:04:45.317Z</time></trkpt><trkpt lat="46.2661328" lon="13.2615001"><ele>330.0</ele><time>2026-04-24T10:04:46.318Z</time></trkpt><trkpt lat="46.2662121" lon="13.2613483"><ele>330.0</ele><time>2026-04-24T10:04:48.318Z</time></trkpt><trkpt lat="46.266267" lon="13.2612701"><ele>330.0</ele><time>2026-04-24T10:04:49.317Z</time></trkpt><trkpt lat="46.2663375" lon="13.2612154"><ele>330.0</ele><time>2026-04-24T10:04:50.318Z</time></trkpt><trkpt lat="46.2664266" lon="13.2611971"><ele>330.0</ele><time>2026-04-24T10:04:51.317Z</time></trkpt><trkpt lat="46.2665256" lon="13.2612108"><ele>330.75</ele><time>2026-04-24T10:04:52.317Z</time></trkpt><trkpt lat="46.2666271" lon="13.2612423"><ele>331.5</ele><time>2026-04-24T10:04:53.318Z</time></trkpt><trkpt lat="46.2667375" lon="13.2612738"><ele>332.25</ele><time>2026-04-24T10:04:54.316Z</time></trkpt><trkpt lat="46.2668559" lon="13.2613058"><ele>333.0</ele><time>2026-04-24T10:04:55.317Z</time></trkpt><trkpt lat="46.2669814" lon="13.2613437"><ele>333.0</ele><time>2026-04-24T10:04:56.317Z</time></trkpt><trkpt lat="46.2671116" lon="13.2613819"><ele>333.0</ele><time>2026-04-24T10:04:57.317Z</time></trkpt><trkpt lat="46.2672445" lon="13.2614229"><ele>333.0</ele><time>2026-04-24T10:04:58.318Z</time></trkpt><trkpt lat="46.2673696" lon="13.2614564"><ele>333.0</ele><time>2026-04-24T10:04:59.318Z</time></trkpt><trkpt lat="46.2674832" lon="13.261472"><ele>334.8333333333333</ele><time>2026-04-24T10:05:00.317Z</time></trkpt><trkpt lat="46.2675895" lon="13.2614535"><ele>336.6666666666667</ele><time>2026-04-24T10:05:01.317Z</time></trkpt><trkpt lat="46.2676687" lon="13.2614297"><ele>338.5</ele><time>2026-04-24T10:05:02.317Z</time></trkpt><trkpt lat="46.2677505" lon="13.2614831"><ele>340.33333333333337</ele><time>2026-04-24T10:05:04.318Z</time></trkpt><trkpt lat="46.2677141" lon="13.2615929"><ele>342.1666666666667</ele><time>2026-04-24T10:05:06.316Z</time></trkpt><trkpt lat="46.2676365" lon="13.2616399"><ele>344.0</ele><time>2026-04-24T10:05:07.316Z</time></trkpt><trkpt lat="46.2675291" lon="13.2616788"><ele>345.5</ele><time>2026-04-24T10:05:08.317Z</time></trkpt><trkpt lat="46.2674199" lon="13.2617105"><ele>347.0</ele><time>2026-04-24T10:05:09.315Z</time></trkpt><trkpt lat="46.2673033" lon="13.2617354"><ele>348.5</ele><time>2026-04-24T10:05:10.315Z</time></trkpt><trkpt lat="46.2671872" lon="13.261743"><ele>350.0</ele><time>2026-04-24T10:05:11.317Z</time></trkpt><trkpt lat="46.2670608" lon="13.2617348"><ele>350.0</ele><time>2026-04-24T10:05:12.316Z</time></trkpt><trkpt lat="46.2669506" lon="13.2617308"><ele>350.0</ele><time>2026-04-24T10:05:13.317Z</time></trkpt><trkpt lat="46.2668491" lon="13.2617253"><ele>350.0</ele><time>2026-04-24T10:05:14.316Z</time></trkpt><trkpt lat="46.2667651" lon="13.2617345"><ele>350.0</ele><time>2026-04-24T10:05:15.316Z</time></trkpt><trkpt lat="46.2666779" lon="13.2618246"><ele>350.0</ele><time>2026-04-24T10:05:17.316Z</time></trkpt><trkpt lat="46.2667227" lon="13.261933"><ele>350.0</ele><time>2026-04-24T10:05:19.315Z</time></trkpt><trkpt lat="46.2667936" lon="13.2619527"><ele>350.0</ele><time>2026-04-24T10:05:20.315Z</time></trkpt><trkpt lat="46.2668915" lon="13.2619611"><ele>350.0</ele><time>2026-04-24T10:05:21.316Z</time></trkpt><trkpt lat="46.267003" lon="13.2619794"><ele>350.0</ele><time>2026-04-24T10:05:22.316Z</time></trkpt><trkpt lat="46.2671124" lon="13.2620045"><ele>350.0</ele><time>2026-04-24T10:05:23.317Z</time></trkpt><trkpt lat="46.2672278" lon="13.2620374"><ele>351.4</ele><time>2026-04-24T10:05:24.316Z</time></trkpt><trkpt lat="46.2673491" lon="13.2620624"><ele>352.8</ele><time>2026-04-24T10:05:25.316Z</time></trkpt><trkpt lat="46.2674729" lon="13.2620817"><ele>354.20000000000005</ele><time>2026-04-24T10:05:26.316Z</time></trkpt><trkpt lat="46.2675832" lon="13.2621006"><ele>355.6</ele><time>2026-04-24T10:05:27.317Z</time></trkpt><trkpt lat="46.2676678" lon="13.2621206"><ele>357.0</ele><time>2026-04-24T10:05:28.316Z</time></trkpt><trkpt lat="46.2677408" lon="13.2622189"><ele>357.0</ele><time>2026-04-24T10:05:30.316Z</time></trkpt><trkpt lat="46.2676802" lon="13.2623062"><ele>357.0</ele><time>2026-04-24T10:05:32.316Z</time></trkpt><trkpt lat="46.2676133" lon="13.2623006"><ele>357.0</ele><time>2026-04-24T10:05:33.316Z</time></trkpt><trkpt lat="46.2675155" lon="13.2622893"><ele>357.0</ele><time>2026-04-24T10:05:34.316Z</time></trkpt><trkpt lat="46.2674144" lon="13.262286"><ele>357.0</ele><time>2026-04-24T10:05:35.315Z</time></trkpt><trkpt lat="46.2673252" lon="13.2622762"><ele>357.0</ele><time>2026-04-24T10:05:36.315Z</time></trkpt><trkpt lat="46.267237" lon="13.2622667"><ele>357.6666666666667</ele><time>2026-04-24T10:05:37.316Z</time></trkpt><trkpt lat="46.2671492" lon="13.2622751"><ele>358.3333333333333</ele><time>2026-04-24T10:05:38.315Z</time></trkpt><trkpt lat="46.2670763" lon="13.2623184"><ele>359.0</ele><time>2026-04-24T10:05:39.316Z</time></trkpt><trkpt lat="46.2670285" lon="13.2623941"><ele>359.66666666666663</ele><time>2026-04-24T10:05:40.316Z</time></trkpt><trkpt lat="46.2670581" lon="13.2625628"><ele>360.3333333333333</ele><time>2026-04-24T10:05:42.315Z</time></trkpt><trkpt lat="46.2671252" lon="13.26264"><ele>361.0</ele><time>2026-04-24T10:05:43.315Z</time></trkpt><trkpt lat="46.2672114" lon="13.2627065"><ele>363.8</ele><time>2026-04-24T10:05:44.315Z</time></trkpt><trkpt lat="46.267319" lon="13.2627384"><ele>366.6</ele><time>2026-04-24T10:05:45.316Z</time></trkpt><trkpt lat="46.2674231" lon="13.2627457"><ele>369.4</ele><time>2026-04-24T10:05:46.316Z</time></trkpt><trkpt lat="46.2675408" lon="13.2627631"><ele>372.2</ele><time>2026-04-24T10:05:47.316Z</time></trkpt><trkpt lat="46.2676545" lon="13.2627888"><ele>375.0</ele><time>2026-04-24T10:05:48.316Z</time></trkpt><trkpt lat="46.2677816" lon="13.2628049"><ele>375.0</ele><time>2026-04-24T10:05:49.316Z</time></trkpt><trkpt lat="46.2679186" lon="13.2628219"><ele>375.0</ele><time>2026-04-24T10:05:50.317Z</time></trkpt><trkpt lat="46.268062" lon="13.2628292"><ele>375.0</ele><time>2026-04-24T10:05:51.316Z</time></trkpt><trkpt lat="46.2682051" lon="13.2628401"><ele>375.0</ele><time>2026-04-24T10:05:52.315Z</time></trkpt><trkpt lat="46.268324" lon="13.2628544"><ele>376.1666666666667</ele><time>2026-04-24T10:05:53.316Z</time></trkpt><trkpt lat="46.2684257" lon="13.2628778"><ele>377.3333333333333</ele><time>2026-04-24T10:05:54.316Z</time></trkpt><trkpt lat="46.2685006" lon="13.2629249"><ele>378.5</ele><time>2026-04-24T10:05:55.316Z</time></trkpt><trkpt lat="46.2685484" lon="13.2629978"><ele>379.66666666666663</ele><time>2026-04-24T10:05:56.315Z</time></trkpt><trkpt lat="46.2685261" lon="13.2631282"><ele>380.8333333333333</ele><time>2026-04-24T10:05:58.315Z</time></trkpt><trkpt lat="46.2684616" lon="13.2631547"><ele>382.0</ele><time>2026-04-24T10:05:59.316Z</time></trkpt><trkpt lat="46.2683781" lon="13.263147"><ele>383.8</ele><time>2026-04-24T10:06:00.315Z</time></trkpt><trkpt lat="46.2682847" lon="13.2631477"><ele>385.6</ele><time>2026-04-24T10:06:01.315Z</time></trkpt><trkpt lat="46.2681727" lon="13.2632014"><ele>387.40000000000003</ele><time>2026-04-24T10:06:02.317Z</time></trkpt><trkpt lat="46.2680808" lon="13.2632716"><ele>389.20000000000005</ele><time>2026-04-24T10:06:03.317Z</time></trkpt><trkpt lat="46.2679838" lon="13.2633617"><ele>391.0</ele><time>2026-04-24T10:06:04.315Z</time></trkpt><trkpt lat="46.2678866" lon="13.2634696"><ele>391.0</ele><time>2026-04-24T10:06:05.316Z</time></trkpt><trkpt lat="46.2677896" lon="13.2635756"><ele>391.0</ele><time>2026-04-24T10:06:06.317Z</time></trkpt><trkpt lat="46.2676945" lon="13.2636672"><ele>391.0</ele><time>2026-04-24T10:06:07.316Z</time></trkpt><trkpt lat="46.2676016" lon="13.2637319"><ele>391.0</ele><time>2026-04-24T10:06:08.316Z</time></trkpt><trkpt lat="46.2675245" lon="13.2637983"><ele>391.0</ele><time>2026-04-24T10:06:09.316Z</time></trkpt><trkpt lat="46.2674765" lon="13.2638781"><ele>391.0</ele><time>2026-04-24T10:06:10.316Z</time></trkpt><trkpt lat="46.2675016" lon="13.2639935"><ele>391.0</ele><time>2026-04-24T10:06:12.316Z</time></trkpt><trkpt lat="46.2675864" lon="13.2640206"><ele>391.0</ele><time>2026-04-24T10:06:14.315Z</time></trkpt><trkpt lat="46.2676837" lon="13.2638983"><ele>391.0</ele><time>2026-04-24T10:06:15.317Z</time></trkpt><trkpt lat="46.2677769" lon="13.2638414"><ele>391.0</ele><time>2026-04-24T10:06:16.316Z</time></trkpt><trkpt lat="46.2678764" lon="13.2637721"><ele>391.00000000000006</ele><time>2026-04-24T10:06:17.315Z</time></trkpt><trkpt lat="46.2679625" lon="13.2637096"><ele>391.0</ele><time>2026-04-24T10:06:18.316Z</time></trkpt><trkpt lat="46.2680411" lon="13.2636796"><ele>391.0</ele><time>2026-04-24T10:06:19.316Z</time></trkpt><trkpt lat="46.2681082" lon="13.263688"><ele>391.0</ele><time>2026-04-24T10:06:20.316Z</time></trkpt><trkpt lat="46.2681518" lon="13.2638129"><ele>391.00000000000006</ele><time>2026-04-24T10:06:22.316Z</time></trkpt><trkpt lat="46.268153" lon="13.2639191"><ele>391.0</ele><time>2026-04-24T10:06:23.316Z</time></trkpt><trkpt lat="46.2681217" lon="13.2640573"><ele>392.6</ele><time>2026-04-24T10:06:24.316Z</time></trkpt><trkpt lat="46.2681051" lon="13.2642032"><ele>394.20000000000005</ele><time>2026-04-24T10:06:25.316Z</time></trkpt><trkpt lat="46.2680802" lon="13.2643682"><ele>395.79999999999995</ele><time>2026-04-24T10:06:26.316Z</time></trkpt><trkpt lat="46.2680506" lon="13.2645314"><ele>397.4</ele><time>2026-04-24T10:06:27.316Z</time></trkpt><trkpt lat="46.2680235" lon="13.2646834"><ele>399.0</ele><time>2026-04-24T10:06:28.317Z</time></trkpt><trkpt lat="46.268009" lon="13.2648298"><ele>399.79999999999995</ele><time>2026-04-24T10:06:29.316Z</time></trkpt><trkpt lat="46.2680212" lon="13.2649694"><ele>400.59999999999997</ele><time>2026-04-24T10:06:30.316Z</time></trkpt><trkpt lat="46.2680587" lon="13.2651122"><ele>401.4</ele><time>2026-04-24T10:06:31.317Z</time></trkpt><trkpt lat="46.2681259" lon="13.2652326"><ele>402.2</ele><time>2026-04-24T10:06:32.317Z</time></trkpt><trkpt lat="46.2682082" lon="13.2653493"><ele>403.0</ele><time>2026-04-24T10:06:33.317Z</time></trkpt><trkpt lat="46.2682999" lon="13.2654636"><ele>406.75</ele><time>2026-04-24T10:06:34.317Z</time></trkpt><trkpt lat="46.2683968" lon="13.2655829"><ele>410.5</ele><time>2026-04-24T10:06:35.315Z</time></trkpt><trkpt lat="46.2684981" lon="13.2657042"><ele>414.25</ele><time>2026-04-24T10:06:36.316Z</time></trkpt><trkpt lat="46.2685986" lon="13.2658283"><ele>418.0</ele><time>2026-04-24T10:06:37.316Z</time></trkpt><trkpt lat="46.2686961" lon="13.2659556"><ele>419.5</ele><time>2026-04-24T10:06:38.316Z</time></trkpt><trkpt lat="46.2687915" lon="13.2660799"><ele>421.0</ele><time>2026-04-24T10:06:39.315Z</time></trkpt><trkpt lat="46.2688929" lon="13.2661869"><ele>422.5</ele><time>2026-04-24T10:06:40.315Z</time></trkpt><trkpt lat="46.2690146" lon="13.2662667"><ele>424.0</ele><time>2026-04-24T10:06:41.317Z</time></trkpt><trkpt lat="46.2691394" lon="13.2663161"><ele>424.75</ele><time>2026-04-24T10:06:42.317Z</time></trkpt><trkpt lat="46.2692665" lon="13.2663335"><ele>425.5</ele><time>2026-04-24T10:06:43.317Z</time></trkpt><trkpt lat="46.2693997" lon="13.2663519"><ele>426.25</ele><time>2026-04-24T10:06:44.317Z</time></trkpt><trkpt lat="46.2695281" lon="13.2663816"><ele>427.0</ele><time>2026-04-24T10:06:45.316Z</time></trkpt><trkpt lat="46.2696597" lon="13.2664314"><ele>430.0</ele><time>2026-04-24T10:06:46.316Z</time></trkpt><trkpt lat="46.2697887" lon="13.2664875"><ele>433.0</ele><time>2026-04-24T10:06:47.317Z</time></trkpt><trkpt lat="46.2699232" lon="13.2665506"><ele>436.0</ele><time>2026-04-24T10:06:48.317Z</time></trkpt><trkpt lat="46.2700593" lon="13.26662"><ele>439.0</ele><time>2026-04-24T10:06:49.317Z</time></trkpt><trkpt lat="46.2701982" lon="13.2666857"><ele>439.0</ele><time>2026-04-24T10:06:50.315Z</time></trkpt><trkpt lat="46.2703393" lon="13.2667475"><ele>439.0</ele><time>2026-04-24T10:06:51.315Z</time></trkpt><trkpt lat="46.2704859" lon="13.2668061"><ele>439.0</ele><time>2026-04-24T10:06:52.316Z</time></trkpt><trkpt lat="46.270637" lon="13.2668603"><ele>439.0</ele><time>2026-04-24T10:06:53.316Z</time></trkpt><trkpt lat="46.2707852" lon="13.2669085"><ele>439.0</ele><time>2026-04-24T10:06:54.316Z</time></trkpt><trkpt lat="46.2709401" lon="13.2669506"><ele>439.0</ele><time>2026-04-24T10:06:55.316Z</time></trkpt><trkpt lat="46.2710998" lon="13.2669798"><ele>439.0</ele><time>2026-04-24T10:06:56.317Z</time></trkpt><trkpt lat="46.2712644" lon="13.2670046"><ele>439.0</ele><time>2026-04-24T10:06:57.316Z</time></trkpt><trkpt lat="46.2714268" lon="13.2670281"><ele>439.0</ele><time>2026-04-24T10:06:58.316Z</time></trkpt><trkpt lat="46.2715947" lon="13.267049"><ele>438.33333333333337</ele><time>2026-04-24T10:06:59.316Z</time></trkpt><trkpt lat="46.2717603" lon="13.2670746"><ele>437.66666666666663</ele><time>2026-04-24T10:07:00.316Z</time></trkpt><trkpt lat="46.2719228" lon="13.2671135"><ele>437.0</ele><time>2026-04-24T10:07:01.315Z</time></trkpt><trkpt lat="46.2720846" lon="13.2671699"><ele>437.0</ele><time>2026-04-24T10:07:02.315Z</time></trkpt><trkpt lat="46.2722458" lon="13.2672257"><ele>437.0</ele><time>2026-04-24T10:07:03.317Z</time></trkpt><trkpt lat="46.2724098" lon="13.2672818"><ele>437.0</ele><time>2026-04-24T10:07:04.316Z</time></trkpt><trkpt lat="46.2725709" lon="13.2673404"><ele>441.0</ele><time>2026-04-24T10:07:05.316Z</time></trkpt><trkpt lat="46.2727334" lon="13.267396"><ele>445.0</ele><time>2026-04-24T10:07:06.316Z</time></trkpt><trkpt lat="46.2728948" lon="13.2674486"><ele>449.0</ele><time>2026-04-24T10:07:07.317Z</time></trkpt><trkpt lat="46.2730545" lon="13.2674974"><ele>451.5</ele><time>2026-04-24T10:07:08.316Z</time></trkpt><trkpt lat="46.2732043" lon="13.2675519"><ele>454.0</ele><time>2026-04-24T10:07:09.316Z</time></trkpt><trkpt lat="46.2733321" lon="13.2676184"><ele>456.5</ele><time>2026-04-24T10:07:10.316Z</time></trkpt><trkpt lat="46.2734442" lon="13.2676993"><ele>459.0</ele><time>2026-04-24T10:07:11.316Z</time></trkpt><trkpt lat="46.2735459" lon="13.2678195"><ele>459.0</ele><time>2026-04-24T10:07:12.315Z</time></trkpt><trkpt lat="46.2736429" lon="13.2679503"><ele>459.0</ele><time>2026-04-24T10:07:13.315Z</time></trkpt><trkpt lat="46.273738" lon="13.2680816"><ele>459.0</ele><time>2026-04-24T10:07:14.315Z</time></trkpt><trkpt lat="46.2738326" lon="13.2682115"><ele>459.0</ele><time>2026-04-24T10:07:15.315Z</time></trkpt><trkpt lat="46.2739242" lon="13.2683357"><ele>462.25</ele><time>2026-04-24T10:07:16.315Z</time></trkpt><trkpt lat="46.2740066" lon="13.268453"><ele>465.5</ele><time>2026-04-24T10:07:17.315Z</time></trkpt><trkpt lat="46.2740899" lon="13.2685721"><ele>468.75</ele><time>2026-04-24T10:07:18.316Z</time></trkpt><trkpt lat="46.274159" lon="13.2686965"><ele>472.0</ele><time>2026-04-24T10:07:19.316Z</time></trkpt><trkpt lat="46.2742196" lon="13.2688332"><ele>473.6</ele><time>2026-04-24T10:07:20.315Z</time></trkpt><trkpt lat="46.2742806" lon="13.2689713"><ele>475.20000000000005</ele><time>2026-04-24T10:07:21.316Z</time></trkpt><trkpt lat="46.274337" lon="13.2691065"><ele>476.8</ele><time>2026-04-24T10:07:22.316Z</time></trkpt><trkpt lat="46.2743891" lon="13.269244"><ele>478.4</ele><time>2026-04-24T10:07:23.316Z</time></trkpt><trkpt lat="46.2744452" lon="13.2693759"><ele>480.0</ele><time>2026-04-24T10:07:24.316Z</time></trkpt><trkpt lat="46.2744979" lon="13.2695071"><ele>480.0</ele><time>2026-04-24T10:07:25.316Z</time></trkpt><trkpt lat="46.2745532" lon="13.2696414"><ele>480.0</ele><time>2026-04-24T10:07:26.316Z</time></trkpt><trkpt lat="46.2746148" lon="13.269776"><ele>480.0</ele><time>2026-04-24T10:07:27.317Z</time></trkpt><trkpt lat="46.2746779" lon="13.2699027"><ele>480.0</ele><time>2026-04-24T10:07:28.316Z</time></trkpt><trkpt lat="46.274753" lon="13.2700058"><ele>480.0</ele><time>2026-04-24T10:07:29.316Z</time></trkpt><trkpt lat="46.2748236" lon="13.2701002"><ele>480.4</ele><time>2026-04-24T10:07:30.316Z</time></trkpt><trkpt lat="46.2749027" lon="13.2701812"><ele>480.8</ele><time>2026-04-24T10:07:31.315Z</time></trkpt><trkpt lat="46.2749855" lon="13.2702633"><ele>481.20000000000005</ele><time>2026-04-24T10:07:32.317Z</time></trkpt><trkpt lat="46.2750632" lon="13.2703451"><ele>481.6</ele><time>2026-04-24T10:07:33.317Z</time></trkpt><trkpt lat="46.2751514" lon="13.2704296"><ele>482.0</ele><time>2026-04-24T10:07:34.317Z</time></trkpt><trkpt lat="46.2752364" lon="13.2705159"><ele>482.0</ele><time>2026-04-24T10:07:35.317Z</time></trkpt><trkpt lat="46.2753259" lon="13.2706052"><ele>482.00000000000006</ele><time>2026-04-24T10:07:36.315Z</time></trkpt><trkpt lat="46.2754123" lon="13.2706947"><ele>482.00000000000006</ele><time>2026-04-24T10:07:37.316Z</time></trkpt><trkpt lat="46.2754998" lon="13.2707858"><ele>482.0</ele><time>2026-04-24T10:07:38.316Z</time></trkpt><trkpt lat="46.2755892" lon="13.2708777"><ele>482.0</ele><time>2026-04-24T10:07:39.316Z</time></trkpt><trkpt lat="46.2756841" lon="13.2709735"><ele>482.5</ele><time>2026-04-24T10:07:40.316Z</time></trkpt><trkpt lat="46.2757765" lon="13.2710692"><ele>483.0</ele><time>2026-04-24T10:07:41.316Z</time></trkpt><trkpt lat="46.2758712" lon="13.2711658"><ele>483.5</ele><time>2026-04-24T10:07:42.315Z</time></trkpt><trkpt lat="46.2759718" lon="13.2712586"><ele>484.0</ele><time>2026-04-24T10:07:43.315Z</time></trkpt><trkpt lat="46.2760793" lon="13.2713504"><ele>484.0</ele><time>2026-04-24T10:07:44.314Z</time></trkpt><trkpt lat="46.2761921" lon="13.2714299"><ele>484.0</ele><time>2026-04-24T10:07:45.314Z</time></trkpt><trkpt lat="46.276317" lon="13.2714912"><ele>484.0</ele><time>2026-04-24T10:07:46.315Z</time></trkpt><trkpt lat="46.2764496" lon="13.2715434"><ele>484.0</ele><time>2026-04-24T10:07:47.315Z</time></trkpt><trkpt lat="46.2765863" lon="13.2715872"><ele>482.25</ele><time>2026-04-24T10:07:48.315Z</time></trkpt><trkpt lat="46.2767251" lon="13.2716273"><ele>480.5</ele><time>2026-04-24T10:07:49.315Z</time></trkpt><trkpt lat="46.2768669" lon="13.2716654"><ele>478.75</ele><time>2026-04-24T10:07:50.314Z</time></trkpt><trkpt lat="46.2770001" lon="13.2717007"><ele>477.0</ele><time>2026-04-24T10:07:51.315Z</time></trkpt><trkpt lat="46.2771228" lon="13.2717458"><ele>477.0</ele><time>2026-04-24T10:07:52.315Z</time></trkpt><trkpt lat="46.2772278" lon="13.2718065"><ele>477.00000000000006</ele><time>2026-04-24T10:07:53.315Z</time></trkpt><trkpt lat="46.277309" lon="13.2718944"><ele>477.00000000000006</ele><time>2026-04-24T10:07:54.315Z</time></trkpt><trkpt lat="46.277371" lon="13.271984"><ele>477.0</ele><time>2026-04-24T10:07:55.315Z</time></trkpt><trkpt lat="46.2774285" lon="13.2720642"><ele>477.0</ele><time>2026-04-24T10:07:56.315Z</time></trkpt><trkpt lat="46.2774834" lon="13.2721365"><ele>477.20000000000005</ele><time>2026-04-24T10:07:57.316Z</time></trkpt><trkpt lat="46.2775362" lon="13.2722314"><ele>477.40000000000003</ele><time>2026-04-24T10:07:58.316Z</time></trkpt><trkpt lat="46.2775894" lon="13.2723601"><ele>477.59999999999997</ele><time>2026-04-24T10:07:59.315Z</time></trkpt><trkpt lat="46.2776536" lon="13.2725079"><ele>477.79999999999995</ele><time>2026-04-24T10:08:00.314Z</time></trkpt><trkpt lat="46.2777333" lon="13.2726559"><ele>478.0</ele><time>2026-04-24T10:08:01.315Z</time></trkpt><trkpt lat="46.2778235" lon="13.2727929"><ele>478.0</ele><time>2026-04-24T10:08:02.315Z</time></trkpt><trkpt lat="46.2779219" lon="13.2729297"><ele>478.0</ele><time>2026-04-24T10:08:03.314Z</time></trkpt><trkpt lat="46.2780084" lon="13.2730877"><ele>478.0</ele><time>2026-04-24T10:08:04.315Z</time></trkpt><trkpt lat="46.2780683" lon="13.2732745"><ele>478.0</ele><time>2026-04-24T10:08:05.314Z</time></trkpt><trkpt lat="46.2781349" lon="13.2734577"><ele>479.75</ele><time>2026-04-24T10:08:06.315Z</time></trkpt><trkpt lat="46.2781981" lon="13.2736489"><ele>481.5</ele><time>2026-04-24T10:08:07.315Z</time></trkpt><trkpt lat="46.2782629" lon="13.2738306"><ele>483.25</ele><time>2026-04-24T10:08:08.315Z</time></trkpt><trkpt lat="46.2783294" lon="13.2740023"><ele>485.0</ele><time>2026-04-24T10:08:09.314Z</time></trkpt><trkpt lat="46.2783907" lon="13.2741675"><ele>485.0</ele><time>2026-04-24T10:08:10.316Z</time></trkpt><trkpt lat="46.278476" lon="13.2743298"><ele>485.0</ele><time>2026-04-24T10:08:11.314Z</time></trkpt><trkpt lat="46.2785649" lon="13.2744887"><ele>485.0</ele><time>2026-04-24T10:08:12.314Z</time></trkpt><trkpt lat="46.2786945" lon="13.2745776"><ele>485.0</ele><time>2026-04-24T10:08:13.315Z</time></trkpt><trkpt lat="46.2787997" lon="13.2747082"><ele>488.0</ele><time>2026-04-24T10:08:14.315Z</time></trkpt><trkpt lat="46.2788853" lon="13.2748468"><ele>491.0</ele><time>2026-04-24T10:08:15.315Z</time></trkpt><trkpt lat="46.2789625" lon="13.2750072"><ele>494.0</ele><time>2026-04-24T10:08:16.315Z</time></trkpt><trkpt lat="46.2790518" lon="13.2751439"><ele>497.0</ele><time>2026-04-24T10:08:17.316Z</time></trkpt><trkpt lat="46.279152" lon="13.2752486"><ele>497.0</ele><time>2026-04-24T10:08:18.315Z</time></trkpt><trkpt lat="46.2792588" lon="13.275311"><ele>497.0</ele><time>2026-04-24T10:08:19.315Z</time></trkpt><trkpt lat="46.2793935" lon="13.2753451"><ele>497.0</ele><time>2026-04-24T10:08:20.314Z</time></trkpt><trkpt lat="46.2795305" lon="13.275378"><ele>497.0</ele><time>2026-04-24T10:08:21.315Z</time></trkpt><trkpt lat="46.2796621" lon="13.2753984"><ele>496.5</ele><time>2026-04-24T10:08:22.316Z</time></trkpt><trkpt lat="46.2797894" lon="13.2754191"><ele>496.0</ele><time>2026-04-24T10:08:23.315Z</time></trkpt><trkpt lat="46.2798995" lon="13.2754575"><ele>495.5</ele><time>2026-04-24T10:08:24.315Z</time></trkpt><trkpt lat="46.279999" lon="13.2755279"><ele>495.0</ele><time>2026-04-24T10:08:25.315Z</time></trkpt><trkpt lat="46.2800799" lon="13.2756369"><ele>495.0</ele><time>2026-04-24T10:08:26.316Z</time></trkpt><trkpt lat="46.2801576" lon="13.2757499"><ele>495.0</ele><time>2026-04-24T10:08:27.315Z</time></trkpt><trkpt lat="46.2802208" lon="13.2758736"><ele>495.0</ele><time>2026-04-24T10:08:28.314Z</time></trkpt><trkpt lat="46.280257" lon="13.2760302"><ele>495.0</ele><time>2026-04-24T10:08:29.315Z</time></trkpt><trkpt lat="46.2802613" lon="13.2761911"><ele>495.0</ele><time>2026-04-24T10:08:30.316Z</time></trkpt><trkpt lat="46.2802385" lon="13.2763524"><ele>495.75</ele><time>2026-04-24T10:08:31.316Z</time></trkpt><trkpt lat="46.2802118" lon="13.2765251"><ele>496.5</ele><time>2026-04-24T10:08:32.315Z</time></trkpt><trkpt lat="46.2801922" lon="13.276711"><ele>497.25</ele><time>2026-04-24T10:08:33.314Z</time></trkpt><trkpt lat="46.2801882" lon="13.2769081"><ele>498.0</ele><time>2026-04-24T10:08:34.315Z</time></trkpt><trkpt lat="46.2801919" lon="13.2771056"><ele>500.75</ele><time>2026-04-24T10:08:35.315Z</time></trkpt><trkpt lat="46.2801883" lon="13.2772909"><ele>503.5</ele><time>2026-04-24T10:08:36.316Z</time></trkpt><trkpt lat="46.28018" lon="13.2774675"><ele>506.25</ele><time>2026-04-24T10:08:37.314Z</time></trkpt><trkpt lat="46.280186" lon="13.2776353"><ele>509.0</ele><time>2026-04-24T10:08:38.315Z</time></trkpt><trkpt lat="46.2802119" lon="13.2777907"><ele>509.0</ele><time>2026-04-24T10:08:39.314Z</time></trkpt><trkpt lat="46.2802331" lon="13.277963"><ele>509.0</ele><time>2026-04-24T10:08:40.314Z</time></trkpt><trkpt lat="46.2803248" lon="13.2780817"><ele>509.0</ele><time>2026-04-24T10:08:41.315Z</time></trkpt><trkpt lat="46.280356" lon="13.2782229"><ele>509.0</ele><time>2026-04-24T10:08:42.315Z</time></trkpt><trkpt lat="46.2803601" lon="13.2783568"><ele>509.0</ele><time>2026-04-24T10:08:43.316Z</time></trkpt><trkpt lat="46.2803221" lon="13.2784597"><ele>510.8333333333333</ele><time>2026-04-24T10:08:44.315Z</time></trkpt><trkpt lat="46.2802974" lon="13.278563"><ele>512.6666666666666</ele><time>2026-04-24T10:08:45.314Z</time></trkpt><trkpt lat="46.2802444" lon="13.2786507"><ele>514.5</ele><time>2026-04-24T10:08:46.315Z</time></trkpt><trkpt lat="46.2801269" lon="13.2785856"><ele>516.3333333333334</ele><time>2026-04-24T10:08:47.315Z</time></trkpt><trkpt lat="46.2800552" lon="13.2785436"><ele>518.1666666666667</ele><time>2026-04-24T10:08:48.315Z</time></trkpt><trkpt lat="46.2799777" lon="13.2784858"><ele>520.0</ele><time>2026-04-24T10:08:49.316Z</time></trkpt><trkpt lat="46.2799037" lon="13.2784877"><ele>520.0</ele><time>2026-04-24T10:08:50.315Z</time></trkpt><trkpt lat="46.2798191" lon="13.2785172"><ele>520.0</ele><time>2026-04-24T10:08:51.315Z</time></trkpt><trkpt lat="46.2797399" lon="13.2785521"><ele>520.0</ele><time>2026-04-24T10:08:52.314Z</time></trkpt><trkpt lat="46.2796471" lon="13.2785999"><ele>520.0</ele><time>2026-04-24T10:08:53.315Z</time></trkpt><trkpt lat="46.2795598" lon="13.278635"><ele>520.0</ele><time>2026-04-24T10:08:54.314Z</time></trkpt><trkpt lat="46.2794696" lon="13.2786507"><ele>518.4</ele><time>2026-04-24T10:08:55.315Z</time></trkpt><trkpt lat="46.279372" lon="13.2786399"><ele>516.8</ele><time>2026-04-24T10:08:56.315Z</time></trkpt><trkpt lat="46.2792706" lon="13.2786228"><ele>515.2</ele><time>2026-04-24T10:08:57.314Z</time></trkpt><trkpt lat="46.2791686" lon="13.2786078"><ele>513.6</ele><time>2026-04-24T10:08:58.315Z</time></trkpt><trkpt lat="46.2790656" lon="13.2785952"><ele>512.0</ele><time>2026-04-24T10:08:59.314Z</time></trkpt><trkpt lat="46.278953" lon="13.2785829"><ele>513.0</ele><time>2026-04-24T10:09:00.315Z</time></trkpt><trkpt lat="46.2788417" lon="13.2785761"><ele>514.0</ele><time>2026-04-24T10:09:01.316Z</time></trkpt><trkpt lat="46.2787344" lon="13.2785815"><ele>515.0</ele><time>2026-04-24T10:09:02.315Z</time></trkpt><trkpt lat="46.2786353" lon="13.278594"><ele>516.0</ele><time>2026-04-24T10:09:03.316Z</time></trkpt><trkpt lat="46.2785414" lon="13.2786"><ele>517.0</ele><time>2026-04-24T10:09:04.314Z</time></trkpt><trkpt lat="46.278468" lon="13.2785898"><ele>517.0</ele><time>2026-04-24T10:09:05.315Z</time></trkpt><trkpt lat="46.2783851" lon="13.2785642"><ele>517.0</ele><time>2026-04-24T10:09:07.315Z</time></trkpt><trkpt lat="46.2782803" lon="13.2785234"><ele>517.0</ele><time>2026-04-24T10:09:10.315Z</time></trkpt><trkpt lat="46.2782128" lon="13.2785003"><ele>517.0</ele><time>2026-04-24T10:09:11.316Z</time></trkpt><trkpt lat="46.2781419" lon="13.2785022"><ele>517.0</ele><time>2026-04-24T10:09:12.315Z</time></trkpt><trkpt lat="46.2780743" lon="13.2785502"><ele>517.0</ele><time>2026-04-24T10:09:13.315Z</time></trkpt><trkpt lat="46.2780217" lon="13.2786281"><ele>516.8333333333334</ele><time>2026-04-24T10:09:14.315Z</time></trkpt><trkpt lat="46.2779803" lon="13.2787356"><ele>516.6666666666667</ele><time>2026-04-24T10:09:15.314Z</time></trkpt><trkpt lat="46.2779387" lon="13.2788534"><ele>516.5</ele><time>2026-04-24T10:09:16.314Z</time></trkpt><trkpt lat="46.2779135" lon="13.2789701"><ele>516.3333333333334</ele><time>2026-04-24T10:09:17.315Z</time></trkpt><trkpt lat="46.2779086" lon="13.2790716"><ele>516.1666666666666</ele><time>2026-04-24T10:09:18.314Z</time></trkpt><trkpt lat="46.2779211" lon="13.2791631"><ele>516.0</ele><time>2026-04-24T10:09:19.315Z</time></trkpt><trkpt lat="46.2779627" lon="13.279246"><ele>516.0</ele><time>2026-04-24T10:09:20.314Z</time></trkpt><trkpt lat="46.2780417" lon="13.2793233"><ele>516.0</ele><time>2026-04-24T10:09:21.314Z</time></trkpt><trkpt lat="46.2781224" lon="13.2793934"><ele>516.0</ele><time>2026-04-24T10:09:22.314Z</time></trkpt><trkpt lat="46.2782008" lon="13.2794653"><ele>516.0</ele><time>2026-04-24T10:09:23.315Z</time></trkpt><trkpt lat="46.2782766" lon="13.2795471"><ele>516.0</ele><time>2026-04-24T10:09:24.315Z</time></trkpt><trkpt lat="46.2783264" lon="13.2796463"><ele>517.1666666666666</ele><time>2026-04-24T10:09:25.315Z</time></trkpt><trkpt lat="46.2783441" lon="13.2797461"><ele>518.3333333333334</ele><time>2026-04-24T10:09:26.315Z</time></trkpt><trkpt lat="46.2783224" lon="13.2798377"><ele>519.5</ele><time>2026-04-24T10:09:27.315Z</time></trkpt><trkpt lat="46.2782892" lon="13.2799287"><ele>520.6666666666667</ele><time>2026-04-24T10:09:28.314Z</time></trkpt><trkpt lat="46.2781747" lon="13.2799534"><ele>521.8333333333334</ele><time>2026-04-24T10:09:29.315Z</time></trkpt><trkpt lat="46.2780662" lon="13.2799909"><ele>523.0</ele><time>2026-04-24T10:09:30.315Z</time></trkpt><trkpt lat="46.2779596" lon="13.2800406"><ele>523.0</ele><time>2026-04-24T10:09:31.316Z</time></trkpt><trkpt lat="46.2778451" lon="13.2800804"><ele>523.0</ele><time>2026-04-24T10:09:32.315Z</time></trkpt><trkpt lat="46.2777423" lon="13.2801278"><ele>523.0</ele><time>2026-04-24T10:09:33.316Z</time></trkpt><trkpt lat="46.2776569" lon="13.280209"><ele>523.0</ele><time>2026-04-24T10:09:34.315Z</time></trkpt><trkpt lat="46.2775997" lon="13.2803044"><ele>523.0</ele><time>2026-04-24T10:09:35.314Z</time></trkpt><trkpt lat="46.2775698" lon="13.2804204"><ele>523.0</ele><time>2026-04-24T10:09:36.314Z</time></trkpt><trkpt lat="46.2775714" lon="13.2805772"><ele>523.0</ele><time>2026-04-24T10:09:37.315Z</time></trkpt><trkpt lat="46.2775678" lon="13.2807357"><ele>523.0</ele><time>2026-04-24T10:09:38.315Z</time></trkpt><trkpt lat="46.2775577" lon="13.2809162"><ele>523.0</ele><time>2026-04-24T10:09:39.316Z</time></trkpt><trkpt lat="46.2775491" lon="13.2810924"><ele>526.1999999999999</ele><time>2026-04-24T10:09:40.314Z</time></trkpt><trkpt lat="46.2775675" lon="13.2812672"><ele>529.4</ele><time>2026-04-24T10:09:41.315Z</time></trkpt><trkpt lat="46.2775842" lon="13.2814382"><ele>532.5999999999999</ele><time>2026-04-24T10:09:42.315Z</time></trkpt><trkpt lat="46.2775729" lon="13.2815798"><ele>535.8</ele><time>2026-04-24T10:09:43.315Z</time></trkpt><trkpt lat="46.2775467" lon="13.2816892"><ele>539.0</ele><time>2026-04-24T10:09:44.315Z</time></trkpt><trkpt lat="46.2774492" lon="13.2817791"><ele>537.0</ele><time>2026-04-24T10:09:46.315Z</time></trkpt><trkpt lat="46.2773365" lon="13.2817147"><ele>535.0</ele><time>2026-04-24T10:09:48.315Z</time></trkpt><trkpt lat="46.2772738" lon="13.2816588"><ele>533.0</ele><time>2026-04-24T10:09:49.315Z</time></trkpt><trkpt lat="46.277202" lon="13.281643"><ele>531.0</ele><time>2026-04-24T10:09:50.315Z</time></trkpt><trkpt lat="46.2771226" lon="13.2816648"><ele>529.0</ele><time>2026-04-24T10:09:51.316Z</time></trkpt><trkpt lat="46.2770419" lon="13.2817087"><ele>527.0</ele><time>2026-04-24T10:09:52.315Z</time></trkpt><trkpt lat="46.2769692" lon="13.2817744"><ele>527.0</ele><time>2026-04-24T10:09:53.315Z</time></trkpt><trkpt lat="46.2769124" lon="13.281869"><ele>527.0</ele><time>2026-04-24T10:09:54.316Z</time></trkpt><trkpt lat="46.2768735" lon="13.2819516"><ele>527.0</ele><time>2026-04-24T10:09:55.314Z</time></trkpt><trkpt lat="46.2768632" lon="13.2821745"><ele>527.0</ele><time>2026-04-24T10:09:57.314Z</time></trkpt><trkpt lat="46.2768538" lon="13.2823229"><ele>527.0</ele><time>2026-04-24T10:09:58.315Z</time></trkpt><trkpt lat="46.2768315" lon="13.2824743"><ele>531.25</ele><time>2026-04-24T10:09:59.314Z</time></trkpt><trkpt lat="46.2767993" lon="13.2826435"><ele>535.5</ele><time>2026-04-24T10:10:00.316Z</time></trkpt><trkpt lat="46.2767677" lon="13.2828225"><ele>539.75</ele><time>2026-04-24T10:10:01.316Z</time></trkpt><trkpt lat="46.2767341" lon="13.2829994"><ele>544.0</ele><time>2026-04-24T10:10:02.315Z</time></trkpt><trkpt lat="46.2766943" lon="13.283175"><ele>547.0</ele><time>2026-04-24T10:10:03.316Z</time></trkpt><trkpt lat="46.2766467" lon="13.2833485"><ele>550.0</ele><time>2026-04-24T10:10:04.315Z</time></trkpt><trkpt lat="46.2766052" lon="13.2835101"><ele>553.0</ele><time>2026-04-24T10:10:05.315Z</time></trkpt><trkpt lat="46.276578" lon="13.283646"><ele>556.0</ele><time>2026-04-24T10:10:06.315Z</time></trkpt><trkpt lat="46.2765453" lon="13.2837421"><ele>559.0</ele><time>2026-04-24T10:10:07.316Z</time></trkpt><trkpt lat="46.2765005" lon="13.2838162"><ele>559.5</ele><time>2026-04-24T10:10:08.315Z</time></trkpt><trkpt lat="46.2763643" lon="13.2837396"><ele>560.0</ele><time>2026-04-24T10:10:10.314Z</time></trkpt><trkpt lat="46.276285" lon="13.283633"><ele>560.5</ele><time>2026-04-24T10:10:11.315Z</time></trkpt><trkpt lat="46.2761949" lon="13.2835196"><ele>561.0</ele><time>2026-04-24T10:10:12.315Z</time></trkpt><trkpt lat="46.2761136" lon="13.2834112"><ele>561.0</ele><time>2026-04-24T10:10:13.315Z</time></trkpt><trkpt lat="46.2760448" lon="13.2833135"><ele>561.0</ele><time>2026-04-24T10:10:14.315Z</time></trkpt><trkpt lat="46.2759867" lon="13.2832373"><ele>561.0</ele><time>2026-04-24T10:10:15.314Z</time></trkpt><trkpt lat="46.2759001" lon="13.2832826"><ele>561.0</ele><time>2026-04-24T10:10:16.314Z</time></trkpt><trkpt lat="46.275835" lon="13.2833369"><ele>561.0</ele><time>2026-04-24T10:10:17.313Z</time></trkpt><trkpt lat="46.2757434" lon="13.2834599"><ele>561.0</ele><time>2026-04-24T10:10:18.315Z</time></trkpt><trkpt lat="46.2756582" lon="13.2835495"><ele>561.0</ele><time>2026-04-24T10:10:19.313Z</time></trkpt><trkpt lat="46.2755682" lon="13.2837161"><ele>561.0</ele><time>2026-04-24T10:10:20.314Z</time></trkpt><trkpt lat="46.2754874" lon="13.2838359"><ele>561.0</ele><time>2026-04-24T10:10:21.315Z</time></trkpt><trkpt lat="46.2754131" lon="13.2839305"><ele>562.8</ele><time>2026-04-24T10:10:22.313Z</time></trkpt><trkpt lat="46.275348" lon="13.2840253"><ele>564.6</ele><time>2026-04-24T10:10:23.314Z</time></trkpt><trkpt lat="46.2752911" lon="13.2840989"><ele>566.4</ele><time>2026-04-24T10:10:24.313Z</time></trkpt><trkpt lat="46.2751928" lon="13.2839757"><ele>568.2</ele><time>2026-04-24T10:10:25.314Z</time></trkpt><trkpt lat="46.2750949" lon="13.283915"><ele>570.0</ele><time>2026-04-24T10:10:26.314Z</time></trkpt><trkpt lat="46.2750321" lon="13.2837543"><ele>570.0</ele><time>2026-04-24T10:10:27.314Z</time></trkpt><trkpt lat="46.2749487" lon="13.283633"><ele>570.0</ele><time>2026-04-24T10:10:28.314Z</time></trkpt><trkpt lat="46.2748579" lon="13.2835478"><ele>570.0</ele><time>2026-04-24T10:10:29.313Z</time></trkpt><trkpt lat="46.2747424" lon="13.2835036"><ele>570.0</ele><time>2026-04-24T10:10:30.314Z</time></trkpt><trkpt lat="46.2746199" lon="13.2834774"><ele>570.5</ele><time>2026-04-24T10:10:31.314Z</time></trkpt><trkpt lat="46.2744996" lon="13.2834473"><ele>571.0</ele><time>2026-04-24T10:10:32.313Z</time></trkpt><trkpt lat="46.2743809" lon="13.2834167"><ele>571.5</ele><time>2026-04-24T10:10:33.313Z</time></trkpt><trkpt lat="46.2742668" lon="13.2833696"><ele>572.0</ele><time>2026-04-24T10:10:34.315Z</time></trkpt><trkpt lat="46.2741623" lon="13.2833369"><ele>572.0</ele><time>2026-04-24T10:10:35.314Z</time></trkpt><trkpt lat="46.2740751" lon="13.2833562"><ele>572.0</ele><time>2026-04-24T10:10:36.313Z</time></trkpt><trkpt lat="46.2739994" lon="13.2834062"><ele>572.0</ele><time>2026-04-24T10:10:37.313Z</time></trkpt><trkpt lat="46.2739495" lon="13.2835001"><ele>572.0</ele><time>2026-04-24T10:10:38.313Z</time></trkpt><trkpt lat="46.2739053" lon="13.2835777"><ele>572.0</ele><time>2026-04-24T10:10:39.315Z</time></trkpt><trkpt lat="46.2738937" lon="13.2837083"><ele>572.0</ele><time>2026-04-24T10:10:40.313Z</time></trkpt><trkpt lat="46.2739035" lon="13.2838536"><ele>572.3333333333333</ele><time>2026-04-24T10:10:41.315Z</time></trkpt><trkpt lat="46.2739451" lon="13.2840783"><ele>572.6666666666666</ele><time>2026-04-24T10:10:42.314Z</time></trkpt><trkpt lat="46.2740198" lon="13.284284"><ele>573.0</ele><time>2026-04-24T10:10:43.313Z</time></trkpt><trkpt lat="46.2740973" lon="13.284457"><ele>573.0</ele><time>2026-04-24T10:10:44.313Z</time></trkpt><trkpt lat="46.2741523" lon="13.2846614"><ele>573.0</ele><time>2026-04-24T10:10:45.314Z</time></trkpt><trkpt lat="46.2742292" lon="13.2848172"><ele>573.0</ele><time>2026-04-24T10:10:46.314Z</time></trkpt><trkpt lat="46.2742844" lon="13.2849557"><ele>573.0</ele><time>2026-04-24T10:10:47.315Z</time></trkpt><trkpt lat="46.2743415" lon="13.2850977"><ele>572.25</ele><time>2026-04-24T10:10:48.313Z</time></trkpt><trkpt lat="46.2743867" lon="13.2852279"><ele>571.5</ele><time>2026-04-24T10:10:49.313Z</time></trkpt><trkpt lat="46.274454" lon="13.2853327"><ele>570.75</ele><time>2026-04-24T10:10:50.315Z</time></trkpt><trkpt lat="46.2745989" lon="13.2853145"><ele>570.0</ele><time>2026-04-24T10:10:51.314Z</time></trkpt><trkpt lat="46.2747021" lon="13.285377"><ele>574.6</ele><time>2026-04-24T10:10:52.314Z</time></trkpt><trkpt lat="46.2747978" lon="13.285452"><ele>579.2</ele><time>2026-04-24T10:10:53.314Z</time></trkpt><trkpt lat="46.2748761" lon="13.2855515"><ele>583.8</ele><time>2026-04-24T10:10:54.315Z</time></trkpt><trkpt lat="46.2749491" lon="13.2856655"><ele>588.4</ele><time>2026-04-24T10:10:55.313Z</time></trkpt><trkpt lat="46.2749927" lon="13.2858212"><ele>593.0</ele><time>2026-04-24T10:10:56.313Z</time></trkpt><trkpt lat="46.2750278" lon="13.2859841"><ele>593.0</ele><time>2026-04-24T10:10:57.314Z</time></trkpt><trkpt lat="46.2751084" lon="13.286124"><ele>593.0</ele><time>2026-04-24T10:10:58.314Z</time></trkpt><trkpt lat="46.2751888" lon="13.2862511"><ele>593.0</ele><time>2026-04-24T10:10:59.314Z</time></trkpt><trkpt lat="46.2752533" lon="13.2864128"><ele>593.0</ele><time>2026-04-24T10:11:00.313Z</time></trkpt><trkpt lat="46.2753246" lon="13.2865472"><ele>591.25</ele><time>2026-04-24T10:11:01.314Z</time></trkpt><trkpt lat="46.2753984" lon="13.2866751"><ele>589.5</ele><time>2026-04-24T10:11:02.315Z</time></trkpt><trkpt lat="46.2755216" lon="13.2867768"><ele>587.75</ele><time>2026-04-24T10:11:03.313Z</time></trkpt><trkpt lat="46.2756013" lon="13.2869134"><ele>586.0</ele><time>2026-04-24T10:11:04.315Z</time></trkpt><trkpt lat="46.27565" lon="13.2870794"><ele>586.6</ele><time>2026-04-24T10:11:05.315Z</time></trkpt><trkpt lat="46.2756871" lon="13.2872245"><ele>587.2</ele><time>2026-04-24T10:11:06.315Z</time></trkpt><trkpt lat="46.2756923" lon="13.287404"><ele>587.8</ele><time>2026-04-24T10:11:07.313Z</time></trkpt><trkpt lat="46.2756767" lon="13.2875599"><ele>588.4</ele><time>2026-04-24T10:11:08.314Z</time></trkpt><trkpt lat="46.2756344" lon="13.2876743"><ele>589.0</ele><time>2026-04-24T10:11:09.313Z</time></trkpt><trkpt lat="46.2755704" lon="13.287758"><ele>589.0</ele><time>2026-04-24T10:11:10.314Z</time></trkpt><trkpt lat="46.2755113" lon="13.2878201"><ele>589.0</ele><time>2026-04-24T10:11:11.315Z</time></trkpt><trkpt lat="46.2754536" lon="13.2878983"><ele>589.0</ele><time>2026-04-24T10:11:12.314Z</time></trkpt><trkpt lat="46.2753553" lon="13.2879299"><ele>589.0</ele><time>2026-04-24T10:11:13.313Z</time></trkpt><trkpt lat="46.2752812" lon="13.2879522"><ele>589.0</ele><time>2026-04-24T10:11:14.315Z</time></trkpt><trkpt lat="46.275231" lon="13.2881054"><ele>589.0</ele><time>2026-04-24T10:11:16.313Z</time></trkpt><trkpt lat="46.2752435" lon="13.2882549"><ele>590.0</ele><time>2026-04-24T10:11:18.315Z</time></trkpt><trkpt lat="46.2753828" lon="13.288379"><ele>591.0</ele><time>2026-04-24T10:11:19.314Z</time></trkpt><trkpt lat="46.2754387" lon="13.2884916"><ele>592.0</ele><time>2026-04-24T10:11:20.314Z</time></trkpt><trkpt lat="46.2754912" lon="13.2885983"><ele>593.0</ele><time>2026-04-24T10:11:21.314Z</time></trkpt><trkpt lat="46.2755188" lon="13.2887108"><ele>594.0</ele><time>2026-04-24T10:11:22.315Z</time></trkpt><trkpt lat="46.2753899" lon="13.2888762"><ele>596.0</ele><time>2026-04-24T10:11:23.313Z</time></trkpt><trkpt lat="46.2753644" lon="13.2890143"><ele>598.0</ele><time>2026-04-24T10:11:24.315Z</time></trkpt><trkpt lat="46.2753218" lon="13.2891543"><ele>600.0</ele><time>2026-04-24T10:11:25.314Z</time></trkpt><trkpt lat="46.2752443" lon="13.2892809"><ele>602.0</ele><time>2026-04-24T10:11:26.313Z</time></trkpt><trkpt lat="46.2751334" lon="13.2893832"><ele>602.0</ele><time>2026-04-24T10:11:27.313Z</time></trkpt><trkpt lat="46.2750118" lon="13.2894644"><ele>602.0</ele><time>2026-04-24T10:11:28.315Z</time></trkpt><trkpt lat="46.2748844" lon="13.2895526"><ele>602.0</ele><time>2026-04-24T10:11:29.314Z</time></trkpt><trkpt lat="46.2747577" lon="13.2896408"><ele>602.0</ele><time>2026-04-24T10:11:30.313Z</time></trkpt><trkpt lat="46.2746224" lon="13.2897029"><ele>602.6</ele><time>2026-04-24T10:11:31.314Z</time></trkpt><trkpt lat="46.274504" lon="13.2897273"><ele>603.2</ele><time>2026-04-24T10:11:32.313Z</time></trkpt><trkpt lat="46.2744041" lon="13.2897237"><ele>603.8</ele><time>2026-04-24T10:11:33.314Z</time></trkpt><trkpt lat="46.2743176" lon="13.2897575"><ele>604.4</ele><time>2026-04-24T10:11:34.314Z</time></trkpt><trkpt lat="46.2742446" lon="13.2898285"><ele>605.0</ele><time>2026-04-24T10:11:35.315Z</time></trkpt><trkpt lat="46.2741978" lon="13.2899202"><ele>605.0</ele><time>2026-04-24T10:11:36.314Z</time></trkpt><trkpt lat="46.2741845" lon="13.2900506"><ele>605.0</ele><time>2026-04-24T10:11:37.315Z</time></trkpt><trkpt lat="46.2743588" lon="13.2902398"><ele>605.0</ele><time>2026-04-24T10:11:38.314Z</time></trkpt><trkpt lat="46.2744277" lon="13.2904383"><ele>607.25</ele><time>2026-04-24T10:11:39.314Z</time></trkpt><trkpt lat="46.2744977" lon="13.2906174"><ele>609.5</ele><time>2026-04-24T10:11:40.313Z</time></trkpt><trkpt lat="46.2745593" lon="13.2907901"><ele>611.75</ele><time>2026-04-24T10:11:41.313Z</time></trkpt><trkpt lat="46.2746118" lon="13.2909404"><ele>614.0</ele><time>2026-04-24T10:11:42.314Z</time></trkpt><trkpt lat="46.2746575" lon="13.2910839"><ele>614.0</ele><time>2026-04-24T10:11:43.314Z</time></trkpt><trkpt lat="46.2746702" lon="13.2912488"><ele>614.0</ele><time>2026-04-24T10:11:44.313Z</time></trkpt><trkpt lat="46.2746489" lon="13.2914017"><ele>614.0</ele><time>2026-04-24T10:11:45.314Z</time></trkpt><trkpt lat="46.2746031" lon="13.2915449"><ele>614.0</ele><time>2026-04-24T10:11:46.313Z</time></trkpt><trkpt lat="46.2745274" lon="13.2916863"><ele>617.5</ele><time>2026-04-24T10:11:47.315Z</time></trkpt><trkpt lat="46.2744259" lon="13.2917908"><ele>621.0</ele><time>2026-04-24T10:11:48.313Z</time></trkpt><trkpt lat="46.2743056" lon="13.2918618"><ele>624.5</ele><time>2026-04-24T10:11:49.313Z</time></trkpt><trkpt lat="46.2741731" lon="13.2918923"><ele>628.0</ele><time>2026-04-24T10:11:50.313Z</time></trkpt><trkpt lat="46.2740443" lon="13.2918917"><ele>627.0</ele><time>2026-04-24T10:11:51.314Z</time></trkpt><trkpt lat="46.273917" lon="13.2918726"><ele>626.0</ele><time>2026-04-24T10:11:52.313Z</time></trkpt><trkpt lat="46.2737818" lon="13.2918082"><ele>625.0</ele><time>2026-04-24T10:11:53.313Z</time></trkpt><trkpt lat="46.2736513" lon="13.2917973"><ele>624.0</ele><time>2026-04-24T10:11:54.314Z</time></trkpt><trkpt lat="46.273522" lon="13.2917796"><ele>624.0</ele><time>2026-04-24T10:11:55.313Z</time></trkpt><trkpt lat="46.2733849" lon="13.2918179"><ele>624.0</ele><time>2026-04-24T10:11:56.314Z</time></trkpt><trkpt lat="46.2732631" lon="13.2918528"><ele>624.0</ele><time>2026-04-24T10:11:57.314Z</time></trkpt><trkpt lat="46.2731599" lon="13.2918732"><ele>624.0</ele><time>2026-04-24T10:11:58.314Z</time></trkpt><trkpt lat="46.2730761" lon="13.2918814"><ele>624.1666666666666</ele><time>2026-04-24T10:11:59.315Z</time></trkpt><trkpt lat="46.2729839" lon="13.2918988"><ele>624.3333333333334</ele><time>2026-04-24T10:12:01.313Z</time></trkpt><trkpt lat="46.2729245" lon="13.2919366"><ele>624.5</ele><time>2026-04-24T10:12:25.315Z</time></trkpt><trkpt lat="46.2729533" lon="13.2920843"><ele>624.6666666666667</ele><time>2026-04-24T10:12:28.314Z</time></trkpt><trkpt lat="46.2730136" lon="13.2921542"><ele>624.8333333333334</ele><time>2026-04-24T10:12:29.313Z</time></trkpt><trkpt lat="46.273091" lon="13.292214"><ele>625.0</ele><time>2026-04-24T10:12:30.314Z</time></trkpt><trkpt lat="46.27317" lon="13.2922875"><ele>625.4</ele><time>2026-04-24T10:12:31.314Z</time></trkpt><trkpt lat="46.2732428" lon="13.2923683"><ele>625.8</ele><time>2026-04-24T10:12:32.315Z</time></trkpt><trkpt lat="46.2733076" lon="13.2924686"><ele>626.2</ele><time>2026-04-24T10:12:33.314Z</time></trkpt><trkpt lat="46.2733514" lon="13.292596"><ele>626.6</ele><time>2026-04-24T10:12:34.314Z</time></trkpt><trkpt lat="46.2733738" lon="13.2927421"><ele>627.0</ele><time>2026-04-24T10:12:35.313Z</time></trkpt><trkpt lat="46.2733852" lon="13.2928833"><ele>627.0</ele><time>2026-04-24T10:12:36.315Z</time></trkpt><trkpt lat="46.2734023" lon="13.2929874"><ele>627.0</ele><time>2026-04-24T10:12:37.315Z</time></trkpt><trkpt lat="46.2734384" lon="13.2930652"><ele>627.0</ele><time>2026-04-24T10:12:38.314Z</time></trkpt><trkpt lat="46.2735578" lon="13.2931082"><ele>627.0</ele><time>2026-04-24T10:12:40.314Z</time></trkpt><trkpt lat="46.2736512" lon="13.2930845"><ele>627.0</ele><time>2026-04-24T10:12:41.314Z</time></trkpt><trkpt lat="46.2737465" lon="13.2930676"><ele>627.0</ele><time>2026-04-24T10:12:42.315Z</time></trkpt><trkpt lat="46.2738506" lon="13.2930519"><ele>627.0</ele><time>2026-04-24T10:12:43.313Z</time></trkpt><trkpt lat="46.2739545" lon="13.2930393"><ele>627.0</ele><time>2026-04-24T10:12:44.314Z</time></trkpt><trkpt lat="46.2740629" lon="13.2930302"><ele>627.0</ele><time>2026-04-24T10:12:45.315Z</time></trkpt><trkpt lat="46.2741688" lon="13.2930317"><ele>627.0</ele><time>2026-04-24T10:12:46.315Z</time></trkpt><trkpt lat="46.2742708" lon="13.293049"><ele>626.3333333333334</ele><time>2026-04-24T10:12:47.315Z</time></trkpt><trkpt lat="46.2743655" lon="13.2930857"><ele>625.6666666666666</ele><time>2026-04-24T10:12:48.313Z</time></trkpt><trkpt lat="46.2744495" lon="13.2931357"><ele>625.0</ele><time>2026-04-24T10:12:49.313Z</time></trkpt><trkpt lat="46.2745205" lon="13.2932176"><ele>624.3333333333333</ele><time>2026-04-24T10:12:50.315Z</time></trkpt><trkpt lat="46.2745709" lon="13.2933125"><ele>623.6666666666666</ele><time>2026-04-24T10:12:51.313Z</time></trkpt><trkpt lat="46.2746137" lon="13.2934072"><ele>623.0</ele><time>2026-04-24T10:12:52.312Z</time></trkpt><trkpt lat="46.274677" lon="13.2934772"><ele>623.0</ele><time>2026-04-24T10:12:53.314Z</time></trkpt><trkpt lat="46.2747679" lon="13.2935052"><ele>623.0</ele><time>2026-04-24T10:12:54.313Z</time></trkpt><trkpt lat="46.2748639" lon="13.293526"><ele>623.0</ele><time>2026-04-24T10:12:55.313Z</time></trkpt><trkpt lat="46.2749649" lon="13.2935696"><ele>623.0</ele><time>2026-04-24T10:12:56.314Z</time></trkpt><trkpt lat="46.2750731" lon="13.293608"><ele>623.0</ele><time>2026-04-24T10:12:57.313Z</time></trkpt><trkpt lat="46.2751838" lon="13.2936425"><ele>622.0</ele><time>2026-04-24T10:12:58.312Z</time></trkpt><trkpt lat="46.2752769" lon="13.2936612"><ele>621.0</ele><time>2026-04-24T10:12:59.312Z</time></trkpt><trkpt lat="46.2753509" lon="13.2937129"><ele>620.0</ele><time>2026-04-24T10:13:00.313Z</time></trkpt><trkpt lat="46.2754156" lon="13.2937991"><ele>619.0</ele><time>2026-04-24T10:13:01.313Z</time></trkpt><trkpt lat="46.2754573" lon="13.2939338"><ele>618.0</ele><time>2026-04-24T10:13:02.312Z</time></trkpt><trkpt lat="46.2754939" lon="13.2940701"><ele>618.0</ele><time>2026-04-24T10:13:03.312Z</time></trkpt><trkpt lat="46.2755368" lon="13.2942123"><ele>618.0</ele><time>2026-04-24T10:13:04.313Z</time></trkpt><trkpt lat="46.2755668" lon="13.2943495"><ele>618.0</ele><time>2026-04-24T10:13:05.313Z</time></trkpt><trkpt lat="46.2755752" lon="13.2944843"><ele>618.0</ele><time>2026-04-24T10:13:06.313Z</time></trkpt><trkpt lat="46.2755538" lon="13.2946169"><ele>618.0</ele><time>2026-04-24T10:13:07.313Z</time></trkpt><trkpt lat="46.2754955" lon="13.2947495"><ele>617.25</ele><time>2026-04-24T10:13:08.312Z</time></trkpt><trkpt lat="46.275427" lon="13.2948892"><ele>616.5</ele><time>2026-04-24T10:13:09.313Z</time></trkpt><trkpt lat="46.2753602" lon="13.2950263"><ele>615.75</ele><time>2026-04-24T10:13:10.314Z</time></trkpt><trkpt lat="46.2752917" lon="13.2951712"><ele>615.0</ele><time>2026-04-24T10:13:11.313Z</time></trkpt><trkpt lat="46.2752202" lon="13.2953206"><ele>615.0</ele><time>2026-04-24T10:13:12.313Z</time></trkpt><trkpt lat="46.2751456" lon="13.2954725"><ele>615.0</ele><time>2026-04-24T10:13:13.312Z</time></trkpt><trkpt lat="46.2750633" lon="13.2956302"><ele>615.0</ele><time>2026-04-24T10:13:14.312Z</time></trkpt><trkpt lat="46.2749915" lon="13.2957761"><ele>615.0</ele><time>2026-04-24T10:13:15.313Z</time></trkpt><trkpt lat="46.2749336" lon="13.2959011"><ele>614.8333333333334</ele><time>2026-04-24T10:13:16.312Z</time></trkpt><trkpt lat="46.2748981" lon="13.2960118"><ele>614.6666666666666</ele><time>2026-04-24T10:13:17.312Z</time></trkpt><trkpt lat="46.2748972" lon="13.2961166"><ele>614.5</ele><time>2026-04-24T10:13:18.313Z</time></trkpt><trkpt lat="46.2749251" lon="13.296217"><ele>614.3333333333333</ele><time>2026-04-24T10:13:19.313Z</time></trkpt><trkpt lat="46.2749644" lon="13.2963116"><ele>614.1666666666666</ele><time>2026-04-24T10:13:20.312Z</time></trkpt><trkpt lat="46.2750676" lon="13.2963858"><ele>614.0</ele><time>2026-04-24T10:13:21.314Z</time></trkpt><trkpt lat="46.2751802" lon="13.2964845"><ele>614.0</ele><time>2026-04-24T10:13:22.314Z</time></trkpt><trkpt lat="46.2752961" lon="13.2965887"><ele>614.0</ele><time>2026-04-24T10:13:23.314Z</time></trkpt><trkpt lat="46.2753982" lon="13.2966768"><ele>614.0</ele><time>2026-04-24T10:13:24.313Z</time></trkpt><trkpt lat="46.2754988" lon="13.2967558"><ele>614.0</ele><time>2026-04-24T10:13:25.312Z</time></trkpt><trkpt lat="46.2755975" lon="13.2967782"><ele>618.6</ele><time>2026-04-24T10:13:26.314Z</time></trkpt><trkpt lat="46.2756797" lon="13.2967877"><ele>623.2</ele><time>2026-04-24T10:13:27.312Z</time></trkpt><trkpt lat="46.2757642" lon="13.2968016"><ele>627.8000000000001</ele><time>2026-04-24T10:13:28.313Z</time></trkpt><trkpt lat="46.275843" lon="13.2967486"><ele>632.4</ele><time>2026-04-24T10:13:29.314Z</time></trkpt><trkpt lat="46.2759436" lon="13.2967257"><ele>637.0</ele><time>2026-04-24T10:13:30.312Z</time></trkpt><trkpt lat="46.2760378" lon="13.2967315"><ele>637.0</ele><time>2026-04-24T10:13:31.314Z</time></trkpt><trkpt lat="46.2761237" lon="13.2967629"><ele>637.0</ele><time>2026-04-24T10:13:32.313Z</time></trkpt><trkpt lat="46.2762022" lon="13.2968653"><ele>637.0</ele><time>2026-04-24T10:13:33.312Z</time></trkpt><trkpt lat="46.276293" lon="13.2969151"><ele>637.0</ele><time>2026-04-24T10:13:34.314Z</time></trkpt><trkpt lat="46.276389" lon="13.2969022"><ele>637.0</ele><time>2026-04-24T10:13:35.312Z</time></trkpt><trkpt lat="46.2764821" lon="13.2968848"><ele>638.1666666666667</ele><time>2026-04-24T10:13:36.313Z</time></trkpt><trkpt lat="46.2765764" lon="13.2968892"><ele>639.3333333333334</ele><time>2026-04-24T10:13:37.313Z</time></trkpt><trkpt lat="46.2766638" lon="13.2969363"><ele>640.5</ele><time>2026-04-24T10:13:38.313Z</time></trkpt><trkpt lat="46.2767393" lon="13.2969923"><ele>641.6666666666666</ele><time>2026-04-24T10:13:39.313Z</time></trkpt><trkpt lat="46.2767851" lon="13.2971033"><ele>642.8333333333333</ele><time>2026-04-24T10:13:40.313Z</time></trkpt><trkpt lat="46.2768111" lon="13.2972158"><ele>644.0</ele><time>2026-04-24T10:13:41.313Z</time></trkpt><trkpt lat="46.2768013" lon="13.2973646"><ele>640.5</ele><time>2026-04-24T10:13:42.314Z</time></trkpt><trkpt lat="46.2767693" lon="13.2975227"><ele>637.0</ele><time>2026-04-24T10:13:43.312Z</time></trkpt><trkpt lat="46.2767252" lon="13.2976716"><ele>633.5</ele><time>2026-04-24T10:13:44.314Z</time></trkpt><trkpt lat="46.2766682" lon="13.2978251"><ele>630.0</ele><time>2026-04-24T10:13:45.313Z</time></trkpt><trkpt lat="46.2766084" lon="13.2979889"><ele>632.0</ele><time>2026-04-24T10:13:46.313Z</time></trkpt><trkpt lat="46.2765523" lon="13.2981545"><ele>634.0</ele><time>2026-04-24T10:13:47.313Z</time></trkpt><trkpt lat="46.2764863" lon="13.2982957"><ele>636.0</ele><time>2026-04-24T10:13:48.312Z</time></trkpt><trkpt lat="46.2764315" lon="13.2984121"><ele>638.0</ele><time>2026-04-24T10:13:49.314Z</time></trkpt><trkpt lat="46.2763818" lon="13.2985312"><ele>640.0</ele><time>2026-04-24T10:13:50.313Z</time></trkpt><trkpt lat="46.2763587" lon="13.298668"><ele>635.2</ele><time>2026-04-24T10:13:51.312Z</time></trkpt><trkpt lat="46.2763486" lon="13.2988049"><ele>630.4</ele><time>2026-04-24T10:13:52.312Z</time></trkpt><trkpt lat="46.2764356" lon="13.2989249"><ele>625.6</ele><time>2026-04-24T10:13:53.314Z</time></trkpt><trkpt lat="46.2764183" lon="13.2990537"><ele>620.8</ele><time>2026-04-24T10:13:54.312Z</time></trkpt><trkpt lat="46.27639" lon="13.2991406"><ele>616.0</ele><time>2026-04-24T10:13:55.313Z</time></trkpt><trkpt lat="46.2763325" lon="13.2992161"><ele>616.0</ele><time>2026-04-24T10:13:56.312Z</time></trkpt><trkpt lat="46.2762544" lon="13.2992984"><ele>616.0</ele><time>2026-04-24T10:13:57.314Z</time></trkpt><trkpt lat="46.2761711" lon="13.2993931"><ele>616.0</ele><time>2026-04-24T10:13:58.313Z</time></trkpt><trkpt lat="46.2760939" lon="13.2995129"><ele>616.0</ele><time>2026-04-24T10:13:59.312Z</time></trkpt><trkpt lat="46.2760236" lon="13.2996417"><ele>616.0</ele><time>2026-04-24T10:14:00.313Z</time></trkpt><trkpt lat="46.2759412" lon="13.2997639"><ele>620.4</ele><time>2026-04-24T10:14:01.314Z</time></trkpt><trkpt lat="46.2758516" lon="13.299873"><ele>624.8</ele><time>2026-04-24T10:14:02.312Z</time></trkpt><trkpt lat="46.2757709" lon="13.2999719"><ele>629.1999999999999</ele><time>2026-04-24T10:14:03.312Z</time></trkpt><trkpt lat="46.2757139" lon="13.3000629"><ele>633.6</ele><time>2026-04-24T10:14:04.313Z</time></trkpt><trkpt lat="46.2756541" lon="13.3001617"><ele>638.0</ele><time>2026-04-24T10:14:05.313Z</time></trkpt><trkpt lat="46.2756741" lon="13.3003152"><ele>638.0</ele><time>2026-04-24T10:14:06.312Z</time></trkpt><trkpt lat="46.2756904" lon="13.3004732"><ele>638.0</ele><time>2026-04-24T10:14:07.313Z</time></trkpt><trkpt lat="46.275716" lon="13.300629"><ele>638.0</ele><time>2026-04-24T10:14:08.313Z</time></trkpt><trkpt lat="46.275736" lon="13.3007856"><ele>638.0</ele><time>2026-04-24T10:14:09.313Z</time></trkpt><trkpt lat="46.2757791" lon="13.3009297"><ele>638.0</ele><time>2026-04-24T10:14:10.313Z</time></trkpt><trkpt lat="46.2758666" lon="13.3010506"><ele>639.0</ele><time>2026-04-24T10:14:11.313Z</time></trkpt><trkpt lat="46.2759481" lon="13.3011717"><ele>640.0</ele><time>2026-04-24T10:14:12.312Z</time></trkpt><trkpt lat="46.2760133" lon="13.3012678"><ele>641.0</ele><time>2026-04-24T10:14:13.313Z</time></trkpt><trkpt lat="46.2760702" lon="13.3013715"><ele>642.0</ele><time>2026-04-24T10:14:14.312Z</time></trkpt><trkpt lat="46.2761172" lon="13.3014643"><ele>643.0</ele><time>2026-04-24T10:14:15.314Z</time></trkpt><trkpt lat="46.2760395" lon="13.3015778"><ele>644.2</ele><time>2026-04-24T10:14:16.313Z</time></trkpt><trkpt lat="46.2760022" lon="13.3016757"><ele>645.4</ele><time>2026-04-24T10:14:17.313Z</time></trkpt><trkpt lat="46.2759428" lon="13.3017237"><ele>646.6</ele><time>2026-04-24T10:14:18.313Z</time></trkpt><trkpt lat="46.2758679" lon="13.3017855"><ele>647.8000000000001</ele><time>2026-04-24T10:14:19.312Z</time></trkpt><trkpt lat="46.2757392" lon="13.3017764"><ele>649.0</ele><time>2026-04-24T10:14:20.314Z</time></trkpt><trkpt lat="46.2756343" lon="13.3017823"><ele>646.5</ele><time>2026-04-24T10:14:21.313Z</time></trkpt><trkpt lat="46.2755211" lon="13.3017879"><ele>644.0</ele><time>2026-04-24T10:14:22.312Z</time></trkpt><trkpt lat="46.2754011" lon="13.3018142"><ele>641.5</ele><time>2026-04-24T10:14:23.313Z</time></trkpt><trkpt lat="46.2752783" lon="13.3018555"><ele>639.0</ele><time>2026-04-24T10:14:24.313Z</time></trkpt><trkpt lat="46.2751548" lon="13.3019119"><ele>639.0</ele><time>2026-04-24T10:14:25.314Z</time></trkpt><trkpt lat="46.2750457" lon="13.3019538"><ele>639.0</ele><time>2026-04-24T10:14:26.312Z</time></trkpt><trkpt lat="46.2749405" lon="13.3019756"><ele>639.0</ele><time>2026-04-24T10:14:27.313Z</time></trkpt><trkpt lat="46.274837" lon="13.3019187"><ele>639.0</ele><time>2026-04-24T10:14:28.312Z</time></trkpt><trkpt lat="46.2747419" lon="13.3018414"><ele>639.0</ele><time>2026-04-24T10:14:29.313Z</time></trkpt><trkpt lat="46.2746438" lon="13.3017488"><ele>638.4</ele><time>2026-04-24T10:14:30.313Z</time></trkpt><trkpt lat="46.2745416" lon="13.3016541"><ele>637.8</ele><time>2026-04-24T10:14:31.312Z</time></trkpt><trkpt lat="46.2744566" lon="13.3015855"><ele>637.2</ele><time>2026-04-24T10:14:32.313Z</time></trkpt><trkpt lat="46.2743717" lon="13.3015261"><ele>636.6</ele><time>2026-04-24T10:14:33.313Z</time></trkpt><trkpt lat="46.2742762" lon="13.3015234"><ele>636.0</ele><time>2026-04-24T10:14:34.312Z</time></trkpt><trkpt lat="46.2741756" lon="13.30156"><ele>636.0</ele><time>2026-04-24T10:14:35.314Z</time></trkpt><trkpt lat="46.2740828" lon="13.3016087"><ele>636.0</ele><time>2026-04-24T10:14:36.313Z</time></trkpt><trkpt lat="46.2740107" lon="13.3016924"><ele>636.0</ele><time>2026-04-24T10:14:37.313Z</time></trkpt><trkpt lat="46.2739471" lon="13.3018031"><ele>636.0</ele><time>2026-04-24T10:14:38.314Z</time></trkpt><trkpt lat="46.2739013" lon="13.3019474"><ele>636.0</ele><time>2026-04-24T10:14:39.313Z</time></trkpt><trkpt lat="46.2738546" lon="13.3021003"><ele>634.75</ele><time>2026-04-24T10:14:40.314Z</time></trkpt><trkpt lat="46.2737933" lon="13.3022599"><ele>633.5</ele><time>2026-04-24T10:14:41.313Z</time></trkpt><trkpt lat="46.2737188" lon="13.3024038"><ele>632.25</ele><time>2026-04-24T10:14:42.312Z</time></trkpt><trkpt lat="46.2736273" lon="13.302538"><ele>631.0</ele><time>2026-04-24T10:14:43.313Z</time></trkpt><trkpt lat="46.2735249" lon="13.3026568"><ele>631.0</ele><time>2026-04-24T10:14:44.314Z</time></trkpt><trkpt lat="46.2734311" lon="13.3027743"><ele>631.0</ele><time>2026-04-24T10:14:45.312Z</time></trkpt><trkpt lat="46.273347" lon="13.3028935"><ele>631.0</ele><time>2026-04-24T10:14:46.313Z</time></trkpt><trkpt lat="46.2732753" lon="13.3030101"><ele>631.0</ele><time>2026-04-24T10:14:47.312Z</time></trkpt><trkpt lat="46.2732339" lon="13.3031104"><ele>631.0</ele><time>2026-04-24T10:14:48.313Z</time></trkpt><trkpt lat="46.2732194" lon="13.3032058"><ele>631.3333333333334</ele><time>2026-04-24T10:14:49.314Z</time></trkpt><trkpt lat="46.2732386" lon="13.303316"><ele>631.6666666666667</ele><time>2026-04-24T10:14:50.312Z</time></trkpt><trkpt lat="46.2732855" lon="13.3034144"><ele>632.0</ele><time>2026-04-24T10:14:51.314Z</time></trkpt><trkpt lat="46.273352" lon="13.3035084"><ele>632.3333333333334</ele><time>2026-04-24T10:14:52.313Z</time></trkpt><trkpt lat="46.273409" lon="13.3036047"><ele>632.6666666666666</ele><time>2026-04-24T10:14:53.313Z</time></trkpt><trkpt lat="46.2734569" lon="13.3037244"><ele>633.0</ele><time>2026-04-24T10:14:54.314Z</time></trkpt><trkpt lat="46.2734953" lon="13.3038645"><ele>632.0</ele><time>2026-04-24T10:14:55.314Z</time></trkpt><trkpt lat="46.2735322" lon="13.3040048"><ele>631.0</ele><time>2026-04-24T10:14:56.313Z</time></trkpt><trkpt lat="46.2735475" lon="13.3041337"><ele>630.0</ele><time>2026-04-24T10:14:57.313Z</time></trkpt><trkpt lat="46.2735367" lon="13.3042472"><ele>629.0</ele><time>2026-04-24T10:14:58.314Z</time></trkpt><trkpt lat="46.2734984" lon="13.3043455"><ele>628.0</ele><time>2026-04-24T10:14:59.313Z</time></trkpt><trkpt lat="46.2734317" lon="13.3044209"><ele>627.0</ele><time>2026-04-24T10:15:00.313Z</time></trkpt><trkpt lat="46.2733573" lon="13.3044856"><ele>627.0</ele><time>2026-04-24T10:15:01.312Z</time></trkpt><trkpt lat="46.2732906" lon="13.3045764"><ele>627.0</ele><time>2026-04-24T10:15:02.313Z</time></trkpt><trkpt lat="46.2732474" lon="13.304701"><ele>627.0</ele><time>2026-04-24T10:15:03.313Z</time></trkpt><trkpt lat="46.2732184" lon="13.3048443"><ele>627.0</ele><time>2026-04-24T10:15:04.313Z</time></trkpt><trkpt lat="46.2731831" lon="13.3049953"><ele>627.0</ele><time>2026-04-24T10:15:05.312Z</time></trkpt><trkpt lat="46.273134" lon="13.3051419"><ele>625.75</ele><time>2026-04-24T10:15:06.313Z</time></trkpt><trkpt lat="46.2730724" lon="13.3052894"><ele>624.5</ele><time>2026-04-24T10:15:07.313Z</time></trkpt><trkpt lat="46.2730093" lon="13.3054384"><ele>623.25</ele><time>2026-04-24T10:15:08.313Z</time></trkpt><trkpt lat="46.2729424" lon="13.3055886"><ele>622.0</ele><time>2026-04-24T10:15:09.314Z</time></trkpt><trkpt lat="46.2728749" lon="13.3057352"><ele>622.0</ele><time>2026-04-24T10:15:10.312Z</time></trkpt><trkpt lat="46.2728085" lon="13.3058831"><ele>622.0</ele><time>2026-04-24T10:15:11.314Z</time></trkpt><trkpt lat="46.2727441" lon="13.3060228"><ele>622.0</ele><time>2026-04-24T10:15:12.313Z</time></trkpt><trkpt lat="46.2726811" lon="13.3061556"><ele>622.0</ele><time>2026-04-24T10:15:13.314Z</time></trkpt><trkpt lat="46.2726289" lon="13.3062905"><ele>622.0</ele><time>2026-04-24T10:15:14.313Z</time></trkpt><trkpt lat="46.272592" lon="13.3064359"><ele>622.0</ele><time>2026-04-24T10:15:15.312Z</time></trkpt><trkpt lat="46.2725688" lon="13.3065978"><ele>622.0</ele><time>2026-04-24T10:15:16.314Z</time></trkpt><trkpt lat="46.2725568" lon="13.3067645"><ele>622.0</ele><time>2026-04-24T10:15:17.312Z</time></trkpt><trkpt lat="46.2725536" lon="13.3069416"><ele>622.0</ele><time>2026-04-24T10:15:18.313Z</time></trkpt><trkpt lat="46.2725494" lon="13.3071204"><ele>622.0</ele><time>2026-04-24T10:15:19.314Z</time></trkpt><trkpt lat="46.2725461" lon="13.3072942"><ele>622.0</ele><time>2026-04-24T10:15:20.313Z</time></trkpt><trkpt lat="46.2725411" lon="13.3074618"><ele>622.0</ele><time>2026-04-24T10:15:21.313Z</time></trkpt><trkpt lat="46.2725437" lon="13.3076291"><ele>621.0</ele><time>2026-04-24T10:15:22.314Z</time></trkpt><trkpt lat="46.2725658" lon="13.3078035"><ele>620.0</ele><time>2026-04-24T10:15:23.312Z</time></trkpt><trkpt lat="46.2726009" lon="13.3079749"><ele>619.0</ele><time>2026-04-24T10:15:24.314Z</time></trkpt><trkpt lat="46.2726515" lon="13.3081522"><ele>618.0</ele><time>2026-04-24T10:15:25.313Z</time></trkpt><trkpt lat="46.272702" lon="13.3083235"><ele>617.25</ele><time>2026-04-24T10:15:26.312Z</time></trkpt><trkpt lat="46.2727461" lon="13.308492"><ele>616.5</ele><time>2026-04-24T10:15:27.313Z</time></trkpt><trkpt lat="46.2727879" lon="13.3086556"><ele>615.75</ele><time>2026-04-24T10:15:28.313Z</time></trkpt><trkpt lat="46.2728179" lon="13.3088158"><ele>615.0</ele><time>2026-04-24T10:15:29.313Z</time></trkpt><trkpt lat="46.2728417" lon="13.3089721"><ele>614.2</ele><time>2026-04-24T10:15:30.312Z</time></trkpt><trkpt lat="46.2728629" lon="13.3091244"><ele>613.4</ele><time>2026-04-24T10:15:31.313Z</time></trkpt><trkpt lat="46.2728817" lon="13.3092747"><ele>612.6</ele><time>2026-04-24T10:15:32.313Z</time></trkpt><trkpt lat="46.2729043" lon="13.309421"><ele>611.8</ele><time>2026-04-24T10:15:33.313Z</time></trkpt><trkpt lat="46.2729378" lon="13.30956"><ele>611.0</ele><time>2026-04-24T10:15:34.313Z</time></trkpt><trkpt lat="46.2729874" lon="13.3097004"><ele>611.8</ele><time>2026-04-24T10:15:35.312Z</time></trkpt><trkpt lat="46.2730566" lon="13.3098176"><ele>612.6</ele><time>2026-04-24T10:15:36.314Z</time></trkpt><trkpt lat="46.2731312" lon="13.3099207"><ele>613.4</ele><time>2026-04-24T10:15:37.314Z</time></trkpt><trkpt lat="46.273196" lon="13.3100233"><ele>614.2</ele><time>2026-04-24T10:15:38.314Z</time></trkpt><trkpt lat="46.2732351" lon="13.3101476"><ele>615.0</ele><time>2026-04-24T10:15:39.313Z</time></trkpt><trkpt lat="46.2732478" lon="13.3102812"><ele>615.0</ele><time>2026-04-24T10:15:40.312Z</time></trkpt><trkpt lat="46.2732407" lon="13.3104276"><ele>615.0</ele><time>2026-04-24T10:15:41.313Z</time></trkpt><trkpt lat="46.2732462" lon="13.3105758"><ele>615.0</ele><time>2026-04-24T10:15:42.312Z</time></trkpt><trkpt lat="46.2732636" lon="13.3107138"><ele>615.0</ele><time>2026-04-24T10:15:43.312Z</time></trkpt><trkpt lat="46.2732924" lon="13.3108473"><ele>615.0</ele><time>2026-04-24T10:15:44.312Z</time></trkpt><trkpt lat="46.2733411" lon="13.3109794"><ele>614.3333333333334</ele><time>2026-04-24T10:15:45.312Z</time></trkpt><trkpt lat="46.2733918" lon="13.3111077"><ele>613.6666666666666</ele><time>2026-04-24T10:15:46.311Z</time></trkpt><trkpt lat="46.2734413" lon="13.3112335"><ele>613.0</ele><time>2026-04-24T10:15:47.312Z</time></trkpt><trkpt lat="46.2734804" lon="13.3113517"><ele>612.3333333333333</ele><time>2026-04-24T10:15:48.312Z</time></trkpt><trkpt lat="46.2734982" lon="13.3114711"><ele>611.6666666666666</ele><time>2026-04-24T10:15:49.311Z</time></trkpt><trkpt lat="46.2734967" lon="13.3115629"><ele>611.0</ele><time>2026-04-24T10:15:50.312Z</time></trkpt><trkpt lat="46.2734642" lon="13.3116417"><ele>609.0</ele><time>2026-04-24T10:15:51.312Z</time></trkpt><trkpt lat="46.2733537" lon="13.3117484"><ele>607.0</ele><time>2026-04-24T10:15:53.311Z</time></trkpt><trkpt lat="46.2732881" lon="13.3118099"><ele>605.0</ele><time>2026-04-24T10:15:54.312Z</time></trkpt><trkpt lat="46.2732189" lon="13.3118761"><ele>603.0</ele><time>2026-04-24T10:15:55.312Z</time></trkpt><trkpt lat="46.273159" lon="13.3119743"><ele>601.0</ele><time>2026-04-24T10:15:56.311Z</time></trkpt><trkpt lat="46.273105" lon="13.3120804"><ele>598.8</ele><time>2026-04-24T10:15:57.312Z</time></trkpt><trkpt lat="46.2730374" lon="13.3121772"><ele>596.6</ele><time>2026-04-24T10:15:58.312Z</time></trkpt><trkpt lat="46.2729653" lon="13.3122661"><ele>594.4</ele><time>2026-04-24T10:15:59.312Z</time></trkpt><trkpt lat="46.2728878" lon="13.3123484"><ele>592.2</ele><time>2026-04-24T10:16:00.312Z</time></trkpt><trkpt lat="46.2728217" lon="13.3124428"><ele>590.0</ele><time>2026-04-24T10:16:01.312Z</time></trkpt><trkpt lat="46.2727718" lon="13.3125572"><ele>589.0</ele><time>2026-04-24T10:16:02.312Z</time></trkpt><trkpt lat="46.272742" lon="13.3126873"><ele>588.0</ele><time>2026-04-24T10:16:03.312Z</time></trkpt><trkpt lat="46.2727215" lon="13.3128293"><ele>587.0</ele><time>2026-04-24T10:16:04.312Z</time></trkpt><trkpt lat="46.2727072" lon="13.3129792"><ele>586.0</ele><time>2026-04-24T10:16:05.312Z</time></trkpt><trkpt lat="46.2726942" lon="13.3131374"><ele>585.0</ele><time>2026-04-24T10:16:06.313Z</time></trkpt><trkpt lat="46.2726836" lon="13.3132996"><ele>584.8</ele><time>2026-04-24T10:16:07.313Z</time></trkpt><trkpt lat="46.2726659" lon="13.3134626"><ele>584.6</ele><time>2026-04-24T10:16:08.312Z</time></trkpt><trkpt lat="46.272646" lon="13.313625"><ele>584.4</ele><time>2026-04-24T10:16:09.311Z</time></trkpt><trkpt lat="46.2726276" lon="13.3137786"><ele>584.2</ele><time>2026-04-24T10:16:10.311Z</time></trkpt><trkpt lat="46.2726085" lon="13.3139297"><ele>584.0</ele><time>2026-04-24T10:16:11.311Z</time></trkpt><trkpt lat="46.2725958" lon="13.3140804"><ele>582.8</ele><time>2026-04-24T10:16:12.312Z</time></trkpt><trkpt lat="46.2725809" lon="13.3142317"><ele>581.5999999999999</ele><time>2026-04-24T10:16:13.312Z</time></trkpt><trkpt lat="46.2725718" lon="13.3143833"><ele>580.4</ele><time>2026-04-24T10:16:14.312Z</time></trkpt><trkpt lat="46.2725654" lon="13.3145291"><ele>579.1999999999999</ele><time>2026-04-24T10:16:15.311Z</time></trkpt><trkpt lat="46.2725593" lon="13.3146794"><ele>578.0</ele><time>2026-04-24T10:16:16.311Z</time></trkpt><trkpt lat="46.272556" lon="13.3148274"><ele>577.1999999999999</ele><time>2026-04-24T10:16:17.312Z</time></trkpt><trkpt lat="46.2725469" lon="13.3149662"><ele>576.4</ele><time>2026-04-24T10:16:18.311Z</time></trkpt><trkpt lat="46.2725347" lon="13.3150791"><ele>575.5999999999999</ele><time>2026-04-24T10:16:19.313Z</time></trkpt><trkpt lat="46.2724674" lon="13.3152079"><ele>574.8</ele><time>2026-04-24T10:16:21.313Z</time></trkpt><trkpt lat="46.2723804" lon="13.3151437"><ele>574.0</ele><time>2026-04-24T10:16:23.312Z</time></trkpt><trkpt lat="46.2723462" lon="13.3150464"><ele>574.0</ele><time>2026-04-24T10:16:24.312Z</time></trkpt><trkpt lat="46.2723032" lon="13.3149579"><ele>574.0</ele><time>2026-04-24T10:16:25.311Z</time></trkpt><trkpt lat="46.2721971" lon="13.3149035"><ele>574.0</ele><time>2026-04-24T10:16:27.311Z</time></trkpt><trkpt lat="46.2720961" lon="13.3150305"><ele>574.0</ele><time>2026-04-24T10:16:29.311Z</time></trkpt><trkpt lat="46.2720562" lon="13.3151219"><ele>574.0</ele><time>2026-04-24T10:16:30.313Z</time></trkpt><trkpt lat="46.2720235" lon="13.3152288"><ele>570.2</ele><time>2026-04-24T10:16:31.312Z</time></trkpt><trkpt lat="46.2720078" lon="13.3153556"><ele>566.4</ele><time>2026-04-24T10:16:32.312Z</time></trkpt><trkpt lat="46.2719985" lon="13.315495"><ele>562.6</ele><time>2026-04-24T10:16:33.313Z</time></trkpt><trkpt lat="46.2719947" lon="13.3156538"><ele>558.8</ele><time>2026-04-24T10:16:34.312Z</time></trkpt><trkpt lat="46.2719952" lon="13.3158234"><ele>555.0</ele><time>2026-04-24T10:16:35.312Z</time></trkpt><trkpt lat="46.2720028" lon="13.3159958"><ele>554.25</ele><time>2026-04-24T10:16:36.313Z</time></trkpt><trkpt lat="46.2720089" lon="13.316172"><ele>553.5</ele><time>2026-04-24T10:16:37.312Z</time></trkpt><trkpt lat="46.2720153" lon="13.3163433"><ele>552.75</ele><time>2026-04-24T10:16:38.313Z</time></trkpt><trkpt lat="46.2720214" lon="13.3165147"><ele>552.0</ele><time>2026-04-24T10:16:39.311Z</time></trkpt><trkpt lat="46.2720277" lon="13.3166879"><ele>551.25</ele><time>2026-04-24T10:16:40.312Z</time></trkpt><trkpt lat="46.2720374" lon="13.3168607"><ele>550.5</ele><time>2026-04-24T10:16:41.312Z</time></trkpt><trkpt lat="46.2720473" lon="13.3170349"><ele>549.75</ele><time>2026-04-24T10:16:42.311Z</time></trkpt><trkpt lat="46.2720535" lon="13.3172099"><ele>549.0</ele><time>2026-04-24T10:16:43.311Z</time></trkpt><trkpt lat="46.2720575" lon="13.3173787"><ele>548.8</ele><time>2026-04-24T10:16:44.313Z</time></trkpt><trkpt lat="46.2720656" lon="13.3175406"><ele>548.5999999999999</ele><time>2026-04-24T10:16:45.311Z</time></trkpt><trkpt lat="46.2720849" lon="13.3176841"><ele>548.4</ele><time>2026-04-24T10:16:46.313Z</time></trkpt><trkpt lat="46.2721153" lon="13.3177964"><ele>548.1999999999999</ele><time>2026-04-24T10:16:47.311Z</time></trkpt><trkpt lat="46.2721603" lon="13.317886"><ele>548.0</ele><time>2026-04-24T10:16:48.313Z</time></trkpt><trkpt lat="46.2722254" lon="13.3179743"><ele>549.0</ele><time>2026-04-24T10:16:49.312Z</time></trkpt><trkpt lat="46.2722773" lon="13.3180663"><ele>550.0</ele><time>2026-04-24T10:16:50.311Z</time></trkpt><trkpt lat="46.2723022" lon="13.3181787"><ele>551.0</ele><time>2026-04-24T10:16:51.311Z</time></trkpt><trkpt lat="46.2723123" lon="13.318277"><ele>552.0</ele><time>2026-04-24T10:16:52.313Z</time></trkpt><trkpt lat="46.2722639" lon="13.3184215"><ele>553.0</ele><time>2026-04-24T10:16:54.313Z</time></trkpt><trkpt lat="46.2721956" lon="13.3185138"><ele>554.0</ele><time>2026-04-24T10:16:56.311Z</time></trkpt><trkpt lat="46.272126" lon="13.3185839"><ele>552.0</ele><time>2026-04-24T10:16:58.312Z</time></trkpt><trkpt lat="46.2720719" lon="13.3186405"><ele>550.0</ele><time>2026-04-24T10:16:59.312Z</time></trkpt><trkpt lat="46.2720235" lon="13.318704"><ele>548.0</ele><time>2026-04-24T10:17:00.311Z</time></trkpt><trkpt lat="46.2719609" lon="13.318839"><ele>546.0</ele><time>2026-04-24T10:17:02.312Z</time></trkpt><trkpt lat="46.2719628" lon="13.3189358"><ele>544.0</ele><time>2026-04-24T10:17:03.313Z</time></trkpt><trkpt lat="46.2719794" lon="13.3190559"><ele>542.0</ele><time>2026-04-24T10:17:04.312Z</time></trkpt><trkpt lat="46.2719991" lon="13.3191705"><ele>540.8000000000001</ele><time>2026-04-24T10:17:05.312Z</time></trkpt><trkpt lat="46.2720224" lon="13.3192878"><ele>539.6</ele><time>2026-04-24T10:17:06.311Z</time></trkpt><trkpt lat="46.2720441" lon="13.3193906"><ele>538.4000000000001</ele><time>2026-04-24T10:17:07.312Z</time></trkpt><trkpt lat="46.2720626" lon="13.3194879"><ele>537.2</ele><time>2026-04-24T10:17:08.311Z</time></trkpt><trkpt lat="46.2720342" lon="13.3196389"><ele>536.0</ele><time>2026-04-24T10:17:10.311Z</time></trkpt><trkpt lat="46.2719196" lon="13.31966"><ele>536.0</ele><time>2026-04-24T10:17:12.312Z</time></trkpt><trkpt lat="46.2718545" lon="13.3196366"><ele>536.0</ele><time>2026-04-24T10:17:13.313Z</time></trkpt><trkpt lat="46.2717848" lon="13.3196123"><ele>536.0</ele><time>2026-04-24T10:17:14.312Z</time></trkpt><trkpt lat="46.2717231" lon="13.3195844"><ele>536.0</ele><time>2026-04-24T10:17:15.313Z</time></trkpt><trkpt lat="46.2716112" lon="13.3195795"><ele>536.0</ele><time>2026-04-24T10:17:17.311Z</time></trkpt><trkpt lat="46.2715559" lon="13.3197139"><ele>536.0</ele><time>2026-04-24T10:17:19.311Z</time></trkpt><trkpt lat="46.2715547" lon="13.3198078"><ele>535.1666666666666</ele><time>2026-04-24T10:17:20.313Z</time></trkpt><trkpt lat="46.2715446" lon="13.3199929"><ele>534.3333333333333</ele><time>2026-04-24T10:17:22.312Z</time></trkpt><trkpt lat="46.2715064" lon="13.320077"><ele>533.5</ele><time>2026-04-24T10:17:23.312Z</time></trkpt><trkpt lat="46.2714395" lon="13.3201171"><ele>532.6666666666666</ele><time>2026-04-24T10:17:24.312Z</time></trkpt><trkpt lat="46.2713582" lon="13.3201252"><ele>531.8333333333334</ele><time>2026-04-24T10:17:25.313Z</time></trkpt><trkpt lat="46.2712694" lon="13.3201085"><ele>531.0</ele><time>2026-04-24T10:17:26.313Z</time></trkpt><trkpt lat="46.2711864" lon="13.3200912"><ele>528.0</ele><time>2026-04-24T10:17:27.312Z</time></trkpt><trkpt lat="46.2711035" lon="13.3200938"><ele>525.0</ele><time>2026-04-24T10:17:28.312Z</time></trkpt><trkpt lat="46.2710303" lon="13.3201186"><ele>522.0</ele><time>2026-04-24T10:17:29.312Z</time></trkpt><trkpt lat="46.2709741" lon="13.320183"><ele>519.0</ele><time>2026-04-24T10:17:30.312Z</time></trkpt><trkpt lat="46.2709385" lon="13.3203661"><ele>516.0</ele><time>2026-04-24T10:17:32.313Z</time></trkpt><trkpt lat="46.2709601" lon="13.3204649"><ele>513.0</ele><time>2026-04-24T10:17:33.312Z</time></trkpt><trkpt lat="46.2709982" lon="13.3205543"><ele>511.8333333333333</ele><time>2026-04-24T10:17:34.313Z</time></trkpt><trkpt lat="46.2710424" lon="13.3206409"><ele>510.66666666666663</ele><time>2026-04-24T10:17:35.313Z</time></trkpt><trkpt lat="46.2710852" lon="13.3207268"><ele>509.5</ele><time>2026-04-24T10:17:36.313Z</time></trkpt><trkpt lat="46.2711278" lon="13.3207988"><ele>508.3333333333333</ele><time>2026-04-24T10:17:37.313Z</time></trkpt><trkpt lat="46.2711718" lon="13.3208698"><ele>507.16666666666663</ele><time>2026-04-24T10:17:38.313Z</time></trkpt><trkpt lat="46.2712352" lon="13.3209968"><ele>506.0</ele><time>2026-04-24T10:17:40.311Z</time></trkpt><trkpt lat="46.2712431" lon="13.321126"><ele>506.0</ele><time>2026-04-24T10:17:42.311Z</time></trkpt><trkpt lat="46.2710945" lon="13.3211098"><ele>506.0</ele><time>2026-04-24T10:17:45.312Z</time></trkpt><trkpt lat="46.271034" lon="13.3210708"><ele>506.0</ele><time>2026-04-24T10:17:46.312Z</time></trkpt><trkpt lat="46.2709747" lon="13.3210401"><ele>506.0</ele><time>2026-04-24T10:17:47.313Z</time></trkpt><trkpt lat="46.270905" lon="13.3209924"><ele>506.0</ele><time>2026-04-24T10:17:49.311Z</time></trkpt><trkpt lat="46.2708062" lon="13.3209553"><ele>505.99999999999994</ele><time>2026-04-24T10:18:49.311Z</time></trkpt><trkpt lat="46.2707431" lon="13.3209188"><ele>506.0</ele><time>2026-04-24T10:18:50.311Z</time></trkpt><trkpt lat="46.2706755" lon="13.3208726"><ele>506.0</ele><time>2026-04-24T10:18:51.311Z</time></trkpt><trkpt lat="46.2706062" lon="13.3208114"><ele>506.0</ele><time>2026-04-24T10:18:52.311Z</time></trkpt><trkpt lat="46.2705402" lon="13.3207379"><ele>505.99999999999994</ele><time>2026-04-24T10:18:53.31Z</time></trkpt><trkpt lat="46.2704792" lon="13.3206501"><ele>506.0</ele><time>2026-04-24T10:18:54.31Z</time></trkpt><trkpt lat="46.2704208" lon="13.3205725"><ele>504.49999999999994</ele><time>2026-04-24T10:18:55.31Z</time></trkpt><trkpt lat="46.2703681" lon="13.320488"><ele>503.0</ele><time>2026-04-24T10:18:56.31Z</time></trkpt><trkpt lat="46.2703348" lon="13.3203893"><ele>501.5</ele><time>2026-04-24T10:18:57.311Z</time></trkpt><trkpt lat="46.2703263" lon="13.3202839"><ele>500.0</ele><time>2026-04-24T10:18:58.311Z</time></trkpt><trkpt lat="46.2703377" lon="13.3201809"><ele>498.49999999999994</ele><time>2026-04-24T10:18:59.311Z</time></trkpt><trkpt lat="46.2703144" lon="13.3200466"><ele>497.0</ele><time>2026-04-24T10:19:01.31Z</time></trkpt><trkpt lat="46.2702319" lon="13.320045"><ele>497.0</ele><time>2026-04-24T10:19:03.31Z</time></trkpt><trkpt lat="46.2701857" lon="13.3201246"><ele>497.00000000000006</ele><time>2026-04-24T10:19:04.31Z</time></trkpt><trkpt lat="46.2701494" lon="13.3202394"><ele>497.00000000000006</ele><time>2026-04-24T10:19:05.311Z</time></trkpt><trkpt lat="46.2701031" lon="13.3203666"><ele>497.0</ele><time>2026-04-24T10:19:06.311Z</time></trkpt><trkpt lat="46.2700473" lon="13.3204944"><ele>497.0</ele><time>2026-04-24T10:19:07.31Z</time></trkpt><trkpt lat="46.2699687" lon="13.3206269"><ele>495.75</ele><time>2026-04-24T10:19:08.311Z</time></trkpt><trkpt lat="46.2698752" lon="13.3207503"><ele>494.5</ele><time>2026-04-24T10:19:09.311Z</time></trkpt><trkpt lat="46.2697776" lon="13.3208611"><ele>493.25</ele><time>2026-04-24T10:19:10.311Z</time></trkpt><trkpt lat="46.2696905" lon="13.3210036"><ele>492.0</ele><time>2026-04-24T10:19:11.312Z</time></trkpt><trkpt lat="46.2696139" lon="13.3211678"><ele>487.5</ele><time>2026-04-24T10:19:12.311Z</time></trkpt><trkpt lat="46.2695476" lon="13.3213448"><ele>483.0</ele><time>2026-04-24T10:19:13.31Z</time></trkpt><trkpt lat="46.2694849" lon="13.3215203"><ele>478.5</ele><time>2026-04-24T10:19:14.312Z</time></trkpt><trkpt lat="46.2694197" lon="13.3216962"><ele>474.0</ele><time>2026-04-24T10:19:15.311Z</time></trkpt><trkpt lat="46.2693613" lon="13.3218857"><ele>473.25</ele><time>2026-04-24T10:19:16.311Z</time></trkpt><trkpt lat="46.2693182" lon="13.3220856"><ele>472.5</ele><time>2026-04-24T10:19:17.311Z</time></trkpt><trkpt lat="46.2692908" lon="13.3222933"><ele>471.75</ele><time>2026-04-24T10:19:18.311Z</time></trkpt><trkpt lat="46.2692655" lon="13.3224996"><ele>471.0</ele><time>2026-04-24T10:19:19.312Z</time></trkpt><trkpt lat="46.2692418" lon="13.3227074"><ele>470.6</ele><time>2026-04-24T10:19:20.311Z</time></trkpt><trkpt lat="46.2692194" lon="13.3228925"><ele>470.20000000000005</ele><time>2026-04-24T10:19:21.31Z</time></trkpt><trkpt lat="46.269202" lon="13.3230454"><ele>469.79999999999995</ele><time>2026-04-24T10:19:22.31Z</time></trkpt><trkpt lat="46.2691889" lon="13.3231712"><ele>469.4</ele><time>2026-04-24T10:19:23.312Z</time></trkpt><trkpt lat="46.2691953" lon="13.3232697"><ele>469.0</ele><time>2026-04-24T10:19:24.31Z</time></trkpt><trkpt lat="46.2692254" lon="13.3233497"><ele>467.2</ele><time>2026-04-24T10:19:25.311Z</time></trkpt><trkpt lat="46.2693327" lon="13.3234006"><ele>465.4</ele><time>2026-04-24T10:19:27.311Z</time></trkpt><trkpt lat="46.2694034" lon="13.3233651"><ele>463.6</ele><time>2026-04-24T10:19:28.31Z</time></trkpt><trkpt lat="46.2694832" lon="13.3232949"><ele>461.8</ele><time>2026-04-24T10:19:29.311Z</time></trkpt><trkpt lat="46.2695732" lon="13.3232224"><ele>460.0</ele><time>2026-04-24T10:19:30.311Z</time></trkpt><trkpt lat="46.2696545" lon="13.3231578"><ele>460.00000000000006</ele><time>2026-04-24T10:19:31.312Z</time></trkpt><trkpt lat="46.2697287" lon="13.3231129"><ele>460.0</ele><time>2026-04-24T10:19:32.31Z</time></trkpt><trkpt lat="46.2697967" lon="13.3231138"><ele>460.0</ele><time>2026-04-24T10:19:33.312Z</time></trkpt><trkpt lat="46.2698691" lon="13.3232172"><ele>460.0</ele><time>2026-04-24T10:19:35.31Z</time></trkpt><trkpt lat="46.2698673" lon="13.3233109"><ele>460.00000000000006</ele><time>2026-04-24T10:19:36.312Z</time></trkpt><trkpt lat="46.26983" lon="13.3234243"><ele>460.0</ele><time>2026-04-24T10:19:37.312Z</time></trkpt><trkpt lat="46.2697763" lon="13.3235416"><ele>460.0</ele><time>2026-04-24T10:19:38.311Z</time></trkpt><trkpt lat="46.2697202" lon="13.3236883"><ele>460.0</ele><time>2026-04-24T10:19:39.311Z</time></trkpt><trkpt lat="46.2696652" lon="13.3238408"><ele>460.0</ele><time>2026-04-24T10:19:40.311Z</time></trkpt><trkpt lat="46.2696034" lon="13.324002"><ele>460.0</ele><time>2026-04-24T10:19:41.311Z</time></trkpt><trkpt lat="46.2695331" lon="13.3241686"><ele>458.0</ele><time>2026-04-24T10:19:42.311Z</time></trkpt><trkpt lat="46.2694493" lon="13.3243287"><ele>456.0</ele><time>2026-04-24T10:19:43.311Z</time></trkpt><trkpt lat="46.2693524" lon="13.3244698"><ele>454.0</ele><time>2026-04-24T10:19:44.31Z</time></trkpt><trkpt lat="46.2692446" lon="13.3245923"><ele>452.0</ele><time>2026-04-24T10:19:45.311Z</time></trkpt><trkpt lat="46.2691347" lon="13.324719"><ele>452.75</ele><time>2026-04-24T10:19:46.311Z</time></trkpt><trkpt lat="46.2690287" lon="13.3248411"><ele>453.5</ele><time>2026-04-24T10:19:47.312Z</time></trkpt><trkpt lat="46.2689219" lon="13.3249773"><ele>454.25</ele><time>2026-04-24T10:19:48.312Z</time></trkpt><trkpt lat="46.2688168" lon="13.3251232"><ele>455.0</ele><time>2026-04-24T10:19:49.31Z</time></trkpt><trkpt lat="46.2687274" lon="13.3252804"><ele>450.75</ele><time>2026-04-24T10:19:50.312Z</time></trkpt><trkpt lat="46.2686544" lon="13.3254388"><ele>446.5</ele><time>2026-04-24T10:19:51.312Z</time></trkpt><trkpt lat="46.2686035" lon="13.3256116"><ele>442.25</ele><time>2026-04-24T10:19:52.311Z</time></trkpt><trkpt lat="46.2685627" lon="13.3257827"><ele>438.0</ele><time>2026-04-24T10:19:53.311Z</time></trkpt><trkpt lat="46.2685457" lon="13.3259707"><ele>434.0</ele><time>2026-04-24T10:19:54.31Z</time></trkpt><trkpt lat="46.2685159" lon="13.3261478"><ele>430.0</ele><time>2026-04-24T10:19:55.311Z</time></trkpt><trkpt lat="46.2684912" lon="13.326327"><ele>426.0</ele><time>2026-04-24T10:19:56.312Z</time></trkpt><trkpt lat="46.2684686" lon="13.326502"><ele>422.0</ele><time>2026-04-24T10:19:57.311Z</time></trkpt><trkpt lat="46.2684515" lon="13.326675"><ele>423.0</ele><time>2026-04-24T10:19:58.31Z</time></trkpt><trkpt lat="46.2684023" lon="13.3268428"><ele>424.0</ele><time>2026-04-24T10:19:59.311Z</time></trkpt><trkpt lat="46.2683298" lon="13.3270112"><ele>425.0</ele><time>2026-04-24T10:20:00.312Z</time></trkpt><trkpt lat="46.2682412" lon="13.3271657"><ele>426.0</ele><time>2026-04-24T10:20:01.311Z</time></trkpt><trkpt lat="46.2681566" lon="13.3273208"><ele>419.75</ele><time>2026-04-24T10:20:02.311Z</time></trkpt><trkpt lat="46.2680719" lon="13.3274884"><ele>413.5</ele><time>2026-04-24T10:20:03.312Z</time></trkpt><trkpt lat="46.2679993" lon="13.3276597"><ele>407.25</ele><time>2026-04-24T10:20:04.312Z</time></trkpt><trkpt lat="46.2679359" lon="13.3278408"><ele>401.0</ele><time>2026-04-24T10:20:05.311Z</time></trkpt><trkpt lat="46.267875" lon="13.3280244"><ele>400.25</ele><time>2026-04-24T10:20:06.311Z</time></trkpt><trkpt lat="46.2678116" lon="13.3282129"><ele>399.5</ele><time>2026-04-24T10:20:07.311Z</time></trkpt><trkpt lat="46.2677557" lon="13.3284025"><ele>398.75</ele><time>2026-04-24T10:20:08.311Z</time></trkpt><trkpt lat="46.2677027" lon="13.3285715"><ele>398.0</ele><time>2026-04-24T10:20:09.312Z</time></trkpt><trkpt lat="46.2676346" lon="13.3287177"><ele>398.0</ele><time>2026-04-24T10:20:10.31Z</time></trkpt><trkpt lat="46.2675492" lon="13.3288385"><ele>398.0</ele><time>2026-04-24T10:20:11.311Z</time></trkpt><trkpt lat="46.2674541" lon="13.3289411"><ele>398.0</ele><time>2026-04-24T10:20:12.311Z</time></trkpt><trkpt lat="46.2673641" lon="13.3290387"><ele>398.0</ele><time>2026-04-24T10:20:13.311Z</time></trkpt><trkpt lat="46.2672772" lon="13.3291286"><ele>395.59999999999997</ele><time>2026-04-24T10:20:14.311Z</time></trkpt><trkpt lat="46.2671881" lon="13.3292215"><ele>393.2</ele><time>2026-04-24T10:20:15.312Z</time></trkpt><trkpt lat="46.2671123" lon="13.3293094"><ele>390.8</ele><time>2026-04-24T10:20:16.311Z</time></trkpt><trkpt lat="46.2670265" lon="13.3293935"><ele>388.4</ele><time>2026-04-24T10:20:17.312Z</time></trkpt><trkpt lat="46.2669325" lon="13.3294765"><ele>386.0</ele><time>2026-04-24T10:20:18.311Z</time></trkpt><trkpt lat="46.2668277" lon="13.3295527"><ele>386.0</ele><time>2026-04-24T10:20:19.311Z</time></trkpt><trkpt lat="46.2667156" lon="13.3296153"><ele>386.0</ele><time>2026-04-24T10:20:20.31Z</time></trkpt><trkpt lat="46.2665999" lon="13.3296714"><ele>386.0</ele><time>2026-04-24T10:20:21.311Z</time></trkpt><trkpt lat="46.2664787" lon="13.3297234"><ele>386.0</ele><time>2026-04-24T10:20:22.311Z</time></trkpt><trkpt lat="46.2663614" lon="13.3297764"><ele>388.75</ele><time>2026-04-24T10:20:23.311Z</time></trkpt><trkpt lat="46.2662472" lon="13.3298285"><ele>391.5</ele><time>2026-04-24T10:20:24.312Z</time></trkpt><trkpt lat="46.2661328" lon="13.3298798"><ele>394.25</ele><time>2026-04-24T10:20:25.312Z</time></trkpt><trkpt lat="46.2660184" lon="13.3299255"><ele>397.0</ele><time>2026-04-24T10:20:26.31Z</time></trkpt><trkpt lat="46.265901" lon="13.3299455"><ele>397.0</ele><time>2026-04-24T10:20:27.311Z</time></trkpt><trkpt lat="46.2657828" lon="13.3299221"><ele>397.0</ele><time>2026-04-24T10:20:28.312Z</time></trkpt><trkpt lat="46.265663" lon="13.32986"><ele>397.0</ele><time>2026-04-24T10:20:29.311Z</time></trkpt><trkpt lat="46.2655411" lon="13.329772"><ele>397.0</ele><time>2026-04-24T10:20:30.31Z</time></trkpt><trkpt lat="46.265412" lon="13.3296749"><ele>393.6666666666667</ele><time>2026-04-24T10:20:31.311Z</time></trkpt><trkpt lat="46.2652728" lon="13.3295721"><ele>390.33333333333337</ele><time>2026-04-24T10:20:32.312Z</time></trkpt><trkpt lat="46.2651277" lon="13.329462"><ele>387.0</ele><time>2026-04-24T10:20:33.311Z</time></trkpt><trkpt lat="46.2649877" lon="13.3293485"><ele>387.0</ele><time>2026-04-24T10:20:34.311Z</time></trkpt><trkpt lat="46.2648394" lon="13.3292355"><ele>387.0</ele><time>2026-04-24T10:20:35.311Z</time></trkpt><trkpt lat="46.2646824" lon="13.3291203"><ele>387.0</ele><time>2026-04-24T10:20:36.312Z</time></trkpt><trkpt lat="46.2645253" lon="13.3290026"><ele>382.6666666666667</ele><time>2026-04-24T10:20:37.31Z</time></trkpt><trkpt lat="46.2643679" lon="13.3288851"><ele>378.33333333333337</ele><time>2026-04-24T10:20:38.311Z</time></trkpt><trkpt lat="46.2642101" lon="13.32876"><ele>374.0</ele><time>2026-04-24T10:20:39.312Z</time></trkpt><trkpt lat="46.2640528" lon="13.328641"><ele>376.6666666666667</ele><time>2026-04-24T10:20:40.312Z</time></trkpt><trkpt lat="46.2638914" lon="13.328525"><ele>379.3333333333333</ele><time>2026-04-24T10:20:41.311Z</time></trkpt><trkpt lat="46.2637314" lon="13.3284109"><ele>382.0</ele><time>2026-04-24T10:20:42.311Z</time></trkpt><trkpt lat="46.2635693" lon="13.3282939"><ele>382.0</ele><time>2026-04-24T10:20:43.312Z</time></trkpt><trkpt lat="46.2634104" lon="13.3281766"><ele>382.0</ele><time>2026-04-24T10:20:44.311Z</time></trkpt><trkpt lat="46.2632556" lon="13.3280701"><ele>382.0</ele><time>2026-04-24T10:20:45.311Z</time></trkpt><trkpt lat="46.263094" lon="13.327983"><ele>381.3333333333333</ele><time>2026-04-24T10:20:46.31Z</time></trkpt><trkpt lat="46.262932" lon="13.3279345"><ele>380.6666666666667</ele><time>2026-04-24T10:20:47.311Z</time></trkpt><trkpt lat="46.2627632" lon="13.3279069"><ele>380.0</ele><time>2026-04-24T10:20:48.31Z</time></trkpt><trkpt lat="46.2625969" lon="13.3278808"><ele>380.0</ele><time>2026-04-24T10:20:49.311Z</time></trkpt><trkpt lat="46.2624355" lon="13.3278552"><ele>380.0</ele><time>2026-04-24T10:20:50.311Z</time></trkpt><trkpt lat="46.262283" lon="13.3278206"><ele>380.0</ele><time>2026-04-24T10:20:51.312Z</time></trkpt><trkpt lat="46.2621415" lon="13.3277616"><ele>382.25</ele><time>2026-04-24T10:20:52.311Z</time></trkpt><trkpt lat="46.262004" lon="13.3276757"><ele>384.5</ele><time>2026-04-24T10:20:53.311Z</time></trkpt><trkpt lat="46.2618741" lon="13.327576"><ele>386.75</ele><time>2026-04-24T10:20:54.311Z</time></trkpt><trkpt lat="46.2617445" lon="13.3274717"><ele>389.0</ele><time>2026-04-24T10:20:55.312Z</time></trkpt><trkpt lat="46.2616227" lon="13.3273708"><ele>389.0</ele><time>2026-04-24T10:20:56.311Z</time></trkpt><trkpt lat="46.2615047" lon="13.3272647"><ele>389.0</ele><time>2026-04-24T10:20:57.311Z</time></trkpt><trkpt lat="46.2613913" lon="13.3271633"><ele>389.0</ele><time>2026-04-24T10:20:58.311Z</time></trkpt><trkpt lat="46.26128" lon="13.3270726"><ele>389.0</ele><time>2026-04-24T10:20:59.31Z</time></trkpt><trkpt lat="46.2611676" lon="13.3269869"><ele>382.25</ele><time>2026-04-24T10:21:00.31Z</time></trkpt><trkpt lat="46.2610601" lon="13.3269041"><ele>375.5</ele><time>2026-04-24T10:21:01.312Z</time></trkpt><trkpt lat="46.2609624" lon="13.3268031"><ele>368.75</ele><time>2026-04-24T10:21:02.312Z</time></trkpt><trkpt lat="46.2608784" lon="13.3266863"><ele>362.0</ele><time>2026-04-24T10:21:03.311Z</time></trkpt><trkpt lat="46.2607998" lon="13.3265649"><ele>362.0</ele><time>2026-04-24T10:21:04.31Z</time></trkpt><trkpt lat="46.2607173" lon="13.326451"><ele>362.0</ele><time>2026-04-24T10:21:05.31Z</time></trkpt><trkpt lat="46.2606355" lon="13.3263338"><ele>362.0</ele><time>2026-04-24T10:21:06.31Z</time></trkpt><trkpt lat="46.2605481" lon="13.3262309"><ele>362.0</ele><time>2026-04-24T10:21:07.311Z</time></trkpt><trkpt lat="46.2604632" lon="13.3261229"><ele>362.6</ele><time>2026-04-24T10:21:08.31Z</time></trkpt><trkpt lat="46.2603814" lon="13.3260151"><ele>363.20000000000005</ele><time>2026-04-24T10:21:09.312Z</time></trkpt><trkpt lat="46.260315" lon="13.3259054"><ele>363.8</ele><time>2026-04-24T10:21:10.311Z</time></trkpt><trkpt lat="46.2602749" lon="13.3258262"><ele>364.4</ele><time>2026-04-24T10:21:11.312Z</time></trkpt><trkpt lat="46.2602137" lon="13.3256833"><ele>365.0</ele><time>2026-04-24T10:21:13.312Z</time></trkpt><trkpt lat="46.2601976" lon="13.3255807"><ele>364.0</ele><time>2026-04-24T10:21:14.312Z</time></trkpt><trkpt lat="46.2601928" lon="13.3254634"><ele>363.0</ele><time>2026-04-24T10:21:15.31Z</time></trkpt><trkpt lat="46.2601897" lon="13.3253321"><ele>362.0</ele><time>2026-04-24T10:21:16.31Z</time></trkpt><trkpt lat="46.2601899" lon="13.3252103"><ele>361.0</ele><time>2026-04-24T10:21:17.311Z</time></trkpt><trkpt lat="46.2601806" lon="13.3250964"><ele>360.0</ele><time>2026-04-24T10:21:18.31Z</time></trkpt><trkpt lat="46.2601572" lon="13.324988"><ele>359.0</ele><time>2026-04-24T10:21:19.311Z</time></trkpt><trkpt lat="46.2601188" lon="13.3248843"><ele>359.0</ele><time>2026-04-24T10:21:20.312Z</time></trkpt><trkpt lat="46.2600702" lon="13.3247722"><ele>359.0</ele><time>2026-04-24T10:21:21.312Z</time></trkpt><trkpt lat="46.2600092" lon="13.3246661"><ele>359.0</ele><time>2026-04-24T10:21:22.31Z</time></trkpt><trkpt lat="46.2599462" lon="13.3245491"><ele>359.0</ele><time>2026-04-24T10:21:23.311Z</time></trkpt><trkpt lat="46.259885" lon="13.3244238"><ele>359.0</ele><time>2026-04-24T10:21:24.311Z</time></trkpt><trkpt lat="46.2598224" lon="13.3242941"><ele>358.75</ele><time>2026-04-24T10:21:25.311Z</time></trkpt><trkpt lat="46.2597589" lon="13.3241572"><ele>358.5</ele><time>2026-04-24T10:21:26.31Z</time></trkpt><trkpt lat="46.2596866" lon="13.3240156"><ele>358.25</ele><time>2026-04-24T10:21:27.312Z</time></trkpt><trkpt lat="46.2596127" lon="13.3238762"><ele>358.0</ele><time>2026-04-24T10:21:28.31Z</time></trkpt><trkpt lat="46.259546" lon="13.3237353"><ele>356.79999999999995</ele><time>2026-04-24T10:21:29.311Z</time></trkpt><trkpt lat="46.2594823" lon="13.3236061"><ele>355.6</ele><time>2026-04-24T10:21:30.312Z</time></trkpt><trkpt lat="46.2594204" lon="13.3234849"><ele>354.4</ele><time>2026-04-24T10:21:31.311Z</time></trkpt><trkpt lat="46.2593633" lon="13.3233651"><ele>353.20000000000005</ele><time>2026-04-24T10:21:32.309Z</time></trkpt><trkpt lat="46.2592947" lon="13.3232682"><ele>352.0</ele><time>2026-04-24T10:21:33.311Z</time></trkpt><trkpt lat="46.259211" lon="13.3231958"><ele>352.0</ele><time>2026-04-24T10:21:34.309Z</time></trkpt><trkpt lat="46.2591173" lon="13.3231371"><ele>352.0</ele><time>2026-04-24T10:21:35.31Z</time></trkpt><trkpt lat="46.2590158" lon="13.3230968"><ele>352.0</ele><time>2026-04-24T10:21:36.311Z</time></trkpt><trkpt lat="46.258913" lon="13.3230593"><ele>352.0</ele><time>2026-04-24T10:21:37.31Z</time></trkpt><trkpt lat="46.2588157" lon="13.3230351"><ele>352.0</ele><time>2026-04-24T10:21:38.31Z</time></trkpt><trkpt lat="46.2587221" lon="13.3230206"><ele>351.8</ele><time>2026-04-24T10:21:39.31Z</time></trkpt><trkpt lat="46.2586289" lon="13.3230259"><ele>351.6</ele><time>2026-04-24T10:21:40.309Z</time></trkpt><trkpt lat="46.2585256" lon="13.3230585"><ele>351.40000000000003</ele><time>2026-04-24T10:21:41.311Z</time></trkpt><trkpt lat="46.2584136" lon="13.3231057"><ele>351.20000000000005</ele><time>2026-04-24T10:21:42.31Z</time></trkpt><trkpt lat="46.2582878" lon="13.3231576"><ele>351.0</ele><time>2026-04-24T10:21:43.311Z</time></trkpt><trkpt lat="46.2581486" lon="13.3232082"><ele>353.6666666666667</ele><time>2026-04-24T10:21:44.311Z</time></trkpt><trkpt lat="46.2580077" lon="13.3232641"><ele>356.33333333333337</ele><time>2026-04-24T10:21:45.309Z</time></trkpt><trkpt lat="46.2578599" lon="13.3233151"><ele>359.0</ele><time>2026-04-24T10:21:46.31Z</time></trkpt><trkpt lat="46.2577096" lon="13.3233638"><ele>359.0</ele><time>2026-04-24T10:21:47.31Z</time></trkpt><trkpt lat="46.2575573" lon="13.3234065"><ele>359.0</ele><time>2026-04-24T10:21:48.31Z</time></trkpt><trkpt lat="46.2574002" lon="13.3234429"><ele>359.0</ele><time>2026-04-24T10:21:49.31Z</time></trkpt><trkpt lat="46.257241" lon="13.3234763"><ele>360.33333333333337</ele><time>2026-04-24T10:21:50.311Z</time></trkpt><trkpt lat="46.2570876" lon="13.3235021"><ele>361.6666666666667</ele><time>2026-04-24T10:21:51.31Z</time></trkpt><trkpt lat="46.2569318" lon="13.3235158"><ele>363.0</ele><time>2026-04-24T10:21:52.309Z</time></trkpt><trkpt lat="46.2567712" lon="13.3235085"><ele>363.0</ele><time>2026-04-24T10:21:53.309Z</time></trkpt><trkpt lat="46.2566138" lon="13.3234763"><ele>363.0</ele><time>2026-04-24T10:21:54.31Z</time></trkpt><trkpt lat="46.2564598" lon="13.3234196"><ele>363.0</ele><time>2026-04-24T10:21:55.309Z</time></trkpt><trkpt lat="46.2563081" lon="13.3233437"><ele>363.5</ele><time>2026-04-24T10:21:56.31Z</time></trkpt><trkpt lat="46.2561603" lon="13.3232592"><ele>364.0</ele><time>2026-04-24T10:21:57.311Z</time></trkpt><trkpt lat="46.2560283" lon="13.3231793"><ele>364.5</ele><time>2026-04-24T10:21:58.311Z</time></trkpt><trkpt lat="46.255904" lon="13.3231035"><ele>365.0</ele><time>2026-04-24T10:21:59.31Z</time></trkpt><trkpt lat="46.2557879" lon="13.3230243"><ele>365.75</ele><time>2026-04-24T10:22:00.309Z</time></trkpt><trkpt lat="46.2556859" lon="13.3229367"><ele>366.5</ele><time>2026-04-24T10:22:01.311Z</time></trkpt><trkpt lat="46.2555951" lon="13.3228363"><ele>367.25</ele><time>2026-04-24T10:22:02.311Z</time></trkpt><trkpt lat="46.2555076" lon="13.3227258"><ele>368.0</ele><time>2026-04-24T10:22:03.31Z</time></trkpt><trkpt lat="46.2554288" lon="13.3226008"><ele>368.0</ele><time>2026-04-24T10:22:04.311Z</time></trkpt><trkpt lat="46.2553572" lon="13.3224611"><ele>368.0</ele><time>2026-04-24T10:22:05.31Z</time></trkpt><trkpt lat="46.2552933" lon="13.3223169"><ele>368.0</ele><time>2026-04-24T10:22:06.31Z</time></trkpt><trkpt lat="46.2552388" lon="13.3221818"><ele>368.0</ele><time>2026-04-24T10:22:07.31Z</time></trkpt><trkpt lat="46.2551998" lon="13.3220411"><ele>367.33333333333337</ele><time>2026-04-24T10:22:08.31Z</time></trkpt><trkpt lat="46.2551851" lon="13.3219031"><ele>366.6666666666667</ele><time>2026-04-24T10:22:09.309Z</time></trkpt><trkpt lat="46.2551932" lon="13.3217794"><ele>366.0</ele><time>2026-04-24T10:22:10.31Z</time></trkpt><trkpt lat="46.2552084" lon="13.3216692"><ele>365.3333333333333</ele><time>2026-04-24T10:22:11.311Z</time></trkpt><trkpt lat="46.2552136" lon="13.3215644"><ele>364.66666666666663</ele><time>2026-04-24T10:22:12.309Z</time></trkpt><trkpt lat="46.2552018" lon="13.321461"><ele>364.0</ele><time>2026-04-24T10:22:13.31Z</time></trkpt><trkpt lat="46.2551695" lon="13.3213587"><ele>361.2</ele><time>2026-04-24T10:22:14.309Z</time></trkpt><trkpt lat="46.2551098" lon="13.3212705"><ele>358.4</ele><time>2026-04-24T10:22:15.31Z</time></trkpt><trkpt lat="46.2550288" lon="13.3211849"><ele>355.6</ele><time>2026-04-24T10:22:16.31Z</time></trkpt><trkpt lat="46.2549369" lon="13.3210839"><ele>352.8</ele><time>2026-04-24T10:22:17.311Z</time></trkpt><trkpt lat="46.2548398" lon="13.3209884"><ele>350.0</ele><time>2026-04-24T10:22:18.31Z</time></trkpt><trkpt lat="46.2547378" lon="13.3208859"><ele>353.0</ele><time>2026-04-24T10:22:19.311Z</time></trkpt><trkpt lat="46.2546307" lon="13.3207773"><ele>356.0</ele><time>2026-04-24T10:22:20.31Z</time></trkpt><trkpt lat="46.2545055" lon="13.3206878"><ele>359.0</ele><time>2026-04-24T10:22:21.31Z</time></trkpt><trkpt lat="46.2543782" lon="13.3206016"><ele>362.0</ele><time>2026-04-24T10:22:22.309Z</time></trkpt><trkpt lat="46.2542374" lon="13.3205331"><ele>362.0</ele><time>2026-04-24T10:22:23.31Z</time></trkpt><trkpt lat="46.2540968" lon="13.3204378"><ele>362.0</ele><time>2026-04-24T10:22:24.309Z</time></trkpt><trkpt lat="46.2539512" lon="13.3203582"><ele>362.0</ele><time>2026-04-24T10:22:25.31Z</time></trkpt><trkpt lat="46.2538104" lon="13.3202786"><ele>361.33333333333337</ele><time>2026-04-24T10:22:26.31Z</time></trkpt><trkpt lat="46.2536739" lon="13.3201839"><ele>360.6666666666667</ele><time>2026-04-24T10:22:27.31Z</time></trkpt><trkpt lat="46.2535435" lon="13.320055"><ele>360.0</ele><time>2026-04-24T10:22:28.31Z</time></trkpt><trkpt lat="46.2534141" lon="13.3199069"><ele>360.0</ele><time>2026-04-24T10:22:29.309Z</time></trkpt><trkpt lat="46.2532838" lon="13.3197733"><ele>360.0</ele><time>2026-04-24T10:22:30.309Z</time></trkpt><trkpt lat="46.253166" lon="13.3196328"><ele>360.0</ele><time>2026-04-24T10:22:31.31Z</time></trkpt><trkpt lat="46.2530549" lon="13.3194935"><ele>356.75</ele><time>2026-04-24T10:22:32.311Z</time></trkpt><trkpt lat="46.2529445" lon="13.319359"><ele>353.5</ele><time>2026-04-24T10:22:33.311Z</time></trkpt><trkpt lat="46.2528317" lon="13.3192348"><ele>350.25</ele><time>2026-04-24T10:22:34.31Z</time></trkpt><trkpt lat="46.2527309" lon="13.319101"><ele>347.0</ele><time>2026-04-24T10:22:35.31Z</time></trkpt><trkpt lat="46.2526198" lon="13.3189879"><ele>346.5</ele><time>2026-04-24T10:22:36.31Z</time></trkpt><trkpt lat="46.2525006" lon="13.3188941"><ele>346.0</ele><time>2026-04-24T10:22:37.311Z</time></trkpt><trkpt lat="46.252383" lon="13.3187976"><ele>345.5</ele><time>2026-04-24T10:22:38.31Z</time></trkpt><trkpt lat="46.2522716" lon="13.3187159"><ele>345.0</ele><time>2026-04-24T10:22:39.31Z</time></trkpt><trkpt lat="46.2521787" lon="13.3186356"><ele>344.5</ele><time>2026-04-24T10:22:40.311Z</time></trkpt><trkpt lat="46.2521003" lon="13.3185687"><ele>344.0</ele><time>2026-04-24T10:22:41.31Z</time></trkpt><trkpt lat="46.2520381" lon="13.3185212"><ele>343.5</ele><time>2026-04-24T10:22:42.311Z</time></trkpt><trkpt lat="46.2519712" lon="13.3184995"><ele>343.0</ele><time>2026-04-24T10:22:44.31Z</time></trkpt><trkpt lat="46.2519289" lon="13.3186036"><ele>342.5</ele><time>2026-04-24T10:22:46.311Z</time></trkpt><trkpt lat="46.2519164" lon="13.3187046"><ele>342.0</ele><time>2026-04-24T10:22:47.311Z</time></trkpt><trkpt lat="46.2518847" lon="13.3188586"><ele>343.75</ele><time>2026-04-24T10:22:48.31Z</time></trkpt><trkpt lat="46.251839" lon="13.3190192"><ele>345.5</ele><time>2026-04-24T10:22:49.31Z</time></trkpt><trkpt lat="46.2517838" lon="13.3191839"><ele>347.25</ele><time>2026-04-24T10:22:50.311Z</time></trkpt><trkpt lat="46.2517152" lon="13.3193678"><ele>349.0</ele><time>2026-04-24T10:22:51.31Z</time></trkpt><trkpt lat="46.2516487" lon="13.3195479"><ele>349.0</ele><time>2026-04-24T10:22:52.31Z</time></trkpt><trkpt lat="46.2515783" lon="13.3197225"><ele>349.0</ele><time>2026-04-24T10:22:53.31Z</time></trkpt><trkpt lat="46.251492" lon="13.3198875"><ele>349.0</ele><time>2026-04-24T10:22:54.31Z</time></trkpt><trkpt lat="46.2513985" lon="13.3200395"><ele>349.0</ele><time>2026-04-24T10:22:55.31Z</time></trkpt><trkpt lat="46.251315" lon="13.320194"><ele>355.25</ele><time>2026-04-24T10:22:56.309Z</time></trkpt><trkpt lat="46.2512536" lon="13.3203588"><ele>361.5</ele><time>2026-04-24T10:22:57.31Z</time></trkpt><trkpt lat="46.2512182" lon="13.3205286"><ele>367.75</ele><time>2026-04-24T10:22:58.31Z</time></trkpt><trkpt lat="46.2512136" lon="13.320698"><ele>374.0</ele><time>2026-04-24T10:22:59.31Z</time></trkpt><trkpt lat="46.2512381" lon="13.3208582"><ele>374.0</ele><time>2026-04-24T10:23:00.309Z</time></trkpt><trkpt lat="46.2512612" lon="13.3210181"><ele>374.0</ele><time>2026-04-24T10:23:01.309Z</time></trkpt><trkpt lat="46.2512719" lon="13.3211798"><ele>374.0</ele><time>2026-04-24T10:23:02.31Z</time></trkpt><trkpt lat="46.2512527" lon="13.3213363"><ele>374.0</ele><time>2026-04-24T10:23:03.31Z</time></trkpt><trkpt lat="46.2512102" lon="13.3214949"><ele>370.75</ele><time>2026-04-24T10:23:04.31Z</time></trkpt><trkpt lat="46.2511338" lon="13.3216436"><ele>367.5</ele><time>2026-04-24T10:23:05.31Z</time></trkpt><trkpt lat="46.2510532" lon="13.3217956"><ele>364.25</ele><time>2026-04-24T10:23:06.31Z</time></trkpt><trkpt lat="46.2509653" lon="13.3219556"><ele>361.0</ele><time>2026-04-24T10:23:07.31Z</time></trkpt><trkpt lat="46.2508747" lon="13.3221205"><ele>360.3333333333333</ele><time>2026-04-24T10:23:08.31Z</time></trkpt><trkpt lat="46.2507756" lon="13.3222751"><ele>359.6666666666667</ele><time>2026-04-24T10:23:09.311Z</time></trkpt><trkpt lat="46.2506567" lon="13.3224092"><ele>359.0</ele><time>2026-04-24T10:23:10.309Z</time></trkpt><trkpt lat="46.2505167" lon="13.3225431"><ele>363.6666666666667</ele><time>2026-04-24T10:23:11.31Z</time></trkpt><trkpt lat="46.2503686" lon="13.3226881"><ele>368.3333333333333</ele><time>2026-04-24T10:23:12.311Z</time></trkpt><trkpt lat="46.2502177" lon="13.3228339"><ele>373.0</ele><time>2026-04-24T10:23:13.309Z</time></trkpt><trkpt lat="46.2500747" lon="13.3229734"><ele>376.0</ele><time>2026-04-24T10:23:14.31Z</time></trkpt><trkpt lat="46.2499277" lon="13.3231093"><ele>379.0</ele><time>2026-04-24T10:23:15.309Z</time></trkpt><trkpt lat="46.2497825" lon="13.3232445"><ele>382.0</ele><time>2026-04-24T10:23:16.309Z</time></trkpt><trkpt lat="46.2496402" lon="13.3233876"><ele>382.0</ele><time>2026-04-24T10:23:17.311Z</time></trkpt><trkpt lat="46.2495105" lon="13.3235496"><ele>382.0</ele><time>2026-04-24T10:23:18.311Z</time></trkpt><trkpt lat="46.2493918" lon="13.32373"><ele>382.0</ele><time>2026-04-24T10:23:19.311Z</time></trkpt><trkpt lat="46.2492941" lon="13.3239338"><ele>377.0</ele><time>2026-04-24T10:23:20.31Z</time></trkpt><trkpt lat="46.2492158" lon="13.324153"><ele>372.0</ele><time>2026-04-24T10:23:21.311Z</time></trkpt><trkpt lat="46.2491498" lon="13.3243847"><ele>367.0</ele><time>2026-04-24T10:23:22.31Z</time></trkpt><trkpt lat="46.2490803" lon="13.3246187"><ele>367.3333333333333</ele><time>2026-04-24T10:23:23.31Z</time></trkpt><trkpt lat="46.2490176" lon="13.3248398"><ele>367.6666666666667</ele><time>2026-04-24T10:23:24.311Z</time></trkpt><trkpt lat="46.2489332" lon="13.3250446"><ele>368.0</ele><time>2026-04-24T10:23:25.311Z</time></trkpt><trkpt lat="46.2488512" lon="13.3252334"><ele>370.75</ele><time>2026-04-24T10:23:26.31Z</time></trkpt><trkpt lat="46.2487782" lon="13.3254264"><ele>373.5</ele><time>2026-04-24T10:23:27.31Z</time></trkpt><trkpt lat="46.2487222" lon="13.3256132"><ele>376.25</ele><time>2026-04-24T10:23:28.311Z</time></trkpt><trkpt lat="46.2486664" lon="13.3257822"><ele>379.0</ele><time>2026-04-24T10:23:29.31Z</time></trkpt><trkpt lat="46.2486088" lon="13.3259292"><ele>379.0</ele><time>2026-04-24T10:23:30.31Z</time></trkpt><trkpt lat="46.2485482" lon="13.3260575"><ele>379.0</ele><time>2026-04-24T10:23:31.309Z</time></trkpt><trkpt lat="46.2484368" lon="13.3261342"><ele>379.0</ele><time>2026-04-24T10:23:32.309Z</time></trkpt><trkpt lat="46.2483412" lon="13.3262255"><ele>379.0</ele><time>2026-04-24T10:23:33.309Z</time></trkpt><trkpt lat="46.2482346" lon="13.3263073"><ele>384.0</ele><time>2026-04-24T10:23:34.31Z</time></trkpt><trkpt lat="46.2481113" lon="13.3263636"><ele>389.0</ele><time>2026-04-24T10:23:35.31Z</time></trkpt><trkpt lat="46.2479823" lon="13.326384"><ele>394.0</ele><time>2026-04-24T10:23:36.309Z</time></trkpt><trkpt lat="46.2478444" lon="13.3263759"><ele>399.0</ele><time>2026-04-24T10:23:37.309Z</time></trkpt><trkpt lat="46.2477098" lon="13.326363"><ele>399.0</ele><time>2026-04-24T10:23:38.309Z</time></trkpt><trkpt lat="46.2475779" lon="13.3263552"><ele>399.0</ele><time>2026-04-24T10:23:39.31Z</time></trkpt><trkpt lat="46.2474507" lon="13.3263972"><ele>399.0</ele><time>2026-04-24T10:23:40.311Z</time></trkpt><trkpt lat="46.2473353" lon="13.3264616"><ele>399.0</ele><time>2026-04-24T10:23:41.31Z</time></trkpt><trkpt lat="46.2472279" lon="13.3265704"><ele>396.5</ele><time>2026-04-24T10:23:42.31Z</time></trkpt><trkpt lat="46.247135" lon="13.3267056"><ele>394.0</ele><time>2026-04-24T10:23:43.31Z</time></trkpt><trkpt lat="46.2470385" lon="13.3268443"><ele>391.5</ele><time>2026-04-24T10:23:44.31Z</time></trkpt><trkpt lat="46.2469409" lon="13.3269482"><ele>389.0</ele><time>2026-04-24T10:23:45.309Z</time></trkpt><trkpt lat="46.24684" lon="13.3270187"><ele>389.0</ele><time>2026-04-24T10:23:46.311Z</time></trkpt><trkpt lat="46.2467391" lon="13.3270615"><ele>389.0</ele><time>2026-04-24T10:23:47.31Z</time></trkpt><trkpt lat="46.246624" lon="13.3270723"><ele>389.0</ele><time>2026-04-24T10:23:48.31Z</time></trkpt><trkpt lat="46.246527" lon="13.3271053"><ele>389.0</ele><time>2026-04-24T10:23:49.31Z</time></trkpt><trkpt lat="46.24648" lon="13.3271929"><ele>389.0</ele><time>2026-04-24T10:23:50.31Z</time></trkpt><trkpt lat="46.2464443" lon="13.3272758"><ele>389.0</ele><time>2026-04-24T10:23:51.309Z</time></trkpt><trkpt lat="46.2464311" lon="13.327451"><ele>389.0</ele><time>2026-04-24T10:23:53.311Z</time></trkpt><trkpt lat="46.2465074" lon="13.3275463"><ele>389.0</ele><time>2026-04-24T10:23:54.311Z</time></trkpt><trkpt lat="46.2465631" lon="13.3276175"><ele>389.0</ele><time>2026-04-24T10:23:55.31Z</time></trkpt><trkpt lat="46.2466494" lon="13.3276626"><ele>389.0</ele><time>2026-04-24T10:23:56.31Z</time></trkpt><trkpt lat="46.2467568" lon="13.3276719"><ele>383.75</ele><time>2026-04-24T10:23:57.31Z</time></trkpt><trkpt lat="46.2468906" lon="13.3276584"><ele>378.5</ele><time>2026-04-24T10:23:58.31Z</time></trkpt><trkpt lat="46.2470338" lon="13.3276175"><ele>373.25</ele><time>2026-04-24T10:23:59.311Z</time></trkpt><trkpt lat="46.2471676" lon="13.3275642"><ele>368.0</ele><time>2026-04-24T10:24:00.311Z</time></trkpt><trkpt lat="46.2472773" lon="13.3275008"><ele>369.59999999999997</ele><time>2026-04-24T10:24:01.31Z</time></trkpt><trkpt lat="46.2473673" lon="13.3274137"><ele>371.2</ele><time>2026-04-24T10:24:02.31Z</time></trkpt><trkpt lat="46.2474402" lon="13.3273084"><ele>372.8</ele><time>2026-04-24T10:24:03.31Z</time></trkpt><trkpt lat="46.2474984" lon="13.3272108"><ele>374.4</ele><time>2026-04-24T10:24:04.309Z</time></trkpt><trkpt lat="46.2475645" lon="13.3271414"><ele>376.0</ele><time>2026-04-24T10:24:05.31Z</time></trkpt><trkpt lat="46.2476423" lon="13.3271158"><ele>376.0</ele><time>2026-04-24T10:24:06.311Z</time></trkpt><trkpt lat="46.2477265" lon="13.3271329"><ele>376.0</ele><time>2026-04-24T10:24:07.31Z</time></trkpt><trkpt lat="46.2478232" lon="13.3271606"><ele>376.0</ele><time>2026-04-24T10:24:08.31Z</time></trkpt><trkpt lat="46.2479347" lon="13.3271939"><ele>376.0</ele><time>2026-04-24T10:24:09.31Z</time></trkpt><trkpt lat="46.248049" lon="13.3272286"><ele>376.0</ele><time>2026-04-24T10:24:10.31Z</time></trkpt><trkpt lat="46.2481547" lon="13.3272392"><ele>375.6</ele><time>2026-04-24T10:24:11.31Z</time></trkpt><trkpt lat="46.2482585" lon="13.3272126"><ele>375.20000000000005</ele><time>2026-04-24T10:24:12.309Z</time></trkpt><trkpt lat="46.2483578" lon="13.3271505"><ele>374.79999999999995</ele><time>2026-04-24T10:24:13.311Z</time></trkpt><trkpt lat="46.2484595" lon="13.3270694"><ele>374.4</ele><time>2026-04-24T10:24:14.311Z</time></trkpt><trkpt lat="46.2485578" lon="13.3269873"><ele>374.0</ele><time>2026-04-24T10:24:15.309Z</time></trkpt><trkpt lat="46.248642" lon="13.3269152"><ele>374.0</ele><time>2026-04-24T10:24:16.309Z</time></trkpt><trkpt lat="46.2487053" lon="13.3268787"><ele>374.0</ele><time>2026-04-24T10:24:17.31Z</time></trkpt><trkpt lat="46.2487774" lon="13.3269597"><ele>374.0</ele><time>2026-04-24T10:24:19.311Z</time></trkpt><trkpt lat="46.2487193" lon="13.3270796"><ele>374.0</ele><time>2026-04-24T10:24:21.311Z</time></trkpt><trkpt lat="46.248645" lon="13.3271286"><ele>374.0</ele><time>2026-04-24T10:24:22.311Z</time></trkpt><trkpt lat="46.2485388" lon="13.3272014"><ele>382.0</ele><time>2026-04-24T10:24:23.309Z</time></trkpt><trkpt lat="46.2484304" lon="13.3273074"><ele>390.0</ele><time>2026-04-24T10:24:24.309Z</time></trkpt><trkpt lat="46.2483402" lon="13.3274249"><ele>398.0</ele><time>2026-04-24T10:24:25.311Z</time></trkpt><trkpt lat="46.2482392" lon="13.3274955"><ele>406.0</ele><time>2026-04-24T10:24:26.31Z</time></trkpt><trkpt lat="46.2481284" lon="13.3275119"><ele>403.0</ele><time>2026-04-24T10:24:27.311Z</time></trkpt><trkpt lat="46.2480226" lon="13.3275213"><ele>400.0</ele><time>2026-04-24T10:24:28.311Z</time></trkpt><trkpt lat="46.2479212" lon="13.3275292"><ele>397.0</ele><time>2026-04-24T10:24:29.31Z</time></trkpt><trkpt lat="46.2478286" lon="13.3275348"><ele>394.0</ele><time>2026-04-24T10:24:30.31Z</time></trkpt><trkpt lat="46.2477633" lon="13.327559"><ele>391.0</ele><time>2026-04-24T10:24:31.31Z</time></trkpt><trkpt lat="46.2477084" lon="13.3277112"><ele>391.0</ele><time>2026-04-24T10:24:32.309Z</time></trkpt><trkpt lat="46.2477206" lon="13.3279593"><ele>391.0</ele><time>2026-04-24T10:24:33.309Z</time></trkpt><trkpt lat="46.2476641" lon="13.328093"><ele>391.0</ele><time>2026-04-24T10:24:34.311Z</time></trkpt><trkpt lat="46.2475839" lon="13.3282243"><ele>391.0</ele><time>2026-04-24T10:24:35.309Z</time></trkpt><trkpt lat="46.2474807" lon="13.3283209"><ele>389.25</ele><time>2026-04-24T10:24:36.309Z</time></trkpt><trkpt lat="46.2473636" lon="13.3283924"><ele>387.5</ele><time>2026-04-24T10:24:37.309Z</time></trkpt><trkpt lat="46.2472359" lon="13.3284599"><ele>385.75</ele><time>2026-04-24T10:24:38.309Z</time></trkpt><trkpt lat="46.2471125" lon="13.3285508"><ele>384.0</ele><time>2026-04-24T10:24:39.31Z</time></trkpt><trkpt lat="46.2470022" lon="13.3286764"><ele>384.0</ele><time>2026-04-24T10:24:40.309Z</time></trkpt><trkpt lat="46.2468942" lon="13.3288051"><ele>384.0</ele><time>2026-04-24T10:24:41.31Z</time></trkpt><trkpt lat="46.2467925" lon="13.3289425"><ele>384.0</ele><time>2026-04-24T10:24:42.31Z</time></trkpt><trkpt lat="46.2467001" lon="13.3290617"><ele>384.0</ele><time>2026-04-24T10:24:43.311Z</time></trkpt><trkpt lat="46.2466248" lon="13.3291987"><ele>391.75</ele><time>2026-04-24T10:24:44.311Z</time></trkpt><trkpt lat="46.2465684" lon="13.3293469"><ele>399.5</ele><time>2026-04-24T10:24:45.31Z</time></trkpt><trkpt lat="46.2465382" lon="13.3295218"><ele>407.25</ele><time>2026-04-24T10:24:46.309Z</time></trkpt><trkpt lat="46.2465182" lon="13.3297477"><ele>415.0</ele><time>2026-04-24T10:24:47.31Z</time></trkpt><trkpt lat="46.2464614" lon="13.3299439"><ele>409.6666666666667</ele><time>2026-04-24T10:24:48.31Z</time></trkpt><trkpt lat="46.246385" lon="13.330128"><ele>404.33333333333337</ele><time>2026-04-24T10:24:49.309Z</time></trkpt><trkpt lat="46.2463089" lon="13.3303178"><ele>399.0</ele><time>2026-04-24T10:24:50.31Z</time></trkpt><trkpt lat="46.2462259" lon="13.3305012"><ele>408.33333333333337</ele><time>2026-04-24T10:24:51.309Z</time></trkpt><trkpt lat="46.2461466" lon="13.3306995"><ele>417.6666666666667</ele><time>2026-04-24T10:24:52.31Z</time></trkpt><trkpt lat="46.2460655" lon="13.3308976"><ele>427.0</ele><time>2026-04-24T10:24:53.308Z</time></trkpt><trkpt lat="46.2459845" lon="13.3310989"><ele>427.0</ele><time>2026-04-24T10:24:54.309Z</time></trkpt><trkpt lat="46.2458969" lon="13.3313005"><ele>427.0</ele><time>2026-04-24T10:24:55.31Z</time></trkpt><trkpt lat="46.2458135" lon="13.3315077"><ele>427.0</ele><time>2026-04-24T10:24:56.308Z</time></trkpt><trkpt lat="46.2457337" lon="13.3317212"><ele>425.6666666666667</ele><time>2026-04-24T10:24:57.31Z</time></trkpt><trkpt lat="46.2456518" lon="13.3319399"><ele>424.33333333333337</ele><time>2026-04-24T10:24:58.308Z</time></trkpt><trkpt lat="46.2455706" lon="13.3321628"><ele>423.0</ele><time>2026-04-24T10:24:59.309Z</time></trkpt><trkpt lat="46.245484" lon="13.3323809"><ele>423.0</ele><time>2026-04-24T10:25:00.309Z</time></trkpt><trkpt lat="46.2454027" lon="13.3326075"><ele>423.0</ele><time>2026-04-24T10:25:01.309Z</time></trkpt><trkpt lat="46.2453218" lon="13.332837"><ele>423.0</ele><time>2026-04-24T10:25:02.308Z</time></trkpt><trkpt lat="46.2452415" lon="13.3330684"><ele>431.0</ele><time>2026-04-24T10:25:03.309Z</time></trkpt><trkpt lat="46.2451643" lon="13.3332958"><ele>439.0</ele><time>2026-04-24T10:25:04.308Z</time></trkpt><trkpt lat="46.245098" lon="13.3335127"><ele>447.0</ele><time>2026-04-24T10:25:05.309Z</time></trkpt><trkpt lat="46.2450432" lon="13.3337127"><ele>451.20000000000005</ele><time>2026-04-24T10:25:06.309Z</time></trkpt><trkpt lat="46.2449978" lon="13.333895"><ele>455.40000000000003</ele><time>2026-04-24T10:25:07.308Z</time></trkpt><trkpt lat="46.2449518" lon="13.3340532"><ele>459.59999999999997</ele><time>2026-04-24T10:25:08.309Z</time></trkpt><trkpt lat="46.2448969" lon="13.3341768"><ele>463.79999999999995</ele><time>2026-04-24T10:25:09.309Z</time></trkpt><trkpt lat="46.2448267" lon="13.3342626"><ele>468.0</ele><time>2026-04-24T10:25:10.31Z</time></trkpt><trkpt lat="46.2447459" lon="13.3343298"><ele>467.79999999999995</ele><time>2026-04-24T10:25:11.309Z</time></trkpt><trkpt lat="46.2446727" lon="13.3343815"><ele>467.59999999999997</ele><time>2026-04-24T10:25:12.308Z</time></trkpt><trkpt lat="46.2446229" lon="13.3344402"><ele>467.40000000000003</ele><time>2026-04-24T10:25:13.309Z</time></trkpt><trkpt lat="46.2446349" lon="13.3345812"><ele>467.20000000000005</ele><time>2026-04-24T10:25:15.31Z</time></trkpt><trkpt lat="46.2446982" lon="13.3346654"><ele>467.0</ele><time>2026-04-24T10:25:16.308Z</time></trkpt><trkpt lat="46.2448004" lon="13.3347564"><ele>467.0</ele><time>2026-04-24T10:25:17.308Z</time></trkpt><trkpt lat="46.2449241" lon="13.334898"><ele>467.0</ele><time>2026-04-24T10:25:18.309Z</time></trkpt><trkpt lat="46.2450408" lon="13.3350693"><ele>467.0</ele><time>2026-04-24T10:25:19.309Z</time></trkpt><trkpt lat="46.2451532" lon="13.3352525"><ele>467.0</ele><time>2026-04-24T10:25:20.308Z</time></trkpt><trkpt lat="46.2452735" lon="13.3354392"><ele>467.0</ele><time>2026-04-24T10:25:21.309Z</time></trkpt><trkpt lat="46.2453828" lon="13.3356017"><ele>467.0</ele><time>2026-04-24T10:25:22.308Z</time></trkpt><trkpt lat="46.2454787" lon="13.3357596"><ele>463.5</ele><time>2026-04-24T10:25:23.309Z</time></trkpt><trkpt lat="46.2455643" lon="13.335916"><ele>460.0</ele><time>2026-04-24T10:25:24.309Z</time></trkpt><trkpt lat="46.2456337" lon="13.3360745"><ele>456.5</ele><time>2026-04-24T10:25:25.308Z</time></trkpt><trkpt lat="46.2456927" lon="13.3362359"><ele>453.0</ele><time>2026-04-24T10:25:26.31Z</time></trkpt><trkpt lat="46.245741" lon="13.3363844"><ele>458.1666666666667</ele><time>2026-04-24T10:25:27.309Z</time></trkpt><trkpt lat="46.2457792" lon="13.3365203"><ele>463.33333333333337</ele><time>2026-04-24T10:25:28.309Z</time></trkpt><trkpt lat="46.2457996" lon="13.3366485"><ele>468.5</ele><time>2026-04-24T10:25:29.309Z</time></trkpt><trkpt lat="46.2457899" lon="13.3367602"><ele>473.6666666666667</ele><time>2026-04-24T10:25:30.31Z</time></trkpt><trkpt lat="46.2457619" lon="13.3368609"><ele>478.83333333333337</ele><time>2026-04-24T10:25:31.308Z</time></trkpt><trkpt lat="46.2457243" lon="13.3369538"><ele>484.0</ele><time>2026-04-24T10:25:32.31Z</time></trkpt><trkpt lat="46.2456868" lon="13.3370393"><ele>484.0</ele><time>2026-04-24T10:25:33.309Z</time></trkpt><trkpt lat="46.2456964" lon="13.3372056"><ele>484.0</ele><time>2026-04-24T10:25:35.31Z</time></trkpt><trkpt lat="46.2457664" lon="13.3373104"><ele>484.0</ele><time>2026-04-24T10:25:37.309Z</time></trkpt><trkpt lat="46.2458664" lon="13.3373988"><ele>484.0</ele><time>2026-04-24T10:25:39.309Z</time></trkpt><trkpt lat="46.2459243" lon="13.3374461"><ele>484.0</ele><time>2026-04-24T10:25:40.31Z</time></trkpt><trkpt lat="46.2459821" lon="13.3374868"><ele>484.00000000000006</ele><time>2026-04-24T10:25:41.308Z</time></trkpt><trkpt lat="46.2460701" lon="13.3374897"><ele>484.0</ele><time>2026-04-24T10:25:43.31Z</time></trkpt><trkpt lat="46.2461218" lon="13.3374148"><ele>484.0</ele><time>2026-04-24T10:25:45.31Z</time></trkpt><trkpt lat="46.2461199" lon="13.3372892"><ele>484.0</ele><time>2026-04-24T10:25:47.31Z</time></trkpt><trkpt lat="46.2460916" lon="13.3371624"><ele>484.00000000000006</ele><time>2026-04-24T10:25:49.31Z</time></trkpt><trkpt lat="46.2460626" lon="13.3370502"><ele>484.0</ele><time>2026-04-24T10:25:51.309Z</time></trkpt><trkpt lat="46.2460371" lon="13.3369382"><ele>484.0</ele><time>2026-04-24T10:25:53.308Z</time></trkpt><trkpt lat="46.2460149" lon="13.3368172"><ele>484.0</ele><time>2026-04-24T10:25:55.31Z</time></trkpt><trkpt lat="46.2459887" lon="13.3366829"><ele>484.0</ele><time>2026-04-24T10:25:57.309Z</time></trkpt><trkpt lat="46.2459526" lon="13.3365382"><ele>484.0</ele><time>2026-04-24T10:25:59.309Z</time></trkpt><trkpt lat="46.2459232" lon="13.3363642"><ele>484.0</ele><time>2026-04-24T10:26:01.309Z</time></trkpt><trkpt lat="46.2459169" lon="13.3362677"><ele>484.00000000000006</ele><time>2026-04-24T10:26:02.308Z</time></trkpt><trkpt lat="46.2459161" lon="13.3361667"><ele>484.0</ele><time>2026-04-24T10:26:03.308Z</time></trkpt><trkpt lat="46.2459249" lon="13.3359839"><ele>484.0</ele><time>2026-04-24T10:26:05.31Z</time></trkpt><trkpt lat="46.2459459" lon="13.3358949"><ele>484.0</ele><time>2026-04-24T10:26:06.309Z</time></trkpt><trkpt lat="46.245979" lon="13.3358086"><ele>484.00000000000006</ele><time>2026-04-24T10:26:07.31Z</time></trkpt><trkpt lat="46.2460241" lon="13.335729"><ele>484.0</ele><time>2026-04-24T10:26:08.308Z</time></trkpt><trkpt lat="46.2460808" lon="13.3356592"><ele>484.00000000000006</ele><time>2026-04-24T10:26:09.309Z</time></trkpt><trkpt lat="46.2461408" lon="13.335602"><ele>484.0</ele><time>2026-04-24T10:26:10.308Z</time></trkpt><trkpt lat="46.246204" lon="13.3355464"><ele>484.0</ele><time>2026-04-24T10:26:11.309Z</time></trkpt><trkpt lat="46.2462688" lon="13.3354927"><ele>484.0</ele><time>2026-04-24T10:26:12.309Z</time></trkpt><trkpt lat="46.2463497" lon="13.335426"><ele>484.00000000000006</ele><time>2026-04-24T10:26:13.308Z</time></trkpt><trkpt lat="46.2464437" lon="13.3353527"><ele>484.0</ele><time>2026-04-24T10:26:14.308Z</time></trkpt><trkpt lat="46.2465421" lon="13.3352815"><ele>489.0</ele><time>2026-04-24T10:26:15.309Z</time></trkpt><trkpt lat="46.2466452" lon="13.3352052"><ele>494.0</ele><time>2026-04-24T10:26:16.309Z</time></trkpt><trkpt lat="46.2467578" lon="13.3351255"><ele>499.0</ele><time>2026-04-24T10:26:17.308Z</time></trkpt><trkpt lat="46.246874" lon="13.3350383"><ele>504.0</ele><time>2026-04-24T10:26:18.308Z</time></trkpt><trkpt lat="46.246985" lon="13.3349378"><ele>504.0</ele><time>2026-04-24T10:26:19.309Z</time></trkpt><trkpt lat="46.2470972" lon="13.334825"><ele>504.0</ele><time>2026-04-24T10:26:20.309Z</time></trkpt><trkpt lat="46.2472043" lon="13.3347165"><ele>504.0</ele><time>2026-04-24T10:26:21.308Z</time></trkpt><trkpt lat="46.2473062" lon="13.3346168"><ele>504.0</ele><time>2026-04-24T10:26:22.308Z</time></trkpt><trkpt lat="46.2474077" lon="13.3345408"><ele>504.3333333333333</ele><time>2026-04-24T10:26:23.308Z</time></trkpt><trkpt lat="46.2475081" lon="13.3345027"><ele>504.66666666666663</ele><time>2026-04-24T10:26:24.308Z</time></trkpt><trkpt lat="46.2475926" lon="13.3345087"><ele>505.0</ele><time>2026-04-24T10:26:25.308Z</time></trkpt><trkpt lat="46.2476681" lon="13.3345544"><ele>505.3333333333333</ele><time>2026-04-24T10:26:26.31Z</time></trkpt><trkpt lat="46.2477306" lon="13.3346174"><ele>505.66666666666663</ele><time>2026-04-24T10:26:27.309Z</time></trkpt><trkpt lat="46.2477562" lon="13.3347587"><ele>506.0</ele><time>2026-04-24T10:26:28.309Z</time></trkpt><trkpt lat="46.2477837" lon="13.3348643"><ele>505.99999999999994</ele><time>2026-04-24T10:26:29.308Z</time></trkpt><trkpt lat="46.2478212" lon="13.334965"><ele>506.0</ele><time>2026-04-24T10:26:30.31Z</time></trkpt><trkpt lat="46.247883" lon="13.3350343"><ele>506.0</ele><time>2026-04-24T10:26:31.309Z</time></trkpt><trkpt lat="46.2479873" lon="13.3349861"><ele>506.0</ele><time>2026-04-24T10:26:32.308Z</time></trkpt><trkpt lat="46.2480512" lon="13.3350163"><ele>505.99999999999994</ele><time>2026-04-24T10:26:33.31Z</time></trkpt><trkpt lat="46.2481118" lon="13.334922"><ele>506.0</ele><time>2026-04-24T10:26:34.309Z</time></trkpt><trkpt lat="46.2481726" lon="13.3348859"><ele>510.0</ele><time>2026-04-24T10:26:35.309Z</time></trkpt><trkpt lat="46.2482187" lon="13.3348153"><ele>514.0</ele><time>2026-04-24T10:26:36.31Z</time></trkpt><trkpt lat="46.2482538" lon="13.3347026"><ele>518.0</ele><time>2026-04-24T10:26:37.309Z</time></trkpt><trkpt lat="46.2481857" lon="13.3344874"><ele>522.0</ele><time>2026-04-24T10:26:38.309Z</time></trkpt><trkpt lat="46.2481587" lon="13.3343275"><ele>526.0</ele><time>2026-04-24T10:26:39.31Z</time></trkpt><trkpt lat="46.2481422" lon="13.3341836"><ele>525.6666666666667</ele><time>2026-04-24T10:26:40.308Z</time></trkpt><trkpt lat="46.2481172" lon="13.3340478"><ele>525.3333333333334</ele><time>2026-04-24T10:26:41.31Z</time></trkpt><trkpt lat="46.2480919" lon="13.3339454"><ele>525.0</ele><time>2026-04-24T10:26:42.308Z</time></trkpt><trkpt lat="46.2480574" lon="13.3338465"><ele>524.6666666666666</ele><time>2026-04-24T10:26:43.309Z</time></trkpt><trkpt lat="46.2480108" lon="13.3337328"><ele>524.3333333333333</ele><time>2026-04-24T10:26:44.308Z</time></trkpt><trkpt lat="46.2479306" lon="13.3336795"><ele>524.0</ele><time>2026-04-24T10:26:45.309Z</time></trkpt><trkpt lat="46.2477716" lon="13.3337734"><ele>527.75</ele><time>2026-04-24T10:26:46.308Z</time></trkpt><trkpt lat="46.2476632" lon="13.3337373"><ele>531.5</ele><time>2026-04-24T10:26:47.309Z</time></trkpt><trkpt lat="46.2475538" lon="13.3337076"><ele>535.25</ele><time>2026-04-24T10:26:48.309Z</time></trkpt><trkpt lat="46.2474114" lon="13.3336956"><ele>539.0</ele><time>2026-04-24T10:26:49.308Z</time></trkpt><trkpt lat="46.247278" lon="13.3337184"><ele>539.0</ele><time>2026-04-24T10:26:50.309Z</time></trkpt><trkpt lat="46.247157" lon="13.3337378"><ele>539.0</ele><time>2026-04-24T10:26:51.309Z</time></trkpt><trkpt lat="46.2470641" lon="13.3337397"><ele>539.0</ele><time>2026-04-24T10:26:52.309Z</time></trkpt><trkpt lat="46.2469956" lon="13.3337194"><ele>539.0</ele><time>2026-04-24T10:26:53.309Z</time></trkpt><trkpt lat="46.2469423" lon="13.3336695"><ele>539.0</ele><time>2026-04-24T10:26:54.309Z</time></trkpt><trkpt lat="46.2469088" lon="13.3335753"><ele>539.0</ele><time>2026-04-24T10:26:55.31Z</time></trkpt><trkpt lat="46.2468873" lon="13.3334403"><ele>539.0</ele><time>2026-04-24T10:26:56.309Z</time></trkpt><trkpt lat="46.2468672" lon="13.3332768"><ele>539.0</ele><time>2026-04-24T10:26:57.308Z</time></trkpt><trkpt lat="46.2468495" lon="13.333124"><ele>539.0</ele><time>2026-04-24T10:26:58.308Z</time></trkpt><trkpt lat="46.2468251" lon="13.3329602"><ele>539.0</ele><time>2026-04-24T10:26:59.309Z</time></trkpt><trkpt lat="46.2468002" lon="13.3328054"><ele>539.0</ele><time>2026-04-24T10:27:00.31Z</time></trkpt><trkpt lat="46.2467919" lon="13.3326668"><ele>537.4</ele><time>2026-04-24T10:27:01.308Z</time></trkpt><trkpt lat="46.2467908" lon="13.3325332"><ele>535.8</ele><time>2026-04-24T10:27:02.309Z</time></trkpt><trkpt lat="46.2468154" lon="13.3324037"><ele>534.2</ele><time>2026-04-24T10:27:03.31Z</time></trkpt><trkpt lat="46.2468663" lon="13.3322867"><ele>532.6</ele><time>2026-04-24T10:27:04.31Z</time></trkpt><trkpt lat="46.2469362" lon="13.3321633"><ele>531.0</ele><time>2026-04-24T10:27:05.309Z</time></trkpt><trkpt lat="46.2470154" lon="13.3320309"><ele>536.0</ele><time>2026-04-24T10:27:06.308Z</time></trkpt><trkpt lat="46.2471052" lon="13.3318858"><ele>541.0</ele><time>2026-04-24T10:27:07.309Z</time></trkpt><trkpt lat="46.2472093" lon="13.3317572"><ele>546.0</ele><time>2026-04-24T10:27:08.308Z</time></trkpt><trkpt lat="46.2473216" lon="13.3316458"><ele>551.0</ele><time>2026-04-24T10:27:09.31Z</time></trkpt><trkpt lat="46.2474362" lon="13.3315316"><ele>551.0</ele><time>2026-04-24T10:27:10.309Z</time></trkpt><trkpt lat="46.2475498" lon="13.3314144"><ele>551.0</ele><time>2026-04-24T10:27:11.308Z</time></trkpt><trkpt lat="46.2476508" lon="13.3313029"><ele>551.0</ele><time>2026-04-24T10:27:12.308Z</time></trkpt><trkpt lat="46.2477421" lon="13.3311995"><ele>551.0</ele><time>2026-04-24T10:27:13.31Z</time></trkpt><trkpt lat="46.2478241" lon="13.3311113"><ele>553.2</ele><time>2026-04-24T10:27:14.309Z</time></trkpt><trkpt lat="46.2479129" lon="13.3310553"><ele>555.4000000000001</ele><time>2026-04-24T10:27:15.31Z</time></trkpt><trkpt lat="46.2480186" lon="13.3310287"><ele>557.6</ele><time>2026-04-24T10:27:16.308Z</time></trkpt><trkpt lat="46.2481285" lon="13.3309975"><ele>559.8000000000001</ele><time>2026-04-24T10:27:17.309Z</time></trkpt><trkpt lat="46.2482446" lon="13.3309488"><ele>562.0</ele><time>2026-04-24T10:27:18.308Z</time></trkpt><trkpt lat="46.2483642" lon="13.3308854"><ele>562.0</ele><time>2026-04-24T10:27:19.308Z</time></trkpt><trkpt lat="46.2484806" lon="13.3308203"><ele>562.0</ele><time>2026-04-24T10:27:20.308Z</time></trkpt><trkpt lat="46.2485912" lon="13.3307395"><ele>562.0</ele><time>2026-04-24T10:27:21.31Z</time></trkpt><trkpt lat="46.248685" lon="13.3306375"><ele>562.0</ele><time>2026-04-24T10:27:22.308Z</time></trkpt><trkpt lat="46.248764" lon="13.3305346"><ele>558.4</ele><time>2026-04-24T10:27:23.309Z</time></trkpt><trkpt lat="46.2488433" lon="13.3304586"><ele>554.8000000000001</ele><time>2026-04-24T10:27:24.308Z</time></trkpt><trkpt lat="46.248935" lon="13.330406"><ele>551.2</ele><time>2026-04-24T10:27:25.31Z</time></trkpt><trkpt lat="46.2490356" lon="13.3303811"><ele>547.6</ele><time>2026-04-24T10:27:26.308Z</time></trkpt><trkpt lat="46.2491377" lon="13.330349"><ele>544.0</ele><time>2026-04-24T10:27:27.309Z</time></trkpt><trkpt lat="46.2492481" lon="13.3303232"><ele>544.0</ele><time>2026-04-24T10:27:28.309Z</time></trkpt><trkpt lat="46.2493578" lon="13.3303296"><ele>544.0</ele><time>2026-04-24T10:27:29.308Z</time></trkpt><trkpt lat="46.2494643" lon="13.3303803"><ele>544.0</ele><time>2026-04-24T10:27:30.309Z</time></trkpt><trkpt lat="46.2495839" lon="13.3304342"><ele>544.0</ele><time>2026-04-24T10:27:31.309Z</time></trkpt><trkpt lat="46.2497096" lon="13.3304729"><ele>544.5</ele><time>2026-04-24T10:27:32.309Z</time></trkpt><trkpt lat="46.2498411" lon="13.3305024"><ele>545.0</ele><time>2026-04-24T10:27:33.309Z</time></trkpt><trkpt lat="46.2499774" lon="13.3305282"><ele>545.5</ele><time>2026-04-24T10:27:34.309Z</time></trkpt><trkpt lat="46.2501121" lon="13.3305515"><ele>546.0</ele><time>2026-04-24T10:27:35.31Z</time></trkpt><trkpt lat="46.2502383" lon="13.330563"><ele>546.0</ele><time>2026-04-24T10:27:36.309Z</time></trkpt><trkpt lat="46.2503654" lon="13.3305693"><ele>546.0</ele><time>2026-04-24T10:27:37.308Z</time></trkpt><trkpt lat="46.2504839" lon="13.3305578"><ele>546.0</ele><time>2026-04-24T10:27:38.31Z</time></trkpt><trkpt lat="46.2505978" lon="13.3305511"><ele>546.0</ele><time>2026-04-24T10:27:39.309Z</time></trkpt><trkpt lat="46.2507001" lon="13.3305947"><ele>557.0</ele><time>2026-04-24T10:27:40.31Z</time></trkpt><trkpt lat="46.250808" lon="13.3306406"><ele>568.0</ele><time>2026-04-24T10:27:41.31Z</time></trkpt><trkpt lat="46.2509165" lon="13.3306993"><ele>579.0</ele><time>2026-04-24T10:27:42.309Z</time></trkpt><trkpt lat="46.2510249" lon="13.3307691"><ele>590.0</ele><time>2026-04-24T10:27:43.309Z</time></trkpt><trkpt lat="46.2511361" lon="13.3308348"><ele>590.0</ele><time>2026-04-24T10:27:44.309Z</time></trkpt><trkpt lat="46.251236" lon="13.3309102"><ele>590.0</ele><time>2026-04-24T10:27:45.309Z</time></trkpt><trkpt lat="46.2513388" lon="13.3309746"><ele>590.0</ele><time>2026-04-24T10:27:46.309Z</time></trkpt><trkpt lat="46.2514321" lon="13.3310687"><ele>590.0</ele><time>2026-04-24T10:27:48.308Z</time></trkpt><trkpt lat="46.2514676" lon="13.3311684"><ele>590.0</ele><time>2026-04-24T10:27:49.309Z</time></trkpt><trkpt lat="46.2514625" lon="13.3313064"><ele>590.4</ele><time>2026-04-24T10:27:50.309Z</time></trkpt><trkpt lat="46.2514691" lon="13.3314437"><ele>590.8</ele><time>2026-04-24T10:27:51.309Z</time></trkpt><trkpt lat="46.2514695" lon="13.3315809"><ele>591.2</ele><time>2026-04-24T10:27:52.309Z</time></trkpt><trkpt lat="46.251483" lon="13.3317218"><ele>591.6</ele><time>2026-04-24T10:27:53.31Z</time></trkpt><trkpt lat="46.2515058" lon="13.3318737"><ele>592.0</ele><time>2026-04-24T10:27:54.309Z</time></trkpt><trkpt lat="46.2515333" lon="13.3320276"><ele>592.0</ele><time>2026-04-24T10:27:55.309Z</time></trkpt><trkpt lat="46.2515661" lon="13.3321883"><ele>592.0</ele><time>2026-04-24T10:27:56.309Z</time></trkpt><trkpt lat="46.2516102" lon="13.3323548"><ele>592.0</ele><time>2026-04-24T10:27:57.31Z</time></trkpt><trkpt lat="46.2516647" lon="13.3325264"><ele>592.0</ele><time>2026-04-24T10:27:58.31Z</time></trkpt><trkpt lat="46.2517243" lon="13.3326941"><ele>596.75</ele><time>2026-04-24T10:27:59.308Z</time></trkpt><trkpt lat="46.2517836" lon="13.3328548"><ele>601.5</ele><time>2026-04-24T10:28:00.308Z</time></trkpt><trkpt lat="46.2518402" lon="13.3330087"><ele>606.25</ele><time>2026-04-24T10:28:01.309Z</time></trkpt><trkpt lat="46.2518878" lon="13.3331577"><ele>611.0</ele><time>2026-04-24T10:28:02.308Z</time></trkpt><trkpt lat="46.2519277" lon="13.3332937"><ele>610.3333333333333</ele><time>2026-04-24T10:28:03.309Z</time></trkpt><trkpt lat="46.251971" lon="13.3333928"><ele>609.6666666666666</ele><time>2026-04-24T10:28:04.308Z</time></trkpt><trkpt lat="46.2519981" lon="13.3334862"><ele>609.0</ele><time>2026-04-24T10:28:05.309Z</time></trkpt><trkpt lat="46.2520613" lon="13.3335511"><ele>608.3333333333334</ele><time>2026-04-24T10:28:06.31Z</time></trkpt><trkpt lat="46.2521613" lon="13.3336027"><ele>607.6666666666667</ele><time>2026-04-24T10:28:07.307Z</time></trkpt><trkpt lat="46.2522466" lon="13.333608"><ele>607.0</ele><time>2026-04-24T10:28:08.308Z</time></trkpt><trkpt lat="46.252305" lon="13.3336558"><ele>607.0</ele><time>2026-04-24T10:28:09.307Z</time></trkpt><trkpt lat="46.2523654" lon="13.3337218"><ele>607.0</ele><time>2026-04-24T10:28:10.308Z</time></trkpt><trkpt lat="46.2524054" lon="13.3338339"><ele>607.0</ele><time>2026-04-24T10:28:11.307Z</time></trkpt><trkpt lat="46.2524614" lon="13.3339109"><ele>607.0</ele><time>2026-04-24T10:28:12.309Z</time></trkpt><trkpt lat="46.2525687" lon="13.3340051"><ele>607.0</ele><time>2026-04-24T10:28:14.307Z</time></trkpt><trkpt lat="46.2527426" lon="13.3338551"><ele>607.0</ele><time>2026-04-24T10:28:16.308Z</time></trkpt><trkpt lat="46.2528194" lon="13.333769"><ele>607.0</ele><time>2026-04-24T10:28:17.309Z</time></trkpt><trkpt lat="46.252919" lon="13.3336734"><ele>607.0</ele><time>2026-04-24T10:28:18.308Z</time></trkpt><trkpt lat="46.2530122" lon="13.3335743"><ele>607.0</ele><time>2026-04-24T10:28:19.309Z</time></trkpt><trkpt lat="46.2530948" lon="13.3334883"><ele>607.0</ele><time>2026-04-24T10:28:20.308Z</time></trkpt><trkpt lat="46.2531699" lon="13.3333977"><ele>609.6</ele><time>2026-04-24T10:28:21.308Z</time></trkpt><trkpt lat="46.2532475" lon="13.3333141"><ele>612.2</ele><time>2026-04-24T10:28:22.308Z</time></trkpt><trkpt lat="46.2533231" lon="13.3332567"><ele>614.8</ele><time>2026-04-24T10:28:23.307Z</time></trkpt><trkpt lat="46.2534191" lon="13.3331984"><ele>617.4</ele><time>2026-04-24T10:28:24.309Z</time></trkpt><trkpt lat="46.2535061" lon="13.333155"><ele>620.0</ele><time>2026-04-24T10:28:25.307Z</time></trkpt><trkpt lat="46.2536072" lon="13.3331711"><ele>620.0</ele><time>2026-04-24T10:28:26.308Z</time></trkpt><trkpt lat="46.2537034" lon="13.333149"><ele>620.0</ele><time>2026-04-24T10:28:27.308Z</time></trkpt><trkpt lat="46.2537888" lon="13.3331107"><ele>620.0</ele><time>2026-04-24T10:28:28.308Z</time></trkpt><trkpt lat="46.2538715" lon="13.3330738"><ele>620.0</ele><time>2026-04-24T10:28:29.309Z</time></trkpt><trkpt lat="46.2539512" lon="13.3330514"><ele>620.0</ele><time>2026-04-24T10:28:30.307Z</time></trkpt><trkpt lat="46.2540296" lon="13.3330841"><ele>620.0</ele><time>2026-04-24T10:28:31.309Z</time></trkpt><trkpt lat="46.2540956" lon="13.3331584"><ele>620.4</ele><time>2026-04-24T10:28:32.307Z</time></trkpt><trkpt lat="46.2541452" lon="13.3332594"><ele>620.8</ele><time>2026-04-24T10:28:33.309Z</time></trkpt><trkpt lat="46.2541916" lon="13.333382"><ele>621.2</ele><time>2026-04-24T10:28:34.307Z</time></trkpt><trkpt lat="46.2542081" lon="13.3335383"><ele>621.6</ele><time>2026-04-24T10:28:35.308Z</time></trkpt><trkpt lat="46.2542304" lon="13.33369"><ele>622.0</ele><time>2026-04-24T10:28:36.309Z</time></trkpt><trkpt lat="46.2542553" lon="13.3338469"><ele>626.4000000000001</ele><time>2026-04-24T10:28:37.308Z</time></trkpt><trkpt lat="46.2542936" lon="13.3339881"><ele>630.8000000000001</ele><time>2026-04-24T10:28:38.308Z</time></trkpt><trkpt lat="46.254346" lon="13.334086"><ele>635.2</ele><time>2026-04-24T10:28:39.308Z</time></trkpt><trkpt lat="46.2544105" lon="13.334165"><ele>639.6</ele><time>2026-04-24T10:28:40.307Z</time></trkpt><trkpt lat="46.2545041" lon="13.3341956"><ele>644.0</ele><time>2026-04-24T10:28:41.308Z</time></trkpt><trkpt lat="46.2545988" lon="13.3342336"><ele>644.0</ele><time>2026-04-24T10:28:42.308Z</time></trkpt><trkpt lat="46.2546831" lon="13.3343014"><ele>644.0</ele><time>2026-04-24T10:28:43.307Z</time></trkpt><trkpt lat="46.2547786" lon="13.3343761"><ele>644.0</ele><time>2026-04-24T10:28:44.308Z</time></trkpt><trkpt lat="46.2548707" lon="13.3344687"><ele>644.0</ele><time>2026-04-24T10:28:45.308Z</time></trkpt><trkpt lat="46.2549639" lon="13.3345649"><ele>644.0</ele><time>2026-04-24T10:28:46.308Z</time></trkpt><trkpt lat="46.2550528" lon="13.3346738"><ele>643.75</ele><time>2026-04-24T10:28:47.308Z</time></trkpt><trkpt lat="46.2551384" lon="13.334782"><ele>643.5</ele><time>2026-04-24T10:28:48.309Z</time></trkpt><trkpt lat="46.255222" lon="13.3348971"><ele>643.25</ele><time>2026-04-24T10:28:49.308Z</time></trkpt><trkpt lat="46.2553105" lon="13.3349984"><ele>643.0</ele><time>2026-04-24T10:28:50.309Z</time></trkpt><trkpt lat="46.2554049" lon="13.3350815"><ele>643.0</ele><time>2026-04-24T10:28:51.307Z</time></trkpt><trkpt lat="46.2555062" lon="13.3351447"><ele>643.0</ele><time>2026-04-24T10:28:52.309Z</time></trkpt><trkpt lat="46.2556085" lon="13.3351988"><ele>643.0</ele><time>2026-04-24T10:28:53.309Z</time></trkpt><trkpt lat="46.2557111" lon="13.3352608"><ele>643.0</ele><time>2026-04-24T10:28:54.307Z</time></trkpt><trkpt lat="46.255805" lon="13.3353437"><ele>643.0</ele><time>2026-04-24T10:28:55.308Z</time></trkpt><trkpt lat="46.2558763" lon="13.3354513"><ele>642.5</ele><time>2026-04-24T10:28:56.309Z</time></trkpt><trkpt lat="46.2559391" lon="13.3355517"><ele>642.0</ele><time>2026-04-24T10:28:57.308Z</time></trkpt><trkpt lat="46.2559686" lon="13.3356561"><ele>641.5</ele><time>2026-04-24T10:28:58.308Z</time></trkpt><trkpt lat="46.2559705" lon="13.3357768"><ele>641.0</ele><time>2026-04-24T10:28:59.309Z</time></trkpt><trkpt lat="46.2559751" lon="13.3358939"><ele>640.5</ele><time>2026-04-24T10:29:00.307Z</time></trkpt><trkpt lat="46.2559431" lon="13.335993"><ele>640.0</ele><time>2026-04-24T10:29:01.308Z</time></trkpt><trkpt lat="46.2558866" lon="13.3360929"><ele>640.0</ele><time>2026-04-24T10:29:02.309Z</time></trkpt><trkpt lat="46.2558539" lon="13.3362071"><ele>640.0</ele><time>2026-04-24T10:29:03.307Z</time></trkpt><trkpt lat="46.2558225" lon="13.3363115"><ele>640.0</ele><time>2026-04-24T10:29:04.309Z</time></trkpt><trkpt lat="46.2558211" lon="13.3364303"><ele>640.0</ele><time>2026-04-24T10:29:05.307Z</time></trkpt><trkpt lat="46.2558372" lon="13.3365391"><ele>640.0</ele><time>2026-04-24T10:29:06.308Z</time></trkpt><trkpt lat="46.2560292" lon="13.3365859"><ele>639.2</ele><time>2026-04-24T10:29:07.307Z</time></trkpt><trkpt lat="46.2561023" lon="13.3366708"><ele>638.4</ele><time>2026-04-24T10:29:08.308Z</time></trkpt><trkpt lat="46.2562115" lon="13.336723"><ele>637.6</ele><time>2026-04-24T10:29:09.308Z</time></trkpt><trkpt lat="46.2563131" lon="13.3367662"><ele>636.8</ele><time>2026-04-24T10:29:10.308Z</time></trkpt><trkpt lat="46.2564215" lon="13.3368056"><ele>636.0</ele><time>2026-04-24T10:29:11.307Z</time></trkpt><trkpt lat="46.2565234" lon="13.3368399"><ele>636.0</ele><time>2026-04-24T10:29:12.308Z</time></trkpt><trkpt lat="46.2566142" lon="13.3368951"><ele>636.0</ele><time>2026-04-24T10:29:13.307Z</time></trkpt><trkpt lat="46.2567014" lon="13.3369518"><ele>636.0</ele><time>2026-04-24T10:29:14.309Z</time></trkpt><trkpt lat="46.2567666" lon="13.3370838"><ele>636.0</ele><time>2026-04-24T10:29:15.308Z</time></trkpt><trkpt lat="46.2568427" lon="13.3371968"><ele>636.0</ele><time>2026-04-24T10:29:16.309Z</time></trkpt><trkpt lat="46.2568986" lon="13.3373313"><ele>640.25</ele><time>2026-04-24T10:29:17.308Z</time></trkpt><trkpt lat="46.2569291" lon="13.3374894"><ele>644.5</ele><time>2026-04-24T10:29:18.308Z</time></trkpt><trkpt lat="46.2569472" lon="13.337644"><ele>648.75</ele><time>2026-04-24T10:29:19.308Z</time></trkpt><trkpt lat="46.2569508" lon="13.3378212"><ele>653.0</ele><time>2026-04-24T10:29:20.308Z</time></trkpt><trkpt lat="46.2569516" lon="13.3379872"><ele>652.8</ele><time>2026-04-24T10:29:21.307Z</time></trkpt><trkpt lat="46.2569468" lon="13.3381483"><ele>652.5999999999999</ele><time>2026-04-24T10:29:22.307Z</time></trkpt><trkpt lat="46.2569521" lon="13.3382938"><ele>652.4000000000001</ele><time>2026-04-24T10:29:23.309Z</time></trkpt><trkpt lat="46.2569639" lon="13.3384287"><ele>652.2</ele><time>2026-04-24T10:29:24.308Z</time></trkpt><trkpt lat="46.2569828" lon="13.3385428"><ele>652.0</ele><time>2026-04-24T10:29:25.308Z</time></trkpt><trkpt lat="46.2570071" lon="13.3386355"><ele>652.0</ele><time>2026-04-24T10:29:26.308Z</time></trkpt><trkpt lat="46.257108" lon="13.3387577"><ele>652.0</ele><time>2026-04-24T10:29:28.308Z</time></trkpt><trkpt lat="46.2571873" lon="13.3388012"><ele>652.0</ele><time>2026-04-24T10:29:29.308Z</time></trkpt><trkpt lat="46.2572865" lon="13.3388402"><ele>652.0</ele><time>2026-04-24T10:29:30.308Z</time></trkpt><trkpt lat="46.2573895" lon="13.338869"><ele>652.0</ele><time>2026-04-24T10:29:31.308Z</time></trkpt><trkpt lat="46.2574987" lon="13.3388832"><ele>654.0</ele><time>2026-04-24T10:29:32.308Z</time></trkpt><trkpt lat="46.2576176" lon="13.3388858"><ele>656.0</ele><time>2026-04-24T10:29:33.307Z</time></trkpt><trkpt lat="46.2577385" lon="13.3388743"><ele>658.0</ele><time>2026-04-24T10:29:34.308Z</time></trkpt><trkpt lat="46.2578658" lon="13.3388377"><ele>660.0</ele><time>2026-04-24T10:29:35.307Z</time></trkpt><trkpt lat="46.2579955" lon="13.338789"><ele>655.5</ele><time>2026-04-24T10:29:36.308Z</time></trkpt><trkpt lat="46.2581301" lon="13.3387535"><ele>651.0</ele><time>2026-04-24T10:29:37.307Z</time></trkpt><trkpt lat="46.2582591" lon="13.3387383"><ele>646.5</ele><time>2026-04-24T10:29:38.308Z</time></trkpt><trkpt lat="46.2583888" lon="13.3387269"><ele>642.0</ele><time>2026-04-24T10:29:39.307Z</time></trkpt><trkpt lat="46.2585165" lon="13.3387287"><ele>642.0</ele><time>2026-04-24T10:29:40.307Z</time></trkpt><trkpt lat="46.2586412" lon="13.3387311"><ele>642.0</ele><time>2026-04-24T10:29:41.308Z</time></trkpt><trkpt lat="46.2587703" lon="13.3387422"><ele>642.0</ele><time>2026-04-24T10:29:42.307Z</time></trkpt><trkpt lat="46.2588847" lon="13.3387289"><ele>642.0</ele><time>2026-04-24T10:29:43.307Z</time></trkpt><trkpt lat="46.2589852" lon="13.3387066"><ele>646.8</ele><time>2026-04-24T10:29:44.307Z</time></trkpt><trkpt lat="46.2590839" lon="13.33867"><ele>651.6</ele><time>2026-04-24T10:29:45.308Z</time></trkpt><trkpt lat="46.2591858" lon="13.3386279"><ele>656.4</ele><time>2026-04-24T10:29:46.307Z</time></trkpt><trkpt lat="46.2592881" lon="13.3385389"><ele>661.1999999999999</ele><time>2026-04-24T10:29:47.309Z</time></trkpt><trkpt lat="46.2593684" lon="13.3384155"><ele>666.0</ele><time>2026-04-24T10:29:48.307Z</time></trkpt><trkpt lat="46.2594228" lon="13.3382386"><ele>666.0</ele><time>2026-04-24T10:29:49.308Z</time></trkpt><trkpt lat="46.2594927" lon="13.338085"><ele>666.0</ele><time>2026-04-24T10:29:50.308Z</time></trkpt><trkpt lat="46.2595731" lon="13.3379435"><ele>666.0</ele><time>2026-04-24T10:29:51.308Z</time></trkpt><trkpt lat="46.2596419" lon="13.3378035"><ele>666.0</ele><time>2026-04-24T10:29:52.307Z</time></trkpt><trkpt lat="46.2597286" lon="13.3376851"><ele>668.8</ele><time>2026-04-24T10:29:53.308Z</time></trkpt><trkpt lat="46.2598074" lon="13.3375682"><ele>671.5999999999999</ele><time>2026-04-24T10:29:54.309Z</time></trkpt><trkpt lat="46.2598924" lon="13.3374711"><ele>674.4</ele><time>2026-04-24T10:29:55.308Z</time></trkpt><trkpt lat="46.2599809" lon="13.3374088"><ele>677.2</ele><time>2026-04-24T10:29:56.307Z</time></trkpt><trkpt lat="46.2600761" lon="13.3373703"><ele>680.0</ele><time>2026-04-24T10:29:57.308Z</time></trkpt><trkpt lat="46.2601766" lon="13.3373467"><ele>680.0</ele><time>2026-04-24T10:29:58.309Z</time></trkpt><trkpt lat="46.260282" lon="13.3373378"><ele>680.0</ele><time>2026-04-24T10:29:59.309Z</time></trkpt><trkpt lat="46.2603939" lon="13.3373325"><ele>680.0</ele><time>2026-04-24T10:30:00.308Z</time></trkpt><trkpt lat="46.2605139" lon="13.3373318"><ele>680.0</ele><time>2026-04-24T10:30:01.308Z</time></trkpt><trkpt lat="46.2606405" lon="13.337334"><ele>682.25</ele><time>2026-04-24T10:30:02.308Z</time></trkpt><trkpt lat="46.2607741" lon="13.337335"><ele>684.5</ele><time>2026-04-24T10:30:03.307Z</time></trkpt><trkpt lat="46.2609042" lon="13.3373395"><ele>686.75</ele><time>2026-04-24T10:30:04.307Z</time></trkpt><trkpt lat="46.2610367" lon="13.3373492"><ele>689.0</ele><time>2026-04-24T10:30:05.307Z</time></trkpt><trkpt lat="46.2611699" lon="13.3373693"><ele>689.0</ele><time>2026-04-24T10:30:06.307Z</time></trkpt><trkpt lat="46.2613098" lon="13.3373941"><ele>689.0</ele><time>2026-04-24T10:30:07.307Z</time></trkpt><trkpt lat="46.2614499" lon="13.3374176"><ele>689.0</ele><time>2026-04-24T10:30:08.307Z</time></trkpt><trkpt lat="46.261593" lon="13.3374339"><ele>689.0</ele><time>2026-04-24T10:30:09.308Z</time></trkpt><trkpt lat="46.2617389" lon="13.3374371"><ele>689.25</ele><time>2026-04-24T10:30:10.308Z</time></trkpt><trkpt lat="46.2618836" lon="13.3374288"><ele>689.5</ele><time>2026-04-24T10:30:11.308Z</time></trkpt><trkpt lat="46.262027" lon="13.3374076"><ele>689.75</ele><time>2026-04-24T10:30:12.307Z</time></trkpt><trkpt lat="46.2621695" lon="13.3373941"><ele>690.0</ele><time>2026-04-24T10:30:13.307Z</time></trkpt><trkpt lat="46.2622999" lon="13.3373713"><ele>690.4</ele><time>2026-04-24T10:30:14.309Z</time></trkpt><trkpt lat="46.2624122" lon="13.3373478"><ele>690.8</ele><time>2026-04-24T10:30:15.309Z</time></trkpt><trkpt lat="46.2625057" lon="13.3373263"><ele>691.2</ele><time>2026-04-24T10:30:16.308Z</time></trkpt><trkpt lat="46.2625904" lon="13.3373362"><ele>691.6</ele><time>2026-04-24T10:30:17.307Z</time></trkpt><trkpt lat="46.2626478" lon="13.3373792"><ele>692.0</ele><time>2026-04-24T10:30:18.307Z</time></trkpt><trkpt lat="46.262677" lon="13.337538"><ele>692.0</ele><time>2026-04-24T10:30:20.308Z</time></trkpt><trkpt lat="46.2626554" lon="13.3376474"><ele>692.0</ele><time>2026-04-24T10:30:21.307Z</time></trkpt><trkpt lat="46.262616" lon="13.3377621"><ele>692.0</ele><time>2026-04-24T10:30:22.308Z</time></trkpt><trkpt lat="46.2625743" lon="13.3378962"><ele>692.0</ele><time>2026-04-24T10:30:23.309Z</time></trkpt><trkpt lat="46.2625284" lon="13.3380475"><ele>692.0</ele><time>2026-04-24T10:30:24.308Z</time></trkpt><trkpt lat="46.262482" lon="13.3382147"><ele>695.0</ele><time>2026-04-24T10:30:25.308Z</time></trkpt><trkpt lat="46.262448" lon="13.3383941"><ele>698.0</ele><time>2026-04-24T10:30:26.308Z</time></trkpt><trkpt lat="46.2624045" lon="13.338566"><ele>701.0</ele><time>2026-04-24T10:30:27.308Z</time></trkpt><trkpt lat="46.2623578" lon="13.3387126"><ele>704.0</ele><time>2026-04-24T10:30:28.308Z</time></trkpt><trkpt lat="46.2623164" lon="13.338841"><ele>705.8000000000001</ele><time>2026-04-24T10:30:29.308Z</time></trkpt><trkpt lat="46.2622858" lon="13.338951"><ele>707.6</ele><time>2026-04-24T10:30:30.308Z</time></trkpt><trkpt lat="46.2622575" lon="13.3390409"><ele>709.4</ele><time>2026-04-24T10:30:31.308Z</time></trkpt><trkpt lat="46.2622716" lon="13.3391872"><ele>711.2</ele><time>2026-04-24T10:30:33.308Z</time></trkpt><trkpt lat="46.2623736" lon="13.3392731"><ele>713.0</ele><time>2026-04-24T10:30:35.307Z</time></trkpt><trkpt lat="46.2624572" lon="13.3392706"><ele>713.0</ele><time>2026-04-24T10:30:36.308Z</time></trkpt><trkpt lat="46.2625634" lon="13.3392719"><ele>713.0</ele><time>2026-04-24T10:30:37.308Z</time></trkpt><trkpt lat="46.2626601" lon="13.3392893"><ele>713.0</ele><time>2026-04-24T10:30:38.309Z</time></trkpt><trkpt lat="46.2627605" lon="13.339308"><ele>713.0</ele><time>2026-04-24T10:30:39.308Z</time></trkpt><trkpt lat="46.2628577" lon="13.3393422"><ele>713.0</ele><time>2026-04-24T10:30:40.308Z</time></trkpt><trkpt lat="46.2629418" lon="13.339389"><ele>713.0</ele><time>2026-04-24T10:30:41.308Z</time></trkpt><trkpt lat="46.2630089" lon="13.3394576"><ele>713.0</ele><time>2026-04-24T10:30:42.307Z</time></trkpt><trkpt lat="46.2630512" lon="13.3395533"><ele>713.0</ele><time>2026-04-24T10:30:43.307Z</time></trkpt><trkpt lat="46.2630612" lon="13.3396684"><ele>713.0</ele><time>2026-04-24T10:30:44.307Z</time></trkpt><trkpt lat="46.263052" lon="13.339803"><ele>713.0</ele><time>2026-04-24T10:30:45.308Z</time></trkpt><trkpt lat="46.2630332" lon="13.3399572"><ele>713.0</ele><time>2026-04-24T10:30:46.309Z</time></trkpt><trkpt lat="46.2630122" lon="13.3401238"><ele>716.5</ele><time>2026-04-24T10:30:47.307Z</time></trkpt><trkpt lat="46.26299" lon="13.3402815"><ele>720.0</ele><time>2026-04-24T10:30:48.309Z</time></trkpt><trkpt lat="46.2629589" lon="13.3404425"><ele>723.5</ele><time>2026-04-24T10:30:49.307Z</time></trkpt><trkpt lat="46.2629211" lon="13.340605"><ele>727.0</ele><time>2026-04-24T10:30:50.308Z</time></trkpt><trkpt lat="46.2628688" lon="13.3407648"><ele>727.75</ele><time>2026-04-24T10:30:51.308Z</time></trkpt><trkpt lat="46.2628035" lon="13.3409214"><ele>728.5</ele><time>2026-04-24T10:30:52.309Z</time></trkpt><trkpt lat="46.2627299" lon="13.3410818"><ele>729.25</ele><time>2026-04-24T10:30:53.307Z</time></trkpt><trkpt lat="46.2626539" lon="13.341247"><ele>730.0</ele><time>2026-04-24T10:30:54.308Z</time></trkpt><trkpt lat="46.2625743" lon="13.3414185"><ele>728.0</ele><time>2026-04-24T10:30:55.309Z</time></trkpt><trkpt lat="46.2624916" lon="13.3415964"><ele>726.0</ele><time>2026-04-24T10:30:56.308Z</time></trkpt><trkpt lat="46.2624028" lon="13.34178"><ele>724.0</ele><time>2026-04-24T10:30:57.309Z</time></trkpt><trkpt lat="46.2623142" lon="13.3419693"><ele>726.0</ele><time>2026-04-24T10:30:58.307Z</time></trkpt><trkpt lat="46.2622235" lon="13.3421646"><ele>728.0</ele><time>2026-04-24T10:30:59.307Z</time></trkpt><trkpt lat="46.2621343" lon="13.3423637"><ele>730.0</ele><time>2026-04-24T10:31:00.308Z</time></trkpt><trkpt lat="46.2620505" lon="13.3425658"><ele>730.0</ele><time>2026-04-24T10:31:01.307Z</time></trkpt><trkpt lat="46.2619728" lon="13.342764"><ele>730.0</ele><time>2026-04-24T10:31:02.308Z</time></trkpt><trkpt lat="46.2618921" lon="13.3429574"><ele>730.0</ele><time>2026-04-24T10:31:03.308Z</time></trkpt><trkpt lat="46.2618052" lon="13.3431462"><ele>730.6666666666667</ele><time>2026-04-24T10:31:04.309Z</time></trkpt><trkpt lat="46.2617124" lon="13.34333"><ele>731.3333333333334</ele><time>2026-04-24T10:31:05.308Z</time></trkpt><trkpt lat="46.2616089" lon="13.3434997"><ele>732.0</ele><time>2026-04-24T10:31:06.309Z</time></trkpt><trkpt lat="46.2615003" lon="13.3436592"><ele>726.0</ele><time>2026-04-24T10:31:07.308Z</time></trkpt><trkpt lat="46.2613868" lon="13.343812"><ele>720.0</ele><time>2026-04-24T10:31:08.308Z</time></trkpt><trkpt lat="46.2612733" lon="13.3439641"><ele>714.0</ele><time>2026-04-24T10:31:09.308Z</time></trkpt><trkpt lat="46.2611671" lon="13.3441264"><ele>714.0</ele><time>2026-04-24T10:31:10.307Z</time></trkpt><trkpt lat="46.2610719" lon="13.3442922"><ele>714.0</ele><time>2026-04-24T10:31:11.307Z</time></trkpt><trkpt lat="46.2609862" lon="13.3444712"><ele>714.0</ele><time>2026-04-24T10:31:12.307Z</time></trkpt><trkpt lat="46.2609125" lon="13.3446586"><ele>714.0</ele><time>2026-04-24T10:31:13.308Z</time></trkpt><trkpt lat="46.260844" lon="13.3448476"><ele>718.25</ele><time>2026-04-24T10:31:14.308Z</time></trkpt><trkpt lat="46.2607873" lon="13.3450449"><ele>722.5</ele><time>2026-04-24T10:31:15.308Z</time></trkpt><trkpt lat="46.2607429" lon="13.3452526"><ele>726.75</ele><time>2026-04-24T10:31:16.309Z</time></trkpt><trkpt lat="46.2607176" lon="13.3454502"><ele>731.0</ele><time>2026-04-24T10:31:17.308Z</time></trkpt><trkpt lat="46.2607083" lon="13.3456417"><ele>733.5</ele><time>2026-04-24T10:31:18.309Z</time></trkpt><trkpt lat="46.2607003" lon="13.3458201"><ele>736.0</ele><time>2026-04-24T10:31:19.307Z</time></trkpt><trkpt lat="46.2606721" lon="13.3459867"><ele>738.5</ele><time>2026-04-24T10:31:20.309Z</time></trkpt><trkpt lat="46.2606263" lon="13.3461344"><ele>741.0</ele><time>2026-04-24T10:31:21.307Z</time></trkpt><trkpt lat="46.2605588" lon="13.3462783"><ele>736.25</ele><time>2026-04-24T10:31:22.308Z</time></trkpt><trkpt lat="46.2604918" lon="13.3464244"><ele>731.5</ele><time>2026-04-24T10:31:23.308Z</time></trkpt><trkpt lat="46.2604386" lon="13.3465898"><ele>726.75</ele><time>2026-04-24T10:31:24.307Z</time></trkpt><trkpt lat="46.2604016" lon="13.3467717"><ele>722.0</ele><time>2026-04-24T10:31:25.308Z</time></trkpt><trkpt lat="46.2603806" lon="13.3469607"><ele>722.0</ele><time>2026-04-24T10:31:26.308Z</time></trkpt><trkpt lat="46.2603646" lon="13.3471568"><ele>722.0</ele><time>2026-04-24T10:31:27.307Z</time></trkpt><trkpt lat="46.2603463" lon="13.347356"><ele>722.0</ele><time>2026-04-24T10:31:28.309Z</time></trkpt><trkpt lat="46.2603155" lon="13.3475512"><ele>722.0</ele><time>2026-04-24T10:31:29.309Z</time></trkpt><trkpt lat="46.2602716" lon="13.3477333"><ele>725.5</ele><time>2026-04-24T10:31:30.308Z</time></trkpt><trkpt lat="46.260206" lon="13.3478972"><ele>729.0</ele><time>2026-04-24T10:31:31.308Z</time></trkpt><trkpt lat="46.2601333" lon="13.3480407"><ele>732.5</ele><time>2026-04-24T10:31:32.307Z</time></trkpt><trkpt lat="46.2600604" lon="13.3481777"><ele>736.0</ele><time>2026-04-24T10:31:33.307Z</time></trkpt><trkpt lat="46.2599962" lon="13.3483166"><ele>739.0</ele><time>2026-04-24T10:31:34.307Z</time></trkpt><trkpt lat="46.2599391" lon="13.3484619"><ele>742.0</ele><time>2026-04-24T10:31:35.307Z</time></trkpt><trkpt lat="46.2598885" lon="13.348609"><ele>745.0</ele><time>2026-04-24T10:31:36.307Z</time></trkpt><trkpt lat="46.2598417" lon="13.3487588"><ele>748.0</ele><time>2026-04-24T10:31:37.307Z</time></trkpt><trkpt lat="46.2598006" lon="13.3489096"><ele>745.0</ele><time>2026-04-24T10:31:38.308Z</time></trkpt><trkpt lat="46.2597575" lon="13.3490601"><ele>742.0</ele><time>2026-04-24T10:31:39.306Z</time></trkpt><trkpt lat="46.2597175" lon="13.3492129"><ele>739.0</ele><time>2026-04-24T10:31:40.307Z</time></trkpt><trkpt lat="46.2596817" lon="13.3493679"><ele>736.0</ele><time>2026-04-24T10:31:41.307Z</time></trkpt><trkpt lat="46.2596422" lon="13.3495264"><ele>736.0</ele><time>2026-04-24T10:31:42.307Z</time></trkpt><trkpt lat="46.2596037" lon="13.3496854"><ele>736.0</ele><time>2026-04-24T10:31:43.306Z</time></trkpt><trkpt lat="46.2595708" lon="13.3498506"><ele>736.0</ele><time>2026-04-24T10:31:44.308Z</time></trkpt><trkpt lat="46.2595346" lon="13.350017"><ele>736.0</ele><time>2026-04-24T10:31:45.308Z</time></trkpt><trkpt lat="46.2595011" lon="13.3501835"><ele>740.25</ele><time>2026-04-24T10:31:46.307Z</time></trkpt><trkpt lat="46.2594707" lon="13.3503555"><ele>744.5</ele><time>2026-04-24T10:31:47.308Z</time></trkpt><trkpt lat="46.2594315" lon="13.3505278"><ele>748.75</ele><time>2026-04-24T10:31:48.308Z</time></trkpt><trkpt lat="46.2593784" lon="13.350695"><ele>753.0</ele><time>2026-04-24T10:31:49.307Z</time></trkpt><trkpt lat="46.2593187" lon="13.3508522"><ele>755.0</ele><time>2026-04-24T10:31:50.307Z</time></trkpt><trkpt lat="46.2592654" lon="13.3509973"><ele>757.0</ele><time>2026-04-24T10:31:51.307Z</time></trkpt><trkpt lat="46.2592221" lon="13.3511293"><ele>759.0</ele><time>2026-04-24T10:31:52.308Z</time></trkpt><trkpt lat="46.2591848" lon="13.3512449"><ele>761.0</ele><time>2026-04-24T10:31:53.307Z</time></trkpt><trkpt lat="46.2591541" lon="13.3513473"><ele>763.0</ele><time>2026-04-24T10:31:54.307Z</time></trkpt><trkpt lat="46.2591405" lon="13.351455"><ele>764.5</ele><time>2026-04-24T10:31:55.306Z</time></trkpt><trkpt lat="46.2591391" lon="13.3515624"><ele>766.0</ele><time>2026-04-24T10:31:56.307Z</time></trkpt><trkpt lat="46.2591421" lon="13.3516776"><ele>767.5</ele><time>2026-04-24T10:31:57.307Z</time></trkpt><trkpt lat="46.2591439" lon="13.351796"><ele>769.0</ele><time>2026-04-24T10:31:58.306Z</time></trkpt><trkpt lat="46.2591439" lon="13.351924"><ele>770.4999999999999</ele><time>2026-04-24T10:31:59.306Z</time></trkpt><trkpt lat="46.259143" lon="13.3520532"><ele>772.0</ele><time>2026-04-24T10:32:00.306Z</time></trkpt><trkpt lat="46.2591299" lon="13.3521825"><ele>772.0</ele><time>2026-04-24T10:32:01.307Z</time></trkpt><trkpt lat="46.2591101" lon="13.3523128"><ele>772.0</ele><time>2026-04-24T10:32:02.306Z</time></trkpt><trkpt lat="46.2590887" lon="13.3524447"><ele>772.0</ele><time>2026-04-24T10:32:03.307Z</time></trkpt><trkpt lat="46.2590618" lon="13.3525836"><ele>772.0</ele><time>2026-04-24T10:32:04.307Z</time></trkpt><trkpt lat="46.2590335" lon="13.352731"><ele>772.0</ele><time>2026-04-24T10:32:05.307Z</time></trkpt><trkpt lat="46.2589981" lon="13.3528796"><ele>773.0</ele><time>2026-04-24T10:32:06.305Z</time></trkpt><trkpt lat="46.2589435" lon="13.3530293"><ele>774.0</ele><time>2026-04-24T10:32:07.305Z</time></trkpt><trkpt lat="46.2588779" lon="13.3531656"><ele>775.0</ele><time>2026-04-24T10:32:08.306Z</time></trkpt><trkpt lat="46.2588012" lon="13.3533036"><ele>776.0</ele><time>2026-04-24T10:32:09.306Z</time></trkpt><trkpt lat="46.2587143" lon="13.353435"><ele>776.0</ele><time>2026-04-24T10:32:10.306Z</time></trkpt><trkpt lat="46.258631" lon="13.3535725"><ele>776.0</ele><time>2026-04-24T10:32:11.306Z</time></trkpt><trkpt lat="46.2585449" lon="13.3537113"><ele>776.0</ele><time>2026-04-24T10:32:12.307Z</time></trkpt><trkpt lat="46.258463" lon="13.3538611"><ele>776.0</ele><time>2026-04-24T10:32:13.307Z</time></trkpt><trkpt lat="46.2583843" lon="13.3540196"><ele>778.0</ele><time>2026-04-24T10:32:14.306Z</time></trkpt><trkpt lat="46.25831" lon="13.3541877"><ele>780.0</ele><time>2026-04-24T10:32:15.306Z</time></trkpt><trkpt lat="46.2582377" lon="13.3543625"><ele>782.0</ele><time>2026-04-24T10:32:16.306Z</time></trkpt><trkpt lat="46.2581696" lon="13.3545471"><ele>784.0</ele><time>2026-04-24T10:32:17.306Z</time></trkpt><trkpt lat="46.2581056" lon="13.3547339"><ele>784.0</ele><time>2026-04-24T10:32:18.305Z</time></trkpt><trkpt lat="46.258047" lon="13.3549321"><ele>784.0</ele><time>2026-04-24T10:32:19.306Z</time></trkpt><trkpt lat="46.2579965" lon="13.3551313"><ele>784.0</ele><time>2026-04-24T10:32:20.307Z</time></trkpt><trkpt lat="46.2579511" lon="13.3553358"><ele>784.0</ele><time>2026-04-24T10:32:21.306Z</time></trkpt><trkpt lat="46.257905" lon="13.3555431"><ele>781.5</ele><time>2026-04-24T10:32:22.306Z</time></trkpt><trkpt lat="46.2578544" lon="13.3557469"><ele>779.0</ele><time>2026-04-24T10:32:23.306Z</time></trkpt><trkpt lat="46.2578033" lon="13.3559497"><ele>776.5</ele><time>2026-04-24T10:32:24.306Z</time></trkpt><trkpt lat="46.2577493" lon="13.3561504"><ele>774.0</ele><time>2026-04-24T10:32:25.305Z</time></trkpt><trkpt lat="46.257696" lon="13.3563516"><ele>768.3333333333334</ele><time>2026-04-24T10:32:26.306Z</time></trkpt><trkpt lat="46.2576389" lon="13.3565541"><ele>762.6666666666667</ele><time>2026-04-24T10:32:27.306Z</time></trkpt><trkpt lat="46.2575874" lon="13.3567608"><ele>757.0</ele><time>2026-04-24T10:32:28.306Z</time></trkpt><trkpt lat="46.257536" lon="13.3569665"><ele>757.0</ele><time>2026-04-24T10:32:29.306Z</time></trkpt><trkpt lat="46.2574891" lon="13.3571737"><ele>757.0</ele><time>2026-04-24T10:32:30.305Z</time></trkpt><trkpt lat="46.257445" lon="13.3573793"><ele>757.0</ele><time>2026-04-24T10:32:31.305Z</time></trkpt><trkpt lat="46.2574016" lon="13.3575923"><ele>757.75</ele><time>2026-04-24T10:32:32.307Z</time></trkpt><trkpt lat="46.2573557" lon="13.3577966"><ele>758.5</ele><time>2026-04-24T10:32:33.306Z</time></trkpt><trkpt lat="46.2573008" lon="13.3579891"><ele>759.25</ele><time>2026-04-24T10:32:34.307Z</time></trkpt><trkpt lat="46.2572375" lon="13.3581807"><ele>760.0</ele><time>2026-04-24T10:32:35.306Z</time></trkpt><trkpt lat="46.2571779" lon="13.3583669"><ele>760.0</ele><time>2026-04-24T10:32:36.306Z</time></trkpt><trkpt lat="46.2571053" lon="13.3585424"><ele>760.0</ele><time>2026-04-24T10:32:37.305Z</time></trkpt><trkpt lat="46.2570387" lon="13.3587163"><ele>760.0</ele><time>2026-04-24T10:32:38.307Z</time></trkpt><trkpt lat="46.2569768" lon="13.3588924"><ele>760.0</ele><time>2026-04-24T10:32:39.305Z</time></trkpt><trkpt lat="46.2569238" lon="13.3590734"><ele>755.5</ele><time>2026-04-24T10:32:40.306Z</time></trkpt><trkpt lat="46.256884" lon="13.3592566"><ele>751.0</ele><time>2026-04-24T10:32:41.306Z</time></trkpt><trkpt lat="46.2568497" lon="13.3594514"><ele>746.5</ele><time>2026-04-24T10:32:42.307Z</time></trkpt><trkpt lat="46.256818" lon="13.3596481"><ele>742.0</ele><time>2026-04-24T10:32:43.305Z</time></trkpt><trkpt lat="46.2567843" lon="13.359846"><ele>738.5</ele><time>2026-04-24T10:32:44.307Z</time></trkpt><trkpt lat="46.2567544" lon="13.3600464"><ele>735.0</ele><time>2026-04-24T10:32:45.305Z</time></trkpt><trkpt lat="46.2567203" lon="13.3602483"><ele>731.5</ele><time>2026-04-24T10:32:46.306Z</time></trkpt><trkpt lat="46.2566836" lon="13.3604497"><ele>728.0</ele><time>2026-04-24T10:32:47.306Z</time></trkpt><trkpt lat="46.2566391" lon="13.3606503"><ele>724.5</ele><time>2026-04-24T10:32:48.305Z</time></trkpt><trkpt lat="46.2565855" lon="13.3608487"><ele>721.0</ele><time>2026-04-24T10:32:49.305Z</time></trkpt><trkpt lat="46.2565294" lon="13.3610393"><ele>717.5</ele><time>2026-04-24T10:32:50.306Z</time></trkpt><trkpt lat="46.2564728" lon="13.3612348"><ele>714.0</ele><time>2026-04-24T10:32:51.307Z</time></trkpt><trkpt lat="46.2564139" lon="13.3614275"><ele>712.75</ele><time>2026-04-24T10:32:52.305Z</time></trkpt><trkpt lat="46.2563498" lon="13.3616155"><ele>711.5</ele><time>2026-04-24T10:32:53.306Z</time></trkpt><trkpt lat="46.2562778" lon="13.3617844"><ele>710.25</ele><time>2026-04-24T10:32:54.305Z</time></trkpt><trkpt lat="46.2562063" lon="13.3619384"><ele>709.0</ele><time>2026-04-24T10:32:55.306Z</time></trkpt><trkpt lat="46.256148" lon="13.3620608"><ele>709.0</ele><time>2026-04-24T10:32:56.306Z</time></trkpt><trkpt lat="46.2561007" lon="13.3621607"><ele>709.0</ele><time>2026-04-24T10:32:57.306Z</time></trkpt><trkpt lat="46.2560535" lon="13.3622286"><ele>709.0</ele><time>2026-04-24T10:32:58.307Z</time></trkpt><trkpt lat="46.255939" lon="13.3622466"><ele>709.0</ele><time>2026-04-24T10:33:00.307Z</time></trkpt><trkpt lat="46.2558783" lon="13.3621794"><ele>709.0</ele><time>2026-04-24T10:33:01.307Z</time></trkpt><trkpt lat="46.2558145" lon="13.3620764"><ele>709.0</ele><time>2026-04-24T10:33:02.307Z</time></trkpt><trkpt lat="46.2557561" lon="13.3619677"><ele>709.0</ele><time>2026-04-24T10:33:03.306Z</time></trkpt><trkpt lat="46.2557066" lon="13.3618693"><ele>709.0</ele><time>2026-04-24T10:33:04.305Z</time></trkpt><trkpt lat="46.2556647" lon="13.3617848"><ele>709.0</ele><time>2026-04-24T10:33:05.306Z</time></trkpt><trkpt lat="46.2555922" lon="13.3616926"><ele>709.0</ele><time>2026-04-24T10:33:07.306Z</time></trkpt><trkpt lat="46.2555165" lon="13.3617796"><ele>709.0</ele><time>2026-04-24T10:33:09.307Z</time></trkpt><trkpt lat="46.2555378" lon="13.361948"><ele>709.0</ele><time>2026-04-24T10:33:11.306Z</time></trkpt><trkpt lat="46.2555829" lon="13.3620565"><ele>709.0</ele><time>2026-04-24T10:33:12.305Z</time></trkpt><trkpt lat="46.2556323" lon="13.3621844"><ele>709.0</ele><time>2026-04-24T10:33:13.306Z</time></trkpt><trkpt lat="46.2556828" lon="13.3623167"><ele>709.0</ele><time>2026-04-24T10:33:14.307Z</time></trkpt><trkpt lat="46.2557183" lon="13.3624523"><ele>709.0</ele><time>2026-04-24T10:33:15.306Z</time></trkpt><trkpt lat="46.2557305" lon="13.362591"><ele>706.0</ele><time>2026-04-24T10:33:16.307Z</time></trkpt><trkpt lat="46.255706" lon="13.3627296"><ele>703.0</ele><time>2026-04-24T10:33:17.305Z</time></trkpt><trkpt lat="46.2556543" lon="13.3628767"><ele>700.0</ele><time>2026-04-24T10:33:18.307Z</time></trkpt><trkpt lat="46.2555703" lon="13.3630224"><ele>697.0</ele><time>2026-04-24T10:33:19.306Z</time></trkpt><trkpt lat="46.2554808" lon="13.3631685"><ele>693.3333333333334</ele><time>2026-04-24T10:33:20.305Z</time></trkpt><trkpt lat="46.2553903" lon="13.3633284"><ele>689.6666666666666</ele><time>2026-04-24T10:33:21.307Z</time></trkpt><trkpt lat="46.2552968" lon="13.3634986"><ele>686.0</ele><time>2026-04-24T10:33:22.306Z</time></trkpt><trkpt lat="46.2551954" lon="13.3636799"><ele>686.0</ele><time>2026-04-24T10:33:23.307Z</time></trkpt><trkpt lat="46.2550901" lon="13.3638663"><ele>686.0</ele><time>2026-04-24T10:33:24.306Z</time></trkpt><trkpt lat="46.2549837" lon="13.36405"><ele>686.0</ele><time>2026-04-24T10:33:25.306Z</time></trkpt><trkpt lat="46.2548789" lon="13.3642393"><ele>685.6666666666666</ele><time>2026-04-24T10:33:26.305Z</time></trkpt><trkpt lat="46.2547692" lon="13.3644316"><ele>685.3333333333334</ele><time>2026-04-24T10:33:27.306Z</time></trkpt><trkpt lat="46.2546571" lon="13.3646298"><ele>685.0</ele><time>2026-04-24T10:33:28.307Z</time></trkpt><trkpt lat="46.2545439" lon="13.3648304"><ele>686.0</ele><time>2026-04-24T10:33:29.305Z</time></trkpt><trkpt lat="46.2544305" lon="13.3650282"><ele>687.0</ele><time>2026-04-24T10:33:30.306Z</time></trkpt><trkpt lat="46.2543248" lon="13.3652123"><ele>688.0</ele><time>2026-04-24T10:33:31.306Z</time></trkpt><trkpt lat="46.2542249" lon="13.3653869"><ele>689.25</ele><time>2026-04-24T10:33:32.307Z</time></trkpt><trkpt lat="46.2541328" lon="13.3655507"><ele>690.5</ele><time>2026-04-24T10:33:33.306Z</time></trkpt><trkpt lat="46.2540437" lon="13.3657077"><ele>691.75</ele><time>2026-04-24T10:33:34.305Z</time></trkpt><trkpt lat="46.2539572" lon="13.3658586"><ele>693.0</ele><time>2026-04-24T10:33:35.306Z</time></trkpt><trkpt lat="46.25388" lon="13.3660008"><ele>693.2</ele><time>2026-04-24T10:33:36.305Z</time></trkpt><trkpt lat="46.2538058" lon="13.366136"><ele>693.4</ele><time>2026-04-24T10:33:37.307Z</time></trkpt><trkpt lat="46.2537373" lon="13.3662696"><ele>693.6</ele><time>2026-04-24T10:33:38.305Z</time></trkpt><trkpt lat="46.2536796" lon="13.3663922"><ele>693.8000000000001</ele><time>2026-04-24T10:33:39.307Z</time></trkpt><trkpt lat="46.253645" lon="13.3665152"><ele>694.0</ele><time>2026-04-24T10:33:40.305Z</time></trkpt><trkpt lat="46.2536264" lon="13.3666468"><ele>693.4000000000001</ele><time>2026-04-24T10:33:41.306Z</time></trkpt><trkpt lat="46.2536378" lon="13.3667775"><ele>692.8</ele><time>2026-04-24T10:33:42.307Z</time></trkpt><trkpt lat="46.2536755" lon="13.3669062"><ele>692.2</ele><time>2026-04-24T10:33:43.307Z</time></trkpt><trkpt lat="46.2537287" lon="13.3670196"><ele>691.5999999999999</ele><time>2026-04-24T10:33:44.305Z</time></trkpt><trkpt lat="46.2538009" lon="13.3671339"><ele>691.0</ele><time>2026-04-24T10:33:45.305Z</time></trkpt><trkpt lat="46.2538728" lon="13.3672583"><ele>691.4</ele><time>2026-04-24T10:33:46.306Z</time></trkpt><trkpt lat="46.253918" lon="13.3674073"><ele>691.8</ele><time>2026-04-24T10:33:47.306Z</time></trkpt><trkpt lat="46.2539511" lon="13.3675525"><ele>692.1999999999999</ele><time>2026-04-24T10:33:48.306Z</time></trkpt><trkpt lat="46.2539666" lon="13.3676802"><ele>692.5999999999999</ele><time>2026-04-24T10:33:49.306Z</time></trkpt><trkpt lat="46.2539569" lon="13.3677999"><ele>693.0</ele><time>2026-04-24T10:33:50.305Z</time></trkpt><trkpt lat="46.2539231" lon="13.3679201"><ele>698.2</ele><time>2026-04-24T10:33:51.306Z</time></trkpt><trkpt lat="46.2538722" lon="13.3680386"><ele>703.4</ele><time>2026-04-24T10:33:52.307Z</time></trkpt><trkpt lat="46.253807" lon="13.3681634"><ele>708.6</ele><time>2026-04-24T10:33:53.305Z</time></trkpt><trkpt lat="46.2537256" lon="13.3682871"><ele>713.8000000000001</ele><time>2026-04-24T10:33:54.306Z</time></trkpt><trkpt lat="46.2536351" lon="13.3684119"><ele>719.0</ele><time>2026-04-24T10:33:55.305Z</time></trkpt><trkpt lat="46.2535404" lon="13.3685429"><ele>719.0</ele><time>2026-04-24T10:33:56.306Z</time></trkpt><trkpt lat="46.2534448" lon="13.3686736"><ele>719.0</ele><time>2026-04-24T10:33:57.305Z</time></trkpt><trkpt lat="46.2533507" lon="13.3688024"><ele>719.0</ele><time>2026-04-24T10:33:58.307Z</time></trkpt><trkpt lat="46.2532546" lon="13.3689356"><ele>719.0</ele><time>2026-04-24T10:33:59.307Z</time></trkpt><trkpt lat="46.2531575" lon="13.3690687"><ele>722.75</ele><time>2026-04-24T10:34:00.306Z</time></trkpt><trkpt lat="46.2530659" lon="13.3692132"><ele>726.5</ele><time>2026-04-24T10:34:01.307Z</time></trkpt><trkpt lat="46.2529808" lon="13.369369"><ele>730.25</ele><time>2026-04-24T10:34:02.306Z</time></trkpt><trkpt lat="46.2529018" lon="13.3695387"><ele>734.0</ele><time>2026-04-24T10:34:03.305Z</time></trkpt><trkpt lat="46.2528279" lon="13.3697184"><ele>734.0</ele><time>2026-04-24T10:34:04.307Z</time></trkpt><trkpt lat="46.2527493" lon="13.3698973"><ele>734.0</ele><time>2026-04-24T10:34:05.307Z</time></trkpt><trkpt lat="46.252672" lon="13.3700835"><ele>734.0</ele><time>2026-04-24T10:34:06.307Z</time></trkpt><trkpt lat="46.2525981" lon="13.370271"><ele>734.0</ele><time>2026-04-24T10:34:07.307Z</time></trkpt><trkpt lat="46.2525184" lon="13.3704561"><ele>729.0</ele><time>2026-04-24T10:34:08.305Z</time></trkpt><trkpt lat="46.252429" lon="13.3706323"><ele>724.0</ele><time>2026-04-24T10:34:09.307Z</time></trkpt><trkpt lat="46.2523242" lon="13.3707898"><ele>719.0</ele><time>2026-04-24T10:34:10.306Z</time></trkpt><trkpt lat="46.2522144" lon="13.3709499"><ele>727.0</ele><time>2026-04-24T10:34:11.306Z</time></trkpt><trkpt lat="46.2521056" lon="13.3711068"><ele>735.0</ele><time>2026-04-24T10:34:12.306Z</time></trkpt><trkpt lat="46.2519969" lon="13.37127"><ele>743.0</ele><time>2026-04-24T10:34:13.306Z</time></trkpt><trkpt lat="46.2518876" lon="13.371431"><ele>743.0</ele><time>2026-04-24T10:34:14.306Z</time></trkpt><trkpt lat="46.2517779" lon="13.371598"><ele>743.0</ele><time>2026-04-24T10:34:15.306Z</time></trkpt><trkpt lat="46.2516674" lon="13.3717694"><ele>743.0</ele><time>2026-04-24T10:34:16.306Z</time></trkpt><trkpt lat="46.2515622" lon="13.3719448"><ele>750.0</ele><time>2026-04-24T10:34:17.307Z</time></trkpt><trkpt lat="46.2514561" lon="13.3721195"><ele>757.0</ele><time>2026-04-24T10:34:18.306Z</time></trkpt><trkpt lat="46.2513507" lon="13.3722972"><ele>764.0</ele><time>2026-04-24T10:34:19.307Z</time></trkpt><trkpt lat="46.2512399" lon="13.3724727"><ele>764.0</ele><time>2026-04-24T10:34:20.307Z</time></trkpt><trkpt lat="46.2511298" lon="13.3726483"><ele>764.0</ele><time>2026-04-24T10:34:21.306Z</time></trkpt><trkpt lat="46.2510205" lon="13.3728206"><ele>764.0</ele><time>2026-04-24T10:34:22.306Z</time></trkpt><trkpt lat="46.2509014" lon="13.3729851"><ele>771.6666666666666</ele><time>2026-04-24T10:34:23.307Z</time></trkpt><trkpt lat="46.2507798" lon="13.3731406"><ele>779.3333333333333</ele><time>2026-04-24T10:34:24.306Z</time></trkpt><trkpt lat="46.2506585" lon="13.3732961"><ele>787.0</ele><time>2026-04-24T10:34:25.305Z</time></trkpt><trkpt lat="46.2505384" lon="13.3734546"><ele>787.0</ele><time>2026-04-24T10:34:26.306Z</time></trkpt><trkpt lat="46.2504232" lon="13.3736194"><ele>787.0</ele><time>2026-04-24T10:34:27.307Z</time></trkpt><trkpt lat="46.2503171" lon="13.3737929"><ele>787.0</ele><time>2026-04-24T10:34:28.307Z</time></trkpt><trkpt lat="46.2502112" lon="13.3739676"><ele>781.25</ele><time>2026-04-24T10:34:29.306Z</time></trkpt><trkpt lat="46.2501126" lon="13.3741291"><ele>775.5</ele><time>2026-04-24T10:34:30.306Z</time></trkpt><trkpt lat="46.2500278" lon="13.3742723"><ele>769.75</ele><time>2026-04-24T10:34:31.306Z</time></trkpt><trkpt lat="46.2499533" lon="13.3744056"><ele>764.0</ele><time>2026-04-24T10:34:32.306Z</time></trkpt><trkpt lat="46.2499002" lon="13.3745232"><ele>764.0</ele><time>2026-04-24T10:34:33.305Z</time></trkpt><trkpt lat="46.2498779" lon="13.3746335"><ele>764.0</ele><time>2026-04-24T10:34:34.305Z</time></trkpt><trkpt lat="46.2498895" lon="13.3747449"><ele>764.0</ele><time>2026-04-24T10:34:35.307Z</time></trkpt><trkpt lat="46.249929" lon="13.3748557"><ele>764.0</ele><time>2026-04-24T10:34:36.307Z</time></trkpt><trkpt lat="46.2499756" lon="13.3749627"><ele>764.0</ele><time>2026-04-24T10:34:37.306Z</time></trkpt><trkpt lat="46.2500021" lon="13.3750739"><ele>764.0</ele><time>2026-04-24T10:34:38.306Z</time></trkpt><trkpt lat="46.2500005" lon="13.3751894"><ele>763.1666666666666</ele><time>2026-04-24T10:34:39.306Z</time></trkpt><trkpt lat="46.2499686" lon="13.3752911"><ele>762.3333333333333</ele><time>2026-04-24T10:34:40.306Z</time></trkpt><trkpt lat="46.2499078" lon="13.3753671"><ele>761.5</ele><time>2026-04-24T10:34:41.306Z</time></trkpt><trkpt lat="46.2498222" lon="13.3754179"><ele>760.6666666666666</ele><time>2026-04-24T10:34:42.306Z</time></trkpt><trkpt lat="46.2497291" lon="13.3754592"><ele>759.8333333333334</ele><time>2026-04-24T10:34:43.306Z</time></trkpt><trkpt lat="46.2496344" lon="13.375486"><ele>759.0</ele><time>2026-04-24T10:34:44.307Z</time></trkpt><trkpt lat="46.2495363" lon="13.3754628"><ele>763.4000000000001</ele><time>2026-04-24T10:34:45.306Z</time></trkpt><trkpt lat="46.2494325" lon="13.3754082"><ele>767.8</ele><time>2026-04-24T10:34:46.305Z</time></trkpt><trkpt lat="46.2493441" lon="13.375351"><ele>772.2</ele><time>2026-04-24T10:34:47.307Z</time></trkpt><trkpt lat="46.2492506" lon="13.3753187"><ele>776.5999999999999</ele><time>2026-04-24T10:34:48.305Z</time></trkpt><trkpt lat="46.2491513" lon="13.3752804"><ele>781.0</ele><time>2026-04-24T10:34:49.306Z</time></trkpt><trkpt lat="46.2490656" lon="13.3752708"><ele>781.0</ele><time>2026-04-24T10:34:50.306Z</time></trkpt><trkpt lat="46.2490582" lon="13.3754492"><ele>781.0</ele><time>2026-04-24T10:34:51.306Z</time></trkpt><trkpt lat="46.2490265" lon="13.3755664"><ele>781.0</ele><time>2026-04-24T10:34:52.305Z</time></trkpt><trkpt lat="46.2490174" lon="13.3757106"><ele>781.0</ele><time>2026-04-24T10:34:53.306Z</time></trkpt><trkpt lat="46.2490168" lon="13.3758379"><ele>781.0</ele><time>2026-04-24T10:34:54.305Z</time></trkpt><trkpt lat="46.2489922" lon="13.3759515"><ele>783.4</ele><time>2026-04-24T10:34:55.306Z</time></trkpt><trkpt lat="46.2489469" lon="13.3760551"><ele>785.8</ele><time>2026-04-24T10:34:56.306Z</time></trkpt><trkpt lat="46.2488609" lon="13.3761346"><ele>788.1999999999999</ele><time>2026-04-24T10:34:57.306Z</time></trkpt><trkpt lat="46.2487871" lon="13.3762397"><ele>790.5999999999999</ele><time>2026-04-24T10:34:58.307Z</time></trkpt><trkpt lat="46.2487231" lon="13.3763549"><ele>793.0</ele><time>2026-04-24T10:34:59.305Z</time></trkpt><trkpt lat="46.2486593" lon="13.3764816"><ele>793.0</ele><time>2026-04-24T10:35:00.307Z</time></trkpt><trkpt lat="46.2486171" lon="13.3766248"><ele>793.0</ele><time>2026-04-24T10:35:01.307Z</time></trkpt><trkpt lat="46.2485845" lon="13.3767789"><ele>793.0</ele><time>2026-04-24T10:35:02.305Z</time></trkpt><trkpt lat="46.2485977" lon="13.376923"><ele>793.0</ele><time>2026-04-24T10:35:03.307Z</time></trkpt><trkpt lat="46.2485978" lon="13.3770619"><ele>793.0</ele><time>2026-04-24T10:35:04.305Z</time></trkpt><trkpt lat="46.2485716" lon="13.3771918"><ele>790.5</ele><time>2026-04-24T10:35:05.305Z</time></trkpt><trkpt lat="46.2485212" lon="13.3773108"><ele>788.0</ele><time>2026-04-24T10:35:06.306Z</time></trkpt><trkpt lat="46.2484433" lon="13.3774442"><ele>785.5</ele><time>2026-04-24T10:35:07.305Z</time></trkpt><trkpt lat="46.2483576" lon="13.3775808"><ele>783.0</ele><time>2026-04-24T10:35:08.305Z</time></trkpt><trkpt lat="46.2482703" lon="13.3777104"><ele>783.0</ele><time>2026-04-24T10:35:09.305Z</time></trkpt><trkpt lat="46.248171" lon="13.3778468"><ele>783.0</ele><time>2026-04-24T10:35:10.305Z</time></trkpt><trkpt lat="46.2480681" lon="13.377983"><ele>783.0</ele><time>2026-04-24T10:35:11.305Z</time></trkpt><trkpt lat="46.2479602" lon="13.3781238"><ele>783.0</ele><time>2026-04-24T10:35:12.304Z</time></trkpt><trkpt lat="46.2478454" lon="13.3782656"><ele>791.0</ele><time>2026-04-24T10:35:13.305Z</time></trkpt><trkpt lat="46.2477366" lon="13.3784237"><ele>799.0</ele><time>2026-04-24T10:35:14.305Z</time></trkpt><trkpt lat="46.2476433" lon="13.3786053"><ele>807.0</ele><time>2026-04-24T10:35:15.306Z</time></trkpt><trkpt lat="46.2475487" lon="13.3787838"><ele>808.25</ele><time>2026-04-24T10:35:16.304Z</time></trkpt><trkpt lat="46.2474527" lon="13.3789602"><ele>809.5</ele><time>2026-04-24T10:35:17.305Z</time></trkpt><trkpt lat="46.2473675" lon="13.3791346"><ele>810.75</ele><time>2026-04-24T10:35:18.305Z</time></trkpt><trkpt lat="46.2472967" lon="13.3793126"><ele>812.0</ele><time>2026-04-24T10:35:19.305Z</time></trkpt><trkpt lat="46.2472529" lon="13.3795024"><ele>807.2</ele><time>2026-04-24T10:35:20.305Z</time></trkpt><trkpt lat="46.2472349" lon="13.3796961"><ele>802.4000000000001</ele><time>2026-04-24T10:35:21.304Z</time></trkpt><trkpt lat="46.2472276" lon="13.3798714"><ele>797.5999999999999</ele><time>2026-04-24T10:35:22.305Z</time></trkpt><trkpt lat="46.2472301" lon="13.3800103"><ele>792.8</ele><time>2026-04-24T10:35:23.305Z</time></trkpt><trkpt lat="46.2472358" lon="13.3801228"><ele>788.0</ele><time>2026-04-24T10:35:24.305Z</time></trkpt><trkpt lat="46.2472402" lon="13.3802599"><ele>787.3333333333334</ele><time>2026-04-24T10:35:26.304Z</time></trkpt><trkpt lat="46.247308" lon="13.3802856"><ele>786.6666666666667</ele><time>2026-04-24T10:35:54.304Z</time></trkpt><trkpt lat="46.2473921" lon="13.380335"><ele>786.0</ele><time>2026-04-24T10:35:57.305Z</time></trkpt><trkpt lat="46.2474584" lon="13.3804023"><ele>785.3333333333333</ele><time>2026-04-24T10:36:28.306Z</time></trkpt><trkpt lat="46.2475556" lon="13.3804336"><ele>784.6666666666666</ele><time>2026-04-24T10:36:29.304Z</time></trkpt><trkpt lat="46.2476181" lon="13.3804662"><ele>784.0</ele><time>2026-04-24T10:36:30.305Z</time></trkpt><trkpt lat="46.2477228" lon="13.3805118"><ele>785.1666666666666</ele><time>2026-04-24T10:36:32.305Z</time></trkpt><trkpt lat="46.2478064" lon="13.3805867"><ele>786.3333333333333</ele><time>2026-04-24T10:36:34.305Z</time></trkpt><trkpt lat="46.2478573" lon="13.3806562"><ele>787.5</ele><time>2026-04-24T10:36:36.306Z</time></trkpt><trkpt lat="46.2478708" lon="13.3807571"><ele>788.6666666666667</ele><time>2026-04-24T10:36:38.305Z</time></trkpt><trkpt lat="46.2478511" lon="13.3808573"><ele>789.8333333333334</ele><time>2026-04-24T10:36:40.306Z</time></trkpt><trkpt lat="46.2478106" lon="13.3809539"><ele>791.0</ele><time>2026-04-24T10:36:42.304Z</time></trkpt><trkpt lat="46.2477768" lon="13.3810672"><ele>791.0000000000001</ele><time>2026-04-24T10:36:44.304Z</time></trkpt><trkpt lat="46.2477312" lon="13.3811427"><ele>791.0</ele><time>2026-04-24T10:36:45.306Z</time></trkpt><trkpt lat="46.247707" lon="13.3812309"><ele>791.0</ele><time>2026-04-24T10:36:46.304Z</time></trkpt><trkpt lat="46.2476784" lon="13.3813278"><ele>791.0</ele><time>2026-04-24T10:36:47.305Z</time></trkpt><trkpt lat="46.2476678" lon="13.3815001"><ele>791.0000000000001</ele><time>2026-04-24T10:36:49.305Z</time></trkpt><trkpt lat="46.2477143" lon="13.3816366"><ele>791.0</ele><time>2026-04-24T10:36:51.305Z</time></trkpt><trkpt lat="46.2477124" lon="13.3817714"><ele>791.8</ele><time>2026-04-24T10:36:53.304Z</time></trkpt><trkpt lat="46.2476621" lon="13.3818766"><ele>792.5999999999999</ele><time>2026-04-24T10:36:55.304Z</time></trkpt><trkpt lat="46.2475639" lon="13.381993"><ele>793.4</ele><time>2026-04-24T10:36:57.306Z</time></trkpt><trkpt lat="46.2474822" lon="13.3820993"><ele>794.2</ele><time>2026-04-24T10:36:59.304Z</time></trkpt><trkpt lat="46.2474066" lon="13.3822396"><ele>795.0</ele><time>2026-04-24T10:37:01.305Z</time></trkpt><trkpt lat="46.2473615" lon="13.3823174"><ele>795.0</ele><time>2026-04-24T10:37:02.305Z</time></trkpt><trkpt lat="46.2473124" lon="13.3823979"><ele>795.0</ele><time>2026-04-24T10:37:03.306Z</time></trkpt><trkpt lat="46.2472713" lon="13.3824778"><ele>795.0</ele><time>2026-04-24T10:37:04.304Z</time></trkpt><trkpt lat="46.2472432" lon="13.382642"><ele>795.0</ele><time>2026-04-24T10:37:06.305Z</time></trkpt><trkpt lat="46.2472153" lon="13.3828024"><ele>795.0</ele><time>2026-04-24T10:37:08.305Z</time></trkpt><trkpt lat="46.2472477" lon="13.3829455"><ele>797.25</ele><time>2026-04-24T10:37:10.305Z</time></trkpt><trkpt lat="46.2473111" lon="13.3830836"><ele>799.5</ele><time>2026-04-24T10:37:12.305Z</time></trkpt><trkpt lat="46.2474121" lon="13.3831791"><ele>801.75</ele><time>2026-04-24T10:37:14.305Z</time></trkpt><trkpt lat="46.2475183" lon="13.3832891"><ele>804.0</ele><time>2026-04-24T10:37:16.305Z</time></trkpt><trkpt lat="46.247599" lon="13.3833347"><ele>804.0</ele><time>2026-04-24T10:37:17.305Z</time></trkpt><trkpt lat="46.2476742" lon="13.3833768"><ele>804.0</ele><time>2026-04-24T10:37:18.305Z</time></trkpt><trkpt lat="46.2477886" lon="13.3834256"><ele>804.0</ele><time>2026-04-24T10:37:20.304Z</time></trkpt><trkpt lat="46.2478559" lon="13.3834262"><ele>804.0</ele><time>2026-04-24T10:37:21.305Z</time></trkpt><trkpt lat="46.247966" lon="13.3834495"><ele>804.0</ele><time>2026-04-24T10:37:23.305Z</time></trkpt><trkpt lat="46.2480324" lon="13.3834907"><ele>804.0</ele><time>2026-04-24T10:37:25.305Z</time></trkpt><trkpt lat="46.2480305" lon="13.3835936"><ele>804.0</ele><time>2026-04-24T10:37:27.306Z</time></trkpt><trkpt lat="46.2480064" lon="13.383758"><ele>804.0</ele><time>2026-04-24T10:37:29.304Z</time></trkpt><trkpt lat="46.2479696" lon="13.3838423"><ele>804.0</ele><time>2026-04-24T10:37:30.306Z</time></trkpt><trkpt lat="46.2479282" lon="13.3839323"><ele>804.0</ele><time>2026-04-24T10:37:31.306Z</time></trkpt><trkpt lat="46.2478843" lon="13.3840274"><ele>804.0</ele><time>2026-04-24T10:37:32.305Z</time></trkpt><trkpt lat="46.2478011" lon="13.3842208"><ele>806.0</ele><time>2026-04-24T10:37:34.305Z</time></trkpt><trkpt lat="46.2477618" lon="13.3843151"><ele>808.0</ele><time>2026-04-24T10:37:35.306Z</time></trkpt><trkpt lat="46.2477267" lon="13.3844109"><ele>810.0</ele><time>2026-04-24T10:37:36.304Z</time></trkpt><trkpt lat="46.2476932" lon="13.3845048"><ele>812.0</ele><time>2026-04-24T10:37:37.305Z</time></trkpt><trkpt lat="46.2476952" lon="13.3846024"><ele>814.0</ele><time>2026-04-24T10:37:38.305Z</time></trkpt><trkpt lat="46.2476871" lon="13.3847013"><ele>816.0</ele><time>2026-04-24T10:37:39.305Z</time></trkpt><trkpt lat="46.2476534" lon="13.3848707"><ele>816.0</ele><time>2026-04-24T10:37:41.305Z</time></trkpt><trkpt lat="46.2476029" lon="13.3850276"><ele>816.0</ele><time>2026-04-24T10:37:43.304Z</time></trkpt><trkpt lat="46.247541" lon="13.3851714"><ele>816.0</ele><time>2026-04-24T10:37:45.306Z</time></trkpt><trkpt lat="46.2474825" lon="13.3853355"><ele>816.0</ele><time>2026-04-24T10:37:47.305Z</time></trkpt><trkpt lat="46.2474593" lon="13.3854259"><ele>816.0</ele><time>2026-04-24T10:37:48.306Z</time></trkpt><trkpt lat="46.2474247" lon="13.3855189"><ele>815.5999999999999</ele><time>2026-04-24T10:37:49.305Z</time></trkpt><trkpt lat="46.2474023" lon="13.3856052"><ele>815.2</ele><time>2026-04-24T10:37:50.305Z</time></trkpt><trkpt lat="46.247391" lon="13.3857002"><ele>814.8</ele><time>2026-04-24T10:37:51.304Z</time></trkpt><trkpt lat="46.2474028" lon="13.3858668"><ele>814.4000000000001</ele><time>2026-04-24T10:37:53.306Z</time></trkpt><trkpt lat="46.2474487" lon="13.3860177"><ele>814.0</ele><time>2026-04-24T10:37:55.305Z</time></trkpt><trkpt lat="46.2475104" lon="13.3861518"><ele>814.0</ele><time>2026-04-24T10:37:57.306Z</time></trkpt><trkpt lat="46.2475566" lon="13.3862788"><ele>814.0</ele><time>2026-04-24T10:37:59.305Z</time></trkpt><trkpt lat="46.247518" lon="13.3864775"><ele>814.0</ele><time>2026-04-24T10:38:01.305Z</time></trkpt><trkpt lat="46.2474847" lon="13.3865803"><ele>814.0</ele><time>2026-04-24T10:38:02.306Z</time></trkpt><trkpt lat="46.2474466" lon="13.3867283"><ele>814.0</ele><time>2026-04-24T10:38:04.304Z</time></trkpt><trkpt lat="46.2474514" lon="13.3868705"><ele>814.4000000000001</ele><time>2026-04-24T10:38:06.305Z</time></trkpt><trkpt lat="46.2475189" lon="13.3869526"><ele>814.8</ele><time>2026-04-24T10:38:08.304Z</time></trkpt><trkpt lat="46.2476423" lon="13.3869839"><ele>815.2</ele><time>2026-04-24T10:38:10.306Z</time></trkpt><trkpt lat="46.247716" lon="13.3869659"><ele>815.5999999999999</ele><time>2026-04-24T10:38:11.305Z</time></trkpt><trkpt lat="46.2477886" lon="13.38695"><ele>816.0</ele><time>2026-04-24T10:38:12.304Z</time></trkpt><trkpt lat="46.2478879" lon="13.3869301"><ele>816.0</ele><time>2026-04-24T10:38:14.304Z</time></trkpt><trkpt lat="46.2479487" lon="13.3869963"><ele>816.0</ele><time>2026-04-24T10:38:17.306Z</time></trkpt><trkpt lat="46.2479203" lon="13.3871051"><ele>816.0</ele><time>2026-04-24T10:38:19.304Z</time></trkpt><trkpt lat="46.247846" lon="13.387217"><ele>816.0</ele><time>2026-04-24T10:38:21.305Z</time></trkpt><trkpt lat="46.2477981" lon="13.3872782"><ele>816.0</ele><time>2026-04-24T10:38:22.304Z</time></trkpt><trkpt lat="46.2477478" lon="13.3873447"><ele>816.0</ele><time>2026-04-24T10:38:23.306Z</time></trkpt><trkpt lat="46.2476952" lon="13.3874328"><ele>816.8333333333334</ele><time>2026-04-24T10:38:24.304Z</time></trkpt><trkpt lat="46.2476331" lon="13.3875312"><ele>817.6666666666667</ele><time>2026-04-24T10:38:25.306Z</time></trkpt><trkpt lat="46.2475704" lon="13.3876312"><ele>818.5</ele><time>2026-04-24T10:38:26.305Z</time></trkpt><trkpt lat="46.2475073" lon="13.387728"><ele>819.3333333333334</ele><time>2026-04-24T10:38:27.305Z</time></trkpt><trkpt lat="46.2474472" lon="13.3878224"><ele>820.1666666666667</ele><time>2026-04-24T10:38:28.306Z</time></trkpt><trkpt lat="46.2473962" lon="13.387914"><ele>821.0</ele><time>2026-04-24T10:38:29.305Z</time></trkpt><trkpt lat="46.2473359" lon="13.3880105"><ele>822.3333333333334</ele><time>2026-04-24T10:38:30.305Z</time></trkpt><trkpt lat="46.2472826" lon="13.3881144"><ele>823.6666666666667</ele><time>2026-04-24T10:38:31.305Z</time></trkpt><trkpt lat="46.2472338" lon="13.388217"><ele>825.0</ele><time>2026-04-24T10:38:32.306Z</time></trkpt><trkpt lat="46.2471864" lon="13.3883176"><ele>826.3333333333333</ele><time>2026-04-24T10:38:33.306Z</time></trkpt><trkpt lat="46.2471411" lon="13.3884183"><ele>827.6666666666666</ele><time>2026-04-24T10:38:34.306Z</time></trkpt><trkpt lat="46.2471291" lon="13.3885138"><ele>829.0</ele><time>2026-04-24T10:38:35.306Z</time></trkpt><trkpt lat="46.2470946" lon="13.3885961"><ele>828.9999999999999</ele><time>2026-04-24T10:38:36.306Z</time></trkpt><trkpt lat="46.2470146" lon="13.3887283"><ele>829.0</ele><time>2026-04-24T10:38:38.306Z</time></trkpt><trkpt lat="46.2469636" lon="13.3887828"><ele>829.0</ele><time>2026-04-24T10:38:39.305Z</time></trkpt><trkpt lat="46.2469019" lon="13.3888329"><ele>829.0</ele><time>2026-04-24T10:38:40.305Z</time></trkpt><trkpt lat="46.2468401" lon="13.3888777"><ele>828.9999999999999</ele><time>2026-04-24T10:38:41.305Z</time></trkpt><trkpt lat="46.2467755" lon="13.3889183"><ele>829.0</ele><time>2026-04-24T10:38:42.305Z</time></trkpt><trkpt lat="46.2467112" lon="13.3889539"><ele>827.6666666666666</ele><time>2026-04-24T10:38:43.305Z</time></trkpt><trkpt lat="46.2466419" lon="13.3889791"><ele>826.3333333333333</ele><time>2026-04-24T10:38:44.306Z</time></trkpt><trkpt lat="46.2465763" lon="13.3890188"><ele>825.0</ele><time>2026-04-24T10:38:45.305Z</time></trkpt><trkpt lat="46.2465105" lon="13.389048"><ele>823.6666666666667</ele><time>2026-04-24T10:38:46.305Z</time></trkpt><trkpt lat="46.2464004" lon="13.3890778"><ele>822.3333333333334</ele><time>2026-04-24T10:38:48.305Z</time></trkpt><trkpt lat="46.2462902" lon="13.3891197"><ele>821.0</ele><time>2026-04-24T10:38:50.305Z</time></trkpt><trkpt lat="46.2461758" lon="13.3891824"><ele>821.0000000000001</ele><time>2026-04-24T10:38:52.304Z</time></trkpt><trkpt lat="46.2461161" lon="13.3892216"><ele>821.0</ele><time>2026-04-24T10:38:53.305Z</time></trkpt><trkpt lat="46.2460575" lon="13.3892706"><ele>821.0</ele><time>2026-04-24T10:38:54.305Z</time></trkpt><trkpt lat="46.2460007" lon="13.3893206"><ele>821.0</ele><time>2026-04-24T10:38:55.305Z</time></trkpt><trkpt lat="46.2459406" lon="13.3893718"><ele>821.0</ele><time>2026-04-24T10:38:56.306Z</time></trkpt><trkpt lat="46.2458777" lon="13.3894184"><ele>821.0000000000001</ele><time>2026-04-24T10:38:57.305Z</time></trkpt><trkpt lat="46.2458198" lon="13.3894673"><ele>821.0</ele><time>2026-04-24T10:38:58.305Z</time></trkpt><trkpt lat="46.2457617" lon="13.3895122"><ele>821.0</ele><time>2026-04-24T10:38:59.304Z</time></trkpt><trkpt lat="46.2456728" lon="13.3895896"><ele>821.0</ele><time>2026-04-24T10:39:01.304Z</time></trkpt><trkpt lat="46.2455978" lon="13.3896521"><ele>821.0</ele><time>2026-04-24T10:39:03.304Z</time></trkpt><trkpt lat="46.2455194" lon="13.3897223"><ele>821.0</ele><time>2026-04-24T10:39:05.304Z</time></trkpt><trkpt lat="46.2454367" lon="13.3897683"><ele>821.0</ele><time>2026-04-24T10:39:07.304Z</time></trkpt><trkpt lat="46.2453486" lon="13.3898117"><ele>817.8</ele><time>2026-04-24T10:39:09.303Z</time></trkpt><trkpt lat="46.2452613" lon="13.3898607"><ele>814.5999999999999</ele><time>2026-04-24T10:39:11.304Z</time></trkpt><trkpt lat="46.2451696" lon="13.3899126"><ele>811.4</ele><time>2026-04-24T10:39:13.303Z</time></trkpt><trkpt lat="46.245087" lon="13.3899814"><ele>808.2</ele><time>2026-04-24T10:39:15.305Z</time></trkpt><trkpt lat="46.2450033" lon="13.3900415"><ele>805.0</ele><time>2026-04-24T10:39:17.304Z</time></trkpt><trkpt lat="46.2449344" lon="13.3900876"><ele>804.9999999999999</ele><time>2026-04-24T10:39:19.304Z</time></trkpt><trkpt lat="46.2448619" lon="13.390149"><ele>805.0</ele><time>2026-04-24T10:39:21.304Z</time></trkpt><trkpt lat="46.244788" lon="13.3902061"><ele>805.0</ele><time>2026-04-24T10:39:23.305Z</time></trkpt><trkpt lat="46.2447049" lon="13.390257"><ele>805.0</ele><time>2026-04-24T10:39:25.304Z</time></trkpt><trkpt lat="46.244616" lon="13.3902972"><ele>804.9999999999999</ele><time>2026-04-24T10:39:27.305Z</time></trkpt><trkpt lat="46.2445266" lon="13.3903515"><ele>805.0</ele><time>2026-04-24T10:39:29.305Z</time></trkpt><trkpt lat="46.244451" lon="13.3903748"><ele>801.4</ele><time>2026-04-24T10:39:31.304Z</time></trkpt><trkpt lat="46.2443869" lon="13.3903908"><ele>797.8</ele><time>2026-04-24T10:39:33.304Z</time></trkpt><trkpt lat="46.2442879" lon="13.3904008"><ele>794.2</ele><time>2026-04-24T10:39:35.305Z</time></trkpt><trkpt lat="46.2441907" lon="13.3904009"><ele>790.6</ele><time>2026-04-24T10:39:37.305Z</time></trkpt><trkpt lat="46.244088" lon="13.3904061"><ele>787.0</ele><time>2026-04-24T10:39:39.303Z</time></trkpt><trkpt lat="46.2439959" lon="13.3904256"><ele>786.6</ele><time>2026-04-24T10:39:41.303Z</time></trkpt><trkpt lat="46.2439227" lon="13.3904523"><ele>786.2</ele><time>2026-04-24T10:39:43.305Z</time></trkpt><trkpt lat="46.2438432" lon="13.3905142"><ele>785.8</ele><time>2026-04-24T10:39:45.303Z</time></trkpt><trkpt lat="46.2437525" lon="13.3905857"><ele>785.4</ele><time>2026-04-24T10:39:47.305Z</time></trkpt><trkpt lat="46.2436575" lon="13.3906507"><ele>785.0</ele><time>2026-04-24T10:39:49.304Z</time></trkpt><trkpt lat="46.2435721" lon="13.3907519"><ele>785.0</ele><time>2026-04-24T10:39:51.304Z</time></trkpt><trkpt lat="46.2435243" lon="13.3908168"><ele>785.0</ele><time>2026-04-24T10:39:53.304Z</time></trkpt><trkpt lat="46.2434532" lon="13.39087"><ele>785.0</ele><time>2026-04-24T10:39:55.305Z</time></trkpt><trkpt lat="46.2433692" lon="13.390948"><ele>785.0</ele><time>2026-04-24T10:39:57.303Z</time></trkpt><trkpt lat="46.2432626" lon="13.3910284"><ele>785.0</ele><time>2026-04-24T10:39:59.303Z</time></trkpt><trkpt lat="46.2431438" lon="13.3910229"><ele>782.1666666666667</ele><time>2026-04-24T10:40:01.305Z</time></trkpt><trkpt lat="46.2430481" lon="13.3910294"><ele>779.3333333333334</ele><time>2026-04-24T10:40:03.304Z</time></trkpt><trkpt lat="46.2429672" lon="13.3910573"><ele>776.5</ele><time>2026-04-24T10:40:05.304Z</time></trkpt><trkpt lat="46.2429154" lon="13.3911361"><ele>773.6666666666667</ele><time>2026-04-24T10:40:07.304Z</time></trkpt><trkpt lat="46.2429252" lon="13.3912343"><ele>770.8333333333334</ele><time>2026-04-24T10:40:08.305Z</time></trkpt><trkpt lat="46.2429096" lon="13.3913279"><ele>768.0</ele><time>2026-04-24T10:40:09.304Z</time></trkpt><trkpt lat="46.2428941" lon="13.3914207"><ele>768.0</ele><time>2026-04-24T10:40:10.305Z</time></trkpt><trkpt lat="46.2428707" lon="13.3915618"><ele>768.0</ele><time>2026-04-24T10:40:12.304Z</time></trkpt><trkpt lat="46.2428274" lon="13.3916671"><ele>768.0</ele><time>2026-04-24T10:40:14.305Z</time></trkpt><trkpt lat="46.2427623" lon="13.3917332"><ele>768.0</ele><time>2026-04-24T10:40:16.304Z</time></trkpt><trkpt lat="46.2426966" lon="13.3917794"><ele>768.0</ele><time>2026-04-24T10:40:18.304Z</time></trkpt><trkpt lat="46.2426217" lon="13.3918694"><ele>768.0</ele><time>2026-04-24T10:40:20.304Z</time></trkpt><trkpt lat="46.2426135" lon="13.391986"><ele>768.0</ele><time>2026-04-24T10:40:22.304Z</time></trkpt><trkpt lat="46.2426133" lon="13.3921128"><ele>768.0</ele><time>2026-04-24T10:40:24.305Z</time></trkpt><trkpt lat="46.242657" lon="13.3921822"><ele>768.0</ele><time>2026-04-24T10:40:25.303Z</time></trkpt><trkpt lat="46.2427002" lon="13.3923413"><ele>768.0</ele><time>2026-04-24T10:40:27.303Z</time></trkpt><trkpt lat="46.2427728" lon="13.392422"><ele>768.0</ele><time>2026-04-24T10:40:29.303Z</time></trkpt><trkpt lat="46.2428185" lon="13.3925197"><ele>768.0</ele><time>2026-04-24T10:40:31.304Z</time></trkpt><trkpt lat="46.242808" lon="13.3926148"><ele>767.4</ele><time>2026-04-24T10:40:33.304Z</time></trkpt><trkpt lat="46.2428017" lon="13.3927529"><ele>766.8</ele><time>2026-04-24T10:40:35.304Z</time></trkpt><trkpt lat="46.242775" lon="13.3928498"><ele>766.2</ele><time>2026-04-24T10:40:36.304Z</time></trkpt><trkpt lat="46.2427582" lon="13.3930023"><ele>765.6</ele><time>2026-04-24T10:40:38.303Z</time></trkpt><trkpt lat="46.2427359" lon="13.3931636"><ele>765.0</ele><time>2026-04-24T10:40:40.304Z</time></trkpt><trkpt lat="46.2427345" lon="13.393271"><ele>762.6</ele><time>2026-04-24T10:40:42.304Z</time></trkpt><trkpt lat="46.2427222" lon="13.393399"><ele>760.2</ele><time>2026-04-24T10:40:44.305Z</time></trkpt><trkpt lat="46.2427196" lon="13.3935599"><ele>757.8</ele><time>2026-04-24T10:40:46.303Z</time></trkpt><trkpt lat="46.2427607" lon="13.3936397"><ele>755.4</ele><time>2026-04-24T10:40:47.304Z</time></trkpt><trkpt lat="46.2428079" lon="13.3937648"><ele>753.0</ele><time>2026-04-24T10:40:49.303Z</time></trkpt><trkpt lat="46.2428567" lon="13.3938965"><ele>751.5</ele><time>2026-04-24T10:40:51.303Z</time></trkpt><trkpt lat="46.2428924" lon="13.394005"><ele>750.0</ele><time>2026-04-24T10:40:53.304Z</time></trkpt><trkpt lat="46.2429499" lon="13.3941075"><ele>748.5</ele><time>2026-04-24T10:40:55.305Z</time></trkpt><trkpt lat="46.2429858" lon="13.3942051"><ele>747.0</ele><time>2026-04-24T10:40:58.304Z</time></trkpt><trkpt lat="46.243001" lon="13.3943342"><ele>745.5</ele><time>2026-04-24T10:41:01.304Z</time></trkpt><trkpt lat="46.2429809" lon="13.3944259"><ele>744.0</ele><time>2026-04-24T10:41:03.304Z</time></trkpt><trkpt lat="46.2429591" lon="13.3945175"><ele>744.0</ele><time>2026-04-24T10:41:05.304Z</time></trkpt><trkpt lat="46.2429342" lon="13.3946301"><ele>744.0</ele><time>2026-04-24T10:41:07.304Z</time></trkpt><trkpt lat="46.2429223" lon="13.3947551"><ele>744.0</ele><time>2026-04-24T10:41:09.304Z</time></trkpt><trkpt lat="46.2429414" lon="13.3948499"><ele>744.0</ele><time>2026-04-24T10:41:11.304Z</time></trkpt><trkpt lat="46.2429342" lon="13.3949509"><ele>744.0</ele><time>2026-04-24T10:41:14.305Z</time></trkpt><trkpt lat="46.2428548" lon="13.3948946"><ele>744.0</ele><time>2026-04-24T10:41:17.304Z</time></trkpt><trkpt lat="46.2428295" lon="13.3947782"><ele>744.0</ele><time>2026-04-24T10:41:19.304Z</time></trkpt><trkpt lat="46.2428016" lon="13.3946631"><ele>744.0</ele><time>2026-04-24T10:41:21.303Z</time></trkpt><trkpt lat="46.2427838" lon="13.3945401"><ele>744.0</ele><time>2026-04-24T10:41:23.304Z</time></trkpt><trkpt lat="46.2427505" lon="13.394427"><ele>744.0</ele><time>2026-04-24T10:41:25.303Z</time></trkpt><trkpt lat="46.242701" lon="13.3943258"><ele>744.0</ele><time>2026-04-24T10:41:27.303Z</time></trkpt><trkpt lat="46.2426527" lon="13.3942246"><ele>744.0</ele><time>2026-04-24T10:41:29.304Z</time></trkpt><trkpt lat="46.2425942" lon="13.3941294"><ele>744.0</ele><time>2026-04-24T10:41:31.304Z</time></trkpt><trkpt lat="46.2425421" lon="13.3940322"><ele>744.0</ele><time>2026-04-24T10:41:33.303Z</time></trkpt><trkpt lat="46.2425029" lon="13.3939472"><ele>744.0</ele><time>2026-04-24T10:41:35.303Z</time></trkpt><trkpt lat="46.2424599" lon="13.3938221"><ele>744.0</ele><time>2026-04-24T10:41:37.303Z</time></trkpt><trkpt lat="46.2423678" lon="13.3937406"><ele>744.0</ele><time>2026-04-24T10:41:39.304Z</time></trkpt><trkpt lat="46.2423034" lon="13.3936431"><ele>741.3333333333334</ele><time>2026-04-24T10:41:41.304Z</time></trkpt><trkpt lat="46.2422638" lon="13.3935349"><ele>738.6666666666666</ele><time>2026-04-24T10:41:43.304Z</time></trkpt><trkpt lat="46.2422279" lon="13.3934217"><ele>736.0</ele><time>2026-04-24T10:41:45.304Z</time></trkpt><trkpt lat="46.2421887" lon="13.3933046"><ele>733.3333333333333</ele><time>2026-04-24T10:41:47.304Z</time></trkpt><trkpt lat="46.2421356" lon="13.3932138"><ele>730.6666666666666</ele><time>2026-04-24T10:41:49.304Z</time></trkpt><trkpt lat="46.2420572" lon="13.3931884"><ele>728.0</ele><time>2026-04-24T10:41:51.304Z</time></trkpt><trkpt lat="46.2419454" lon="13.3931905"><ele>728.0</ele><time>2026-04-24T10:41:53.304Z</time></trkpt><trkpt lat="46.2418817" lon="13.3931769"><ele>728.0</ele><time>2026-04-24T10:41:55.305Z</time></trkpt><trkpt lat="46.2418563" lon="13.3932612"><ele>728.0</ele><time>2026-04-24T10:41:58.303Z</time></trkpt><trkpt lat="46.2419222" lon="13.3933306"><ele>728.0</ele><time>2026-04-24T10:42:01.304Z</time></trkpt><trkpt lat="46.2419987" lon="13.3933539"><ele>728.0</ele><time>2026-04-24T10:42:03.304Z</time></trkpt><trkpt lat="46.2420642" lon="13.393367"><ele>728.0</ele><time>2026-04-24T10:42:05.304Z</time></trkpt><trkpt lat="46.2420767" lon="13.3934621"><ele>728.0</ele><time>2026-04-24T10:42:07.303Z</time></trkpt><trkpt lat="46.2420591" lon="13.3935804"><ele>728.0</ele><time>2026-04-24T10:42:08.303Z</time></trkpt><trkpt lat="46.2420569" lon="13.3937398"><ele>728.0</ele><time>2026-04-24T10:42:10.304Z</time></trkpt><trkpt lat="46.2420653" lon="13.3938308"><ele>728.0</ele><time>2026-04-24T10:42:11.304Z</time></trkpt><trkpt lat="46.2420828" lon="13.3939525"><ele>728.0</ele><time>2026-04-24T10:42:13.305Z</time></trkpt><trkpt lat="46.242069" lon="13.3940694"><ele>728.0</ele><time>2026-04-24T10:42:15.303Z</time></trkpt><trkpt lat="46.2420687" lon="13.3941846"><ele>728.0</ele><time>2026-04-24T10:42:17.304Z</time></trkpt><trkpt lat="46.2420933" lon="13.3943299"><ele>727.5999999999999</ele><time>2026-04-24T10:42:19.303Z</time></trkpt><trkpt lat="46.2420999" lon="13.394495"><ele>727.1999999999999</ele><time>2026-04-24T10:42:22.303Z</time></trkpt><trkpt lat="46.2421384" lon="13.3945982"><ele>726.8</ele><time>2026-04-24T10:42:24.304Z</time></trkpt><trkpt lat="46.2421304" lon="13.3947276"><ele>726.4</ele><time>2026-04-24T10:42:27.304Z</time></trkpt><trkpt lat="46.2420758" lon="13.3947874"><ele>726.0</ele><time>2026-04-24T10:42:28.304Z</time></trkpt><trkpt lat="46.2420066" lon="13.3948942"><ele>726.0</ele><time>2026-04-24T10:42:30.303Z</time></trkpt><trkpt lat="46.2419069" lon="13.39488"><ele>726.0</ele><time>2026-04-24T10:42:32.303Z</time></trkpt><trkpt lat="46.2418328" lon="13.3948434"><ele>726.0</ele><time>2026-04-24T10:42:34.305Z</time></trkpt><trkpt lat="46.2417355" lon="13.3948192"><ele>726.0</ele><time>2026-04-24T10:42:36.304Z</time></trkpt><trkpt lat="46.2416649" lon="13.3947807"><ele>726.0</ele><time>2026-04-24T10:42:38.304Z</time></trkpt><trkpt lat="46.241578" lon="13.394748"><ele>726.0</ele><time>2026-04-24T10:42:40.305Z</time></trkpt><trkpt lat="46.2414799" lon="13.3946752"><ele>721.5999999999999</ele><time>2026-04-24T10:42:42.304Z</time></trkpt><trkpt lat="46.2413795" lon="13.3946171"><ele>717.2</ele><time>2026-04-24T10:42:44.303Z</time></trkpt><trkpt lat="46.2412923" lon="13.3945438"><ele>712.8</ele><time>2026-04-24T10:42:46.303Z</time></trkpt><trkpt lat="46.2412049" lon="13.3944579"><ele>708.4000000000001</ele><time>2026-04-24T10:42:48.303Z</time></trkpt><trkpt lat="46.2411242" lon="13.3943572"><ele>704.0</ele><time>2026-04-24T10:42:50.304Z</time></trkpt><trkpt lat="46.2410504" lon="13.3942959"><ele>704.0</ele><time>2026-04-24T10:42:52.303Z</time></trkpt><trkpt lat="46.2409683" lon="13.3942628"><ele>704.0</ele><time>2026-04-24T10:42:54.304Z</time></trkpt><trkpt lat="46.2408805" lon="13.3942296"><ele>704.0</ele><time>2026-04-24T10:42:56.304Z</time></trkpt><trkpt lat="46.2407688" lon="13.3941786"><ele>704.0</ele><time>2026-04-24T10:42:58.303Z</time></trkpt><trkpt lat="46.2406954" lon="13.3941521"><ele>704.0</ele><time>2026-04-24T10:43:00.303Z</time></trkpt><trkpt lat="46.2406329" lon="13.3941157"><ele>704.0</ele><time>2026-04-24T10:43:01.302Z</time></trkpt><trkpt lat="46.2405523" lon="13.3940543"><ele>704.0</ele><time>2026-04-24T10:43:03.302Z</time></trkpt><trkpt lat="46.2405527" lon="13.3939627"><ele>704.0</ele><time>2026-04-24T10:43:05.304Z</time></trkpt><trkpt lat="46.2405648" lon="13.39386"><ele>704.0</ele><time>2026-04-24T10:43:14.303Z</time></trkpt><trkpt lat="46.2406008" lon="13.3937191"><ele>704.0</ele><time>2026-04-24T10:43:16.302Z</time></trkpt><trkpt lat="46.2406311" lon="13.3935436"><ele>704.0</ele><time>2026-04-24T10:43:18.303Z</time></trkpt><trkpt lat="46.2406549" lon="13.3933707"><ele>704.0</ele><time>2026-04-24T10:43:20.302Z</time></trkpt><trkpt lat="46.2406412" lon="13.3932774"><ele>704.0</ele><time>2026-04-24T10:43:21.302Z</time></trkpt><trkpt lat="46.2406407" lon="13.3931851"><ele>704.0</ele><time>2026-04-24T10:43:22.303Z</time></trkpt><trkpt lat="46.2406045" lon="13.3930347"><ele>704.0</ele><time>2026-04-24T10:43:24.302Z</time></trkpt><trkpt lat="46.2405848" lon="13.3929479"><ele>704.0</ele><time>2026-04-24T10:43:25.302Z</time></trkpt><trkpt lat="46.2405456" lon="13.3927987"><ele>704.0</ele><time>2026-04-24T10:43:27.302Z</time></trkpt><trkpt lat="46.2405179" lon="13.3926186"><ele>700.3333333333333</ele><time>2026-04-24T10:43:29.303Z</time></trkpt><trkpt lat="46.2405388" lon="13.3925132"><ele>696.6666666666666</ele><time>2026-04-24T10:43:30.304Z</time></trkpt><trkpt lat="46.2405547" lon="13.3924072"><ele>693.0</ele><time>2026-04-24T10:43:31.304Z</time></trkpt><trkpt lat="46.2405629" lon="13.3923091"><ele>689.3333333333334</ele><time>2026-04-24T10:43:32.303Z</time></trkpt><trkpt lat="46.2405633" lon="13.3922057"><ele>685.6666666666667</ele><time>2026-04-24T10:43:33.304Z</time></trkpt><trkpt lat="46.2405761" lon="13.3920757"><ele>682.0</ele><time>2026-04-24T10:43:34.303Z</time></trkpt><trkpt lat="46.2405832" lon="13.3919639"><ele>680.0</ele><time>2026-04-24T10:43:35.303Z</time></trkpt><trkpt lat="46.240594" lon="13.3918613"><ele>678.0</ele><time>2026-04-24T10:43:36.304Z</time></trkpt><trkpt lat="46.2406328" lon="13.3917703"><ele>676.0</ele><time>2026-04-24T10:43:37.302Z</time></trkpt><trkpt lat="46.2406413" lon="13.3916628"><ele>674.0</ele><time>2026-04-24T10:43:38.302Z</time></trkpt><trkpt lat="46.2406969" lon="13.3915312"><ele>672.0</ele><time>2026-04-24T10:43:40.304Z</time></trkpt><trkpt lat="46.2407355" lon="13.3914409"><ele>670.0</ele><time>2026-04-24T10:43:41.303Z</time></trkpt><trkpt lat="46.2407791" lon="13.3913558"><ele>672.6666666666667</ele><time>2026-04-24T10:43:42.304Z</time></trkpt><trkpt lat="46.2408375" lon="13.3912828"><ele>675.3333333333334</ele><time>2026-04-24T10:43:43.302Z</time></trkpt><trkpt lat="46.240886" lon="13.3911901"><ele>678.0</ele><time>2026-04-24T10:43:44.303Z</time></trkpt><trkpt lat="46.2409385" lon="13.3910874"><ele>680.6666666666666</ele><time>2026-04-24T10:43:45.304Z</time></trkpt><trkpt lat="46.240986" lon="13.3909817"><ele>683.3333333333333</ele><time>2026-04-24T10:43:46.302Z</time></trkpt><trkpt lat="46.2410285" lon="13.3908784"><ele>686.0</ele><time>2026-04-24T10:43:47.303Z</time></trkpt><trkpt lat="46.2410879" lon="13.3907331"><ele>686.0</ele><time>2026-04-24T10:43:49.303Z</time></trkpt><trkpt lat="46.2411259" lon="13.390569"><ele>686.0</ele><time>2026-04-24T10:43:51.302Z</time></trkpt><trkpt lat="46.2411648" lon="13.3904823"><ele>686.0</ele><time>2026-04-24T10:43:52.303Z</time></trkpt><trkpt lat="46.2412307" lon="13.3903495"><ele>686.0</ele><time>2026-04-24T10:43:54.303Z</time></trkpt><trkpt lat="46.241311" lon="13.390306"><ele>686.0</ele><time>2026-04-24T10:43:56.304Z</time></trkpt><trkpt lat="46.2413781" lon="13.3902309"><ele>685.1999999999999</ele><time>2026-04-24T10:43:58.303Z</time></trkpt><trkpt lat="46.2414085" lon="13.3901223"><ele>684.4</ele><time>2026-04-24T10:44:00.304Z</time></trkpt><trkpt lat="46.2414253" lon="13.3900064"><ele>683.6</ele><time>2026-04-24T10:44:02.303Z</time></trkpt><trkpt lat="46.2414757" lon="13.3898815"><ele>682.8</ele><time>2026-04-24T10:44:04.303Z</time></trkpt><trkpt lat="46.241516" lon="13.3897416"><ele>682.0</ele><time>2026-04-24T10:44:06.302Z</time></trkpt><trkpt lat="46.2415503" lon="13.389614"><ele>682.0</ele><time>2026-04-24T10:44:08.303Z</time></trkpt><trkpt lat="46.241592" lon="13.3894908"><ele>682.0</ele><time>2026-04-24T10:44:10.302Z</time></trkpt><trkpt lat="46.2416465" lon="13.3893735"><ele>682.0</ele><time>2026-04-24T10:44:12.303Z</time></trkpt><trkpt lat="46.2417216" lon="13.3892839"><ele>682.0</ele><time>2026-04-24T10:44:14.302Z</time></trkpt><trkpt lat="46.2417964" lon="13.3891952"><ele>682.0</ele><time>2026-04-24T10:44:16.303Z</time></trkpt><trkpt lat="46.24183" lon="13.389064"><ele>682.0</ele><time>2026-04-24T10:44:18.303Z</time></trkpt><trkpt lat="46.2418558" lon="13.3889511"><ele>682.0</ele><time>2026-04-24T10:44:20.303Z</time></trkpt><trkpt lat="46.241867" lon="13.3887921"><ele>682.0</ele><time>2026-04-24T10:44:22.303Z</time></trkpt><trkpt lat="46.2418686" lon="13.3886505"><ele>682.0</ele><time>2026-04-24T10:44:24.303Z</time></trkpt><trkpt lat="46.2419001" lon="13.3885297"><ele>682.0</ele><time>2026-04-24T10:44:26.303Z</time></trkpt><trkpt lat="46.2419322" lon="13.3883972"><ele>679.6</ele><time>2026-04-24T10:44:28.303Z</time></trkpt><trkpt lat="46.2419743" lon="13.388248"><ele>677.2</ele><time>2026-04-24T10:44:30.303Z</time></trkpt><trkpt lat="46.2419852" lon="13.3881012"><ele>674.8</ele><time>2026-04-24T10:44:32.304Z</time></trkpt><trkpt lat="46.2419978" lon="13.3879918"><ele>672.4</ele><time>2026-04-24T10:44:34.304Z</time></trkpt><trkpt lat="46.2419045" lon="13.3878994"><ele>670.0</ele><time>2026-04-24T10:44:37.302Z</time></trkpt><trkpt lat="46.241818" lon="13.3878376"><ele>669.0</ele><time>2026-04-24T10:44:39.302Z</time></trkpt><trkpt lat="46.241731" lon="13.3878036"><ele>668.0</ele><time>2026-04-24T10:44:41.304Z</time></trkpt><trkpt lat="46.2416348" lon="13.3877688"><ele>667.0</ele><time>2026-04-24T10:44:43.302Z</time></trkpt><trkpt lat="46.2415313" lon="13.3877169"><ele>666.0</ele><time>2026-04-24T10:44:45.303Z</time></trkpt><trkpt lat="46.2414574" lon="13.3876944"><ele>665.0</ele><time>2026-04-24T10:44:47.304Z</time></trkpt><trkpt lat="46.2413804" lon="13.387636"><ele>665.0</ele><time>2026-04-24T10:44:49.303Z</time></trkpt><trkpt lat="46.2413478" lon="13.3874797"><ele>665.0</ele><time>2026-04-24T10:44:51.303Z</time></trkpt><trkpt lat="46.2413372" lon="13.3873896"><ele>665.0</ele><time>2026-04-24T10:44:53.302Z</time></trkpt><trkpt lat="46.2414143" lon="13.3873102"><ele>665.0</ele><time>2026-04-24T10:44:55.304Z</time></trkpt><trkpt lat="46.2415066" lon="13.3872384"><ele>665.0</ele><time>2026-04-24T10:44:57.303Z</time></trkpt><trkpt lat="46.2416075" lon="13.3871519"><ele>664.0</ele><time>2026-04-24T10:44:59.303Z</time></trkpt><trkpt lat="46.24171" lon="13.3870626"><ele>663.0</ele><time>2026-04-24T10:45:01.303Z</time></trkpt><trkpt lat="46.2418097" lon="13.3869781"><ele>662.0</ele><time>2026-04-24T10:45:03.303Z</time></trkpt><trkpt lat="46.2419032" lon="13.3868565"><ele>661.0</ele><time>2026-04-24T10:45:05.304Z</time></trkpt><trkpt lat="46.2419144" lon="13.3867632"><ele>660.0</ele><time>2026-04-24T10:45:06.303Z</time></trkpt><trkpt lat="46.2420048" lon="13.3866489"><ele>660.0</ele><time>2026-04-24T10:45:08.303Z</time></trkpt><trkpt lat="46.242038" lon="13.3865696"><ele>660.0</ele><time>2026-04-24T10:45:09.302Z</time></trkpt><trkpt lat="46.2420796" lon="13.3864837"><ele>660.0</ele><time>2026-04-24T10:45:10.303Z</time></trkpt><trkpt lat="46.2421433" lon="13.3863413"><ele>660.0</ele><time>2026-04-24T10:45:12.303Z</time></trkpt><trkpt lat="46.2422111" lon="13.3862207"><ele>660.0</ele><time>2026-04-24T10:45:14.304Z</time></trkpt><trkpt lat="46.2422733" lon="13.3861482"><ele>660.0</ele><time>2026-04-24T10:45:15.303Z</time></trkpt><trkpt lat="46.2423224" lon="13.3860672"><ele>659.6</ele><time>2026-04-24T10:45:16.304Z</time></trkpt><trkpt lat="46.2423702" lon="13.385979"><ele>659.2</ele><time>2026-04-24T10:45:17.304Z</time></trkpt><trkpt lat="46.2424111" lon="13.3858984"><ele>658.8</ele><time>2026-04-24T10:45:18.303Z</time></trkpt><trkpt lat="46.2424606" lon="13.3857463"><ele>658.4</ele><time>2026-04-24T10:45:20.303Z</time></trkpt><trkpt lat="46.2424612" lon="13.3855965"><ele>658.0</ele><time>2026-04-24T10:45:22.303Z</time></trkpt><trkpt lat="46.2424467" lon="13.3854629"><ele>658.0</ele><time>2026-04-24T10:45:24.304Z</time></trkpt><trkpt lat="46.2424637" lon="13.3853319"><ele>658.0</ele><time>2026-04-24T10:45:26.304Z</time></trkpt><trkpt lat="46.2425268" lon="13.3852252"><ele>658.0</ele><time>2026-04-24T10:45:28.303Z</time></trkpt><trkpt lat="46.2426008" lon="13.3851076"><ele>658.0</ele><time>2026-04-24T10:45:30.302Z</time></trkpt><trkpt lat="46.2426753" lon="13.384974"><ele>658.0</ele><time>2026-04-24T10:45:32.302Z</time></trkpt><trkpt lat="46.2426902" lon="13.3848357"><ele>658.0</ele><time>2026-04-24T10:45:34.303Z</time></trkpt><trkpt lat="46.2426439" lon="13.3847353"><ele>658.0</ele><time>2026-04-24T10:45:36.304Z</time></trkpt><trkpt lat="46.2425549" lon="13.384669"><ele>658.0</ele><time>2026-04-24T10:45:38.303Z</time></trkpt><trkpt lat="46.242428" lon="13.3846284"><ele>658.0</ele><time>2026-04-24T10:45:40.302Z</time></trkpt><trkpt lat="46.242364" lon="13.384602"><ele>658.0</ele><time>2026-04-24T10:45:41.303Z</time></trkpt><trkpt lat="46.2423032" lon="13.3845671"><ele>658.0</ele><time>2026-04-24T10:45:42.303Z</time></trkpt><trkpt lat="46.2422463" lon="13.3845141"><ele>656.8333333333334</ele><time>2026-04-24T10:45:43.304Z</time></trkpt><trkpt lat="46.2421851" lon="13.3844544"><ele>655.6666666666667</ele><time>2026-04-24T10:45:44.303Z</time></trkpt><trkpt lat="46.2421302" lon="13.3844029"><ele>654.5</ele><time>2026-04-24T10:45:45.303Z</time></trkpt><trkpt lat="46.2420807" lon="13.3843461"><ele>653.3333333333334</ele><time>2026-04-24T10:45:46.304Z</time></trkpt><trkpt lat="46.241996" lon="13.3842147"><ele>652.1666666666666</ele><time>2026-04-24T10:45:48.303Z</time></trkpt><trkpt lat="46.2419618" lon="13.3841304"><ele>651.0</ele><time>2026-04-24T10:45:49.303Z</time></trkpt><trkpt lat="46.2419406" lon="13.384044"><ele>651.0</ele><time>2026-04-24T10:45:50.304Z</time></trkpt><trkpt lat="46.2419198" lon="13.3838899"><ele>651.0</ele><time>2026-04-24T10:45:52.303Z</time></trkpt><trkpt lat="46.2419042" lon="13.3837376"><ele>651.0</ele><time>2026-04-24T10:45:54.302Z</time></trkpt><trkpt lat="46.2418872" lon="13.3836031"><ele>651.0</ele><time>2026-04-24T10:45:56.304Z</time></trkpt><trkpt lat="46.2418797" lon="13.3835037"><ele>651.0</ele><time>2026-04-24T10:45:58.303Z</time></trkpt><trkpt lat="46.2418714" lon="13.3833935"><ele>651.3333333333334</ele><time>2026-04-24T10:46:00.302Z</time></trkpt><trkpt lat="46.2418493" lon="13.3832929"><ele>651.6666666666666</ele><time>2026-04-24T10:46:02.302Z</time></trkpt><trkpt lat="46.2417955" lon="13.3832415"><ele>652.0</ele><time>2026-04-24T10:46:13.303Z</time></trkpt><trkpt lat="46.2417172" lon="13.3833429"><ele>652.3333333333333</ele><time>2026-04-24T10:46:16.302Z</time></trkpt><trkpt lat="46.2416836" lon="13.383453"><ele>652.6666666666666</ele><time>2026-04-24T10:46:17.302Z</time></trkpt><trkpt lat="46.2416488" lon="13.3835674"><ele>653.0</ele><time>2026-04-24T10:46:18.302Z</time></trkpt><trkpt lat="46.24161" lon="13.3836927"><ele>653.0</ele><time>2026-04-24T10:46:19.301Z</time></trkpt><trkpt lat="46.2415725" lon="13.3838275"><ele>653.0</ele><time>2026-04-24T10:46:20.302Z</time></trkpt><trkpt lat="46.2415323" lon="13.3839676"><ele>653.0</ele><time>2026-04-24T10:46:21.303Z</time></trkpt><trkpt lat="46.2414916" lon="13.3841111"><ele>653.0</ele><time>2026-04-24T10:46:22.302Z</time></trkpt><trkpt lat="46.2414493" lon="13.3842471"><ele>653.0</ele><time>2026-04-24T10:46:23.301Z</time></trkpt><trkpt lat="46.2414099" lon="13.384374"><ele>652.3333333333333</ele><time>2026-04-24T10:46:24.303Z</time></trkpt><trkpt lat="46.2413794" lon="13.3844965"><ele>651.6666666666666</ele><time>2026-04-24T10:46:25.302Z</time></trkpt><trkpt lat="46.2413528" lon="13.384614"><ele>651.0</ele><time>2026-04-24T10:46:26.302Z</time></trkpt><trkpt lat="46.2413266" lon="13.3847217"><ele>650.3333333333334</ele><time>2026-04-24T10:46:27.302Z</time></trkpt><trkpt lat="46.2412953" lon="13.3848276"><ele>649.6666666666667</ele><time>2026-04-24T10:46:28.302Z</time></trkpt><trkpt lat="46.2412616" lon="13.384921"><ele>649.0</ele><time>2026-04-24T10:46:29.302Z</time></trkpt><trkpt lat="46.2412285" lon="13.3850078"><ele>648.8333333333334</ele><time>2026-04-24T10:46:30.301Z</time></trkpt><trkpt lat="46.2411965" lon="13.3850957"><ele>648.6666666666667</ele><time>2026-04-24T10:46:31.302Z</time></trkpt><trkpt lat="46.2411677" lon="13.3851912"><ele>648.5</ele><time>2026-04-24T10:46:32.301Z</time></trkpt><trkpt lat="46.2411485" lon="13.3853053"><ele>648.3333333333334</ele><time>2026-04-24T10:46:33.302Z</time></trkpt><trkpt lat="46.24113" lon="13.3854235"><ele>648.1666666666666</ele><time>2026-04-24T10:46:34.303Z</time></trkpt><trkpt lat="46.2411149" lon="13.385543"><ele>648.0</ele><time>2026-04-24T10:46:35.302Z</time></trkpt><trkpt lat="46.2411036" lon="13.3856497"><ele>648.0</ele><time>2026-04-24T10:46:36.302Z</time></trkpt><trkpt lat="46.2410895" lon="13.3857574"><ele>648.0</ele><time>2026-04-24T10:46:37.302Z</time></trkpt><trkpt lat="46.2410691" lon="13.3858585"><ele>648.0</ele><time>2026-04-24T10:46:38.301Z</time></trkpt><trkpt lat="46.2410334" lon="13.3859547"><ele>648.0</ele><time>2026-04-24T10:46:39.302Z</time></trkpt><trkpt lat="46.2409917" lon="13.3860384"><ele>648.0</ele><time>2026-04-24T10:46:40.302Z</time></trkpt><trkpt lat="46.2409369" lon="13.386131"><ele>648.0</ele><time>2026-04-24T10:46:41.302Z</time></trkpt><trkpt lat="46.2408783" lon="13.3862154"><ele>648.0</ele><time>2026-04-24T10:46:42.302Z</time></trkpt><trkpt lat="46.2408071" lon="13.3862957"><ele>648.0</ele><time>2026-04-24T10:46:43.303Z</time></trkpt><trkpt lat="46.2407372" lon="13.3863717"><ele>648.0</ele><time>2026-04-24T10:46:44.303Z</time></trkpt><trkpt lat="46.2406651" lon="13.3864452"><ele>648.0</ele><time>2026-04-24T10:46:45.302Z</time></trkpt><trkpt lat="46.2405983" lon="13.3865252"><ele>648.0</ele><time>2026-04-24T10:46:46.303Z</time></trkpt><trkpt lat="46.2405296" lon="13.3866079"><ele>648.0</ele><time>2026-04-24T10:46:47.302Z</time></trkpt><trkpt lat="46.240455" lon="13.386676"><ele>648.0</ele><time>2026-04-24T10:46:48.301Z</time></trkpt><trkpt lat="46.2403953" lon="13.3867415"><ele>648.0</ele><time>2026-04-24T10:46:49.302Z</time></trkpt><trkpt lat="46.2403473" lon="13.3868839"><ele>648.0</ele><time>2026-04-24T10:46:51.301Z</time></trkpt><trkpt lat="46.2404111" lon="13.3870414"><ele>648.0</ele><time>2026-04-24T10:46:53.302Z</time></trkpt><trkpt lat="46.24049" lon="13.3871194"><ele>648.0</ele><time>2026-04-24T10:46:54.302Z</time></trkpt><trkpt lat="46.2405775" lon="13.3871967"><ele>648.0</ele><time>2026-04-24T10:46:55.303Z</time></trkpt><trkpt lat="46.2406639" lon="13.3873018"><ele>648.0</ele><time>2026-04-24T10:46:56.302Z</time></trkpt><trkpt lat="46.240744" lon="13.3874299"><ele>648.0</ele><time>2026-04-24T10:46:57.302Z</time></trkpt><trkpt lat="46.2408098" lon="13.3875574"><ele>648.0</ele><time>2026-04-24T10:46:58.302Z</time></trkpt><trkpt lat="46.2408647" lon="13.3876891"><ele>648.0</ele><time>2026-04-24T10:46:59.301Z</time></trkpt><trkpt lat="46.2408953" lon="13.3878207"><ele>648.0</ele><time>2026-04-24T10:47:00.301Z</time></trkpt><trkpt lat="46.2408904" lon="13.3879455"><ele>648.0</ele><time>2026-04-24T10:47:01.303Z</time></trkpt><trkpt lat="46.2408562" lon="13.3880627"><ele>648.0</ele><time>2026-04-24T10:47:02.301Z</time></trkpt><trkpt lat="46.240791" lon="13.3881768"><ele>648.0</ele><time>2026-04-24T10:47:03.302Z</time></trkpt><trkpt lat="46.2407121" lon="13.3882999"><ele>648.0</ele><time>2026-04-24T10:47:04.303Z</time></trkpt><trkpt lat="46.2406343" lon="13.3884211"><ele>647.0</ele><time>2026-04-24T10:47:05.303Z</time></trkpt><trkpt lat="46.240544" lon="13.3885458"><ele>646.0</ele><time>2026-04-24T10:47:06.301Z</time></trkpt><trkpt lat="46.2404394" lon="13.3886617"><ele>645.0</ele><time>2026-04-24T10:47:07.302Z</time></trkpt><trkpt lat="46.2403254" lon="13.3887763"><ele>644.0</ele><time>2026-04-24T10:47:08.302Z</time></trkpt><trkpt lat="46.2402112" lon="13.388894"><ele>644.0</ele><time>2026-04-24T10:47:09.302Z</time></trkpt><trkpt lat="46.2401046" lon="13.3889999"><ele>644.0</ele><time>2026-04-24T10:47:10.302Z</time></trkpt><trkpt lat="46.2400033" lon="13.3890997"><ele>644.0</ele><time>2026-04-24T10:47:11.301Z</time></trkpt><trkpt lat="46.2399197" lon="13.3891946"><ele>644.0</ele><time>2026-04-24T10:47:12.301Z</time></trkpt><trkpt lat="46.2398501" lon="13.3892987"><ele>643.5</ele><time>2026-04-24T10:47:13.303Z</time></trkpt><trkpt lat="46.2397996" lon="13.3894411"><ele>643.0</ele><time>2026-04-24T10:47:14.302Z</time></trkpt><trkpt lat="46.2397621" lon="13.389614"><ele>642.5</ele><time>2026-04-24T10:47:15.302Z</time></trkpt><trkpt lat="46.2397236" lon="13.3897889"><ele>642.0</ele><time>2026-04-24T10:47:16.303Z</time></trkpt><trkpt lat="46.2396842" lon="13.3899653"><ele>641.0</ele><time>2026-04-24T10:47:17.302Z</time></trkpt><trkpt lat="46.2396456" lon="13.3901438"><ele>640.0</ele><time>2026-04-24T10:47:18.303Z</time></trkpt><trkpt lat="46.2396112" lon="13.3903154"><ele>639.0</ele><time>2026-04-24T10:47:19.303Z</time></trkpt><trkpt lat="46.23958" lon="13.3904864"><ele>638.0</ele><time>2026-04-24T10:47:20.301Z</time></trkpt><trkpt lat="46.2395469" lon="13.3906524"><ele>639.8</ele><time>2026-04-24T10:47:21.302Z</time></trkpt><trkpt lat="46.2395164" lon="13.3908099"><ele>641.5999999999999</ele><time>2026-04-24T10:47:22.302Z</time></trkpt><trkpt lat="46.2394829" lon="13.390958"><ele>643.4000000000001</ele><time>2026-04-24T10:47:23.303Z</time></trkpt><trkpt lat="46.2394474" lon="13.3910781"><ele>645.2</ele><time>2026-04-24T10:47:24.303Z</time></trkpt><trkpt lat="46.2393968" lon="13.3911698"><ele>647.0</ele><time>2026-04-24T10:47:25.302Z</time></trkpt><trkpt lat="46.2393309" lon="13.3912204"><ele>647.0</ele><time>2026-04-24T10:47:26.301Z</time></trkpt><trkpt lat="46.2392559" lon="13.3912212"><ele>647.0</ele><time>2026-04-24T10:47:27.302Z</time></trkpt><trkpt lat="46.239185" lon="13.3912124"><ele>647.0</ele><time>2026-04-24T10:47:28.301Z</time></trkpt><trkpt lat="46.2390876" lon="13.3911431"><ele>647.0</ele><time>2026-04-24T10:47:29.302Z</time></trkpt><trkpt lat="46.2389928" lon="13.3911058"><ele>647.0</ele><time>2026-04-24T10:47:30.302Z</time></trkpt><trkpt lat="46.2388839" lon="13.3910996"><ele>647.0</ele><time>2026-04-24T10:47:31.302Z</time></trkpt><trkpt lat="46.238768" lon="13.3911265"><ele>647.0</ele><time>2026-04-24T10:47:32.303Z</time></trkpt><trkpt lat="46.2386564" lon="13.3911611"><ele>647.0</ele><time>2026-04-24T10:47:33.302Z</time></trkpt><trkpt lat="46.2385579" lon="13.3911821"><ele>647.0</ele><time>2026-04-24T10:47:34.301Z</time></trkpt><trkpt lat="46.2384779" lon="13.3912046"><ele>647.0</ele><time>2026-04-24T10:47:35.302Z</time></trkpt><trkpt lat="46.2383854" lon="13.3913145"><ele>647.0</ele><time>2026-04-24T10:47:37.302Z</time></trkpt><trkpt lat="46.2383751" lon="13.3914131"><ele>647.0</ele><time>2026-04-24T10:47:38.302Z</time></trkpt><trkpt lat="46.2383924" lon="13.3915237"><ele>647.0</ele><time>2026-04-24T10:47:39.302Z</time></trkpt><trkpt lat="46.2384272" lon="13.3916535"><ele>647.0</ele><time>2026-04-24T10:47:40.301Z</time></trkpt><trkpt lat="46.2384751" lon="13.3917795"><ele>647.0</ele><time>2026-04-24T10:47:41.303Z</time></trkpt><trkpt lat="46.2385228" lon="13.3919227"><ele>647.0</ele><time>2026-04-24T10:47:42.303Z</time></trkpt><trkpt lat="46.2385666" lon="13.3920593"><ele>647.0</ele><time>2026-04-24T10:47:43.301Z</time></trkpt><trkpt lat="46.238613" lon="13.3921855"><ele>647.0</ele><time>2026-04-24T10:47:44.302Z</time></trkpt><trkpt lat="46.2386618" lon="13.3922993"><ele>647.0</ele><time>2026-04-24T10:47:45.302Z</time></trkpt><trkpt lat="46.2387438" lon="13.392411"><ele>647.0</ele><time>2026-04-24T10:47:46.301Z</time></trkpt><trkpt lat="46.2388066" lon="13.3925587"><ele>646.75</ele><time>2026-04-24T10:47:47.302Z</time></trkpt><trkpt lat="46.2388574" lon="13.3927212"><ele>646.5</ele><time>2026-04-24T10:47:48.302Z</time></trkpt><trkpt lat="46.2389047" lon="13.3928876"><ele>646.25</ele><time>2026-04-24T10:47:49.302Z</time></trkpt><trkpt lat="46.2389454" lon="13.3930523"><ele>646.0</ele><time>2026-04-24T10:47:50.301Z</time></trkpt><trkpt lat="46.2389813" lon="13.3932204"><ele>646.0</ele><time>2026-04-24T10:47:51.303Z</time></trkpt><trkpt lat="46.2390038" lon="13.3933941"><ele>646.0</ele><time>2026-04-24T10:47:52.302Z</time></trkpt><trkpt lat="46.239011" lon="13.3935667"><ele>646.0</ele><time>2026-04-24T10:47:53.303Z</time></trkpt><trkpt lat="46.239022" lon="13.3937426"><ele>646.0</ele><time>2026-04-24T10:47:54.303Z</time></trkpt><trkpt lat="46.2390336" lon="13.3939222"><ele>642.25</ele><time>2026-04-24T10:47:55.303Z</time></trkpt><trkpt lat="46.2390478" lon="13.3940946"><ele>638.5</ele><time>2026-04-24T10:47:56.302Z</time></trkpt><trkpt lat="46.2390474" lon="13.3942693"><ele>634.75</ele><time>2026-04-24T10:47:57.303Z</time></trkpt><trkpt lat="46.2390318" lon="13.3944541"><ele>631.0</ele><time>2026-04-24T10:47:58.302Z</time></trkpt><trkpt lat="46.2390036" lon="13.3946345"><ele>630.5</ele><time>2026-04-24T10:47:59.303Z</time></trkpt><trkpt lat="46.2389708" lon="13.3948147"><ele>630.0</ele><time>2026-04-24T10:48:00.302Z</time></trkpt><trkpt lat="46.2389306" lon="13.3950016"><ele>629.5</ele><time>2026-04-24T10:48:01.303Z</time></trkpt><trkpt lat="46.2388869" lon="13.395185"><ele>629.0</ele><time>2026-04-24T10:48:02.303Z</time></trkpt><trkpt lat="46.2388476" lon="13.3953718"><ele>613.5</ele><time>2026-04-24T10:48:03.301Z</time></trkpt><trkpt lat="46.2388261" lon="13.3955637"><ele>598.0</ele><time>2026-04-24T10:48:04.303Z</time></trkpt><trkpt lat="46.2388096" lon="13.3957644"><ele>582.5</ele><time>2026-04-24T10:48:05.302Z</time></trkpt><trkpt lat="46.2387912" lon="13.3959546"><ele>567.0</ele><time>2026-04-24T10:48:06.303Z</time></trkpt><trkpt lat="46.2387768" lon="13.3961517"><ele>566.5</ele><time>2026-04-24T10:48:07.302Z</time></trkpt><trkpt lat="46.2387522" lon="13.3963423"><ele>566.0</ele><time>2026-04-24T10:48:08.302Z</time></trkpt><trkpt lat="46.2387218" lon="13.3965332"><ele>565.5</ele><time>2026-04-24T10:48:09.303Z</time></trkpt><trkpt lat="46.2386911" lon="13.3967146"><ele>565.0</ele><time>2026-04-24T10:48:10.302Z</time></trkpt><trkpt lat="46.2386646" lon="13.3968926"><ele>565.0</ele><time>2026-04-24T10:48:11.302Z</time></trkpt><trkpt lat="46.2386571" lon="13.3970764"><ele>565.0</ele><time>2026-04-24T10:48:12.303Z</time></trkpt><trkpt lat="46.2386673" lon="13.3972566"><ele>565.0</ele><time>2026-04-24T10:48:13.303Z</time></trkpt><trkpt lat="46.2386682" lon="13.3974178"><ele>565.0</ele><time>2026-04-24T10:48:14.303Z</time></trkpt><trkpt lat="46.2386501" lon="13.397571"><ele>565.6666666666667</ele><time>2026-04-24T10:48:15.302Z</time></trkpt><trkpt lat="46.2386084" lon="13.3977112"><ele>566.3333333333334</ele><time>2026-04-24T10:48:16.302Z</time></trkpt><trkpt lat="46.2385491" lon="13.3978481"><ele>567.0</ele><time>2026-04-24T10:48:17.302Z</time></trkpt><trkpt lat="46.2385077" lon="13.3979625"><ele>567.6666666666666</ele><time>2026-04-24T10:48:18.303Z</time></trkpt><trkpt lat="46.2384882" lon="13.3980511"><ele>568.3333333333333</ele><time>2026-04-24T10:48:19.301Z</time></trkpt><trkpt lat="46.2384731" lon="13.3981435"><ele>569.0</ele><time>2026-04-24T10:48:20.302Z</time></trkpt><trkpt lat="46.2384766" lon="13.3982491"><ele>569.0</ele><time>2026-04-24T10:48:21.301Z</time></trkpt><trkpt lat="46.2385243" lon="13.3983616"><ele>569.0</ele><time>2026-04-24T10:48:22.303Z</time></trkpt><trkpt lat="46.2386319" lon="13.3984607"><ele>569.0</ele><time>2026-04-24T10:48:23.302Z</time></trkpt><trkpt lat="46.238697" lon="13.3985894"><ele>569.0</ele><time>2026-04-24T10:48:24.302Z</time></trkpt><trkpt lat="46.2387525" lon="13.398746"><ele>565.25</ele><time>2026-04-24T10:48:25.301Z</time></trkpt><trkpt lat="46.2388016" lon="13.398916"><ele>561.5</ele><time>2026-04-24T10:48:26.303Z</time></trkpt><trkpt lat="46.2388342" lon="13.399091"><ele>557.75</ele><time>2026-04-24T10:48:27.302Z</time></trkpt><trkpt lat="46.2388607" lon="13.3992571"><ele>554.0</ele><time>2026-04-24T10:48:28.303Z</time></trkpt><trkpt lat="46.2388669" lon="13.3994271"><ele>554.0</ele><time>2026-04-24T10:48:29.301Z</time></trkpt><trkpt lat="46.2388655" lon="13.3995907"><ele>554.0</ele><time>2026-04-24T10:48:30.302Z</time></trkpt><trkpt lat="46.2388397" lon="13.3997484"><ele>554.0</ele><time>2026-04-24T10:48:31.302Z</time></trkpt><trkpt lat="46.238805" lon="13.3998939"><ele>554.0</ele><time>2026-04-24T10:48:32.302Z</time></trkpt><trkpt lat="46.2387606" lon="13.4000415"><ele>554.0</ele><time>2026-04-24T10:48:33.302Z</time></trkpt><trkpt lat="46.2386895" lon="13.4001593"><ele>555.5</ele><time>2026-04-24T10:48:34.302Z</time></trkpt><trkpt lat="46.2386029" lon="13.4002803"><ele>557.0</ele><time>2026-04-24T10:48:35.301Z</time></trkpt><trkpt lat="46.2385116" lon="13.4003975"><ele>558.5</ele><time>2026-04-24T10:48:36.303Z</time></trkpt><trkpt lat="46.2384209" lon="13.4005102"><ele>560.0</ele><time>2026-04-24T10:48:37.303Z</time></trkpt><trkpt lat="46.2383383" lon="13.4006256"><ele>560.6</ele><time>2026-04-24T10:48:38.303Z</time></trkpt><trkpt lat="46.2382741" lon="13.4007445"><ele>561.2</ele><time>2026-04-24T10:48:39.302Z</time></trkpt><trkpt lat="46.2382254" lon="13.4008628"><ele>561.8</ele><time>2026-04-24T10:48:40.302Z</time></trkpt><trkpt lat="46.2381981" lon="13.400997"><ele>562.4</ele><time>2026-04-24T10:48:41.303Z</time></trkpt><trkpt lat="46.2381913" lon="13.4011271"><ele>563.0</ele><time>2026-04-24T10:48:42.302Z</time></trkpt><trkpt lat="46.2382069" lon="13.4012696"><ele>561.25</ele><time>2026-04-24T10:48:43.301Z</time></trkpt><trkpt lat="46.2382403" lon="13.4014284"><ele>559.5</ele><time>2026-04-24T10:48:44.301Z</time></trkpt><trkpt lat="46.2382844" lon="13.4016006"><ele>557.75</ele><time>2026-04-24T10:48:45.302Z</time></trkpt><trkpt lat="46.2383276" lon="13.4017854"><ele>556.0</ele><time>2026-04-24T10:48:46.303Z</time></trkpt><trkpt lat="46.2383708" lon="13.4019652"><ele>556.0</ele><time>2026-04-24T10:48:47.302Z</time></trkpt><trkpt lat="46.2384163" lon="13.4021395"><ele>556.0</ele><time>2026-04-24T10:48:48.303Z</time></trkpt><trkpt lat="46.2384625" lon="13.4023102"><ele>556.0</ele><time>2026-04-24T10:48:49.303Z</time></trkpt><trkpt lat="46.2385168" lon="13.4024765"><ele>556.0</ele><time>2026-04-24T10:48:50.302Z</time></trkpt><trkpt lat="46.2385767" lon="13.4026379"><ele>552.0</ele><time>2026-04-24T10:48:51.303Z</time></trkpt><trkpt lat="46.2386308" lon="13.4028"><ele>548.0</ele><time>2026-04-24T10:48:52.303Z</time></trkpt><trkpt lat="46.2386782" lon="13.4029614"><ele>544.0</ele><time>2026-04-24T10:48:53.302Z</time></trkpt><trkpt lat="46.2387158" lon="13.4031111"><ele>540.0</ele><time>2026-04-24T10:48:54.302Z</time></trkpt><trkpt lat="46.2387466" lon="13.4032431"><ele>542.0</ele><time>2026-04-24T10:48:55.301Z</time></trkpt><trkpt lat="46.2387883" lon="13.403348"><ele>544.0</ele><time>2026-04-24T10:48:56.302Z</time></trkpt><trkpt lat="46.2388515" lon="13.4034333"><ele>546.0</ele><time>2026-04-24T10:48:57.301Z</time></trkpt><trkpt lat="46.2389335" lon="13.4035151"><ele>548.0</ele><time>2026-04-24T10:48:58.301Z</time></trkpt><trkpt lat="46.2390168" lon="13.4035959"><ele>550.0</ele><time>2026-04-24T10:48:59.302Z</time></trkpt><trkpt lat="46.2391018" lon="13.4036717"><ele>550.0</ele><time>2026-04-24T10:49:00.303Z</time></trkpt><trkpt lat="46.2391762" lon="13.4037165"><ele>550.0</ele><time>2026-04-24T10:49:01.302Z</time></trkpt><trkpt lat="46.2392409" lon="13.4037503"><ele>550.0</ele><time>2026-04-24T10:49:02.301Z</time></trkpt><trkpt lat="46.2393153" lon="13.4037587"><ele>550.0</ele><time>2026-04-24T10:49:03.302Z</time></trkpt><trkpt lat="46.2394244" lon="13.4036947"><ele>550.0</ele><time>2026-04-24T10:49:04.303Z</time></trkpt><trkpt lat="46.2395332" lon="13.4036644"><ele>550.0</ele><time>2026-04-24T10:49:05.302Z</time></trkpt><trkpt lat="46.239646" lon="13.4036247"><ele>550.0</ele><time>2026-04-24T10:49:06.302Z</time></trkpt><trkpt lat="46.2397637" lon="13.4035912"><ele>550.0</ele><time>2026-04-24T10:49:07.301Z</time></trkpt><trkpt lat="46.2398825" lon="13.4035532"><ele>550.0</ele><time>2026-04-24T10:49:08.301Z</time></trkpt><trkpt lat="46.2400023" lon="13.403517"><ele>549.5</ele><time>2026-04-24T10:49:09.301Z</time></trkpt><trkpt lat="46.2401173" lon="13.4034756"><ele>549.0</ele><time>2026-04-24T10:49:10.301Z</time></trkpt><trkpt lat="46.2402334" lon="13.4034402"><ele>548.5</ele><time>2026-04-24T10:49:11.302Z</time></trkpt><trkpt lat="46.2403502" lon="13.403417"><ele>548.0</ele><time>2026-04-24T10:49:12.301Z</time></trkpt><trkpt lat="46.2404613" lon="13.4034123"><ele>548.0</ele><time>2026-04-24T10:49:13.3Z</time></trkpt><trkpt lat="46.2405576" lon="13.4034039"><ele>548.0</ele><time>2026-04-24T10:49:14.302Z</time></trkpt><trkpt lat="46.2406538" lon="13.40339"><ele>548.0</ele><time>2026-04-24T10:49:15.302Z</time></trkpt><trkpt lat="46.2407338" lon="13.4033347"><ele>548.0</ele><time>2026-04-24T10:49:16.302Z</time></trkpt><trkpt lat="46.2407972" lon="13.4032671"><ele>548.0</ele><time>2026-04-24T10:49:17.301Z</time></trkpt><trkpt lat="46.2408385" lon="13.4031941"><ele>548.0</ele><time>2026-04-24T10:49:18.301Z</time></trkpt><trkpt lat="46.2408868" lon="13.4030874"><ele>543.1999999999999</ele><time>2026-04-24T10:49:19.301Z</time></trkpt><trkpt lat="46.2409355" lon="13.403019"><ele>538.4</ele><time>2026-04-24T10:49:20.3Z</time></trkpt><trkpt lat="46.2410674" lon="13.403048"><ele>533.5999999999999</ele><time>2026-04-24T10:49:22.301Z</time></trkpt><trkpt lat="46.2411319" lon="13.4030873"><ele>528.8</ele><time>2026-04-24T10:49:23.301Z</time></trkpt><trkpt lat="46.2412084" lon="13.4031523"><ele>524.0</ele><time>2026-04-24T10:49:24.301Z</time></trkpt><trkpt lat="46.2412905" lon="13.4032093"><ele>524.0</ele><time>2026-04-24T10:49:25.301Z</time></trkpt><trkpt lat="46.2413743" lon="13.403249"><ele>524.0</ele><time>2026-04-24T10:49:26.301Z</time></trkpt><trkpt lat="46.2414668" lon="13.4032708"><ele>524.0</ele><time>2026-04-24T10:49:27.302Z</time></trkpt><trkpt lat="46.2415513" lon="13.4033013"><ele>524.0</ele><time>2026-04-24T10:49:28.301Z</time></trkpt><trkpt lat="46.2416387" lon="13.403313"><ele>524.0</ele><time>2026-04-24T10:49:29.301Z</time></trkpt><trkpt lat="46.2416815" lon="13.4034424"><ele>525.5</ele><time>2026-04-24T10:49:30.302Z</time></trkpt><trkpt lat="46.2417183" lon="13.4035316"><ele>527.0</ele><time>2026-04-24T10:49:31.301Z</time></trkpt><trkpt lat="46.2417473" lon="13.4036505"><ele>528.5</ele><time>2026-04-24T10:49:32.3Z</time></trkpt><trkpt lat="46.2418036" lon="13.4037448"><ele>530.0</ele><time>2026-04-24T10:49:33.302Z</time></trkpt><trkpt lat="46.241876" lon="13.4038275"><ele>531.5</ele><time>2026-04-24T10:49:34.3Z</time></trkpt><trkpt lat="46.2419583" lon="13.4038927"><ele>533.0</ele><time>2026-04-24T10:49:35.301Z</time></trkpt><trkpt lat="46.2420467" lon="13.4039595"><ele>528.1999999999999</ele><time>2026-04-24T10:49:36.301Z</time></trkpt><trkpt lat="46.2421568" lon="13.4039751"><ele>523.4</ele><time>2026-04-24T10:49:37.301Z</time></trkpt><trkpt lat="46.2422563" lon="13.404004"><ele>518.5999999999999</ele><time>2026-04-24T10:49:38.301Z</time></trkpt><trkpt lat="46.2423557" lon="13.4040248"><ele>513.8</ele><time>2026-04-24T10:49:39.3Z</time></trkpt><trkpt lat="46.2424545" lon="13.4040291"><ele>509.0</ele><time>2026-04-24T10:49:40.301Z</time></trkpt><trkpt lat="46.2425578" lon="13.4040375"><ele>509.0</ele><time>2026-04-24T10:49:41.3Z</time></trkpt><trkpt lat="46.2426687" lon="13.4040279"><ele>509.0</ele><time>2026-04-24T10:49:42.301Z</time></trkpt><trkpt lat="46.2427708" lon="13.403983"><ele>509.0</ele><time>2026-04-24T10:49:43.301Z</time></trkpt><trkpt lat="46.2428347" lon="13.4039491"><ele>509.0</ele><time>2026-04-24T10:49:44.301Z</time></trkpt><trkpt lat="46.2429183" lon="13.4039018"><ele>509.0</ele><time>2026-04-24T10:49:45.301Z</time></trkpt><trkpt lat="46.242978" lon="13.4037095"><ele>510.79999999999995</ele><time>2026-04-24T10:49:46.3Z</time></trkpt><trkpt lat="46.2430507" lon="13.4035996"><ele>512.5999999999999</ele><time>2026-04-24T10:49:47.3Z</time></trkpt><trkpt lat="46.2431092" lon="13.4034811"><ele>514.4</ele><time>2026-04-24T10:49:48.3Z</time></trkpt><trkpt lat="46.2432194" lon="13.4034421"><ele>516.1999999999999</ele><time>2026-04-24T10:49:49.301Z</time></trkpt><trkpt lat="46.2432803" lon="13.4033396"><ele>518.0</ele><time>2026-04-24T10:49:50.302Z</time></trkpt><trkpt lat="46.2433582" lon="13.4032693"><ele>518.0</ele><time>2026-04-24T10:49:51.301Z</time></trkpt><trkpt lat="46.2434403" lon="13.4031877"><ele>518.0</ele><time>2026-04-24T10:49:52.301Z</time></trkpt><trkpt lat="46.2435624" lon="13.4031472"><ele>518.0</ele><time>2026-04-24T10:49:53.301Z</time></trkpt><trkpt lat="46.2436583" lon="13.4030983"><ele>518.0</ele><time>2026-04-24T10:49:54.301Z</time></trkpt><trkpt lat="46.2437521" lon="13.4030528"><ele>518.0</ele><time>2026-04-24T10:49:55.3Z</time></trkpt><trkpt lat="46.2438696" lon="13.4030739"><ele>522.5</ele><time>2026-04-24T10:49:56.301Z</time></trkpt><trkpt lat="46.2439718" lon="13.4030686"><ele>527.0</ele><time>2026-04-24T10:49:57.301Z</time></trkpt><trkpt lat="46.2440718" lon="13.4030214"><ele>531.5</ele><time>2026-04-24T10:49:58.301Z</time></trkpt><trkpt lat="46.244292" lon="13.4029839"><ele>536.0</ele><time>2026-04-24T10:50:00.302Z</time></trkpt><trkpt lat="46.2445" lon="13.4029841"><ele>526.6</ele><time>2026-04-24T10:50:02.3Z</time></trkpt><trkpt lat="46.244623" lon="13.4030104"><ele>517.2</ele><time>2026-04-24T10:50:03.301Z</time></trkpt><trkpt lat="46.2447113" lon="13.4030687"><ele>507.79999999999995</ele><time>2026-04-24T10:50:04.3Z</time></trkpt><trkpt lat="46.2448119" lon="13.4030944"><ele>498.4</ele><time>2026-04-24T10:50:05.302Z</time></trkpt><trkpt lat="46.2449066" lon="13.4031405"><ele>489.0</ele><time>2026-04-24T10:50:06.301Z</time></trkpt><trkpt lat="46.2450213" lon="13.4031066"><ele>486.2</ele><time>2026-04-24T10:50:07.3Z</time></trkpt><trkpt lat="46.2451345" lon="13.4030734"><ele>483.4</ele><time>2026-04-24T10:50:08.3Z</time></trkpt><trkpt lat="46.2452371" lon="13.4030677"><ele>480.6</ele><time>2026-04-24T10:50:09.3Z</time></trkpt><trkpt lat="46.2453463" lon="13.4030645"><ele>477.8</ele><time>2026-04-24T10:50:10.3Z</time></trkpt><trkpt lat="46.2454553" lon="13.4030377"><ele>475.0</ele><time>2026-04-24T10:50:11.3Z</time></trkpt><trkpt lat="46.2455565" lon="13.4030254"><ele>473.1666666666667</ele><time>2026-04-24T10:50:12.301Z</time></trkpt><trkpt lat="46.245631" lon="13.4030027"><ele>471.33333333333337</ele><time>2026-04-24T10:50:13.301Z</time></trkpt><trkpt lat="46.245705" lon="13.403039"><ele>469.5</ele><time>2026-04-24T10:50:14.301Z</time></trkpt><trkpt lat="46.245794" lon="13.403042"><ele>467.66666666666663</ele><time>2026-04-24T10:50:15.3Z</time></trkpt><trkpt lat="46.2458893" lon="13.4030853"><ele>465.8333333333333</ele><time>2026-04-24T10:50:16.3Z</time></trkpt><trkpt lat="46.245962" lon="13.4031109"><ele>464.0</ele><time>2026-04-24T10:50:17.301Z</time></trkpt><trkpt lat="46.2460562" lon="13.4031168"><ele>464.0</ele><time>2026-04-24T10:50:18.301Z</time></trkpt><trkpt lat="46.2461349" lon="13.4031059"><ele>464.0</ele><time>2026-04-24T10:50:19.3Z</time></trkpt><trkpt lat="46.2462288" lon="13.4030991"><ele>464.0</ele><time>2026-04-24T10:50:20.301Z</time></trkpt><trkpt lat="46.2463297" lon="13.40306"><ele>464.0</ele><time>2026-04-24T10:50:21.3Z</time></trkpt><trkpt lat="46.2464146" lon="13.4028944"><ele>464.0</ele><time>2026-04-24T10:50:22.301Z</time></trkpt><trkpt lat="46.2465154" lon="13.4028283"><ele>469.79999999999995</ele><time>2026-04-24T10:50:23.301Z</time></trkpt><trkpt lat="46.2465924" lon="13.402745"><ele>475.59999999999997</ele><time>2026-04-24T10:50:24.301Z</time></trkpt><trkpt lat="46.2467017" lon="13.4026512"><ele>481.4</ele><time>2026-04-24T10:50:25.3Z</time></trkpt><trkpt lat="46.2467826" lon="13.4025773"><ele>487.2</ele><time>2026-04-24T10:50:26.302Z</time></trkpt><trkpt lat="46.2468634" lon="13.4025033"><ele>493.0</ele><time>2026-04-24T10:50:27.301Z</time></trkpt><trkpt lat="46.2469435" lon="13.4024547"><ele>493.00000000000006</ele><time>2026-04-24T10:50:28.301Z</time></trkpt><trkpt lat="46.2470255" lon="13.4024052"><ele>493.0</ele><time>2026-04-24T10:50:29.301Z</time></trkpt><trkpt lat="46.2470866" lon="13.40235"><ele>493.0</ele><time>2026-04-24T10:50:30.301Z</time></trkpt><trkpt lat="46.2471502" lon="13.4022697"><ele>493.0</ele><time>2026-04-24T10:50:31.301Z</time></trkpt><trkpt lat="46.2472227" lon="13.4022131"><ele>493.00000000000006</ele><time>2026-04-24T10:50:32.302Z</time></trkpt><trkpt lat="46.2472705" lon="13.4021229"><ele>493.0</ele><time>2026-04-24T10:50:33.3Z</time></trkpt><trkpt lat="46.2473871" lon="13.4020471"><ele>493.6666666666667</ele><time>2026-04-24T10:50:35.301Z</time></trkpt><trkpt lat="46.247452" lon="13.4020208"><ele>494.33333333333337</ele><time>2026-04-24T10:50:36.301Z</time></trkpt><trkpt lat="46.24754" lon="13.4021765"><ele>495.0</ele><time>2026-04-24T10:50:38.302Z</time></trkpt><trkpt lat="46.2475898" lon="13.4022489"><ele>495.66666666666663</ele><time>2026-04-24T10:50:39.302Z</time></trkpt><trkpt lat="46.2476402" lon="13.4023246"><ele>496.3333333333333</ele><time>2026-04-24T10:50:40.301Z</time></trkpt><trkpt lat="46.2476908" lon="13.40238"><ele>497.0</ele><time>2026-04-24T10:50:41.301Z</time></trkpt><trkpt lat="46.2477878" lon="13.4024135"><ele>497.0</ele><time>2026-04-24T10:50:43.301Z</time></trkpt><trkpt lat="46.2478715" lon="13.4023554"><ele>497.00000000000006</ele><time>2026-04-24T10:50:44.301Z</time></trkpt><trkpt lat="46.2479599" lon="13.4022624"><ele>497.00000000000006</ele><time>2026-04-24T10:50:45.3Z</time></trkpt><trkpt lat="46.2480218" lon="13.402193"><ele>497.0</ele><time>2026-04-24T10:50:46.301Z</time></trkpt><trkpt lat="46.2480759" lon="13.4021107"><ele>497.0</ele><time>2026-04-24T10:50:47.301Z</time></trkpt><trkpt lat="46.2481562" lon="13.4020208"><ele>491.3333333333333</ele><time>2026-04-24T10:50:49.302Z</time></trkpt><trkpt lat="46.2481761" lon="13.4021448"><ele>485.66666666666663</ele><time>2026-04-24T10:50:51.302Z</time></trkpt><trkpt lat="46.2480666" lon="13.4022536"><ele>480.0</ele><time>2026-04-24T10:50:53.301Z</time></trkpt><trkpt lat="46.248003" lon="13.4023215"><ele>474.33333333333337</ele><time>2026-04-24T10:50:54.301Z</time></trkpt><trkpt lat="46.247941" lon="13.4023867"><ele>468.6666666666667</ele><time>2026-04-24T10:50:55.301Z</time></trkpt><trkpt lat="46.2478874" lon="13.4024517"><ele>463.0</ele><time>2026-04-24T10:50:56.301Z</time></trkpt><trkpt lat="46.247826" lon="13.402516"><ele>463.0</ele><time>2026-04-24T10:50:57.301Z</time></trkpt><trkpt lat="46.2477578" lon="13.4025619"><ele>462.99999999999994</ele><time>2026-04-24T10:50:58.3Z</time></trkpt><trkpt lat="46.2476893" lon="13.4026179"><ele>463.0</ele><time>2026-04-24T10:50:59.301Z</time></trkpt><trkpt lat="46.2476148" lon="13.4025678"><ele>463.0</ele><time>2026-04-24T10:51:00.302Z</time></trkpt><trkpt lat="46.2475492" lon="13.4025301"><ele>462.99999999999994</ele><time>2026-04-24T10:51:01.3Z</time></trkpt><trkpt lat="46.2474861" lon="13.4025473"><ele>463.0</ele><time>2026-04-24T10:51:02.301Z</time></trkpt><trkpt lat="46.2474106" lon="13.4025588"><ele>463.0</ele><time>2026-04-24T10:51:03.301Z</time></trkpt><trkpt lat="46.2473613" lon="13.4026176"><ele>461.2</ele><time>2026-04-24T10:51:04.301Z</time></trkpt><trkpt lat="46.2472904" lon="13.4026975"><ele>459.4</ele><time>2026-04-24T10:51:05.302Z</time></trkpt><trkpt lat="46.2472444" lon="13.4028497"><ele>457.59999999999997</ele><time>2026-04-24T10:51:06.3Z</time></trkpt><trkpt lat="46.2471827" lon="13.4029503"><ele>455.79999999999995</ele><time>2026-04-24T10:51:07.301Z</time></trkpt><trkpt lat="46.2471247" lon="13.4030505"><ele>454.0</ele><time>2026-04-24T10:51:08.301Z</time></trkpt><trkpt lat="46.2470652" lon="13.4031517"><ele>454.00000000000006</ele><time>2026-04-24T10:51:09.3Z</time></trkpt><trkpt lat="46.2470041" lon="13.4032478"><ele>454.0</ele><time>2026-04-24T10:51:10.302Z</time></trkpt><trkpt lat="46.2469441" lon="13.4033238"><ele>454.0</ele><time>2026-04-24T10:51:11.301Z</time></trkpt><trkpt lat="46.2468789" lon="13.4034069"><ele>454.0</ele><time>2026-04-24T10:51:12.3Z</time></trkpt><trkpt lat="46.2468337" lon="13.4035019"><ele>454.00000000000006</ele><time>2026-04-24T10:51:13.301Z</time></trkpt><trkpt lat="46.2467439" lon="13.4035729"><ele>454.0</ele><time>2026-04-24T10:51:14.301Z</time></trkpt><trkpt lat="46.2466577" lon="13.403668"><ele>454.0</ele><time>2026-04-24T10:51:15.302Z</time></trkpt><trkpt lat="46.2465662" lon="13.4037592"><ele>454.0</ele><time>2026-04-24T10:51:16.301Z</time></trkpt><trkpt lat="46.2464636" lon="13.4038409"><ele>454.0</ele><time>2026-04-24T10:51:17.3Z</time></trkpt><trkpt lat="46.2463621" lon="13.403929"><ele>454.0</ele><time>2026-04-24T10:51:18.301Z</time></trkpt><trkpt lat="46.2462697" lon="13.4039767"><ele>454.0</ele><time>2026-04-24T10:51:19.301Z</time></trkpt><trkpt lat="46.2461671" lon="13.4040711"><ele>449.2</ele><time>2026-04-24T10:51:20.302Z</time></trkpt><trkpt lat="46.2460697" lon="13.404146"><ele>444.4</ele><time>2026-04-24T10:51:21.301Z</time></trkpt><trkpt lat="46.2459623" lon="13.4042141"><ele>439.6</ele><time>2026-04-24T10:51:22.301Z</time></trkpt><trkpt lat="46.2458531" lon="13.4042486"><ele>434.8</ele><time>2026-04-24T10:51:23.302Z</time></trkpt><trkpt lat="46.2457535" lon="13.4042969"><ele>430.0</ele><time>2026-04-24T10:51:24.301Z</time></trkpt><trkpt lat="46.2456453" lon="13.4043427"><ele>432.0</ele><time>2026-04-24T10:51:25.301Z</time></trkpt><trkpt lat="46.2455398" lon="13.4043935"><ele>434.0</ele><time>2026-04-24T10:51:26.301Z</time></trkpt><trkpt lat="46.2454242" lon="13.4044154"><ele>436.0</ele><time>2026-04-24T10:51:27.301Z</time></trkpt><trkpt lat="46.2453129" lon="13.4044433"><ele>438.0</ele><time>2026-04-24T10:51:28.3Z</time></trkpt><trkpt lat="46.2452014" lon="13.4044543"><ele>438.0</ele><time>2026-04-24T10:51:29.302Z</time></trkpt><trkpt lat="46.2450858" lon="13.40448"><ele>437.99999999999994</ele><time>2026-04-24T10:51:30.301Z</time></trkpt><trkpt lat="46.2449851" lon="13.404503"><ele>437.99999999999994</ele><time>2026-04-24T10:51:31.301Z</time></trkpt><trkpt lat="46.2448824" lon="13.4045401"><ele>438.0</ele><time>2026-04-24T10:51:32.302Z</time></trkpt><trkpt lat="46.2447758" lon="13.4045528"><ele>438.0</ele><time>2026-04-24T10:51:33.3Z</time></trkpt><trkpt lat="46.2446712" lon="13.404585"><ele>440.2</ele><time>2026-04-24T10:51:34.302Z</time></trkpt><trkpt lat="46.2445819" lon="13.4045861"><ele>442.4</ele><time>2026-04-24T10:51:35.301Z</time></trkpt><trkpt lat="46.2444825" lon="13.4046223"><ele>444.59999999999997</ele><time>2026-04-24T10:51:36.3Z</time></trkpt><trkpt lat="46.2443807" lon="13.4046589"><ele>446.79999999999995</ele><time>2026-04-24T10:51:37.301Z</time></trkpt><trkpt lat="46.244285" lon="13.4047051"><ele>449.0</ele><time>2026-04-24T10:51:38.3Z</time></trkpt><trkpt lat="46.244168" lon="13.4047638"><ele>447.4</ele><time>2026-04-24T10:51:39.301Z</time></trkpt><trkpt lat="46.2440964" lon="13.4048479"><ele>445.79999999999995</ele><time>2026-04-24T10:51:40.3Z</time></trkpt><trkpt lat="46.2440245" lon="13.4049764"><ele>444.20000000000005</ele><time>2026-04-24T10:51:41.3Z</time></trkpt><trkpt lat="46.2439426" lon="13.4050882"><ele>442.6</ele><time>2026-04-24T10:51:42.301Z</time></trkpt><trkpt lat="46.2438684" lon="13.4052027"><ele>441.0</ele><time>2026-04-24T10:51:43.299Z</time></trkpt><trkpt lat="46.2438063" lon="13.4053139"><ele>441.0</ele><time>2026-04-24T10:51:44.299Z</time></trkpt><trkpt lat="46.2437418" lon="13.4053927"><ele>441.0</ele><time>2026-04-24T10:51:45.301Z</time></trkpt><trkpt lat="46.2436739" lon="13.4054801"><ele>441.0</ele><time>2026-04-24T10:51:46.299Z</time></trkpt><trkpt lat="46.2436197" lon="13.4055394"><ele>441.0</ele><time>2026-04-24T10:51:47.301Z</time></trkpt><trkpt lat="46.2435412" lon="13.4056184"><ele>441.0</ele><time>2026-04-24T10:51:49.3Z</time></trkpt><trkpt lat="46.2436014" lon="13.4057213"><ele>441.0</ele><time>2026-04-24T10:51:53.3Z</time></trkpt><trkpt lat="46.2437199" lon="13.4058182"><ele>436.42857142857144</ele><time>2026-04-24T10:51:55.3Z</time></trkpt><trkpt lat="46.2437713" lon="13.4058803"><ele>431.8571428571429</ele><time>2026-04-24T10:51:56.3Z</time></trkpt><trkpt lat="46.2438335" lon="13.4059443"><ele>427.2857142857143</ele><time>2026-04-24T10:51:57.301Z</time></trkpt><trkpt lat="46.2438974" lon="13.4060079"><ele>422.7142857142857</ele><time>2026-04-24T10:51:58.301Z</time></trkpt><trkpt lat="46.2439623" lon="13.4060713"><ele>418.14285714285717</ele><time>2026-04-24T10:51:59.299Z</time></trkpt><trkpt lat="46.2440233" lon="13.4061346"><ele>413.57142857142856</ele><time>2026-04-24T10:52:00.3Z</time></trkpt><trkpt lat="46.244065" lon="13.4062046"><ele>409.0</ele><time>2026-04-24T10:52:01.299Z</time></trkpt><trkpt lat="46.2440874" lon="13.4062946"><ele>410.00000000000006</ele><time>2026-04-24T10:52:02.301Z</time></trkpt><trkpt lat="46.2440771" lon="13.4063957"><ele>411.0</ele><time>2026-04-24T10:52:03.3Z</time></trkpt><trkpt lat="46.2440434" lon="13.4064995"><ele>412.0</ele><time>2026-04-24T10:52:04.3Z</time></trkpt><trkpt lat="46.2440103" lon="13.4066021"><ele>413.0</ele><time>2026-04-24T10:52:05.301Z</time></trkpt><trkpt lat="46.2439978" lon="13.4067046"><ele>414.00000000000006</ele><time>2026-04-24T10:52:06.299Z</time></trkpt><trkpt lat="46.2439885" lon="13.4068426"><ele>415.0</ele><time>2026-04-24T10:52:08.301Z</time></trkpt><trkpt lat="46.2440007" lon="13.4069571"><ele>415.00000000000006</ele><time>2026-04-24T10:56:00.298Z</time></trkpt><trkpt lat="46.2440645" lon="13.4070042"><ele>415.0</ele><time>2026-04-24T10:56:02.299Z</time></trkpt><trkpt lat="46.2441633" lon="13.4070323"><ele>415.0</ele><time>2026-04-24T10:56:04.299Z</time></trkpt><trkpt lat="46.2442792" lon="13.4069979"><ele>415.0</ele><time>2026-04-24T10:56:06.298Z</time></trkpt><trkpt lat="46.2443508" lon="13.4069516"><ele>415.00000000000006</ele><time>2026-04-24T10:56:07.299Z</time></trkpt><trkpt lat="46.2444182" lon="13.4069129"><ele>415.0</ele><time>2026-04-24T10:56:08.299Z</time></trkpt><trkpt lat="46.2444834" lon="13.4068781"><ele>415.00000000000006</ele><time>2026-04-24T10:56:09.299Z</time></trkpt><trkpt lat="46.2445547" lon="13.4067604"><ele>415.0</ele><time>2026-04-24T10:56:11.298Z</time></trkpt><trkpt lat="46.2445898" lon="13.4066771"><ele>415.0</ele><time>2026-04-24T10:56:12.299Z</time></trkpt><trkpt lat="46.2446532" lon="13.4065794"><ele>415.0</ele><time>2026-04-24T10:56:14.298Z</time></trkpt><trkpt lat="46.2447405" lon="13.4065837"><ele>415.00000000000006</ele><time>2026-04-24T10:56:16.299Z</time></trkpt><trkpt lat="46.2447681" lon="13.406676"><ele>415.0</ele><time>2026-04-24T10:56:18.299Z</time></trkpt><trkpt lat="46.2447435" lon="13.4067786"><ele>415.00000000000006</ele><time>2026-04-24T10:56:20.299Z</time></trkpt><trkpt lat="46.244721" lon="13.406932"><ele>415.0</ele><time>2026-04-24T10:56:44.299Z</time></trkpt><trkpt lat="46.2446984" lon="13.407024"><ele>415.0</ele><time>2026-04-24T10:56:45.3Z</time></trkpt><trkpt lat="46.244673" lon="13.4071122"><ele>415.0</ele><time>2026-04-24T10:56:46.298Z</time></trkpt><trkpt lat="46.244644" lon="13.4072044"><ele>415.00000000000006</ele><time>2026-04-24T10:56:47.3Z</time></trkpt><trkpt lat="46.2446068" lon="13.4073098"><ele>415.0</ele><time>2026-04-24T10:56:48.298Z</time></trkpt><trkpt lat="46.2445643" lon="13.4074172"><ele>416.00000000000006</ele><time>2026-04-24T10:56:49.3Z</time></trkpt><trkpt lat="46.2445391" lon="13.4075249"><ele>417.0</ele><time>2026-04-24T10:56:50.3Z</time></trkpt><trkpt lat="46.2445109" lon="13.4076422"><ele>418.0</ele><time>2026-04-24T10:56:51.299Z</time></trkpt><trkpt lat="46.2445125" lon="13.4078004"><ele>419.0</ele><time>2026-04-24T10:56:53.299Z</time></trkpt><trkpt lat="46.2444927" lon="13.4078911"><ele>420.00000000000006</ele><time>2026-04-24T10:56:54.299Z</time></trkpt><trkpt lat="46.2444647" lon="13.4080198"><ele>421.0</ele><time>2026-04-24T10:56:55.298Z</time></trkpt><trkpt lat="46.244435" lon="13.4081169"><ele>423.50000000000006</ele><time>2026-04-24T10:56:56.299Z</time></trkpt><trkpt lat="46.2443468" lon="13.408195"><ele>426.0</ele><time>2026-04-24T10:56:57.299Z</time></trkpt><trkpt lat="46.244254" lon="13.4082551"><ele>428.5</ele><time>2026-04-24T10:56:58.3Z</time></trkpt><trkpt lat="46.2441909" lon="13.4082866"><ele>431.0</ele><time>2026-04-24T10:56:59.298Z</time></trkpt><trkpt lat="46.2441177" lon="13.4083245"><ele>433.50000000000006</ele><time>2026-04-24T10:57:00.298Z</time></trkpt><trkpt lat="46.2440422" lon="13.4083605"><ele>436.0</ele><time>2026-04-24T10:57:01.298Z</time></trkpt><trkpt lat="46.2439743" lon="13.4084367"><ele>438.0</ele><time>2026-04-24T10:57:02.299Z</time></trkpt><trkpt lat="46.2439104" lon="13.4084974"><ele>440.0</ele><time>2026-04-24T10:57:03.299Z</time></trkpt><trkpt lat="46.2438297" lon="13.4085774"><ele>442.0</ele><time>2026-04-24T10:57:04.298Z</time></trkpt><trkpt lat="46.2437465" lon="13.4086653"><ele>444.0</ele><time>2026-04-24T10:57:05.299Z</time></trkpt><trkpt lat="46.2436829" lon="13.4087798"><ele>446.0</ele><time>2026-04-24T10:57:06.299Z</time></trkpt><trkpt lat="46.2436056" lon="13.4088962"><ele>446.0</ele><time>2026-04-24T10:57:07.297Z</time></trkpt><trkpt lat="46.24353" lon="13.4089684"><ele>446.0</ele><time>2026-04-24T10:57:08.297Z</time></trkpt><trkpt lat="46.2434549" lon="13.4090623"><ele>446.0</ele><time>2026-04-24T10:57:09.299Z</time></trkpt><trkpt lat="46.2433674" lon="13.4091578"><ele>446.0</ele><time>2026-04-24T10:57:10.299Z</time></trkpt><trkpt lat="46.2432406" lon="13.4092274"><ele>446.0</ele><time>2026-04-24T10:57:11.297Z</time></trkpt><trkpt lat="46.243153" lon="13.4093003"><ele>440.5</ele><time>2026-04-24T10:57:12.297Z</time></trkpt><trkpt lat="46.2430754" lon="13.4093927"><ele>435.0</ele><time>2026-04-24T10:57:13.298Z</time></trkpt><trkpt lat="46.2429754" lon="13.4094737"><ele>429.5</ele><time>2026-04-24T10:57:14.297Z</time></trkpt><trkpt lat="46.2428628" lon="13.4095493"><ele>424.0</ele><time>2026-04-24T10:57:15.298Z</time></trkpt><trkpt lat="46.2427476" lon="13.4095947"><ele>424.0</ele><time>2026-04-24T10:57:16.298Z</time></trkpt><trkpt lat="46.2426343" lon="13.409638"><ele>424.0</ele><time>2026-04-24T10:57:17.297Z</time></trkpt><trkpt lat="46.2425236" lon="13.4096734"><ele>424.0</ele><time>2026-04-24T10:57:18.298Z</time></trkpt><trkpt lat="46.2424249" lon="13.4097134"><ele>424.0</ele><time>2026-04-24T10:57:19.298Z</time></trkpt><trkpt lat="46.2423221" lon="13.4098062"><ele>426.5</ele><time>2026-04-24T10:57:20.299Z</time></trkpt><trkpt lat="46.2422053" lon="13.4099214"><ele>429.0</ele><time>2026-04-24T10:57:21.298Z</time></trkpt><trkpt lat="46.2421034" lon="13.4099978"><ele>431.5</ele><time>2026-04-24T10:57:22.298Z</time></trkpt><trkpt lat="46.2420041" lon="13.4100648"><ele>434.0</ele><time>2026-04-24T10:57:23.298Z</time></trkpt><trkpt lat="46.2419042" lon="13.4101367"><ele>434.0</ele><time>2026-04-24T10:57:24.298Z</time></trkpt><trkpt lat="46.2418223" lon="13.4101498"><ele>434.0</ele><time>2026-04-24T10:57:25.298Z</time></trkpt><trkpt lat="46.2417309" lon="13.4102511"><ele>434.0</ele><time>2026-04-24T10:57:26.299Z</time></trkpt><trkpt lat="46.2416336" lon="13.4103185"><ele>434.0</ele><time>2026-04-24T10:57:27.297Z</time></trkpt><trkpt lat="46.2415802" lon="13.4104086"><ele>434.0</ele><time>2026-04-24T10:57:28.298Z</time></trkpt><trkpt lat="46.2415257" lon="13.4104832"><ele>433.0</ele><time>2026-04-24T10:57:29.297Z</time></trkpt><trkpt lat="46.2414387" lon="13.4105585"><ele>432.0</ele><time>2026-04-24T10:57:31.298Z</time></trkpt><trkpt lat="46.2414385" lon="13.4106531"><ele>431.0</ele><time>2026-04-24T10:57:32.298Z</time></trkpt><trkpt lat="46.2414473" lon="13.4108182"><ele>430.0</ele><time>2026-04-24T10:57:34.298Z</time></trkpt><trkpt lat="46.2414159" lon="13.4109898"><ele>429.0</ele><time>2026-04-24T10:57:36.298Z</time></trkpt><trkpt lat="46.2413468" lon="13.4110563"><ele>429.0</ele><time>2026-04-24T10:57:37.299Z</time></trkpt><trkpt lat="46.2412451" lon="13.4111465"><ele>429.0</ele><time>2026-04-24T10:57:39.297Z</time></trkpt><trkpt lat="46.2411637" lon="13.4112493"><ele>429.0</ele><time>2026-04-24T10:57:41.298Z</time></trkpt><trkpt lat="46.2411376" lon="13.4113593"><ele>429.0</ele><time>2026-04-24T10:57:42.298Z</time></trkpt><trkpt lat="46.2411451" lon="13.4115323"><ele>429.0</ele><time>2026-04-24T10:57:44.298Z</time></trkpt><trkpt lat="46.2410882" lon="13.4116715"><ele>428.3333333333333</ele><time>2026-04-24T10:57:46.299Z</time></trkpt><trkpt lat="46.2409855" lon="13.411769"><ele>427.66666666666663</ele><time>2026-04-24T10:57:48.297Z</time></trkpt><trkpt lat="46.2409043" lon="13.4117921"><ele>427.0</ele><time>2026-04-24T10:57:49.299Z</time></trkpt><trkpt lat="46.2408372" lon="13.4118292"><ele>426.3333333333333</ele><time>2026-04-24T10:57:50.298Z</time></trkpt><trkpt lat="46.240768" lon="13.4118733"><ele>425.66666666666663</ele><time>2026-04-24T10:57:51.299Z</time></trkpt><trkpt lat="46.2406979" lon="13.4119188"><ele>425.0</ele><time>2026-04-24T10:57:52.297Z</time></trkpt><trkpt lat="46.2406139" lon="13.4119867"><ele>425.0</ele><time>2026-04-24T10:57:53.299Z</time></trkpt><trkpt lat="46.2405728" lon="13.4121395"><ele>425.0</ele><time>2026-04-24T10:57:54.299Z</time></trkpt><trkpt lat="46.2405065" lon="13.4121822"><ele>425.0</ele><time>2026-04-24T10:57:55.297Z</time></trkpt><trkpt lat="46.2404639" lon="13.4122971"><ele>425.0</ele><time>2026-04-24T10:57:56.298Z</time></trkpt><trkpt lat="46.2403879" lon="13.4124269"><ele>425.0</ele><time>2026-04-24T10:57:58.298Z</time></trkpt><trkpt lat="46.240322" lon="13.4125081"><ele>428.6</ele><time>2026-04-24T10:57:59.299Z</time></trkpt><trkpt lat="46.2402106" lon="13.4125612"><ele>432.2</ele><time>2026-04-24T10:58:00.297Z</time></trkpt><trkpt lat="46.2401214" lon="13.4125978"><ele>435.79999999999995</ele><time>2026-04-24T10:58:01.297Z</time></trkpt><trkpt lat="46.2402025" lon="13.4127405"><ele>439.4</ele><time>2026-04-24T10:58:03.298Z</time></trkpt><trkpt lat="46.2402726" lon="13.41276"><ele>443.0</ele><time>2026-04-24T10:58:06.297Z</time></trkpt><trkpt lat="46.2403027" lon="13.4126735"><ele>443.0</ele><time>2026-04-24T10:58:07.298Z</time></trkpt><trkpt lat="46.2404135" lon="13.4125875"><ele>442.99999999999994</ele><time>2026-04-24T10:58:09.299Z</time></trkpt><trkpt lat="46.2405073" lon="13.4124985"><ele>442.99999999999994</ele><time>2026-04-24T10:58:10.298Z</time></trkpt><trkpt lat="46.2405837" lon="13.4124309"><ele>443.0</ele><time>2026-04-24T10:58:11.299Z</time></trkpt><trkpt lat="46.2406716" lon="13.4123467"><ele>443.0</ele><time>2026-04-24T10:58:12.297Z</time></trkpt><trkpt lat="46.2407554" lon="13.4122918"><ele>445.59999999999997</ele><time>2026-04-24T10:58:13.298Z</time></trkpt><trkpt lat="46.2408367" lon="13.4122254"><ele>448.19999999999993</ele><time>2026-04-24T10:58:14.299Z</time></trkpt><trkpt lat="46.2409257" lon="13.4121581"><ele>450.8</ele><time>2026-04-24T10:58:15.298Z</time></trkpt><trkpt lat="46.241015" lon="13.4121114"><ele>453.4</ele><time>2026-04-24T10:58:16.297Z</time></trkpt><trkpt lat="46.2411263" lon="13.4121199"><ele>456.0</ele><time>2026-04-24T10:58:17.299Z</time></trkpt><trkpt lat="46.2412209" lon="13.4120621"><ele>456.0</ele><time>2026-04-24T10:58:18.297Z</time></trkpt><trkpt lat="46.2413165" lon="13.4120205"><ele>456.0</ele><time>2026-04-24T10:58:19.298Z</time></trkpt><trkpt lat="46.2414163" lon="13.4120103"><ele>456.0</ele><time>2026-04-24T10:58:20.297Z</time></trkpt><trkpt lat="46.2414843" lon="13.4119061"><ele>456.0</ele><time>2026-04-24T10:58:21.298Z</time></trkpt><trkpt lat="46.241551" lon="13.4118244"><ele>456.0</ele><time>2026-04-24T10:58:22.298Z</time></trkpt><trkpt lat="46.2416241" lon="13.4117567"><ele>464.20000000000005</ele><time>2026-04-24T10:58:23.298Z</time></trkpt><trkpt lat="46.241694" lon="13.4116594"><ele>472.40000000000003</ele><time>2026-04-24T10:58:24.299Z</time></trkpt><trkpt lat="46.2417796" lon="13.4115675"><ele>480.6</ele><time>2026-04-24T10:58:25.297Z</time></trkpt><trkpt lat="46.2418724" lon="13.4115009"><ele>488.8</ele><time>2026-04-24T10:58:26.298Z</time></trkpt><trkpt lat="46.2419636" lon="13.4114161"><ele>497.0</ele><time>2026-04-24T10:58:27.297Z</time></trkpt><trkpt lat="46.2420355" lon="13.4113397"><ele>496.6</ele><time>2026-04-24T10:58:28.298Z</time></trkpt><trkpt lat="46.2420981" lon="13.4112327"><ele>496.20000000000005</ele><time>2026-04-24T10:58:29.297Z</time></trkpt><trkpt lat="46.2421631" lon="13.411114"><ele>495.8</ele><time>2026-04-24T10:58:30.298Z</time></trkpt><trkpt lat="46.2421983" lon="13.4110058"><ele>495.4</ele><time>2026-04-24T10:58:31.297Z</time></trkpt><trkpt lat="46.2422536" lon="13.4109067"><ele>495.0</ele><time>2026-04-24T10:58:32.299Z</time></trkpt><trkpt lat="46.2423449" lon="13.410886"><ele>495.0</ele><time>2026-04-24T10:58:33.297Z</time></trkpt><trkpt lat="46.2424002" lon="13.4108012"><ele>495.0</ele><time>2026-04-24T10:58:34.298Z</time></trkpt><trkpt lat="46.2424674" lon="13.4107364"><ele>495.0</ele><time>2026-04-24T10:58:35.298Z</time></trkpt><trkpt lat="46.2425505" lon="13.4107329"><ele>495.0</ele><time>2026-04-24T10:58:36.298Z</time></trkpt><trkpt lat="46.2426368" lon="13.4107519"><ele>495.0</ele><time>2026-04-24T10:58:37.298Z</time></trkpt><trkpt lat="46.242768" lon="13.4107621"><ele>494.99999999999994</ele><time>2026-04-24T10:58:39.298Z</time></trkpt><trkpt lat="46.2428366" lon="13.4107845"><ele>495.0</ele><time>2026-04-24T10:58:40.299Z</time></trkpt><trkpt lat="46.2429107" lon="13.4107947"><ele>494.99999999999994</ele><time>2026-04-24T10:58:41.297Z</time></trkpt><trkpt lat="46.242964" lon="13.4107431"><ele>494.99999999999994</ele><time>2026-04-24T10:58:42.299Z</time></trkpt><trkpt lat="46.2430359" lon="13.4107532"><ele>495.0</ele><time>2026-04-24T10:58:43.298Z</time></trkpt><trkpt lat="46.2431176" lon="13.4107338"><ele>494.99999999999994</ele><time>2026-04-24T10:58:44.298Z</time></trkpt><trkpt lat="46.2431905" lon="13.4107199"><ele>494.99999999999994</ele><time>2026-04-24T10:58:45.298Z</time></trkpt><trkpt lat="46.2432655" lon="13.4107118"><ele>498.0</ele><time>2026-04-24T10:58:46.298Z</time></trkpt><trkpt lat="46.243342" lon="13.4108127"><ele>501.0</ele><time>2026-04-24T10:58:47.299Z</time></trkpt><trkpt lat="46.2434185" lon="13.410861"><ele>504.0</ele><time>2026-04-24T10:58:48.297Z</time></trkpt><trkpt lat="46.2434923" lon="13.4108987"><ele>507.0</ele><time>2026-04-24T10:58:49.298Z</time></trkpt><trkpt lat="46.2435697" lon="13.4108523"><ele>510.0</ele><time>2026-04-24T10:58:50.299Z</time></trkpt><trkpt lat="46.2436388" lon="13.4107829"><ele>513.0</ele><time>2026-04-24T10:58:51.298Z</time></trkpt><trkpt lat="46.2437252" lon="13.4106536"><ele>513.0</ele><time>2026-04-24T10:58:53.297Z</time></trkpt><trkpt lat="46.2437986" lon="13.4106019"><ele>513.0</ele><time>2026-04-24T10:58:55.299Z</time></trkpt><trkpt lat="46.243898" lon="13.4106203"><ele>513.0</ele><time>2026-04-24T10:58:57.297Z</time></trkpt><trkpt lat="46.2439685" lon="13.4106771"><ele>513.0</ele><time>2026-04-24T10:58:58.299Z</time></trkpt><trkpt lat="46.2440368" lon="13.4107653"><ele>513.0</ele><time>2026-04-24T10:58:59.298Z</time></trkpt><trkpt lat="46.2441285" lon="13.4108515"><ele>514.4</ele><time>2026-04-24T10:59:00.299Z</time></trkpt><trkpt lat="46.2442305" lon="13.4109571"><ele>515.8</ele><time>2026-04-24T10:59:01.297Z</time></trkpt><trkpt lat="46.2443168" lon="13.4110355"><ele>517.2</ele><time>2026-04-24T10:59:02.298Z</time></trkpt><trkpt lat="46.2444044" lon="13.4110899"><ele>518.6</ele><time>2026-04-24T10:59:03.299Z</time></trkpt><trkpt lat="46.2444902" lon="13.4111479"><ele>520.0</ele><time>2026-04-24T10:59:04.298Z</time></trkpt><trkpt lat="46.2446117" lon="13.4111218"><ele>520.0</ele><time>2026-04-24T10:59:05.298Z</time></trkpt><trkpt lat="46.2446998" lon="13.4110852"><ele>520.0</ele><time>2026-04-24T10:59:06.298Z</time></trkpt><trkpt lat="46.2447866" lon="13.411045"><ele>520.0</ele><time>2026-04-24T10:59:07.298Z</time></trkpt><trkpt lat="46.2448692" lon="13.4110141"><ele>520.0</ele><time>2026-04-24T10:59:08.298Z</time></trkpt><trkpt lat="46.2449433" lon="13.4110122"><ele>520.0</ele><time>2026-04-24T10:59:10.298Z</time></trkpt><trkpt lat="46.2449129" lon="13.4111231"><ele>520.0</ele><time>2026-04-24T10:59:12.299Z</time></trkpt><trkpt lat="46.2448958" lon="13.4112554"><ele>520.0</ele><time>2026-04-24T10:59:14.298Z</time></trkpt><trkpt lat="46.2447433" lon="13.4112328"><ele>520.0</ele><time>2026-04-24T10:59:15.297Z</time></trkpt><trkpt lat="46.2446537" lon="13.4112589"><ele>520.0</ele><time>2026-04-24T10:59:16.297Z</time></trkpt><trkpt lat="46.2445987" lon="13.4113039"><ele>520.0</ele><time>2026-04-24T10:59:17.298Z</time></trkpt><trkpt lat="46.2444946" lon="13.4113266"><ele>520.0</ele><time>2026-04-24T10:59:18.297Z</time></trkpt><trkpt lat="46.2444304" lon="13.4113402"><ele>520.0</ele><time>2026-04-24T10:59:19.298Z</time></trkpt><trkpt lat="46.2443203" lon="13.4113625"><ele>520.0</ele><time>2026-04-24T10:59:20.298Z</time></trkpt><trkpt lat="46.2442015" lon="13.4113182"><ele>520.0</ele><time>2026-04-24T10:59:21.298Z</time></trkpt><trkpt lat="46.244083" lon="13.4113015"><ele>520.0</ele><time>2026-04-24T10:59:22.299Z</time></trkpt><trkpt lat="46.2439437" lon="13.4112125"><ele>518.8333333333334</ele><time>2026-04-24T10:59:24.298Z</time></trkpt><trkpt lat="46.2438801" lon="13.4112805"><ele>517.6666666666667</ele><time>2026-04-24T10:59:25.297Z</time></trkpt><trkpt lat="46.2437993" lon="13.4113063"><ele>516.5</ele><time>2026-04-24T10:59:26.298Z</time></trkpt><trkpt lat="46.2437176" lon="13.4113424"><ele>515.3333333333334</ele><time>2026-04-24T10:59:27.298Z</time></trkpt><trkpt lat="46.2436248" lon="13.4114359"><ele>514.1666666666666</ele><time>2026-04-24T10:59:28.298Z</time></trkpt><trkpt lat="46.2435524" lon="13.4115052"><ele>513.0</ele><time>2026-04-24T10:59:29.298Z</time></trkpt><trkpt lat="46.2434286" lon="13.4115094"><ele>516.8</ele><time>2026-04-24T10:59:30.297Z</time></trkpt><trkpt lat="46.2433379" lon="13.4115538"><ele>520.5999999999999</ele><time>2026-04-24T10:59:31.298Z</time></trkpt><trkpt lat="46.2432425" lon="13.4115983"><ele>524.4000000000001</ele><time>2026-04-24T10:59:32.298Z</time></trkpt><trkpt lat="46.2431504" lon="13.4116372"><ele>528.2</ele><time>2026-04-24T10:59:33.299Z</time></trkpt><trkpt lat="46.2430624" lon="13.4116947"><ele>532.0</ele><time>2026-04-24T10:59:34.298Z</time></trkpt><trkpt lat="46.2429809" lon="13.4117456"><ele>532.0</ele><time>2026-04-24T10:59:35.298Z</time></trkpt><trkpt lat="46.2428991" lon="13.4118033"><ele>532.0</ele><time>2026-04-24T10:59:36.297Z</time></trkpt><trkpt lat="46.2428336" lon="13.4118528"><ele>532.0</ele><time>2026-04-24T10:59:37.298Z</time></trkpt><trkpt lat="46.2427596" lon="13.4119771"><ele>532.0</ele><time>2026-04-24T10:59:39.299Z</time></trkpt><trkpt lat="46.2428015" lon="13.4120569"><ele>532.0</ele><time>2026-04-24T10:59:41.297Z</time></trkpt><trkpt lat="46.2429068" lon="13.4119961"><ele>532.0</ele><time>2026-04-24T10:59:43.298Z</time></trkpt><trkpt lat="46.2429802" lon="13.4119252"><ele>532.0</ele><time>2026-04-24T10:59:44.297Z</time></trkpt><trkpt lat="46.2430556" lon="13.4118864"><ele>532.0</ele><time>2026-04-24T10:59:45.298Z</time></trkpt><trkpt lat="46.24314" lon="13.4118602"><ele>532.0</ele><time>2026-04-24T10:59:46.299Z</time></trkpt><trkpt lat="46.2432339" lon="13.4118441"><ele>532.0</ele><time>2026-04-24T10:59:47.296Z</time></trkpt><trkpt lat="46.2433309" lon="13.4118383"><ele>532.0</ele><time>2026-04-24T10:59:48.298Z</time></trkpt><trkpt lat="46.2434309" lon="13.4118327"><ele>535.8000000000001</ele><time>2026-04-24T10:59:49.296Z</time></trkpt><trkpt lat="46.2435326" lon="13.4118206"><ele>539.6</ele><time>2026-04-24T10:59:50.297Z</time></trkpt><trkpt lat="46.243637" lon="13.4118077"><ele>543.4000000000001</ele><time>2026-04-24T10:59:51.298Z</time></trkpt><trkpt lat="46.2437428" lon="13.4118145"><ele>547.2</ele><time>2026-04-24T10:59:52.296Z</time></trkpt><trkpt lat="46.2438393" lon="13.4118307"><ele>551.0</ele><time>2026-04-24T10:59:53.298Z</time></trkpt><trkpt lat="46.2439392" lon="13.4118677"><ele>551.2</ele><time>2026-04-24T10:59:54.296Z</time></trkpt><trkpt lat="46.2440311" lon="13.4119124"><ele>551.4000000000001</ele><time>2026-04-24T10:59:55.297Z</time></trkpt><trkpt lat="46.2441115" lon="13.4119794"><ele>551.6</ele><time>2026-04-24T10:59:56.296Z</time></trkpt><trkpt lat="46.2441796" lon="13.4120744"><ele>551.8000000000001</ele><time>2026-04-24T10:59:57.297Z</time></trkpt><trkpt lat="46.2442355" lon="13.4121886"><ele>552.0</ele><time>2026-04-24T10:59:58.297Z</time></trkpt><trkpt lat="46.2442854" lon="13.4123048"><ele>554.1666666666666</ele><time>2026-04-24T10:59:59.296Z</time></trkpt><trkpt lat="46.2443283" lon="13.4124285"><ele>556.3333333333334</ele><time>2026-04-24T11:00:00.297Z</time></trkpt><trkpt lat="46.2443723" lon="13.4125411"><ele>558.5</ele><time>2026-04-24T11:00:01.298Z</time></trkpt><trkpt lat="46.2444271" lon="13.4126279"><ele>560.6666666666667</ele><time>2026-04-24T11:00:02.297Z</time></trkpt><trkpt lat="46.2444883" lon="13.4126777"><ele>562.8333333333334</ele><time>2026-04-24T11:00:03.298Z</time></trkpt><trkpt lat="46.2445567" lon="13.4127089"><ele>565.0</ele><time>2026-04-24T11:00:04.297Z</time></trkpt><trkpt lat="46.2446351" lon="13.4127048"><ele>565.0</ele><time>2026-04-24T11:00:05.296Z</time></trkpt><trkpt lat="46.2447182" lon="13.4126708"><ele>565.0</ele><time>2026-04-24T11:00:06.297Z</time></trkpt><trkpt lat="46.2447932" lon="13.4126441"><ele>565.0</ele><time>2026-04-24T11:00:07.298Z</time></trkpt><trkpt lat="46.2448704" lon="13.4126159"><ele>565.0</ele><time>2026-04-24T11:00:08.296Z</time></trkpt><trkpt lat="46.2449499" lon="13.4125894"><ele>565.0</ele><time>2026-04-24T11:00:09.298Z</time></trkpt><trkpt lat="46.2450301" lon="13.4125747"><ele>565.0</ele><time>2026-04-24T11:00:10.298Z</time></trkpt><trkpt lat="46.2451065" lon="13.4125722"><ele>565.1666666666667</ele><time>2026-04-24T11:00:11.297Z</time></trkpt><trkpt lat="46.2451846" lon="13.4125883"><ele>565.3333333333334</ele><time>2026-04-24T11:00:12.297Z</time></trkpt><trkpt lat="46.2452622" lon="13.4126188"><ele>565.5</ele><time>2026-04-24T11:00:13.297Z</time></trkpt><trkpt lat="46.2453345" lon="13.4126755"><ele>565.6666666666666</ele><time>2026-04-24T11:00:14.297Z</time></trkpt><trkpt lat="46.2454056" lon="13.4127356"><ele>565.8333333333333</ele><time>2026-04-24T11:00:15.296Z</time></trkpt><trkpt lat="46.2454792" lon="13.4127919"><ele>566.0</ele><time>2026-04-24T11:00:16.297Z</time></trkpt><trkpt lat="46.2455557" lon="13.4128484"><ele>567.3333333333333</ele><time>2026-04-24T11:00:17.298Z</time></trkpt><trkpt lat="46.2456294" lon="13.4129077"><ele>568.6666666666666</ele><time>2026-04-24T11:00:18.296Z</time></trkpt><trkpt lat="46.2457018" lon="13.412969"><ele>570.0</ele><time>2026-04-24T11:00:19.296Z</time></trkpt><trkpt lat="46.2457747" lon="13.4130303"><ele>571.3333333333334</ele><time>2026-04-24T11:00:20.297Z</time></trkpt><trkpt lat="46.2458413" lon="13.413102"><ele>572.6666666666667</ele><time>2026-04-24T11:00:21.297Z</time></trkpt><trkpt lat="46.2459067" lon="13.4131822"><ele>574.0</ele><time>2026-04-24T11:00:22.297Z</time></trkpt><trkpt lat="46.2459705" lon="13.4132735"><ele>575.6</ele><time>2026-04-24T11:00:23.296Z</time></trkpt><trkpt lat="46.2460314" lon="13.4133655"><ele>577.2</ele><time>2026-04-24T11:00:24.298Z</time></trkpt><trkpt lat="46.2460968" lon="13.4134595"><ele>578.8000000000001</ele><time>2026-04-24T11:00:25.296Z</time></trkpt><trkpt lat="46.2461631" lon="13.4135541"><ele>580.4</ele><time>2026-04-24T11:00:26.296Z</time></trkpt><trkpt lat="46.2462313" lon="13.413652"><ele>582.0</ele><time>2026-04-24T11:00:27.297Z</time></trkpt><trkpt lat="46.2463007" lon="13.4137354"><ele>582.0</ele><time>2026-04-24T11:00:28.297Z</time></trkpt><trkpt lat="46.2463707" lon="13.4137822"><ele>582.0</ele><time>2026-04-24T11:00:29.297Z</time></trkpt><trkpt lat="46.2464396" lon="13.4137999"><ele>582.0</ele><time>2026-04-24T11:00:30.297Z</time></trkpt><trkpt lat="46.2465156" lon="13.4137817"><ele>582.0</ele><time>2026-04-24T11:00:31.298Z</time></trkpt><trkpt lat="46.246585" lon="13.4137576"><ele>582.0</ele><time>2026-04-24T11:00:32.297Z</time></trkpt><trkpt lat="46.2466579" lon="13.4136785"><ele>582.0</ele><time>2026-04-24T11:00:33.297Z</time></trkpt><trkpt lat="46.2467436" lon="13.4136119"><ele>582.0</ele><time>2026-04-24T11:00:34.297Z</time></trkpt><trkpt lat="46.2468395" lon="13.4135598"><ele>582.0</ele><time>2026-04-24T11:00:35.297Z</time></trkpt><trkpt lat="46.246941" lon="13.4135328"><ele>582.0</ele><time>2026-04-24T11:00:36.298Z</time></trkpt><trkpt lat="46.2470435" lon="13.4135173"><ele>582.0</ele><time>2026-04-24T11:00:37.298Z</time></trkpt><trkpt lat="46.2471472" lon="13.4135077"><ele>582.0</ele><time>2026-04-24T11:00:38.297Z</time></trkpt><trkpt lat="46.2472541" lon="13.4134888"><ele>583.8000000000001</ele><time>2026-04-24T11:00:39.297Z</time></trkpt><trkpt lat="46.2473639" lon="13.4134732"><ele>585.6</ele><time>2026-04-24T11:00:40.298Z</time></trkpt><trkpt lat="46.2474731" lon="13.4134651"><ele>587.4000000000001</ele><time>2026-04-24T11:00:41.298Z</time></trkpt><trkpt lat="46.2475823" lon="13.41345"><ele>589.2</ele><time>2026-04-24T11:00:42.296Z</time></trkpt><trkpt lat="46.2476897" lon="13.4134358"><ele>591.0</ele><time>2026-04-24T11:00:43.295Z</time></trkpt><trkpt lat="46.2477964" lon="13.4134299"><ele>591.0</ele><time>2026-04-24T11:00:44.298Z</time></trkpt><trkpt lat="46.2478993" lon="13.4134122"><ele>591.0</ele><time>2026-04-24T11:00:45.297Z</time></trkpt><trkpt lat="46.2480016" lon="13.4133896"><ele>591.0</ele><time>2026-04-24T11:00:46.296Z</time></trkpt><trkpt lat="46.2480999" lon="13.4133485"><ele>591.0</ele><time>2026-04-24T11:00:47.297Z</time></trkpt><trkpt lat="46.2481993" lon="13.4132964"><ele>591.0</ele><time>2026-04-24T11:00:48.298Z</time></trkpt><trkpt lat="46.2482965" lon="13.4132364"><ele>591.8</ele><time>2026-04-24T11:00:49.296Z</time></trkpt><trkpt lat="46.2483892" lon="13.4131618"><ele>592.6</ele><time>2026-04-24T11:00:50.297Z</time></trkpt><trkpt lat="46.2484826" lon="13.4130799"><ele>593.4</ele><time>2026-04-24T11:00:51.298Z</time></trkpt><trkpt lat="46.2485755" lon="13.4129966"><ele>594.2</ele><time>2026-04-24T11:00:52.296Z</time></trkpt><trkpt lat="46.2486695" lon="13.4129081"><ele>595.0</ele><time>2026-04-24T11:00:53.297Z</time></trkpt><trkpt lat="46.2487587" lon="13.4128198"><ele>596.2</ele><time>2026-04-24T11:00:54.298Z</time></trkpt><trkpt lat="46.2488489" lon="13.4127492"><ele>597.4</ele><time>2026-04-24T11:00:55.297Z</time></trkpt><trkpt lat="46.248942" lon="13.4126895"><ele>598.6</ele><time>2026-04-24T11:00:56.296Z</time></trkpt><trkpt lat="46.2490406" lon="13.4126485"><ele>599.8</ele><time>2026-04-24T11:00:57.298Z</time></trkpt><trkpt lat="46.2491454" lon="13.412631"><ele>601.0</ele><time>2026-04-24T11:00:58.297Z</time></trkpt><trkpt lat="46.2492504" lon="13.4126304"><ele>602.0</ele><time>2026-04-24T11:00:59.296Z</time></trkpt><trkpt lat="46.2493585" lon="13.4126505"><ele>603.0</ele><time>2026-04-24T11:01:00.298Z</time></trkpt><trkpt lat="46.2494655" lon="13.4126747"><ele>604.0</ele><time>2026-04-24T11:01:01.298Z</time></trkpt><trkpt lat="46.2495733" lon="13.4126891"><ele>605.0</ele><time>2026-04-24T11:01:02.296Z</time></trkpt><trkpt lat="46.249686" lon="13.4127062"><ele>606.0</ele><time>2026-04-24T11:01:03.296Z</time></trkpt><trkpt lat="46.2498003" lon="13.4127258"><ele>607.75</ele><time>2026-04-24T11:01:04.298Z</time></trkpt><trkpt lat="46.2499149" lon="13.4127476"><ele>609.5</ele><time>2026-04-24T11:01:05.297Z</time></trkpt><trkpt lat="46.2500302" lon="13.4127878"><ele>611.25</ele><time>2026-04-24T11:01:06.298Z</time></trkpt><trkpt lat="46.250141" lon="13.4128315"><ele>613.0</ele><time>2026-04-24T11:01:07.297Z</time></trkpt><trkpt lat="46.2502514" lon="13.4128884"><ele>613.0</ele><time>2026-04-24T11:01:08.297Z</time></trkpt><trkpt lat="46.2503631" lon="13.4129416"><ele>613.0</ele><time>2026-04-24T11:01:09.297Z</time></trkpt><trkpt lat="46.2504768" lon="13.4129889"><ele>613.0</ele><time>2026-04-24T11:01:10.296Z</time></trkpt><trkpt lat="46.2505903" lon="13.4130387"><ele>613.0</ele><time>2026-04-24T11:01:11.298Z</time></trkpt><trkpt lat="46.2507028" lon="13.4130915"><ele>613.6</ele><time>2026-04-24T11:01:12.296Z</time></trkpt><trkpt lat="46.2508133" lon="13.4131448"><ele>614.1999999999999</ele><time>2026-04-24T11:01:13.298Z</time></trkpt><trkpt lat="46.2509197" lon="13.4131989"><ele>614.8</ele><time>2026-04-24T11:01:14.298Z</time></trkpt><trkpt lat="46.2510227" lon="13.4132466"><ele>615.4</ele><time>2026-04-24T11:01:15.297Z</time></trkpt><trkpt lat="46.251125" lon="13.4132977"><ele>616.0</ele><time>2026-04-24T11:01:16.297Z</time></trkpt><trkpt lat="46.2512238" lon="13.4133466"><ele>616.0</ele><time>2026-04-24T11:01:17.297Z</time></trkpt><trkpt lat="46.2513239" lon="13.4133912"><ele>616.0</ele><time>2026-04-24T11:01:18.297Z</time></trkpt><trkpt lat="46.2514205" lon="13.4134369"><ele>616.0</ele><time>2026-04-24T11:01:19.297Z</time></trkpt><trkpt lat="46.2515183" lon="13.4134818"><ele>616.0</ele><time>2026-04-24T11:01:20.297Z</time></trkpt><trkpt lat="46.2516147" lon="13.4135283"><ele>616.0</ele><time>2026-04-24T11:01:21.296Z</time></trkpt><trkpt lat="46.2517098" lon="13.413577"><ele>617.0</ele><time>2026-04-24T11:01:22.296Z</time></trkpt><trkpt lat="46.2518063" lon="13.4136241"><ele>618.0</ele><time>2026-04-24T11:01:23.297Z</time></trkpt><trkpt lat="46.2519032" lon="13.4136656"><ele>619.0</ele><time>2026-04-24T11:01:24.296Z</time></trkpt><trkpt lat="46.2519994" lon="13.4137041"><ele>620.0</ele><time>2026-04-24T11:01:25.297Z</time></trkpt><trkpt lat="46.2520963" lon="13.4137412"><ele>621.0</ele><time>2026-04-24T11:01:26.297Z</time></trkpt><trkpt lat="46.2521967" lon="13.4137745"><ele>620.4</ele><time>2026-04-24T11:01:27.297Z</time></trkpt><trkpt lat="46.2522977" lon="13.4138109"><ele>619.8</ele><time>2026-04-24T11:01:28.297Z</time></trkpt><trkpt lat="46.2524013" lon="13.4138493"><ele>619.1999999999999</ele><time>2026-04-24T11:01:29.298Z</time></trkpt><trkpt lat="46.2525093" lon="13.413886"><ele>618.6</ele><time>2026-04-24T11:01:30.296Z</time></trkpt><trkpt lat="46.2526218" lon="13.4139225"><ele>618.0</ele><time>2026-04-24T11:01:31.297Z</time></trkpt><trkpt lat="46.2527368" lon="13.4139602"><ele>618.0</ele><time>2026-04-24T11:01:32.296Z</time></trkpt><trkpt lat="46.2528526" lon="13.4139976"><ele>618.0</ele><time>2026-04-24T11:01:33.296Z</time></trkpt><trkpt lat="46.2529593" lon="13.414029"><ele>618.0</ele><time>2026-04-24T11:01:34.297Z</time></trkpt><trkpt lat="46.2530534" lon="13.4140514"><ele>618.0</ele><time>2026-04-24T11:01:35.297Z</time></trkpt><trkpt lat="46.2531428" lon="13.4140709"><ele>618.0</ele><time>2026-04-24T11:01:36.297Z</time></trkpt><trkpt lat="46.2532309" lon="13.4140953"><ele>619.3333333333334</ele><time>2026-04-24T11:01:37.296Z</time></trkpt><trkpt lat="46.2533172" lon="13.4141207"><ele>620.6666666666666</ele><time>2026-04-24T11:01:38.296Z</time></trkpt><trkpt lat="46.2533937" lon="13.41415"><ele>622.0</ele><time>2026-04-24T11:01:39.297Z</time></trkpt><trkpt lat="46.2534588" lon="13.4141863"><ele>623.3333333333333</ele><time>2026-04-24T11:01:40.297Z</time></trkpt><trkpt lat="46.253478" lon="13.4143485"><ele>624.6666666666666</ele><time>2026-04-24T11:01:42.297Z</time></trkpt><trkpt lat="46.2534513" lon="13.4144386"><ele>626.0</ele><time>2026-04-24T11:01:43.296Z</time></trkpt><trkpt lat="46.2534048" lon="13.4145294"><ele>626.0</ele><time>2026-04-24T11:01:44.296Z</time></trkpt><trkpt lat="46.2533508" lon="13.41462"><ele>626.0</ele><time>2026-04-24T11:01:45.298Z</time></trkpt><trkpt lat="46.2532691" lon="13.4147029"><ele>626.0</ele><time>2026-04-24T11:01:46.297Z</time></trkpt><trkpt lat="46.2531871" lon="13.4147815"><ele>626.0</ele><time>2026-04-24T11:01:47.297Z</time></trkpt><trkpt lat="46.2531056" lon="13.414849"><ele>626.0</ele><time>2026-04-24T11:01:48.297Z</time></trkpt><trkpt lat="46.2530265" lon="13.4149131"><ele>624.0</ele><time>2026-04-24T11:01:49.296Z</time></trkpt><trkpt lat="46.252949" lon="13.414973"><ele>622.0</ele><time>2026-04-24T11:01:50.297Z</time></trkpt><trkpt lat="46.2528824" lon="13.4150401"><ele>620.0</ele><time>2026-04-24T11:01:51.296Z</time></trkpt><trkpt lat="46.2528367" lon="13.4151219"><ele>618.0</ele><time>2026-04-24T11:01:52.298Z</time></trkpt><trkpt lat="46.2528009" lon="13.4152173"><ele>616.0</ele><time>2026-04-24T11:01:53.296Z</time></trkpt><trkpt lat="46.2527666" lon="13.4153173"><ele>614.0</ele><time>2026-04-24T11:01:54.297Z</time></trkpt><trkpt lat="46.2527436" lon="13.4154188"><ele>614.8333333333333</ele><time>2026-04-24T11:01:55.296Z</time></trkpt><trkpt lat="46.2527297" lon="13.4155177"><ele>615.6666666666666</ele><time>2026-04-24T11:01:56.297Z</time></trkpt><trkpt lat="46.2527281" lon="13.4156234"><ele>616.5</ele><time>2026-04-24T11:01:57.296Z</time></trkpt><trkpt lat="46.2527371" lon="13.4157419"><ele>617.3333333333334</ele><time>2026-04-24T11:01:58.298Z</time></trkpt><trkpt lat="46.2527539" lon="13.4158653"><ele>618.1666666666667</ele><time>2026-04-24T11:01:59.296Z</time></trkpt><trkpt lat="46.2527664" lon="13.4159792"><ele>619.0</ele><time>2026-04-24T11:02:00.298Z</time></trkpt><trkpt lat="46.252787" lon="13.4160975"><ele>619.0</ele><time>2026-04-24T11:02:01.297Z</time></trkpt><trkpt lat="46.2528155" lon="13.4162138"><ele>619.0</ele><time>2026-04-24T11:02:02.298Z</time></trkpt><trkpt lat="46.2528497" lon="13.4163225"><ele>619.0</ele><time>2026-04-24T11:02:03.297Z</time></trkpt><trkpt lat="46.2528885" lon="13.416426"><ele>619.0</ele><time>2026-04-24T11:02:04.298Z</time></trkpt><trkpt lat="46.2529324" lon="13.4165214"><ele>619.0</ele><time>2026-04-24T11:02:05.296Z</time></trkpt><trkpt lat="46.2529792" lon="13.4166047"><ele>619.0</ele><time>2026-04-24T11:02:06.296Z</time></trkpt><trkpt lat="46.253036" lon="13.4166812"><ele>618.1666666666667</ele><time>2026-04-24T11:02:07.296Z</time></trkpt><trkpt lat="46.2530962" lon="13.4167481"><ele>617.3333333333334</ele><time>2026-04-24T11:02:08.296Z</time></trkpt><trkpt lat="46.2531635" lon="13.4168082"><ele>616.5</ele><time>2026-04-24T11:02:09.296Z</time></trkpt><trkpt lat="46.2532317" lon="13.4168612"><ele>615.6666666666666</ele><time>2026-04-24T11:02:10.297Z</time></trkpt><trkpt lat="46.2533007" lon="13.4169181"><ele>614.8333333333333</ele><time>2026-04-24T11:02:11.297Z</time></trkpt><trkpt lat="46.2533721" lon="13.416975"><ele>614.0</ele><time>2026-04-24T11:02:12.296Z</time></trkpt><trkpt lat="46.2534436" lon="13.4170339"><ele>615.0</ele><time>2026-04-24T11:02:13.297Z</time></trkpt><trkpt lat="46.2535166" lon="13.4170966"><ele>616.0</ele><time>2026-04-24T11:02:14.297Z</time></trkpt><trkpt lat="46.2535891" lon="13.4171585"><ele>617.0</ele><time>2026-04-24T11:02:15.298Z</time></trkpt><trkpt lat="46.2536663" lon="13.4172138"><ele>618.0</ele><time>2026-04-24T11:02:16.297Z</time></trkpt><trkpt lat="46.2537473" lon="13.4172648"><ele>619.0</ele><time>2026-04-24T11:02:17.297Z</time></trkpt><trkpt lat="46.2538295" lon="13.4173105"><ele>620.0</ele><time>2026-04-24T11:02:18.297Z</time></trkpt><trkpt lat="46.2539139" lon="13.4173548"><ele>622.0</ele><time>2026-04-24T11:02:19.296Z</time></trkpt><trkpt lat="46.2539975" lon="13.4173965"><ele>624.0</ele><time>2026-04-24T11:02:20.298Z</time></trkpt><trkpt lat="46.2540866" lon="13.417425"><ele>626.0</ele><time>2026-04-24T11:02:21.296Z</time></trkpt><trkpt lat="46.2541765" lon="13.4174447"><ele>628.0</ele><time>2026-04-24T11:02:22.296Z</time></trkpt><trkpt lat="46.2542663" lon="13.4174591"><ele>630.0</ele><time>2026-04-24T11:02:23.296Z</time></trkpt><trkpt lat="46.2543558" lon="13.4174717"><ele>630.0</ele><time>2026-04-24T11:02:24.297Z</time></trkpt><trkpt lat="46.2544446" lon="13.4174816"><ele>630.0</ele><time>2026-04-24T11:02:25.296Z</time></trkpt><trkpt lat="46.2545336" lon="13.4174911"><ele>630.0</ele><time>2026-04-24T11:02:26.297Z</time></trkpt><trkpt lat="46.2546206" lon="13.4174925"><ele>630.0</ele><time>2026-04-24T11:02:27.295Z</time></trkpt><trkpt lat="46.2547071" lon="13.4174822"><ele>630.0</ele><time>2026-04-24T11:02:28.296Z</time></trkpt><trkpt lat="46.2547953" lon="13.4174545"><ele>630.0</ele><time>2026-04-24T11:02:29.296Z</time></trkpt><trkpt lat="46.254876" lon="13.4174046"><ele>630.0</ele><time>2026-04-24T11:02:30.295Z</time></trkpt><trkpt lat="46.2549569" lon="13.4173392"><ele>630.0</ele><time>2026-04-24T11:02:31.296Z</time></trkpt><trkpt lat="46.2550364" lon="13.4172703"><ele>630.0</ele><time>2026-04-24T11:02:32.296Z</time></trkpt><trkpt lat="46.255117" lon="13.4171884"><ele>630.0</ele><time>2026-04-24T11:02:33.295Z</time></trkpt><trkpt lat="46.2551933" lon="13.4170909"><ele>630.0</ele><time>2026-04-24T11:02:34.297Z</time></trkpt><trkpt lat="46.2552662" lon="13.4169954"><ele>631.5</ele><time>2026-04-24T11:02:35.296Z</time></trkpt><trkpt lat="46.2553309" lon="13.4169086"><ele>633.0</ele><time>2026-04-24T11:02:36.296Z</time></trkpt><trkpt lat="46.2553933" lon="13.4168257"><ele>634.5</ele><time>2026-04-24T11:02:37.296Z</time></trkpt><trkpt lat="46.2554578" lon="13.4167584"><ele>636.0</ele><time>2026-04-24T11:02:38.296Z</time></trkpt><trkpt lat="46.2555263" lon="13.4166957"><ele>637.5</ele><time>2026-04-24T11:02:39.295Z</time></trkpt><trkpt lat="46.2555994" lon="13.416656"><ele>639.0</ele><time>2026-04-24T11:02:40.296Z</time></trkpt><trkpt lat="46.2556681" lon="13.4166554"><ele>639.0</ele><time>2026-04-24T11:02:41.295Z</time></trkpt><trkpt lat="46.2557349" lon="13.4166714"><ele>639.0</ele><time>2026-04-24T11:02:42.297Z</time></trkpt><trkpt lat="46.2557974" lon="13.4167114"><ele>639.0</ele><time>2026-04-24T11:02:43.295Z</time></trkpt><trkpt lat="46.2558669" lon="13.4167814"><ele>639.0</ele><time>2026-04-24T11:02:44.296Z</time></trkpt><trkpt lat="46.255939" lon="13.4168473"><ele>639.0</ele><time>2026-04-24T11:02:45.297Z</time></trkpt><trkpt lat="46.2560272" lon="13.4168781"><ele>639.0</ele><time>2026-04-24T11:02:46.295Z</time></trkpt><trkpt lat="46.2561302" lon="13.4169074"><ele>639.0</ele><time>2026-04-24T11:02:47.296Z</time></trkpt><trkpt lat="46.2562378" lon="13.4169435"><ele>639.0</ele><time>2026-04-24T11:02:48.295Z</time></trkpt><trkpt lat="46.2563413" lon="13.4169847"><ele>639.0</ele><time>2026-04-24T11:02:49.297Z</time></trkpt><trkpt lat="46.2564354" lon="13.4170238"><ele>639.0</ele><time>2026-04-24T11:02:50.296Z</time></trkpt><trkpt lat="46.2565289" lon="13.4170523"><ele>639.0</ele><time>2026-04-24T11:02:51.295Z</time></trkpt><trkpt lat="46.2566303" lon="13.4170482"><ele>639.8</ele><time>2026-04-24T11:02:52.297Z</time></trkpt><trkpt lat="46.2567334" lon="13.4170462"><ele>640.5999999999999</ele><time>2026-04-24T11:02:53.297Z</time></trkpt><trkpt lat="46.2568371" lon="13.4170443"><ele>641.4</ele><time>2026-04-24T11:02:54.296Z</time></trkpt><trkpt lat="46.2569454" lon="13.4170323"><ele>642.1999999999999</ele><time>2026-04-24T11:02:55.297Z</time></trkpt><trkpt lat="46.2570546" lon="13.4170198"><ele>643.0</ele><time>2026-04-24T11:02:56.295Z</time></trkpt><trkpt lat="46.2571657" lon="13.4170219"><ele>643.0</ele><time>2026-04-24T11:02:57.297Z</time></trkpt><trkpt lat="46.25728" lon="13.4170347"><ele>643.0</ele><time>2026-04-24T11:02:58.295Z</time></trkpt><trkpt lat="46.257397" lon="13.417062"><ele>643.0</ele><time>2026-04-24T11:02:59.296Z</time></trkpt><trkpt lat="46.257514" lon="13.4170887"><ele>643.0</ele><time>2026-04-24T11:03:00.296Z</time></trkpt><trkpt lat="46.2576198" lon="13.4171115"><ele>643.2</ele><time>2026-04-24T11:03:01.295Z</time></trkpt><trkpt lat="46.2577203" lon="13.4171235"><ele>643.4</ele><time>2026-04-24T11:03:02.296Z</time></trkpt><trkpt lat="46.2578181" lon="13.417122"><ele>643.6</ele><time>2026-04-24T11:03:03.295Z</time></trkpt><trkpt lat="46.2579146" lon="13.4171067"><ele>643.8000000000001</ele><time>2026-04-24T11:03:04.297Z</time></trkpt><trkpt lat="46.2580124" lon="13.4170874"><ele>644.0</ele><time>2026-04-24T11:03:05.297Z</time></trkpt><trkpt lat="46.2581081" lon="13.417068"><ele>642.4000000000001</ele><time>2026-04-24T11:03:06.295Z</time></trkpt><trkpt lat="46.2582108" lon="13.4170448"><ele>640.8000000000001</ele><time>2026-04-24T11:03:07.296Z</time></trkpt><trkpt lat="46.2583174" lon="13.4170152"><ele>639.2</ele><time>2026-04-24T11:03:08.296Z</time></trkpt><trkpt lat="46.2584241" lon="13.417021"><ele>637.6</ele><time>2026-04-24T11:03:09.297Z</time></trkpt><trkpt lat="46.2585228" lon="13.4170123"><ele>636.0</ele><time>2026-04-24T11:03:10.295Z</time></trkpt><trkpt lat="46.2586237" lon="13.4170089"><ele>636.0</ele><time>2026-04-24T11:03:11.297Z</time></trkpt><trkpt lat="46.2587254" lon="13.4170063"><ele>636.0</ele><time>2026-04-24T11:03:12.296Z</time></trkpt><trkpt lat="46.2588275" lon="13.4170182"><ele>636.0</ele><time>2026-04-24T11:03:13.297Z</time></trkpt><trkpt lat="46.2589273" lon="13.4170213"><ele>636.0</ele><time>2026-04-24T11:03:14.296Z</time></trkpt><trkpt lat="46.2590292" lon="13.4170247"><ele>636.0</ele><time>2026-04-24T11:03:15.296Z</time></trkpt><trkpt lat="46.2591276" lon="13.4170282"><ele>634.6</ele><time>2026-04-24T11:03:16.296Z</time></trkpt><trkpt lat="46.2592208" lon="13.4170336"><ele>633.2</ele><time>2026-04-24T11:03:17.295Z</time></trkpt><trkpt lat="46.2593142" lon="13.4170576"><ele>631.8</ele><time>2026-04-24T11:03:18.296Z</time></trkpt><trkpt lat="46.2594083" lon="13.4171037"><ele>630.4</ele><time>2026-04-24T11:03:19.295Z</time></trkpt><trkpt lat="46.2594918" lon="13.4171762"><ele>629.0</ele><time>2026-04-24T11:03:20.296Z</time></trkpt><trkpt lat="46.2595706" lon="13.4172673"><ele>627.6</ele><time>2026-04-24T11:03:21.295Z</time></trkpt><trkpt lat="46.2596392" lon="13.417364"><ele>626.2</ele><time>2026-04-24T11:03:22.297Z</time></trkpt><trkpt lat="46.2597033" lon="13.4174722"><ele>624.8000000000001</ele><time>2026-04-24T11:03:23.296Z</time></trkpt><trkpt lat="46.2597641" lon="13.4175822"><ele>623.4</ele><time>2026-04-24T11:03:24.297Z</time></trkpt><trkpt lat="46.2598211" lon="13.4176927"><ele>622.0</ele><time>2026-04-24T11:03:25.295Z</time></trkpt><trkpt lat="46.2598793" lon="13.4178017"><ele>622.0</ele><time>2026-04-24T11:03:26.295Z</time></trkpt><trkpt lat="46.2599365" lon="13.4179193"><ele>622.0</ele><time>2026-04-24T11:03:27.296Z</time></trkpt><trkpt lat="46.259993" lon="13.4180368"><ele>622.0</ele><time>2026-04-24T11:03:28.296Z</time></trkpt><trkpt lat="46.2600516" lon="13.4181579"><ele>622.0</ele><time>2026-04-24T11:03:29.296Z</time></trkpt><trkpt lat="46.2601109" lon="13.4182833"><ele>622.0</ele><time>2026-04-24T11:03:30.295Z</time></trkpt><trkpt lat="46.2601719" lon="13.4184101"><ele>623.0</ele><time>2026-04-24T11:03:31.296Z</time></trkpt><trkpt lat="46.2602369" lon="13.4185327"><ele>624.0</ele><time>2026-04-24T11:03:32.296Z</time></trkpt><trkpt lat="46.2603017" lon="13.4186535"><ele>625.0</ele><time>2026-04-24T11:03:33.295Z</time></trkpt><trkpt lat="46.2603583" lon="13.4187636"><ele>626.0</ele><time>2026-04-24T11:03:34.297Z</time></trkpt><trkpt lat="46.2604056" lon="13.4188574"><ele>627.0</ele><time>2026-04-24T11:03:35.296Z</time></trkpt><trkpt lat="46.2604448" lon="13.4189342"><ele>628.3333333333334</ele><time>2026-04-24T11:03:36.296Z</time></trkpt><trkpt lat="46.2604985" lon="13.4190371"><ele>629.6666666666666</ele><time>2026-04-24T11:03:38.295Z</time></trkpt><trkpt lat="46.2605361" lon="13.4191145"><ele>631.0</ele><time>2026-04-24T11:03:40.295Z</time></trkpt><trkpt lat="46.2605914" lon="13.4192349"><ele>632.3333333333333</ele><time>2026-04-24T11:03:42.296Z</time></trkpt><trkpt lat="46.2606327" lon="13.4193136"><ele>633.6666666666666</ele><time>2026-04-24T11:03:43.297Z</time></trkpt><trkpt lat="46.2606801" lon="13.4194056"><ele>635.0</ele><time>2026-04-24T11:03:44.295Z</time></trkpt><trkpt lat="46.260715" lon="13.4195019"><ele>632.7142857142857</ele><time>2026-04-24T11:03:45.297Z</time></trkpt><trkpt lat="46.26073" lon="13.4195945"><ele>630.4285714285714</ele><time>2026-04-24T11:03:46.297Z</time></trkpt><trkpt lat="46.2607306" lon="13.4196868"><ele>628.1428571428571</ele><time>2026-04-24T11:03:47.295Z</time></trkpt><trkpt lat="46.2607207" lon="13.4197817"><ele>625.8571428571429</ele><time>2026-04-24T11:03:48.297Z</time></trkpt><trkpt lat="46.2607059" lon="13.4198735"><ele>623.5714285714286</ele><time>2026-04-24T11:03:49.295Z</time></trkpt><trkpt lat="46.2606883" lon="13.4199726"><ele>621.2857142857142</ele><time>2026-04-24T11:03:50.296Z</time></trkpt><trkpt lat="46.2606661" lon="13.4200837"><ele>619.0</ele><time>2026-04-24T11:03:51.295Z</time></trkpt><trkpt lat="46.2606401" lon="13.4202021"><ele>622.6</ele><time>2026-04-24T11:03:52.297Z</time></trkpt><trkpt lat="46.2606126" lon="13.4203274"><ele>626.2</ele><time>2026-04-24T11:03:53.297Z</time></trkpt><trkpt lat="46.2605835" lon="13.4204574"><ele>629.8000000000001</ele><time>2026-04-24T11:03:54.295Z</time></trkpt><trkpt lat="46.2605473" lon="13.4205889"><ele>633.4</ele><time>2026-04-24T11:03:55.297Z</time></trkpt><trkpt lat="46.2605053" lon="13.4207174"><ele>637.0</ele><time>2026-04-24T11:03:56.295Z</time></trkpt><trkpt lat="46.2604609" lon="13.420846"><ele>637.0</ele><time>2026-04-24T11:03:57.296Z</time></trkpt><trkpt lat="46.2604167" lon="13.4209754"><ele>637.0</ele><time>2026-04-24T11:03:58.295Z</time></trkpt><trkpt lat="46.2603806" lon="13.4211087"><ele>637.0</ele><time>2026-04-24T11:03:59.296Z</time></trkpt><trkpt lat="46.2603521" lon="13.4212491"><ele>637.0</ele><time>2026-04-24T11:04:00.296Z</time></trkpt><trkpt lat="46.2603248" lon="13.4213875"><ele>637.0</ele><time>2026-04-24T11:04:01.295Z</time></trkpt><trkpt lat="46.2602922" lon="13.421526"><ele>634.0</ele><time>2026-04-24T11:04:02.296Z</time></trkpt><trkpt lat="46.2602558" lon="13.4216572"><ele>631.0</ele><time>2026-04-24T11:04:03.297Z</time></trkpt><trkpt lat="46.2602131" lon="13.4217837"><ele>628.0</ele><time>2026-04-24T11:04:04.296Z</time></trkpt><trkpt lat="46.2601678" lon="13.421908"><ele>625.0</ele><time>2026-04-24T11:04:05.296Z</time></trkpt><trkpt lat="46.2601235" lon="13.4220295"><ele>622.0</ele><time>2026-04-24T11:04:06.296Z</time></trkpt><trkpt lat="46.2600782" lon="13.42215"><ele>619.0</ele><time>2026-04-24T11:04:07.296Z</time></trkpt><trkpt lat="46.2600325" lon="13.4222696"><ele>616.0</ele><time>2026-04-24T11:04:08.295Z</time></trkpt><trkpt lat="46.2599845" lon="13.4223893"><ele>613.0</ele><time>2026-04-24T11:04:09.297Z</time></trkpt><trkpt lat="46.259934" lon="13.4225111"><ele>610.0</ele><time>2026-04-24T11:04:10.296Z</time></trkpt><trkpt lat="46.259881" lon="13.4226348"><ele>607.0</ele><time>2026-04-24T11:04:11.295Z</time></trkpt><trkpt lat="46.259826" lon="13.4227587"><ele>609.6</ele><time>2026-04-24T11:04:12.297Z</time></trkpt><trkpt lat="46.259768" lon="13.4228805"><ele>612.2</ele><time>2026-04-24T11:04:13.296Z</time></trkpt><trkpt lat="46.2597091" lon="13.4230033"><ele>614.8</ele><time>2026-04-24T11:04:14.297Z</time></trkpt><trkpt lat="46.2596477" lon="13.4231304"><ele>617.4</ele><time>2026-04-24T11:04:15.296Z</time></trkpt><trkpt lat="46.259588" lon="13.4232569"><ele>620.0</ele><time>2026-04-24T11:04:16.297Z</time></trkpt><trkpt lat="46.2595221" lon="13.4233837"><ele>620.0</ele><time>2026-04-24T11:04:17.296Z</time></trkpt><trkpt lat="46.2594551" lon="13.4235092"><ele>620.0</ele><time>2026-04-24T11:04:18.296Z</time></trkpt><trkpt lat="46.259382" lon="13.4236362"><ele>620.0</ele><time>2026-04-24T11:04:19.296Z</time></trkpt><trkpt lat="46.2593118" lon="13.4237558"><ele>620.0</ele><time>2026-04-24T11:04:20.295Z</time></trkpt><trkpt lat="46.2592472" lon="13.4238765"><ele>620.0</ele><time>2026-04-24T11:04:21.296Z</time></trkpt><trkpt lat="46.2591841" lon="13.4239952"><ele>622.2</ele><time>2026-04-24T11:04:22.296Z</time></trkpt><trkpt lat="46.2591205" lon="13.424108"><ele>624.4</ele><time>2026-04-24T11:04:23.296Z</time></trkpt><trkpt lat="46.259051" lon="13.4242097"><ele>626.6</ele><time>2026-04-24T11:04:24.296Z</time></trkpt><trkpt lat="46.25898" lon="13.4243062"><ele>628.8</ele><time>2026-04-24T11:04:25.295Z</time></trkpt><trkpt lat="46.2589067" lon="13.4243994"><ele>631.0</ele><time>2026-04-24T11:04:26.297Z</time></trkpt><trkpt lat="46.2588343" lon="13.4244937"><ele>631.0</ele><time>2026-04-24T11:04:27.297Z</time></trkpt><trkpt lat="46.2587636" lon="13.424591"><ele>631.0</ele><time>2026-04-24T11:04:28.296Z</time></trkpt><trkpt lat="46.2586936" lon="13.4246848"><ele>631.0</ele><time>2026-04-24T11:04:29.296Z</time></trkpt><trkpt lat="46.2586211" lon="13.4247822"><ele>631.0</ele><time>2026-04-24T11:04:30.296Z</time></trkpt><trkpt lat="46.2585498" lon="13.4248803"><ele>631.0</ele><time>2026-04-24T11:04:31.296Z</time></trkpt><trkpt lat="46.2584763" lon="13.4249753"><ele>629.8</ele><time>2026-04-24T11:04:32.296Z</time></trkpt><trkpt lat="46.2583986" lon="13.4250654"><ele>628.6</ele><time>2026-04-24T11:04:33.296Z</time></trkpt><trkpt lat="46.2583204" lon="13.4251538"><ele>627.4</ele><time>2026-04-24T11:04:34.297Z</time></trkpt><trkpt lat="46.2582416" lon="13.4252453"><ele>626.2</ele><time>2026-04-24T11:04:35.295Z</time></trkpt><trkpt lat="46.2581588" lon="13.4253338"><ele>625.0</ele><time>2026-04-24T11:04:36.296Z</time></trkpt><trkpt lat="46.2580757" lon="13.4254182"><ele>619.6</ele><time>2026-04-24T11:04:37.296Z</time></trkpt><trkpt lat="46.2579976" lon="13.425505"><ele>614.2</ele><time>2026-04-24T11:04:38.296Z</time></trkpt><trkpt lat="46.2579167" lon="13.4255935"><ele>608.8</ele><time>2026-04-24T11:04:39.296Z</time></trkpt><trkpt lat="46.2578413" lon="13.4257025"><ele>603.4</ele><time>2026-04-24T11:04:40.295Z</time></trkpt><trkpt lat="46.257766" lon="13.425813"><ele>598.0</ele><time>2026-04-24T11:04:41.297Z</time></trkpt><trkpt lat="46.2577028" lon="13.4259345"><ele>598.0</ele><time>2026-04-24T11:04:42.296Z</time></trkpt><trkpt lat="46.257626" lon="13.4260327"><ele>598.0</ele><time>2026-04-24T11:04:43.297Z</time></trkpt><trkpt lat="46.2575476" lon="13.426124"><ele>598.0</ele><time>2026-04-24T11:04:44.297Z</time></trkpt><trkpt lat="46.2574632" lon="13.4262101"><ele>598.0</ele><time>2026-04-24T11:04:45.296Z</time></trkpt><trkpt lat="46.2573725" lon="13.4263011"><ele>598.0</ele><time>2026-04-24T11:04:46.296Z</time></trkpt><trkpt lat="46.257291" lon="13.426376"><ele>597.2857142857142</ele><time>2026-04-24T11:04:47.296Z</time></trkpt><trkpt lat="46.2572228" lon="13.4264309"><ele>596.5714285714286</ele><time>2026-04-24T11:04:48.297Z</time></trkpt><trkpt lat="46.2571681" lon="13.4264762"><ele>595.8571428571429</ele><time>2026-04-24T11:04:49.296Z</time></trkpt><trkpt lat="46.2571283" lon="13.4265835"><ele>595.1428571428571</ele><time>2026-04-24T11:04:51.295Z</time></trkpt><trkpt lat="46.257212" lon="13.4266126"><ele>594.4285714285714</ele><time>2026-04-24T11:04:53.296Z</time></trkpt><trkpt lat="46.2572678" lon="13.4265612"><ele>593.7142857142857</ele><time>2026-04-24T11:04:54.295Z</time></trkpt><trkpt lat="46.2573257" lon="13.4265166"><ele>593.0</ele><time>2026-04-24T11:04:55.296Z</time></trkpt><trkpt lat="46.2573887" lon="13.4264725"><ele>593.8333333333333</ele><time>2026-04-24T11:04:56.295Z</time></trkpt><trkpt lat="46.2574573" lon="13.4264327"><ele>594.6666666666666</ele><time>2026-04-24T11:04:57.295Z</time></trkpt><trkpt lat="46.2575301" lon="13.4263946"><ele>595.5</ele><time>2026-04-24T11:04:58.297Z</time></trkpt><trkpt lat="46.2576067" lon="13.4263702"><ele>596.3333333333334</ele><time>2026-04-24T11:04:59.295Z</time></trkpt><trkpt lat="46.2576888" lon="13.4263501"><ele>597.1666666666667</ele><time>2026-04-24T11:05:00.297Z</time></trkpt><trkpt lat="46.2577719" lon="13.426323"><ele>598.0</ele><time>2026-04-24T11:05:01.295Z</time></trkpt><trkpt lat="46.2578543" lon="13.4262952"><ele>598.0</ele><time>2026-04-24T11:05:02.296Z</time></trkpt><trkpt lat="46.2579386" lon="13.4262672"><ele>598.0</ele><time>2026-04-24T11:05:03.296Z</time></trkpt><trkpt lat="46.2580214" lon="13.4262409"><ele>598.0</ele><time>2026-04-24T11:05:04.297Z</time></trkpt><trkpt lat="46.258106" lon="13.4262151"><ele>598.0</ele><time>2026-04-24T11:05:05.297Z</time></trkpt><trkpt lat="46.2581899" lon="13.4261896"><ele>598.0</ele><time>2026-04-24T11:05:06.295Z</time></trkpt><trkpt lat="46.2582766" lon="13.4261615"><ele>598.0</ele><time>2026-04-24T11:05:07.295Z</time></trkpt><trkpt lat="46.2583574" lon="13.4261316"><ele>593.8333333333334</ele><time>2026-04-24T11:05:08.296Z</time></trkpt><trkpt lat="46.258435" lon="13.4261051"><ele>589.6666666666667</ele><time>2026-04-24T11:05:09.295Z</time></trkpt><trkpt lat="46.2585142" lon="13.4260755"><ele>585.5</ele><time>2026-04-24T11:05:10.295Z</time></trkpt><trkpt lat="46.258589" lon="13.4260488"><ele>581.3333333333334</ele><time>2026-04-24T11:05:11.295Z</time></trkpt><trkpt lat="46.2586688" lon="13.4260261"><ele>577.1666666666666</ele><time>2026-04-24T11:05:12.296Z</time></trkpt><trkpt lat="46.2587491" lon="13.426006"><ele>573.0</ele><time>2026-04-24T11:05:13.294Z</time></trkpt><trkpt lat="46.2588274" lon="13.4259908"><ele>573.0</ele><time>2026-04-24T11:05:14.294Z</time></trkpt><trkpt lat="46.2589032" lon="13.4259719"><ele>573.0</ele><time>2026-04-24T11:05:15.296Z</time></trkpt><trkpt lat="46.2589793" lon="13.4259509"><ele>573.0</ele><time>2026-04-24T11:05:16.295Z</time></trkpt><trkpt lat="46.259059" lon="13.4259324"><ele>573.0</ele><time>2026-04-24T11:05:17.295Z</time></trkpt><trkpt lat="46.2591402" lon="13.4259121"><ele>573.0</ele><time>2026-04-24T11:05:18.296Z</time></trkpt><trkpt lat="46.2592239" lon="13.4258909"><ele>573.0</ele><time>2026-04-24T11:05:19.294Z</time></trkpt><trkpt lat="46.2593105" lon="13.4258715"><ele>571.1666666666666</ele><time>2026-04-24T11:05:20.295Z</time></trkpt><trkpt lat="46.259399" lon="13.4258511"><ele>569.3333333333334</ele><time>2026-04-24T11:05:21.295Z</time></trkpt><trkpt lat="46.2594886" lon="13.4258378"><ele>567.5</ele><time>2026-04-24T11:05:22.296Z</time></trkpt><trkpt lat="46.2595774" lon="13.4258223"><ele>565.6666666666667</ele><time>2026-04-24T11:05:23.295Z</time></trkpt><trkpt lat="46.2596683" lon="13.4258073"><ele>563.8333333333334</ele><time>2026-04-24T11:05:24.296Z</time></trkpt><trkpt lat="46.2597561" lon="13.4257917"><ele>562.0</ele><time>2026-04-24T11:05:25.295Z</time></trkpt><trkpt lat="46.2598445" lon="13.4257739"><ele>560.6666666666667</ele><time>2026-04-24T11:05:26.294Z</time></trkpt><trkpt lat="46.2599354" lon="13.4257555"><ele>559.3333333333334</ele><time>2026-04-24T11:05:27.295Z</time></trkpt><trkpt lat="46.2600225" lon="13.425733"><ele>558.0</ele><time>2026-04-24T11:05:28.296Z</time></trkpt><trkpt lat="46.2601078" lon="13.4257104"><ele>556.6666666666666</ele><time>2026-04-24T11:05:29.295Z</time></trkpt><trkpt lat="46.2601923" lon="13.4256909"><ele>555.3333333333333</ele><time>2026-04-24T11:05:30.296Z</time></trkpt><trkpt lat="46.260274" lon="13.4256708"><ele>554.0</ele><time>2026-04-24T11:05:31.294Z</time></trkpt><trkpt lat="46.2603575" lon="13.4256475"><ele>554.0</ele><time>2026-04-24T11:05:32.295Z</time></trkpt><trkpt lat="46.2604346" lon="13.4256267"><ele>554.0</ele><time>2026-04-24T11:05:33.296Z</time></trkpt><trkpt lat="46.2605115" lon="13.4256114"><ele>554.0</ele><time>2026-04-24T11:05:34.296Z</time></trkpt><trkpt lat="46.2605848" lon="13.4255939"><ele>554.0</ele><time>2026-04-24T11:05:35.294Z</time></trkpt><trkpt lat="46.2606565" lon="13.4255795"><ele>554.0</ele><time>2026-04-24T11:05:36.294Z</time></trkpt><trkpt lat="46.2607298" lon="13.4255658"><ele>554.0</ele><time>2026-04-24T11:05:37.296Z</time></trkpt><trkpt lat="46.260801" lon="13.4255643"><ele>554.0</ele><time>2026-04-24T11:05:38.295Z</time></trkpt><trkpt lat="46.2608741" lon="13.4255805"><ele>554.1666666666666</ele><time>2026-04-24T11:05:39.295Z</time></trkpt><trkpt lat="46.2609515" lon="13.4256132"><ele>554.3333333333333</ele><time>2026-04-24T11:05:40.295Z</time></trkpt><trkpt lat="46.2610241" lon="13.4256515"><ele>554.5</ele><time>2026-04-24T11:05:41.294Z</time></trkpt><trkpt lat="46.2611025" lon="13.42568"><ele>554.6666666666666</ele><time>2026-04-24T11:05:42.294Z</time></trkpt><trkpt lat="46.2611818" lon="13.4256968"><ele>554.8333333333334</ele><time>2026-04-24T11:05:43.296Z</time></trkpt><trkpt lat="46.2612625" lon="13.4257108"><ele>555.0</ele><time>2026-04-24T11:05:44.294Z</time></trkpt><trkpt lat="46.2613459" lon="13.4257254"><ele>555.0</ele><time>2026-04-24T11:05:45.294Z</time></trkpt><trkpt lat="46.2614311" lon="13.4257402"><ele>555.0</ele><time>2026-04-24T11:05:46.295Z</time></trkpt><trkpt lat="46.2615174" lon="13.4257578"><ele>555.0</ele><time>2026-04-24T11:05:47.294Z</time></trkpt><trkpt lat="46.2616046" lon="13.4257713"><ele>555.0</ele><time>2026-04-24T11:05:48.294Z</time></trkpt><trkpt lat="46.2616911" lon="13.4257907"><ele>555.0</ele><time>2026-04-24T11:05:49.296Z</time></trkpt><trkpt lat="46.261775" lon="13.4258112"><ele>555.0</ele><time>2026-04-24T11:05:50.295Z</time></trkpt><trkpt lat="46.261859" lon="13.425827"><ele>555.0</ele><time>2026-04-24T11:05:51.295Z</time></trkpt><trkpt lat="46.2619427" lon="13.4258495"><ele>555.0</ele><time>2026-04-24T11:05:52.295Z</time></trkpt><trkpt lat="46.2620334" lon="13.4258814"><ele>555.0</ele><time>2026-04-24T11:05:53.295Z</time></trkpt><trkpt lat="46.262122" lon="13.4259131"><ele>555.0</ele><time>2026-04-24T11:05:54.295Z</time></trkpt><trkpt lat="46.2622097" lon="13.4259373"><ele>555.0</ele><time>2026-04-24T11:05:55.295Z</time></trkpt><trkpt lat="46.2623006" lon="13.4259592"><ele>555.0</ele><time>2026-04-24T11:05:56.294Z</time></trkpt><trkpt lat="46.2623941" lon="13.4259756"><ele>555.0</ele><time>2026-04-24T11:05:57.296Z</time></trkpt><trkpt lat="46.2624886" lon="13.4259905"><ele>555.0</ele><time>2026-04-24T11:05:58.295Z</time></trkpt><trkpt lat="46.262584" lon="13.4260046"><ele>555.0</ele><time>2026-04-24T11:05:59.294Z</time></trkpt><trkpt lat="46.2626751" lon="13.4260219"><ele>555.0</ele><time>2026-04-24T11:06:00.295Z</time></trkpt><trkpt lat="46.262761" lon="13.426047"><ele>555.0</ele><time>2026-04-24T11:06:01.294Z</time></trkpt><trkpt lat="46.2628378" lon="13.4260887"><ele>555.0</ele><time>2026-04-24T11:06:02.296Z</time></trkpt><trkpt lat="46.262898" lon="13.4261414"><ele>555.0</ele><time>2026-04-24T11:06:03.296Z</time></trkpt><trkpt lat="46.2629432" lon="13.4262099"><ele>555.0</ele><time>2026-04-24T11:06:04.294Z</time></trkpt><trkpt lat="46.2629565" lon="13.4263603"><ele>555.0</ele><time>2026-04-24T11:06:06.296Z</time></trkpt><trkpt lat="46.2629459" lon="13.4264599"><ele>555.0</ele><time>2026-04-24T11:06:07.294Z</time></trkpt><trkpt lat="46.2629349" lon="13.4265746"><ele>554.3333333333334</ele><time>2026-04-24T11:06:08.296Z</time></trkpt><trkpt lat="46.2629262" lon="13.4266921"><ele>553.6666666666666</ele><time>2026-04-24T11:06:09.295Z</time></trkpt><trkpt lat="46.262928" lon="13.4268075"><ele>553.0</ele><time>2026-04-24T11:06:10.295Z</time></trkpt><trkpt lat="46.2629371" lon="13.4269312"><ele>552.3333333333333</ele><time>2026-04-24T11:06:11.295Z</time></trkpt><trkpt lat="46.2629451" lon="13.4270571"><ele>551.6666666666666</ele><time>2026-04-24T11:06:12.294Z</time></trkpt><trkpt lat="46.2629438" lon="13.4271921"><ele>551.0</ele><time>2026-04-24T11:06:13.295Z</time></trkpt><trkpt lat="46.2629199" lon="13.4273286"><ele>550.8</ele><time>2026-04-24T11:06:14.295Z</time></trkpt><trkpt lat="46.2628848" lon="13.4274728"><ele>550.6</ele><time>2026-04-24T11:06:15.295Z</time></trkpt><trkpt lat="46.2628361" lon="13.4276202"><ele>550.4</ele><time>2026-04-24T11:06:16.296Z</time></trkpt><trkpt lat="46.262784" lon="13.4277589"><ele>550.2</ele><time>2026-04-24T11:06:17.295Z</time></trkpt><trkpt lat="46.2627289" lon="13.427899"><ele>550.0</ele><time>2026-04-24T11:06:18.295Z</time></trkpt><trkpt lat="46.2626689" lon="13.4280425"><ele>550.0</ele><time>2026-04-24T11:06:19.295Z</time></trkpt><trkpt lat="46.2626073" lon="13.4281842"><ele>550.0</ele><time>2026-04-24T11:06:20.295Z</time></trkpt><trkpt lat="46.2625373" lon="13.4283259"><ele>550.0</ele><time>2026-04-24T11:06:21.294Z</time></trkpt><trkpt lat="46.262457" lon="13.4284558"><ele>550.0</ele><time>2026-04-24T11:06:22.295Z</time></trkpt><trkpt lat="46.2623684" lon="13.4285791"><ele>549.0</ele><time>2026-04-24T11:06:23.295Z</time></trkpt><trkpt lat="46.2622765" lon="13.4287017"><ele>548.0</ele><time>2026-04-24T11:06:24.295Z</time></trkpt><trkpt lat="46.2621845" lon="13.4288261"><ele>547.0</ele><time>2026-04-24T11:06:25.296Z</time></trkpt><trkpt lat="46.2621009" lon="13.4289521"><ele>546.0</ele><time>2026-04-24T11:06:26.295Z</time></trkpt><trkpt lat="46.2620238" lon="13.4290878"><ele>546.0</ele><time>2026-04-24T11:06:27.295Z</time></trkpt><trkpt lat="46.2619532" lon="13.4292282"><ele>546.0</ele><time>2026-04-24T11:06:28.295Z</time></trkpt><trkpt lat="46.2618871" lon="13.4293724"><ele>546.0</ele><time>2026-04-24T11:06:29.295Z</time></trkpt><trkpt lat="46.2618265" lon="13.4295285"><ele>546.0</ele><time>2026-04-24T11:06:30.294Z</time></trkpt><trkpt lat="46.2617726" lon="13.4296868"><ele>546.5</ele><time>2026-04-24T11:06:31.296Z</time></trkpt><trkpt lat="46.2617157" lon="13.4298502"><ele>547.0</ele><time>2026-04-24T11:06:32.295Z</time></trkpt><trkpt lat="46.2616586" lon="13.4300169"><ele>547.5</ele><time>2026-04-24T11:06:33.296Z</time></trkpt><trkpt lat="46.2616017" lon="13.4301825"><ele>548.0</ele><time>2026-04-24T11:06:34.295Z</time></trkpt><trkpt lat="46.2615451" lon="13.4303452"><ele>547.25</ele><time>2026-04-24T11:06:35.295Z</time></trkpt><trkpt lat="46.2614943" lon="13.4305098"><ele>546.5</ele><time>2026-04-24T11:06:36.294Z</time></trkpt><trkpt lat="46.2614428" lon="13.4306757"><ele>545.75</ele><time>2026-04-24T11:06:37.295Z</time></trkpt><trkpt lat="46.2613965" lon="13.4308434"><ele>545.0</ele><time>2026-04-24T11:06:38.296Z</time></trkpt><trkpt lat="46.2613533" lon="13.4310156"><ele>545.0</ele><time>2026-04-24T11:06:39.294Z</time></trkpt><trkpt lat="46.2613128" lon="13.4311914"><ele>545.0</ele><time>2026-04-24T11:06:40.295Z</time></trkpt><trkpt lat="46.2612696" lon="13.4313661"><ele>545.0</ele><time>2026-04-24T11:06:41.296Z</time></trkpt><trkpt lat="46.2612268" lon="13.4315467"><ele>545.0</ele><time>2026-04-24T11:06:42.294Z</time></trkpt><trkpt lat="46.261184" lon="13.4317322"><ele>546.0</ele><time>2026-04-24T11:06:43.295Z</time></trkpt><trkpt lat="46.2611448" lon="13.4319193"><ele>547.0</ele><time>2026-04-24T11:06:44.295Z</time></trkpt><trkpt lat="46.2611065" lon="13.4321062"><ele>548.0</ele><time>2026-04-24T11:06:45.296Z</time></trkpt><trkpt lat="46.2610711" lon="13.4322859"><ele>549.0</ele><time>2026-04-24T11:06:46.294Z</time></trkpt><trkpt lat="46.2610384" lon="13.4324616"><ele>549.0</ele><time>2026-04-24T11:06:47.294Z</time></trkpt><trkpt lat="46.2610034" lon="13.4326337"><ele>549.0</ele><time>2026-04-24T11:06:48.295Z</time></trkpt><trkpt lat="46.2609643" lon="13.4328031"><ele>549.0</ele><time>2026-04-24T11:06:49.295Z</time></trkpt><trkpt lat="46.2609114" lon="13.4329614"><ele>549.0</ele><time>2026-04-24T11:06:50.294Z</time></trkpt><trkpt lat="46.2608374" lon="13.4331061"><ele>549.2</ele><time>2026-04-24T11:06:51.295Z</time></trkpt><trkpt lat="46.2607657" lon="13.433242"><ele>549.4</ele><time>2026-04-24T11:06:52.295Z</time></trkpt><trkpt lat="46.2607044" lon="13.4333876"><ele>549.6</ele><time>2026-04-24T11:06:53.294Z</time></trkpt><trkpt lat="46.2606512" lon="13.4335249"><ele>549.8</ele><time>2026-04-24T11:06:54.295Z</time></trkpt><trkpt lat="46.2605793" lon="13.433632"><ele>550.0</ele><time>2026-04-24T11:06:55.294Z</time></trkpt><trkpt lat="46.2605022" lon="13.4337042"><ele>549.2</ele><time>2026-04-24T11:06:56.295Z</time></trkpt><trkpt lat="46.2604106" lon="13.4337248"><ele>548.4</ele><time>2026-04-24T11:06:57.294Z</time></trkpt><trkpt lat="46.2603017" lon="13.4337008"><ele>547.6</ele><time>2026-04-24T11:06:58.295Z</time></trkpt><trkpt lat="46.260186" lon="13.4336745"><ele>546.8</ele><time>2026-04-24T11:06:59.295Z</time></trkpt><trkpt lat="46.2600697" lon="13.4336389"><ele>546.0</ele><time>2026-04-24T11:07:00.296Z</time></trkpt><trkpt lat="46.2599602" lon="13.4336063"><ele>546.0</ele><time>2026-04-24T11:07:01.295Z</time></trkpt><trkpt lat="46.2598544" lon="13.4335906"><ele>546.0</ele><time>2026-04-24T11:07:02.294Z</time></trkpt><trkpt lat="46.2597487" lon="13.4335891"><ele>546.0</ele><time>2026-04-24T11:07:03.295Z</time></trkpt><trkpt lat="46.2596451" lon="13.4336236"><ele>546.0</ele><time>2026-04-24T11:07:04.295Z</time></trkpt><trkpt lat="46.2595478" lon="13.4336939"><ele>546.0</ele><time>2026-04-24T11:07:05.295Z</time></trkpt><trkpt lat="46.2594551" lon="13.4337848"><ele>544.75</ele><time>2026-04-24T11:07:06.294Z</time></trkpt><trkpt lat="46.2593639" lon="13.4338993"><ele>543.5</ele><time>2026-04-24T11:07:07.296Z</time></trkpt><trkpt lat="46.2592626" lon="13.434021"><ele>542.25</ele><time>2026-04-24T11:07:08.294Z</time></trkpt><trkpt lat="46.2591606" lon="13.4341509"><ele>541.0</ele><time>2026-04-24T11:07:09.296Z</time></trkpt><trkpt lat="46.2590588" lon="13.4342887"><ele>541.0</ele><time>2026-04-24T11:07:10.295Z</time></trkpt><trkpt lat="46.2589596" lon="13.4344167"><ele>541.0</ele><time>2026-04-24T11:07:11.295Z</time></trkpt><trkpt lat="46.2588663" lon="13.4345368"><ele>541.0</ele><time>2026-04-24T11:07:12.295Z</time></trkpt><trkpt lat="46.2587787" lon="13.4346537"><ele>541.0</ele><time>2026-04-24T11:07:13.295Z</time></trkpt><trkpt lat="46.2586877" lon="13.434775"><ele>537.5</ele><time>2026-04-24T11:07:14.295Z</time></trkpt><trkpt lat="46.2585985" lon="13.4349011"><ele>534.0</ele><time>2026-04-24T11:07:15.295Z</time></trkpt><trkpt lat="46.2585139" lon="13.4350387"><ele>530.5</ele><time>2026-04-24T11:07:16.294Z</time></trkpt><trkpt lat="46.2584442" lon="13.4351727"><ele>527.0</ele><time>2026-04-24T11:07:17.296Z</time></trkpt><trkpt lat="46.2583958" lon="13.4353156"><ele>527.25</ele><time>2026-04-24T11:07:18.295Z</time></trkpt><trkpt lat="46.2583741" lon="13.4354755"><ele>527.5</ele><time>2026-04-24T11:07:19.296Z</time></trkpt><trkpt lat="46.2583784" lon="13.4356522"><ele>527.75</ele><time>2026-04-24T11:07:20.294Z</time></trkpt><trkpt lat="46.2584013" lon="13.4358371"><ele>528.0</ele><time>2026-04-24T11:07:21.294Z</time></trkpt><trkpt lat="46.2584243" lon="13.4360208"><ele>528.0</ele><time>2026-04-24T11:07:22.294Z</time></trkpt><trkpt lat="46.258437" lon="13.4362129"><ele>528.0</ele><time>2026-04-24T11:07:23.295Z</time></trkpt><trkpt lat="46.2584364" lon="13.4364171"><ele>528.0</ele><time>2026-04-24T11:07:24.294Z</time></trkpt><trkpt lat="46.2584317" lon="13.4366196"><ele>528.0</ele><time>2026-04-24T11:07:25.295Z</time></trkpt><trkpt lat="46.2584354" lon="13.4368227"><ele>529.75</ele><time>2026-04-24T11:07:26.295Z</time></trkpt><trkpt lat="46.2584319" lon="13.4370123"><ele>531.5</ele><time>2026-04-24T11:07:27.295Z</time></trkpt><trkpt lat="46.2584134" lon="13.4371792"><ele>533.25</ele><time>2026-04-24T11:07:28.296Z</time></trkpt><trkpt lat="46.2583697" lon="13.4373129"><ele>535.0</ele><time>2026-04-24T11:07:29.296Z</time></trkpt><trkpt lat="46.258301" lon="13.4374196"><ele>537.25</ele><time>2026-04-24T11:07:30.295Z</time></trkpt><trkpt lat="46.2582079" lon="13.4374914"><ele>539.5</ele><time>2026-04-24T11:07:31.294Z</time></trkpt><trkpt lat="46.2580998" lon="13.4375555"><ele>541.75</ele><time>2026-04-24T11:07:32.295Z</time></trkpt><trkpt lat="46.2579891" lon="13.4376175"><ele>544.0</ele><time>2026-04-24T11:07:33.296Z</time></trkpt><trkpt lat="46.2578784" lon="13.4376836"><ele>543.0</ele><time>2026-04-24T11:07:34.295Z</time></trkpt><trkpt lat="46.2577696" lon="13.4377663"><ele>542.0</ele><time>2026-04-24T11:07:35.295Z</time></trkpt><trkpt lat="46.2576641" lon="13.4378635"><ele>541.0</ele><time>2026-04-24T11:07:36.294Z</time></trkpt><trkpt lat="46.2575728" lon="13.4379955"><ele>540.0</ele><time>2026-04-24T11:07:37.294Z</time></trkpt><trkpt lat="46.2574747" lon="13.4381228"><ele>540.0</ele><time>2026-04-24T11:07:38.295Z</time></trkpt><trkpt lat="46.2573795" lon="13.4382429"><ele>540.0</ele><time>2026-04-24T11:07:39.294Z</time></trkpt><trkpt lat="46.2572894" lon="13.4383633"><ele>540.0</ele><time>2026-04-24T11:07:40.295Z</time></trkpt><trkpt lat="46.2572164" lon="13.4385175"><ele>540.0</ele><time>2026-04-24T11:07:41.294Z</time></trkpt><trkpt lat="46.2571503" lon="13.4386763"><ele>536.25</ele><time>2026-04-24T11:07:42.294Z</time></trkpt><trkpt lat="46.2570648" lon="13.4388372"><ele>532.5</ele><time>2026-04-24T11:07:43.293Z</time></trkpt><trkpt lat="46.2569647" lon="13.4389792"><ele>528.75</ele><time>2026-04-24T11:07:44.294Z</time></trkpt><trkpt lat="46.256875" lon="13.4391308"><ele>525.0</ele><time>2026-04-24T11:07:45.293Z</time></trkpt><trkpt lat="46.2567916" lon="13.4392899"><ele>525.0</ele><time>2026-04-24T11:07:46.294Z</time></trkpt><trkpt lat="46.2567225" lon="13.4394577"><ele>525.0</ele><time>2026-04-24T11:07:47.295Z</time></trkpt><trkpt lat="46.2566689" lon="13.439615"><ele>525.0</ele><time>2026-04-24T11:07:48.295Z</time></trkpt><trkpt lat="46.256608" lon="13.439748"><ele>525.0</ele><time>2026-04-24T11:07:49.294Z</time></trkpt><trkpt lat="46.2565232" lon="13.4398302"><ele>527.25</ele><time>2026-04-24T11:07:50.293Z</time></trkpt><trkpt lat="46.2564173" lon="13.4398681"><ele>529.5</ele><time>2026-04-24T11:07:51.294Z</time></trkpt><trkpt lat="46.2562987" lon="13.4398811"><ele>531.75</ele><time>2026-04-24T11:07:52.293Z</time></trkpt><trkpt lat="46.2561739" lon="13.4398722"><ele>534.0</ele><time>2026-04-24T11:07:53.294Z</time></trkpt><trkpt lat="46.2560521" lon="13.4398488"><ele>534.0</ele><time>2026-04-24T11:07:54.294Z</time></trkpt><trkpt lat="46.2559271" lon="13.4397951"><ele>534.0</ele><time>2026-04-24T11:07:55.294Z</time></trkpt><trkpt lat="46.2558079" lon="13.4397165"><ele>534.0</ele><time>2026-04-24T11:07:56.294Z</time></trkpt><trkpt lat="46.2556917" lon="13.4396388"><ele>534.0</ele><time>2026-04-24T11:07:57.294Z</time></trkpt><trkpt lat="46.2555866" lon="13.4395599"><ele>529.4</ele><time>2026-04-24T11:07:58.293Z</time></trkpt><trkpt lat="46.2554812" lon="13.4394947"><ele>524.8</ele><time>2026-04-24T11:07:59.294Z</time></trkpt><trkpt lat="46.2553868" lon="13.4394466"><ele>520.2</ele><time>2026-04-24T11:08:00.294Z</time></trkpt><trkpt lat="46.2552887" lon="13.4394357"><ele>515.6</ele><time>2026-04-24T11:08:01.293Z</time></trkpt><trkpt lat="46.2551875" lon="13.4394336"><ele>511.0</ele><time>2026-04-24T11:08:02.294Z</time></trkpt><trkpt lat="46.2550722" lon="13.4395462"><ele>511.0</ele><time>2026-04-24T11:08:03.293Z</time></trkpt><trkpt lat="46.2549639" lon="13.4395535"><ele>511.0</ele><time>2026-04-24T11:08:04.294Z</time></trkpt><trkpt lat="46.2548543" lon="13.4395462"><ele>511.0</ele><time>2026-04-24T11:08:05.293Z</time></trkpt><trkpt lat="46.2547402" lon="13.4395315"><ele>511.0</ele><time>2026-04-24T11:08:06.294Z</time></trkpt><trkpt lat="46.2546358" lon="13.4394741"><ele>511.0</ele><time>2026-04-24T11:08:07.293Z</time></trkpt><trkpt lat="46.2545299" lon="13.4394421"><ele>510.6</ele><time>2026-04-24T11:08:08.295Z</time></trkpt><trkpt lat="46.254426" lon="13.4393969"><ele>510.20000000000005</ele><time>2026-04-24T11:08:09.294Z</time></trkpt><trkpt lat="46.2543249" lon="13.4393604"><ele>509.79999999999995</ele><time>2026-04-24T11:08:10.295Z</time></trkpt><trkpt lat="46.254234" lon="13.439342"><ele>509.4</ele><time>2026-04-24T11:08:11.293Z</time></trkpt><trkpt lat="46.2541443" lon="13.4393473"><ele>509.0</ele><time>2026-04-24T11:08:12.294Z</time></trkpt><trkpt lat="46.2540657" lon="13.4393921"><ele>509.0</ele><time>2026-04-24T11:08:13.294Z</time></trkpt><trkpt lat="46.2540038" lon="13.4394652"><ele>509.0</ele><time>2026-04-24T11:08:14.294Z</time></trkpt><trkpt lat="46.2539684" lon="13.4395669"><ele>509.0</ele><time>2026-04-24T11:08:15.294Z</time></trkpt><trkpt lat="46.2539512" lon="13.4397099"><ele>509.0</ele><time>2026-04-24T11:08:16.294Z</time></trkpt><trkpt lat="46.2539493" lon="13.4398783"><ele>509.0</ele><time>2026-04-24T11:08:17.294Z</time></trkpt><trkpt lat="46.2539578" lon="13.4400452"><ele>510.25</ele><time>2026-04-24T11:08:18.294Z</time></trkpt><trkpt lat="46.2539718" lon="13.4402219"><ele>511.5</ele><time>2026-04-24T11:08:19.293Z</time></trkpt><trkpt lat="46.2539882" lon="13.4404078"><ele>512.75</ele><time>2026-04-24T11:08:20.295Z</time></trkpt><trkpt lat="46.2540095" lon="13.4405956"><ele>514.0</ele><time>2026-04-24T11:08:21.293Z</time></trkpt><trkpt lat="46.2540305" lon="13.440797"><ele>514.0</ele><time>2026-04-24T11:08:22.294Z</time></trkpt><trkpt lat="46.2540542" lon="13.4409903"><ele>514.0</ele><time>2026-04-24T11:08:23.294Z</time></trkpt><trkpt lat="46.254088" lon="13.4411893"><ele>514.0</ele><time>2026-04-24T11:08:24.295Z</time></trkpt><trkpt lat="46.254134" lon="13.4413818"><ele>514.0</ele><time>2026-04-24T11:08:25.293Z</time></trkpt><trkpt lat="46.2541815" lon="13.4415705"><ele>512.5</ele><time>2026-04-24T11:08:26.293Z</time></trkpt><trkpt lat="46.2542322" lon="13.441754"><ele>511.0</ele><time>2026-04-24T11:08:27.294Z</time></trkpt><trkpt lat="46.254278" lon="13.4419279"><ele>509.5</ele><time>2026-04-24T11:08:28.294Z</time></trkpt><trkpt lat="46.2543316" lon="13.4420884"><ele>508.0</ele><time>2026-04-24T11:08:29.294Z</time></trkpt><trkpt lat="46.2543937" lon="13.4422277"><ele>506.79999999999995</ele><time>2026-04-24T11:08:30.294Z</time></trkpt><trkpt lat="46.2544646" lon="13.442352"><ele>505.59999999999997</ele><time>2026-04-24T11:08:31.294Z</time></trkpt><trkpt lat="46.2545455" lon="13.4424463"><ele>504.40000000000003</ele><time>2026-04-24T11:08:32.293Z</time></trkpt><trkpt lat="46.2546409" lon="13.4425007"><ele>503.20000000000005</ele><time>2026-04-24T11:08:33.295Z</time></trkpt><trkpt lat="46.254736" lon="13.4425413"><ele>502.0</ele><time>2026-04-24T11:08:34.294Z</time></trkpt><trkpt lat="46.2548245" lon="13.4425894"><ele>503.8</ele><time>2026-04-24T11:08:35.294Z</time></trkpt><trkpt lat="46.2548914" lon="13.44267"><ele>505.6</ele><time>2026-04-24T11:08:36.294Z</time></trkpt><trkpt lat="46.2549235" lon="13.4427795"><ele>507.40000000000003</ele><time>2026-04-24T11:08:37.294Z</time></trkpt><trkpt lat="46.2549254" lon="13.4429067"><ele>509.20000000000005</ele><time>2026-04-24T11:08:38.294Z</time></trkpt><trkpt lat="46.2548923" lon="13.4430359"><ele>511.0</ele><time>2026-04-24T11:08:39.294Z</time></trkpt><trkpt lat="46.2548459" lon="13.4431809"><ele>511.0</ele><time>2026-04-24T11:08:40.295Z</time></trkpt><trkpt lat="46.2548054" lon="13.4433259"><ele>511.0</ele><time>2026-04-24T11:08:41.293Z</time></trkpt><trkpt lat="46.254781" lon="13.4434851"><ele>511.0</ele><time>2026-04-24T11:08:42.294Z</time></trkpt><trkpt lat="46.2547607" lon="13.4436554"><ele>511.0</ele><time>2026-04-24T11:08:43.293Z</time></trkpt><trkpt lat="46.2547519" lon="13.4438384"><ele>505.5</ele><time>2026-04-24T11:08:44.295Z</time></trkpt><trkpt lat="46.2547359" lon="13.4440226"><ele>500.0</ele><time>2026-04-24T11:08:45.295Z</time></trkpt><trkpt lat="46.2547217" lon="13.4442097"><ele>494.5</ele><time>2026-04-24T11:08:46.293Z</time></trkpt><trkpt lat="46.2547079" lon="13.4444021"><ele>489.0</ele><time>2026-04-24T11:08:47.294Z</time></trkpt><trkpt lat="46.2546948" lon="13.4445794"><ele>489.2</ele><time>2026-04-24T11:08:48.293Z</time></trkpt><trkpt lat="46.2546851" lon="13.4447447"><ele>489.4</ele><time>2026-04-24T11:08:49.295Z</time></trkpt><trkpt lat="46.2546912" lon="13.444898"><ele>489.6</ele><time>2026-04-24T11:08:50.294Z</time></trkpt><trkpt lat="46.2547185" lon="13.4450291"><ele>489.8</ele><time>2026-04-24T11:08:51.294Z</time></trkpt><trkpt lat="46.2547652" lon="13.4451394"><ele>490.0</ele><time>2026-04-24T11:08:52.293Z</time></trkpt><trkpt lat="46.2548297" lon="13.4452268"><ele>495.5</ele><time>2026-04-24T11:08:53.295Z</time></trkpt><trkpt lat="46.25494" lon="13.4452615"><ele>501.0</ele><time>2026-04-24T11:08:54.293Z</time></trkpt><trkpt lat="46.2550551" lon="13.4453056"><ele>506.5</ele><time>2026-04-24T11:08:55.295Z</time></trkpt><trkpt lat="46.2551674" lon="13.4453374"><ele>512.0</ele><time>2026-04-24T11:08:56.293Z</time></trkpt><trkpt lat="46.2552829" lon="13.4453774"><ele>512.0</ele><time>2026-04-24T11:08:57.295Z</time></trkpt><trkpt lat="46.2553979" lon="13.445446"><ele>512.0</ele><time>2026-04-24T11:08:58.294Z</time></trkpt><trkpt lat="46.2555089" lon="13.4455417"><ele>512.0</ele><time>2026-04-24T11:08:59.294Z</time></trkpt><trkpt lat="46.2556098" lon="13.4456621"><ele>512.0</ele><time>2026-04-24T11:09:00.294Z</time></trkpt><trkpt lat="46.2556983" lon="13.4457991"><ele>514.8000000000001</ele><time>2026-04-24T11:09:01.295Z</time></trkpt><trkpt lat="46.255772" lon="13.4459294"><ele>517.6</ele><time>2026-04-24T11:09:02.293Z</time></trkpt><trkpt lat="46.2558332" lon="13.4460644"><ele>520.4000000000001</ele><time>2026-04-24T11:09:03.294Z</time></trkpt><trkpt lat="46.2558691" lon="13.4462017"><ele>523.2</ele><time>2026-04-24T11:09:04.293Z</time></trkpt><trkpt lat="46.2558705" lon="13.446328"><ele>526.0</ele><time>2026-04-24T11:09:05.295Z</time></trkpt><trkpt lat="46.2558421" lon="13.4464395"><ele>526.2</ele><time>2026-04-24T11:09:06.294Z</time></trkpt><trkpt lat="46.2557838" lon="13.4465295"><ele>526.4000000000001</ele><time>2026-04-24T11:09:07.295Z</time></trkpt><trkpt lat="46.2557038" lon="13.4465716"><ele>526.6</ele><time>2026-04-24T11:09:08.294Z</time></trkpt><trkpt lat="46.2556153" lon="13.4466244"><ele>526.8000000000001</ele><time>2026-04-24T11:09:09.294Z</time></trkpt><trkpt lat="46.2555083" lon="13.4466501"><ele>527.0</ele><time>2026-04-24T11:09:10.294Z</time></trkpt><trkpt lat="46.2554149" lon="13.4467052"><ele>525.4</ele><time>2026-04-24T11:09:11.293Z</time></trkpt><trkpt lat="46.2553238" lon="13.4467774"><ele>523.8000000000001</ele><time>2026-04-24T11:09:12.295Z</time></trkpt><trkpt lat="46.2552446" lon="13.4468816"><ele>522.2</ele><time>2026-04-24T11:09:13.293Z</time></trkpt><trkpt lat="46.2551969" lon="13.4470206"><ele>520.6</ele><time>2026-04-24T11:09:14.295Z</time></trkpt><trkpt lat="46.2551523" lon="13.4471803"><ele>519.0</ele><time>2026-04-24T11:09:15.293Z</time></trkpt><trkpt lat="46.255112" lon="13.4473477"><ele>519.0</ele><time>2026-04-24T11:09:16.295Z</time></trkpt><trkpt lat="46.2550858" lon="13.4475177"><ele>519.0</ele><time>2026-04-24T11:09:17.293Z</time></trkpt><trkpt lat="46.2550847" lon="13.4476901"><ele>519.0</ele><time>2026-04-24T11:09:18.294Z</time></trkpt><trkpt lat="46.2550831" lon="13.4478554"><ele>519.0</ele><time>2026-04-24T11:09:19.294Z</time></trkpt><trkpt lat="46.2550609" lon="13.4480138"><ele>520.5</ele><time>2026-04-24T11:09:20.295Z</time></trkpt><trkpt lat="46.2550052" lon="13.4481629"><ele>522.0</ele><time>2026-04-24T11:09:21.294Z</time></trkpt><trkpt lat="46.2549365" lon="13.4482931"><ele>523.5</ele><time>2026-04-24T11:09:22.294Z</time></trkpt><trkpt lat="46.254877" lon="13.4484306"><ele>525.0</ele><time>2026-04-24T11:09:23.294Z</time></trkpt><trkpt lat="46.2548355" lon="13.448581"><ele>525.0</ele><time>2026-04-24T11:09:24.294Z</time></trkpt><trkpt lat="46.2547939" lon="13.4487266"><ele>525.0</ele><time>2026-04-24T11:09:25.293Z</time></trkpt><trkpt lat="46.2547335" lon="13.4488349"><ele>525.0</ele><time>2026-04-24T11:09:26.294Z</time></trkpt><trkpt lat="46.2546612" lon="13.4488945"><ele>525.0</ele><time>2026-04-24T11:09:27.295Z</time></trkpt><trkpt lat="46.2545801" lon="13.4489122"><ele>525.0</ele><time>2026-04-24T11:09:28.293Z</time></trkpt><trkpt lat="46.2544984" lon="13.4488756"><ele>523.6</ele><time>2026-04-24T11:09:29.295Z</time></trkpt><trkpt lat="46.2544104" lon="13.4488022"><ele>522.2</ele><time>2026-04-24T11:09:30.293Z</time></trkpt><trkpt lat="46.2543196" lon="13.4487358"><ele>520.8</ele><time>2026-04-24T11:09:31.293Z</time></trkpt><trkpt lat="46.2542273" lon="13.4486694"><ele>519.4</ele><time>2026-04-24T11:09:32.294Z</time></trkpt><trkpt lat="46.25413" lon="13.4486123"><ele>518.0</ele><time>2026-04-24T11:09:33.293Z</time></trkpt><trkpt lat="46.254047" lon="13.4485617"><ele>516.5</ele><time>2026-04-24T11:09:34.294Z</time></trkpt><trkpt lat="46.2539781" lon="13.448557"><ele>515.0</ele><time>2026-04-24T11:09:35.293Z</time></trkpt><trkpt lat="46.2539193" lon="13.4485991"><ele>513.5</ele><time>2026-04-24T11:09:36.295Z</time></trkpt><trkpt lat="46.2538778" lon="13.4486748"><ele>512.0</ele><time>2026-04-24T11:09:37.294Z</time></trkpt><trkpt lat="46.2538602" lon="13.4487787"><ele>510.49999999999994</ele><time>2026-04-24T11:09:38.293Z</time></trkpt><trkpt lat="46.2538557" lon="13.448915"><ele>509.0</ele><time>2026-04-24T11:09:39.295Z</time></trkpt><trkpt lat="46.2538493" lon="13.4490672"><ele>506.6</ele><time>2026-04-24T11:09:40.293Z</time></trkpt><trkpt lat="46.2538397" lon="13.4492243"><ele>504.2</ele><time>2026-04-24T11:09:41.294Z</time></trkpt><trkpt lat="46.2538237" lon="13.4493838"><ele>501.80000000000007</ele><time>2026-04-24T11:09:42.293Z</time></trkpt><trkpt lat="46.2538062" lon="13.4495448"><ele>499.40000000000003</ele><time>2026-04-24T11:09:43.294Z</time></trkpt><trkpt lat="46.2537903" lon="13.4497024"><ele>497.0</ele><time>2026-04-24T11:09:44.295Z</time></trkpt><trkpt lat="46.2537748" lon="13.4498613"><ele>496.8</ele><time>2026-04-24T11:09:45.293Z</time></trkpt><trkpt lat="46.2537661" lon="13.4500216"><ele>496.6</ele><time>2026-04-24T11:09:46.294Z</time></trkpt><trkpt lat="46.2537636" lon="13.4501699"><ele>496.40000000000003</ele><time>2026-04-24T11:09:47.293Z</time></trkpt><trkpt lat="46.2537722" lon="13.4503066"><ele>496.20000000000005</ele><time>2026-04-24T11:09:48.294Z</time></trkpt><trkpt lat="46.253802" lon="13.4504266"><ele>496.0</ele><time>2026-04-24T11:09:49.295Z</time></trkpt><trkpt lat="46.2538409" lon="13.450524"><ele>495.8</ele><time>2026-04-24T11:09:50.293Z</time></trkpt><trkpt lat="46.2539042" lon="13.4505934"><ele>495.6</ele><time>2026-04-24T11:09:51.293Z</time></trkpt><trkpt lat="46.2539692" lon="13.4506707"><ele>495.4</ele><time>2026-04-24T11:09:52.293Z</time></trkpt><trkpt lat="46.2540683" lon="13.450751"><ele>495.2</ele><time>2026-04-24T11:09:53.294Z</time></trkpt><trkpt lat="46.2541538" lon="13.450848"><ele>495.0</ele><time>2026-04-24T11:09:54.294Z</time></trkpt><trkpt lat="46.254225" lon="13.4509307"><ele>497.5</ele><time>2026-04-24T11:09:55.295Z</time></trkpt><trkpt lat="46.2543214" lon="13.4510218"><ele>500.0</ele><time>2026-04-24T11:09:56.293Z</time></trkpt><trkpt lat="46.2544239" lon="13.4511029"><ele>502.5</ele><time>2026-04-24T11:09:57.293Z</time></trkpt><trkpt lat="46.2545343" lon="13.4511544"><ele>505.0</ele><time>2026-04-24T11:09:58.294Z</time></trkpt><trkpt lat="46.2546389" lon="13.4512283"><ele>508.0</ele><time>2026-04-24T11:09:59.295Z</time></trkpt><trkpt lat="46.2547312" lon="13.4513019"><ele>511.0</ele><time>2026-04-24T11:10:00.293Z</time></trkpt><trkpt lat="46.2548002" lon="13.451466"><ele>514.0</ele><time>2026-04-24T11:10:01.293Z</time></trkpt><trkpt lat="46.2548753" lon="13.4515812"><ele>517.0</ele><time>2026-04-24T11:10:02.295Z</time></trkpt><trkpt lat="46.254943" lon="13.4517073"><ele>517.0</ele><time>2026-04-24T11:10:03.294Z</time></trkpt><trkpt lat="46.2549756" lon="13.4518658"><ele>517.0</ele><time>2026-04-24T11:10:04.294Z</time></trkpt><trkpt lat="46.2550165" lon="13.452014"><ele>517.0</ele><time>2026-04-24T11:10:05.294Z</time></trkpt><trkpt lat="46.2549153" lon="13.4521468"><ele>517.0</ele><time>2026-04-24T11:10:06.294Z</time></trkpt><trkpt lat="46.2548409" lon="13.4522689"><ele>514.2</ele><time>2026-04-24T11:10:07.293Z</time></trkpt><trkpt lat="46.254776" lon="13.4523853"><ele>511.40000000000003</ele><time>2026-04-24T11:10:08.293Z</time></trkpt><trkpt lat="46.2547077" lon="13.4524954"><ele>508.59999999999997</ele><time>2026-04-24T11:10:09.294Z</time></trkpt><trkpt lat="46.2547344" lon="13.452682"><ele>505.79999999999995</ele><time>2026-04-24T11:10:10.294Z</time></trkpt><trkpt lat="46.2547536" lon="13.4528291"><ele>503.0</ele><time>2026-04-24T11:10:11.294Z</time></trkpt><trkpt lat="46.2547957" lon="13.4529594"><ele>503.0</ele><time>2026-04-24T11:10:12.294Z</time></trkpt><trkpt lat="46.2548426" lon="13.4530888"><ele>502.99999999999994</ele><time>2026-04-24T11:10:13.294Z</time></trkpt><trkpt lat="46.2548965" lon="13.4531942"><ele>502.99999999999994</ele><time>2026-04-24T11:10:14.293Z</time></trkpt><trkpt lat="46.2549777" lon="13.4532936"><ele>503.0</ele><time>2026-04-24T11:10:15.294Z</time></trkpt><trkpt lat="46.2551097" lon="13.453283"><ele>503.0</ele><time>2026-04-24T11:10:16.294Z</time></trkpt><trkpt lat="46.2552163" lon="13.4533594"><ele>503.0</ele><time>2026-04-24T11:10:17.293Z</time></trkpt><trkpt lat="46.2552992" lon="13.4535215"><ele>503.0</ele><time>2026-04-24T11:10:18.294Z</time></trkpt><trkpt lat="46.255385" lon="13.4536524"><ele>503.0</ele><time>2026-04-24T11:10:19.294Z</time></trkpt><trkpt lat="46.2554642" lon="13.4537861"><ele>503.0</ele><time>2026-04-24T11:10:20.294Z</time></trkpt><trkpt lat="46.2555326" lon="13.4539228"><ele>507.0</ele><time>2026-04-24T11:10:21.294Z</time></trkpt><trkpt lat="46.255598" lon="13.4540616"><ele>511.0</ele><time>2026-04-24T11:10:22.294Z</time></trkpt><trkpt lat="46.2556631" lon="13.4542108"><ele>515.0</ele><time>2026-04-24T11:10:23.294Z</time></trkpt><trkpt lat="46.2557092" lon="13.4543771"><ele>519.0</ele><time>2026-04-24T11:10:24.294Z</time></trkpt><trkpt lat="46.2557472" lon="13.4545547"><ele>517.5</ele><time>2026-04-24T11:10:25.292Z</time></trkpt><trkpt lat="46.2557749" lon="13.4547378"><ele>516.0</ele><time>2026-04-24T11:10:26.294Z</time></trkpt><trkpt lat="46.2558023" lon="13.4549228"><ele>514.5</ele><time>2026-04-24T11:10:27.293Z</time></trkpt><trkpt lat="46.2558185" lon="13.4551099"><ele>513.0</ele><time>2026-04-24T11:10:28.293Z</time></trkpt><trkpt lat="46.2558153" lon="13.4552881"><ele>513.0</ele><time>2026-04-24T11:10:29.294Z</time></trkpt><trkpt lat="46.2557861" lon="13.4554494"><ele>513.0</ele><time>2026-04-24T11:10:30.292Z</time></trkpt><trkpt lat="46.2557356" lon="13.4555822"><ele>513.0</ele><time>2026-04-24T11:10:31.293Z</time></trkpt><trkpt lat="46.2556836" lon="13.4556955"><ele>513.0</ele><time>2026-04-24T11:10:32.292Z</time></trkpt><trkpt lat="46.2555809" lon="13.4557073"><ele>513.0</ele><time>2026-04-24T11:10:33.293Z</time></trkpt><trkpt lat="46.2554823" lon="13.4556921"><ele>514.6</ele><time>2026-04-24T11:10:34.292Z</time></trkpt><trkpt lat="46.2553785" lon="13.4556599"><ele>516.1999999999999</ele><time>2026-04-24T11:10:35.294Z</time></trkpt><trkpt lat="46.2552706" lon="13.4556104"><ele>517.8</ele><time>2026-04-24T11:10:36.292Z</time></trkpt><trkpt lat="46.25516" lon="13.4555637"><ele>519.4</ele><time>2026-04-24T11:10:37.293Z</time></trkpt><trkpt lat="46.2550552" lon="13.4555244"><ele>521.0</ele><time>2026-04-24T11:10:38.294Z</time></trkpt><trkpt lat="46.2549442" lon="13.4555034"><ele>521.0</ele><time>2026-04-24T11:10:39.293Z</time></trkpt><trkpt lat="46.2548283" lon="13.4554813"><ele>521.0</ele><time>2026-04-24T11:10:40.294Z</time></trkpt><trkpt lat="46.2547079" lon="13.4554804"><ele>521.0</ele><time>2026-04-24T11:10:41.293Z</time></trkpt><trkpt lat="46.2545905" lon="13.4555096"><ele>521.0</ele><time>2026-04-24T11:10:42.293Z</time></trkpt><trkpt lat="46.2544952" lon="13.4555654"><ele>518.0</ele><time>2026-04-24T11:10:43.294Z</time></trkpt><trkpt lat="46.2543849" lon="13.4556712"><ele>515.0</ele><time>2026-04-24T11:10:44.292Z</time></trkpt><trkpt lat="46.2542882" lon="13.4558229"><ele>512.0</ele><time>2026-04-24T11:10:45.294Z</time></trkpt><trkpt lat="46.2541779" lon="13.4558704"><ele>509.0</ele><time>2026-04-24T11:10:46.292Z</time></trkpt><trkpt lat="46.254067" lon="13.4559313"><ele>509.0</ele><time>2026-04-24T11:10:47.294Z</time></trkpt><trkpt lat="46.2539669" lon="13.4559421"><ele>509.0</ele><time>2026-04-24T11:10:48.293Z</time></trkpt><trkpt lat="46.253881" lon="13.4559932"><ele>509.0</ele><time>2026-04-24T11:10:49.292Z</time></trkpt><trkpt lat="46.253816" lon="13.456082"><ele>509.0</ele><time>2026-04-24T11:10:50.293Z</time></trkpt><trkpt lat="46.2537669" lon="13.456197"><ele>509.0</ele><time>2026-04-24T11:10:51.293Z</time></trkpt><trkpt lat="46.2537404" lon="13.4563435"><ele>505.75</ele><time>2026-04-24T11:10:52.293Z</time></trkpt><trkpt lat="46.2537288" lon="13.4565115"><ele>502.5</ele><time>2026-04-24T11:10:53.293Z</time></trkpt><trkpt lat="46.2537244" lon="13.4566881"><ele>499.25</ele><time>2026-04-24T11:10:54.294Z</time></trkpt><trkpt lat="46.2537198" lon="13.4568724"><ele>496.0</ele><time>2026-04-24T11:10:55.293Z</time></trkpt><trkpt lat="46.2537066" lon="13.4570605"><ele>495.75</ele><time>2026-04-24T11:10:56.293Z</time></trkpt><trkpt lat="46.2537039" lon="13.4572549"><ele>495.5</ele><time>2026-04-24T11:10:57.292Z</time></trkpt><trkpt lat="46.253708" lon="13.4574489"><ele>495.25</ele><time>2026-04-24T11:10:58.294Z</time></trkpt><trkpt lat="46.2537173" lon="13.4576519"><ele>495.0</ele><time>2026-04-24T11:10:59.293Z</time></trkpt><trkpt lat="46.2537308" lon="13.4578548"><ele>494.0</ele><time>2026-04-24T11:11:00.293Z</time></trkpt><trkpt lat="46.2537524" lon="13.4580556"><ele>493.0</ele><time>2026-04-24T11:11:01.293Z</time></trkpt><trkpt lat="46.2537827" lon="13.4582604"><ele>492.0</ele><time>2026-04-24T11:11:02.293Z</time></trkpt><trkpt lat="46.2538134" lon="13.4584656"><ele>491.0</ele><time>2026-04-24T11:11:03.294Z</time></trkpt><trkpt lat="46.2538459" lon="13.4586692"><ele>487.75</ele><time>2026-04-24T11:11:04.294Z</time></trkpt><trkpt lat="46.2538783" lon="13.4588689"><ele>484.5</ele><time>2026-04-24T11:11:05.293Z</time></trkpt><trkpt lat="46.2539185" lon="13.4590557"><ele>481.25</ele><time>2026-04-24T11:11:06.292Z</time></trkpt><trkpt lat="46.2539618" lon="13.459232"><ele>478.0</ele><time>2026-04-24T11:11:07.293Z</time></trkpt><trkpt lat="46.254012" lon="13.4593932"><ele>481.25</ele><time>2026-04-24T11:11:08.292Z</time></trkpt><trkpt lat="46.2540743" lon="13.459539"><ele>484.5</ele><time>2026-04-24T11:11:09.294Z</time></trkpt><trkpt lat="46.2541425" lon="13.4596769"><ele>487.75</ele><time>2026-04-24T11:11:10.293Z</time></trkpt><trkpt lat="46.2542151" lon="13.4597995"><ele>491.0</ele><time>2026-04-24T11:11:11.292Z</time></trkpt><trkpt lat="46.2543009" lon="13.4599087"><ele>491.0</ele><time>2026-04-24T11:11:12.292Z</time></trkpt><trkpt lat="46.2543976" lon="13.4600097"><ele>491.0</ele><time>2026-04-24T11:11:13.293Z</time></trkpt><trkpt lat="46.2545042" lon="13.460093"><ele>491.0</ele><time>2026-04-24T11:11:14.293Z</time></trkpt><trkpt lat="46.254613" lon="13.4601668"><ele>491.0</ele><time>2026-04-24T11:11:15.292Z</time></trkpt><trkpt lat="46.2547073" lon="13.4602576"><ele>491.0</ele><time>2026-04-24T11:11:16.294Z</time></trkpt><trkpt lat="46.2547876" lon="13.4603533"><ele>491.0</ele><time>2026-04-24T11:11:17.292Z</time></trkpt><trkpt lat="46.2548056" lon="13.4605137"><ele>491.0</ele><time>2026-04-24T11:11:18.293Z</time></trkpt><trkpt lat="46.2548119" lon="13.4606722"><ele>491.0</ele><time>2026-04-24T11:11:19.293Z</time></trkpt><trkpt lat="46.2548138" lon="13.4608423"><ele>491.0</ele><time>2026-04-24T11:11:20.293Z</time></trkpt><trkpt lat="46.2548221" lon="13.4610081"><ele>492.0</ele><time>2026-04-24T11:11:21.294Z</time></trkpt><trkpt lat="46.2548368" lon="13.4611614"><ele>493.0</ele><time>2026-04-24T11:11:22.292Z</time></trkpt><trkpt lat="46.2548711" lon="13.4613008"><ele>494.0</ele><time>2026-04-24T11:11:23.293Z</time></trkpt><trkpt lat="46.254925" lon="13.4614336"><ele>495.0</ele><time>2026-04-24T11:11:24.294Z</time></trkpt><trkpt lat="46.2550231" lon="13.4615493"><ele>496.0</ele><time>2026-04-24T11:11:25.293Z</time></trkpt><trkpt lat="46.2551025" lon="13.4616793"><ele>496.0</ele><time>2026-04-24T11:11:26.293Z</time></trkpt><trkpt lat="46.2551862" lon="13.4618348"><ele>496.0</ele><time>2026-04-24T11:11:27.292Z</time></trkpt><trkpt lat="46.2552686" lon="13.4619887"><ele>496.0</ele><time>2026-04-24T11:11:28.293Z</time></trkpt><trkpt lat="46.2553114" lon="13.4621865"><ele>496.0</ele><time>2026-04-24T11:11:29.293Z</time></trkpt><trkpt lat="46.2553478" lon="13.4623634"><ele>494.75</ele><time>2026-04-24T11:11:30.292Z</time></trkpt><trkpt lat="46.255386" lon="13.4625519"><ele>493.5</ele><time>2026-04-24T11:11:31.292Z</time></trkpt><trkpt lat="46.2553905" lon="13.462746"><ele>492.25</ele><time>2026-04-24T11:11:32.293Z</time></trkpt><trkpt lat="46.255309" lon="13.4629186"><ele>491.0</ele><time>2026-04-24T11:11:33.292Z</time></trkpt><trkpt lat="46.2552472" lon="13.4630808"><ele>491.0</ele><time>2026-04-24T11:11:34.292Z</time></trkpt><trkpt lat="46.2551605" lon="13.4632165"><ele>491.0</ele><time>2026-04-24T11:11:35.292Z</time></trkpt><trkpt lat="46.2550716" lon="13.4633374"><ele>491.0</ele><time>2026-04-24T11:11:36.294Z</time></trkpt><trkpt lat="46.2550077" lon="13.4634654"><ele>491.0</ele><time>2026-04-24T11:11:37.294Z</time></trkpt><trkpt lat="46.2549668" lon="13.4636132"><ele>491.0</ele><time>2026-04-24T11:11:38.293Z</time></trkpt><trkpt lat="46.254932" lon="13.4637632"><ele>491.0</ele><time>2026-04-24T11:11:39.294Z</time></trkpt><trkpt lat="46.2548892" lon="13.4639101"><ele>491.0</ele><time>2026-04-24T11:11:40.293Z</time></trkpt><trkpt lat="46.2548307" lon="13.4640444"><ele>491.0</ele><time>2026-04-24T11:11:41.293Z</time></trkpt><trkpt lat="46.2547635" lon="13.4641628"><ele>491.0</ele><time>2026-04-24T11:11:42.293Z</time></trkpt><trkpt lat="46.2546926" lon="13.4642732"><ele>486.6</ele><time>2026-04-24T11:11:43.293Z</time></trkpt><trkpt lat="46.2546364" lon="13.4643933"><ele>482.20000000000005</ele><time>2026-04-24T11:11:44.293Z</time></trkpt><trkpt lat="46.2546012" lon="13.4645206"><ele>477.79999999999995</ele><time>2026-04-24T11:11:45.294Z</time></trkpt><trkpt lat="46.2545883" lon="13.4646628"><ele>473.4</ele><time>2026-04-24T11:11:46.293Z</time></trkpt><trkpt lat="46.2546029" lon="13.4648005"><ele>469.0</ele><time>2026-04-24T11:11:47.294Z</time></trkpt><trkpt lat="46.2546398" lon="13.4649286"><ele>467.2</ele><time>2026-04-24T11:11:48.293Z</time></trkpt><trkpt lat="46.2546931" lon="13.4650436"><ele>465.4</ele><time>2026-04-24T11:11:49.294Z</time></trkpt><trkpt lat="46.2547626" lon="13.465136"><ele>463.6</ele><time>2026-04-24T11:11:50.292Z</time></trkpt><trkpt lat="46.2548432" lon="13.4651922"><ele>461.8</ele><time>2026-04-24T11:11:51.292Z</time></trkpt><trkpt lat="46.2549401" lon="13.4652095"><ele>460.0</ele><time>2026-04-24T11:11:52.293Z</time></trkpt><trkpt lat="46.2550389" lon="13.4651815"><ele>465.0</ele><time>2026-04-24T11:11:53.293Z</time></trkpt><trkpt lat="46.2551384" lon="13.4651527"><ele>470.0</ele><time>2026-04-24T11:11:54.293Z</time></trkpt><trkpt lat="46.2552327" lon="13.4651354"><ele>475.0</ele><time>2026-04-24T11:11:55.294Z</time></trkpt><trkpt lat="46.2553156" lon="13.4651091"><ele>480.0</ele><time>2026-04-24T11:11:56.293Z</time></trkpt><trkpt lat="46.2554092" lon="13.4651135"><ele>485.0</ele><time>2026-04-24T11:11:57.293Z</time></trkpt><trkpt lat="46.2555175" lon="13.4652385"><ele>485.0</ele><time>2026-04-24T11:11:58.293Z</time></trkpt><trkpt lat="46.2555827" lon="13.4653791"><ele>485.0</ele><time>2026-04-24T11:11:59.293Z</time></trkpt><trkpt lat="46.2556572" lon="13.4654933"><ele>485.0</ele><time>2026-04-24T11:12:00.293Z</time></trkpt><trkpt lat="46.2557428" lon="13.4655658"><ele>485.0</ele><time>2026-04-24T11:12:01.294Z</time></trkpt><trkpt lat="46.2558262" lon="13.4656693"><ele>485.0</ele><time>2026-04-24T11:12:02.294Z</time></trkpt><trkpt lat="46.2558803" lon="13.4657863"><ele>484.6</ele><time>2026-04-24T11:12:03.292Z</time></trkpt><trkpt lat="46.2559237" lon="13.4659168"><ele>484.2</ele><time>2026-04-24T11:12:04.293Z</time></trkpt><trkpt lat="46.2559229" lon="13.4660311"><ele>483.79999999999995</ele><time>2026-04-24T11:12:05.293Z</time></trkpt><trkpt lat="46.2558181" lon="13.4661137"><ele>483.4</ele><time>2026-04-24T11:12:06.293Z</time></trkpt><trkpt lat="46.2557298" lon="13.4661919"><ele>483.0</ele><time>2026-04-24T11:12:07.293Z</time></trkpt><trkpt lat="46.2556594" lon="13.4662735"><ele>477.75</ele><time>2026-04-24T11:12:08.294Z</time></trkpt><trkpt lat="46.2555898" lon="13.4663911"><ele>472.5</ele><time>2026-04-24T11:12:09.294Z</time></trkpt><trkpt lat="46.2555301" lon="13.4665401"><ele>467.25</ele><time>2026-04-24T11:12:10.292Z</time></trkpt><trkpt lat="46.2554829" lon="13.4666881"><ele>462.0</ele><time>2026-04-24T11:12:11.293Z</time></trkpt><trkpt lat="46.2554416" lon="13.4668421"><ele>462.0</ele><time>2026-04-24T11:12:12.293Z</time></trkpt><trkpt lat="46.2553993" lon="13.467004"><ele>462.0</ele><time>2026-04-24T11:12:13.292Z</time></trkpt><trkpt lat="46.2553398" lon="13.4671681"><ele>462.0</ele><time>2026-04-24T11:12:14.293Z</time></trkpt><trkpt lat="46.2552641" lon="13.4673195"><ele>462.0</ele><time>2026-04-24T11:12:15.293Z</time></trkpt><trkpt lat="46.2551811" lon="13.4674405"><ele>463.6</ele><time>2026-04-24T11:12:16.293Z</time></trkpt><trkpt lat="46.2551023" lon="13.4675391"><ele>465.20000000000005</ele><time>2026-04-24T11:12:17.293Z</time></trkpt><trkpt lat="46.2550553" lon="13.4676371"><ele>466.8</ele><time>2026-04-24T11:12:18.293Z</time></trkpt><trkpt lat="46.2550164" lon="13.4677402"><ele>468.4</ele><time>2026-04-24T11:12:19.293Z</time></trkpt><trkpt lat="46.2549984" lon="13.4678639"><ele>470.0</ele><time>2026-04-24T11:12:20.293Z</time></trkpt><trkpt lat="46.2550472" lon="13.4680083"><ele>470.0</ele><time>2026-04-24T11:12:21.293Z</time></trkpt><trkpt lat="46.2551037" lon="13.4681605"><ele>470.0</ele><time>2026-04-24T11:12:22.294Z</time></trkpt><trkpt lat="46.255221" lon="13.4682635"><ele>470.0</ele><time>2026-04-24T11:12:23.293Z</time></trkpt><trkpt lat="46.2552966" lon="13.4683903"><ele>470.0</ele><time>2026-04-24T11:12:24.293Z</time></trkpt><trkpt lat="46.2553536" lon="13.4685263"><ele>470.0</ele><time>2026-04-24T11:12:25.294Z</time></trkpt><trkpt lat="46.255406" lon="13.4686576"><ele>470.0</ele><time>2026-04-24T11:12:26.292Z</time></trkpt><trkpt lat="46.2553709" lon="13.4688235"><ele>470.0</ele><time>2026-04-24T11:12:27.293Z</time></trkpt><trkpt lat="46.2553483" lon="13.4689658"><ele>470.0</ele><time>2026-04-24T11:12:28.293Z</time></trkpt><trkpt lat="46.255323" lon="13.4691085"><ele>470.0</ele><time>2026-04-24T11:12:29.292Z</time></trkpt><trkpt lat="46.2553216" lon="13.4692538"><ele>471.2</ele><time>2026-04-24T11:12:30.293Z</time></trkpt><trkpt lat="46.2553318" lon="13.469397"><ele>472.4</ele><time>2026-04-24T11:12:31.294Z</time></trkpt><trkpt lat="46.2553754" lon="13.4695268"><ele>473.6</ele><time>2026-04-24T11:12:32.294Z</time></trkpt><trkpt lat="46.255436" lon="13.4696392"><ele>474.8</ele><time>2026-04-24T11:12:33.294Z</time></trkpt><trkpt lat="46.2555308" lon="13.4697327"><ele>476.0</ele><time>2026-04-24T11:12:34.293Z</time></trkpt><trkpt lat="46.2556308" lon="13.4698138"><ele>476.0</ele><time>2026-04-24T11:12:35.293Z</time></trkpt><trkpt lat="46.2557284" lon="13.4699038"><ele>476.0</ele><time>2026-04-24T11:12:36.293Z</time></trkpt><trkpt lat="46.2558245" lon="13.4700001"><ele>476.0</ele><time>2026-04-24T11:12:37.292Z</time></trkpt><trkpt lat="46.2559176" lon="13.4701065"><ele>476.0</ele><time>2026-04-24T11:12:38.293Z</time></trkpt><trkpt lat="46.256005" lon="13.4702232"><ele>476.0</ele><time>2026-04-24T11:12:39.294Z</time></trkpt><trkpt lat="46.2560756" lon="13.4703584"><ele>476.0</ele><time>2026-04-24T11:12:40.292Z</time></trkpt><trkpt lat="46.2561316" lon="13.4705011"><ele>476.0</ele><time>2026-04-24T11:12:41.293Z</time></trkpt><trkpt lat="46.2561905" lon="13.4706224"><ele>476.0</ele><time>2026-04-24T11:12:42.293Z</time></trkpt><trkpt lat="46.2562425" lon="13.4707232"><ele>476.0</ele><time>2026-04-24T11:12:43.293Z</time></trkpt><trkpt lat="46.2563022" lon="13.4708157"><ele>475.4</ele><time>2026-04-24T11:12:44.293Z</time></trkpt><trkpt lat="46.2564477" lon="13.4707439"><ele>474.8</ele><time>2026-04-24T11:12:45.293Z</time></trkpt><trkpt lat="46.2565339" lon="13.470746"><ele>474.19999999999993</ele><time>2026-04-24T11:12:46.294Z</time></trkpt><trkpt lat="46.2566318" lon="13.4707313"><ele>473.59999999999997</ele><time>2026-04-24T11:12:47.294Z</time></trkpt><trkpt lat="46.2567236" lon="13.4707298"><ele>473.0</ele><time>2026-04-24T11:12:48.291Z</time></trkpt><trkpt lat="46.2568127" lon="13.4707437"><ele>472.99999999999994</ele><time>2026-04-24T11:12:49.293Z</time></trkpt><trkpt lat="46.2568809" lon="13.4707761"><ele>473.0</ele><time>2026-04-24T11:12:50.292Z</time></trkpt><trkpt lat="46.2569387" lon="13.4708442"><ele>473.0</ele><time>2026-04-24T11:12:51.292Z</time></trkpt><trkpt lat="46.256942" lon="13.4709723"><ele>473.0</ele><time>2026-04-24T11:12:52.292Z</time></trkpt><trkpt lat="46.2569335" lon="13.4711157"><ele>472.99999999999994</ele><time>2026-04-24T11:12:53.293Z</time></trkpt><trkpt lat="46.2569115" lon="13.4712555"><ele>473.0</ele><time>2026-04-24T11:12:54.291Z</time></trkpt><trkpt lat="46.256883" lon="13.4713971"><ele>471.25</ele><time>2026-04-24T11:12:55.291Z</time></trkpt><trkpt lat="46.2568464" lon="13.4715407"><ele>469.5</ele><time>2026-04-24T11:12:56.292Z</time></trkpt><trkpt lat="46.2567967" lon="13.4716907"><ele>467.75</ele><time>2026-04-24T11:12:57.292Z</time></trkpt><trkpt lat="46.256737" lon="13.4718472"><ele>466.0</ele><time>2026-04-24T11:12:58.292Z</time></trkpt><trkpt lat="46.2566751" lon="13.4719927"><ele>467.5</ele><time>2026-04-24T11:12:59.292Z</time></trkpt><trkpt lat="46.2566077" lon="13.4721332"><ele>469.0</ele><time>2026-04-24T11:13:00.292Z</time></trkpt><trkpt lat="46.2565332" lon="13.4722551"><ele>470.5</ele><time>2026-04-24T11:13:01.291Z</time></trkpt><trkpt lat="46.2564468" lon="13.4723728"><ele>472.0</ele><time>2026-04-24T11:13:02.292Z</time></trkpt><trkpt lat="46.2563632" lon="13.472475"><ele>466.20000000000005</ele><time>2026-04-24T11:13:03.293Z</time></trkpt><trkpt lat="46.2562761" lon="13.472585"><ele>460.40000000000003</ele><time>2026-04-24T11:13:04.292Z</time></trkpt><trkpt lat="46.2561973" lon="13.4726952"><ele>454.59999999999997</ele><time>2026-04-24T11:13:05.291Z</time></trkpt><trkpt lat="46.2561419" lon="13.4728148"><ele>448.79999999999995</ele><time>2026-04-24T11:13:06.291Z</time></trkpt><trkpt lat="46.2561198" lon="13.4729757"><ele>443.0</ele><time>2026-04-24T11:13:07.293Z</time></trkpt><trkpt lat="46.2562038" lon="13.4731591"><ele>442.79999999999995</ele><time>2026-04-24T11:13:08.291Z</time></trkpt><trkpt lat="46.2562487" lon="13.473294"><ele>442.59999999999997</ele><time>2026-04-24T11:13:09.292Z</time></trkpt><trkpt lat="46.2563152" lon="13.4734292"><ele>442.40000000000003</ele><time>2026-04-24T11:13:10.292Z</time></trkpt><trkpt lat="46.2563629" lon="13.4735596"><ele>442.20000000000005</ele><time>2026-04-24T11:13:11.292Z</time></trkpt><trkpt lat="46.2563977" lon="13.4737021"><ele>442.0</ele><time>2026-04-24T11:13:12.291Z</time></trkpt><trkpt lat="46.2564126" lon="13.4738463"><ele>441.5</ele><time>2026-04-24T11:13:13.291Z</time></trkpt><trkpt lat="46.2563988" lon="13.4740139"><ele>441.0</ele><time>2026-04-24T11:13:14.292Z</time></trkpt><trkpt lat="46.2562494" lon="13.4740765"><ele>440.5</ele><time>2026-04-24T11:13:15.293Z</time></trkpt><trkpt lat="46.2561938" lon="13.4741781"><ele>440.0</ele><time>2026-04-24T11:13:16.292Z</time></trkpt><trkpt lat="46.2561231" lon="13.4742826"><ele>440.0</ele><time>2026-04-24T11:13:17.292Z</time></trkpt><trkpt lat="46.2560447" lon="13.4743859"><ele>440.0</ele><time>2026-04-24T11:13:18.292Z</time></trkpt><trkpt lat="46.2559784" lon="13.4744884"><ele>440.0</ele><time>2026-04-24T11:13:19.293Z</time></trkpt><trkpt lat="46.2559522" lon="13.474611"><ele>440.0</ele><time>2026-04-24T11:13:20.293Z</time></trkpt><trkpt lat="46.2559309" lon="13.4747396"><ele>440.0</ele><time>2026-04-24T11:13:21.293Z</time></trkpt><trkpt lat="46.2559497" lon="13.4748811"><ele>440.75</ele><time>2026-04-24T11:13:22.291Z</time></trkpt><trkpt lat="46.255997" lon="13.4750206"><ele>441.5</ele><time>2026-04-24T11:13:23.292Z</time></trkpt><trkpt lat="46.2560563" lon="13.4751732"><ele>442.25</ele><time>2026-04-24T11:13:24.291Z</time></trkpt><trkpt lat="46.2561255" lon="13.4753305"><ele>443.0</ele><time>2026-04-24T11:13:25.291Z</time></trkpt><trkpt lat="46.2562064" lon="13.4754891"><ele>441.59999999999997</ele><time>2026-04-24T11:13:26.291Z</time></trkpt><trkpt lat="46.2562823" lon="13.4756447"><ele>440.19999999999993</ele><time>2026-04-24T11:13:27.292Z</time></trkpt><trkpt lat="46.2563507" lon="13.4757805"><ele>438.8</ele><time>2026-04-24T11:13:28.293Z</time></trkpt><trkpt lat="46.2564052" lon="13.4758921"><ele>437.4</ele><time>2026-04-24T11:13:29.292Z</time></trkpt><trkpt lat="46.256443" lon="13.4759883"><ele>436.0</ele><time>2026-04-24T11:13:30.292Z</time></trkpt><trkpt lat="46.2564595" lon="13.4760947"><ele>436.0</ele><time>2026-04-24T11:13:31.291Z</time></trkpt><trkpt lat="46.2563634" lon="13.476255"><ele>436.0</ele><time>2026-04-24T11:13:33.292Z</time></trkpt><trkpt lat="46.2562355" lon="13.4762259"><ele>436.0</ele><time>2026-04-24T11:13:34.292Z</time></trkpt><trkpt lat="46.2561489" lon="13.476241"><ele>436.0</ele><time>2026-04-24T11:13:35.292Z</time></trkpt><trkpt lat="46.2560762" lon="13.4763123"><ele>436.20000000000005</ele><time>2026-04-24T11:13:36.291Z</time></trkpt><trkpt lat="46.2560074" lon="13.4763924"><ele>436.40000000000003</ele><time>2026-04-24T11:13:37.291Z</time></trkpt><trkpt lat="46.2559616" lon="13.4764916"><ele>436.6</ele><time>2026-04-24T11:13:38.292Z</time></trkpt><trkpt lat="46.255967" lon="13.4766842"><ele>436.8</ele><time>2026-04-24T11:13:39.292Z</time></trkpt><trkpt lat="46.2559253" lon="13.4768321"><ele>437.0</ele><time>2026-04-24T11:13:40.292Z</time></trkpt><trkpt lat="46.2558863" lon="13.476988"><ele>437.0</ele><time>2026-04-24T11:13:41.293Z</time></trkpt><trkpt lat="46.2558659" lon="13.4771559"><ele>437.0</ele><time>2026-04-24T11:13:42.292Z</time></trkpt><trkpt lat="46.2558494" lon="13.4773229"><ele>437.0</ele><time>2026-04-24T11:13:43.291Z</time></trkpt><trkpt lat="46.2558444" lon="13.477483"><ele>437.0</ele><time>2026-04-24T11:13:44.292Z</time></trkpt><trkpt lat="46.2558282" lon="13.4776409"><ele>437.0</ele><time>2026-04-24T11:13:45.292Z</time></trkpt><trkpt lat="46.2558526" lon="13.4777847"><ele>437.00000000000006</ele><time>2026-04-24T11:13:46.293Z</time></trkpt><trkpt lat="46.2558571" lon="13.4779331"><ele>437.00000000000006</ele><time>2026-04-24T11:13:47.291Z</time></trkpt><trkpt lat="46.2558694" lon="13.4780819"><ele>437.0</ele><time>2026-04-24T11:13:48.291Z</time></trkpt><trkpt lat="46.2558936" lon="13.4782454"><ele>437.0</ele><time>2026-04-24T11:13:49.293Z</time></trkpt><trkpt lat="46.255925" lon="13.4784107"><ele>436.25</ele><time>2026-04-24T11:13:50.291Z</time></trkpt><trkpt lat="46.2558522" lon="13.4785892"><ele>435.5</ele><time>2026-04-24T11:13:51.291Z</time></trkpt><trkpt lat="46.2558343" lon="13.4787459"><ele>434.75</ele><time>2026-04-24T11:13:52.292Z</time></trkpt><trkpt lat="46.2557944" lon="13.478897"><ele>434.0</ele><time>2026-04-24T11:13:53.293Z</time></trkpt><trkpt lat="46.2557741" lon="13.4790286"><ele>434.0</ele><time>2026-04-24T11:13:54.293Z</time></trkpt><trkpt lat="46.2557798" lon="13.4791633"><ele>434.0</ele><time>2026-04-24T11:13:55.293Z</time></trkpt><trkpt lat="46.2558045" lon="13.4792937"><ele>434.0</ele><time>2026-04-24T11:13:56.291Z</time></trkpt><trkpt lat="46.2558565" lon="13.4794184"><ele>434.0</ele><time>2026-04-24T11:13:57.293Z</time></trkpt><trkpt lat="46.2559031" lon="13.4795504"><ele>434.0</ele><time>2026-04-24T11:13:58.293Z</time></trkpt><trkpt lat="46.2559287" lon="13.4796692"><ele>432.79999999999995</ele><time>2026-04-24T11:13:59.292Z</time></trkpt><trkpt lat="46.2559376" lon="13.4798007"><ele>431.59999999999997</ele><time>2026-04-24T11:14:00.292Z</time></trkpt><trkpt lat="46.2559407" lon="13.4799508"><ele>430.4</ele><time>2026-04-24T11:14:01.293Z</time></trkpt><trkpt lat="46.255932" lon="13.4801077"><ele>429.2</ele><time>2026-04-24T11:14:02.292Z</time></trkpt><trkpt lat="46.2559198" lon="13.4802675"><ele>428.0</ele><time>2026-04-24T11:14:03.291Z</time></trkpt><trkpt lat="46.2559045" lon="13.4804361"><ele>427.25</ele><time>2026-04-24T11:14:04.292Z</time></trkpt><trkpt lat="46.2558879" lon="13.4806143"><ele>426.5</ele><time>2026-04-24T11:14:05.291Z</time></trkpt><trkpt lat="46.2558656" lon="13.4807931"><ele>425.75</ele><time>2026-04-24T11:14:06.292Z</time></trkpt><trkpt lat="46.2558373" lon="13.4809681"><ele>425.0</ele><time>2026-04-24T11:14:07.291Z</time></trkpt><trkpt lat="46.255803" lon="13.4811284"><ele>424.8</ele><time>2026-04-24T11:14:08.292Z</time></trkpt><trkpt lat="46.255776" lon="13.4812833"><ele>424.6</ele><time>2026-04-24T11:14:09.293Z</time></trkpt><trkpt lat="46.2557587" lon="13.4814387"><ele>424.4</ele><time>2026-04-24T11:14:10.293Z</time></trkpt><trkpt lat="46.2557504" lon="13.481605"><ele>424.2</ele><time>2026-04-24T11:14:11.292Z</time></trkpt><trkpt lat="46.2557407" lon="13.4817655"><ele>424.0</ele><time>2026-04-24T11:14:12.291Z</time></trkpt><trkpt lat="46.2557614" lon="13.481948"><ele>423.6</ele><time>2026-04-24T11:14:13.292Z</time></trkpt><trkpt lat="46.2557718" lon="13.4821217"><ele>423.2</ele><time>2026-04-24T11:14:14.291Z</time></trkpt><trkpt lat="46.2557827" lon="13.4822806"><ele>422.8</ele><time>2026-04-24T11:14:15.292Z</time></trkpt><trkpt lat="46.2557946" lon="13.4824162"><ele>422.40000000000003</ele><time>2026-04-24T11:14:16.292Z</time></trkpt><trkpt lat="46.2558228" lon="13.4825382"><ele>422.0</ele><time>2026-04-24T11:14:17.291Z</time></trkpt><trkpt lat="46.2558657" lon="13.4826458"><ele>422.0</ele><time>2026-04-24T11:14:18.292Z</time></trkpt><trkpt lat="46.2559144" lon="13.4827465"><ele>422.0</ele><time>2026-04-24T11:14:19.291Z</time></trkpt><trkpt lat="46.2559688" lon="13.4828611"><ele>422.0</ele><time>2026-04-24T11:14:20.292Z</time></trkpt><trkpt lat="46.2560203" lon="13.4829835"><ele>422.0</ele><time>2026-04-24T11:14:21.291Z</time></trkpt><trkpt lat="46.2560541" lon="13.4831211"><ele>422.0</ele><time>2026-04-24T11:14:22.292Z</time></trkpt><trkpt lat="46.2560676" lon="13.4832715"><ele>420.8</ele><time>2026-04-24T11:14:23.293Z</time></trkpt><trkpt lat="46.2560681" lon="13.483426"><ele>419.6</ele><time>2026-04-24T11:14:24.292Z</time></trkpt><trkpt lat="46.2560572" lon="13.4835723"><ele>418.40000000000003</ele><time>2026-04-24T11:14:25.292Z</time></trkpt><trkpt lat="46.2560388" lon="13.4837151"><ele>417.20000000000005</ele><time>2026-04-24T11:14:26.291Z</time></trkpt><trkpt lat="46.2560105" lon="13.4838505"><ele>416.0</ele><time>2026-04-24T11:14:27.293Z</time></trkpt><trkpt lat="46.255979" lon="13.4839872"><ele>415.8</ele><time>2026-04-24T11:14:28.292Z</time></trkpt><trkpt lat="46.2559396" lon="13.4841247"><ele>415.6</ele><time>2026-04-24T11:14:29.292Z</time></trkpt><trkpt lat="46.2559092" lon="13.4842753"><ele>415.4</ele><time>2026-04-24T11:14:30.292Z</time></trkpt><trkpt lat="46.2558814" lon="13.4844273"><ele>415.2</ele><time>2026-04-24T11:14:31.293Z</time></trkpt><trkpt lat="46.2558639" lon="13.4845885"><ele>415.0</ele><time>2026-04-24T11:14:32.291Z</time></trkpt><trkpt lat="46.2558661" lon="13.4847593"><ele>414.5</ele><time>2026-04-24T11:14:33.293Z</time></trkpt><trkpt lat="46.2558891" lon="13.4849419"><ele>414.0</ele><time>2026-04-24T11:14:34.292Z</time></trkpt><trkpt lat="46.255927" lon="13.4851164"><ele>413.5</ele><time>2026-04-24T11:14:35.292Z</time></trkpt><trkpt lat="46.255975" lon="13.4852863"><ele>413.0</ele><time>2026-04-24T11:14:36.291Z</time></trkpt><trkpt lat="46.2560305" lon="13.4854539"><ele>410.5</ele><time>2026-04-24T11:14:37.293Z</time></trkpt><trkpt lat="46.256087" lon="13.4856231"><ele>408.0</ele><time>2026-04-24T11:14:38.291Z</time></trkpt><trkpt lat="46.2561297" lon="13.4857933"><ele>405.5</ele><time>2026-04-24T11:14:39.292Z</time></trkpt><trkpt lat="46.2561656" lon="13.4859559"><ele>403.0</ele><time>2026-04-24T11:14:40.292Z</time></trkpt><trkpt lat="46.2561848" lon="13.4861174"><ele>401.59999999999997</ele><time>2026-04-24T11:14:41.291Z</time></trkpt><trkpt lat="46.2561928" lon="13.4862789"><ele>400.2</ele><time>2026-04-24T11:14:42.293Z</time></trkpt><trkpt lat="46.2561944" lon="13.4864401"><ele>398.8</ele><time>2026-04-24T11:14:43.291Z</time></trkpt><trkpt lat="46.2561847" lon="13.4865948"><ele>397.4</ele><time>2026-04-24T11:14:44.292Z</time></trkpt><trkpt lat="46.2561659" lon="13.4867524"><ele>396.0</ele><time>2026-04-24T11:14:45.293Z</time></trkpt><trkpt lat="46.2561314" lon="13.4869063"><ele>396.0</ele><time>2026-04-24T11:14:46.292Z</time></trkpt><trkpt lat="46.2560925" lon="13.4870527"><ele>396.0</ele><time>2026-04-24T11:14:47.293Z</time></trkpt><trkpt lat="46.2560608" lon="13.4871957"><ele>396.0</ele><time>2026-04-24T11:14:48.291Z</time></trkpt><trkpt lat="46.256057" lon="13.4873435"><ele>396.0</ele><time>2026-04-24T11:14:49.292Z</time></trkpt><trkpt lat="46.2560796" lon="13.4874885"><ele>396.0</ele><time>2026-04-24T11:14:50.292Z</time></trkpt><trkpt lat="46.2561087" lon="13.4876253"><ele>396.6</ele><time>2026-04-24T11:14:51.292Z</time></trkpt><trkpt lat="46.25614" lon="13.4877633"><ele>397.20000000000005</ele><time>2026-04-24T11:14:52.293Z</time></trkpt><trkpt lat="46.2561639" lon="13.4878885"><ele>397.79999999999995</ele><time>2026-04-24T11:14:53.292Z</time></trkpt><trkpt lat="46.2561615" lon="13.488012"><ele>398.4</ele><time>2026-04-24T11:14:54.292Z</time></trkpt><trkpt lat="46.2561462" lon="13.4881368"><ele>399.0</ele><time>2026-04-24T11:14:55.291Z</time></trkpt><trkpt lat="46.2560856" lon="13.4882388"><ele>400.4</ele><time>2026-04-24T11:14:56.293Z</time></trkpt><trkpt lat="46.2560294" lon="13.4883407"><ele>401.79999999999995</ele><time>2026-04-24T11:14:57.293Z</time></trkpt><trkpt lat="46.255964" lon="13.4884291"><ele>403.20000000000005</ele><time>2026-04-24T11:14:58.293Z</time></trkpt><trkpt lat="46.2558906" lon="13.4885237"><ele>404.6</ele><time>2026-04-24T11:14:59.292Z</time></trkpt><trkpt lat="46.2558193" lon="13.4886171"><ele>406.0</ele><time>2026-04-24T11:15:00.292Z</time></trkpt><trkpt lat="46.2557494" lon="13.488732"><ele>407.4</ele><time>2026-04-24T11:15:01.291Z</time></trkpt><trkpt lat="46.2556898" lon="13.4888697"><ele>408.8</ele><time>2026-04-24T11:15:02.292Z</time></trkpt><trkpt lat="46.2556261" lon="13.4890052"><ele>410.2</ele><time>2026-04-24T11:15:03.292Z</time></trkpt><trkpt lat="46.255563" lon="13.4891388"><ele>411.59999999999997</ele><time>2026-04-24T11:15:04.292Z</time></trkpt><trkpt lat="46.2555145" lon="13.4892761"><ele>413.0</ele><time>2026-04-24T11:15:05.291Z</time></trkpt><trkpt lat="46.2554809" lon="13.4894287"><ele>407.25</ele><time>2026-04-24T11:15:06.292Z</time></trkpt><trkpt lat="46.2554557" lon="13.4895909"><ele>401.5</ele><time>2026-04-24T11:15:07.291Z</time></trkpt><trkpt lat="46.2554447" lon="13.4897621"><ele>395.75</ele><time>2026-04-24T11:15:08.292Z</time></trkpt><trkpt lat="46.25545" lon="13.4899387"><ele>390.0</ele><time>2026-04-24T11:15:09.291Z</time></trkpt><trkpt lat="46.2554716" lon="13.4901088"><ele>389.0</ele><time>2026-04-24T11:15:10.292Z</time></trkpt><trkpt lat="46.2554933" lon="13.4902762"><ele>388.0</ele><time>2026-04-24T11:15:11.29Z</time></trkpt><trkpt lat="46.2555126" lon="13.4904435"><ele>387.0</ele><time>2026-04-24T11:15:12.291Z</time></trkpt><trkpt lat="46.2555137" lon="13.4906093"><ele>386.0</ele><time>2026-04-24T11:15:13.292Z</time></trkpt><trkpt lat="46.2555005" lon="13.4907737"><ele>386.0</ele><time>2026-04-24T11:15:14.291Z</time></trkpt><trkpt lat="46.2554732" lon="13.4909396"><ele>386.0</ele><time>2026-04-24T11:15:15.292Z</time></trkpt><trkpt lat="46.255436" lon="13.4910985"><ele>386.0</ele><time>2026-04-24T11:15:16.291Z</time></trkpt><trkpt lat="46.2553985" lon="13.4912622"><ele>386.0</ele><time>2026-04-24T11:15:17.29Z</time></trkpt><trkpt lat="46.2553615" lon="13.4914259"><ele>386.0</ele><time>2026-04-24T11:15:18.291Z</time></trkpt><trkpt lat="46.2553243" lon="13.4915946"><ele>386.0</ele><time>2026-04-24T11:15:19.292Z</time></trkpt><trkpt lat="46.2552853" lon="13.4917686"><ele>386.0</ele><time>2026-04-24T11:15:20.291Z</time></trkpt><trkpt lat="46.2552461" lon="13.4919376"><ele>386.0</ele><time>2026-04-24T11:15:21.291Z</time></trkpt><trkpt lat="46.2551965" lon="13.4921128"><ele>386.0</ele><time>2026-04-24T11:15:22.29Z</time></trkpt><trkpt lat="46.2551433" lon="13.4922881"><ele>386.0</ele><time>2026-04-24T11:15:23.292Z</time></trkpt><trkpt lat="46.2550928" lon="13.492469"><ele>386.0</ele><time>2026-04-24T11:15:24.291Z</time></trkpt><trkpt lat="46.2550407" lon="13.4926497"><ele>386.0</ele><time>2026-04-24T11:15:25.291Z</time></trkpt><trkpt lat="46.2549862" lon="13.4928316"><ele>386.5</ele><time>2026-04-24T11:15:26.29Z</time></trkpt><trkpt lat="46.2549336" lon="13.493018"><ele>387.0</ele><time>2026-04-24T11:15:27.292Z</time></trkpt><trkpt lat="46.2548828" lon="13.4932064"><ele>387.5</ele><time>2026-04-24T11:15:28.291Z</time></trkpt><trkpt lat="46.2548313" lon="13.4933892"><ele>388.0</ele><time>2026-04-24T11:15:29.29Z</time></trkpt><trkpt lat="46.2547792" lon="13.4935575"><ele>386.50000000000006</ele><time>2026-04-24T11:15:30.291Z</time></trkpt><trkpt lat="46.2547443" lon="13.4936921"><ele>385.0</ele><time>2026-04-24T11:15:31.291Z</time></trkpt><trkpt lat="46.2547235" lon="13.4938148"><ele>383.5</ele><time>2026-04-24T11:15:32.292Z</time></trkpt><trkpt lat="46.2547282" lon="13.4939336"><ele>382.0</ele><time>2026-04-24T11:15:33.291Z</time></trkpt><trkpt lat="46.2547651" lon="13.4940403"><ele>380.5</ele><time>2026-04-24T11:15:34.29Z</time></trkpt><trkpt lat="46.2548161" lon="13.4941333"><ele>379.0</ele><time>2026-04-24T11:15:35.29Z</time></trkpt><trkpt lat="46.2548978" lon="13.4942133"><ele>379.0</ele><time>2026-04-24T11:15:36.291Z</time></trkpt><trkpt lat="46.2550333" lon="13.494264"><ele>379.0</ele><time>2026-04-24T11:15:37.292Z</time></trkpt><trkpt lat="46.2551158" lon="13.4943432"><ele>379.0</ele><time>2026-04-24T11:15:38.291Z</time></trkpt><trkpt lat="46.2551985" lon="13.494409"><ele>379.0</ele><time>2026-04-24T11:15:39.292Z</time></trkpt><trkpt lat="46.2552486" lon="13.4944892"><ele>379.0</ele><time>2026-04-24T11:15:40.29Z</time></trkpt><trkpt lat="46.2552588" lon="13.4946083"><ele>379.79999999999995</ele><time>2026-04-24T11:15:41.29Z</time></trkpt><trkpt lat="46.2552393" lon="13.4947165"><ele>380.59999999999997</ele><time>2026-04-24T11:15:42.291Z</time></trkpt><trkpt lat="46.2551159" lon="13.4948166"><ele>381.4</ele><time>2026-04-24T11:15:43.292Z</time></trkpt><trkpt lat="46.2550294" lon="13.4948902"><ele>382.2</ele><time>2026-04-24T11:15:44.291Z</time></trkpt><trkpt lat="46.2549381" lon="13.4949103"><ele>383.0</ele><time>2026-04-24T11:15:45.29Z</time></trkpt><trkpt lat="46.2548527" lon="13.4949356"><ele>383.0</ele><time>2026-04-24T11:15:46.291Z</time></trkpt><trkpt lat="46.2547951" lon="13.4949798"><ele>383.0</ele><time>2026-04-24T11:15:47.29Z</time></trkpt><trkpt lat="46.2547233" lon="13.4950308"><ele>383.0</ele><time>2026-04-24T11:15:48.291Z</time></trkpt><trkpt lat="46.2547165" lon="13.4951672"><ele>383.0</ele><time>2026-04-24T11:15:49.291Z</time></trkpt><trkpt lat="46.2546995" lon="13.4952767"><ele>383.0</ele><time>2026-04-24T11:15:50.29Z</time></trkpt><trkpt lat="46.2547206" lon="13.4954246"><ele>383.0</ele><time>2026-04-24T11:15:51.29Z</time></trkpt><trkpt lat="46.2547163" lon="13.4955942"><ele>375.0</ele><time>2026-04-24T11:15:52.292Z</time></trkpt><trkpt lat="46.2547274" lon="13.4957727"><ele>367.0</ele><time>2026-04-24T11:15:53.29Z</time></trkpt><trkpt lat="46.2547327" lon="13.495957"><ele>359.0</ele><time>2026-04-24T11:15:54.291Z</time></trkpt><trkpt lat="46.2547388" lon="13.4961529"><ele>351.0</ele><time>2026-04-24T11:15:55.291Z</time></trkpt><trkpt lat="46.254749" lon="13.4963563"><ele>350.0</ele><time>2026-04-24T11:15:56.29Z</time></trkpt><trkpt lat="46.2547664" lon="13.4965466"><ele>349.0</ele><time>2026-04-24T11:15:57.291Z</time></trkpt><trkpt lat="46.2547754" lon="13.4967321"><ele>348.0</ele><time>2026-04-24T11:15:58.291Z</time></trkpt><trkpt lat="46.2547927" lon="13.4969008"><ele>347.0</ele><time>2026-04-24T11:15:59.291Z</time></trkpt><trkpt lat="46.2548143" lon="13.4970426"><ele>351.40000000000003</ele><time>2026-04-24T11:16:00.292Z</time></trkpt><trkpt lat="46.2548921" lon="13.4971418"><ele>355.8</ele><time>2026-04-24T11:16:01.291Z</time></trkpt><trkpt lat="46.2549939" lon="13.4972373"><ele>360.2</ele><time>2026-04-24T11:16:02.291Z</time></trkpt><trkpt lat="46.255086" lon="13.4973388"><ele>364.6</ele><time>2026-04-24T11:16:03.291Z</time></trkpt><trkpt lat="46.255165" lon="13.4974402"><ele>369.0</ele><time>2026-04-24T11:16:04.29Z</time></trkpt><trkpt lat="46.2552347" lon="13.4975468"><ele>369.0</ele><time>2026-04-24T11:16:05.291Z</time></trkpt><trkpt lat="46.2552932" lon="13.497659"><ele>369.0</ele><time>2026-04-24T11:16:06.291Z</time></trkpt><trkpt lat="46.2552539" lon="13.4978548"><ele>369.0</ele><time>2026-04-24T11:16:07.292Z</time></trkpt><trkpt lat="46.2552389" lon="13.4980256"><ele>369.0</ele><time>2026-04-24T11:16:08.292Z</time></trkpt><trkpt lat="46.2552181" lon="13.4982117"><ele>367.5</ele><time>2026-04-24T11:16:09.29Z</time></trkpt><trkpt lat="46.2551962" lon="13.4984152"><ele>366.0</ele><time>2026-04-24T11:16:10.29Z</time></trkpt><trkpt lat="46.2551725" lon="13.4986177"><ele>364.5</ele><time>2026-04-24T11:16:11.291Z</time></trkpt><trkpt lat="46.2551489" lon="13.4988317"><ele>363.0</ele><time>2026-04-24T11:16:12.291Z</time></trkpt><trkpt lat="46.2551262" lon="13.499051"><ele>363.0</ele><time>2026-04-24T11:16:13.292Z</time></trkpt><trkpt lat="46.255103" lon="13.4992602"><ele>363.0</ele><time>2026-04-24T11:16:14.291Z</time></trkpt><trkpt lat="46.255089" lon="13.4994641"><ele>363.0</ele><time>2026-04-24T11:16:15.291Z</time></trkpt><trkpt lat="46.2550868" lon="13.4996675"><ele>363.0</ele><time>2026-04-24T11:16:16.29Z</time></trkpt><trkpt lat="46.2550871" lon="13.4998644"><ele>362.0</ele><time>2026-04-24T11:16:17.291Z</time></trkpt><trkpt lat="46.2550937" lon="13.5000526"><ele>361.0</ele><time>2026-04-24T11:16:18.29Z</time></trkpt><trkpt lat="46.2551034" lon="13.5002343"><ele>360.0</ele><time>2026-04-24T11:16:19.291Z</time></trkpt><trkpt lat="46.2551126" lon="13.500422"><ele>359.0</ele><time>2026-04-24T11:16:20.291Z</time></trkpt><trkpt lat="46.255122" lon="13.5006127"><ele>356.5</ele><time>2026-04-24T11:16:21.29Z</time></trkpt><trkpt lat="46.2551337" lon="13.5008051"><ele>354.0</ele><time>2026-04-24T11:16:22.29Z</time></trkpt><trkpt lat="46.255142" lon="13.5009991"><ele>351.5</ele><time>2026-04-24T11:16:23.291Z</time></trkpt><trkpt lat="46.2551483" lon="13.5011925"><ele>349.0</ele><time>2026-04-24T11:16:24.29Z</time></trkpt><trkpt lat="46.2551531" lon="13.5013827"><ele>349.0</ele><time>2026-04-24T11:16:25.29Z</time></trkpt><trkpt lat="46.2551549" lon="13.5015692"><ele>349.0</ele><time>2026-04-24T11:16:26.29Z</time></trkpt><trkpt lat="46.2551542" lon="13.5017511"><ele>349.0</ele><time>2026-04-24T11:16:27.291Z</time></trkpt><trkpt lat="46.255141" lon="13.501929"><ele>349.0</ele><time>2026-04-24T11:16:28.292Z</time></trkpt><trkpt lat="46.2551115" lon="13.5020945"><ele>350.0</ele><time>2026-04-24T11:16:29.291Z</time></trkpt><trkpt lat="46.2550604" lon="13.5022489"><ele>351.0</ele><time>2026-04-24T11:16:30.29Z</time></trkpt><trkpt lat="46.2549928" lon="13.5023766"><ele>352.0</ele><time>2026-04-24T11:16:31.291Z</time></trkpt><trkpt lat="46.2549154" lon="13.5024824"><ele>353.0</ele><time>2026-04-24T11:16:32.291Z</time></trkpt><trkpt lat="46.2548397" lon="13.5025842"><ele>354.0</ele><time>2026-04-24T11:16:33.291Z</time></trkpt><trkpt lat="46.2547685" lon="13.5026888"><ele>350.2</ele><time>2026-04-24T11:16:34.292Z</time></trkpt><trkpt lat="46.2547027" lon="13.5028037"><ele>346.4</ele><time>2026-04-24T11:16:35.292Z</time></trkpt><trkpt lat="46.254643" lon="13.5029248"><ele>342.6</ele><time>2026-04-24T11:16:36.29Z</time></trkpt><trkpt lat="46.254594" lon="13.5030554"><ele>338.8</ele><time>2026-04-24T11:16:37.291Z</time></trkpt><trkpt lat="46.2545644" lon="13.5031947"><ele>335.0</ele><time>2026-04-24T11:16:38.29Z</time></trkpt><trkpt lat="46.2545469" lon="13.5033404"><ele>335.0</ele><time>2026-04-24T11:16:39.291Z</time></trkpt><trkpt lat="46.2545338" lon="13.5034884"><ele>335.0</ele><time>2026-04-24T11:16:40.29Z</time></trkpt><trkpt lat="46.2545209" lon="13.5036357"><ele>335.0</ele><time>2026-04-24T11:16:41.29Z</time></trkpt><trkpt lat="46.2545031" lon="13.5037801"><ele>335.0</ele><time>2026-04-24T11:16:42.292Z</time></trkpt><trkpt lat="46.2544807" lon="13.5039221"><ele>335.0</ele><time>2026-04-24T11:16:43.292Z</time></trkpt><trkpt lat="46.2544469" lon="13.5040565"><ele>336.0</ele><time>2026-04-24T11:16:44.291Z</time></trkpt><trkpt lat="46.2544305" lon="13.5041936"><ele>337.0</ele><time>2026-04-24T11:16:45.291Z</time></trkpt><trkpt lat="46.2544218" lon="13.504326"><ele>338.0</ele><time>2026-04-24T11:16:46.292Z</time></trkpt><trkpt lat="46.2544192" lon="13.5044544"><ele>339.0</ele><time>2026-04-24T11:16:47.291Z</time></trkpt><trkpt lat="46.2544192" lon="13.5045766"><ele>340.0</ele><time>2026-04-24T11:16:48.291Z</time></trkpt><trkpt lat="46.2544167" lon="13.5046851"><ele>341.0</ele><time>2026-04-24T11:16:49.29Z</time></trkpt><trkpt lat="46.2544044" lon="13.504798"><ele>341.4</ele><time>2026-04-24T11:16:50.292Z</time></trkpt><trkpt lat="46.2543864" lon="13.5049187"><ele>341.8</ele><time>2026-04-24T11:16:51.291Z</time></trkpt><trkpt lat="46.2543661" lon="13.5050438"><ele>342.2</ele><time>2026-04-24T11:16:52.29Z</time></trkpt><trkpt lat="46.2543451" lon="13.5051759"><ele>342.59999999999997</ele><time>2026-04-24T11:16:53.29Z</time></trkpt><trkpt lat="46.2543168" lon="13.5053148"><ele>343.0</ele><time>2026-04-24T11:16:54.292Z</time></trkpt><trkpt lat="46.2542753" lon="13.5054615"><ele>344.0</ele><time>2026-04-24T11:16:55.291Z</time></trkpt><trkpt lat="46.2542197" lon="13.5055934"><ele>345.0</ele><time>2026-04-24T11:16:56.291Z</time></trkpt><trkpt lat="46.2541533" lon="13.5057207"><ele>346.0</ele><time>2026-04-24T11:16:57.291Z</time></trkpt><trkpt lat="46.2540869" lon="13.5058423"><ele>347.0</ele><time>2026-04-24T11:16:58.29Z</time></trkpt><trkpt lat="46.2540199" lon="13.5059539"><ele>348.0</ele><time>2026-04-24T11:16:59.29Z</time></trkpt><trkpt lat="46.2539491" lon="13.5060576"><ele>344.2</ele><time>2026-04-24T11:17:00.292Z</time></trkpt><trkpt lat="46.2538773" lon="13.5061531"><ele>340.4</ele><time>2026-04-24T11:17:01.292Z</time></trkpt><trkpt lat="46.253806" lon="13.5062527"><ele>336.59999999999997</ele><time>2026-04-24T11:17:02.292Z</time></trkpt><trkpt lat="46.2537403" lon="13.5063589"><ele>332.79999999999995</ele><time>2026-04-24T11:17:03.292Z</time></trkpt><trkpt lat="46.2536858" lon="13.5064717"><ele>329.0</ele><time>2026-04-24T11:17:04.29Z</time></trkpt><trkpt lat="46.253686" lon="13.5066276"><ele>329.0</ele><time>2026-04-24T11:17:05.292Z</time></trkpt><trkpt lat="46.2536828" lon="13.5067656"><ele>329.0</ele><time>2026-04-24T11:17:06.291Z</time></trkpt><trkpt lat="46.2537034" lon="13.5069008"><ele>329.0</ele><time>2026-04-24T11:17:07.291Z</time></trkpt><trkpt lat="46.2537173" lon="13.5070216"><ele>329.0</ele><time>2026-04-24T11:17:08.29Z</time></trkpt><trkpt lat="46.2537074" lon="13.507132"><ele>329.0</ele><time>2026-04-24T11:17:09.29Z</time></trkpt><trkpt lat="46.2536642" lon="13.5072226"><ele>329.0</ele><time>2026-04-24T11:17:10.291Z</time></trkpt><trkpt lat="46.2535986" lon="13.5073051"><ele>328.79999999999995</ele><time>2026-04-24T11:17:11.29Z</time></trkpt><trkpt lat="46.2535284" lon="13.5073877"><ele>328.59999999999997</ele><time>2026-04-24T11:17:12.29Z</time></trkpt><trkpt lat="46.2534687" lon="13.507489"><ele>328.4</ele><time>2026-04-24T11:17:13.29Z</time></trkpt><trkpt lat="46.2534313" lon="13.5076331"><ele>328.2</ele><time>2026-04-24T11:17:14.291Z</time></trkpt><trkpt lat="46.2534028" lon="13.507796"><ele>328.0</ele><time>2026-04-24T11:17:15.29Z</time></trkpt><trkpt lat="46.2533806" lon="13.5079741"><ele>329.5</ele><time>2026-04-24T11:17:16.29Z</time></trkpt><trkpt lat="46.2533617" lon="13.5081602"><ele>331.0</ele><time>2026-04-24T11:17:17.29Z</time></trkpt><trkpt lat="46.2533443" lon="13.5083359"><ele>332.5</ele><time>2026-04-24T11:17:18.29Z</time></trkpt><trkpt lat="46.2533347" lon="13.50851"><ele>334.0</ele><time>2026-04-24T11:17:19.29Z</time></trkpt><trkpt lat="46.2533248" lon="13.508677"><ele>337.2</ele><time>2026-04-24T11:17:20.29Z</time></trkpt><trkpt lat="46.2533043" lon="13.5088359"><ele>340.4</ele><time>2026-04-24T11:17:21.292Z</time></trkpt><trkpt lat="46.253257" lon="13.508977"><ele>343.6</ele><time>2026-04-24T11:17:22.291Z</time></trkpt><trkpt lat="46.2531964" lon="13.5091117"><ele>346.8</ele><time>2026-04-24T11:17:23.292Z</time></trkpt><trkpt lat="46.2531135" lon="13.5092271"><ele>350.0</ele><time>2026-04-24T11:17:24.292Z</time></trkpt><trkpt lat="46.2530435" lon="13.5093559"><ele>341.8</ele><time>2026-04-24T11:17:25.291Z</time></trkpt><trkpt lat="46.2529976" lon="13.5095"><ele>333.6</ele><time>2026-04-24T11:17:26.29Z</time></trkpt><trkpt lat="46.2529688" lon="13.5096505"><ele>325.4</ele><time>2026-04-24T11:17:27.29Z</time></trkpt><trkpt lat="46.2529646" lon="13.5098048"><ele>317.2</ele><time>2026-04-24T11:17:28.291Z</time></trkpt><trkpt lat="46.2529684" lon="13.5099607"><ele>309.0</ele><time>2026-04-24T11:17:29.289Z</time></trkpt><trkpt lat="46.2529647" lon="13.5101073"><ele>309.0</ele><time>2026-04-24T11:17:30.29Z</time></trkpt><trkpt lat="46.2529363" lon="13.510254"><ele>309.0</ele><time>2026-04-24T11:17:31.29Z</time></trkpt><trkpt lat="46.2528928" lon="13.5103887"><ele>309.0</ele><time>2026-04-24T11:17:32.289Z</time></trkpt><trkpt lat="46.2528289" lon="13.5105003"><ele>309.0</ele><time>2026-04-24T11:17:33.29Z</time></trkpt><trkpt lat="46.252769" lon="13.5106043"><ele>309.0</ele><time>2026-04-24T11:17:34.291Z</time></trkpt><trkpt lat="46.2526746" lon="13.5107084"><ele>311.6</ele><time>2026-04-24T11:17:35.29Z</time></trkpt><trkpt lat="46.2525937" lon="13.5108262"><ele>314.2</ele><time>2026-04-24T11:17:36.29Z</time></trkpt><trkpt lat="46.2525354" lon="13.5109569"><ele>316.8</ele><time>2026-04-24T11:17:37.289Z</time></trkpt><trkpt lat="46.2525056" lon="13.5111033"><ele>319.40000000000003</ele><time>2026-04-24T11:17:38.29Z</time></trkpt><trkpt lat="46.2524852" lon="13.5112726"><ele>322.0</ele><time>2026-04-24T11:17:39.29Z</time></trkpt><trkpt lat="46.2524722" lon="13.5114489"><ele>325.75</ele><time>2026-04-24T11:17:40.29Z</time></trkpt><trkpt lat="46.2524738" lon="13.5116245"><ele>329.5</ele><time>2026-04-24T11:17:41.29Z</time></trkpt><trkpt lat="46.2524639" lon="13.5118116"><ele>333.25</ele><time>2026-04-24T11:17:42.289Z</time></trkpt><trkpt lat="46.2523956" lon="13.5119762"><ele>337.0</ele><time>2026-04-24T11:17:43.29Z</time></trkpt><trkpt lat="46.2523546" lon="13.512136"><ele>328.25</ele><time>2026-04-24T11:17:44.289Z</time></trkpt><trkpt lat="46.2522888" lon="13.5122781"><ele>319.5</ele><time>2026-04-24T11:17:45.289Z</time></trkpt><trkpt lat="46.2521851" lon="13.5124074"><ele>310.75</ele><time>2026-04-24T11:17:46.289Z</time></trkpt><trkpt lat="46.2520815" lon="13.5125234"><ele>302.0</ele><time>2026-04-24T11:17:47.29Z</time></trkpt><trkpt lat="46.2519771" lon="13.5126333"><ele>302.0</ele><time>2026-04-24T11:17:48.289Z</time></trkpt><trkpt lat="46.2518786" lon="13.5127611"><ele>302.0</ele><time>2026-04-24T11:17:49.29Z</time></trkpt><trkpt lat="46.2517767" lon="13.5128819"><ele>302.0</ele><time>2026-04-24T11:17:50.29Z</time></trkpt><trkpt lat="46.2516704" lon="13.5130142"><ele>302.0</ele><time>2026-04-24T11:17:51.29Z</time></trkpt><trkpt lat="46.2515738" lon="13.51316"><ele>300.5</ele><time>2026-04-24T11:17:52.289Z</time></trkpt><trkpt lat="46.2514967" lon="13.5133386"><ele>299.0</ele><time>2026-04-24T11:17:53.289Z</time></trkpt><trkpt lat="46.2514207" lon="13.5135056"><ele>297.5</ele><time>2026-04-24T11:17:54.29Z</time></trkpt><trkpt lat="46.2513519" lon="13.5136851"><ele>296.0</ele><time>2026-04-24T11:17:55.291Z</time></trkpt><trkpt lat="46.2512768" lon="13.5138572"><ele>296.0</ele><time>2026-04-24T11:17:56.291Z</time></trkpt><trkpt lat="46.2511928" lon="13.5140205"><ele>296.0</ele><time>2026-04-24T11:17:57.29Z</time></trkpt><trkpt lat="46.2511036" lon="13.5141753"><ele>296.0</ele><time>2026-04-24T11:17:58.29Z</time></trkpt><trkpt lat="46.2510153" lon="13.5143101"><ele>296.0</ele><time>2026-04-24T11:17:59.29Z</time></trkpt><trkpt lat="46.2509511" lon="13.5144522"><ele>298.75</ele><time>2026-04-24T11:18:00.29Z</time></trkpt><trkpt lat="46.2509074" lon="13.5146036"><ele>301.5</ele><time>2026-04-24T11:18:01.29Z</time></trkpt><trkpt lat="46.2508785" lon="13.5147727"><ele>304.25</ele><time>2026-04-24T11:18:02.289Z</time></trkpt><trkpt lat="46.2508559" lon="13.5149488"><ele>307.0</ele><time>2026-04-24T11:18:03.289Z</time></trkpt><trkpt lat="46.2508242" lon="13.5151233"><ele>307.0</ele><time>2026-04-24T11:18:04.291Z</time></trkpt><trkpt lat="46.2507861" lon="13.5153013"><ele>307.0</ele><time>2026-04-24T11:18:05.29Z</time></trkpt><trkpt lat="46.250736" lon="13.5154676"><ele>307.0</ele><time>2026-04-24T11:18:06.289Z</time></trkpt><trkpt lat="46.250685" lon="13.5156347"><ele>307.0</ele><time>2026-04-24T11:18:07.289Z</time></trkpt><trkpt lat="46.2506381" lon="13.5157987"><ele>301.5</ele><time>2026-04-24T11:18:08.289Z</time></trkpt><trkpt lat="46.2505954" lon="13.5159694"><ele>296.0</ele><time>2026-04-24T11:18:09.29Z</time></trkpt><trkpt lat="46.2505536" lon="13.5161446"><ele>290.5</ele><time>2026-04-24T11:18:10.29Z</time></trkpt><trkpt lat="46.2505075" lon="13.5163195"><ele>285.0</ele><time>2026-04-24T11:18:11.29Z</time></trkpt><trkpt lat="46.2504502" lon="13.516484"><ele>285.0</ele><time>2026-04-24T11:18:12.291Z</time></trkpt><trkpt lat="46.2503943" lon="13.516638"><ele>285.0</ele><time>2026-04-24T11:18:13.289Z</time></trkpt><trkpt lat="46.2503253" lon="13.5167822"><ele>285.0</ele><time>2026-04-24T11:18:14.291Z</time></trkpt><trkpt lat="46.2502523" lon="13.5169191"><ele>285.0</ele><time>2026-04-24T11:18:15.29Z</time></trkpt><trkpt lat="46.2501793" lon="13.5170542"><ele>288.0</ele><time>2026-04-24T11:18:16.291Z</time></trkpt><trkpt lat="46.2501101" lon="13.5171904"><ele>291.0</ele><time>2026-04-24T11:18:17.29Z</time></trkpt><trkpt lat="46.2500564" lon="13.5173443"><ele>294.0</ele><time>2026-04-24T11:18:18.289Z</time></trkpt><trkpt lat="46.2499994" lon="13.5175079"><ele>297.0</ele><time>2026-04-24T11:18:19.289Z</time></trkpt><trkpt lat="46.2499558" lon="13.517685"><ele>297.0</ele><time>2026-04-24T11:18:20.29Z</time></trkpt><trkpt lat="46.2499044" lon="13.5178655"><ele>297.0</ele><time>2026-04-24T11:18:21.291Z</time></trkpt><trkpt lat="46.2498505" lon="13.5180432"><ele>297.0</ele><time>2026-04-24T11:18:22.289Z</time></trkpt><trkpt lat="46.249794" lon="13.5182182"><ele>297.0</ele><time>2026-04-24T11:18:23.29Z</time></trkpt><trkpt lat="46.2497257" lon="13.5183784"><ele>292.25</ele><time>2026-04-24T11:18:24.291Z</time></trkpt><trkpt lat="46.24965" lon="13.5185219"><ele>287.5</ele><time>2026-04-24T11:18:25.29Z</time></trkpt><trkpt lat="46.2495797" lon="13.5186622"><ele>282.75</ele><time>2026-04-24T11:18:26.289Z</time></trkpt><trkpt lat="46.2495238" lon="13.5188055"><ele>278.0</ele><time>2026-04-24T11:18:27.29Z</time></trkpt><trkpt lat="46.2494875" lon="13.5189564"><ele>278.0</ele><time>2026-04-24T11:18:28.29Z</time></trkpt><trkpt lat="46.2494819" lon="13.5191249"><ele>278.0</ele><time>2026-04-24T11:18:29.289Z</time></trkpt><trkpt lat="46.2494797" lon="13.5192963"><ele>278.0</ele><time>2026-04-24T11:18:30.29Z</time></trkpt><trkpt lat="46.2494734" lon="13.5194652"><ele>278.0</ele><time>2026-04-24T11:18:31.289Z</time></trkpt><trkpt lat="46.2494472" lon="13.5196312"><ele>280.25</ele><time>2026-04-24T11:18:32.29Z</time></trkpt><trkpt lat="46.2494015" lon="13.519794"><ele>282.5</ele><time>2026-04-24T11:18:33.29Z</time></trkpt><trkpt lat="46.2493466" lon="13.5199521"><ele>284.75</ele><time>2026-04-24T11:18:34.29Z</time></trkpt><trkpt lat="46.2492816" lon="13.5201138"><ele>287.0</ele><time>2026-04-24T11:18:35.289Z</time></trkpt><trkpt lat="46.2492206" lon="13.5202778"><ele>289.25</ele><time>2026-04-24T11:18:36.291Z</time></trkpt><trkpt lat="46.2491523" lon="13.5204296"><ele>291.5</ele><time>2026-04-24T11:18:37.291Z</time></trkpt><trkpt lat="46.2490747" lon="13.5205727"><ele>293.75</ele><time>2026-04-24T11:18:38.29Z</time></trkpt><trkpt lat="46.2490037" lon="13.5207193"><ele>296.0</ele><time>2026-04-24T11:18:39.29Z</time></trkpt><trkpt lat="46.2489113" lon="13.5208336"><ele>291.0</ele><time>2026-04-24T11:18:40.289Z</time></trkpt><trkpt lat="46.2488178" lon="13.5209407"><ele>286.0</ele><time>2026-04-24T11:18:41.29Z</time></trkpt><trkpt lat="46.2487218" lon="13.5210369"><ele>281.0</ele><time>2026-04-24T11:18:42.29Z</time></trkpt><trkpt lat="46.2486151" lon="13.5211183"><ele>276.0</ele><time>2026-04-24T11:18:43.291Z</time></trkpt><trkpt lat="46.2485122" lon="13.5212086"><ele>278.25</ele><time>2026-04-24T11:18:44.289Z</time></trkpt><trkpt lat="46.248402" lon="13.5213121"><ele>280.5</ele><time>2026-04-24T11:18:45.289Z</time></trkpt><trkpt lat="46.248296" lon="13.5214362"><ele>282.75</ele><time>2026-04-24T11:18:46.29Z</time></trkpt><trkpt lat="46.2481937" lon="13.5215693"><ele>285.0</ele><time>2026-04-24T11:18:47.29Z</time></trkpt><trkpt lat="46.2480945" lon="13.5217148"><ele>280.25</ele><time>2026-04-24T11:18:48.289Z</time></trkpt><trkpt lat="46.2480088" lon="13.5218814"><ele>275.5</ele><time>2026-04-24T11:18:49.29Z</time></trkpt><trkpt lat="46.2479364" lon="13.5220605"><ele>270.75</ele><time>2026-04-24T11:18:50.29Z</time></trkpt><trkpt lat="46.2478643" lon="13.522248"><ele>266.0</ele><time>2026-04-24T11:18:51.291Z</time></trkpt><trkpt lat="46.2477913" lon="13.5224415"><ele>266.0</ele><time>2026-04-24T11:18:52.291Z</time></trkpt><trkpt lat="46.2477224" lon="13.522635"><ele>266.0</ele><time>2026-04-24T11:18:53.29Z</time></trkpt><trkpt lat="46.2476565" lon="13.5228291"><ele>266.0</ele><time>2026-04-24T11:18:54.29Z</time></trkpt><trkpt lat="46.2476058" lon="13.5230297"><ele>266.0</ele><time>2026-04-24T11:18:55.29Z</time></trkpt><trkpt lat="46.2475632" lon="13.5232409"><ele>266.33333333333337</ele><time>2026-04-24T11:18:56.29Z</time></trkpt><trkpt lat="46.2475238" lon="13.5234557"><ele>266.6666666666667</ele><time>2026-04-24T11:18:57.29Z</time></trkpt><trkpt lat="46.2474829" lon="13.5236685"><ele>267.0</ele><time>2026-04-24T11:18:58.291Z</time></trkpt><trkpt lat="46.2474489" lon="13.5238776"><ele>267.0</ele><time>2026-04-24T11:18:59.291Z</time></trkpt><trkpt lat="46.2474093" lon="13.5240839"><ele>267.0</ele><time>2026-04-24T11:19:00.29Z</time></trkpt><trkpt lat="46.2473557" lon="13.5242836"><ele>267.0</ele><time>2026-04-24T11:19:01.289Z</time></trkpt><trkpt lat="46.2472795" lon="13.5244559"><ele>267.0</ele><time>2026-04-24T11:19:02.289Z</time></trkpt><trkpt lat="46.247186" lon="13.5246056"><ele>263.5</ele><time>2026-04-24T11:19:03.29Z</time></trkpt><trkpt lat="46.2470866" lon="13.5247523"><ele>260.0</ele><time>2026-04-24T11:19:04.29Z</time></trkpt><trkpt lat="46.2469898" lon="13.5249022"><ele>256.5</ele><time>2026-04-24T11:19:05.29Z</time></trkpt><trkpt lat="46.2469051" lon="13.5250614"><ele>253.0</ele><time>2026-04-24T11:19:06.29Z</time></trkpt><trkpt lat="46.2468363" lon="13.5252348"><ele>253.5</ele><time>2026-04-24T11:19:07.289Z</time></trkpt><trkpt lat="46.2467861" lon="13.5254329"><ele>254.0</ele><time>2026-04-24T11:19:08.291Z</time></trkpt><trkpt lat="46.2467456" lon="13.525641"><ele>254.5</ele><time>2026-04-24T11:19:09.289Z</time></trkpt><trkpt lat="46.2467075" lon="13.525849"><ele>255.0</ele><time>2026-04-24T11:19:10.289Z</time></trkpt><trkpt lat="46.2466747" lon="13.5260646"><ele>254.75</ele><time>2026-04-24T11:19:11.29Z</time></trkpt><trkpt lat="46.2466426" lon="13.5262752"><ele>254.5</ele><time>2026-04-24T11:19:12.29Z</time></trkpt><trkpt lat="46.2466113" lon="13.5264778"><ele>254.25</ele><time>2026-04-24T11:19:13.29Z</time></trkpt><trkpt lat="46.2465749" lon="13.526664"><ele>254.0</ele><time>2026-04-24T11:19:14.291Z</time></trkpt><trkpt lat="46.2465327" lon="13.5268392"><ele>254.0</ele><time>2026-04-24T11:19:15.29Z</time></trkpt><trkpt lat="46.2464843" lon="13.5270038"><ele>254.0</ele><time>2026-04-24T11:19:16.29Z</time></trkpt><trkpt lat="46.2464339" lon="13.527159"><ele>254.0</ele><time>2026-04-24T11:19:17.29Z</time></trkpt><trkpt lat="46.246383" lon="13.5273052"><ele>254.0</ele><time>2026-04-24T11:19:18.29Z</time></trkpt><trkpt lat="46.2463221" lon="13.5274306"><ele>253.79999999999998</ele><time>2026-04-24T11:19:19.289Z</time></trkpt><trkpt lat="46.2462442" lon="13.5275333"><ele>253.59999999999997</ele><time>2026-04-24T11:19:20.289Z</time></trkpt><trkpt lat="46.2461669" lon="13.5276073"><ele>253.4</ele><time>2026-04-24T11:19:21.289Z</time></trkpt><trkpt lat="46.246098" lon="13.5276631"><ele>253.2</ele><time>2026-04-24T11:19:22.289Z</time></trkpt><trkpt lat="46.2459926" lon="13.5277028"><ele>253.0</ele><time>2026-04-24T11:19:24.289Z</time></trkpt><trkpt lat="46.2458744" lon="13.5277011"><ele>253.0</ele><time>2026-04-24T11:19:26.29Z</time></trkpt><trkpt lat="46.2457912" lon="13.5278013"><ele>253.0</ele><time>2026-04-24T11:19:28.289Z</time></trkpt><trkpt lat="46.2457967" lon="13.5279774"><ele>253.0</ele><time>2026-04-24T11:19:30.29Z</time></trkpt><trkpt lat="46.2458163" lon="13.52808"><ele>253.0</ele><time>2026-04-24T11:19:31.29Z</time></trkpt><trkpt lat="46.2458253" lon="13.5282184"><ele>253.0</ele><time>2026-04-24T11:19:32.29Z</time></trkpt><trkpt lat="46.2458379" lon="13.5283634"><ele>252.25</ele><time>2026-04-24T11:19:33.289Z</time></trkpt><trkpt lat="46.2458511" lon="13.5285219"><ele>251.5</ele><time>2026-04-24T11:19:34.29Z</time></trkpt><trkpt lat="46.2458604" lon="13.5287048"><ele>250.75</ele><time>2026-04-24T11:19:35.29Z</time></trkpt><trkpt lat="46.2458654" lon="13.5288938"><ele>250.0</ele><time>2026-04-24T11:19:36.289Z</time></trkpt><trkpt lat="46.2458746" lon="13.5290841"><ele>249.66666666666666</ele><time>2026-04-24T11:19:37.29Z</time></trkpt><trkpt lat="46.2458862" lon="13.5293019"><ele>249.33333333333331</ele><time>2026-04-24T11:19:38.29Z</time></trkpt><trkpt lat="46.2458961" lon="13.5295184"><ele>249.0</ele><time>2026-04-24T11:19:39.29Z</time></trkpt><trkpt lat="46.2459096" lon="13.5297391"><ele>248.66666666666669</ele><time>2026-04-24T11:19:40.289Z</time></trkpt><trkpt lat="46.2459107" lon="13.5299555"><ele>248.33333333333334</ele><time>2026-04-24T11:19:41.29Z</time></trkpt><trkpt lat="46.2459239" lon="13.5301809"><ele>248.0</ele><time>2026-04-24T11:19:42.291Z</time></trkpt><trkpt lat="46.245932" lon="13.5304055"><ele>248.0</ele><time>2026-04-24T11:19:43.29Z</time></trkpt><trkpt lat="46.2459285" lon="13.5306419"><ele>248.0</ele><time>2026-04-24T11:19:44.289Z</time></trkpt><trkpt lat="46.2459325" lon="13.5308711"><ele>248.0</ele><time>2026-04-24T11:19:45.29Z</time></trkpt><trkpt lat="46.2459366" lon="13.5310922"><ele>247.66666666666669</ele><time>2026-04-24T11:19:46.29Z</time></trkpt><trkpt lat="46.2459408" lon="13.5313122"><ele>247.33333333333331</ele><time>2026-04-24T11:19:47.291Z</time></trkpt><trkpt lat="46.2459414" lon="13.5315343"><ele>247.0</ele><time>2026-04-24T11:19:48.289Z</time></trkpt><trkpt lat="46.2459424" lon="13.5317603"><ele>247.0</ele><time>2026-04-24T11:19:49.288Z</time></trkpt><trkpt lat="46.2459479" lon="13.531975"><ele>247.0</ele><time>2026-04-24T11:19:50.289Z</time></trkpt><trkpt lat="46.2459476" lon="13.5321919"><ele>247.0</ele><time>2026-04-24T11:19:51.288Z</time></trkpt><trkpt lat="46.2459542" lon="13.5323962"><ele>247.0</ele><time>2026-04-24T11:19:52.289Z</time></trkpt><trkpt lat="46.2459587" lon="13.5326062"><ele>246.5</ele><time>2026-04-24T11:19:53.288Z</time></trkpt><trkpt lat="46.2459688" lon="13.5328178"><ele>246.0</ele><time>2026-04-24T11:19:54.289Z</time></trkpt><trkpt lat="46.2459793" lon="13.5330233"><ele>245.5</ele><time>2026-04-24T11:19:55.288Z</time></trkpt><trkpt lat="46.2459869" lon="13.5332299"><ele>245.0</ele><time>2026-04-24T11:19:56.29Z</time></trkpt><trkpt lat="46.2459878" lon="13.533445"><ele>245.0</ele><time>2026-04-24T11:19:57.288Z</time></trkpt><trkpt lat="46.2459923" lon="13.5336549"><ele>245.0</ele><time>2026-04-24T11:19:58.29Z</time></trkpt><trkpt lat="46.2460013" lon="13.5338661"><ele>245.0</ele><time>2026-04-24T11:19:59.288Z</time></trkpt><trkpt lat="46.2460117" lon="13.5340805"><ele>245.0</ele><time>2026-04-24T11:20:00.289Z</time></trkpt><trkpt lat="46.2460209" lon="13.5342932"><ele>244.75</ele><time>2026-04-24T11:20:01.288Z</time></trkpt><trkpt lat="46.2460334" lon="13.5345048"><ele>244.5</ele><time>2026-04-24T11:20:02.289Z</time></trkpt><trkpt lat="46.2460534" lon="13.5347188"><ele>244.25</ele><time>2026-04-24T11:20:03.288Z</time></trkpt><trkpt lat="46.2460723" lon="13.5349331"><ele>244.0</ele><time>2026-04-24T11:20:04.288Z</time></trkpt><trkpt lat="46.2460965" lon="13.5351445"><ele>243.33333333333331</ele><time>2026-04-24T11:20:05.29Z</time></trkpt><trkpt lat="46.2461222" lon="13.5353566"><ele>242.66666666666669</ele><time>2026-04-24T11:20:06.288Z</time></trkpt><trkpt lat="46.2461574" lon="13.5355717"><ele>242.0</ele><time>2026-04-24T11:20:07.288Z</time></trkpt><trkpt lat="46.2461859" lon="13.5357848"><ele>241.0</ele><time>2026-04-24T11:20:08.289Z</time></trkpt><trkpt lat="46.2462169" lon="13.5359981"><ele>240.0</ele><time>2026-04-24T11:20:09.289Z</time></trkpt><trkpt lat="46.2462477" lon="13.5362143"><ele>239.0</ele><time>2026-04-24T11:20:10.29Z</time></trkpt><trkpt lat="46.2462865" lon="13.5364272"><ele>239.0</ele><time>2026-04-24T11:20:11.289Z</time></trkpt><trkpt lat="46.2463211" lon="13.5366437"><ele>239.0</ele><time>2026-04-24T11:20:12.29Z</time></trkpt><trkpt lat="46.2463588" lon="13.5368573"><ele>239.0</ele><time>2026-04-24T11:20:13.288Z</time></trkpt><trkpt lat="46.2463904" lon="13.5370714"><ele>239.25</ele><time>2026-04-24T11:20:14.289Z</time></trkpt><trkpt lat="46.2464203" lon="13.5372872"><ele>239.5</ele><time>2026-04-24T11:20:15.288Z</time></trkpt><trkpt lat="46.2464511" lon="13.5374961"><ele>239.75</ele><time>2026-04-24T11:20:16.29Z</time></trkpt><trkpt lat="46.2464789" lon="13.5377026"><ele>240.0</ele><time>2026-04-24T11:20:17.289Z</time></trkpt><trkpt lat="46.2465119" lon="13.5379112"><ele>240.0</ele><time>2026-04-24T11:20:18.289Z</time></trkpt><trkpt lat="46.2465444" lon="13.5381191"><ele>240.0</ele><time>2026-04-24T11:20:19.289Z</time></trkpt><trkpt lat="46.2465796" lon="13.538319"><ele>240.0</ele><time>2026-04-24T11:20:20.289Z</time></trkpt><trkpt lat="46.2466161" lon="13.5385239"><ele>240.0</ele><time>2026-04-24T11:20:21.288Z</time></trkpt><trkpt lat="46.2466489" lon="13.5387354"><ele>240.33333333333331</ele><time>2026-04-24T11:20:22.29Z</time></trkpt><trkpt lat="46.2466781" lon="13.5389458"><ele>240.66666666666666</ele><time>2026-04-24T11:20:23.289Z</time></trkpt><trkpt lat="46.2466969" lon="13.5391653"><ele>241.0</ele><time>2026-04-24T11:20:24.289Z</time></trkpt><trkpt lat="46.2467103" lon="13.5393833"><ele>241.66666666666666</ele><time>2026-04-24T11:20:25.289Z</time></trkpt><trkpt lat="46.2467202" lon="13.5396019"><ele>242.33333333333331</ele><time>2026-04-24T11:20:26.289Z</time></trkpt><trkpt lat="46.2467294" lon="13.5398253"><ele>243.0</ele><time>2026-04-24T11:20:27.288Z</time></trkpt><trkpt lat="46.2467394" lon="13.5400537"><ele>243.0</ele><time>2026-04-24T11:20:28.29Z</time></trkpt><trkpt lat="46.2467497" lon="13.5402787"><ele>243.0</ele><time>2026-04-24T11:20:29.289Z</time></trkpt><trkpt lat="46.2467713" lon="13.5405001"><ele>243.0</ele><time>2026-04-24T11:20:30.29Z</time></trkpt><trkpt lat="46.2468062" lon="13.5407123"><ele>243.0</ele><time>2026-04-24T11:20:31.289Z</time></trkpt><trkpt lat="46.2468442" lon="13.5409268"><ele>243.0</ele><time>2026-04-24T11:20:32.289Z</time></trkpt><trkpt lat="46.2468887" lon="13.5411389"><ele>243.0</ele><time>2026-04-24T11:20:33.29Z</time></trkpt><trkpt lat="46.2469406" lon="13.5413552"><ele>242.33333333333331</ele><time>2026-04-24T11:20:34.288Z</time></trkpt><trkpt lat="46.2469934" lon="13.5415713"><ele>241.66666666666666</ele><time>2026-04-24T11:20:35.289Z</time></trkpt><trkpt lat="46.2470435" lon="13.5417937"><ele>241.0</ele><time>2026-04-24T11:20:36.288Z</time></trkpt><trkpt lat="46.2470916" lon="13.5420141"><ele>239.66666666666666</ele><time>2026-04-24T11:20:37.288Z</time></trkpt><trkpt lat="46.2471429" lon="13.5422387"><ele>238.33333333333331</ele><time>2026-04-24T11:20:38.29Z</time></trkpt><trkpt lat="46.2471922" lon="13.5424624"><ele>237.0</ele><time>2026-04-24T11:20:39.289Z</time></trkpt><trkpt lat="46.2472404" lon="13.5426862"><ele>239.33333333333331</ele><time>2026-04-24T11:20:40.289Z</time></trkpt><trkpt lat="46.2472942" lon="13.5429157"><ele>241.66666666666666</ele><time>2026-04-24T11:20:41.289Z</time></trkpt><trkpt lat="46.2473462" lon="13.5431492"><ele>244.0</ele><time>2026-04-24T11:20:42.288Z</time></trkpt><trkpt lat="46.2473974" lon="13.5433799"><ele>244.0</ele><time>2026-04-24T11:20:43.289Z</time></trkpt><trkpt lat="46.2474471" lon="13.5436114"><ele>244.0</ele><time>2026-04-24T11:20:44.288Z</time></trkpt><trkpt lat="46.2474916" lon="13.543843"><ele>244.0</ele><time>2026-04-24T11:20:45.288Z</time></trkpt><trkpt lat="46.2475212" lon="13.5440786"><ele>242.66666666666666</ele><time>2026-04-24T11:20:46.289Z</time></trkpt><trkpt lat="46.2475428" lon="13.5443138"><ele>241.33333333333331</ele><time>2026-04-24T11:20:47.289Z</time></trkpt><trkpt lat="46.2475603" lon="13.5445488"><ele>240.0</ele><time>2026-04-24T11:20:48.289Z</time></trkpt><trkpt lat="46.2475713" lon="13.5447859"><ele>239.66666666666669</ele><time>2026-04-24T11:20:49.29Z</time></trkpt><trkpt lat="46.2475758" lon="13.5450186"><ele>239.33333333333334</ele><time>2026-04-24T11:20:50.288Z</time></trkpt><trkpt lat="46.2475708" lon="13.5452525"><ele>239.0</ele><time>2026-04-24T11:20:51.289Z</time></trkpt><trkpt lat="46.2475554" lon="13.5454832"><ele>238.66666666666669</ele><time>2026-04-24T11:20:52.288Z</time></trkpt><trkpt lat="46.247534" lon="13.5457139"><ele>238.33333333333331</ele><time>2026-04-24T11:20:53.29Z</time></trkpt><trkpt lat="46.2475104" lon="13.5459463"><ele>238.0</ele><time>2026-04-24T11:20:54.289Z</time></trkpt><trkpt lat="46.2474784" lon="13.5461765"><ele>241.0</ele><time>2026-04-24T11:20:55.289Z</time></trkpt><trkpt lat="46.2474412" lon="13.5464042"><ele>244.0</ele><time>2026-04-24T11:20:56.288Z</time></trkpt><trkpt lat="46.247407" lon="13.5466221"><ele>247.0</ele><time>2026-04-24T11:20:57.289Z</time></trkpt><trkpt lat="46.247363" lon="13.5468449"><ele>248.33333333333331</ele><time>2026-04-24T11:20:58.289Z</time></trkpt><trkpt lat="46.2473313" lon="13.5470668"><ele>249.66666666666669</ele><time>2026-04-24T11:20:59.29Z</time></trkpt><trkpt lat="46.2472993" lon="13.5472878"><ele>251.0</ele><time>2026-04-24T11:21:00.29Z</time></trkpt><trkpt lat="46.2472747" lon="13.5475195"><ele>246.0</ele><time>2026-04-24T11:21:01.288Z</time></trkpt><trkpt lat="46.247252" lon="13.5477458"><ele>241.0</ele><time>2026-04-24T11:21:02.289Z</time></trkpt><trkpt lat="46.2472324" lon="13.5479711"><ele>236.0</ele><time>2026-04-24T11:21:03.289Z</time></trkpt><trkpt lat="46.2472111" lon="13.548194"><ele>236.0</ele><time>2026-04-24T11:21:04.288Z</time></trkpt><trkpt lat="46.2471897" lon="13.5484163"><ele>236.0</ele><time>2026-04-24T11:21:05.289Z</time></trkpt><trkpt lat="46.2471748" lon="13.548637"><ele>236.0</ele><time>2026-04-24T11:21:06.288Z</time></trkpt><trkpt lat="46.2471588" lon="13.5488571"><ele>236.0</ele><time>2026-04-24T11:21:07.29Z</time></trkpt><trkpt lat="46.2471572" lon="13.5490766"><ele>236.0</ele><time>2026-04-24T11:21:08.29Z</time></trkpt><trkpt lat="46.2471739" lon="13.549286"><ele>236.0</ele><time>2026-04-24T11:21:09.288Z</time></trkpt><trkpt lat="46.2472127" lon="13.5494981"><ele>236.0</ele><time>2026-04-24T11:21:10.289Z</time></trkpt><trkpt lat="46.2472662" lon="13.5496996"><ele>239.33333333333334</ele><time>2026-04-24T11:21:11.289Z</time></trkpt><trkpt lat="46.2473323" lon="13.5498996"><ele>242.66666666666669</ele><time>2026-04-24T11:21:12.289Z</time></trkpt><trkpt lat="46.2474038" lon="13.5500966"><ele>246.0</ele><time>2026-04-24T11:21:13.289Z</time></trkpt><trkpt lat="46.2474732" lon="13.5502963"><ele>244.66666666666669</ele><time>2026-04-24T11:21:14.289Z</time></trkpt><trkpt lat="46.2475384" lon="13.5505068"><ele>243.33333333333334</ele><time>2026-04-24T11:21:15.289Z</time></trkpt><trkpt lat="46.2475886" lon="13.5507265"><ele>242.0</ele><time>2026-04-24T11:21:16.289Z</time></trkpt><trkpt lat="46.2476273" lon="13.5509484"><ele>242.0</ele><time>2026-04-24T11:21:17.29Z</time></trkpt><trkpt lat="46.2476657" lon="13.5511696"><ele>242.0</ele><time>2026-04-24T11:21:18.289Z</time></trkpt><trkpt lat="46.2476996" lon="13.5513921"><ele>242.0</ele><time>2026-04-24T11:21:19.289Z</time></trkpt><trkpt lat="46.2477297" lon="13.5516128"><ele>241.33333333333334</ele><time>2026-04-24T11:21:20.289Z</time></trkpt><trkpt lat="46.2477607" lon="13.5518366"><ele>240.66666666666669</ele><time>2026-04-24T11:21:21.289Z</time></trkpt><trkpt lat="46.247789" lon="13.5520639"><ele>240.0</ele><time>2026-04-24T11:21:22.288Z</time></trkpt><trkpt lat="46.2478179" lon="13.5522908"><ele>239.33333333333331</ele><time>2026-04-24T11:21:23.29Z</time></trkpt><trkpt lat="46.2478474" lon="13.552516"><ele>238.66666666666666</ele><time>2026-04-24T11:21:24.289Z</time></trkpt><trkpt lat="46.2478887" lon="13.5527404"><ele>238.0</ele><time>2026-04-24T11:21:25.288Z</time></trkpt><trkpt lat="46.2479272" lon="13.5529639"><ele>238.0</ele><time>2026-04-24T11:21:26.289Z</time></trkpt><trkpt lat="46.247964" lon="13.553187"><ele>238.0</ele><time>2026-04-24T11:21:27.289Z</time></trkpt><trkpt lat="46.248019" lon="13.5534047"><ele>238.0</ele><time>2026-04-24T11:21:28.288Z</time></trkpt><trkpt lat="46.2480764" lon="13.55362"><ele>241.0</ele><time>2026-04-24T11:21:29.289Z</time></trkpt><trkpt lat="46.2481408" lon="13.5538349"><ele>244.0</ele><time>2026-04-24T11:21:30.289Z</time></trkpt><trkpt lat="46.2482031" lon="13.5540524"><ele>247.0</ele><time>2026-04-24T11:21:31.289Z</time></trkpt><trkpt lat="46.2482747" lon="13.5542638"><ele>247.0</ele><time>2026-04-24T11:21:32.289Z</time></trkpt><trkpt lat="46.2483392" lon="13.5544735"><ele>247.0</ele><time>2026-04-24T11:21:33.288Z</time></trkpt><trkpt lat="46.2483966" lon="13.5546882"><ele>247.0</ele><time>2026-04-24T11:21:34.289Z</time></trkpt><trkpt lat="46.2484501" lon="13.5549162"><ele>246.0</ele><time>2026-04-24T11:21:35.289Z</time></trkpt><trkpt lat="46.2485046" lon="13.5551378"><ele>245.0</ele><time>2026-04-24T11:21:36.289Z</time></trkpt><trkpt lat="46.2485552" lon="13.5553598"><ele>244.0</ele><time>2026-04-24T11:21:37.289Z</time></trkpt><trkpt lat="46.2485862" lon="13.5555866"><ele>243.66666666666666</ele><time>2026-04-24T11:21:38.289Z</time></trkpt><trkpt lat="46.24861" lon="13.5558157"><ele>243.33333333333331</ele><time>2026-04-24T11:21:39.29Z</time></trkpt><trkpt lat="46.2486436" lon="13.5560357"><ele>243.0</ele><time>2026-04-24T11:21:40.289Z</time></trkpt><trkpt lat="46.2486617" lon="13.5562569"><ele>241.33333333333331</ele><time>2026-04-24T11:21:41.289Z</time></trkpt><trkpt lat="46.24869" lon="13.5564792"><ele>239.66666666666666</ele><time>2026-04-24T11:21:42.29Z</time></trkpt><trkpt lat="46.2487122" lon="13.5567071"><ele>238.0</ele><time>2026-04-24T11:21:43.289Z</time></trkpt><trkpt lat="46.2487438" lon="13.5569374"><ele>237.66666666666666</ele><time>2026-04-24T11:21:44.288Z</time></trkpt><trkpt lat="46.2487698" lon="13.5571704"><ele>237.33333333333331</ele><time>2026-04-24T11:21:45.29Z</time></trkpt><trkpt lat="46.248793" lon="13.5574008"><ele>237.0</ele><time>2026-04-24T11:21:46.289Z</time></trkpt><trkpt lat="46.2488155" lon="13.5576324"><ele>237.0</ele><time>2026-04-24T11:21:47.29Z</time></trkpt><trkpt lat="46.2488398" lon="13.5578681"><ele>237.0</ele><time>2026-04-24T11:21:48.288Z</time></trkpt><trkpt lat="46.2488722" lon="13.5581067"><ele>237.0</ele><time>2026-04-24T11:21:49.288Z</time></trkpt><trkpt lat="46.248901" lon="13.5583428"><ele>237.33333333333331</ele><time>2026-04-24T11:21:50.29Z</time></trkpt><trkpt lat="46.2489266" lon="13.5585762"><ele>237.66666666666666</ele><time>2026-04-24T11:21:51.288Z</time></trkpt><trkpt lat="46.248952" lon="13.5588021"><ele>238.0</ele><time>2026-04-24T11:21:52.29Z</time></trkpt><trkpt lat="46.2489767" lon="13.5590288"><ele>241.66666666666666</ele><time>2026-04-24T11:21:53.29Z</time></trkpt><trkpt lat="46.2490053" lon="13.559251"><ele>245.33333333333331</ele><time>2026-04-24T11:21:54.288Z</time></trkpt><trkpt lat="46.249032" lon="13.5594697"><ele>249.0</ele><time>2026-04-24T11:21:55.29Z</time></trkpt><trkpt lat="46.2490462" lon="13.5596983"><ele>249.0</ele><time>2026-04-24T11:21:56.289Z</time></trkpt><trkpt lat="46.2490745" lon="13.5599166"><ele>249.0</ele><time>2026-04-24T11:21:57.288Z</time></trkpt><trkpt lat="46.2491116" lon="13.5601349"><ele>249.0</ele><time>2026-04-24T11:21:58.29Z</time></trkpt><trkpt lat="46.2491285" lon="13.5603633"><ele>247.66666666666669</ele><time>2026-04-24T11:21:59.288Z</time></trkpt><trkpt lat="46.2491537" lon="13.5605842"><ele>246.33333333333334</ele><time>2026-04-24T11:22:00.288Z</time></trkpt><trkpt lat="46.2491935" lon="13.5608134"><ele>245.0</ele><time>2026-04-24T11:22:01.289Z</time></trkpt><trkpt lat="46.2492197" lon="13.5610639"><ele>244.66666666666669</ele><time>2026-04-24T11:22:02.289Z</time></trkpt><trkpt lat="46.2492442" lon="13.5613187"><ele>244.33333333333331</ele><time>2026-04-24T11:22:03.289Z</time></trkpt><trkpt lat="46.2492738" lon="13.5615599"><ele>244.0</ele><time>2026-04-24T11:22:04.289Z</time></trkpt><trkpt lat="46.2493026" lon="13.5618168"><ele>243.0</ele><time>2026-04-24T11:22:05.289Z</time></trkpt><trkpt lat="46.24933" lon="13.5620627"><ele>242.0</ele><time>2026-04-24T11:22:06.288Z</time></trkpt><trkpt lat="46.2493608" lon="13.562317"><ele>241.0</ele><time>2026-04-24T11:22:07.289Z</time></trkpt><trkpt lat="46.2493914" lon="13.5625672"><ele>241.0</ele><time>2026-04-24T11:22:08.289Z</time></trkpt><trkpt lat="46.2494223" lon="13.5628204"><ele>241.0</ele><time>2026-04-24T11:22:09.29Z</time></trkpt><trkpt lat="46.2494532" lon="13.563062"><ele>241.0</ele><time>2026-04-24T11:22:10.289Z</time></trkpt><trkpt lat="46.2494883" lon="13.5632995"><ele>240.66666666666666</ele><time>2026-04-24T11:22:11.288Z</time></trkpt><trkpt lat="46.249525" lon="13.5635312"><ele>240.33333333333331</ele><time>2026-04-24T11:22:12.289Z</time></trkpt><trkpt lat="46.2495642" lon="13.5637644"><ele>240.0</ele><time>2026-04-24T11:22:13.288Z</time></trkpt><trkpt lat="46.2496075" lon="13.5639892"><ele>238.33333333333331</ele><time>2026-04-24T11:22:14.289Z</time></trkpt><trkpt lat="46.2496573" lon="13.564215"><ele>236.66666666666666</ele><time>2026-04-24T11:22:15.29Z</time></trkpt><trkpt lat="46.2497007" lon="13.5644355"><ele>235.0</ele><time>2026-04-24T11:22:16.29Z</time></trkpt><trkpt lat="46.2497369" lon="13.5646532"><ele>235.0</ele><time>2026-04-24T11:22:17.288Z</time></trkpt><trkpt lat="46.2497643" lon="13.5648694"><ele>235.0</ele><time>2026-04-24T11:22:18.288Z</time></trkpt><trkpt lat="46.2497985" lon="13.5650855"><ele>235.0</ele><time>2026-04-24T11:22:19.288Z</time></trkpt><trkpt lat="46.2498469" lon="13.5653029"><ele>239.0</ele><time>2026-04-24T11:22:20.288Z</time></trkpt><trkpt lat="46.2498732" lon="13.5655186"><ele>243.0</ele><time>2026-04-24T11:22:21.288Z</time></trkpt><trkpt lat="46.2499025" lon="13.5657316"><ele>247.0</ele><time>2026-04-24T11:22:22.287Z</time></trkpt><trkpt lat="46.2499191" lon="13.5659549"><ele>247.0</ele><time>2026-04-24T11:22:23.287Z</time></trkpt><trkpt lat="46.2499168" lon="13.5661788"><ele>247.0</ele><time>2026-04-24T11:22:24.288Z</time></trkpt><trkpt lat="46.2498981" lon="13.5663994"><ele>247.0</ele><time>2026-04-24T11:22:25.288Z</time></trkpt><trkpt lat="46.2498834" lon="13.5666301"><ele>249.0</ele><time>2026-04-24T11:22:26.288Z</time></trkpt><trkpt lat="46.2498674" lon="13.5668539"><ele>251.0</ele><time>2026-04-24T11:22:27.288Z</time></trkpt><trkpt lat="46.2498439" lon="13.5670776"><ele>253.0</ele><time>2026-04-24T11:22:28.289Z</time></trkpt><trkpt lat="46.2498152" lon="13.5673123"><ele>254.33333333333331</ele><time>2026-04-24T11:22:29.287Z</time></trkpt><trkpt lat="46.2497929" lon="13.5675453"><ele>255.66666666666669</ele><time>2026-04-24T11:22:30.287Z</time></trkpt><trkpt lat="46.2497747" lon="13.567778"><ele>257.0</ele><time>2026-04-24T11:22:31.288Z</time></trkpt><trkpt lat="46.2497577" lon="13.5680099"><ele>251.66666666666669</ele><time>2026-04-24T11:22:32.289Z</time></trkpt><trkpt lat="46.2497291" lon="13.568249"><ele>246.33333333333331</ele><time>2026-04-24T11:22:33.288Z</time></trkpt><trkpt lat="46.2497081" lon="13.5684866"><ele>241.0</ele><time>2026-04-24T11:22:34.287Z</time></trkpt><trkpt lat="46.2496879" lon="13.5687215"><ele>241.0</ele><time>2026-04-24T11:22:35.287Z</time></trkpt><trkpt lat="46.2496684" lon="13.5689543"><ele>241.0</ele><time>2026-04-24T11:22:36.288Z</time></trkpt><trkpt lat="46.2496492" lon="13.5691852"><ele>241.0</ele><time>2026-04-24T11:22:37.288Z</time></trkpt><trkpt lat="46.2496128" lon="13.5694255"><ele>241.0</ele><time>2026-04-24T11:22:38.288Z</time></trkpt><trkpt lat="46.2495959" lon="13.5696568"><ele>241.0</ele><time>2026-04-24T11:22:39.288Z</time></trkpt><trkpt lat="46.2495592" lon="13.5698906"><ele>241.0</ele><time>2026-04-24T11:22:40.288Z</time></trkpt><trkpt lat="46.2495059" lon="13.5701259"><ele>241.0</ele><time>2026-04-24T11:22:41.288Z</time></trkpt><trkpt lat="46.2494619" lon="13.5703529"><ele>241.0</ele><time>2026-04-24T11:22:42.288Z</time></trkpt><trkpt lat="46.2494195" lon="13.5705779"><ele>241.0</ele><time>2026-04-24T11:22:43.288Z</time></trkpt><trkpt lat="46.2493744" lon="13.5708029"><ele>242.0</ele><time>2026-04-24T11:22:44.288Z</time></trkpt><trkpt lat="46.2493252" lon="13.5710264"><ele>243.0</ele><time>2026-04-24T11:22:45.289Z</time></trkpt><trkpt lat="46.249281" lon="13.5712554"><ele>244.0</ele><time>2026-04-24T11:22:46.288Z</time></trkpt><trkpt lat="46.2492361" lon="13.571476"><ele>246.0</ele><time>2026-04-24T11:22:47.287Z</time></trkpt><trkpt lat="46.2491873" lon="13.5716997"><ele>248.0</ele><time>2026-04-24T11:22:48.287Z</time></trkpt><trkpt lat="46.2491332" lon="13.5719226"><ele>250.0</ele><time>2026-04-24T11:22:49.289Z</time></trkpt><trkpt lat="46.2490855" lon="13.572143"><ele>252.0</ele><time>2026-04-24T11:22:50.287Z</time></trkpt><trkpt lat="46.249054" lon="13.5723705"><ele>254.0</ele><time>2026-04-24T11:22:51.289Z</time></trkpt><trkpt lat="46.2490181" lon="13.5725858"><ele>256.0</ele><time>2026-04-24T11:22:52.289Z</time></trkpt><trkpt lat="46.2489737" lon="13.5728119"><ele>249.33333333333331</ele><time>2026-04-24T11:22:53.288Z</time></trkpt><trkpt lat="46.2489262" lon="13.5730369"><ele>242.66666666666669</ele><time>2026-04-24T11:22:54.287Z</time></trkpt><trkpt lat="46.248882" lon="13.5732604"><ele>236.0</ele><time>2026-04-24T11:22:55.289Z</time></trkpt><trkpt lat="46.2488357" lon="13.5734895"><ele>236.0</ele><time>2026-04-24T11:22:56.287Z</time></trkpt><trkpt lat="46.2487908" lon="13.5737067"><ele>236.0</ele><time>2026-04-24T11:22:57.288Z</time></trkpt><trkpt lat="46.2487432" lon="13.5739363"><ele>236.0</ele><time>2026-04-24T11:22:58.289Z</time></trkpt><trkpt lat="46.2486947" lon="13.5741611"><ele>236.0</ele><time>2026-04-24T11:22:59.289Z</time></trkpt><trkpt lat="46.2486475" lon="13.5743856"><ele>236.0</ele><time>2026-04-24T11:23:00.287Z</time></trkpt><trkpt lat="46.2485989" lon="13.5746053"><ele>236.0</ele><time>2026-04-24T11:23:01.288Z</time></trkpt><trkpt lat="46.2485509" lon="13.5748314"><ele>236.0</ele><time>2026-04-24T11:23:02.288Z</time></trkpt><trkpt lat="46.2485061" lon="13.5750452"><ele>236.0</ele><time>2026-04-24T11:23:03.289Z</time></trkpt><trkpt lat="46.2484654" lon="13.575264"><ele>236.0</ele><time>2026-04-24T11:23:04.288Z</time></trkpt><trkpt lat="46.248417" lon="13.5754827"><ele>236.0</ele><time>2026-04-24T11:23:05.288Z</time></trkpt><trkpt lat="46.2483727" lon="13.5756972"><ele>236.0</ele><time>2026-04-24T11:23:06.289Z</time></trkpt><trkpt lat="46.2483291" lon="13.5759132"><ele>236.0</ele><time>2026-04-24T11:23:07.287Z</time></trkpt><trkpt lat="46.2482849" lon="13.5761191"><ele>236.25</ele><time>2026-04-24T11:23:08.287Z</time></trkpt><trkpt lat="46.2482424" lon="13.5763112"><ele>236.5</ele><time>2026-04-24T11:23:09.287Z</time></trkpt><trkpt lat="46.2481994" lon="13.5764874"><ele>236.75</ele><time>2026-04-24T11:23:10.289Z</time></trkpt><trkpt lat="46.2481666" lon="13.5766452"><ele>237.0</ele><time>2026-04-24T11:23:11.289Z</time></trkpt><trkpt lat="46.2481371" lon="13.576792"><ele>237.16666666666666</ele><time>2026-04-24T11:23:12.289Z</time></trkpt><trkpt lat="46.2481101" lon="13.5769235"><ele>237.33333333333331</ele><time>2026-04-24T11:23:13.288Z</time></trkpt><trkpt lat="46.2480835" lon="13.5770471"><ele>237.5</ele><time>2026-04-24T11:23:14.288Z</time></trkpt><trkpt lat="46.2480603" lon="13.5771642"><ele>237.66666666666666</ele><time>2026-04-24T11:23:15.288Z</time></trkpt><trkpt lat="46.2480373" lon="13.5772749"><ele>237.83333333333331</ele><time>2026-04-24T11:23:16.287Z</time></trkpt><trkpt lat="46.2480083" lon="13.5773817"><ele>238.0</ele><time>2026-04-24T11:23:17.287Z</time></trkpt><trkpt lat="46.2479881" lon="13.5774922"><ele>238.16666666666666</ele><time>2026-04-24T11:23:18.288Z</time></trkpt><trkpt lat="46.2479573" lon="13.5776001"><ele>238.33333333333331</ele><time>2026-04-24T11:23:19.288Z</time></trkpt><trkpt lat="46.2479244" lon="13.5777139"><ele>238.5</ele><time>2026-04-24T11:23:20.287Z</time></trkpt><trkpt lat="46.2478861" lon="13.5778323"><ele>238.66666666666669</ele><time>2026-04-24T11:23:21.288Z</time></trkpt><trkpt lat="46.2478477" lon="13.5779542"><ele>238.83333333333334</ele><time>2026-04-24T11:23:22.288Z</time></trkpt><trkpt lat="46.2478145" lon="13.5780733"><ele>239.0</ele><time>2026-04-24T11:23:23.287Z</time></trkpt><trkpt lat="46.2477746" lon="13.5781846"><ele>239.14285714285717</ele><time>2026-04-24T11:23:24.288Z</time></trkpt><trkpt lat="46.2477423" lon="13.5782868"><ele>239.28571428571428</ele><time>2026-04-24T11:23:25.287Z</time></trkpt><trkpt lat="46.2477112" lon="13.5783908"><ele>239.42857142857144</ele><time>2026-04-24T11:23:26.289Z</time></trkpt><trkpt lat="46.2476856" lon="13.5784928"><ele>239.57142857142858</ele><time>2026-04-24T11:23:27.287Z</time></trkpt><trkpt lat="46.2476565" lon="13.5785931"><ele>239.71428571428572</ele><time>2026-04-24T11:23:28.289Z</time></trkpt><trkpt lat="46.2476322" lon="13.5786817"><ele>239.85714285714286</ele><time>2026-04-24T11:23:29.288Z</time></trkpt><trkpt lat="46.2476121" lon="13.5787758"><ele>240.0</ele><time>2026-04-24T11:23:30.288Z</time></trkpt><trkpt lat="46.2476082" lon="13.5788687"><ele>239.66666666666666</ele><time>2026-04-24T11:23:31.287Z</time></trkpt><trkpt lat="46.2475916" lon="13.5790236"><ele>239.33333333333331</ele><time>2026-04-24T11:23:33.288Z</time></trkpt><trkpt lat="46.2475094" lon="13.5791647"><ele>239.0</ele><time>2026-04-24T11:23:35.287Z</time></trkpt><trkpt lat="46.247451" lon="13.5792301"><ele>238.66666666666666</ele><time>2026-04-24T11:23:36.289Z</time></trkpt><trkpt lat="46.2473929" lon="13.5792799"><ele>238.33333333333331</ele><time>2026-04-24T11:23:37.288Z</time></trkpt><trkpt lat="46.2473237" lon="13.5793051"><ele>238.0</ele><time>2026-04-24T11:23:38.288Z</time></trkpt><trkpt lat="46.2472478" lon="13.5793157"><ele>237.99999999999997</ele><time>2026-04-24T11:23:39.288Z</time></trkpt><trkpt lat="46.2471622" lon="13.5793073"><ele>238.0</ele><time>2026-04-24T11:23:40.288Z</time></trkpt><trkpt lat="46.2470816" lon="13.5792976"><ele>238.0</ele><time>2026-04-24T11:23:41.289Z</time></trkpt><trkpt lat="46.2470004" lon="13.5792878"><ele>238.0</ele><time>2026-04-24T11:23:42.288Z</time></trkpt><trkpt lat="46.2469166" lon="13.5792774"><ele>237.99999999999997</ele><time>2026-04-24T11:23:43.287Z</time></trkpt><trkpt lat="46.2468316" lon="13.5792663"><ele>238.0</ele><time>2026-04-24T11:23:44.288Z</time></trkpt><trkpt lat="46.2467484" lon="13.5792435"><ele>237.99999999999997</ele><time>2026-04-24T11:23:45.287Z</time></trkpt><trkpt lat="46.246671" lon="13.5792481"><ele>238.0</ele><time>2026-04-24T11:23:46.288Z</time></trkpt><trkpt lat="46.2466011" lon="13.5792464"><ele>238.0</ele><time>2026-04-24T11:23:47.289Z</time></trkpt><trkpt lat="46.2465146" lon="13.5791663"><ele>238.0</ele><time>2026-04-24T11:23:48.288Z</time></trkpt><trkpt lat="46.2464322" lon="13.5791304"><ele>237.99999999999997</ele><time>2026-04-24T11:23:49.288Z</time></trkpt><trkpt lat="46.2463383" lon="13.5790958"><ele>238.0</ele><time>2026-04-24T11:23:50.287Z</time></trkpt><trkpt lat="46.2462462" lon="13.5790582"><ele>238.0</ele><time>2026-04-24T11:23:51.288Z</time></trkpt><trkpt lat="46.2461575" lon="13.579024"><ele>238.0</ele><time>2026-04-24T11:23:52.288Z</time></trkpt><trkpt lat="46.2460743" lon="13.5789818"><ele>238.0</ele><time>2026-04-24T11:23:53.288Z</time></trkpt><trkpt lat="46.2459924" lon="13.5789346"><ele>238.0</ele><time>2026-04-24T11:23:54.288Z</time></trkpt><trkpt lat="46.2459135" lon="13.5788759"><ele>238.0</ele><time>2026-04-24T11:23:55.289Z</time></trkpt><trkpt lat="46.2458343" lon="13.5788023"><ele>237.99999999999997</ele><time>2026-04-24T11:23:56.287Z</time></trkpt><trkpt lat="46.2457555" lon="13.5787298"><ele>238.0</ele><time>2026-04-24T11:23:57.287Z</time></trkpt><trkpt lat="46.2456775" lon="13.578655"><ele>238.0</ele><time>2026-04-24T11:23:58.288Z</time></trkpt><trkpt lat="46.245602" lon="13.5785849"><ele>238.0</ele><time>2026-04-24T11:23:59.288Z</time></trkpt><trkpt lat="46.2455277" lon="13.5785182"><ele>237.99999999999997</ele><time>2026-04-24T11:24:00.288Z</time></trkpt><trkpt lat="46.2454528" lon="13.57846"><ele>238.0</ele><time>2026-04-24T11:24:01.287Z</time></trkpt><trkpt lat="46.245375" lon="13.5784214"><ele>237.49999999999997</ele><time>2026-04-24T11:24:02.287Z</time></trkpt><trkpt lat="46.2452961" lon="13.5783979"><ele>237.0</ele><time>2026-04-24T11:24:03.289Z</time></trkpt><trkpt lat="46.245215" lon="13.5784048"><ele>236.5</ele><time>2026-04-24T11:24:04.288Z</time></trkpt><trkpt lat="46.2451334" lon="13.5784376"><ele>236.0</ele><time>2026-04-24T11:24:05.289Z</time></trkpt><trkpt lat="46.2450564" lon="13.5784913"><ele>235.49999999999997</ele><time>2026-04-24T11:24:06.288Z</time></trkpt><trkpt lat="46.2449866" lon="13.5785548"><ele>235.0</ele><time>2026-04-24T11:24:07.288Z</time></trkpt><trkpt lat="46.244927" lon="13.5786255"><ele>234.99999999999997</ele><time>2026-04-24T11:24:08.288Z</time></trkpt><trkpt lat="46.2448737" lon="13.5787005"><ele>235.0</ele><time>2026-04-24T11:24:09.288Z</time></trkpt><trkpt lat="46.2448233" lon="13.5787709"><ele>235.0</ele><time>2026-04-24T11:24:10.288Z</time></trkpt><trkpt lat="46.2447678" lon="13.5788439"><ele>235.0</ele><time>2026-04-24T11:24:11.287Z</time></trkpt><trkpt lat="46.2447083" lon="13.5789271"><ele>234.99999999999997</ele><time>2026-04-24T11:24:12.289Z</time></trkpt><trkpt lat="46.2446432" lon="13.5790162"><ele>235.0</ele><time>2026-04-24T11:24:13.288Z</time></trkpt><trkpt lat="46.2445771" lon="13.5791057"><ele>235.0</ele><time>2026-04-24T11:24:14.287Z</time></trkpt><trkpt lat="46.2445045" lon="13.5792001"><ele>235.0</ele><time>2026-04-24T11:24:15.289Z</time></trkpt><trkpt lat="46.2444307" lon="13.5792989"><ele>235.0</ele><time>2026-04-24T11:24:16.288Z</time></trkpt><trkpt lat="46.2443513" lon="13.579402"><ele>235.0</ele><time>2026-04-24T11:24:17.288Z</time></trkpt><trkpt lat="46.2442683" lon="13.5795107"><ele>235.0</ele><time>2026-04-24T11:24:18.289Z</time></trkpt><trkpt lat="46.2441841" lon="13.5796241"><ele>234.75</ele><time>2026-04-24T11:24:19.287Z</time></trkpt><trkpt lat="46.2440959" lon="13.579741"><ele>234.5</ele><time>2026-04-24T11:24:20.287Z</time></trkpt><trkpt lat="46.2440112" lon="13.579861"><ele>234.25</ele><time>2026-04-24T11:24:21.288Z</time></trkpt><trkpt lat="46.2439222" lon="13.5799835"><ele>234.0</ele><time>2026-04-24T11:24:22.287Z</time></trkpt><trkpt lat="46.2438313" lon="13.5801014"><ele>232.0</ele><time>2026-04-24T11:24:23.288Z</time></trkpt><trkpt lat="46.243743" lon="13.5802293"><ele>230.0</ele><time>2026-04-24T11:24:24.287Z</time></trkpt><trkpt lat="46.2436544" lon="13.5803554"><ele>228.0</ele><time>2026-04-24T11:24:25.289Z</time></trkpt><trkpt lat="46.2435677" lon="13.5804744"><ele>226.0</ele><time>2026-04-24T11:24:26.287Z</time></trkpt><trkpt lat="46.2434831" lon="13.5805877"><ele>225.99999999999997</ele><time>2026-04-24T11:24:27.289Z</time></trkpt><trkpt lat="46.2434046" lon="13.5806876"><ele>226.0</ele><time>2026-04-24T11:24:28.288Z</time></trkpt><trkpt lat="46.2433319" lon="13.5807665"><ele>226.0</ele><time>2026-04-24T11:24:29.289Z</time></trkpt><trkpt lat="46.2432659" lon="13.5808402"><ele>226.0</ele><time>2026-04-24T11:24:30.289Z</time></trkpt><trkpt lat="46.2432052" lon="13.5809063"><ele>225.99999999999997</ele><time>2026-04-24T11:24:31.288Z</time></trkpt><trkpt lat="46.2431524" lon="13.5809576"><ele>226.0</ele><time>2026-04-24T11:24:32.287Z</time></trkpt><trkpt lat="46.2430901" lon="13.5809937"><ele>224.83333333333331</ele><time>2026-04-24T11:24:33.288Z</time></trkpt><trkpt lat="46.2430201" lon="13.581023"><ele>223.66666666666666</ele><time>2026-04-24T11:24:34.288Z</time></trkpt><trkpt lat="46.2429597" lon="13.5810911"><ele>222.5</ele><time>2026-04-24T11:24:35.287Z</time></trkpt><trkpt lat="46.2429227" lon="13.5811872"><ele>221.33333333333331</ele><time>2026-04-24T11:24:36.288Z</time></trkpt><trkpt lat="46.2428852" lon="13.5813082"><ele>220.16666666666666</ele><time>2026-04-24T11:24:37.288Z</time></trkpt><trkpt lat="46.2428304" lon="13.5814266"><ele>219.0</ele><time>2026-04-24T11:24:38.289Z</time></trkpt><trkpt lat="46.2427745" lon="13.5815354"><ele>218.6</ele><time>2026-04-24T11:24:39.288Z</time></trkpt><trkpt lat="46.2427139" lon="13.5816456"><ele>218.2</ele><time>2026-04-24T11:24:40.289Z</time></trkpt><trkpt lat="46.2426411" lon="13.5817546"><ele>217.79999999999998</ele><time>2026-04-24T11:24:41.287Z</time></trkpt><trkpt lat="46.2425655" lon="13.5818645"><ele>217.39999999999998</ele><time>2026-04-24T11:24:42.288Z</time></trkpt><trkpt lat="46.242483" lon="13.5819795"><ele>217.0</ele><time>2026-04-24T11:24:43.289Z</time></trkpt><trkpt lat="46.2423938" lon="13.5820992"><ele>217.0</ele><time>2026-04-24T11:24:44.288Z</time></trkpt><trkpt lat="46.2423025" lon="13.5822212"><ele>217.0</ele><time>2026-04-24T11:24:45.288Z</time></trkpt><trkpt lat="46.2422111" lon="13.5823479"><ele>217.0</ele><time>2026-04-24T11:24:46.287Z</time></trkpt><trkpt lat="46.2421183" lon="13.5824761"><ele>217.0</ele><time>2026-04-24T11:24:47.289Z</time></trkpt><trkpt lat="46.2420236" lon="13.5826038"><ele>217.5</ele><time>2026-04-24T11:24:48.288Z</time></trkpt><trkpt lat="46.2419261" lon="13.5827343"><ele>218.0</ele><time>2026-04-24T11:24:49.288Z</time></trkpt><trkpt lat="46.2418311" lon="13.5828659"><ele>218.5</ele><time>2026-04-24T11:24:50.287Z</time></trkpt><trkpt lat="46.2417384" lon="13.5829976"><ele>219.0</ele><time>2026-04-24T11:24:51.289Z</time></trkpt><trkpt lat="46.2416417" lon="13.5831314"><ele>219.25</ele><time>2026-04-24T11:24:52.287Z</time></trkpt><trkpt lat="46.2415382" lon="13.5832536"><ele>219.5</ele><time>2026-04-24T11:24:53.288Z</time></trkpt><trkpt lat="46.2414255" lon="13.5833687"><ele>219.75</ele><time>2026-04-24T11:24:54.288Z</time></trkpt><trkpt lat="46.2413044" lon="13.5834658"><ele>220.0</ele><time>2026-04-24T11:24:55.288Z</time></trkpt><trkpt lat="46.2411736" lon="13.5835465"><ele>219.33333333333331</ele><time>2026-04-24T11:24:56.287Z</time></trkpt><trkpt lat="46.2410332" lon="13.583615"><ele>218.66666666666669</ele><time>2026-04-24T11:24:57.289Z</time></trkpt><trkpt lat="46.2408905" lon="13.5836859"><ele>218.0</ele><time>2026-04-24T11:24:58.287Z</time></trkpt><trkpt lat="46.2407441" lon="13.5837485"><ele>215.66666666666669</ele><time>2026-04-24T11:24:59.286Z</time></trkpt><trkpt lat="46.2405976" lon="13.5838065"><ele>213.33333333333331</ele><time>2026-04-24T11:25:00.286Z</time></trkpt><trkpt lat="46.2404462" lon="13.5838543"><ele>211.0</ele><time>2026-04-24T11:25:01.286Z</time></trkpt><trkpt lat="46.2402905" lon="13.583894"><ele>211.0</ele><time>2026-04-24T11:25:02.287Z</time></trkpt><trkpt lat="46.240136" lon="13.5839197"><ele>211.0</ele><time>2026-04-24T11:25:03.287Z</time></trkpt><trkpt lat="46.2399738" lon="13.5839275"><ele>211.0</ele><time>2026-04-24T11:25:04.287Z</time></trkpt><trkpt lat="46.2398092" lon="13.5839311"><ele>211.0</ele><time>2026-04-24T11:25:05.288Z</time></trkpt><trkpt lat="46.2396463" lon="13.5839173"><ele>211.0</ele><time>2026-04-24T11:25:06.287Z</time></trkpt><trkpt lat="46.2394811" lon="13.5838685"><ele>211.0</ele><time>2026-04-24T11:25:07.286Z</time></trkpt><trkpt lat="46.2393225" lon="13.5838028"><ele>211.0</ele><time>2026-04-24T11:25:08.286Z</time></trkpt><trkpt lat="46.2391661" lon="13.5837326"><ele>211.0</ele><time>2026-04-24T11:25:09.287Z</time></trkpt><trkpt lat="46.2390129" lon="13.5836756"><ele>211.0</ele><time>2026-04-24T11:25:10.287Z</time></trkpt><trkpt lat="46.2388617" lon="13.5836409"><ele>211.25</ele><time>2026-04-24T11:25:11.286Z</time></trkpt><trkpt lat="46.2387131" lon="13.5836324"><ele>211.5</ele><time>2026-04-24T11:25:12.286Z</time></trkpt><trkpt lat="46.2385699" lon="13.5836536"><ele>211.75</ele><time>2026-04-24T11:25:13.288Z</time></trkpt><trkpt lat="46.2384311" lon="13.5837094"><ele>212.0</ele><time>2026-04-24T11:25:14.287Z</time></trkpt><trkpt lat="46.2382976" lon="13.5837957"><ele>212.0</ele><time>2026-04-24T11:25:15.287Z</time></trkpt><trkpt lat="46.238168" lon="13.5839053"><ele>212.0</ele><time>2026-04-24T11:25:16.288Z</time></trkpt><trkpt lat="46.2380433" lon="13.5840236"><ele>212.0</ele><time>2026-04-24T11:25:17.288Z</time></trkpt><trkpt lat="46.237921" lon="13.5841506"><ele>213.33333333333334</ele><time>2026-04-24T11:25:18.286Z</time></trkpt><trkpt lat="46.2377985" lon="13.5842838"><ele>214.66666666666669</ele><time>2026-04-24T11:25:19.287Z</time></trkpt><trkpt lat="46.2376775" lon="13.5844187"><ele>216.0</ele><time>2026-04-24T11:25:20.288Z</time></trkpt><trkpt lat="46.2375598" lon="13.5845529"><ele>216.0</ele><time>2026-04-24T11:25:21.286Z</time></trkpt><trkpt lat="46.2374466" lon="13.5846881"><ele>216.0</ele><time>2026-04-24T11:25:22.286Z</time></trkpt><trkpt lat="46.2373427" lon="13.5848168"><ele>216.0</ele><time>2026-04-24T11:25:23.288Z</time></trkpt><trkpt lat="46.237245" lon="13.5849405"><ele>216.0</ele><time>2026-04-24T11:25:24.288Z</time></trkpt><trkpt lat="46.237154" lon="13.5850595"><ele>216.25</ele><time>2026-04-24T11:25:25.287Z</time></trkpt><trkpt lat="46.237062" lon="13.5851766"><ele>216.5</ele><time>2026-04-24T11:25:26.288Z</time></trkpt><trkpt lat="46.2369698" lon="13.5852941"><ele>216.75</ele><time>2026-04-24T11:25:27.286Z</time></trkpt><trkpt lat="46.2368828" lon="13.5854261"><ele>217.0</ele><time>2026-04-24T11:25:28.286Z</time></trkpt><trkpt lat="46.2368037" lon="13.5855756"><ele>217.0</ele><time>2026-04-24T11:25:29.287Z</time></trkpt><trkpt lat="46.23673" lon="13.5857341"><ele>217.0</ele><time>2026-04-24T11:25:30.287Z</time></trkpt><trkpt lat="46.2366488" lon="13.5858901"><ele>217.0</ele><time>2026-04-24T11:25:31.286Z</time></trkpt><trkpt lat="46.2365638" lon="13.5860458"><ele>217.0</ele><time>2026-04-24T11:25:32.288Z</time></trkpt><trkpt lat="46.2364753" lon="13.5861975"><ele>216.75</ele><time>2026-04-24T11:25:33.286Z</time></trkpt><trkpt lat="46.2363816" lon="13.5863491"><ele>216.5</ele><time>2026-04-24T11:25:34.288Z</time></trkpt><trkpt lat="46.2362869" lon="13.5864963"><ele>216.25</ele><time>2026-04-24T11:25:35.287Z</time></trkpt><trkpt lat="46.2361918" lon="13.5866408"><ele>216.0</ele><time>2026-04-24T11:25:36.287Z</time></trkpt><trkpt lat="46.236098" lon="13.5867834"><ele>216.0</ele><time>2026-04-24T11:25:37.287Z</time></trkpt><trkpt lat="46.2360026" lon="13.5869289"><ele>216.0</ele><time>2026-04-24T11:25:38.286Z</time></trkpt><trkpt lat="46.2359137" lon="13.5870731"><ele>216.0</ele><time>2026-04-24T11:25:39.287Z</time></trkpt><trkpt lat="46.2358213" lon="13.5872144"><ele>216.0</ele><time>2026-04-24T11:25:40.288Z</time></trkpt><trkpt lat="46.2357266" lon="13.5873481"><ele>215.25</ele><time>2026-04-24T11:25:41.287Z</time></trkpt><trkpt lat="46.2356315" lon="13.5874803"><ele>214.5</ele><time>2026-04-24T11:25:42.287Z</time></trkpt><trkpt lat="46.2355346" lon="13.5876096"><ele>213.75</ele><time>2026-04-24T11:25:43.288Z</time></trkpt><trkpt lat="46.2354379" lon="13.5877345"><ele>213.0</ele><time>2026-04-24T11:25:44.288Z</time></trkpt><trkpt lat="46.2353411" lon="13.5878605"><ele>212.25</ele><time>2026-04-24T11:25:45.287Z</time></trkpt><trkpt lat="46.235242" lon="13.587988"><ele>211.5</ele><time>2026-04-24T11:25:46.288Z</time></trkpt><trkpt lat="46.2351417" lon="13.5881152"><ele>210.75</ele><time>2026-04-24T11:25:47.287Z</time></trkpt><trkpt lat="46.2350416" lon="13.5882398"><ele>210.0</ele><time>2026-04-24T11:25:48.286Z</time></trkpt><trkpt lat="46.2349439" lon="13.5883639"><ele>210.0</ele><time>2026-04-24T11:25:49.286Z</time></trkpt><trkpt lat="46.2348482" lon="13.5884837"><ele>210.0</ele><time>2026-04-24T11:25:50.287Z</time></trkpt><trkpt lat="46.2347594" lon="13.5886011"><ele>210.0</ele><time>2026-04-24T11:25:51.288Z</time></trkpt><trkpt lat="46.2346723" lon="13.5887146"><ele>210.0</ele><time>2026-04-24T11:25:52.287Z</time></trkpt><trkpt lat="46.2345822" lon="13.5888287"><ele>210.25</ele><time>2026-04-24T11:25:53.286Z</time></trkpt><trkpt lat="46.2344914" lon="13.5889426"><ele>210.5</ele><time>2026-04-24T11:25:54.288Z</time></trkpt><trkpt lat="46.2344004" lon="13.5890511"><ele>210.75</ele><time>2026-04-24T11:25:55.287Z</time></trkpt><trkpt lat="46.2343174" lon="13.5891517"><ele>211.0</ele><time>2026-04-24T11:25:56.286Z</time></trkpt><trkpt lat="46.2342393" lon="13.5892522"><ele>211.0</ele><time>2026-04-24T11:25:57.286Z</time></trkpt><trkpt lat="46.2341565" lon="13.5893551"><ele>211.0</ele><time>2026-04-24T11:25:58.287Z</time></trkpt><trkpt lat="46.2340751" lon="13.5894637"><ele>211.0</ele><time>2026-04-24T11:25:59.288Z</time></trkpt><trkpt lat="46.2339917" lon="13.5895716"><ele>211.0</ele><time>2026-04-24T11:26:00.287Z</time></trkpt><trkpt lat="46.2339078" lon="13.5896754"><ele>211.0</ele><time>2026-04-24T11:26:01.286Z</time></trkpt><trkpt lat="46.2338198" lon="13.5897809"><ele>211.0</ele><time>2026-04-24T11:26:02.288Z</time></trkpt><trkpt lat="46.2337258" lon="13.5898976"><ele>211.0</ele><time>2026-04-24T11:26:03.288Z</time></trkpt><trkpt lat="46.2336263" lon="13.590022"><ele>211.0</ele><time>2026-04-24T11:26:04.287Z</time></trkpt><trkpt lat="46.2335313" lon="13.5901407"><ele>211.0</ele><time>2026-04-24T11:26:05.287Z</time></trkpt><trkpt lat="46.2334408" lon="13.590255"><ele>211.0</ele><time>2026-04-24T11:26:06.287Z</time></trkpt><trkpt lat="46.2333503" lon="13.5903727"><ele>211.0</ele><time>2026-04-24T11:26:07.286Z</time></trkpt><trkpt lat="46.2332586" lon="13.59049"><ele>211.0</ele><time>2026-04-24T11:26:08.287Z</time></trkpt><trkpt lat="46.2331679" lon="13.5906121"><ele>211.0</ele><time>2026-04-24T11:26:09.287Z</time></trkpt><trkpt lat="46.2330722" lon="13.5907367"><ele>211.5</ele><time>2026-04-24T11:26:10.288Z</time></trkpt><trkpt lat="46.2329788" lon="13.5908622"><ele>212.0</ele><time>2026-04-24T11:26:11.287Z</time></trkpt><trkpt lat="46.2328864" lon="13.5909873"><ele>212.5</ele><time>2026-04-24T11:26:12.287Z</time></trkpt><trkpt lat="46.2328007" lon="13.5911199"><ele>213.0</ele><time>2026-04-24T11:26:13.288Z</time></trkpt><trkpt lat="46.2327193" lon="13.5912553"><ele>213.0</ele><time>2026-04-24T11:26:14.286Z</time></trkpt><trkpt lat="46.2326456" lon="13.5913983"><ele>213.0</ele><time>2026-04-24T11:26:15.288Z</time></trkpt><trkpt lat="46.2325785" lon="13.5915456"><ele>213.0</ele><time>2026-04-24T11:26:16.287Z</time></trkpt><trkpt lat="46.2325165" lon="13.5916936"><ele>213.0</ele><time>2026-04-24T11:26:17.287Z</time></trkpt><trkpt lat="46.2324536" lon="13.5918389"><ele>213.0</ele><time>2026-04-24T11:26:18.287Z</time></trkpt><trkpt lat="46.2323917" lon="13.5919817"><ele>213.0</ele><time>2026-04-24T11:26:19.286Z</time></trkpt><trkpt lat="46.2323265" lon="13.5921183"><ele>213.0</ele><time>2026-04-24T11:26:20.286Z</time></trkpt><trkpt lat="46.2322569" lon="13.5922446"><ele>213.0</ele><time>2026-04-24T11:26:21.287Z</time></trkpt><trkpt lat="46.23219" lon="13.5923606"><ele>213.0</ele><time>2026-04-24T11:26:22.288Z</time></trkpt><trkpt lat="46.2321267" lon="13.5924586"><ele>213.33333333333334</ele><time>2026-04-24T11:26:23.287Z</time></trkpt><trkpt lat="46.2320696" lon="13.5925294"><ele>213.66666666666669</ele><time>2026-04-24T11:26:24.286Z</time></trkpt><trkpt lat="46.2319494" lon="13.5925583"><ele>214.0</ele><time>2026-04-24T11:26:26.288Z</time></trkpt><trkpt lat="46.2318855" lon="13.5925075"><ele>214.33333333333334</ele><time>2026-04-24T11:26:27.287Z</time></trkpt><trkpt lat="46.2318194" lon="13.5924409"><ele>214.66666666666669</ele><time>2026-04-24T11:26:28.288Z</time></trkpt><trkpt lat="46.2317502" lon="13.5923673"><ele>215.0</ele><time>2026-04-24T11:26:29.288Z</time></trkpt><trkpt lat="46.231676" lon="13.5922944"><ele>215.0</ele><time>2026-04-24T11:26:30.286Z</time></trkpt><trkpt lat="46.2315949" lon="13.5922205"><ele>215.0</ele><time>2026-04-24T11:26:31.287Z</time></trkpt><trkpt lat="46.2315108" lon="13.5921429"><ele>215.0</ele><time>2026-04-24T11:26:32.287Z</time></trkpt><trkpt lat="46.2314198" lon="13.5920643"><ele>215.0</ele><time>2026-04-24T11:26:33.287Z</time></trkpt><trkpt lat="46.231324" lon="13.5919823"><ele>215.0</ele><time>2026-04-24T11:26:34.288Z</time></trkpt><trkpt lat="46.231222" lon="13.5919038"><ele>215.75</ele><time>2026-04-24T11:26:35.287Z</time></trkpt><trkpt lat="46.2311171" lon="13.5918216"><ele>216.5</ele><time>2026-04-24T11:26:36.288Z</time></trkpt><trkpt lat="46.2310171" lon="13.5917297"><ele>217.25</ele><time>2026-04-24T11:26:37.288Z</time></trkpt><trkpt lat="46.2309186" lon="13.5916407"><ele>218.0</ele><time>2026-04-24T11:26:38.286Z</time></trkpt><trkpt lat="46.2308171" lon="13.5915453"><ele>218.0</ele><time>2026-04-24T11:26:39.287Z</time></trkpt><trkpt lat="46.2307194" lon="13.5914456"><ele>218.0</ele><time>2026-04-24T11:26:40.287Z</time></trkpt><trkpt lat="46.230634" lon="13.5913337"><ele>218.0</ele><time>2026-04-24T11:26:41.286Z</time></trkpt><trkpt lat="46.230555" lon="13.5912313"><ele>218.0</ele><time>2026-04-24T11:26:42.288Z</time></trkpt><trkpt lat="46.2304757" lon="13.5911695"><ele>218.0</ele><time>2026-04-24T11:26:43.288Z</time></trkpt><trkpt lat="46.2303962" lon="13.5911227"><ele>219.00000000000003</ele><time>2026-04-24T11:26:44.286Z</time></trkpt><trkpt lat="46.2303073" lon="13.5911159"><ele>220.0</ele><time>2026-04-24T11:26:45.287Z</time></trkpt><trkpt lat="46.2302223" lon="13.5911257"><ele>221.0</ele><time>2026-04-24T11:26:46.286Z</time></trkpt><trkpt lat="46.2301395" lon="13.5911818"><ele>222.0</ele><time>2026-04-24T11:26:47.286Z</time></trkpt><trkpt lat="46.2300523" lon="13.5911887"><ele>223.00000000000003</ele><time>2026-04-24T11:26:48.288Z</time></trkpt><trkpt lat="46.2299668" lon="13.5911678"><ele>224.0</ele><time>2026-04-24T11:26:49.286Z</time></trkpt><trkpt lat="46.2298798" lon="13.5911345"><ele>225.39999999999998</ele><time>2026-04-24T11:26:50.286Z</time></trkpt><trkpt lat="46.2297881" lon="13.5911066"><ele>226.79999999999998</ele><time>2026-04-24T11:26:51.286Z</time></trkpt><trkpt lat="46.2296896" lon="13.5910971"><ele>228.20000000000002</ele><time>2026-04-24T11:26:52.287Z</time></trkpt><trkpt lat="46.2295895" lon="13.5910879"><ele>229.60000000000002</ele><time>2026-04-24T11:26:53.287Z</time></trkpt><trkpt lat="46.2294814" lon="13.591133"><ele>231.0</ele><time>2026-04-24T11:26:54.286Z</time></trkpt><trkpt lat="46.2293528" lon="13.5912154"><ele>231.66666666666669</ele><time>2026-04-24T11:26:55.286Z</time></trkpt><trkpt lat="46.2292384" lon="13.5912732"><ele>232.33333333333334</ele><time>2026-04-24T11:26:56.288Z</time></trkpt><trkpt lat="46.2290739" lon="13.5914138"><ele>233.0</ele><time>2026-04-24T11:26:57.288Z</time></trkpt><trkpt lat="46.2289377" lon="13.5915377"><ele>233.33333333333334</ele><time>2026-04-24T11:26:58.286Z</time></trkpt><trkpt lat="46.2287997" lon="13.5916548"><ele>233.66666666666669</ele><time>2026-04-24T11:26:59.287Z</time></trkpt><trkpt lat="46.2286567" lon="13.5917507"><ele>234.0</ele><time>2026-04-24T11:27:00.286Z</time></trkpt><trkpt lat="46.2284961" lon="13.5918253"><ele>234.0</ele><time>2026-04-24T11:27:01.287Z</time></trkpt><trkpt lat="46.2283396" lon="13.5918663"><ele>234.0</ele><time>2026-04-24T11:27:02.288Z</time></trkpt><trkpt lat="46.2281864" lon="13.5919021"><ele>234.0</ele><time>2026-04-24T11:27:03.287Z</time></trkpt><trkpt lat="46.2280485" lon="13.5918872"><ele>238.66666666666669</ele><time>2026-04-24T11:27:04.287Z</time></trkpt><trkpt lat="46.2279013" lon="13.5918477"><ele>243.33333333333334</ele><time>2026-04-24T11:27:05.287Z</time></trkpt><trkpt lat="46.2277562" lon="13.591779"><ele>248.0</ele><time>2026-04-24T11:27:06.287Z</time></trkpt><trkpt lat="46.2276133" lon="13.5917013"><ele>248.0</ele><time>2026-04-24T11:27:07.287Z</time></trkpt><trkpt lat="46.2274744" lon="13.5916281"><ele>248.0</ele><time>2026-04-24T11:27:08.287Z</time></trkpt><trkpt lat="46.2273411" lon="13.5915718"><ele>248.0</ele><time>2026-04-24T11:27:09.286Z</time></trkpt><trkpt lat="46.2272111" lon="13.5915261"><ele>248.0</ele><time>2026-04-24T11:27:10.287Z</time></trkpt><trkpt lat="46.2270849" lon="13.5915146"><ele>254.5</ele><time>2026-04-24T11:27:11.286Z</time></trkpt><trkpt lat="46.2269625" lon="13.5915317"><ele>261.0</ele><time>2026-04-24T11:27:12.287Z</time></trkpt><trkpt lat="46.2268389" lon="13.5916089"><ele>267.5</ele><time>2026-04-24T11:27:13.288Z</time></trkpt><trkpt lat="46.2267162" lon="13.5917171"><ele>274.0</ele><time>2026-04-24T11:27:14.288Z</time></trkpt><trkpt lat="46.2265979" lon="13.5918518"><ele>274.0</ele><time>2026-04-24T11:27:15.287Z</time></trkpt><trkpt lat="46.2264787" lon="13.5919862"><ele>274.0</ele><time>2026-04-24T11:27:16.286Z</time></trkpt><trkpt lat="46.2263436" lon="13.5921437"><ele>274.0</ele><time>2026-04-24T11:27:17.287Z</time></trkpt><trkpt lat="46.2262279" lon="13.592278"><ele>275.25</ele><time>2026-04-24T11:27:18.286Z</time></trkpt><trkpt lat="46.2261375" lon="13.5923973"><ele>276.5</ele><time>2026-04-24T11:27:19.286Z</time></trkpt><trkpt lat="46.2260321" lon="13.5925162"><ele>277.75</ele><time>2026-04-24T11:27:20.287Z</time></trkpt><trkpt lat="46.2259389" lon="13.5926364"><ele>279.0</ele><time>2026-04-24T11:27:21.287Z</time></trkpt><trkpt lat="46.225795" lon="13.5927099"><ele>279.0</ele><time>2026-04-24T11:27:22.286Z</time></trkpt><trkpt lat="46.2256638" lon="13.5927207"><ele>279.0</ele><time>2026-04-24T11:27:23.286Z</time></trkpt><trkpt lat="46.2255389" lon="13.5927189"><ele>279.0</ele><time>2026-04-24T11:27:24.288Z</time></trkpt><trkpt lat="46.2254138" lon="13.592661"><ele>279.0</ele><time>2026-04-24T11:27:25.287Z</time></trkpt><trkpt lat="46.225287" lon="13.5926184"><ele>282.6666666666667</ele><time>2026-04-24T11:27:26.287Z</time></trkpt><trkpt lat="46.225147" lon="13.5926113"><ele>286.33333333333337</ele><time>2026-04-24T11:27:27.288Z</time></trkpt><trkpt lat="46.2249887" lon="13.5926384"><ele>290.0</ele><time>2026-04-24T11:27:28.286Z</time></trkpt><trkpt lat="46.2248295" lon="13.5926994"><ele>290.4</ele><time>2026-04-24T11:27:29.287Z</time></trkpt><trkpt lat="46.2246768" lon="13.592755"><ele>290.8</ele><time>2026-04-24T11:27:30.287Z</time></trkpt><trkpt lat="46.2245922" lon="13.5928203"><ele>291.2</ele><time>2026-04-24T11:27:31.288Z</time></trkpt><trkpt lat="46.2244758" lon="13.5928792"><ele>291.6</ele><time>2026-04-24T11:27:32.287Z</time></trkpt><trkpt lat="46.2244263" lon="13.5928041"><ele>292.0</ele><time>2026-04-24T11:27:33.287Z</time></trkpt><trkpt lat="46.2243749" lon="13.5927456"><ele>293.2</ele><time>2026-04-24T11:27:34.287Z</time></trkpt><trkpt lat="46.2243608" lon="13.5926436"><ele>294.4</ele><time>2026-04-24T11:27:35.285Z</time></trkpt><trkpt lat="46.2243485" lon="13.5925195"><ele>295.6</ele><time>2026-04-24T11:27:36.286Z</time></trkpt><trkpt lat="46.2243333" lon="13.5923619"><ele>296.8</ele><time>2026-04-24T11:27:37.286Z</time></trkpt><trkpt lat="46.2243179" lon="13.5921752"><ele>298.0</ele><time>2026-04-24T11:27:38.287Z</time></trkpt><trkpt lat="46.2243044" lon="13.5919585"><ele>300.0</ele><time>2026-04-24T11:27:39.287Z</time></trkpt><trkpt lat="46.224297" lon="13.591751"><ele>302.0</ele><time>2026-04-24T11:27:40.285Z</time></trkpt><trkpt lat="46.2243033" lon="13.5915392"><ele>304.0</ele><time>2026-04-24T11:27:41.286Z</time></trkpt><trkpt lat="46.2243543" lon="13.5913266"><ele>306.0</ele><time>2026-04-24T11:27:42.285Z</time></trkpt><trkpt lat="46.2244307" lon="13.5911136"><ele>312.0</ele><time>2026-04-24T11:27:43.286Z</time></trkpt><trkpt lat="46.2245304" lon="13.5909081"><ele>318.0</ele><time>2026-04-24T11:27:44.286Z</time></trkpt><trkpt lat="46.2246353" lon="13.5907362"><ele>324.0</ele><time>2026-04-24T11:27:45.287Z</time></trkpt><trkpt lat="46.2247347" lon="13.5905737"><ele>324.0</ele><time>2026-04-24T11:27:46.286Z</time></trkpt><trkpt lat="46.2248366" lon="13.5904179"><ele>324.0</ele><time>2026-04-24T11:27:47.287Z</time></trkpt><trkpt lat="46.2249417" lon="13.5902739"><ele>324.0</ele><time>2026-04-24T11:27:48.285Z</time></trkpt><trkpt lat="46.2250314" lon="13.590138"><ele>324.0</ele><time>2026-04-24T11:27:49.286Z</time></trkpt><trkpt lat="46.2251077" lon="13.5900196"><ele>324.0</ele><time>2026-04-24T11:27:50.285Z</time></trkpt><trkpt lat="46.2251758" lon="13.5899029"><ele>324.0</ele><time>2026-04-24T11:27:51.286Z</time></trkpt><trkpt lat="46.2251769" lon="13.5898089"><ele>324.0</ele><time>2026-04-24T11:27:52.285Z</time></trkpt><trkpt lat="46.2251464" lon="13.5896528"><ele>324.0</ele><time>2026-04-24T11:27:54.286Z</time></trkpt><trkpt lat="46.2250459" lon="13.5896081"><ele>324.0</ele><time>2026-04-24T11:27:56.287Z</time></trkpt><trkpt lat="46.2249804" lon="13.5896786"><ele>324.0</ele><time>2026-04-24T11:27:57.286Z</time></trkpt><trkpt lat="46.224861" lon="13.5898466"><ele>324.0</ele><time>2026-04-24T11:27:58.286Z</time></trkpt><trkpt lat="46.224778" lon="13.5899634"><ele>324.0</ele><time>2026-04-24T11:27:59.285Z</time></trkpt><trkpt lat="46.2246817" lon="13.5900337"><ele>324.0</ele><time>2026-04-24T11:28:00.286Z</time></trkpt><trkpt lat="46.2244977" lon="13.589916"><ele>328.0</ele><time>2026-04-24T11:28:01.286Z</time></trkpt><trkpt lat="46.2243883" lon="13.5898994"><ele>332.0</ele><time>2026-04-24T11:28:02.286Z</time></trkpt><trkpt lat="46.2242558" lon="13.5898618"><ele>336.0</ele><time>2026-04-24T11:28:03.287Z</time></trkpt><trkpt lat="46.2241166" lon="13.5898223"><ele>340.0</ele><time>2026-04-24T11:28:04.286Z</time></trkpt><trkpt lat="46.223982" lon="13.5897835"><ele>344.66666666666663</ele><time>2026-04-24T11:28:05.286Z</time></trkpt><trkpt lat="46.2238354" lon="13.5897658"><ele>349.3333333333333</ele><time>2026-04-24T11:28:06.286Z</time></trkpt><trkpt lat="46.223705" lon="13.5897699"><ele>354.0</ele><time>2026-04-24T11:28:07.286Z</time></trkpt><trkpt lat="46.2235132" lon="13.5898799"><ele>354.0</ele><time>2026-04-24T11:28:08.287Z</time></trkpt><trkpt lat="46.22337" lon="13.5898688"><ele>354.0</ele><time>2026-04-24T11:28:09.286Z</time></trkpt><trkpt lat="46.2232279" lon="13.5898647"><ele>354.0</ele><time>2026-04-24T11:28:10.286Z</time></trkpt><trkpt lat="46.2230993" lon="13.5898825"><ele>354.0</ele><time>2026-04-24T11:28:11.285Z</time></trkpt><trkpt lat="46.222972" lon="13.5899383"><ele>358.25</ele><time>2026-04-24T11:28:12.285Z</time></trkpt><trkpt lat="46.2228378" lon="13.5899984"><ele>362.5</ele><time>2026-04-24T11:28:13.287Z</time></trkpt><trkpt lat="46.2227176" lon="13.5900341"><ele>366.75</ele><time>2026-04-24T11:28:14.286Z</time></trkpt><trkpt lat="46.2225781" lon="13.5900604"><ele>371.0</ele><time>2026-04-24T11:28:15.286Z</time></trkpt><trkpt lat="46.2224498" lon="13.5901052"><ele>371.0</ele><time>2026-04-24T11:28:16.286Z</time></trkpt><trkpt lat="46.2223179" lon="13.5901346"><ele>371.0</ele><time>2026-04-24T11:28:17.286Z</time></trkpt><trkpt lat="46.2221864" lon="13.5901467"><ele>371.0</ele><time>2026-04-24T11:28:18.286Z</time></trkpt><trkpt lat="46.2220555" lon="13.5901441"><ele>371.0</ele><time>2026-04-24T11:28:19.286Z</time></trkpt><trkpt lat="46.2219215" lon="13.5901407"><ele>376.5</ele><time>2026-04-24T11:28:20.286Z</time></trkpt><trkpt lat="46.2217922" lon="13.590158"><ele>382.0</ele><time>2026-04-24T11:28:21.286Z</time></trkpt><trkpt lat="46.2216603" lon="13.5901688"><ele>387.5</ele><time>2026-04-24T11:28:22.286Z</time></trkpt><trkpt lat="46.2215281" lon="13.5901848"><ele>393.0</ele><time>2026-04-24T11:28:23.287Z</time></trkpt><trkpt lat="46.2213943" lon="13.5902123"><ele>396.5</ele><time>2026-04-24T11:28:24.287Z</time></trkpt><trkpt lat="46.2212581" lon="13.590234"><ele>400.0</ele><time>2026-04-24T11:28:25.287Z</time></trkpt><trkpt lat="46.2211333" lon="13.5902437"><ele>403.5</ele><time>2026-04-24T11:28:26.285Z</time></trkpt><trkpt lat="46.2210091" lon="13.5902525"><ele>407.0</ele><time>2026-04-24T11:28:27.286Z</time></trkpt><trkpt lat="46.2208911" lon="13.5902464"><ele>407.0</ele><time>2026-04-24T11:28:28.286Z</time></trkpt><trkpt lat="46.2207702" lon="13.5902392"><ele>407.0</ele><time>2026-04-24T11:28:30.285Z</time></trkpt><trkpt lat="46.2206972" lon="13.590265"><ele>407.0</ele><time>2026-04-24T11:28:31.286Z</time></trkpt><trkpt lat="46.2206192" lon="13.5903156"><ele>407.0</ele><time>2026-04-24T11:28:32.286Z</time></trkpt><trkpt lat="46.220547" lon="13.5905554"><ele>405.20000000000005</ele><time>2026-04-24T11:28:33.287Z</time></trkpt><trkpt lat="46.2204779" lon="13.5906441"><ele>403.4</ele><time>2026-04-24T11:28:34.286Z</time></trkpt><trkpt lat="46.220364" lon="13.590742"><ele>401.6</ele><time>2026-04-24T11:28:35.286Z</time></trkpt><trkpt lat="46.2202603" lon="13.5907821"><ele>399.79999999999995</ele><time>2026-04-24T11:28:36.285Z</time></trkpt><trkpt lat="46.2201515" lon="13.5908409"><ele>398.0</ele><time>2026-04-24T11:28:37.286Z</time></trkpt><trkpt lat="46.2200333" lon="13.5908665"><ele>398.0</ele><time>2026-04-24T11:28:38.287Z</time></trkpt><trkpt lat="46.2199111" lon="13.5908706"><ele>398.0</ele><time>2026-04-24T11:28:39.286Z</time></trkpt><trkpt lat="46.2197883" lon="13.5908461"><ele>398.0</ele><time>2026-04-24T11:28:40.286Z</time></trkpt><trkpt lat="46.2196594" lon="13.590719"><ele>398.0</ele><time>2026-04-24T11:28:41.285Z</time></trkpt><trkpt lat="46.2195461" lon="13.5906262"><ele>401.2</ele><time>2026-04-24T11:28:42.287Z</time></trkpt><trkpt lat="46.2194476" lon="13.5905463"><ele>404.4</ele><time>2026-04-24T11:28:43.286Z</time></trkpt><trkpt lat="46.2193352" lon="13.5905242"><ele>407.59999999999997</ele><time>2026-04-24T11:28:44.285Z</time></trkpt><trkpt lat="46.2192295" lon="13.5905139"><ele>410.79999999999995</ele><time>2026-04-24T11:28:45.286Z</time></trkpt><trkpt lat="46.2191151" lon="13.5904895"><ele>414.0</ele><time>2026-04-24T11:28:46.286Z</time></trkpt><trkpt lat="46.2190211" lon="13.5904664"><ele>415.6</ele><time>2026-04-24T11:28:47.287Z</time></trkpt><trkpt lat="46.2189231" lon="13.5905324"><ele>417.2</ele><time>2026-04-24T11:28:48.287Z</time></trkpt><trkpt lat="46.2188158" lon="13.5905013"><ele>418.8</ele><time>2026-04-24T11:28:49.287Z</time></trkpt><trkpt lat="46.2187107" lon="13.5904524"><ele>420.40000000000003</ele><time>2026-04-24T11:28:50.285Z</time></trkpt><trkpt lat="46.2185998" lon="13.5904092"><ele>422.0</ele><time>2026-04-24T11:28:51.286Z</time></trkpt><trkpt lat="46.2184982" lon="13.5903367"><ele>422.0</ele><time>2026-04-24T11:28:52.287Z</time></trkpt><trkpt lat="46.2183854" lon="13.5903143"><ele>422.0</ele><time>2026-04-24T11:28:53.285Z</time></trkpt><trkpt lat="46.2182714" lon="13.5903029"><ele>422.0</ele><time>2026-04-24T11:28:54.286Z</time></trkpt><trkpt lat="46.2181478" lon="13.5903107"><ele>422.0</ele><time>2026-04-24T11:28:55.285Z</time></trkpt><trkpt lat="46.2180341" lon="13.5903471"><ele>427.5</ele><time>2026-04-24T11:28:56.285Z</time></trkpt><trkpt lat="46.2179301" lon="13.5903875"><ele>433.0</ele><time>2026-04-24T11:28:57.286Z</time></trkpt><trkpt lat="46.2178208" lon="13.590515"><ele>438.5</ele><time>2026-04-24T11:28:59.285Z</time></trkpt><trkpt lat="46.2177739" lon="13.5906025"><ele>444.0</ele><time>2026-04-24T11:29:00.285Z</time></trkpt><trkpt lat="46.2178587" lon="13.5907732"><ele>444.0</ele><time>2026-04-24T11:29:02.285Z</time></trkpt><trkpt lat="46.2179134" lon="13.5908314"><ele>444.0</ele><time>2026-04-24T11:29:03.286Z</time></trkpt><trkpt lat="46.2179856" lon="13.5909265"><ele>444.0</ele><time>2026-04-24T11:29:04.287Z</time></trkpt><trkpt lat="46.2181699" lon="13.5910151"><ele>444.0</ele><time>2026-04-24T11:29:05.286Z</time></trkpt><trkpt lat="46.2182928" lon="13.5911106"><ele>444.75</ele><time>2026-04-24T11:29:06.287Z</time></trkpt><trkpt lat="46.2184201" lon="13.5911762"><ele>445.5</ele><time>2026-04-24T11:29:07.286Z</time></trkpt><trkpt lat="46.2185503" lon="13.5912285"><ele>446.25</ele><time>2026-04-24T11:29:08.285Z</time></trkpt><trkpt lat="46.2187257" lon="13.5912805"><ele>447.0</ele><time>2026-04-24T11:29:09.287Z</time></trkpt><trkpt lat="46.2188726" lon="13.5913375"><ele>443.75</ele><time>2026-04-24T11:29:10.286Z</time></trkpt><trkpt lat="46.2190087" lon="13.5913931"><ele>440.5</ele><time>2026-04-24T11:29:11.286Z</time></trkpt><trkpt lat="46.2191294" lon="13.5914443"><ele>437.25</ele><time>2026-04-24T11:29:12.286Z</time></trkpt><trkpt lat="46.219257" lon="13.5914955"><ele>434.0</ele><time>2026-04-24T11:29:13.287Z</time></trkpt><trkpt lat="46.2193519" lon="13.5915727"><ele>434.0</ele><time>2026-04-24T11:29:14.286Z</time></trkpt><trkpt lat="46.2194191" lon="13.5916754"><ele>434.0</ele><time>2026-04-24T11:29:15.287Z</time></trkpt><trkpt lat="46.2194661" lon="13.5917894"><ele>434.0</ele><time>2026-04-24T11:29:16.286Z</time></trkpt><trkpt lat="46.2195049" lon="13.5919296"><ele>434.0</ele><time>2026-04-24T11:29:17.285Z</time></trkpt><trkpt lat="46.2195062" lon="13.5920874"><ele>434.0</ele><time>2026-04-24T11:29:18.286Z</time></trkpt><trkpt lat="46.2194165" lon="13.5922143"><ele>435.75</ele><time>2026-04-24T11:29:19.286Z</time></trkpt><trkpt lat="46.2193822" lon="13.5923414"><ele>437.5</ele><time>2026-04-24T11:29:20.285Z</time></trkpt><trkpt lat="46.2193257" lon="13.5924787"><ele>439.25</ele><time>2026-04-24T11:29:21.286Z</time></trkpt><trkpt lat="46.2192047" lon="13.5926214"><ele>441.0</ele><time>2026-04-24T11:29:22.287Z</time></trkpt><trkpt lat="46.2191136" lon="13.5927679"><ele>441.25</ele><time>2026-04-24T11:29:23.285Z</time></trkpt><trkpt lat="46.2190079" lon="13.5929165"><ele>441.5</ele><time>2026-04-24T11:29:24.286Z</time></trkpt><trkpt lat="46.2189371" lon="13.5930872"><ele>441.75</ele><time>2026-04-24T11:29:25.286Z</time></trkpt><trkpt lat="46.2188706" lon="13.5932033"><ele>442.0</ele><time>2026-04-24T11:29:26.286Z</time></trkpt><trkpt lat="46.2187447" lon="13.5933256"><ele>445.0</ele><time>2026-04-24T11:29:27.286Z</time></trkpt><trkpt lat="46.2186276" lon="13.5934574"><ele>448.0</ele><time>2026-04-24T11:29:28.286Z</time></trkpt><trkpt lat="46.2185003" lon="13.5935942"><ele>451.0</ele><time>2026-04-24T11:29:29.286Z</time></trkpt><trkpt lat="46.2183557" lon="13.5937491"><ele>452.33333333333337</ele><time>2026-04-24T11:29:30.287Z</time></trkpt><trkpt lat="46.2182293" lon="13.593888"><ele>453.66666666666663</ele><time>2026-04-24T11:29:31.285Z</time></trkpt><trkpt lat="46.2181021" lon="13.5940088"><ele>455.0</ele><time>2026-04-24T11:29:32.287Z</time></trkpt><trkpt lat="46.2179754" lon="13.5941172"><ele>457.6</ele><time>2026-04-24T11:29:33.287Z</time></trkpt><trkpt lat="46.2179072" lon="13.5942143"><ele>460.2</ele><time>2026-04-24T11:29:34.286Z</time></trkpt><trkpt lat="46.2178551" lon="13.5943294"><ele>462.79999999999995</ele><time>2026-04-24T11:29:35.287Z</time></trkpt><trkpt lat="46.2178033" lon="13.5944389"><ele>465.4</ele><time>2026-04-24T11:29:36.285Z</time></trkpt><trkpt lat="46.2177548" lon="13.5946117"><ele>468.0</ele><time>2026-04-24T11:29:37.287Z</time></trkpt><trkpt lat="46.2177835" lon="13.5948057"><ele>469.5</ele><time>2026-04-24T11:29:38.286Z</time></trkpt><trkpt lat="46.2177616" lon="13.5949703"><ele>471.0</ele><time>2026-04-24T11:29:39.285Z</time></trkpt><trkpt lat="46.2177377" lon="13.5951179"><ele>472.5</ele><time>2026-04-24T11:29:40.285Z</time></trkpt><trkpt lat="46.2176923" lon="13.5952628"><ele>474.0</ele><time>2026-04-24T11:29:41.286Z</time></trkpt><trkpt lat="46.2176253" lon="13.5954103"><ele>474.0</ele><time>2026-04-24T11:29:42.285Z</time></trkpt><trkpt lat="46.2175487" lon="13.5955255"><ele>474.0</ele><time>2026-04-24T11:29:43.285Z</time></trkpt><trkpt lat="46.2174652" lon="13.5956458"><ele>474.0</ele><time>2026-04-24T11:29:44.285Z</time></trkpt><trkpt lat="46.2173871" lon="13.5957532"><ele>474.0</ele><time>2026-04-24T11:29:45.285Z</time></trkpt><trkpt lat="46.2173126" lon="13.5958567"><ele>474.0</ele><time>2026-04-24T11:29:46.285Z</time></trkpt><trkpt lat="46.2171962" lon="13.5958548"><ele>477.0</ele><time>2026-04-24T11:29:47.285Z</time></trkpt><trkpt lat="46.2170773" lon="13.5958423"><ele>480.0</ele><time>2026-04-24T11:29:48.285Z</time></trkpt><trkpt lat="46.2169675" lon="13.5958028"><ele>483.0</ele><time>2026-04-24T11:29:49.286Z</time></trkpt><trkpt lat="46.2168594" lon="13.5957393"><ele>486.0</ele><time>2026-04-24T11:29:50.286Z</time></trkpt><trkpt lat="46.2167542" lon="13.5956801"><ele>486.0</ele><time>2026-04-24T11:29:51.287Z</time></trkpt><trkpt lat="46.2166414" lon="13.5956685"><ele>486.0</ele><time>2026-04-24T11:29:52.286Z</time></trkpt><trkpt lat="46.2165298" lon="13.5956845"><ele>486.0</ele><time>2026-04-24T11:29:53.286Z</time></trkpt><trkpt lat="46.2164217" lon="13.59572"><ele>486.0</ele><time>2026-04-24T11:29:54.286Z</time></trkpt><trkpt lat="46.2163211" lon="13.5958321"><ele>490.0</ele><time>2026-04-24T11:29:55.287Z</time></trkpt><trkpt lat="46.216236" lon="13.5959489"><ele>494.0</ele><time>2026-04-24T11:29:56.286Z</time></trkpt><trkpt lat="46.2161616" lon="13.5960804"><ele>498.0</ele><time>2026-04-24T11:29:57.286Z</time></trkpt><trkpt lat="46.2160956" lon="13.5962372"><ele>502.0</ele><time>2026-04-24T11:29:58.286Z</time></trkpt><trkpt lat="46.2160357" lon="13.5963897"><ele>502.0</ele><time>2026-04-24T11:29:59.285Z</time></trkpt><trkpt lat="46.2159835" lon="13.596552"><ele>502.0</ele><time>2026-04-24T11:30:00.285Z</time></trkpt><trkpt lat="46.2159501" lon="13.5967103"><ele>502.0</ele><time>2026-04-24T11:30:01.285Z</time></trkpt><trkpt lat="46.2159116" lon="13.5968572"><ele>502.0</ele><time>2026-04-24T11:30:02.286Z</time></trkpt><trkpt lat="46.2158078" lon="13.5969092"><ele>502.00000000000006</ele><time>2026-04-24T11:30:03.285Z</time></trkpt><trkpt lat="46.2157421" lon="13.596959"><ele>502.0</ele><time>2026-04-24T11:30:04.285Z</time></trkpt><trkpt lat="46.2156613" lon="13.5969941"><ele>502.0</ele><time>2026-04-24T11:30:05.285Z</time></trkpt><trkpt lat="46.215585" lon="13.5969008"><ele>502.0</ele><time>2026-04-24T11:30:06.286Z</time></trkpt><trkpt lat="46.2155308" lon="13.5968088"><ele>502.00000000000006</ele><time>2026-04-24T11:30:07.285Z</time></trkpt><trkpt lat="46.2155147" lon="13.5966858"><ele>502.0</ele><time>2026-04-24T11:30:08.285Z</time></trkpt><trkpt lat="46.2155331" lon="13.5965309"><ele>507.0</ele><time>2026-04-24T11:30:09.286Z</time></trkpt><trkpt lat="46.2155648" lon="13.5963657"><ele>512.0</ele><time>2026-04-24T11:30:10.286Z</time></trkpt><trkpt lat="46.2155968" lon="13.5961998"><ele>517.0</ele><time>2026-04-24T11:30:11.287Z</time></trkpt><trkpt lat="46.2156141" lon="13.5960243"><ele>522.0</ele><time>2026-04-24T11:30:12.286Z</time></trkpt><trkpt lat="46.2156172" lon="13.5958379"><ele>525.5</ele><time>2026-04-24T11:30:13.286Z</time></trkpt><trkpt lat="46.2156021" lon="13.5956503"><ele>529.0</ele><time>2026-04-24T11:30:14.285Z</time></trkpt><trkpt lat="46.2155688" lon="13.5954613"><ele>532.5</ele><time>2026-04-24T11:30:15.285Z</time></trkpt><trkpt lat="46.2155292" lon="13.5952659"><ele>536.0</ele><time>2026-04-24T11:30:16.287Z</time></trkpt><trkpt lat="46.215489" lon="13.5950752"><ele>537.25</ele><time>2026-04-24T11:30:17.286Z</time></trkpt><trkpt lat="46.2154471" lon="13.5948922"><ele>538.5</ele><time>2026-04-24T11:30:18.287Z</time></trkpt><trkpt lat="46.215408" lon="13.5947281"><ele>539.75</ele><time>2026-04-24T11:30:19.285Z</time></trkpt><trkpt lat="46.215371" lon="13.5945685"><ele>541.0</ele><time>2026-04-24T11:30:20.285Z</time></trkpt><trkpt lat="46.2153378" lon="13.5944174"><ele>541.0</ele><time>2026-04-24T11:30:21.287Z</time></trkpt><trkpt lat="46.2153021" lon="13.5943305"><ele>541.0</ele><time>2026-04-24T11:30:22.286Z</time></trkpt><trkpt lat="46.2152692" lon="13.594236"><ele>541.0</ele><time>2026-04-24T11:30:23.286Z</time></trkpt><trkpt lat="46.2152078" lon="13.5941719"><ele>541.0</ele><time>2026-04-24T11:30:24.287Z</time></trkpt><trkpt lat="46.2151545" lon="13.5942654"><ele>541.0</ele><time>2026-04-24T11:30:26.286Z</time></trkpt><trkpt lat="46.2151184" lon="13.5944357"><ele>541.0</ele><time>2026-04-24T11:30:27.286Z</time></trkpt><trkpt lat="46.2150911" lon="13.5945878"><ele>541.0</ele><time>2026-04-24T11:30:28.285Z</time></trkpt><trkpt lat="46.2150355" lon="13.5947277"><ele>541.0</ele><time>2026-04-24T11:30:29.286Z</time></trkpt><trkpt lat="46.2149773" lon="13.5948708"><ele>541.0</ele><time>2026-04-24T11:30:30.286Z</time></trkpt><trkpt lat="46.2149199" lon="13.5950012"><ele>541.0</ele><time>2026-04-24T11:30:31.286Z</time></trkpt><trkpt lat="46.214855" lon="13.5951438"><ele>546.4</ele><time>2026-04-24T11:30:32.285Z</time></trkpt><trkpt lat="46.2147919" lon="13.5952919"><ele>551.8</ele><time>2026-04-24T11:30:33.285Z</time></trkpt><trkpt lat="46.2147303" lon="13.5954351"><ele>557.1999999999999</ele><time>2026-04-24T11:30:34.285Z</time></trkpt><trkpt lat="46.2146728" lon="13.595561"><ele>562.6</ele><time>2026-04-24T11:30:35.285Z</time></trkpt><trkpt lat="46.2146211" lon="13.5956398"><ele>568.0</ele><time>2026-04-24T11:30:36.285Z</time></trkpt><trkpt lat="46.2145141" lon="13.5956889"><ele>568.0</ele><time>2026-04-24T11:30:38.286Z</time></trkpt><trkpt lat="46.2145058" lon="13.5955833"><ele>568.0</ele><time>2026-04-24T11:30:39.285Z</time></trkpt><trkpt lat="46.2144962" lon="13.5953896"><ele>568.0</ele><time>2026-04-24T11:30:41.285Z</time></trkpt><trkpt lat="46.2145043" lon="13.5952327"><ele>568.0</ele><time>2026-04-24T11:30:42.285Z</time></trkpt><trkpt lat="46.2144794" lon="13.5950757"><ele>568.0</ele><time>2026-04-24T11:30:43.286Z</time></trkpt><trkpt lat="46.2144615" lon="13.5949224"><ele>568.75</ele><time>2026-04-24T11:30:44.285Z</time></trkpt><trkpt lat="46.2144261" lon="13.5947625"><ele>569.5</ele><time>2026-04-24T11:30:45.286Z</time></trkpt><trkpt lat="46.2143848" lon="13.5946065"><ele>570.25</ele><time>2026-04-24T11:30:46.285Z</time></trkpt><trkpt lat="46.2143395" lon="13.5944543"><ele>571.0</ele><time>2026-04-24T11:30:47.285Z</time></trkpt><trkpt lat="46.2142817" lon="13.5943301"><ele>571.0</ele><time>2026-04-24T11:30:48.286Z</time></trkpt><trkpt lat="46.2142316" lon="13.5942349"><ele>571.0</ele><time>2026-04-24T11:30:49.285Z</time></trkpt><trkpt lat="46.2141805" lon="13.594156"><ele>571.0</ele><time>2026-04-24T11:30:50.286Z</time></trkpt><trkpt lat="46.2141148" lon="13.5940883"><ele>571.0</ele><time>2026-04-24T11:30:51.285Z</time></trkpt><trkpt lat="46.2139717" lon="13.5941196"><ele>571.0</ele><time>2026-04-24T11:30:52.285Z</time></trkpt><trkpt lat="46.213863" lon="13.5940546"><ele>574.4</ele><time>2026-04-24T11:30:53.284Z</time></trkpt><trkpt lat="46.2137601" lon="13.5939796"><ele>577.8</ele><time>2026-04-24T11:30:54.285Z</time></trkpt><trkpt lat="46.2136685" lon="13.593906"><ele>581.1999999999999</ele><time>2026-04-24T11:30:55.286Z</time></trkpt><trkpt lat="46.2135704" lon="13.5938334"><ele>584.6</ele><time>2026-04-24T11:30:56.286Z</time></trkpt><trkpt lat="46.2134779" lon="13.5937535"><ele>588.0</ele><time>2026-04-24T11:30:57.285Z</time></trkpt><trkpt lat="46.2133903" lon="13.5936766"><ele>588.6</ele><time>2026-04-24T11:30:58.286Z</time></trkpt><trkpt lat="46.2132945" lon="13.5936105"><ele>589.1999999999999</ele><time>2026-04-24T11:30:59.285Z</time></trkpt><trkpt lat="46.2131837" lon="13.5935907"><ele>589.8</ele><time>2026-04-24T11:31:00.286Z</time></trkpt><trkpt lat="46.2130906" lon="13.5935599"><ele>590.4</ele><time>2026-04-24T11:31:01.286Z</time></trkpt><trkpt lat="46.2129815" lon="13.5935559"><ele>591.0</ele><time>2026-04-24T11:31:02.285Z</time></trkpt><trkpt lat="46.2128622" lon="13.5936277"><ele>591.0</ele><time>2026-04-24T11:31:03.285Z</time></trkpt><trkpt lat="46.2127639" lon="13.5936456"><ele>591.0</ele><time>2026-04-24T11:31:04.285Z</time></trkpt><trkpt lat="46.2126551" lon="13.5936634"><ele>591.0</ele><time>2026-04-24T11:31:05.285Z</time></trkpt><trkpt lat="46.2125634" lon="13.5936494"><ele>591.0</ele><time>2026-04-24T11:31:06.285Z</time></trkpt><trkpt lat="46.2124712" lon="13.5936321"><ele>591.0</ele><time>2026-04-24T11:31:07.286Z</time></trkpt><trkpt lat="46.2124167" lon="13.5937064"><ele>594.25</ele><time>2026-04-24T11:31:08.284Z</time></trkpt><trkpt lat="46.2123488" lon="13.5937581"><ele>597.5</ele><time>2026-04-24T11:31:09.285Z</time></trkpt><trkpt lat="46.2124218" lon="13.5938707"><ele>600.75</ele><time>2026-04-24T11:31:10.285Z</time></trkpt><trkpt lat="46.2124806" lon="13.5940503"><ele>604.0</ele><time>2026-04-24T11:31:12.285Z</time></trkpt><trkpt lat="46.2126315" lon="13.5941195"><ele>604.0</ele><time>2026-04-24T11:31:13.285Z</time></trkpt><trkpt lat="46.2127168" lon="13.5942012"><ele>604.0</ele><time>2026-04-24T11:31:14.284Z</time></trkpt><trkpt lat="46.212795" lon="13.5942801"><ele>604.0</ele><time>2026-04-24T11:31:15.284Z</time></trkpt><trkpt lat="46.2128569" lon="13.5943696"><ele>604.0</ele><time>2026-04-24T11:31:16.285Z</time></trkpt><trkpt lat="46.2128964" lon="13.5944784"><ele>604.0</ele><time>2026-04-24T11:31:17.285Z</time></trkpt><trkpt lat="46.2129047" lon="13.5946249"><ele>607.5</ele><time>2026-04-24T11:31:18.285Z</time></trkpt><trkpt lat="46.212892" lon="13.5947816"><ele>611.0</ele><time>2026-04-24T11:31:19.285Z</time></trkpt><trkpt lat="46.2128848" lon="13.594962"><ele>614.5</ele><time>2026-04-24T11:31:20.285Z</time></trkpt><trkpt lat="46.2128966" lon="13.5951396"><ele>618.0</ele><time>2026-04-24T11:31:21.286Z</time></trkpt><trkpt lat="46.2129096" lon="13.5953155"><ele>619.0</ele><time>2026-04-24T11:31:22.285Z</time></trkpt><trkpt lat="46.2128995" lon="13.5954777"><ele>620.0</ele><time>2026-04-24T11:31:23.285Z</time></trkpt><trkpt lat="46.2128633" lon="13.595625"><ele>621.0</ele><time>2026-04-24T11:31:24.286Z</time></trkpt><trkpt lat="46.21281" lon="13.5957516"><ele>622.0</ele><time>2026-04-24T11:31:25.284Z</time></trkpt><trkpt lat="46.2127323" lon="13.5958602"><ele>623.0</ele><time>2026-04-24T11:31:26.284Z</time></trkpt><trkpt lat="46.2126399" lon="13.5959398"><ele>623.0</ele><time>2026-04-24T11:31:27.285Z</time></trkpt><trkpt lat="46.2125406" lon="13.5960023"><ele>623.0</ele><time>2026-04-24T11:31:28.285Z</time></trkpt><trkpt lat="46.2124396" lon="13.5960761"><ele>623.0</ele><time>2026-04-24T11:31:29.285Z</time></trkpt><trkpt lat="46.2123665" lon="13.5962134"><ele>623.0</ele><time>2026-04-24T11:31:30.286Z</time></trkpt><trkpt lat="46.2122929" lon="13.5963587"><ele>629.25</ele><time>2026-04-24T11:31:31.285Z</time></trkpt><trkpt lat="46.2122288" lon="13.5965035"><ele>635.5</ele><time>2026-04-24T11:31:32.284Z</time></trkpt><trkpt lat="46.2121627" lon="13.5966531"><ele>641.75</ele><time>2026-04-24T11:31:33.284Z</time></trkpt><trkpt lat="46.2120895" lon="13.5968029"><ele>648.0</ele><time>2026-04-24T11:31:34.284Z</time></trkpt><trkpt lat="46.2119907" lon="13.5969217"><ele>643.5</ele><time>2026-04-24T11:31:35.284Z</time></trkpt><trkpt lat="46.2118933" lon="13.5970373"><ele>639.0</ele><time>2026-04-24T11:31:36.284Z</time></trkpt><trkpt lat="46.2117819" lon="13.5971385"><ele>634.5</ele><time>2026-04-24T11:31:37.285Z</time></trkpt><trkpt lat="46.2116725" lon="13.5972348"><ele>630.0</ele><time>2026-04-24T11:31:38.285Z</time></trkpt><trkpt lat="46.2115679" lon="13.5973164"><ele>637.75</ele><time>2026-04-24T11:31:39.284Z</time></trkpt><trkpt lat="46.2114547" lon="13.5973877"><ele>645.5</ele><time>2026-04-24T11:31:40.285Z</time></trkpt><trkpt lat="46.2113437" lon="13.5974592"><ele>653.25</ele><time>2026-04-24T11:31:41.284Z</time></trkpt><trkpt lat="46.2112354" lon="13.5975526"><ele>661.0</ele><time>2026-04-24T11:31:42.286Z</time></trkpt><trkpt lat="46.2111274" lon="13.597631"><ele>661.0</ele><time>2026-04-24T11:31:43.284Z</time></trkpt><trkpt lat="46.2110144" lon="13.5977"><ele>661.0</ele><time>2026-04-24T11:31:44.284Z</time></trkpt><trkpt lat="46.2109102" lon="13.5977533"><ele>661.0</ele><time>2026-04-24T11:31:45.285Z</time></trkpt><trkpt lat="46.2108187" lon="13.5978188"><ele>661.0</ele><time>2026-04-24T11:31:46.286Z</time></trkpt><trkpt lat="46.210739" lon="13.5979104"><ele>661.0</ele><time>2026-04-24T11:31:47.286Z</time></trkpt><trkpt lat="46.2106782" lon="13.5980305"><ele>663.8</ele><time>2026-04-24T11:31:48.284Z</time></trkpt><trkpt lat="46.2106443" lon="13.5981713"><ele>666.5999999999999</ele><time>2026-04-24T11:31:49.285Z</time></trkpt><trkpt lat="46.2105984" lon="13.5983"><ele>669.4</ele><time>2026-04-24T11:31:50.284Z</time></trkpt><trkpt lat="46.210519" lon="13.5984032"><ele>672.2</ele><time>2026-04-24T11:31:51.284Z</time></trkpt><trkpt lat="46.2104357" lon="13.5984829"><ele>675.0</ele><time>2026-04-24T11:31:52.285Z</time></trkpt><trkpt lat="46.2103356" lon="13.5985443"><ele>675.0</ele><time>2026-04-24T11:31:53.285Z</time></trkpt><trkpt lat="46.2102276" lon="13.5985948"><ele>675.0</ele><time>2026-04-24T11:31:54.285Z</time></trkpt><trkpt lat="46.2101064" lon="13.5986378"><ele>675.0</ele><time>2026-04-24T11:31:55.284Z</time></trkpt><trkpt lat="46.2099899" lon="13.5986881"><ele>675.0</ele><time>2026-04-24T11:31:56.285Z</time></trkpt><trkpt lat="46.2098768" lon="13.5987505"><ele>675.0</ele><time>2026-04-24T11:31:57.284Z</time></trkpt><trkpt lat="46.2097774" lon="13.5988481"><ele>675.0</ele><time>2026-04-24T11:31:58.284Z</time></trkpt><trkpt lat="46.2096856" lon="13.5989256"><ele>675.0</ele><time>2026-04-24T11:31:59.285Z</time></trkpt><trkpt lat="46.2095903" lon="13.5989866"><ele>675.0</ele><time>2026-04-24T11:32:00.286Z</time></trkpt><trkpt lat="46.2094834" lon="13.5990204"><ele>675.0</ele><time>2026-04-24T11:32:01.285Z</time></trkpt><trkpt lat="46.2094071" lon="13.5990356"><ele>675.0</ele><time>2026-04-24T11:32:02.286Z</time></trkpt><trkpt lat="46.2093347" lon="13.5990258"><ele>675.0</ele><time>2026-04-24T11:32:03.285Z</time></trkpt><trkpt lat="46.2092663" lon="13.5990208"><ele>675.0</ele><time>2026-04-24T11:32:04.285Z</time></trkpt><trkpt lat="46.2091981" lon="13.5990164"><ele>675.0</ele><time>2026-04-24T11:32:05.285Z</time></trkpt><trkpt lat="46.2091223" lon="13.5990051"><ele>675.0</ele><time>2026-04-24T11:32:06.286Z</time></trkpt><trkpt lat="46.2090492" lon="13.5989933"><ele>675.0</ele><time>2026-04-24T11:32:07.285Z</time></trkpt><trkpt lat="46.2089696" lon="13.5989799"><ele>675.0</ele><time>2026-04-24T11:32:08.284Z</time></trkpt><trkpt lat="46.2088801" lon="13.5989657"><ele>675.3333333333334</ele><time>2026-04-24T11:32:09.285Z</time></trkpt><trkpt lat="46.2087948" lon="13.5989429"><ele>675.6666666666666</ele><time>2026-04-24T11:32:10.284Z</time></trkpt><trkpt lat="46.208701" lon="13.5989131"><ele>676.0</ele><time>2026-04-24T11:32:11.284Z</time></trkpt><trkpt lat="46.2086141" lon="13.5988727"><ele>676.3333333333333</ele><time>2026-04-24T11:32:12.284Z</time></trkpt><trkpt lat="46.2085329" lon="13.5988238"><ele>676.6666666666666</ele><time>2026-04-24T11:32:13.285Z</time></trkpt><trkpt lat="46.2084543" lon="13.5987846"><ele>677.0</ele><time>2026-04-24T11:32:14.285Z</time></trkpt><trkpt lat="46.208379" lon="13.5987521"><ele>677.0</ele><time>2026-04-24T11:32:15.285Z</time></trkpt><trkpt lat="46.2083012" lon="13.5987366"><ele>677.0</ele><time>2026-04-24T11:32:16.284Z</time></trkpt><trkpt lat="46.2082247" lon="13.5987205"><ele>677.0</ele><time>2026-04-24T11:32:17.284Z</time></trkpt><trkpt lat="46.2081421" lon="13.5987318"><ele>677.0</ele><time>2026-04-24T11:32:18.286Z</time></trkpt><trkpt lat="46.2080573" lon="13.5987567"><ele>677.0</ele><time>2026-04-24T11:32:19.286Z</time></trkpt><trkpt lat="46.2079691" lon="13.5987963"><ele>677.0</ele><time>2026-04-24T11:32:20.284Z</time></trkpt><trkpt lat="46.2078804" lon="13.5988529"><ele>677.6</ele><time>2026-04-24T11:32:21.285Z</time></trkpt><trkpt lat="46.2077945" lon="13.5989059"><ele>678.2</ele><time>2026-04-24T11:32:22.286Z</time></trkpt><trkpt lat="46.2077079" lon="13.5989674"><ele>678.8</ele><time>2026-04-24T11:32:23.286Z</time></trkpt><trkpt lat="46.2076201" lon="13.5990282"><ele>679.4</ele><time>2026-04-24T11:32:24.285Z</time></trkpt><trkpt lat="46.2075269" lon="13.5990797"><ele>680.0</ele><time>2026-04-24T11:32:25.284Z</time></trkpt><trkpt lat="46.2074324" lon="13.5991179"><ele>680.0</ele><time>2026-04-24T11:32:26.284Z</time></trkpt><trkpt lat="46.2073361" lon="13.5991425"><ele>680.0</ele><time>2026-04-24T11:32:27.286Z</time></trkpt><trkpt lat="46.2072394" lon="13.5991575"><ele>680.0</ele><time>2026-04-24T11:32:28.285Z</time></trkpt><trkpt lat="46.2071422" lon="13.5991753"><ele>680.0</ele><time>2026-04-24T11:32:29.284Z</time></trkpt><trkpt lat="46.207047" lon="13.5991841"><ele>680.0</ele><time>2026-04-24T11:32:30.285Z</time></trkpt><trkpt lat="46.2069531" lon="13.5991986"><ele>680.0</ele><time>2026-04-24T11:32:31.285Z</time></trkpt><trkpt lat="46.2068595" lon="13.5992161"><ele>680.0</ele><time>2026-04-24T11:32:32.285Z</time></trkpt><trkpt lat="46.2067662" lon="13.5992403"><ele>680.0</ele><time>2026-04-24T11:32:33.285Z</time></trkpt><trkpt lat="46.2066777" lon="13.5992517"><ele>680.0</ele><time>2026-04-24T11:32:34.285Z</time></trkpt><trkpt lat="46.2065939" lon="13.5992698"><ele>680.0</ele><time>2026-04-24T11:32:35.284Z</time></trkpt><trkpt lat="46.2065222" lon="13.5992835"><ele>680.0</ele><time>2026-04-24T11:32:36.284Z</time></trkpt><trkpt lat="46.2064524" lon="13.5992935"><ele>680.1666666666666</ele><time>2026-04-24T11:32:37.284Z</time></trkpt><trkpt lat="46.2063764" lon="13.5992963"><ele>680.3333333333333</ele><time>2026-04-24T11:32:38.285Z</time></trkpt><trkpt lat="46.2062958" lon="13.5992982"><ele>680.5</ele><time>2026-04-24T11:32:39.285Z</time></trkpt><trkpt lat="46.2062104" lon="13.5993007"><ele>680.6666666666666</ele><time>2026-04-24T11:32:40.284Z</time></trkpt><trkpt lat="46.2061247" lon="13.599301"><ele>680.8333333333334</ele><time>2026-04-24T11:32:41.284Z</time></trkpt><trkpt lat="46.2060378" lon="13.5992937"><ele>681.0</ele><time>2026-04-24T11:32:42.285Z</time></trkpt><trkpt lat="46.2059463" lon="13.5992869"><ele>681.0</ele><time>2026-04-24T11:32:43.285Z</time></trkpt><trkpt lat="46.2058509" lon="13.5992704"><ele>681.0</ele><time>2026-04-24T11:32:44.285Z</time></trkpt><trkpt lat="46.2057561" lon="13.5992495"><ele>681.0</ele><time>2026-04-24T11:32:45.284Z</time></trkpt><trkpt lat="46.2056606" lon="13.5992231"><ele>681.0</ele><time>2026-04-24T11:32:46.284Z</time></trkpt><trkpt lat="46.2055639" lon="13.5992017"><ele>681.0</ele><time>2026-04-24T11:32:47.285Z</time></trkpt><trkpt lat="46.2054649" lon="13.5991856"><ele>681.0</ele><time>2026-04-24T11:32:48.285Z</time></trkpt><trkpt lat="46.205366" lon="13.5991666"><ele>681.0</ele><time>2026-04-24T11:32:49.285Z</time></trkpt><trkpt lat="46.2052658" lon="13.5991524"><ele>681.0</ele><time>2026-04-24T11:32:50.284Z</time></trkpt><trkpt lat="46.2051642" lon="13.5991432"><ele>681.0</ele><time>2026-04-24T11:32:51.285Z</time></trkpt><trkpt lat="46.2050616" lon="13.5991357"><ele>681.0</ele><time>2026-04-24T11:32:52.285Z</time></trkpt><trkpt lat="46.2049578" lon="13.5991379"><ele>681.0</ele><time>2026-04-24T11:32:53.284Z</time></trkpt><trkpt lat="46.2048531" lon="13.5991576"><ele>681.0</ele><time>2026-04-24T11:32:54.285Z</time></trkpt><trkpt lat="46.2047428" lon="13.5991843"><ele>681.0</ele><time>2026-04-24T11:32:55.286Z</time></trkpt><trkpt lat="46.2046381" lon="13.5992313"><ele>681.0</ele><time>2026-04-24T11:32:56.285Z</time></trkpt><trkpt lat="46.2045389" lon="13.5992876"><ele>681.0</ele><time>2026-04-24T11:32:57.286Z</time></trkpt><trkpt lat="46.2044408" lon="13.5993496"><ele>681.4</ele><time>2026-04-24T11:32:58.284Z</time></trkpt><trkpt lat="46.2043388" lon="13.5993984"><ele>681.8</ele><time>2026-04-24T11:32:59.286Z</time></trkpt><trkpt lat="46.2042438" lon="13.5994475"><ele>682.1999999999999</ele><time>2026-04-24T11:33:00.285Z</time></trkpt><trkpt lat="46.2041483" lon="13.5994805"><ele>682.5999999999999</ele><time>2026-04-24T11:33:01.284Z</time></trkpt><trkpt lat="46.2040491" lon="13.5995039"><ele>683.0</ele><time>2026-04-24T11:33:02.284Z</time></trkpt><trkpt lat="46.2039553" lon="13.5995174"><ele>684.0</ele><time>2026-04-24T11:33:03.285Z</time></trkpt><trkpt lat="46.2038579" lon="13.5995198"><ele>685.0</ele><time>2026-04-24T11:33:04.284Z</time></trkpt><trkpt lat="46.2037592" lon="13.5995175"><ele>686.0</ele><time>2026-04-24T11:33:05.285Z</time></trkpt><trkpt lat="46.2036601" lon="13.5995184"><ele>687.0</ele><time>2026-04-24T11:33:06.285Z</time></trkpt><trkpt lat="46.2035637" lon="13.5995197"><ele>688.0</ele><time>2026-04-24T11:33:07.285Z</time></trkpt><trkpt lat="46.2034662" lon="13.5995226"><ele>688.0</ele><time>2026-04-24T11:33:08.286Z</time></trkpt><trkpt lat="46.2033706" lon="13.5995295"><ele>688.0</ele><time>2026-04-24T11:33:09.284Z</time></trkpt><trkpt lat="46.2032758" lon="13.5995255"><ele>688.0</ele><time>2026-04-24T11:33:10.285Z</time></trkpt><trkpt lat="46.2031963" lon="13.5995153"><ele>688.0</ele><time>2026-04-24T11:33:11.284Z</time></trkpt><trkpt lat="46.20312" lon="13.5994971"><ele>688.0</ele><time>2026-04-24T11:33:12.285Z</time></trkpt><trkpt lat="46.2030457" lon="13.5994799"><ele>688.0</ele><time>2026-04-24T11:33:13.286Z</time></trkpt><trkpt lat="46.202978" lon="13.5994609"><ele>689.5999999999999</ele><time>2026-04-24T11:33:14.285Z</time></trkpt><trkpt lat="46.2028652" lon="13.5994003"><ele>691.1999999999999</ele><time>2026-04-24T11:33:16.286Z</time></trkpt><trkpt lat="46.2027655" lon="13.5993104"><ele>692.8</ele><time>2026-04-24T11:33:18.284Z</time></trkpt><trkpt lat="46.202728" lon="13.5992364"><ele>694.4</ele><time>2026-04-24T11:33:19.284Z</time></trkpt><trkpt lat="46.2026934" lon="13.5991508"><ele>696.0</ele><time>2026-04-24T11:33:20.285Z</time></trkpt><trkpt lat="46.2026739" lon="13.5990089"><ele>696.0</ele><time>2026-04-24T11:33:22.285Z</time></trkpt><trkpt lat="46.202724" lon="13.5988816"><ele>696.0</ele><time>2026-04-24T11:33:24.284Z</time></trkpt><trkpt lat="46.2027883" lon="13.5987673"><ele>696.0</ele><time>2026-04-24T11:33:26.284Z</time></trkpt><trkpt lat="46.2028348" lon="13.5986974"><ele>696.0</ele><time>2026-04-24T11:33:28.285Z</time></trkpt><trkpt lat="46.2028708" lon="13.598619"><ele>696.0</ele><time>2026-04-24T11:33:30.286Z</time></trkpt><trkpt lat="46.2029185" lon="13.5985231"><ele>696.0</ele><time>2026-04-24T11:33:33.284Z</time></trkpt><trkpt lat="46.2029002" lon="13.5984146"><ele>696.1666666666666</ele><time>2026-04-24T11:36:29.284Z</time></trkpt><trkpt lat="46.2029098" lon="13.5985461"><ele>696.3333333333334</ele><time>2026-04-24T11:36:36.284Z</time></trkpt><trkpt lat="46.2029885" lon="13.5985759"><ele>696.5</ele><time>2026-04-24T11:36:38.284Z</time></trkpt><trkpt lat="46.2030666" lon="13.5985739"><ele>696.6666666666667</ele><time>2026-04-24T11:36:40.283Z</time></trkpt><trkpt lat="46.2030949" lon="13.5984803"><ele>696.8333333333334</ele><time>2026-04-24T11:36:41.283Z</time></trkpt><trkpt lat="46.2030373" lon="13.5983522"><ele>697.0</ele><time>2026-04-24T11:36:42.284Z</time></trkpt><trkpt lat="46.2029633" lon="13.5981807"><ele>697.0</ele><time>2026-04-24T11:36:44.283Z</time></trkpt><trkpt lat="46.2029218" lon="13.5981023"><ele>697.0</ele><time>2026-04-24T11:36:45.283Z</time></trkpt><trkpt lat="46.20288" lon="13.59802"><ele>697.0</ele><time>2026-04-24T11:36:46.283Z</time></trkpt><trkpt lat="46.2028393" lon="13.5979369"><ele>697.0</ele><time>2026-04-24T11:36:47.284Z</time></trkpt><trkpt lat="46.2028004" lon="13.5978456"><ele>697.0</ele><time>2026-04-24T11:36:48.284Z</time></trkpt><trkpt lat="46.2027651" lon="13.5977326"><ele>697.0</ele><time>2026-04-24T11:36:49.283Z</time></trkpt><trkpt lat="46.2027393" lon="13.5976279"><ele>697.0</ele><time>2026-04-24T11:36:50.285Z</time></trkpt><trkpt lat="46.2027084" lon="13.5975114"><ele>699.0</ele><time>2026-04-24T11:36:51.283Z</time></trkpt><trkpt lat="46.2026796" lon="13.5973931"><ele>701.0</ele><time>2026-04-24T11:36:52.284Z</time></trkpt><trkpt lat="46.2026502" lon="13.5972661"><ele>703.0</ele><time>2026-04-24T11:36:53.284Z</time></trkpt><trkpt lat="46.2026203" lon="13.597138"><ele>705.0</ele><time>2026-04-24T11:36:54.283Z</time></trkpt><trkpt lat="46.2025795" lon="13.5970071"><ele>707.0</ele><time>2026-04-24T11:36:55.283Z</time></trkpt><trkpt lat="46.2025329" lon="13.5968786"><ele>706.0</ele><time>2026-04-24T11:36:56.282Z</time></trkpt><trkpt lat="46.2024755" lon="13.5967531"><ele>705.0</ele><time>2026-04-24T11:36:57.283Z</time></trkpt><trkpt lat="46.2024271" lon="13.5966338"><ele>704.0</ele><time>2026-04-24T11:36:58.283Z</time></trkpt><trkpt lat="46.2023673" lon="13.5965035"><ele>703.0</ele><time>2026-04-24T11:36:59.283Z</time></trkpt><trkpt lat="46.2023074" lon="13.596363"><ele>702.0</ele><time>2026-04-24T11:37:00.283Z</time></trkpt><trkpt lat="46.2022714" lon="13.5962413"><ele>710.25</ele><time>2026-04-24T11:37:01.284Z</time></trkpt><trkpt lat="46.2021636" lon="13.5961319"><ele>718.5</ele><time>2026-04-24T11:37:02.282Z</time></trkpt><trkpt lat="46.2020792" lon="13.5960585"><ele>726.75</ele><time>2026-04-24T11:37:03.283Z</time></trkpt><trkpt lat="46.2019933" lon="13.5959606"><ele>735.0</ele><time>2026-04-24T11:37:04.283Z</time></trkpt><trkpt lat="46.2019099" lon="13.595845"><ele>735.0</ele><time>2026-04-24T11:37:05.283Z</time></trkpt><trkpt lat="46.2018342" lon="13.5957481"><ele>735.0</ele><time>2026-04-24T11:37:06.283Z</time></trkpt><trkpt lat="46.2017463" lon="13.5956479"><ele>735.0</ele><time>2026-04-24T11:37:07.283Z</time></trkpt><trkpt lat="46.201661" lon="13.5955482"><ele>735.0</ele><time>2026-04-24T11:37:08.283Z</time></trkpt><trkpt lat="46.2015753" lon="13.5954861"><ele>735.0</ele><time>2026-04-24T11:37:09.282Z</time></trkpt><trkpt lat="46.2014821" lon="13.5954089"><ele>737.25</ele><time>2026-04-24T11:37:10.282Z</time></trkpt><trkpt lat="46.201369" lon="13.5953626"><ele>739.5</ele><time>2026-04-24T11:37:11.283Z</time></trkpt><trkpt lat="46.2012674" lon="13.5953096"><ele>741.75</ele><time>2026-04-24T11:37:12.282Z</time></trkpt><trkpt lat="46.2011469" lon="13.5952657"><ele>744.0</ele><time>2026-04-24T11:37:13.283Z</time></trkpt><trkpt lat="46.2010341" lon="13.5952093"><ele>744.0</ele><time>2026-04-24T11:37:14.283Z</time></trkpt><trkpt lat="46.2009178" lon="13.5951287"><ele>744.0</ele><time>2026-04-24T11:37:15.282Z</time></trkpt><trkpt lat="46.2007943" lon="13.5950482"><ele>744.0</ele><time>2026-04-24T11:37:16.282Z</time></trkpt><trkpt lat="46.2006733" lon="13.5949711"><ele>744.0</ele><time>2026-04-24T11:37:17.284Z</time></trkpt><trkpt lat="46.2005628" lon="13.5948963"><ele>740.5</ele><time>2026-04-24T11:37:18.283Z</time></trkpt><trkpt lat="46.2004509" lon="13.5948362"><ele>737.0</ele><time>2026-04-24T11:37:19.283Z</time></trkpt><trkpt lat="46.2003465" lon="13.5947619"><ele>733.5</ele><time>2026-04-24T11:37:20.282Z</time></trkpt><trkpt lat="46.2002338" lon="13.5946867"><ele>730.0</ele><time>2026-04-24T11:37:21.283Z</time></trkpt><trkpt lat="46.2001143" lon="13.5946097"><ele>730.0</ele><time>2026-04-24T11:37:22.282Z</time></trkpt><trkpt lat="46.200011" lon="13.5945304"><ele>730.0</ele><time>2026-04-24T11:37:23.284Z</time></trkpt><trkpt lat="46.1999372" lon="13.5944176"><ele>730.0</ele><time>2026-04-24T11:37:24.283Z</time></trkpt><trkpt lat="46.1999434" lon="13.5943002"><ele>730.0</ele><time>2026-04-24T11:37:25.283Z</time></trkpt><trkpt lat="46.1999523" lon="13.5941539"><ele>730.0</ele><time>2026-04-24T11:37:27.282Z</time></trkpt><trkpt lat="46.1999934" lon="13.5940387"><ele>733.3333333333334</ele><time>2026-04-24T11:37:28.282Z</time></trkpt><trkpt lat="46.2000523" lon="13.5939598"><ele>736.6666666666667</ele><time>2026-04-24T11:37:29.284Z</time></trkpt><trkpt lat="46.2001166" lon="13.5938815"><ele>740.0</ele><time>2026-04-24T11:37:30.284Z</time></trkpt><trkpt lat="46.2001711" lon="13.5937678"><ele>743.3333333333334</ele><time>2026-04-24T11:37:32.283Z</time></trkpt><trkpt lat="46.2001496" lon="13.5936454"><ele>746.6666666666666</ele><time>2026-04-24T11:37:34.283Z</time></trkpt><trkpt lat="46.2001032" lon="13.5935707"><ele>750.0</ele><time>2026-04-24T11:37:35.284Z</time></trkpt><trkpt lat="46.1999262" lon="13.5936187"><ele>750.2</ele><time>2026-04-24T11:37:36.284Z</time></trkpt><trkpt lat="46.1998476" lon="13.5935633"><ele>750.4</ele><time>2026-04-24T11:37:37.283Z</time></trkpt><trkpt lat="46.1997495" lon="13.5935324"><ele>750.5999999999999</ele><time>2026-04-24T11:37:38.283Z</time></trkpt><trkpt lat="46.1996603" lon="13.5935084"><ele>750.8</ele><time>2026-04-24T11:37:39.282Z</time></trkpt><trkpt lat="46.1995854" lon="13.5934166"><ele>751.0</ele><time>2026-04-24T11:37:40.283Z</time></trkpt><trkpt lat="46.1995634" lon="13.593286"><ele>751.0</ele><time>2026-04-24T11:37:41.282Z</time></trkpt><trkpt lat="46.1995178" lon="13.5932108"><ele>751.0</ele><time>2026-04-24T11:37:42.282Z</time></trkpt><trkpt lat="46.1995058" lon="13.5930884"><ele>751.0</ele><time>2026-04-24T11:37:44.283Z</time></trkpt><trkpt lat="46.1995794" lon="13.593062"><ele>751.0</ele><time>2026-04-24T11:37:46.283Z</time></trkpt><trkpt lat="46.1996779" lon="13.5931696"><ele>751.0</ele><time>2026-04-24T11:37:48.284Z</time></trkpt><trkpt lat="46.1997334" lon="13.5932413"><ele>751.0</ele><time>2026-04-24T11:37:49.282Z</time></trkpt><trkpt lat="46.199798" lon="13.5933084"><ele>754.5999999999999</ele><time>2026-04-24T11:37:50.282Z</time></trkpt><trkpt lat="46.1999393" lon="13.5933523"><ele>758.2</ele><time>2026-04-24T11:37:52.284Z</time></trkpt><trkpt lat="46.2000301" lon="13.5933121"><ele>761.8</ele><time>2026-04-24T11:37:53.284Z</time></trkpt><trkpt lat="46.2001141" lon="13.5932866"><ele>765.4000000000001</ele><time>2026-04-24T11:37:54.283Z</time></trkpt><trkpt lat="46.2002031" lon="13.5932205"><ele>769.0</ele><time>2026-04-24T11:37:55.284Z</time></trkpt><trkpt lat="46.2002863" lon="13.5931488"><ele>769.0</ele><time>2026-04-24T11:37:56.283Z</time></trkpt><trkpt lat="46.2003714" lon="13.5930987"><ele>769.0</ele><time>2026-04-24T11:37:57.282Z</time></trkpt><trkpt lat="46.200449" lon="13.593048"><ele>769.0</ele><time>2026-04-24T11:37:58.283Z</time></trkpt><trkpt lat="46.2005189" lon="13.5930535"><ele>769.0</ele><time>2026-04-24T11:37:59.283Z</time></trkpt><trkpt lat="46.2005092" lon="13.5932597"><ele>769.0</ele><time>2026-04-24T11:38:00.283Z</time></trkpt><trkpt lat="46.2005352" lon="13.5933505"><ele>768.9999999999999</ele><time>2026-04-24T11:38:01.283Z</time></trkpt><trkpt lat="46.2005505" lon="13.5934637"><ele>769.0</ele><time>2026-04-24T11:38:02.284Z</time></trkpt><trkpt lat="46.2005605" lon="13.5935745"><ele>769.0</ele><time>2026-04-24T11:38:03.282Z</time></trkpt><trkpt lat="46.2006138" lon="13.5936819"><ele>769.0</ele><time>2026-04-24T11:38:05.284Z</time></trkpt><trkpt lat="46.2007009" lon="13.5937005"><ele>768.9999999999999</ele><time>2026-04-24T11:38:07.283Z</time></trkpt><trkpt lat="46.200684" lon="13.593574"><ele>769.0</ele><time>2026-04-24T11:38:08.283Z</time></trkpt><trkpt lat="46.2006873" lon="13.5934819"><ele>772.3333333333333</ele><time>2026-04-24T11:38:09.283Z</time></trkpt><trkpt lat="46.2006844" lon="13.5933624"><ele>775.6666666666666</ele><time>2026-04-24T11:38:10.283Z</time></trkpt><trkpt lat="46.2006802" lon="13.5932647"><ele>779.0</ele><time>2026-04-24T11:38:11.284Z</time></trkpt><trkpt lat="46.2006873" lon="13.5931666"><ele>782.3333333333333</ele><time>2026-04-24T11:38:12.282Z</time></trkpt><trkpt lat="46.2006853" lon="13.5930487"><ele>785.6666666666666</ele><time>2026-04-24T11:38:13.283Z</time></trkpt><trkpt lat="46.2006885" lon="13.5929282"><ele>789.0</ele><time>2026-04-24T11:38:14.282Z</time></trkpt><trkpt lat="46.2006883" lon="13.5928068"><ele>789.2</ele><time>2026-04-24T11:38:15.283Z</time></trkpt><trkpt lat="46.2006867" lon="13.5926924"><ele>789.4000000000001</ele><time>2026-04-24T11:38:16.282Z</time></trkpt><trkpt lat="46.20061" lon="13.5925774"><ele>789.6</ele><time>2026-04-24T11:38:17.284Z</time></trkpt><trkpt lat="46.2005494" lon="13.5924762"><ele>789.8</ele><time>2026-04-24T11:38:18.283Z</time></trkpt><trkpt lat="46.2004676" lon="13.5923862"><ele>790.0</ele><time>2026-04-24T11:38:19.282Z</time></trkpt><trkpt lat="46.2003756" lon="13.5922877"><ele>790.0</ele><time>2026-04-24T11:38:20.283Z</time></trkpt><trkpt lat="46.2002793" lon="13.5921946"><ele>790.0</ele><time>2026-04-24T11:38:21.283Z</time></trkpt><trkpt lat="46.2001813" lon="13.5921153"><ele>790.0</ele><time>2026-04-24T11:38:22.283Z</time></trkpt><trkpt lat="46.2000835" lon="13.5920431"><ele>790.0</ele><time>2026-04-24T11:38:23.283Z</time></trkpt><trkpt lat="46.1999844" lon="13.5919854"><ele>790.0</ele><time>2026-04-24T11:38:24.283Z</time></trkpt><trkpt lat="46.1998817" lon="13.591953"><ele>791.4999999999999</ele><time>2026-04-24T11:38:25.282Z</time></trkpt><trkpt lat="46.1997882" lon="13.5919324"><ele>793.0</ele><time>2026-04-24T11:38:26.284Z</time></trkpt><trkpt lat="46.1997135" lon="13.591894"><ele>794.5</ele><time>2026-04-24T11:38:27.283Z</time></trkpt><trkpt lat="46.1996739" lon="13.5918159"><ele>796.0</ele><time>2026-04-24T11:38:28.282Z</time></trkpt><trkpt lat="46.1996928" lon="13.5916455"><ele>797.4999999999999</ele><time>2026-04-24T11:38:30.282Z</time></trkpt><trkpt lat="46.1997516" lon="13.5915794"><ele>799.0</ele><time>2026-04-24T11:38:31.282Z</time></trkpt><trkpt lat="46.1998216" lon="13.5915147"><ele>799.3333333333333</ele><time>2026-04-24T11:38:32.283Z</time></trkpt><trkpt lat="46.1998912" lon="13.5914547"><ele>799.6666666666666</ele><time>2026-04-24T11:38:33.282Z</time></trkpt><trkpt lat="46.1999701" lon="13.5914015"><ele>800.0</ele><time>2026-04-24T11:38:34.282Z</time></trkpt><trkpt lat="46.2000413" lon="13.5913582"><ele>800.3333333333333</ele><time>2026-04-24T11:38:35.284Z</time></trkpt><trkpt lat="46.2001294" lon="13.5913421"><ele>800.6666666666666</ele><time>2026-04-24T11:38:36.283Z</time></trkpt><trkpt lat="46.2002254" lon="13.5913414"><ele>801.0</ele><time>2026-04-24T11:38:37.282Z</time></trkpt><trkpt lat="46.2003225" lon="13.5913412"><ele>801.0</ele><time>2026-04-24T11:38:38.283Z</time></trkpt><trkpt lat="46.2004222" lon="13.5913358"><ele>801.0</ele><time>2026-04-24T11:38:39.282Z</time></trkpt><trkpt lat="46.200529" lon="13.591335"><ele>801.0</ele><time>2026-04-24T11:38:40.284Z</time></trkpt><trkpt lat="46.2006414" lon="13.5913286"><ele>801.0</ele><time>2026-04-24T11:38:41.283Z</time></trkpt><trkpt lat="46.2007525" lon="13.5913355"><ele>801.0</ele><time>2026-04-24T11:38:42.283Z</time></trkpt><trkpt lat="46.2008617" lon="13.5913442"><ele>800.5</ele><time>2026-04-24T11:38:43.283Z</time></trkpt><trkpt lat="46.2009691" lon="13.5913467"><ele>800.0</ele><time>2026-04-24T11:38:44.284Z</time></trkpt><trkpt lat="46.201061" lon="13.5913346"><ele>799.5</ele><time>2026-04-24T11:38:45.283Z</time></trkpt><trkpt lat="46.2011364" lon="13.5913046"><ele>799.0</ele><time>2026-04-24T11:38:46.283Z</time></trkpt><trkpt lat="46.2011956" lon="13.5912351"><ele>798.5</ele><time>2026-04-24T11:38:47.283Z</time></trkpt><trkpt lat="46.2012321" lon="13.591134"><ele>798.0</ele><time>2026-04-24T11:38:48.283Z</time></trkpt><trkpt lat="46.2012498" lon="13.5910197"><ele>800.5</ele><time>2026-04-24T11:38:49.283Z</time></trkpt><trkpt lat="46.2012668" lon="13.5908973"><ele>803.0</ele><time>2026-04-24T11:38:50.283Z</time></trkpt><trkpt lat="46.2012962" lon="13.5907812"><ele>805.5</ele><time>2026-04-24T11:38:51.282Z</time></trkpt><trkpt lat="46.2013368" lon="13.5906873"><ele>808.0</ele><time>2026-04-24T11:38:52.282Z</time></trkpt><trkpt lat="46.2013903" lon="13.5906391"><ele>810.5</ele><time>2026-04-24T11:38:53.283Z</time></trkpt><trkpt lat="46.2014535" lon="13.5906449"><ele>813.0</ele><time>2026-04-24T11:38:54.283Z</time></trkpt><trkpt lat="46.2015246" lon="13.5906925"><ele>813.0</ele><time>2026-04-24T11:38:55.283Z</time></trkpt><trkpt lat="46.2016059" lon="13.5907512"><ele>813.0</ele><time>2026-04-24T11:38:56.283Z</time></trkpt><trkpt lat="46.2016905" lon="13.590811"><ele>813.0</ele><time>2026-04-24T11:38:57.284Z</time></trkpt><trkpt lat="46.2017767" lon="13.590872"><ele>813.0</ele><time>2026-04-24T11:38:58.283Z</time></trkpt><trkpt lat="46.2018536" lon="13.5909426"><ele>813.0</ele><time>2026-04-24T11:38:59.282Z</time></trkpt><trkpt lat="46.2019083" lon="13.5910302"><ele>813.0</ele><time>2026-04-24T11:39:00.283Z</time></trkpt><trkpt lat="46.2019429" lon="13.5911338"><ele>813.0</ele><time>2026-04-24T11:39:01.284Z</time></trkpt><trkpt lat="46.2019577" lon="13.5912497"><ele>813.0</ele><time>2026-04-24T11:39:02.284Z</time></trkpt><trkpt lat="46.2019736" lon="13.5913628"><ele>813.0</ele><time>2026-04-24T11:39:03.284Z</time></trkpt><trkpt lat="46.2020133" lon="13.5914527"><ele>813.0</ele><time>2026-04-24T11:39:04.283Z</time></trkpt><trkpt lat="46.2020783" lon="13.5915167"><ele>813.0</ele><time>2026-04-24T11:39:05.283Z</time></trkpt><trkpt lat="46.2021558" lon="13.5915704"><ele>812.2</ele><time>2026-04-24T11:39:06.283Z</time></trkpt><trkpt lat="46.2022373" lon="13.591628"><ele>811.4</ele><time>2026-04-24T11:39:07.283Z</time></trkpt><trkpt lat="46.2023227" lon="13.5916867"><ele>810.6</ele><time>2026-04-24T11:39:08.284Z</time></trkpt><trkpt lat="46.2024099" lon="13.591751"><ele>809.8000000000001</ele><time>2026-04-24T11:39:09.283Z</time></trkpt><trkpt lat="46.2025001" lon="13.5918216"><ele>809.0</ele><time>2026-04-24T11:39:10.282Z</time></trkpt><trkpt lat="46.2025883" lon="13.5918936"><ele>812.2</ele><time>2026-04-24T11:39:11.284Z</time></trkpt><trkpt lat="46.2026755" lon="13.5919619"><ele>815.4000000000001</ele><time>2026-04-24T11:39:12.283Z</time></trkpt><trkpt lat="46.2027589" lon="13.5920368"><ele>818.6</ele><time>2026-04-24T11:39:13.283Z</time></trkpt><trkpt lat="46.2028444" lon="13.5920885"><ele>821.8</ele><time>2026-04-24T11:39:14.283Z</time></trkpt><trkpt lat="46.2029329" lon="13.5921084"><ele>825.0</ele><time>2026-04-24T11:39:15.282Z</time></trkpt><trkpt lat="46.2030224" lon="13.5921024"><ele>825.6</ele><time>2026-04-24T11:39:16.284Z</time></trkpt><trkpt lat="46.2031108" lon="13.5920762"><ele>826.2</ele><time>2026-04-24T11:39:17.282Z</time></trkpt><trkpt lat="46.2031959" lon="13.5920351"><ele>826.8</ele><time>2026-04-24T11:39:18.283Z</time></trkpt><trkpt lat="46.2032749" lon="13.591984"><ele>827.4</ele><time>2026-04-24T11:39:19.282Z</time></trkpt><trkpt lat="46.2033526" lon="13.5919054"><ele>828.0</ele><time>2026-04-24T11:39:20.283Z</time></trkpt><trkpt lat="46.2034259" lon="13.5918189"><ele>829.5</ele><time>2026-04-24T11:39:21.282Z</time></trkpt><trkpt lat="46.2034909" lon="13.5917208"><ele>831.0</ele><time>2026-04-24T11:39:22.283Z</time></trkpt><trkpt lat="46.2035391" lon="13.5916179"><ele>832.5</ele><time>2026-04-24T11:39:23.284Z</time></trkpt><trkpt lat="46.2035654" lon="13.5915059"><ele>834.0</ele><time>2026-04-24T11:39:24.282Z</time></trkpt><trkpt lat="46.2035757" lon="13.5913937"><ele>835.5</ele><time>2026-04-24T11:39:25.284Z</time></trkpt><trkpt lat="46.2035715" lon="13.5912673"><ele>837.0</ele><time>2026-04-24T11:39:26.283Z</time></trkpt><trkpt lat="46.203564" lon="13.5911343"><ele>838.25</ele><time>2026-04-24T11:39:27.283Z</time></trkpt><trkpt lat="46.203553" lon="13.5909865"><ele>839.5</ele><time>2026-04-24T11:39:28.284Z</time></trkpt><trkpt lat="46.20354" lon="13.5908294"><ele>840.75</ele><time>2026-04-24T11:39:29.282Z</time></trkpt><trkpt lat="46.2035218" lon="13.590661"><ele>842.0</ele><time>2026-04-24T11:39:30.282Z</time></trkpt><trkpt lat="46.2035058" lon="13.5904902"><ele>842.8</ele><time>2026-04-24T11:39:31.283Z</time></trkpt><trkpt lat="46.2034895" lon="13.5903254"><ele>843.6</ele><time>2026-04-24T11:39:32.283Z</time></trkpt><trkpt lat="46.2034745" lon="13.5901705"><ele>844.4</ele><time>2026-04-24T11:39:33.283Z</time></trkpt><trkpt lat="46.2034547" lon="13.5900289"><ele>845.1999999999999</ele><time>2026-04-24T11:39:34.284Z</time></trkpt><trkpt lat="46.2034161" lon="13.5898993"><ele>846.0</ele><time>2026-04-24T11:39:35.283Z</time></trkpt><trkpt lat="46.2033525" lon="13.5897888"><ele>846.0</ele><time>2026-04-24T11:39:36.283Z</time></trkpt><trkpt lat="46.2032715" lon="13.5896906"><ele>846.0</ele><time>2026-04-24T11:39:37.283Z</time></trkpt><trkpt lat="46.2031864" lon="13.5895954"><ele>846.0</ele><time>2026-04-24T11:39:38.283Z</time></trkpt><trkpt lat="46.2030948" lon="13.5894936"><ele>846.0</ele><time>2026-04-24T11:39:39.282Z</time></trkpt><trkpt lat="46.2030051" lon="13.5893905"><ele>846.0</ele><time>2026-04-24T11:39:40.283Z</time></trkpt><trkpt lat="46.2029156" lon="13.5892828"><ele>846.0</ele><time>2026-04-24T11:39:41.282Z</time></trkpt><trkpt lat="46.2028245" lon="13.5891761"><ele>846.0</ele><time>2026-04-24T11:39:42.283Z</time></trkpt><trkpt lat="46.2027325" lon="13.5890685"><ele>846.0</ele><time>2026-04-24T11:39:43.283Z</time></trkpt><trkpt lat="46.2026337" lon="13.5889759"><ele>846.0</ele><time>2026-04-24T11:39:44.283Z</time></trkpt><trkpt lat="46.2025246" lon="13.5889181"><ele>846.0</ele><time>2026-04-24T11:39:45.282Z</time></trkpt><trkpt lat="46.2024099" lon="13.5888887"><ele>846.0</ele><time>2026-04-24T11:39:46.283Z</time></trkpt><trkpt lat="46.202299" lon="13.5888772"><ele>846.0</ele><time>2026-04-24T11:39:47.282Z</time></trkpt><trkpt lat="46.2021935" lon="13.5888818"><ele>846.0</ele><time>2026-04-24T11:39:48.282Z</time></trkpt><trkpt lat="46.2021003" lon="13.5888843"><ele>846.0</ele><time>2026-04-24T11:39:49.282Z</time></trkpt><trkpt lat="46.202021" lon="13.5888785"><ele>847.1666666666666</ele><time>2026-04-24T11:39:50.282Z</time></trkpt><trkpt lat="46.2019473" lon="13.5888637"><ele>848.3333333333333</ele><time>2026-04-24T11:39:51.282Z</time></trkpt><trkpt lat="46.2018761" lon="13.5888238"><ele>849.5</ele><time>2026-04-24T11:39:52.282Z</time></trkpt><trkpt lat="46.2018054" lon="13.5887587"><ele>850.6666666666666</ele><time>2026-04-24T11:39:53.282Z</time></trkpt><trkpt lat="46.2017256" lon="13.5887065"><ele>851.8333333333333</ele><time>2026-04-24T11:39:54.282Z</time></trkpt><trkpt lat="46.2016309" lon="13.5887004"><ele>853.0</ele><time>2026-04-24T11:39:55.282Z</time></trkpt><trkpt lat="46.2015352" lon="13.5887172"><ele>853.0</ele><time>2026-04-24T11:39:56.282Z</time></trkpt><trkpt lat="46.2014352" lon="13.5887465"><ele>853.0</ele><time>2026-04-24T11:39:57.282Z</time></trkpt><trkpt lat="46.2013271" lon="13.5887772"><ele>853.0</ele><time>2026-04-24T11:39:58.281Z</time></trkpt><trkpt lat="46.2012164" lon="13.5887995"><ele>853.0</ele><time>2026-04-24T11:39:59.282Z</time></trkpt><trkpt lat="46.2011001" lon="13.5888201"><ele>853.0</ele><time>2026-04-24T11:40:00.281Z</time></trkpt><trkpt lat="46.2009823" lon="13.5888361"><ele>853.0</ele><time>2026-04-24T11:40:01.283Z</time></trkpt><trkpt lat="46.2008689" lon="13.588847"><ele>853.0</ele><time>2026-04-24T11:40:02.281Z</time></trkpt><trkpt lat="46.2007631" lon="13.5888504"><ele>853.0</ele><time>2026-04-24T11:40:03.282Z</time></trkpt><trkpt lat="46.2006718" lon="13.5888438"><ele>853.0</ele><time>2026-04-24T11:40:04.281Z</time></trkpt><trkpt lat="46.2006004" lon="13.5888342"><ele>853.0</ele><time>2026-04-24T11:40:05.282Z</time></trkpt><trkpt lat="46.2005108" lon="13.5888129"><ele>853.4</ele><time>2026-04-24T11:40:07.282Z</time></trkpt><trkpt lat="46.200441" lon="13.5887946"><ele>853.8</ele><time>2026-04-24T11:40:09.283Z</time></trkpt><trkpt lat="46.2003689" lon="13.5887852"><ele>854.2</ele><time>2026-04-24T11:40:11.283Z</time></trkpt><trkpt lat="46.2002633" lon="13.588791"><ele>854.6</ele><time>2026-04-24T11:40:13.282Z</time></trkpt><trkpt lat="46.2001464" lon="13.58879"><ele>855.0</ele><time>2026-04-24T11:40:15.283Z</time></trkpt><trkpt lat="46.2000383" lon="13.5887889"><ele>855.0</ele><time>2026-04-24T11:40:17.282Z</time></trkpt><trkpt lat="46.1999402" lon="13.5887493"><ele>855.0</ele><time>2026-04-24T11:40:19.282Z</time></trkpt><trkpt lat="46.1998546" lon="13.5886638"><ele>855.0</ele><time>2026-04-24T11:40:21.282Z</time></trkpt><trkpt lat="46.1997716" lon="13.5885785"><ele>855.0</ele><time>2026-04-24T11:40:23.282Z</time></trkpt><trkpt lat="46.1996923" lon="13.5884964"><ele>855.0</ele><time>2026-04-24T11:40:25.281Z</time></trkpt><trkpt lat="46.1996181" lon="13.588399"><ele>855.4</ele><time>2026-04-24T11:40:27.281Z</time></trkpt><trkpt lat="46.1995545" lon="13.5882969"><ele>855.8</ele><time>2026-04-24T11:40:29.283Z</time></trkpt><trkpt lat="46.1995102" lon="13.5881809"><ele>856.2</ele><time>2026-04-24T11:40:31.283Z</time></trkpt><trkpt lat="46.1994704" lon="13.5880888"><ele>856.6</ele><time>2026-04-24T11:40:33.281Z</time></trkpt><trkpt lat="46.1994328" lon="13.5879642"><ele>857.0</ele><time>2026-04-24T11:40:35.282Z</time></trkpt><trkpt lat="46.1994123" lon="13.5878026"><ele>861.0</ele><time>2026-04-24T11:40:37.282Z</time></trkpt><trkpt lat="46.1993915" lon="13.587629"><ele>865.0</ele><time>2026-04-24T11:40:39.282Z</time></trkpt><trkpt lat="46.1993372" lon="13.5874701"><ele>869.0</ele><time>2026-04-24T11:40:41.282Z</time></trkpt><trkpt lat="46.1992504" lon="13.587345"><ele>873.0</ele><time>2026-04-24T11:40:43.282Z</time></trkpt><trkpt lat="46.1991759" lon="13.5872097"><ele>873.0</ele><time>2026-04-24T11:40:45.282Z</time></trkpt><trkpt lat="46.1991435" lon="13.5871286"><ele>873.0</ele><time>2026-04-24T11:40:46.282Z</time></trkpt><trkpt lat="46.1990997" lon="13.5869637"><ele>873.0</ele><time>2026-04-24T11:40:48.282Z</time></trkpt><trkpt lat="46.1990839" lon="13.5868589"><ele>873.0</ele><time>2026-04-24T11:40:49.281Z</time></trkpt><trkpt lat="46.1990675" lon="13.5867585"><ele>873.0</ele><time>2026-04-24T11:40:50.282Z</time></trkpt><trkpt lat="46.1990519" lon="13.586662"><ele>873.0</ele><time>2026-04-24T11:40:51.281Z</time></trkpt><trkpt lat="46.1990323" lon="13.586562"><ele>873.4</ele><time>2026-04-24T11:40:52.282Z</time></trkpt><trkpt lat="46.1990154" lon="13.5864729"><ele>873.8</ele><time>2026-04-24T11:40:53.281Z</time></trkpt><trkpt lat="46.1989787" lon="13.586378"><ele>874.2</ele><time>2026-04-24T11:40:54.282Z</time></trkpt><trkpt lat="46.1989105" lon="13.58623"><ele>874.6</ele><time>2026-04-24T11:40:56.282Z</time></trkpt><trkpt lat="46.1988085" lon="13.5861382"><ele>875.0</ele><time>2026-04-24T11:40:58.281Z</time></trkpt><trkpt lat="46.1986972" lon="13.5860667"><ele>876.8333333333334</ele><time>2026-04-24T11:41:00.281Z</time></trkpt><trkpt lat="46.1986589" lon="13.5859595"><ele>878.6666666666667</ele><time>2026-04-24T11:41:02.281Z</time></trkpt><trkpt lat="46.1986293" lon="13.5857905"><ele>880.5</ele><time>2026-04-24T11:41:04.282Z</time></trkpt><trkpt lat="46.1986262" lon="13.5856874"><ele>882.3333333333333</ele><time>2026-04-24T11:41:05.282Z</time></trkpt><trkpt lat="46.1986238" lon="13.58558"><ele>884.1666666666666</ele><time>2026-04-24T11:41:06.282Z</time></trkpt><trkpt lat="46.1986237" lon="13.5854754"><ele>886.0</ele><time>2026-04-24T11:41:07.281Z</time></trkpt><trkpt lat="46.1986235" lon="13.5853724"><ele>886.1666666666666</ele><time>2026-04-24T11:41:08.282Z</time></trkpt><trkpt lat="46.1986213" lon="13.5852687"><ele>886.3333333333333</ele><time>2026-04-24T11:41:09.282Z</time></trkpt><trkpt lat="46.1986171" lon="13.5851714"><ele>886.5</ele><time>2026-04-24T11:41:10.283Z</time></trkpt><trkpt lat="46.19861" lon="13.5850191"><ele>886.6666666666667</ele><time>2026-04-24T11:41:12.282Z</time></trkpt><trkpt lat="46.1986082" lon="13.5849105"><ele>886.8333333333334</ele><time>2026-04-24T11:45:57.28Z</time></trkpt><trkpt lat="46.198571" lon="13.5848266"><ele>887.0</ele><time>2026-04-24T11:45:59.279Z</time></trkpt><trkpt lat="46.1985705" lon="13.5847279"><ele>887.0000000000001</ele><time>2026-04-24T11:46:01.281Z</time></trkpt><trkpt lat="46.1985198" lon="13.5847942"><ele>887.0</ele><time>2026-04-24T11:46:06.281Z</time></trkpt><trkpt lat="46.1985502" lon="13.5848799"><ele>887.0</ele><time>2026-04-24T11:46:08.279Z</time></trkpt><trkpt lat="46.198595" lon="13.5850072"><ele>887.0</ele><time>2026-04-24T11:46:10.28Z</time></trkpt><trkpt lat="46.198615" lon="13.585165"><ele>887.0000000000001</ele><time>2026-04-24T11:46:12.279Z</time></trkpt><trkpt lat="46.198623" lon="13.5852563"><ele>887.0</ele><time>2026-04-24T11:46:13.281Z</time></trkpt><trkpt lat="46.1986278" lon="13.5853555"><ele>886.8333333333334</ele><time>2026-04-24T11:46:14.279Z</time></trkpt><trkpt lat="46.1986324" lon="13.5854603"><ele>886.6666666666667</ele><time>2026-04-24T11:46:15.281Z</time></trkpt><trkpt lat="46.1986352" lon="13.5855661"><ele>886.5</ele><time>2026-04-24T11:46:16.279Z</time></trkpt><trkpt lat="46.1986336" lon="13.5856683"><ele>886.3333333333333</ele><time>2026-04-24T11:46:17.28Z</time></trkpt><trkpt lat="46.1986341" lon="13.585767"><ele>886.1666666666666</ele><time>2026-04-24T11:46:18.279Z</time></trkpt><trkpt lat="46.198637" lon="13.5858612"><ele>886.0</ele><time>2026-04-24T11:46:19.281Z</time></trkpt><trkpt lat="46.1986575" lon="13.5860504"><ele>883.8</ele><time>2026-04-24T11:46:21.279Z</time></trkpt><trkpt lat="46.1987364" lon="13.5861809"><ele>881.5999999999999</ele><time>2026-04-24T11:46:23.279Z</time></trkpt><trkpt lat="46.1987832" lon="13.5862537"><ele>879.4</ele><time>2026-04-24T11:46:24.279Z</time></trkpt><trkpt lat="46.198871" lon="13.5862964"><ele>877.2</ele><time>2026-04-24T11:46:25.278Z</time></trkpt><trkpt lat="46.1989272" lon="13.5863758"><ele>875.0</ele><time>2026-04-24T11:46:26.279Z</time></trkpt><trkpt lat="46.1989857" lon="13.5864834"><ele>875.0000000000001</ele><time>2026-04-24T11:46:27.28Z</time></trkpt><trkpt lat="46.1989964" lon="13.5865944"><ele>875.0</ele><time>2026-04-24T11:46:28.28Z</time></trkpt><trkpt lat="46.1990178" lon="13.58671"><ele>875.0</ele><time>2026-04-24T11:46:29.278Z</time></trkpt><trkpt lat="46.1990491" lon="13.5868335"><ele>875.0</ele><time>2026-04-24T11:46:30.279Z</time></trkpt><trkpt lat="46.1990719" lon="13.5869466"><ele>875.0000000000001</ele><time>2026-04-24T11:46:31.278Z</time></trkpt><trkpt lat="46.1990984" lon="13.5870517"><ele>875.0</ele><time>2026-04-24T11:46:32.279Z</time></trkpt><trkpt lat="46.1991273" lon="13.5871511"><ele>874.6666666666667</ele><time>2026-04-24T11:46:33.278Z</time></trkpt><trkpt lat="46.1992076" lon="13.5873073"><ele>874.3333333333334</ele><time>2026-04-24T11:46:35.279Z</time></trkpt><trkpt lat="46.1992678" lon="13.587394"><ele>874.0</ele><time>2026-04-24T11:46:36.279Z</time></trkpt><trkpt lat="46.1993196" lon="13.5874787"><ele>873.6666666666667</ele><time>2026-04-24T11:46:37.28Z</time></trkpt><trkpt lat="46.1993513" lon="13.5875772"><ele>873.3333333333334</ele><time>2026-04-24T11:46:38.279Z</time></trkpt><trkpt lat="46.199374" lon="13.5876643"><ele>873.0</ele><time>2026-04-24T11:46:39.279Z</time></trkpt><trkpt lat="46.1993936" lon="13.587859"><ele>870.7142857142857</ele><time>2026-04-24T11:46:41.279Z</time></trkpt><trkpt lat="46.1994099" lon="13.5879593"><ele>868.4285714285714</ele><time>2026-04-24T11:46:42.279Z</time></trkpt><trkpt lat="46.199441" lon="13.5880502"><ele>866.1428571428571</ele><time>2026-04-24T11:46:43.279Z</time></trkpt><trkpt lat="46.1994759" lon="13.588136"><ele>863.8571428571429</ele><time>2026-04-24T11:46:44.279Z</time></trkpt><trkpt lat="46.1995149" lon="13.5882206"><ele>861.5714285714286</ele><time>2026-04-24T11:46:45.278Z</time></trkpt><trkpt lat="46.1995572" lon="13.5883077"><ele>859.2857142857142</ele><time>2026-04-24T11:46:46.28Z</time></trkpt><trkpt lat="46.1996073" lon="13.5883929"><ele>857.0</ele><time>2026-04-24T11:46:47.278Z</time></trkpt><trkpt lat="46.1996986" lon="13.5885244"><ele>857.0</ele><time>2026-04-24T11:46:49.278Z</time></trkpt><trkpt lat="46.1997578" lon="13.5886"><ele>857.0</ele><time>2026-04-24T11:46:50.278Z</time></trkpt><trkpt lat="46.199814" lon="13.5886663"><ele>857.0</ele><time>2026-04-24T11:46:51.278Z</time></trkpt><trkpt lat="46.1998705" lon="13.5887168"><ele>857.0</ele><time>2026-04-24T11:46:52.279Z</time></trkpt><trkpt lat="46.1999367" lon="13.588752"><ele>857.0</ele><time>2026-04-24T11:46:53.278Z</time></trkpt><trkpt lat="46.2000024" lon="13.5887695"><ele>857.0</ele><time>2026-04-24T11:46:54.279Z</time></trkpt><trkpt lat="46.2000815" lon="13.5887829"><ele>857.0</ele><time>2026-04-24T11:46:55.28Z</time></trkpt><trkpt lat="46.2001562" lon="13.5888008"><ele>856.6666666666667</ele><time>2026-04-24T11:46:56.279Z</time></trkpt><trkpt lat="46.2002333" lon="13.5888012"><ele>856.3333333333334</ele><time>2026-04-24T11:46:57.279Z</time></trkpt><trkpt lat="46.2003118" lon="13.5887869"><ele>856.0</ele><time>2026-04-24T11:46:58.279Z</time></trkpt><trkpt lat="46.2004011" lon="13.5887947"><ele>855.6666666666667</ele><time>2026-04-24T11:46:59.278Z</time></trkpt><trkpt lat="46.2004999" lon="13.5887873"><ele>855.3333333333334</ele><time>2026-04-24T11:47:00.279Z</time></trkpt><trkpt lat="46.2005944" lon="13.5888028"><ele>855.0</ele><time>2026-04-24T11:47:01.28Z</time></trkpt><trkpt lat="46.2006884" lon="13.58882"><ele>854.6</ele><time>2026-04-24T11:47:02.279Z</time></trkpt><trkpt lat="46.2007885" lon="13.5888245"><ele>854.2</ele><time>2026-04-24T11:47:03.278Z</time></trkpt><trkpt lat="46.2008922" lon="13.5888244"><ele>853.8</ele><time>2026-04-24T11:47:04.278Z</time></trkpt><trkpt lat="46.2009977" lon="13.5888158"><ele>853.4</ele><time>2026-04-24T11:47:05.28Z</time></trkpt><trkpt lat="46.2010998" lon="13.5887982"><ele>853.0</ele><time>2026-04-24T11:47:06.279Z</time></trkpt><trkpt lat="46.2011956" lon="13.5887788"><ele>853.0</ele><time>2026-04-24T11:47:07.279Z</time></trkpt><trkpt lat="46.2012939" lon="13.5887495"><ele>853.0</ele><time>2026-04-24T11:47:08.279Z</time></trkpt><trkpt lat="46.2013933" lon="13.5887193"><ele>853.0</ele><time>2026-04-24T11:47:09.279Z</time></trkpt><trkpt lat="46.201488" lon="13.5886912"><ele>853.0</ele><time>2026-04-24T11:47:10.279Z</time></trkpt><trkpt lat="46.2015796" lon="13.5886733"><ele>853.0</ele><time>2026-04-24T11:47:11.279Z</time></trkpt><trkpt lat="46.2016682" lon="13.5886745"><ele>852.9999999999999</ele><time>2026-04-24T11:47:12.279Z</time></trkpt><trkpt lat="46.2017438" lon="13.5887082"><ele>853.0</ele><time>2026-04-24T11:47:13.279Z</time></trkpt><trkpt lat="46.2018059" lon="13.5887667"><ele>853.0</ele><time>2026-04-24T11:47:14.279Z</time></trkpt><trkpt lat="46.2018598" lon="13.5888248"><ele>853.0</ele><time>2026-04-24T11:47:15.279Z</time></trkpt><trkpt lat="46.2019298" lon="13.588854"><ele>852.9999999999999</ele><time>2026-04-24T11:47:16.28Z</time></trkpt><trkpt lat="46.2020174" lon="13.5888677"><ele>853.0</ele><time>2026-04-24T11:47:17.279Z</time></trkpt><trkpt lat="46.2021149" lon="13.5888619"><ele>853.0</ele><time>2026-04-24T11:47:18.28Z</time></trkpt><trkpt lat="46.2022152" lon="13.5888547"><ele>853.0</ele><time>2026-04-24T11:47:19.279Z</time></trkpt><trkpt lat="46.2023185" lon="13.5888535"><ele>853.0</ele><time>2026-04-24T11:47:20.279Z</time></trkpt><trkpt lat="46.2024239" lon="13.5888647"><ele>853.0</ele><time>2026-04-24T11:47:21.279Z</time></trkpt><trkpt lat="46.2025262" lon="13.5889011"><ele>853.0</ele><time>2026-04-24T11:47:22.28Z</time></trkpt><trkpt lat="46.2026297" lon="13.5889847"><ele>851.25</ele><time>2026-04-24T11:47:23.279Z</time></trkpt><trkpt lat="46.2027292" lon="13.5890846"><ele>849.5</ele><time>2026-04-24T11:47:24.28Z</time></trkpt><trkpt lat="46.2028326" lon="13.5891943"><ele>847.75</ele><time>2026-04-24T11:47:25.279Z</time></trkpt><trkpt lat="46.2029366" lon="13.5893079"><ele>846.0</ele><time>2026-04-24T11:47:26.279Z</time></trkpt><trkpt lat="46.2030365" lon="13.5894223"><ele>846.0</ele><time>2026-04-24T11:47:27.278Z</time></trkpt><trkpt lat="46.2031336" lon="13.5895336"><ele>846.0</ele><time>2026-04-24T11:47:28.278Z</time></trkpt><trkpt lat="46.2032299" lon="13.5896389"><ele>846.0</ele><time>2026-04-24T11:47:29.279Z</time></trkpt><trkpt lat="46.2033151" lon="13.5897435"><ele>846.0</ele><time>2026-04-24T11:47:30.278Z</time></trkpt><trkpt lat="46.2033807" lon="13.5898608"><ele>846.0</ele><time>2026-04-24T11:47:31.279Z</time></trkpt><trkpt lat="46.2034218" lon="13.5900039"><ele>846.0</ele><time>2026-04-24T11:47:32.278Z</time></trkpt><trkpt lat="46.2034527" lon="13.5901604"><ele>846.0</ele><time>2026-04-24T11:47:33.28Z</time></trkpt><trkpt lat="46.2034706" lon="13.5903273"><ele>846.0</ele><time>2026-04-24T11:47:34.279Z</time></trkpt><trkpt lat="46.2034877" lon="13.5905131"><ele>845.0</ele><time>2026-04-24T11:47:35.278Z</time></trkpt><trkpt lat="46.2035057" lon="13.590701"><ele>844.0</ele><time>2026-04-24T11:47:36.28Z</time></trkpt><trkpt lat="46.2035241" lon="13.5908764"><ele>843.0</ele><time>2026-04-24T11:47:37.28Z</time></trkpt><trkpt lat="46.2035412" lon="13.5910412"><ele>842.0</ele><time>2026-04-24T11:47:38.278Z</time></trkpt><trkpt lat="46.2035553" lon="13.5912"><ele>841.1666666666667</ele><time>2026-04-24T11:47:39.28Z</time></trkpt><trkpt lat="46.2035643" lon="13.5913361"><ele>840.3333333333334</ele><time>2026-04-24T11:47:40.279Z</time></trkpt><trkpt lat="46.2035629" lon="13.5914481"><ele>839.5</ele><time>2026-04-24T11:47:41.279Z</time></trkpt><trkpt lat="46.2035481" lon="13.5915475"><ele>838.6666666666667</ele><time>2026-04-24T11:47:42.28Z</time></trkpt><trkpt lat="46.2035138" lon="13.591649"><ele>837.8333333333334</ele><time>2026-04-24T11:47:43.279Z</time></trkpt><trkpt lat="46.2034605" lon="13.5917493"><ele>837.0</ele><time>2026-04-24T11:47:44.28Z</time></trkpt><trkpt lat="46.2033937" lon="13.5918459"><ele>837.0</ele><time>2026-04-24T11:47:45.278Z</time></trkpt><trkpt lat="46.2033135" lon="13.5919325"><ele>837.0</ele><time>2026-04-24T11:47:46.278Z</time></trkpt><trkpt lat="46.2032197" lon="13.5920081"><ele>837.0</ele><time>2026-04-24T11:47:47.279Z</time></trkpt><trkpt lat="46.2031215" lon="13.5920651"><ele>837.0</ele><time>2026-04-24T11:47:48.279Z</time></trkpt><trkpt lat="46.2030149" lon="13.5920943"><ele>837.0</ele><time>2026-04-24T11:47:49.278Z</time></trkpt><trkpt lat="46.2029099" lon="13.5920971"><ele>834.75</ele><time>2026-04-24T11:47:50.28Z</time></trkpt><trkpt lat="46.2028075" lon="13.5920569"><ele>832.5</ele><time>2026-04-24T11:47:51.28Z</time></trkpt><trkpt lat="46.2027089" lon="13.5919856"><ele>830.25</ele><time>2026-04-24T11:47:52.279Z</time></trkpt><trkpt lat="46.2026048" lon="13.5919008"><ele>828.0</ele><time>2026-04-24T11:47:53.279Z</time></trkpt><trkpt lat="46.2025003" lon="13.5918175"><ele>827.25</ele><time>2026-04-24T11:47:54.278Z</time></trkpt><trkpt lat="46.2023956" lon="13.5917317"><ele>826.5</ele><time>2026-04-24T11:47:55.279Z</time></trkpt><trkpt lat="46.202291" lon="13.5916547"><ele>825.75</ele><time>2026-04-24T11:47:56.278Z</time></trkpt><trkpt lat="46.2021818" lon="13.5915827"><ele>825.0</ele><time>2026-04-24T11:47:57.279Z</time></trkpt><trkpt lat="46.2020892" lon="13.5915179"><ele>822.6</ele><time>2026-04-24T11:47:58.279Z</time></trkpt><trkpt lat="46.2020267" lon="13.591436"><ele>820.2</ele><time>2026-04-24T11:47:59.279Z</time></trkpt><trkpt lat="46.2019921" lon="13.5913138"><ele>817.8</ele><time>2026-04-24T11:48:00.279Z</time></trkpt><trkpt lat="46.2019725" lon="13.5911788"><ele>815.4</ele><time>2026-04-24T11:48:01.279Z</time></trkpt><trkpt lat="46.2019291" lon="13.5910624"><ele>813.0</ele><time>2026-04-24T11:48:02.28Z</time></trkpt><trkpt lat="46.2018623" lon="13.5909635"><ele>813.0</ele><time>2026-04-24T11:48:03.279Z</time></trkpt><trkpt lat="46.2017792" lon="13.5908854"><ele>813.0</ele><time>2026-04-24T11:48:04.279Z</time></trkpt><trkpt lat="46.2016872" lon="13.5908157"><ele>813.0</ele><time>2026-04-24T11:48:05.279Z</time></trkpt><trkpt lat="46.2016024" lon="13.5907482"><ele>813.0</ele><time>2026-04-24T11:48:06.279Z</time></trkpt><trkpt lat="46.2015156" lon="13.5906876"><ele>813.0</ele><time>2026-04-24T11:48:07.28Z</time></trkpt><trkpt lat="46.20144" lon="13.5906561"><ele>813.1666666666666</ele><time>2026-04-24T11:48:08.28Z</time></trkpt><trkpt lat="46.2013618" lon="13.5906164"><ele>813.3333333333333</ele><time>2026-04-24T11:48:09.28Z</time></trkpt><trkpt lat="46.2013178" lon="13.5907304"><ele>813.5</ele><time>2026-04-24T11:48:10.278Z</time></trkpt><trkpt lat="46.2012885" lon="13.5908243"><ele>813.6666666666666</ele><time>2026-04-24T11:48:11.279Z</time></trkpt><trkpt lat="46.2012688" lon="13.5909357"><ele>813.8333333333333</ele><time>2026-04-24T11:48:12.278Z</time></trkpt><trkpt lat="46.2012498" lon="13.5910515"><ele>814.0</ele><time>2026-04-24T11:48:13.279Z</time></trkpt><trkpt lat="46.2012266" lon="13.5911629"><ele>811.3333333333333</ele><time>2026-04-24T11:48:14.278Z</time></trkpt><trkpt lat="46.2011885" lon="13.5912519"><ele>808.6666666666666</ele><time>2026-04-24T11:48:15.279Z</time></trkpt><trkpt lat="46.201136" lon="13.5913145"><ele>806.0</ele><time>2026-04-24T11:48:16.279Z</time></trkpt><trkpt lat="46.2010668" lon="13.591346"><ele>803.3333333333333</ele><time>2026-04-24T11:48:17.28Z</time></trkpt><trkpt lat="46.2009831" lon="13.5913557"><ele>800.6666666666666</ele><time>2026-04-24T11:48:18.279Z</time></trkpt><trkpt lat="46.2008901" lon="13.591346"><ele>798.0</ele><time>2026-04-24T11:48:19.278Z</time></trkpt><trkpt lat="46.2007849" lon="13.5913368"><ele>798.0</ele><time>2026-04-24T11:48:20.279Z</time></trkpt><trkpt lat="46.2006785" lon="13.5913297"><ele>798.0</ele><time>2026-04-24T11:48:21.279Z</time></trkpt><trkpt lat="46.2005669" lon="13.5913263"><ele>798.0</ele><time>2026-04-24T11:48:22.278Z</time></trkpt><trkpt lat="46.2004593" lon="13.5913319"><ele>798.0</ele><time>2026-04-24T11:48:23.279Z</time></trkpt><trkpt lat="46.2003561" lon="13.5913342"><ele>798.0</ele><time>2026-04-24T11:48:24.279Z</time></trkpt><trkpt lat="46.2002554" lon="13.5913366"><ele>798.1666666666666</ele><time>2026-04-24T11:48:25.28Z</time></trkpt><trkpt lat="46.200163" lon="13.5913425"><ele>798.3333333333333</ele><time>2026-04-24T11:48:26.279Z</time></trkpt><trkpt lat="46.2000933" lon="13.5913505"><ele>798.5</ele><time>2026-04-24T11:48:27.279Z</time></trkpt><trkpt lat="46.1999808" lon="13.5914134"><ele>798.6666666666666</ele><time>2026-04-24T11:48:29.279Z</time></trkpt><trkpt lat="46.1999183" lon="13.5914617"><ele>798.8333333333333</ele><time>2026-04-24T11:48:30.279Z</time></trkpt><trkpt lat="46.199849" lon="13.5915101"><ele>799.0</ele><time>2026-04-24T11:48:31.278Z</time></trkpt><trkpt lat="46.1997759" lon="13.5915614"><ele>798.9999999999999</ele><time>2026-04-24T11:48:32.279Z</time></trkpt><trkpt lat="46.1997107" lon="13.5916236"><ele>799.0</ele><time>2026-04-24T11:48:33.28Z</time></trkpt><trkpt lat="46.1996617" lon="13.591704"><ele>799.0</ele><time>2026-04-24T11:48:34.278Z</time></trkpt><trkpt lat="46.1996483" lon="13.5917938"><ele>799.0</ele><time>2026-04-24T11:48:35.28Z</time></trkpt><trkpt lat="46.1997223" lon="13.5919307"><ele>798.9999999999999</ele><time>2026-04-24T11:48:37.279Z</time></trkpt><trkpt lat="46.1997937" lon="13.5919504"><ele>799.0</ele><time>2026-04-24T11:48:38.279Z</time></trkpt><trkpt lat="46.1998822" lon="13.5919702"><ele>799.4000000000001</ele><time>2026-04-24T11:48:39.279Z</time></trkpt><trkpt lat="46.1999749" lon="13.5920057"><ele>799.8</ele><time>2026-04-24T11:48:40.278Z</time></trkpt><trkpt lat="46.2000715" lon="13.5920528"><ele>800.2</ele><time>2026-04-24T11:48:41.28Z</time></trkpt><trkpt lat="46.2001719" lon="13.5921251"><ele>800.5999999999999</ele><time>2026-04-24T11:48:42.279Z</time></trkpt><trkpt lat="46.2002697" lon="13.5922034"><ele>801.0</ele><time>2026-04-24T11:48:43.28Z</time></trkpt><trkpt lat="46.2003607" lon="13.5922907"><ele>798.8</ele><time>2026-04-24T11:48:44.279Z</time></trkpt><trkpt lat="46.2004476" lon="13.5923811"><ele>796.5999999999999</ele><time>2026-04-24T11:48:45.279Z</time></trkpt><trkpt lat="46.2005249" lon="13.5924725"><ele>794.4</ele><time>2026-04-24T11:48:46.28Z</time></trkpt><trkpt lat="46.2005914" lon="13.5925715"><ele>792.2</ele><time>2026-04-24T11:48:47.28Z</time></trkpt><trkpt lat="46.2006385" lon="13.5926808"><ele>790.0</ele><time>2026-04-24T11:48:48.279Z</time></trkpt><trkpt lat="46.2006595" lon="13.5928078"><ele>789.8</ele><time>2026-04-24T11:48:49.279Z</time></trkpt><trkpt lat="46.2006668" lon="13.5929444"><ele>789.6</ele><time>2026-04-24T11:48:50.278Z</time></trkpt><trkpt lat="46.200669" lon="13.5930823"><ele>789.4000000000001</ele><time>2026-04-24T11:48:51.279Z</time></trkpt><trkpt lat="46.2006751" lon="13.5932197"><ele>789.2</ele><time>2026-04-24T11:48:52.279Z</time></trkpt><trkpt lat="46.2006845" lon="13.593349"><ele>789.0</ele><time>2026-04-24T11:48:53.28Z</time></trkpt><trkpt lat="46.2006917" lon="13.593463"><ele>789.0</ele><time>2026-04-24T11:48:54.28Z</time></trkpt><trkpt lat="46.2006904" lon="13.5935587"><ele>789.0</ele><time>2026-04-24T11:48:55.279Z</time></trkpt><trkpt lat="46.2006269" lon="13.5936514"><ele>789.0</ele><time>2026-04-24T11:48:57.278Z</time></trkpt><trkpt lat="46.2005587" lon="13.5935486"><ele>789.0</ele><time>2026-04-24T11:48:59.28Z</time></trkpt><trkpt lat="46.2005513" lon="13.5934263"><ele>789.0</ele><time>2026-04-24T11:49:00.279Z</time></trkpt><trkpt lat="46.2005477" lon="13.5932912"><ele>789.0</ele><time>2026-04-24T11:49:01.278Z</time></trkpt><trkpt lat="46.2005355" lon="13.5931872"><ele>784.0</ele><time>2026-04-24T11:49:02.279Z</time></trkpt><trkpt lat="46.2004503" lon="13.5930589"><ele>779.0</ele><time>2026-04-24T11:49:04.28Z</time></trkpt><trkpt lat="46.2003452" lon="13.5930004"><ele>774.0</ele><time>2026-04-24T11:49:06.279Z</time></trkpt><trkpt lat="46.2002358" lon="13.5931453"><ele>769.0</ele><time>2026-04-24T11:49:07.278Z</time></trkpt><trkpt lat="46.2001524" lon="13.5932129"><ele>769.0</ele><time>2026-04-24T11:49:08.279Z</time></trkpt><trkpt lat="46.2000635" lon="13.5932618"><ele>769.0</ele><time>2026-04-24T11:49:09.278Z</time></trkpt><trkpt lat="46.1999765" lon="13.5932944"><ele>769.0</ele><time>2026-04-24T11:49:10.278Z</time></trkpt><trkpt lat="46.1998857" lon="13.5933286"><ele>769.0</ele><time>2026-04-24T11:49:11.28Z</time></trkpt><trkpt lat="46.1998097" lon="13.5932368"><ele>769.0</ele><time>2026-04-24T11:49:12.28Z</time></trkpt><trkpt lat="46.1997392" lon="13.5931895"><ele>765.9999999999999</ele><time>2026-04-24T11:49:13.279Z</time></trkpt><trkpt lat="46.1996732" lon="13.5931181"><ele>763.0</ele><time>2026-04-24T11:49:14.28Z</time></trkpt><trkpt lat="46.1996167" lon="13.5930579"><ele>760.0</ele><time>2026-04-24T11:49:15.28Z</time></trkpt><trkpt lat="46.1995546" lon="13.593024"><ele>757.0</ele><time>2026-04-24T11:49:16.279Z</time></trkpt><trkpt lat="46.1994558" lon="13.5930396"><ele>754.0</ele><time>2026-04-24T11:49:18.279Z</time></trkpt><trkpt lat="46.1994647" lon="13.5931351"><ele>751.0</ele><time>2026-04-24T11:49:19.279Z</time></trkpt><trkpt lat="46.1994952" lon="13.5932222"><ele>751.0</ele><time>2026-04-24T11:49:20.279Z</time></trkpt><trkpt lat="46.1995298" lon="13.5933195"><ele>751.0</ele><time>2026-04-24T11:49:21.278Z</time></trkpt><trkpt lat="46.199605" lon="13.5934178"><ele>751.0</ele><time>2026-04-24T11:49:22.278Z</time></trkpt><trkpt lat="46.199656" lon="13.5935273"><ele>751.0</ele><time>2026-04-24T11:49:23.279Z</time></trkpt><trkpt lat="46.1997103" lon="13.5936265"><ele>751.0</ele><time>2026-04-24T11:49:24.278Z</time></trkpt><trkpt lat="46.1998068" lon="13.5936355"><ele>750.8333333333334</ele><time>2026-04-24T11:49:25.278Z</time></trkpt><trkpt lat="46.1998786" lon="13.5937057"><ele>750.6666666666667</ele><time>2026-04-24T11:49:26.279Z</time></trkpt><trkpt lat="46.1999591" lon="13.5937539"><ele>750.5</ele><time>2026-04-24T11:49:27.279Z</time></trkpt><trkpt lat="46.2000461" lon="13.5937592"><ele>750.3333333333334</ele><time>2026-04-24T11:49:28.278Z</time></trkpt><trkpt lat="46.2001051" lon="13.5937256"><ele>750.1666666666666</ele><time>2026-04-24T11:49:29.278Z</time></trkpt><trkpt lat="46.200104" lon="13.5938709"><ele>750.0</ele><time>2026-04-24T11:49:30.278Z</time></trkpt><trkpt lat="46.2000251" lon="13.59398"><ele>750.0</ele><time>2026-04-24T11:49:32.277Z</time></trkpt><trkpt lat="46.1999771" lon="13.5940406"><ele>750.0</ele><time>2026-04-24T11:49:33.277Z</time></trkpt><trkpt lat="46.1999455" lon="13.5941225"><ele>750.0</ele><time>2026-04-24T11:49:34.278Z</time></trkpt><trkpt lat="46.1999184" lon="13.5942853"><ele>750.0</ele><time>2026-04-24T11:49:36.278Z</time></trkpt><trkpt lat="46.1999768" lon="13.5943921"><ele>750.0</ele><time>2026-04-24T11:49:37.278Z</time></trkpt><trkpt lat="46.200017" lon="13.5944964"><ele>750.0</ele><time>2026-04-24T11:49:38.278Z</time></trkpt><trkpt lat="46.2000943" lon="13.5945914"><ele>745.0</ele><time>2026-04-24T11:49:39.278Z</time></trkpt><trkpt lat="46.2001678" lon="13.5946983"><ele>740.0</ele><time>2026-04-24T11:49:40.278Z</time></trkpt><trkpt lat="46.2002416" lon="13.5948005"><ele>735.0</ele><time>2026-04-24T11:49:41.279Z</time></trkpt><trkpt lat="46.200324" lon="13.5949018"><ele>730.0</ele><time>2026-04-24T11:49:42.279Z</time></trkpt><trkpt lat="46.2004679" lon="13.5949606"><ele>730.0</ele><time>2026-04-24T11:49:43.278Z</time></trkpt><trkpt lat="46.200573" lon="13.5949876"><ele>730.0</ele><time>2026-04-24T11:49:44.279Z</time></trkpt><trkpt lat="46.2006795" lon="13.5950487"><ele>730.0</ele><time>2026-04-24T11:49:45.278Z</time></trkpt><trkpt lat="46.2007964" lon="13.5951187"><ele>730.0</ele><time>2026-04-24T11:49:46.278Z</time></trkpt><trkpt lat="46.2009034" lon="13.5951425"><ele>727.5</ele><time>2026-04-24T11:49:47.279Z</time></trkpt><trkpt lat="46.2010259" lon="13.5952021"><ele>725.0</ele><time>2026-04-24T11:49:48.278Z</time></trkpt><trkpt lat="46.2011507" lon="13.5952527"><ele>722.5</ele><time>2026-04-24T11:49:49.278Z</time></trkpt><trkpt lat="46.2012748" lon="13.5952606"><ele>720.0</ele><time>2026-04-24T11:49:50.277Z</time></trkpt><trkpt lat="46.2013665" lon="13.5954087"><ele>720.0</ele><time>2026-04-24T11:49:51.278Z</time></trkpt><trkpt lat="46.2014866" lon="13.5954719"><ele>720.0</ele><time>2026-04-24T11:49:52.279Z</time></trkpt><trkpt lat="46.2015735" lon="13.5955493"><ele>720.0</ele><time>2026-04-24T11:49:53.278Z</time></trkpt><trkpt lat="46.2016785" lon="13.5956466"><ele>720.0</ele><time>2026-04-24T11:49:54.277Z</time></trkpt><trkpt lat="46.2017604" lon="13.5957588"><ele>723.75</ele><time>2026-04-24T11:49:55.277Z</time></trkpt><trkpt lat="46.2018376" lon="13.5959216"><ele>727.5</ele><time>2026-04-24T11:49:56.278Z</time></trkpt><trkpt lat="46.2019326" lon="13.5960394"><ele>731.25</ele><time>2026-04-24T11:49:57.277Z</time></trkpt><trkpt lat="46.2020265" lon="13.5961508"><ele>735.0</ele><time>2026-04-24T11:49:58.277Z</time></trkpt><trkpt lat="46.2021202" lon="13.5962451"><ele>735.75</ele><time>2026-04-24T11:49:59.278Z</time></trkpt><trkpt lat="46.202214" lon="13.5963379"><ele>736.5</ele><time>2026-04-24T11:50:00.277Z</time></trkpt><trkpt lat="46.2022986" lon="13.5964553"><ele>737.25</ele><time>2026-04-24T11:50:01.278Z</time></trkpt><trkpt lat="46.2023592" lon="13.5965975"><ele>738.0</ele><time>2026-04-24T11:50:02.278Z</time></trkpt><trkpt lat="46.2024219" lon="13.5967262"><ele>738.0</ele><time>2026-04-24T11:50:03.277Z</time></trkpt><trkpt lat="46.2024818" lon="13.5968582"><ele>738.0</ele><time>2026-04-24T11:50:04.278Z</time></trkpt><trkpt lat="46.2025089" lon="13.5970124"><ele>738.0</ele><time>2026-04-24T11:50:05.277Z</time></trkpt><trkpt lat="46.2025668" lon="13.5971632"><ele>738.0</ele><time>2026-04-24T11:50:06.277Z</time></trkpt><trkpt lat="46.2026115" lon="13.5973353"><ele>730.25</ele><time>2026-04-24T11:50:07.279Z</time></trkpt><trkpt lat="46.2026487" lon="13.5975028"><ele>722.5</ele><time>2026-04-24T11:50:08.277Z</time></trkpt><trkpt lat="46.2026844" lon="13.5976506"><ele>714.75</ele><time>2026-04-24T11:50:09.279Z</time></trkpt><trkpt lat="46.2027235" lon="13.5977958"><ele>707.0</ele><time>2026-04-24T11:50:10.278Z</time></trkpt><trkpt lat="46.2027906" lon="13.5979376"><ele>705.3333333333333</ele><time>2026-04-24T11:50:11.277Z</time></trkpt><trkpt lat="46.2028659" lon="13.5980513"><ele>703.6666666666666</ele><time>2026-04-24T11:50:12.277Z</time></trkpt><trkpt lat="46.2029253" lon="13.5981649"><ele>702.0</ele><time>2026-04-24T11:50:13.278Z</time></trkpt><trkpt lat="46.2029785" lon="13.5982719"><ele>700.3333333333334</ele><time>2026-04-24T11:50:14.277Z</time></trkpt><trkpt lat="46.2030202" lon="13.5983483"><ele>698.6666666666667</ele><time>2026-04-24T11:50:15.278Z</time></trkpt><trkpt lat="46.2030312" lon="13.5984402"><ele>697.0</ele><time>2026-04-24T11:50:16.277Z</time></trkpt><trkpt lat="46.2029859" lon="13.5985811"><ele>697.0</ele><time>2026-04-24T11:50:18.279Z</time></trkpt><trkpt lat="46.202898" lon="13.5985456"><ele>697.0</ele><time>2026-04-24T11:50:20.277Z</time></trkpt><trkpt lat="46.2028575" lon="13.598392"><ele>697.0</ele><time>2026-04-24T11:50:22.277Z</time></trkpt><trkpt lat="46.2028157" lon="13.5982813"><ele>697.0</ele><time>2026-04-24T11:50:23.278Z</time></trkpt><trkpt lat="46.202765" lon="13.5981867"><ele>697.0</ele><time>2026-04-24T11:50:24.277Z</time></trkpt><trkpt lat="46.2027082" lon="13.5980833"><ele>697.0</ele><time>2026-04-24T11:50:25.278Z</time></trkpt><trkpt lat="46.2026485" lon="13.5979818"><ele>697.0</ele><time>2026-04-24T11:50:26.278Z</time></trkpt><trkpt lat="46.2026068" lon="13.5978462"><ele>697.0</ele><time>2026-04-24T11:50:27.278Z</time></trkpt><trkpt lat="46.2025757" lon="13.5977071"><ele>697.0</ele><time>2026-04-24T11:50:28.277Z</time></trkpt><trkpt lat="46.2025377" lon="13.5975535"><ele>697.0</ele><time>2026-04-24T11:50:29.279Z</time></trkpt><trkpt lat="46.2024822" lon="13.5974019"><ele>698.25</ele><time>2026-04-24T11:50:30.277Z</time></trkpt><trkpt lat="46.2024103" lon="13.5972632"><ele>699.5</ele><time>2026-04-24T11:50:31.278Z</time></trkpt><trkpt lat="46.2023212" lon="13.5971448"><ele>700.75</ele><time>2026-04-24T11:50:32.277Z</time></trkpt><trkpt lat="46.2022323" lon="13.5970183"><ele>702.0</ele><time>2026-04-24T11:50:33.278Z</time></trkpt><trkpt lat="46.2021562" lon="13.5968802"><ele>702.0</ele><time>2026-04-24T11:50:34.278Z</time></trkpt><trkpt lat="46.2020682" lon="13.596755"><ele>702.0</ele><time>2026-04-24T11:50:35.278Z</time></trkpt><trkpt lat="46.2019701" lon="13.5966614"><ele>702.0</ele><time>2026-04-24T11:50:36.279Z</time></trkpt><trkpt lat="46.2018609" lon="13.5965573"><ele>702.0</ele><time>2026-04-24T11:50:37.277Z</time></trkpt><trkpt lat="46.2017345" lon="13.5965088"><ele>702.0</ele><time>2026-04-24T11:50:38.278Z</time></trkpt><trkpt lat="46.2016248" lon="13.5964242"><ele>702.0</ele><time>2026-04-24T11:50:39.278Z</time></trkpt><trkpt lat="46.2015071" lon="13.596352"><ele>702.0</ele><time>2026-04-24T11:50:40.279Z</time></trkpt><trkpt lat="46.2013897" lon="13.59628"><ele>702.0</ele><time>2026-04-24T11:50:41.277Z</time></trkpt><trkpt lat="46.2012261" lon="13.5963171"><ele>698.5</ele><time>2026-04-24T11:50:42.278Z</time></trkpt><trkpt lat="46.2010843" lon="13.5962791"><ele>695.0</ele><time>2026-04-24T11:50:43.277Z</time></trkpt><trkpt lat="46.200937" lon="13.5962531"><ele>691.5</ele><time>2026-04-24T11:50:44.278Z</time></trkpt><trkpt lat="46.200794" lon="13.5962431"><ele>688.0</ele><time>2026-04-24T11:50:45.277Z</time></trkpt><trkpt lat="46.2006499" lon="13.5962397"><ele>690.0</ele><time>2026-04-24T11:50:46.279Z</time></trkpt><trkpt lat="46.2005199" lon="13.5962287"><ele>692.0</ele><time>2026-04-24T11:50:47.279Z</time></trkpt><trkpt lat="46.2004057" lon="13.5962261"><ele>694.0</ele><time>2026-04-24T11:50:48.277Z</time></trkpt><trkpt lat="46.2003106" lon="13.5961912"><ele>696.0</ele><time>2026-04-24T11:50:49.279Z</time></trkpt><trkpt lat="46.2002245" lon="13.5961394"><ele>698.0</ele><time>2026-04-24T11:50:50.278Z</time></trkpt><trkpt lat="46.2001508" lon="13.596066"><ele>698.0</ele><time>2026-04-24T11:50:51.278Z</time></trkpt><trkpt lat="46.200072" lon="13.5959751"><ele>698.0</ele><time>2026-04-24T11:50:52.277Z</time></trkpt><trkpt lat="46.1999958" lon="13.5958703"><ele>698.0</ele><time>2026-04-24T11:50:53.279Z</time></trkpt><trkpt lat="46.1999065" lon="13.5957619"><ele>698.0</ele><time>2026-04-24T11:50:54.277Z</time></trkpt><trkpt lat="46.1997984" lon="13.5956535"><ele>699.25</ele><time>2026-04-24T11:50:55.279Z</time></trkpt><trkpt lat="46.1996858" lon="13.5955558"><ele>700.5</ele><time>2026-04-24T11:50:56.279Z</time></trkpt><trkpt lat="46.1995835" lon="13.595456"><ele>701.75</ele><time>2026-04-24T11:50:57.278Z</time></trkpt><trkpt lat="46.1994991" lon="13.5953403"><ele>703.0</ele><time>2026-04-24T11:50:58.277Z</time></trkpt><trkpt lat="46.1994191" lon="13.5952402"><ele>703.0</ele><time>2026-04-24T11:50:59.278Z</time></trkpt><trkpt lat="46.1993401" lon="13.5951731"><ele>703.0</ele><time>2026-04-24T11:51:00.278Z</time></trkpt><trkpt lat="46.1992585" lon="13.5951414"><ele>703.0</ele><time>2026-04-24T11:51:01.278Z</time></trkpt><trkpt lat="46.1991735" lon="13.5951165"><ele>703.0</ele><time>2026-04-24T11:51:02.279Z</time></trkpt><trkpt lat="46.1990915" lon="13.5951174"><ele>703.0</ele><time>2026-04-24T11:51:03.279Z</time></trkpt><trkpt lat="46.1989972" lon="13.5951746"><ele>703.0</ele><time>2026-04-24T11:51:04.277Z</time></trkpt><trkpt lat="46.1989011" lon="13.5951386"><ele>698.0</ele><time>2026-04-24T11:51:05.279Z</time></trkpt><trkpt lat="46.1988125" lon="13.5951212"><ele>693.0</ele><time>2026-04-24T11:51:06.277Z</time></trkpt><trkpt lat="46.1987133" lon="13.595092"><ele>688.0</ele><time>2026-04-24T11:51:07.277Z</time></trkpt><trkpt lat="46.1986126" lon="13.5950516"><ele>683.0</ele><time>2026-04-24T11:51:08.278Z</time></trkpt><trkpt lat="46.1985161" lon="13.594988"><ele>678.0</ele><time>2026-04-24T11:51:09.278Z</time></trkpt><trkpt lat="46.1984155" lon="13.5949297"><ele>678.0</ele><time>2026-04-24T11:51:10.278Z</time></trkpt><trkpt lat="46.198321" lon="13.5948718"><ele>678.0</ele><time>2026-04-24T11:51:11.277Z</time></trkpt><trkpt lat="46.1982198" lon="13.5948222"><ele>678.0</ele><time>2026-04-24T11:51:12.279Z</time></trkpt><trkpt lat="46.198119" lon="13.5947793"><ele>678.0</ele><time>2026-04-24T11:51:13.277Z</time></trkpt><trkpt lat="46.1980233" lon="13.5947363"><ele>678.0</ele><time>2026-04-24T11:51:14.278Z</time></trkpt><trkpt lat="46.19793" lon="13.5946832"><ele>677.4</ele><time>2026-04-24T11:51:15.279Z</time></trkpt><trkpt lat="46.1978446" lon="13.5946161"><ele>676.8</ele><time>2026-04-24T11:51:16.278Z</time></trkpt><trkpt lat="46.1977648" lon="13.5945291"><ele>676.2</ele><time>2026-04-24T11:51:17.277Z</time></trkpt><trkpt lat="46.1976797" lon="13.594434"><ele>675.6</ele><time>2026-04-24T11:51:18.277Z</time></trkpt><trkpt lat="46.1976037" lon="13.5943059"><ele>675.0</ele><time>2026-04-24T11:51:19.277Z</time></trkpt><trkpt lat="46.1975214" lon="13.5941802"><ele>675.0</ele><time>2026-04-24T11:51:20.278Z</time></trkpt><trkpt lat="46.1974331" lon="13.5940543"><ele>675.0</ele><time>2026-04-24T11:51:21.279Z</time></trkpt><trkpt lat="46.1973426" lon="13.5939318"><ele>675.0</ele><time>2026-04-24T11:51:22.277Z</time></trkpt><trkpt lat="46.1972444" lon="13.5938037"><ele>675.0</ele><time>2026-04-24T11:51:23.278Z</time></trkpt><trkpt lat="46.1971524" lon="13.5936624"><ele>672.0</ele><time>2026-04-24T11:51:24.279Z</time></trkpt><trkpt lat="46.197064" lon="13.5935122"><ele>669.0</ele><time>2026-04-24T11:51:25.278Z</time></trkpt><trkpt lat="46.1969711" lon="13.5933743"><ele>666.0</ele><time>2026-04-24T11:51:26.279Z</time></trkpt><trkpt lat="46.1968679" lon="13.5932456"><ele>663.0</ele><time>2026-04-24T11:51:27.279Z</time></trkpt><trkpt lat="46.1967557" lon="13.5931368"><ele>663.0</ele><time>2026-04-24T11:51:28.277Z</time></trkpt><trkpt lat="46.1966417" lon="13.5930216"><ele>663.0</ele><time>2026-04-24T11:51:29.278Z</time></trkpt><trkpt lat="46.1965332" lon="13.5928952"><ele>663.0</ele><time>2026-04-24T11:51:30.278Z</time></trkpt><trkpt lat="46.1964293" lon="13.592754"><ele>663.0</ele><time>2026-04-24T11:51:31.278Z</time></trkpt><trkpt lat="46.1963287" lon="13.5926081"><ele>658.75</ele><time>2026-04-24T11:51:32.279Z</time></trkpt><trkpt lat="46.196228" lon="13.5924586"><ele>654.5</ele><time>2026-04-24T11:51:33.277Z</time></trkpt><trkpt lat="46.1961269" lon="13.5923189"><ele>650.25</ele><time>2026-04-24T11:51:34.279Z</time></trkpt><trkpt lat="46.1960365" lon="13.5921799"><ele>646.0</ele><time>2026-04-24T11:51:35.278Z</time></trkpt><trkpt lat="46.1959475" lon="13.5920516"><ele>647.5999999999999</ele><time>2026-04-24T11:51:36.277Z</time></trkpt><trkpt lat="46.1958723" lon="13.5919445"><ele>649.2</ele><time>2026-04-24T11:51:37.278Z</time></trkpt><trkpt lat="46.1957897" lon="13.5918717"><ele>650.8</ele><time>2026-04-24T11:51:38.278Z</time></trkpt><trkpt lat="46.1956937" lon="13.5918289"><ele>652.4000000000001</ele><time>2026-04-24T11:51:39.279Z</time></trkpt><trkpt lat="46.1955892" lon="13.5918052"><ele>654.0</ele><time>2026-04-24T11:51:40.278Z</time></trkpt><trkpt lat="46.1954816" lon="13.5917666"><ele>654.0</ele><time>2026-04-24T11:51:41.279Z</time></trkpt><trkpt lat="46.1953538" lon="13.591749"><ele>654.0</ele><time>2026-04-24T11:51:42.278Z</time></trkpt><trkpt lat="46.1952047" lon="13.59174"><ele>654.0</ele><time>2026-04-24T11:51:43.278Z</time></trkpt><trkpt lat="46.1950735" lon="13.5917284"><ele>654.0</ele><time>2026-04-24T11:51:44.277Z</time></trkpt><trkpt lat="46.1949427" lon="13.5917069"><ele>648.75</ele><time>2026-04-24T11:51:45.279Z</time></trkpt><trkpt lat="46.1948244" lon="13.5916833"><ele>643.5</ele><time>2026-04-24T11:51:46.277Z</time></trkpt><trkpt lat="46.1947127" lon="13.5916273"><ele>638.25</ele><time>2026-04-24T11:51:47.278Z</time></trkpt><trkpt lat="46.1946038" lon="13.5915786"><ele>633.0</ele><time>2026-04-24T11:51:48.277Z</time></trkpt><trkpt lat="46.1944929" lon="13.5914844"><ele>633.0</ele><time>2026-04-24T11:51:49.278Z</time></trkpt><trkpt lat="46.1943752" lon="13.5914044"><ele>633.0</ele><time>2026-04-24T11:51:50.277Z</time></trkpt><trkpt lat="46.1942528" lon="13.5913278"><ele>633.0</ele><time>2026-04-24T11:51:51.278Z</time></trkpt><trkpt lat="46.1941156" lon="13.5912955"><ele>633.0</ele><time>2026-04-24T11:51:52.278Z</time></trkpt><trkpt lat="46.193983" lon="13.5912606"><ele>630.25</ele><time>2026-04-24T11:51:53.278Z</time></trkpt><trkpt lat="46.1938676" lon="13.5911831"><ele>627.5</ele><time>2026-04-24T11:51:54.279Z</time></trkpt><trkpt lat="46.193755" lon="13.5910656"><ele>624.75</ele><time>2026-04-24T11:51:55.279Z</time></trkpt><trkpt lat="46.1936487" lon="13.5909312"><ele>622.0</ele><time>2026-04-24T11:51:56.278Z</time></trkpt><trkpt lat="46.1935438" lon="13.5907932"><ele>622.0</ele><time>2026-04-24T11:51:57.279Z</time></trkpt><trkpt lat="46.1934383" lon="13.5906524"><ele>622.0</ele><time>2026-04-24T11:51:58.278Z</time></trkpt><trkpt lat="46.1933307" lon="13.5905052"><ele>622.0</ele><time>2026-04-24T11:51:59.278Z</time></trkpt><trkpt lat="46.1932169" lon="13.5903549"><ele>622.0</ele><time>2026-04-24T11:52:00.277Z</time></trkpt><trkpt lat="46.1930918" lon="13.5902043"><ele>617.3333333333334</ele><time>2026-04-24T11:52:01.278Z</time></trkpt><trkpt lat="46.192961" lon="13.5900533"><ele>612.6666666666666</ele><time>2026-04-24T11:52:02.278Z</time></trkpt><trkpt lat="46.1928255" lon="13.5899023"><ele>608.0</ele><time>2026-04-24T11:52:03.279Z</time></trkpt><trkpt lat="46.1926864" lon="13.5897523"><ele>608.0</ele><time>2026-04-24T11:52:04.279Z</time></trkpt><trkpt lat="46.1925501" lon="13.5896001"><ele>608.0</ele><time>2026-04-24T11:52:05.279Z</time></trkpt><trkpt lat="46.1924152" lon="13.5894484"><ele>608.0</ele><time>2026-04-24T11:52:06.279Z</time></trkpt><trkpt lat="46.1922835" lon="13.5892955"><ele>605.3333333333333</ele><time>2026-04-24T11:52:07.278Z</time></trkpt><trkpt lat="46.1921536" lon="13.589138"><ele>602.6666666666666</ele><time>2026-04-24T11:52:08.277Z</time></trkpt><trkpt lat="46.1920292" lon="13.5889805"><ele>600.0</ele><time>2026-04-24T11:52:09.279Z</time></trkpt><trkpt lat="46.19191" lon="13.58882"><ele>604.6666666666666</ele><time>2026-04-24T11:52:10.277Z</time></trkpt><trkpt lat="46.1917951" lon="13.5886647"><ele>609.3333333333333</ele><time>2026-04-24T11:52:11.278Z</time></trkpt><trkpt lat="46.1916768" lon="13.5885195"><ele>614.0</ele><time>2026-04-24T11:52:12.277Z</time></trkpt><trkpt lat="46.1915633" lon="13.5883836"><ele>610.0</ele><time>2026-04-24T11:52:13.278Z</time></trkpt><trkpt lat="46.1914369" lon="13.5882734"><ele>606.0</ele><time>2026-04-24T11:52:14.278Z</time></trkpt><trkpt lat="46.1913161" lon="13.5881594"><ele>602.0</ele><time>2026-04-24T11:52:15.278Z</time></trkpt><trkpt lat="46.1912037" lon="13.5880321"><ele>598.0</ele><time>2026-04-24T11:52:16.278Z</time></trkpt><trkpt lat="46.1910958" lon="13.587894"><ele>599.75</ele><time>2026-04-24T11:52:17.278Z</time></trkpt><trkpt lat="46.1909934" lon="13.5877451"><ele>601.5</ele><time>2026-04-24T11:52:18.278Z</time></trkpt><trkpt lat="46.1908935" lon="13.5875789"><ele>603.25</ele><time>2026-04-24T11:52:19.277Z</time></trkpt><trkpt lat="46.1907918" lon="13.5874407"><ele>605.0</ele><time>2026-04-24T11:52:20.279Z</time></trkpt><trkpt lat="46.190679" lon="13.587327"><ele>601.5</ele><time>2026-04-24T11:52:21.279Z</time></trkpt><trkpt lat="46.1905609" lon="13.5872498"><ele>598.0</ele><time>2026-04-24T11:52:22.277Z</time></trkpt><trkpt lat="46.1904394" lon="13.58719"><ele>594.5</ele><time>2026-04-24T11:52:23.277Z</time></trkpt><trkpt lat="46.1903226" lon="13.587143"><ele>591.0</ele><time>2026-04-24T11:52:24.278Z</time></trkpt><trkpt lat="46.1902248" lon="13.5870741"><ele>592.5</ele><time>2026-04-24T11:52:25.277Z</time></trkpt><trkpt lat="46.1901316" lon="13.5869778"><ele>594.0</ele><time>2026-04-24T11:52:26.279Z</time></trkpt><trkpt lat="46.1900517" lon="13.5868631"><ele>595.5</ele><time>2026-04-24T11:52:27.277Z</time></trkpt><trkpt lat="46.1899711" lon="13.5867329"><ele>597.0</ele><time>2026-04-24T11:52:28.278Z</time></trkpt><trkpt lat="46.1898949" lon="13.5866035"><ele>596.0</ele><time>2026-04-24T11:52:29.278Z</time></trkpt><trkpt lat="46.1898141" lon="13.5864832"><ele>595.0</ele><time>2026-04-24T11:52:30.279Z</time></trkpt><trkpt lat="46.1897215" lon="13.5863702"><ele>594.0</ele><time>2026-04-24T11:52:31.279Z</time></trkpt><trkpt lat="46.1896189" lon="13.5862583"><ele>593.0</ele><time>2026-04-24T11:52:32.277Z</time></trkpt><trkpt lat="46.1895101" lon="13.5861594"><ele>593.0</ele><time>2026-04-24T11:52:33.278Z</time></trkpt><trkpt lat="46.1893894" lon="13.5860886"><ele>593.0</ele><time>2026-04-24T11:52:34.278Z</time></trkpt><trkpt lat="46.1892756" lon="13.5860095"><ele>593.0</ele><time>2026-04-24T11:52:35.279Z</time></trkpt><trkpt lat="46.189163" lon="13.5859173"><ele>593.0</ele><time>2026-04-24T11:52:36.278Z</time></trkpt><trkpt lat="46.1890558" lon="13.5858281"><ele>588.5</ele><time>2026-04-24T11:52:37.278Z</time></trkpt><trkpt lat="46.1889507" lon="13.5857354"><ele>584.0</ele><time>2026-04-24T11:52:38.277Z</time></trkpt><trkpt lat="46.1888641" lon="13.5856391"><ele>579.5</ele><time>2026-04-24T11:52:39.276Z</time></trkpt><trkpt lat="46.1887455" lon="13.5855606"><ele>575.0</ele><time>2026-04-24T11:52:40.278Z</time></trkpt><trkpt lat="46.1886477" lon="13.5854931"><ele>575.0</ele><time>2026-04-24T11:52:41.277Z</time></trkpt><trkpt lat="46.1885646" lon="13.5854066"><ele>575.0</ele><time>2026-04-24T11:52:42.277Z</time></trkpt><trkpt lat="46.1884823" lon="13.5853175"><ele>575.0</ele><time>2026-04-24T11:52:43.276Z</time></trkpt><trkpt lat="46.1884003" lon="13.5852125"><ele>575.0</ele><time>2026-04-24T11:52:44.276Z</time></trkpt><trkpt lat="46.188332" lon="13.5851062"><ele>575.0</ele><time>2026-04-24T11:52:45.278Z</time></trkpt><trkpt lat="46.1882732" lon="13.5850033"><ele>573.6666666666666</ele><time>2026-04-24T11:52:46.276Z</time></trkpt><trkpt lat="46.1882341" lon="13.5848866"><ele>572.3333333333333</ele><time>2026-04-24T11:52:47.277Z</time></trkpt><trkpt lat="46.1881667" lon="13.5848012"><ele>571.0</ele><time>2026-04-24T11:52:48.277Z</time></trkpt><trkpt lat="46.1881018" lon="13.5846906"><ele>569.6666666666666</ele><time>2026-04-24T11:52:49.278Z</time></trkpt><trkpt lat="46.1880388" lon="13.5846065"><ele>568.3333333333334</ele><time>2026-04-24T11:52:50.276Z</time></trkpt><trkpt lat="46.1879621" lon="13.58457"><ele>567.0</ele><time>2026-04-24T11:52:51.276Z</time></trkpt><trkpt lat="46.18785" lon="13.5846418"><ele>567.0</ele><time>2026-04-24T11:52:52.278Z</time></trkpt><trkpt lat="46.1877113" lon="13.5846482"><ele>567.0</ele><time>2026-04-24T11:52:53.276Z</time></trkpt><trkpt lat="46.1875879" lon="13.5845545"><ele>567.0</ele><time>2026-04-24T11:52:54.277Z</time></trkpt><trkpt lat="46.1874506" lon="13.5844553"><ele>567.0</ele><time>2026-04-24T11:52:55.277Z</time></trkpt><trkpt lat="46.1873088" lon="13.5843712"><ele>563.25</ele><time>2026-04-24T11:52:56.276Z</time></trkpt><trkpt lat="46.1871942" lon="13.5842676"><ele>559.5</ele><time>2026-04-24T11:52:57.278Z</time></trkpt><trkpt lat="46.1870738" lon="13.5841572"><ele>555.75</ele><time>2026-04-24T11:52:58.277Z</time></trkpt><trkpt lat="46.1869623" lon="13.584047"><ele>552.0</ele><time>2026-04-24T11:52:59.277Z</time></trkpt><trkpt lat="46.1868336" lon="13.5839438"><ele>552.0</ele><time>2026-04-24T11:53:00.276Z</time></trkpt><trkpt lat="46.1867029" lon="13.5838372"><ele>552.0</ele><time>2026-04-24T11:53:01.277Z</time></trkpt><trkpt lat="46.186586" lon="13.5837456"><ele>552.0</ele><time>2026-04-24T11:53:02.278Z</time></trkpt><trkpt lat="46.186464" lon="13.5836436"><ele>552.0</ele><time>2026-04-24T11:53:03.276Z</time></trkpt><trkpt lat="46.1863452" lon="13.5835493"><ele>551.0</ele><time>2026-04-24T11:53:04.277Z</time></trkpt><trkpt lat="46.1862238" lon="13.5834653"><ele>550.0</ele><time>2026-04-24T11:53:05.278Z</time></trkpt><trkpt lat="46.1861067" lon="13.5833678"><ele>549.0</ele><time>2026-04-24T11:53:06.276Z</time></trkpt><trkpt lat="46.1859915" lon="13.5832804"><ele>548.0</ele><time>2026-04-24T11:53:07.276Z</time></trkpt><trkpt lat="46.1858795" lon="13.5831857"><ele>548.0</ele><time>2026-04-24T11:53:08.276Z</time></trkpt><trkpt lat="46.1857745" lon="13.5830833"><ele>548.0</ele><time>2026-04-24T11:53:09.276Z</time></trkpt><trkpt lat="46.185651" lon="13.5829793"><ele>548.0</ele><time>2026-04-24T11:53:10.276Z</time></trkpt><trkpt lat="46.1855603" lon="13.582904"><ele>548.0</ele><time>2026-04-24T11:53:11.278Z</time></trkpt><trkpt lat="46.1854485" lon="13.5828494"><ele>546.6</ele><time>2026-04-24T11:53:12.277Z</time></trkpt><trkpt lat="46.1853439" lon="13.5827867"><ele>545.1999999999999</ele><time>2026-04-24T11:53:13.277Z</time></trkpt><trkpt lat="46.1852397" lon="13.5827427"><ele>543.8</ele><time>2026-04-24T11:53:14.276Z</time></trkpt><trkpt lat="46.185139" lon="13.5827451"><ele>542.4</ele><time>2026-04-24T11:53:15.276Z</time></trkpt><trkpt lat="46.1850655" lon="13.5827372"><ele>541.0</ele><time>2026-04-24T11:53:16.276Z</time></trkpt><trkpt lat="46.1849708" lon="13.5827197"><ele>541.0</ele><time>2026-04-24T11:53:17.276Z</time></trkpt><trkpt lat="46.1849414" lon="13.582621"><ele>541.0</ele><time>2026-04-24T11:53:18.277Z</time></trkpt><trkpt lat="46.1848493" lon="13.5824446"><ele>541.0</ele><time>2026-04-24T11:53:19.278Z</time></trkpt><trkpt lat="46.1847777" lon="13.5823162"><ele>541.0</ele><time>2026-04-24T11:53:20.276Z</time></trkpt><trkpt lat="46.1847146" lon="13.5821882"><ele>541.0</ele><time>2026-04-24T11:53:21.276Z</time></trkpt><trkpt lat="46.1846724" lon="13.5820281"><ele>541.0</ele><time>2026-04-24T11:53:22.278Z</time></trkpt><trkpt lat="46.1846014" lon="13.5818871"><ele>541.0</ele><time>2026-04-24T11:53:23.277Z</time></trkpt><trkpt lat="46.1845567" lon="13.5817055"><ele>541.0</ele><time>2026-04-24T11:53:24.276Z</time></trkpt><trkpt lat="46.1845019" lon="13.5815244"><ele>541.0</ele><time>2026-04-24T11:53:25.276Z</time></trkpt><trkpt lat="46.1844388" lon="13.5813657"><ele>541.0</ele><time>2026-04-24T11:53:26.276Z</time></trkpt><trkpt lat="46.1843729" lon="13.5812005"><ele>541.0</ele><time>2026-04-24T11:53:27.277Z</time></trkpt><trkpt lat="46.1843051" lon="13.5810521"><ele>541.0</ele><time>2026-04-24T11:53:28.278Z</time></trkpt><trkpt lat="46.1842292" lon="13.580914"><ele>539.5</ele><time>2026-04-24T11:53:29.277Z</time></trkpt><trkpt lat="46.184156" lon="13.5807827"><ele>538.0</ele><time>2026-04-24T11:53:30.276Z</time></trkpt><trkpt lat="46.1840473" lon="13.5806591"><ele>536.5</ele><time>2026-04-24T11:53:31.276Z</time></trkpt><trkpt lat="46.1839461" lon="13.5805154"><ele>535.0</ele><time>2026-04-24T11:53:32.277Z</time></trkpt><trkpt lat="46.1838545" lon="13.5803295"><ele>533.3333333333334</ele><time>2026-04-24T11:53:33.276Z</time></trkpt><trkpt lat="46.183773" lon="13.5801518"><ele>531.6666666666666</ele><time>2026-04-24T11:53:34.276Z</time></trkpt><trkpt lat="46.1836813" lon="13.5799747"><ele>530.0</ele><time>2026-04-24T11:53:35.276Z</time></trkpt><trkpt lat="46.1835968" lon="13.5797951"><ele>530.0</ele><time>2026-04-24T11:53:36.277Z</time></trkpt><trkpt lat="46.183517" lon="13.5796151"><ele>530.0</ele><time>2026-04-24T11:53:37.277Z</time></trkpt><trkpt lat="46.1834375" lon="13.5794461"><ele>530.0</ele><time>2026-04-24T11:53:38.277Z</time></trkpt><trkpt lat="46.1833588" lon="13.5792808"><ele>530.0</ele><time>2026-04-24T11:53:39.277Z</time></trkpt><trkpt lat="46.1832831" lon="13.579124"><ele>530.75</ele><time>2026-04-24T11:53:40.277Z</time></trkpt><trkpt lat="46.1832113" lon="13.5789724"><ele>531.5</ele><time>2026-04-24T11:53:41.278Z</time></trkpt><trkpt lat="46.1831444" lon="13.5788226"><ele>532.25</ele><time>2026-04-24T11:53:42.276Z</time></trkpt><trkpt lat="46.18307" lon="13.5786927"><ele>533.0</ele><time>2026-04-24T11:53:43.276Z</time></trkpt><trkpt lat="46.1829967" lon="13.5785734"><ele>529.5</ele><time>2026-04-24T11:53:44.277Z</time></trkpt><trkpt lat="46.1829251" lon="13.5784644"><ele>526.0</ele><time>2026-04-24T11:53:45.277Z</time></trkpt><trkpt lat="46.1828544" lon="13.5783633"><ele>522.5</ele><time>2026-04-24T11:53:46.278Z</time></trkpt><trkpt lat="46.1827887" lon="13.5782792"><ele>519.0</ele><time>2026-04-24T11:53:47.277Z</time></trkpt><trkpt lat="46.1827283" lon="13.5781983"><ele>515.5</ele><time>2026-04-24T11:53:48.276Z</time></trkpt><trkpt lat="46.1826757" lon="13.5781321"><ele>512.0</ele><time>2026-04-24T11:53:49.278Z</time></trkpt><trkpt lat="46.1826286" lon="13.5780671"><ele>512.0</ele><time>2026-04-24T11:53:50.278Z</time></trkpt><trkpt lat="46.182549" lon="13.5779424"><ele>512.0</ele><time>2026-04-24T11:53:52.277Z</time></trkpt><trkpt lat="46.1824728" lon="13.5778513"><ele>512.0</ele><time>2026-04-24T11:53:54.277Z</time></trkpt><trkpt lat="46.1823833" lon="13.5777718"><ele>512.0</ele><time>2026-04-24T11:53:56.276Z</time></trkpt><trkpt lat="46.1822879" lon="13.5776856"><ele>512.0</ele><time>2026-04-24T11:53:58.277Z</time></trkpt><trkpt lat="46.1821908" lon="13.5775861"><ele>512.2857142857142</ele><time>2026-04-24T11:54:00.278Z</time></trkpt><trkpt lat="46.1821404" lon="13.5775286"><ele>512.5714285714286</ele><time>2026-04-24T11:54:01.278Z</time></trkpt><trkpt lat="46.1820884" lon="13.57747"><ele>512.8571428571429</ele><time>2026-04-24T11:54:02.277Z</time></trkpt><trkpt lat="46.1820325" lon="13.5774101"><ele>513.1428571428571</ele><time>2026-04-24T11:54:03.277Z</time></trkpt><trkpt lat="46.1819796" lon="13.5773511"><ele>513.4285714285714</ele><time>2026-04-24T11:54:04.278Z</time></trkpt><trkpt lat="46.1819257" lon="13.577294"><ele>513.7142857142857</ele><time>2026-04-24T11:54:05.277Z</time></trkpt><trkpt lat="46.1818341" lon="13.5772124"><ele>514.0</ele><time>2026-04-24T11:54:07.276Z</time></trkpt><trkpt lat="46.1817721" lon="13.5771619"><ele>514.0</ele><time>2026-04-24T11:54:09.276Z</time></trkpt><trkpt lat="46.1817116" lon="13.5770811"><ele>514.0</ele><time>2026-04-24T12:00:17.276Z</time></trkpt><trkpt lat="46.1816156" lon="13.5769477"><ele>514.0</ele><time>2026-04-24T12:00:19.274Z</time></trkpt><trkpt lat="46.1815668" lon="13.5768775"><ele>514.0</ele><time>2026-04-24T12:00:20.276Z</time></trkpt><trkpt lat="46.1815143" lon="13.5768075"><ele>514.0</ele><time>2026-04-24T12:00:21.275Z</time></trkpt><trkpt lat="46.1814598" lon="13.5767402"><ele>514.0</ele><time>2026-04-24T12:00:22.274Z</time></trkpt><trkpt lat="46.1814058" lon="13.5766761"><ele>514.1666666666667</ele><time>2026-04-24T12:00:23.275Z</time></trkpt><trkpt lat="46.1813448" lon="13.5765987"><ele>514.3333333333334</ele><time>2026-04-24T12:00:24.274Z</time></trkpt><trkpt lat="46.1812811" lon="13.5765177"><ele>514.5</ele><time>2026-04-24T12:00:25.274Z</time></trkpt><trkpt lat="46.1812161" lon="13.5764279"><ele>514.6666666666666</ele><time>2026-04-24T12:00:26.274Z</time></trkpt><trkpt lat="46.1811562" lon="13.5763348"><ele>514.8333333333333</ele><time>2026-04-24T12:00:27.275Z</time></trkpt><trkpt lat="46.1810963" lon="13.576225"><ele>515.0</ele><time>2026-04-24T12:00:28.276Z</time></trkpt><trkpt lat="46.1810329" lon="13.5761039"><ele>520.75</ele><time>2026-04-24T12:00:29.274Z</time></trkpt><trkpt lat="46.1809603" lon="13.5759802"><ele>526.5</ele><time>2026-04-24T12:00:30.276Z</time></trkpt><trkpt lat="46.1808798" lon="13.5758619"><ele>532.25</ele><time>2026-04-24T12:00:31.276Z</time></trkpt><trkpt lat="46.1807961" lon="13.5757518"><ele>538.0</ele><time>2026-04-24T12:00:32.274Z</time></trkpt><trkpt lat="46.1807094" lon="13.5756424"><ele>536.5</ele><time>2026-04-24T12:00:33.276Z</time></trkpt><trkpt lat="46.1806196" lon="13.5755302"><ele>535.0</ele><time>2026-04-24T12:00:34.274Z</time></trkpt><trkpt lat="46.1805298" lon="13.5754079"><ele>533.5</ele><time>2026-04-24T12:00:35.275Z</time></trkpt><trkpt lat="46.1804498" lon="13.5752834"><ele>532.0</ele><time>2026-04-24T12:00:36.274Z</time></trkpt><trkpt lat="46.1803744" lon="13.5751654"><ele>532.0</ele><time>2026-04-24T12:00:37.275Z</time></trkpt><trkpt lat="46.1803176" lon="13.5750188"><ele>532.0</ele><time>2026-04-24T12:00:38.276Z</time></trkpt><trkpt lat="46.1802597" lon="13.5748544"><ele>532.0</ele><time>2026-04-24T12:00:39.274Z</time></trkpt><trkpt lat="46.1802003" lon="13.5747066"><ele>532.0</ele><time>2026-04-24T12:00:40.275Z</time></trkpt><trkpt lat="46.1801453" lon="13.5745513"><ele>534.5</ele><time>2026-04-24T12:00:41.274Z</time></trkpt><trkpt lat="46.1800895" lon="13.574394"><ele>537.0</ele><time>2026-04-24T12:00:42.275Z</time></trkpt><trkpt lat="46.1800299" lon="13.574237"><ele>539.5</ele><time>2026-04-24T12:00:43.274Z</time></trkpt><trkpt lat="46.1799663" lon="13.5740835"><ele>542.0</ele><time>2026-04-24T12:00:44.275Z</time></trkpt><trkpt lat="46.1798956" lon="13.573944"><ele>542.5</ele><time>2026-04-24T12:00:45.274Z</time></trkpt><trkpt lat="46.1798125" lon="13.5737959"><ele>543.0</ele><time>2026-04-24T12:00:46.276Z</time></trkpt><trkpt lat="46.1797259" lon="13.573656"><ele>543.5</ele><time>2026-04-24T12:00:47.276Z</time></trkpt><trkpt lat="46.1796405" lon="13.5735134"><ele>544.0</ele><time>2026-04-24T12:00:48.274Z</time></trkpt><trkpt lat="46.1795588" lon="13.5733618"><ele>544.0</ele><time>2026-04-24T12:00:49.275Z</time></trkpt><trkpt lat="46.1794769" lon="13.5732051"><ele>544.0</ele><time>2026-04-24T12:00:50.274Z</time></trkpt><trkpt lat="46.1793946" lon="13.5730565"><ele>544.0</ele><time>2026-04-24T12:00:51.276Z</time></trkpt><trkpt lat="46.1793237" lon="13.5729015"><ele>544.0</ele><time>2026-04-24T12:00:52.275Z</time></trkpt><trkpt lat="46.1792708" lon="13.5727367"><ele>544.8</ele><time>2026-04-24T12:00:53.276Z</time></trkpt><trkpt lat="46.1792233" lon="13.5725839"><ele>545.5999999999999</ele><time>2026-04-24T12:00:54.275Z</time></trkpt><trkpt lat="46.1791728" lon="13.5724693"><ele>546.4</ele><time>2026-04-24T12:00:55.275Z</time></trkpt><trkpt lat="46.1791114" lon="13.5723785"><ele>547.1999999999999</ele><time>2026-04-24T12:00:56.274Z</time></trkpt><trkpt lat="46.1790389" lon="13.5723163"><ele>548.0</ele><time>2026-04-24T12:00:57.275Z</time></trkpt><trkpt lat="46.1789602" lon="13.5722809"><ele>548.0</ele><time>2026-04-24T12:00:58.274Z</time></trkpt><trkpt lat="46.1788763" lon="13.5722375"><ele>548.0</ele><time>2026-04-24T12:00:59.276Z</time></trkpt><trkpt lat="46.1787991" lon="13.5721698"><ele>548.0</ele><time>2026-04-24T12:01:00.274Z</time></trkpt><trkpt lat="46.1787186" lon="13.5721014"><ele>548.0</ele><time>2026-04-24T12:01:01.274Z</time></trkpt><trkpt lat="46.1786398" lon="13.5720313"><ele>548.0</ele><time>2026-04-24T12:01:02.275Z</time></trkpt><trkpt lat="46.1785728" lon="13.5719432"><ele>549.5</ele><time>2026-04-24T12:01:03.274Z</time></trkpt><trkpt lat="46.1785183" lon="13.5718439"><ele>551.0</ele><time>2026-04-24T12:01:04.275Z</time></trkpt><trkpt lat="46.1784792" lon="13.5717323"><ele>552.5</ele><time>2026-04-24T12:01:05.274Z</time></trkpt><trkpt lat="46.1784519" lon="13.5716152"><ele>554.0</ele><time>2026-04-24T12:01:06.276Z</time></trkpt><trkpt lat="46.1784331" lon="13.5714958"><ele>555.5</ele><time>2026-04-24T12:01:07.274Z</time></trkpt><trkpt lat="46.1784129" lon="13.5713719"><ele>557.0</ele><time>2026-04-24T12:01:08.276Z</time></trkpt><trkpt lat="46.1783938" lon="13.5712449"><ele>557.6</ele><time>2026-04-24T12:01:09.275Z</time></trkpt><trkpt lat="46.1783679" lon="13.5711114"><ele>558.2</ele><time>2026-04-24T12:01:10.275Z</time></trkpt><trkpt lat="46.1783419" lon="13.5709645"><ele>558.8</ele><time>2026-04-24T12:01:11.276Z</time></trkpt><trkpt lat="46.1783126" lon="13.5708141"><ele>559.4</ele><time>2026-04-24T12:01:12.276Z</time></trkpt><trkpt lat="46.178282" lon="13.5706662"><ele>560.0</ele><time>2026-04-24T12:01:13.275Z</time></trkpt><trkpt lat="46.1782565" lon="13.5705204"><ele>560.0</ele><time>2026-04-24T12:01:14.274Z</time></trkpt><trkpt lat="46.1782375" lon="13.5703755"><ele>560.0</ele><time>2026-04-24T12:01:15.275Z</time></trkpt><trkpt lat="46.1782353" lon="13.570233"><ele>560.0</ele><time>2026-04-24T12:01:16.274Z</time></trkpt><trkpt lat="46.1782483" lon="13.5700943"><ele>560.0</ele><time>2026-04-24T12:01:17.276Z</time></trkpt><trkpt lat="46.1782754" lon="13.5699629"><ele>560.0</ele><time>2026-04-24T12:01:18.275Z</time></trkpt><trkpt lat="46.1783181" lon="13.5698493"><ele>559.8333333333333</ele><time>2026-04-24T12:01:19.275Z</time></trkpt><trkpt lat="46.178372" lon="13.569751"><ele>559.6666666666666</ele><time>2026-04-24T12:01:20.275Z</time></trkpt><trkpt lat="46.1784373" lon="13.5696779"><ele>559.5</ele><time>2026-04-24T12:01:21.274Z</time></trkpt><trkpt lat="46.1784966" lon="13.5696182"><ele>559.3333333333334</ele><time>2026-04-24T12:01:22.276Z</time></trkpt><trkpt lat="46.1785479" lon="13.5695558"><ele>559.1666666666667</ele><time>2026-04-24T12:01:23.275Z</time></trkpt><trkpt lat="46.1785818" lon="13.5693977"><ele>559.0</ele><time>2026-04-24T12:01:25.275Z</time></trkpt><trkpt lat="46.1785514" lon="13.5692364"><ele>558.6</ele><time>2026-04-24T12:01:27.274Z</time></trkpt><trkpt lat="46.1784833" lon="13.569154"><ele>558.2</ele><time>2026-04-24T12:01:28.275Z</time></trkpt><trkpt lat="46.1783793" lon="13.5691578"><ele>557.8000000000001</ele><time>2026-04-24T12:01:29.276Z</time></trkpt><trkpt lat="46.178292" lon="13.5691058"><ele>557.4</ele><time>2026-04-24T12:01:30.275Z</time></trkpt><trkpt lat="46.1782036" lon="13.5690427"><ele>557.0</ele><time>2026-04-24T12:01:31.275Z</time></trkpt><trkpt lat="46.178114" lon="13.5689662"><ele>554.5</ele><time>2026-04-24T12:01:32.274Z</time></trkpt><trkpt lat="46.1780215" lon="13.5688749"><ele>552.0</ele><time>2026-04-24T12:01:33.275Z</time></trkpt><trkpt lat="46.1779257" lon="13.5687737"><ele>549.5</ele><time>2026-04-24T12:01:34.275Z</time></trkpt><trkpt lat="46.1778302" lon="13.5686635"><ele>547.0</ele><time>2026-04-24T12:01:35.274Z</time></trkpt><trkpt lat="46.1777347" lon="13.5685476"><ele>547.0</ele><time>2026-04-24T12:01:36.276Z</time></trkpt><trkpt lat="46.1776376" lon="13.5684407"><ele>547.0</ele><time>2026-04-24T12:01:37.274Z</time></trkpt><trkpt lat="46.1775297" lon="13.5683565"><ele>547.0</ele><time>2026-04-24T12:01:38.275Z</time></trkpt><trkpt lat="46.1774223" lon="13.5682905"><ele>547.0</ele><time>2026-04-24T12:01:39.274Z</time></trkpt><trkpt lat="46.1773109" lon="13.5682269"><ele>547.6</ele><time>2026-04-24T12:01:40.275Z</time></trkpt><trkpt lat="46.1772111" lon="13.5681576"><ele>548.2</ele><time>2026-04-24T12:01:41.274Z</time></trkpt><trkpt lat="46.177117" lon="13.568088"><ele>548.8</ele><time>2026-04-24T12:01:42.274Z</time></trkpt><trkpt lat="46.1770239" lon="13.5680042"><ele>549.4</ele><time>2026-04-24T12:01:43.275Z</time></trkpt><trkpt lat="46.1769284" lon="13.5679103"><ele>550.0</ele><time>2026-04-24T12:01:44.275Z</time></trkpt><trkpt lat="46.1768363" lon="13.5678014"><ele>550.0</ele><time>2026-04-24T12:01:45.275Z</time></trkpt><trkpt lat="46.1767342" lon="13.5676898"><ele>550.0</ele><time>2026-04-24T12:01:46.275Z</time></trkpt><trkpt lat="46.1766287" lon="13.5675723"><ele>550.0</ele><time>2026-04-24T12:01:47.274Z</time></trkpt><trkpt lat="46.1765277" lon="13.5674571"><ele>550.0</ele><time>2026-04-24T12:01:48.276Z</time></trkpt><trkpt lat="46.1764306" lon="13.5673331"><ele>545.75</ele><time>2026-04-24T12:01:49.276Z</time></trkpt><trkpt lat="46.1763448" lon="13.5671991"><ele>541.5</ele><time>2026-04-24T12:01:50.276Z</time></trkpt><trkpt lat="46.1762724" lon="13.5670606"><ele>537.25</ele><time>2026-04-24T12:01:51.275Z</time></trkpt><trkpt lat="46.1762156" lon="13.5669253"><ele>533.0</ele><time>2026-04-24T12:01:52.275Z</time></trkpt><trkpt lat="46.1761524" lon="13.5667932"><ele>533.0</ele><time>2026-04-24T12:01:53.275Z</time></trkpt><trkpt lat="46.1761188" lon="13.5666691"><ele>533.0</ele><time>2026-04-24T12:01:54.275Z</time></trkpt><trkpt lat="46.176132" lon="13.5664773"><ele>533.0</ele><time>2026-04-24T12:01:55.275Z</time></trkpt><trkpt lat="46.1762596" lon="13.5663042"><ele>533.0</ele><time>2026-04-24T12:01:56.276Z</time></trkpt><trkpt lat="46.1762915" lon="13.5661248"><ele>532.0</ele><time>2026-04-24T12:01:57.275Z</time></trkpt><trkpt lat="46.1763387" lon="13.5658729"><ele>531.0</ele><time>2026-04-24T12:01:58.275Z</time></trkpt><trkpt lat="46.1763545" lon="13.5656298"><ele>530.0</ele><time>2026-04-24T12:01:59.275Z</time></trkpt><trkpt lat="46.1764083" lon="13.5653855"><ele>530.3333333333333</ele><time>2026-04-24T12:02:00.275Z</time></trkpt><trkpt lat="46.176453" lon="13.5651558"><ele>530.6666666666666</ele><time>2026-04-24T12:02:01.274Z</time></trkpt><trkpt lat="46.1764814" lon="13.5649309"><ele>531.0</ele><time>2026-04-24T12:02:02.276Z</time></trkpt><trkpt lat="46.1765197" lon="13.5647054"><ele>545.6666666666666</ele><time>2026-04-24T12:02:03.275Z</time></trkpt><trkpt lat="46.1765608" lon="13.5644679"><ele>560.3333333333333</ele><time>2026-04-24T12:02:04.276Z</time></trkpt><trkpt lat="46.1765301" lon="13.5642443"><ele>575.0</ele><time>2026-04-24T12:02:05.275Z</time></trkpt><trkpt lat="46.1765483" lon="13.5640112"><ele>575.0</ele><time>2026-04-24T12:02:06.274Z</time></trkpt><trkpt lat="46.1766374" lon="13.5638373"><ele>575.0</ele><time>2026-04-24T12:02:07.275Z</time></trkpt><trkpt lat="46.176657" lon="13.5636213"><ele>575.0</ele><time>2026-04-24T12:02:08.276Z</time></trkpt><trkpt lat="46.1766604" lon="13.5634201"><ele>575.0</ele><time>2026-04-24T12:02:09.273Z</time></trkpt><trkpt lat="46.1766798" lon="13.5632283"><ele>575.5</ele><time>2026-04-24T12:02:10.274Z</time></trkpt><trkpt lat="46.1766681" lon="13.563041"><ele>576.0</ele><time>2026-04-24T12:02:11.273Z</time></trkpt><trkpt lat="46.1766646" lon="13.5628456"><ele>576.5</ele><time>2026-04-24T12:02:12.273Z</time></trkpt><trkpt lat="46.1765556" lon="13.5626824"><ele>577.0</ele><time>2026-04-24T12:02:13.274Z</time></trkpt><trkpt lat="46.1764989" lon="13.5625287"><ele>577.25</ele><time>2026-04-24T12:02:14.275Z</time></trkpt><trkpt lat="46.1763727" lon="13.5624064"><ele>577.5</ele><time>2026-04-24T12:02:15.274Z</time></trkpt><trkpt lat="46.1762902" lon="13.562245"><ele>577.75</ele><time>2026-04-24T12:02:16.275Z</time></trkpt><trkpt lat="46.1762119" lon="13.5620839"><ele>578.0</ele><time>2026-04-24T12:02:17.275Z</time></trkpt><trkpt lat="46.1761379" lon="13.5619237"><ele>578.0</ele><time>2026-04-24T12:02:18.273Z</time></trkpt><trkpt lat="46.1760857" lon="13.5617435"><ele>578.0</ele><time>2026-04-24T12:02:19.273Z</time></trkpt><trkpt lat="46.1760569" lon="13.5615787"><ele>578.0</ele><time>2026-04-24T12:02:20.273Z</time></trkpt><trkpt lat="46.1760252" lon="13.5614011"><ele>578.0</ele><time>2026-04-24T12:02:21.274Z</time></trkpt><trkpt lat="46.176" lon="13.5612274"><ele>581.0</ele><time>2026-04-24T12:02:22.273Z</time></trkpt><trkpt lat="46.1759869" lon="13.5610413"><ele>584.0</ele><time>2026-04-24T12:02:23.273Z</time></trkpt><trkpt lat="46.1760473" lon="13.5608115"><ele>587.0</ele><time>2026-04-24T12:02:24.274Z</time></trkpt><trkpt lat="46.1760519" lon="13.5605981"><ele>590.0</ele><time>2026-04-24T12:02:25.275Z</time></trkpt><trkpt lat="46.1760691" lon="13.5603941"><ele>594.6666666666666</ele><time>2026-04-24T12:02:26.274Z</time></trkpt><trkpt lat="46.1760735" lon="13.5601495"><ele>599.3333333333334</ele><time>2026-04-24T12:02:27.273Z</time></trkpt><trkpt lat="46.1759751" lon="13.559923"><ele>604.0</ele><time>2026-04-24T12:02:28.273Z</time></trkpt><trkpt lat="46.1759546" lon="13.5597109"><ele>609.3333333333334</ele><time>2026-04-24T12:02:29.275Z</time></trkpt><trkpt lat="46.175899" lon="13.5595061"><ele>614.6666666666666</ele><time>2026-04-24T12:02:30.274Z</time></trkpt><trkpt lat="46.1758263" lon="13.5592978"><ele>620.0</ele><time>2026-04-24T12:02:31.274Z</time></trkpt><trkpt lat="46.1757817" lon="13.5590807"><ele>620.0</ele><time>2026-04-24T12:02:32.273Z</time></trkpt><trkpt lat="46.1757354" lon="13.5588769"><ele>620.0</ele><time>2026-04-24T12:02:33.274Z</time></trkpt><trkpt lat="46.1756909" lon="13.5586824"><ele>620.0</ele><time>2026-04-24T12:02:34.274Z</time></trkpt><trkpt lat="46.1757194" lon="13.5584521"><ele>621.75</ele><time>2026-04-24T12:02:35.273Z</time></trkpt><trkpt lat="46.1757268" lon="13.5582471"><ele>623.5</ele><time>2026-04-24T12:02:36.273Z</time></trkpt><trkpt lat="46.1757616" lon="13.5580295"><ele>625.25</ele><time>2026-04-24T12:02:37.275Z</time></trkpt><trkpt lat="46.1758097" lon="13.5578303"><ele>627.0</ele><time>2026-04-24T12:02:38.273Z</time></trkpt><trkpt lat="46.1758435" lon="13.5576391"><ele>627.5</ele><time>2026-04-24T12:02:39.273Z</time></trkpt><trkpt lat="46.1758665" lon="13.5574512"><ele>628.0</ele><time>2026-04-24T12:02:40.273Z</time></trkpt><trkpt lat="46.1758978" lon="13.5572595"><ele>628.5</ele><time>2026-04-24T12:02:41.274Z</time></trkpt><trkpt lat="46.1759019" lon="13.5570919"><ele>629.0</ele><time>2026-04-24T12:02:42.274Z</time></trkpt><trkpt lat="46.1759152" lon="13.5569449"><ele>629.0</ele><time>2026-04-24T12:02:43.275Z</time></trkpt><trkpt lat="46.1759351" lon="13.5567905"><ele>629.0</ele><time>2026-04-24T12:02:44.274Z</time></trkpt><trkpt lat="46.176007" lon="13.5566724"><ele>629.0</ele><time>2026-04-24T12:02:45.273Z</time></trkpt><trkpt lat="46.1760998" lon="13.5566034"><ele>629.0</ele><time>2026-04-24T12:02:46.273Z</time></trkpt><trkpt lat="46.1761992" lon="13.5565529"><ele>629.0</ele><time>2026-04-24T12:02:47.274Z</time></trkpt><trkpt lat="46.1763126" lon="13.5565338"><ele>629.0</ele><time>2026-04-24T12:02:48.274Z</time></trkpt><trkpt lat="46.1764423" lon="13.5565566"><ele>629.0</ele><time>2026-04-24T12:02:49.275Z</time></trkpt><trkpt lat="46.1765847" lon="13.5566012"><ele>629.0</ele><time>2026-04-24T12:02:50.274Z</time></trkpt><trkpt lat="46.1767327" lon="13.5566388"><ele>629.0</ele><time>2026-04-24T12:02:51.274Z</time></trkpt><trkpt lat="46.1768903" lon="13.5566814"><ele>633.0</ele><time>2026-04-24T12:02:52.274Z</time></trkpt><trkpt lat="46.1770444" lon="13.5567373"><ele>637.0</ele><time>2026-04-24T12:02:53.273Z</time></trkpt><trkpt lat="46.1771965" lon="13.5567838"><ele>641.0</ele><time>2026-04-24T12:02:54.274Z</time></trkpt><trkpt lat="46.1773513" lon="13.5568607"><ele>638.5</ele><time>2026-04-24T12:02:55.274Z</time></trkpt><trkpt lat="46.1774912" lon="13.5569556"><ele>636.0</ele><time>2026-04-24T12:02:56.274Z</time></trkpt><trkpt lat="46.1775383" lon="13.5571372"><ele>633.5</ele><time>2026-04-24T12:02:57.274Z</time></trkpt><trkpt lat="46.1776727" lon="13.5572634"><ele>631.0</ele><time>2026-04-24T12:02:58.275Z</time></trkpt><trkpt lat="46.1777894" lon="13.5574"><ele>635.3333333333334</ele><time>2026-04-24T12:02:59.274Z</time></trkpt><trkpt lat="46.1779309" lon="13.5575119"><ele>639.6666666666666</ele><time>2026-04-24T12:03:00.274Z</time></trkpt><trkpt lat="46.1780915" lon="13.5576246"><ele>644.0</ele><time>2026-04-24T12:03:01.274Z</time></trkpt><trkpt lat="46.1782445" lon="13.5577088"><ele>644.0</ele><time>2026-04-24T12:03:02.275Z</time></trkpt><trkpt lat="46.1784087" lon="13.5577913"><ele>644.0</ele><time>2026-04-24T12:03:03.275Z</time></trkpt><trkpt lat="46.178585" lon="13.5578689"><ele>644.0</ele><time>2026-04-24T12:03:04.274Z</time></trkpt><trkpt lat="46.1787481" lon="13.5579532"><ele>652.6666666666666</ele><time>2026-04-24T12:03:05.274Z</time></trkpt><trkpt lat="46.1789165" lon="13.5580371"><ele>661.3333333333334</ele><time>2026-04-24T12:03:06.275Z</time></trkpt><trkpt lat="46.1790883" lon="13.5581203"><ele>670.0</ele><time>2026-04-24T12:03:07.275Z</time></trkpt><trkpt lat="46.1792659" lon="13.5581961"><ele>670.0</ele><time>2026-04-24T12:03:08.274Z</time></trkpt><trkpt lat="46.1794381" lon="13.5582763"><ele>670.0</ele><time>2026-04-24T12:03:09.274Z</time></trkpt><trkpt lat="46.1796186" lon="13.5583161"><ele>670.0</ele><time>2026-04-24T12:03:10.274Z</time></trkpt><trkpt lat="46.1797691" lon="13.5583532"><ele>669.75</ele><time>2026-04-24T12:03:11.274Z</time></trkpt><trkpt lat="46.1799132" lon="13.5583927"><ele>669.5</ele><time>2026-04-24T12:03:12.275Z</time></trkpt><trkpt lat="46.1800504" lon="13.5584945"><ele>669.25</ele><time>2026-04-24T12:03:13.274Z</time></trkpt><trkpt lat="46.1801618" lon="13.5585478"><ele>669.0</ele><time>2026-04-24T12:03:14.274Z</time></trkpt><trkpt lat="46.1802922" lon="13.5585687"><ele>669.0</ele><time>2026-04-24T12:03:15.274Z</time></trkpt><trkpt lat="46.1804161" lon="13.5585048"><ele>669.0</ele><time>2026-04-24T12:03:16.273Z</time></trkpt><trkpt lat="46.1805517" lon="13.55848"><ele>669.0</ele><time>2026-04-24T12:03:17.274Z</time></trkpt><trkpt lat="46.1807127" lon="13.5584311"><ele>669.0</ele><time>2026-04-24T12:03:18.273Z</time></trkpt><trkpt lat="46.1808714" lon="13.5584052"><ele>671.0</ele><time>2026-04-24T12:03:19.274Z</time></trkpt><trkpt lat="46.1810404" lon="13.558379"><ele>673.0</ele><time>2026-04-24T12:03:20.274Z</time></trkpt><trkpt lat="46.1812065" lon="13.5584012"><ele>675.0</ele><time>2026-04-24T12:03:21.274Z</time></trkpt><trkpt lat="46.1813778" lon="13.5584128"><ele>678.0</ele><time>2026-04-24T12:03:22.273Z</time></trkpt><trkpt lat="46.1815552" lon="13.5584305"><ele>681.0</ele><time>2026-04-24T12:03:23.274Z</time></trkpt><trkpt lat="46.1817317" lon="13.5584465"><ele>684.0</ele><time>2026-04-24T12:03:24.275Z</time></trkpt><trkpt lat="46.1818973" lon="13.5584686"><ele>684.0</ele><time>2026-04-24T12:03:25.275Z</time></trkpt><trkpt lat="46.1820573" lon="13.5584637"><ele>684.0</ele><time>2026-04-24T12:03:26.274Z</time></trkpt><trkpt lat="46.1822235" lon="13.5584875"><ele>684.0</ele><time>2026-04-24T12:03:27.273Z</time></trkpt><trkpt lat="46.1823888" lon="13.558522"><ele>684.6666666666666</ele><time>2026-04-24T12:03:28.275Z</time></trkpt><trkpt lat="46.182562" lon="13.5585704"><ele>685.3333333333333</ele><time>2026-04-24T12:03:29.273Z</time></trkpt><trkpt lat="46.1827268" lon="13.5586193"><ele>686.0</ele><time>2026-04-24T12:03:30.274Z</time></trkpt><trkpt lat="46.1828863" lon="13.5586523"><ele>686.0</ele><time>2026-04-24T12:03:31.274Z</time></trkpt><trkpt lat="46.1830453" lon="13.5586981"><ele>686.0</ele><time>2026-04-24T12:03:32.274Z</time></trkpt><trkpt lat="46.1831942" lon="13.5587842"><ele>686.0</ele><time>2026-04-24T12:03:33.273Z</time></trkpt><trkpt lat="46.1833331" lon="13.5588634"><ele>694.5</ele><time>2026-04-24T12:03:34.274Z</time></trkpt><trkpt lat="46.1834675" lon="13.5589174"><ele>703.0</ele><time>2026-04-24T12:03:35.275Z</time></trkpt><trkpt lat="46.1836012" lon="13.5589537"><ele>711.5</ele><time>2026-04-24T12:03:36.274Z</time></trkpt><trkpt lat="46.1837318" lon="13.5589698"><ele>720.0</ele><time>2026-04-24T12:03:37.274Z</time></trkpt><trkpt lat="46.1838832" lon="13.5589735"><ele>719.6666666666666</ele><time>2026-04-24T12:03:38.273Z</time></trkpt><trkpt lat="46.1840539" lon="13.5588533"><ele>719.3333333333333</ele><time>2026-04-24T12:03:39.273Z</time></trkpt><trkpt lat="46.1842112" lon="13.558831"><ele>719.0</ele><time>2026-04-24T12:03:40.274Z</time></trkpt><trkpt lat="46.1843676" lon="13.5588146"><ele>719.0</ele><time>2026-04-24T12:03:41.273Z</time></trkpt><trkpt lat="46.1845222" lon="13.5588102"><ele>719.0</ele><time>2026-04-24T12:03:42.274Z</time></trkpt><trkpt lat="46.184664" lon="13.5588444"><ele>719.0</ele><time>2026-04-24T12:03:43.274Z</time></trkpt><trkpt lat="46.1848357" lon="13.5589085"><ele>720.5</ele><time>2026-04-24T12:03:44.274Z</time></trkpt><trkpt lat="46.1849749" lon="13.5589619"><ele>722.0</ele><time>2026-04-24T12:03:45.273Z</time></trkpt><trkpt lat="46.1850976" lon="13.5590076"><ele>723.5</ele><time>2026-04-24T12:03:46.274Z</time></trkpt><trkpt lat="46.1852072" lon="13.5590312"><ele>725.0</ele><time>2026-04-24T12:03:47.275Z</time></trkpt><trkpt lat="46.1853001" lon="13.5589675"><ele>725.0</ele><time>2026-04-24T12:03:48.275Z</time></trkpt><trkpt lat="46.1853852" lon="13.5588992"><ele>725.0</ele><time>2026-04-24T12:03:49.275Z</time></trkpt><trkpt lat="46.1854168" lon="13.5587403"><ele>725.0</ele><time>2026-04-24T12:03:50.275Z</time></trkpt><trkpt lat="46.1854662" lon="13.5586097"><ele>725.0</ele><time>2026-04-24T12:03:51.274Z</time></trkpt><trkpt lat="46.1855246" lon="13.5584495"><ele>725.0</ele><time>2026-04-24T12:03:52.273Z</time></trkpt><trkpt lat="46.1855889" lon="13.5582728"><ele>721.5</ele><time>2026-04-24T12:03:53.273Z</time></trkpt><trkpt lat="46.1856461" lon="13.5580997"><ele>718.0</ele><time>2026-04-24T12:03:54.275Z</time></trkpt><trkpt lat="46.1856873" lon="13.557933"><ele>714.5</ele><time>2026-04-24T12:03:55.274Z</time></trkpt><trkpt lat="46.185747" lon="13.5577826"><ele>711.0</ele><time>2026-04-24T12:03:56.273Z</time></trkpt><trkpt lat="46.1858139" lon="13.5576631"><ele>714.4</ele><time>2026-04-24T12:03:57.275Z</time></trkpt><trkpt lat="46.1856959" lon="13.5575369"><ele>717.8</ele><time>2026-04-24T12:03:58.274Z</time></trkpt><trkpt lat="46.1856497" lon="13.5574138"><ele>721.1999999999999</ele><time>2026-04-24T12:03:59.274Z</time></trkpt><trkpt lat="46.1855767" lon="13.557313"><ele>724.5999999999999</ele><time>2026-04-24T12:04:00.274Z</time></trkpt><trkpt lat="46.1854841" lon="13.5572495"><ele>728.0</ele><time>2026-04-24T12:04:01.274Z</time></trkpt><trkpt lat="46.1853994" lon="13.5571555"><ele>728.0</ele><time>2026-04-24T12:04:02.274Z</time></trkpt><trkpt lat="46.1852334" lon="13.5571704"><ele>728.0</ele><time>2026-04-24T12:04:03.274Z</time></trkpt><trkpt lat="46.1850535" lon="13.5571816"><ele>728.0</ele><time>2026-04-24T12:04:04.274Z</time></trkpt><trkpt lat="46.1849027" lon="13.5570794"><ele>729.75</ele><time>2026-04-24T12:04:05.274Z</time></trkpt><trkpt lat="46.1847759" lon="13.5569868"><ele>731.5</ele><time>2026-04-24T12:04:06.275Z</time></trkpt><trkpt lat="46.1846382" lon="13.5569069"><ele>733.25</ele><time>2026-04-24T12:04:07.273Z</time></trkpt><trkpt lat="46.1844988" lon="13.5568204"><ele>735.0</ele><time>2026-04-24T12:04:08.273Z</time></trkpt><trkpt lat="46.1843698" lon="13.5567078"><ele>735.0</ele><time>2026-04-24T12:04:09.274Z</time></trkpt><trkpt lat="46.1842384" lon="13.5565881"><ele>735.0</ele><time>2026-04-24T12:04:10.274Z</time></trkpt><trkpt lat="46.1841129" lon="13.5564622"><ele>735.0</ele><time>2026-04-24T12:04:11.274Z</time></trkpt><trkpt lat="46.1839848" lon="13.5563263"><ele>735.6666666666666</ele><time>2026-04-24T12:04:12.274Z</time></trkpt><trkpt lat="46.1838539" lon="13.5561878"><ele>736.3333333333333</ele><time>2026-04-24T12:04:13.273Z</time></trkpt><trkpt lat="46.1837283" lon="13.5560419"><ele>737.0</ele><time>2026-04-24T12:04:14.273Z</time></trkpt><trkpt lat="46.1836119" lon="13.5558749"><ele>737.0</ele><time>2026-04-24T12:04:15.273Z</time></trkpt><trkpt lat="46.1834976" lon="13.555705"><ele>737.0</ele><time>2026-04-24T12:04:16.274Z</time></trkpt><trkpt lat="46.1833721" lon="13.5555567"><ele>737.0</ele><time>2026-04-24T12:04:17.275Z</time></trkpt><trkpt lat="46.1832441" lon="13.5554153"><ele>735.6666666666666</ele><time>2026-04-24T12:04:18.274Z</time></trkpt><trkpt lat="46.1831193" lon="13.5552638"><ele>734.3333333333334</ele><time>2026-04-24T12:04:19.274Z</time></trkpt><trkpt lat="46.1830014" lon="13.5551097"><ele>733.0</ele><time>2026-04-24T12:04:20.274Z</time></trkpt><trkpt lat="46.1828973" lon="13.5549342"><ele>733.0</ele><time>2026-04-24T12:04:21.275Z</time></trkpt><trkpt lat="46.1827942" lon="13.554764"><ele>733.0</ele><time>2026-04-24T12:04:22.273Z</time></trkpt><trkpt lat="46.1826952" lon="13.5545907"><ele>733.0</ele><time>2026-04-24T12:04:23.274Z</time></trkpt><trkpt lat="46.182603" lon="13.5544312"><ele>738.75</ele><time>2026-04-24T12:04:24.274Z</time></trkpt><trkpt lat="46.182523" lon="13.5542884"><ele>744.5</ele><time>2026-04-24T12:04:25.273Z</time></trkpt><trkpt lat="46.1824338" lon="13.5540096"><ele>750.25</ele><time>2026-04-24T12:04:27.274Z</time></trkpt><trkpt lat="46.1824271" lon="13.5538761"><ele>756.0</ele><time>2026-04-24T12:04:28.273Z</time></trkpt><trkpt lat="46.1824349" lon="13.5537294"><ele>757.5</ele><time>2026-04-24T12:04:29.273Z</time></trkpt><trkpt lat="46.1824589" lon="13.5535663"><ele>759.0</ele><time>2026-04-24T12:04:30.274Z</time></trkpt><trkpt lat="46.1824815" lon="13.5533927"><ele>760.5</ele><time>2026-04-24T12:04:31.273Z</time></trkpt><trkpt lat="46.182503" lon="13.5532022"><ele>762.0</ele><time>2026-04-24T12:04:32.274Z</time></trkpt><trkpt lat="46.1825292" lon="13.5530074"><ele>761.25</ele><time>2026-04-24T12:04:33.273Z</time></trkpt><trkpt lat="46.1825545" lon="13.5528213"><ele>760.5</ele><time>2026-04-24T12:04:34.275Z</time></trkpt><trkpt lat="46.182583" lon="13.5526437"><ele>759.75</ele><time>2026-04-24T12:04:35.275Z</time></trkpt><trkpt lat="46.1826205" lon="13.5524718"><ele>759.0</ele><time>2026-04-24T12:04:36.274Z</time></trkpt><trkpt lat="46.1826791" lon="13.5523072"><ele>759.0</ele><time>2026-04-24T12:04:37.275Z</time></trkpt><trkpt lat="46.182765" lon="13.5521623"><ele>759.0</ele><time>2026-04-24T12:04:38.273Z</time></trkpt><trkpt lat="46.1828463" lon="13.5520143"><ele>759.0</ele><time>2026-04-24T12:04:39.274Z</time></trkpt><trkpt lat="46.1829105" lon="13.5518593"><ele>759.0</ele><time>2026-04-24T12:04:40.274Z</time></trkpt><trkpt lat="46.1829526" lon="13.5516922"><ele>757.0</ele><time>2026-04-24T12:04:41.275Z</time></trkpt><trkpt lat="46.1829866" lon="13.551525"><ele>755.0</ele><time>2026-04-24T12:04:42.275Z</time></trkpt><trkpt lat="46.1830063" lon="13.5513825"><ele>753.0</ele><time>2026-04-24T12:04:43.274Z</time></trkpt><trkpt lat="46.1830184" lon="13.5512524"><ele>751.0</ele><time>2026-04-24T12:04:44.273Z</time></trkpt><trkpt lat="46.1830286" lon="13.5511343"><ele>749.0</ele><time>2026-04-24T12:04:45.274Z</time></trkpt><trkpt lat="46.1830363" lon="13.5510248"><ele>748.6</ele><time>2026-04-24T12:04:46.273Z</time></trkpt><trkpt lat="46.1830527" lon="13.5509264"><ele>748.2</ele><time>2026-04-24T12:04:47.273Z</time></trkpt><trkpt lat="46.1831343" lon="13.5507461"><ele>747.8000000000001</ele><time>2026-04-24T12:04:49.274Z</time></trkpt><trkpt lat="46.1831742" lon="13.5506573"><ele>747.4000000000001</ele><time>2026-04-24T12:04:50.274Z</time></trkpt><trkpt lat="46.1832172" lon="13.550564"><ele>747.0</ele><time>2026-04-24T12:04:51.274Z</time></trkpt><trkpt lat="46.1832651" lon="13.5504672"><ele>748.6666666666666</ele><time>2026-04-24T12:04:52.274Z</time></trkpt><trkpt lat="46.1833083" lon="13.5503643"><ele>750.3333333333334</ele><time>2026-04-24T12:04:53.274Z</time></trkpt><trkpt lat="46.1833515" lon="13.5502598"><ele>752.0</ele><time>2026-04-24T12:04:54.274Z</time></trkpt><trkpt lat="46.1833927" lon="13.5501585"><ele>753.6666666666667</ele><time>2026-04-24T12:04:55.273Z</time></trkpt><trkpt lat="46.183431" lon="13.5500686"><ele>755.3333333333334</ele><time>2026-04-24T12:04:56.274Z</time></trkpt><trkpt lat="46.1834838" lon="13.5499877"><ele>757.0</ele><time>2026-04-24T12:04:57.273Z</time></trkpt><trkpt lat="46.1835747" lon="13.5498954"><ele>757.0</ele><time>2026-04-24T12:04:59.273Z</time></trkpt><trkpt lat="46.1836753" lon="13.5499044"><ele>757.0</ele><time>2026-04-24T12:05:01.274Z</time></trkpt><trkpt lat="46.1838053" lon="13.5499773"><ele>757.0</ele><time>2026-04-24T12:05:03.272Z</time></trkpt><trkpt lat="46.1838735" lon="13.5499768"><ele>757.0</ele><time>2026-04-24T12:05:04.273Z</time></trkpt><trkpt lat="46.1839585" lon="13.5499614"><ele>757.0</ele><time>2026-04-24T12:05:05.273Z</time></trkpt><trkpt lat="46.1840543" lon="13.5499436"><ele>759.25</ele><time>2026-04-24T12:05:06.273Z</time></trkpt><trkpt lat="46.1841598" lon="13.5499307"><ele>761.5</ele><time>2026-04-24T12:05:07.273Z</time></trkpt><trkpt lat="46.1842737" lon="13.5499217"><ele>763.75</ele><time>2026-04-24T12:05:08.272Z</time></trkpt><trkpt lat="46.1843869" lon="13.5499073"><ele>766.0</ele><time>2026-04-24T12:05:09.272Z</time></trkpt><trkpt lat="46.1845066" lon="13.549881"><ele>766.0</ele><time>2026-04-24T12:05:10.272Z</time></trkpt><trkpt lat="46.1846303" lon="13.549837"><ele>766.0</ele><time>2026-04-24T12:05:11.273Z</time></trkpt><trkpt lat="46.184754" lon="13.5497698"><ele>766.0</ele><time>2026-04-24T12:05:12.272Z</time></trkpt><trkpt lat="46.1848882" lon="13.5496983"><ele>766.0</ele><time>2026-04-24T12:05:13.272Z</time></trkpt><trkpt lat="46.1850274" lon="13.5496214"><ele>763.25</ele><time>2026-04-24T12:05:14.272Z</time></trkpt><trkpt lat="46.1851673" lon="13.5495443"><ele>760.5</ele><time>2026-04-24T12:05:15.272Z</time></trkpt><trkpt lat="46.1853049" lon="13.5494673"><ele>757.75</ele><time>2026-04-24T12:05:16.273Z</time></trkpt><trkpt lat="46.1854379" lon="13.5493764"><ele>755.0</ele><time>2026-04-24T12:05:17.272Z</time></trkpt><trkpt lat="46.1855671" lon="13.549267"><ele>764.0</ele><time>2026-04-24T12:05:18.273Z</time></trkpt><trkpt lat="46.1856954" lon="13.5491562"><ele>773.0</ele><time>2026-04-24T12:05:19.273Z</time></trkpt><trkpt lat="46.1858352" lon="13.5490733"><ele>782.0</ele><time>2026-04-24T12:05:20.272Z</time></trkpt><trkpt lat="46.185984" lon="13.5490182"><ele>782.0</ele><time>2026-04-24T12:05:21.272Z</time></trkpt><trkpt lat="46.1861351" lon="13.5489852"><ele>782.0</ele><time>2026-04-24T12:05:22.272Z</time></trkpt><trkpt lat="46.1862875" lon="13.5489456"><ele>782.0</ele><time>2026-04-24T12:05:23.273Z</time></trkpt><trkpt lat="46.1864354" lon="13.5489034"><ele>788.6666666666667</ele><time>2026-04-24T12:05:24.273Z</time></trkpt><trkpt lat="46.1865861" lon="13.5488696"><ele>795.3333333333333</ele><time>2026-04-24T12:05:25.273Z</time></trkpt><trkpt lat="46.1867366" lon="13.5488338"><ele>802.0</ele><time>2026-04-24T12:05:26.272Z</time></trkpt><trkpt lat="46.1868887" lon="13.5488102"><ele>802.0</ele><time>2026-04-24T12:05:27.272Z</time></trkpt><trkpt lat="46.1870357" lon="13.5487837"><ele>802.0</ele><time>2026-04-24T12:05:28.273Z</time></trkpt><trkpt lat="46.1871823" lon="13.5488382"><ele>802.0</ele><time>2026-04-24T12:05:29.272Z</time></trkpt><trkpt lat="46.1873244" lon="13.5488526"><ele>802.0</ele><time>2026-04-24T12:05:30.274Z</time></trkpt><trkpt lat="46.187474" lon="13.5488514"><ele>805.0</ele><time>2026-04-24T12:05:31.273Z</time></trkpt><trkpt lat="46.1876195" lon="13.5488256"><ele>808.0</ele><time>2026-04-24T12:05:32.273Z</time></trkpt><trkpt lat="46.1877394" lon="13.5487034"><ele>811.0</ele><time>2026-04-24T12:05:33.272Z</time></trkpt><trkpt lat="46.1878749" lon="13.5486227"><ele>814.0</ele><time>2026-04-24T12:05:34.273Z</time></trkpt><trkpt lat="46.1880018" lon="13.5485417"><ele>812.75</ele><time>2026-04-24T12:05:35.273Z</time></trkpt><trkpt lat="46.1881473" lon="13.5484941"><ele>811.5</ele><time>2026-04-24T12:05:36.273Z</time></trkpt><trkpt lat="46.1882923" lon="13.5484644"><ele>810.25</ele><time>2026-04-24T12:05:37.273Z</time></trkpt><trkpt lat="46.1884452" lon="13.5484397"><ele>809.0</ele><time>2026-04-24T12:05:38.272Z</time></trkpt><trkpt lat="46.1885984" lon="13.5484522"><ele>809.0</ele><time>2026-04-24T12:05:39.273Z</time></trkpt><trkpt lat="46.1887538" lon="13.5484506"><ele>809.0</ele><time>2026-04-24T12:05:40.274Z</time></trkpt><trkpt lat="46.1888986" lon="13.5484001"><ele>809.0</ele><time>2026-04-24T12:05:41.272Z</time></trkpt><trkpt lat="46.1890328" lon="13.5483609"><ele>809.0</ele><time>2026-04-24T12:05:42.273Z</time></trkpt><trkpt lat="46.1891895" lon="13.5483084"><ele>812.25</ele><time>2026-04-24T12:05:43.273Z</time></trkpt><trkpt lat="46.1893219" lon="13.5482022"><ele>815.5</ele><time>2026-04-24T12:05:44.273Z</time></trkpt><trkpt lat="46.1894687" lon="13.5481724"><ele>818.75</ele><time>2026-04-24T12:05:45.272Z</time></trkpt><trkpt lat="46.1896141" lon="13.5481327"><ele>822.0</ele><time>2026-04-24T12:05:46.272Z</time></trkpt><trkpt lat="46.1897615" lon="13.5481015"><ele>826.75</ele><time>2026-04-24T12:05:47.273Z</time></trkpt><trkpt lat="46.1899051" lon="13.5480789"><ele>831.5</ele><time>2026-04-24T12:05:48.272Z</time></trkpt><trkpt lat="46.1900487" lon="13.5480587"><ele>836.25</ele><time>2026-04-24T12:05:49.272Z</time></trkpt><trkpt lat="46.1901899" lon="13.5480558"><ele>841.0</ele><time>2026-04-24T12:05:50.274Z</time></trkpt><trkpt lat="46.1903121" lon="13.5481857"><ele>841.0</ele><time>2026-04-24T12:05:51.274Z</time></trkpt><trkpt lat="46.1904513" lon="13.548245"><ele>841.0</ele><time>2026-04-24T12:05:52.272Z</time></trkpt><trkpt lat="46.190589" lon="13.5483252"><ele>841.0</ele><time>2026-04-24T12:05:53.272Z</time></trkpt><trkpt lat="46.1907298" lon="13.5483934"><ele>841.0</ele><time>2026-04-24T12:05:54.273Z</time></trkpt><trkpt lat="46.1908895" lon="13.5484294"><ele>846.3333333333333</ele><time>2026-04-24T12:05:55.274Z</time></trkpt><trkpt lat="46.1910449" lon="13.5484476"><ele>851.6666666666667</ele><time>2026-04-24T12:05:56.273Z</time></trkpt><trkpt lat="46.1911958" lon="13.5484277"><ele>857.0</ele><time>2026-04-24T12:05:57.274Z</time></trkpt><trkpt lat="46.1913495" lon="13.5484218"><ele>857.0</ele><time>2026-04-24T12:05:58.274Z</time></trkpt><trkpt lat="46.1914906" lon="13.5484388"><ele>857.0</ele><time>2026-04-24T12:05:59.273Z</time></trkpt><trkpt lat="46.1916316" lon="13.5484563"><ele>857.0</ele><time>2026-04-24T12:06:00.272Z</time></trkpt><trkpt lat="46.1917569" lon="13.5484601"><ele>857.0</ele><time>2026-04-24T12:06:01.273Z</time></trkpt><trkpt lat="46.1918919" lon="13.5484195"><ele>861.0</ele><time>2026-04-24T12:06:02.273Z</time></trkpt><trkpt lat="46.1920163" lon="13.5483289"><ele>865.0</ele><time>2026-04-24T12:06:03.272Z</time></trkpt><trkpt lat="46.1921482" lon="13.5482289"><ele>869.0</ele><time>2026-04-24T12:06:04.273Z</time></trkpt><trkpt lat="46.1922896" lon="13.5481622"><ele>873.0</ele><time>2026-04-24T12:06:05.273Z</time></trkpt><trkpt lat="46.1924226" lon="13.548105"><ele>871.0</ele><time>2026-04-24T12:06:06.273Z</time></trkpt><trkpt lat="46.1925393" lon="13.5480582"><ele>869.0</ele><time>2026-04-24T12:06:07.273Z</time></trkpt><trkpt lat="46.1926359" lon="13.5480029"><ele>867.0</ele><time>2026-04-24T12:06:08.273Z</time></trkpt><trkpt lat="46.1927007" lon="13.5479255"><ele>865.0</ele><time>2026-04-24T12:06:09.273Z</time></trkpt><trkpt lat="46.1927729" lon="13.5478405"><ele>863.0</ele><time>2026-04-24T12:06:10.273Z</time></trkpt><trkpt lat="46.1928311" lon="13.5477625"><ele>863.0</ele><time>2026-04-24T12:06:11.273Z</time></trkpt><trkpt lat="46.192809" lon="13.5476277"><ele>863.0</ele><time>2026-04-24T12:06:12.272Z</time></trkpt><trkpt lat="46.1890328" lon="13.5483609"><ele>849.3333333333334</ele><time>2026-04-24T12:05:42.273Z</time></trkpt><trkpt lat="46.1891895" lon="13.5483084"><ele>835.6666666666667</ele><time>2026-04-24T12:05:43.273Z</time></trkpt><trkpt lat="46.1893219" lon="13.5482022"><ele>822.0</ele><time>2026-04-24T12:05:44.273Z</time></trkpt><trkpt lat="46.1894687" lon="13.5481724"><ele>822.0</ele><time>2026-04-24T12:05:45.272Z</time></trkpt><trkpt lat="46.1896141" lon="13.5481327"><ele>822.0</ele><time>2026-04-24T12:05:46.272Z</time></trkpt><trkpt lat="46.1897615" lon="13.5481015"><ele>822.0</ele><time>2026-04-24T12:05:47.273Z</time></trkpt><trkpt lat="46.1899051" lon="13.5480789"><ele>822.0</ele><time>2026-04-24T12:05:48.272Z</time></trkpt><trkpt lat="46.1900487" lon="13.5480587"><ele>826.75</ele><time>2026-04-24T12:05:49.272Z</time></trkpt><trkpt lat="46.1901899" lon="13.5480558"><ele>831.5</ele><time>2026-04-24T12:05:50.274Z</time></trkpt><trkpt lat="46.1903121" lon="13.5481857"><ele>836.25</ele><time>2026-04-24T12:05:51.274Z</time></trkpt><trkpt lat="46.1904513" lon="13.548245"><ele>841.0</ele><time>2026-04-24T12:05:52.272Z</time></trkpt><trkpt lat="46.190589" lon="13.5483252"><ele>846.3333333333333</ele><time>2026-04-24T12:05:53.272Z</time></trkpt><trkpt lat="46.1907298" lon="13.5483934"><ele>851.6666666666667</ele><time>2026-04-24T12:05:54.273Z</time></trkpt><trkpt lat="46.1908895" lon="13.5484294"><ele>857.0</ele><time>2026-04-24T12:05:55.274Z</time></trkpt><trkpt lat="46.1910449" lon="13.5484476"><ele>857.0</ele><time>2026-04-24T12:05:56.273Z</time></trkpt><trkpt lat="46.1911958" lon="13.5484277"><ele>857.0</ele><time>2026-04-24T12:05:57.274Z</time></trkpt><trkpt lat="46.1913495" lon="13.5484218"><ele>857.0</ele><time>2026-04-24T12:05:58.274Z</time></trkpt><trkpt lat="46.1914906" lon="13.5484388"><ele>857.0</ele><time>2026-04-24T12:05:59.273Z</time></trkpt><trkpt lat="46.1916316" lon="13.5484563"><ele>861.0</ele><time>2026-04-24T12:06:00.272Z</time></trkpt><trkpt lat="46.1917569" lon="13.5484601"><ele>865.0</ele><time>2026-04-24T12:06:01.273Z</time></trkpt><trkpt lat="46.1918919" lon="13.5484195"><ele>869.0</ele><time>2026-04-24T12:06:02.273Z</time></trkpt><trkpt lat="46.1920163" lon="13.5483289"><ele>873.0</ele><time>2026-04-24T12:06:03.272Z</time></trkpt><trkpt lat="46.1921482" lon="13.5482289"><ele>873.0</ele><time>2026-04-24T12:06:04.273Z</time></trkpt><trkpt lat="46.1922896" lon="13.5481622"><ele>873.0</ele><time>2026-04-24T12:06:05.273Z</time></trkpt><trkpt lat="46.1924226" lon="13.548105"><ele>873.0</ele><time>2026-04-24T12:06:06.273Z</time></trkpt><trkpt lat="46.1925393" lon="13.5480582"><ele>873.0</ele><time>2026-04-24T12:06:07.273Z</time></trkpt><trkpt lat="46.1926359" lon="13.5480029"><ele>871.0</ele><time>2026-04-24T12:06:08.273Z</time></trkpt><trkpt lat="46.1927007" lon="13.5479255"><ele>869.0</ele><time>2026-04-24T12:06:09.273Z</time></trkpt><trkpt lat="46.1927729" lon="13.5478405"><ele>867.0</ele><time>2026-04-24T12:06:10.273Z</time></trkpt><trkpt lat="46.1928311" lon="13.5477625"><ele>865.0</ele><time>2026-04-24T12:06:11.273Z</time></trkpt><trkpt lat="46.192809" lon="13.5476277"><ele>863.0</ele><time>2026-04-24T12:06:12.272Z</time></trkpt><trkpt lat="46.1926953" lon="13.5473476"><ele>863.0</ele><time>2026-04-24T12:06:14.274Z</time></trkpt><trkpt lat="46.1925298" lon="13.5472821"><ele>863.0</ele><time>2026-04-24T12:06:15.273Z</time></trkpt><trkpt lat="46.1923847" lon="13.5472549"><ele>863.0</ele><time>2026-04-24T12:06:16.273Z</time></trkpt><trkpt lat="46.1922855" lon="13.5471735"><ele>863.0</ele><time>2026-04-24T12:06:17.273Z</time></trkpt><trkpt lat="46.1922019" lon="13.5470544"><ele>859.75</ele><time>2026-04-24T12:06:18.272Z</time></trkpt><trkpt lat="46.1921491" lon="13.5469062"><ele>856.5</ele><time>2026-04-24T12:06:19.272Z</time></trkpt><trkpt lat="46.1921052" lon="13.5467739"><ele>853.25</ele><time>2026-04-24T12:06:20.272Z</time></trkpt><trkpt lat="46.1920714" lon="13.5466112"><ele>850.0</ele><time>2026-04-24T12:06:21.272Z</time></trkpt><trkpt lat="46.1921052" lon="13.5464284"><ele>850.0</ele><time>2026-04-24T12:06:22.274Z</time></trkpt><trkpt lat="46.1921116" lon="13.5462591"><ele>850.0</ele><time>2026-04-24T12:06:23.273Z</time></trkpt><trkpt lat="46.1921125" lon="13.546085"><ele>850.0</ele><time>2026-04-24T12:06:24.274Z</time></trkpt><trkpt lat="46.1920935" lon="13.5459016"><ele>850.0</ele><time>2026-04-24T12:06:25.273Z</time></trkpt><trkpt lat="46.1920543" lon="13.5457115"><ele>849.75</ele><time>2026-04-24T12:06:26.273Z</time></trkpt><trkpt lat="46.1920028" lon="13.5455177"><ele>849.5</ele><time>2026-04-24T12:06:27.272Z</time></trkpt><trkpt lat="46.1919529" lon="13.545322"><ele>849.25</ele><time>2026-04-24T12:06:28.272Z</time></trkpt><trkpt lat="46.191916" lon="13.5451228"><ele>849.0</ele><time>2026-04-24T12:06:29.273Z</time></trkpt><trkpt lat="46.1919013" lon="13.5449166"><ele>849.0</ele><time>2026-04-24T12:06:30.273Z</time></trkpt><trkpt lat="46.191895" lon="13.5447189"><ele>849.0</ele><time>2026-04-24T12:06:31.274Z</time></trkpt><trkpt lat="46.1919057" lon="13.544563"><ele>849.0</ele><time>2026-04-24T12:06:32.272Z</time></trkpt><trkpt lat="46.1919423" lon="13.5444396"><ele>849.0</ele><time>2026-04-24T12:06:33.274Z</time></trkpt><trkpt lat="46.1920049" lon="13.5443581"><ele>849.0</ele><time>2026-04-24T12:06:34.273Z</time></trkpt><trkpt lat="46.1920743" lon="13.5443038"><ele>849.8000000000001</ele><time>2026-04-24T12:06:35.272Z</time></trkpt><trkpt lat="46.1921657" lon="13.5442851"><ele>850.6</ele><time>2026-04-24T12:06:36.273Z</time></trkpt><trkpt lat="46.1922584" lon="13.5442997"><ele>851.4</ele><time>2026-04-24T12:06:37.272Z</time></trkpt><trkpt lat="46.1923576" lon="13.5443012"><ele>852.2</ele><time>2026-04-24T12:06:38.273Z</time></trkpt><trkpt lat="46.1924533" lon="13.544287"><ele>853.0</ele><time>2026-04-24T12:06:39.274Z</time></trkpt><trkpt lat="46.1925082" lon="13.5442029"><ele>859.4</ele><time>2026-04-24T12:06:40.273Z</time></trkpt><trkpt lat="46.1925762" lon="13.5441465"><ele>865.8</ele><time>2026-04-24T12:06:41.272Z</time></trkpt><trkpt lat="46.1925655" lon="13.543974"><ele>872.2</ele><time>2026-04-24T12:06:42.272Z</time></trkpt><trkpt lat="46.1925764" lon="13.5438354"><ele>878.6</ele><time>2026-04-24T12:06:43.273Z</time></trkpt><trkpt lat="46.1925795" lon="13.5436725"><ele>885.0</ele><time>2026-04-24T12:06:44.274Z</time></trkpt><trkpt lat="46.1925791" lon="13.5434927"><ele>885.0</ele><time>2026-04-24T12:06:45.272Z</time></trkpt><trkpt lat="46.1925738" lon="13.5433021"><ele>885.0</ele><time>2026-04-24T12:06:46.272Z</time></trkpt><trkpt lat="46.1925643" lon="13.5431151"><ele>885.0</ele><time>2026-04-24T12:06:47.272Z</time></trkpt><trkpt lat="46.1925477" lon="13.5429213"><ele>885.0</ele><time>2026-04-24T12:06:48.272Z</time></trkpt><trkpt lat="46.1925276" lon="13.5427354"><ele>884.5</ele><time>2026-04-24T12:06:49.274Z</time></trkpt><trkpt lat="46.1925009" lon="13.5425483"><ele>884.0</ele><time>2026-04-24T12:06:50.273Z</time></trkpt><trkpt lat="46.1924603" lon="13.5423632"><ele>883.5</ele><time>2026-04-24T12:06:51.274Z</time></trkpt><trkpt lat="46.192428" lon="13.5421849"><ele>883.0</ele><time>2026-04-24T12:06:52.273Z</time></trkpt><trkpt lat="46.1923985" lon="13.5420227"><ele>884.0</ele><time>2026-04-24T12:06:53.274Z</time></trkpt><trkpt lat="46.1923896" lon="13.5418622"><ele>885.0</ele><time>2026-04-24T12:06:54.273Z</time></trkpt><trkpt lat="46.1924447" lon="13.5417436"><ele>886.0</ele><time>2026-04-24T12:06:55.274Z</time></trkpt><trkpt lat="46.1926438" lon="13.5417519"><ele>887.0</ele><time>2026-04-24T12:06:56.273Z</time></trkpt><trkpt lat="46.1927324" lon="13.5416964"><ele>887.0</ele><time>2026-04-24T12:06:57.274Z</time></trkpt><trkpt lat="46.1927831" lon="13.5416076"><ele>887.0</ele><time>2026-04-24T12:06:58.273Z</time></trkpt><trkpt lat="46.1928338" lon="13.5415138"><ele>887.0</ele><time>2026-04-24T12:06:59.272Z</time></trkpt><trkpt lat="46.1928581" lon="13.5413873"><ele>887.0</ele><time>2026-04-24T12:07:00.272Z</time></trkpt><trkpt lat="46.1928701" lon="13.541246"><ele>887.0</ele><time>2026-04-24T12:07:01.272Z</time></trkpt><trkpt lat="46.1928691" lon="13.541089"><ele>889.0</ele><time>2026-04-24T12:07:02.274Z</time></trkpt><trkpt lat="46.1928508" lon="13.5409165"><ele>891.0</ele><time>2026-04-24T12:07:03.273Z</time></trkpt><trkpt lat="46.1928194" lon="13.5406937"><ele>893.0</ele><time>2026-04-24T12:07:04.273Z</time></trkpt><trkpt lat="46.1927054" lon="13.5405379"><ele>895.0</ele><time>2026-04-24T12:07:05.272Z</time></trkpt><trkpt lat="46.1926632" lon="13.5403583"><ele>896.0</ele><time>2026-04-24T12:07:06.272Z</time></trkpt><trkpt lat="46.1926163" lon="13.5401808"><ele>897.0</ele><time>2026-04-24T12:07:07.272Z</time></trkpt><trkpt lat="46.1925669" lon="13.5400133"><ele>898.0</ele><time>2026-04-24T12:07:08.273Z</time></trkpt><trkpt lat="46.1925738" lon="13.5398983"><ele>899.0</ele><time>2026-04-24T12:07:09.272Z</time></trkpt><trkpt lat="46.1925878" lon="13.5397654"><ele>900.0</ele><time>2026-04-24T12:07:10.274Z</time></trkpt><trkpt lat="46.192629" lon="13.5396365"><ele>902.25</ele><time>2026-04-24T12:07:11.273Z</time></trkpt><trkpt lat="46.1926498" lon="13.5394863"><ele>904.5</ele><time>2026-04-24T12:07:12.274Z</time></trkpt><trkpt lat="46.1926457" lon="13.5393057"><ele>906.75</ele><time>2026-04-24T12:07:13.273Z</time></trkpt><trkpt lat="46.1926223" lon="13.5391181"><ele>909.0</ele><time>2026-04-24T12:07:14.273Z</time></trkpt><trkpt lat="46.1925871" lon="13.5389099"><ele>909.5</ele><time>2026-04-24T12:07:15.273Z</time></trkpt><trkpt lat="46.1925619" lon="13.5387075"><ele>910.0</ele><time>2026-04-24T12:07:16.272Z</time></trkpt><trkpt lat="46.1925365" lon="13.5384977"><ele>910.5</ele><time>2026-04-24T12:07:17.274Z</time></trkpt><trkpt lat="46.192503" lon="13.538282"><ele>911.0</ele><time>2026-04-24T12:07:18.274Z</time></trkpt><trkpt lat="46.1924762" lon="13.538054"><ele>911.0</ele><time>2026-04-24T12:07:19.274Z</time></trkpt><trkpt lat="46.19247" lon="13.5378351"><ele>911.0</ele><time>2026-04-24T12:07:20.273Z</time></trkpt><trkpt lat="46.1924671" lon="13.5376226"><ele>911.0</ele><time>2026-04-24T12:07:21.273Z</time></trkpt><trkpt lat="46.1924811" lon="13.5374203"><ele>911.0</ele><time>2026-04-24T12:07:22.274Z</time></trkpt><trkpt lat="46.1925201" lon="13.5372336"><ele>911.0</ele><time>2026-04-24T12:07:23.273Z</time></trkpt><trkpt lat="46.1925781" lon="13.5370599"><ele>911.0</ele><time>2026-04-24T12:07:24.273Z</time></trkpt><trkpt lat="46.1926579" lon="13.5369021"><ele>911.0</ele><time>2026-04-24T12:07:25.272Z</time></trkpt><trkpt lat="46.1927459" lon="13.536753"><ele>911.0</ele><time>2026-04-24T12:07:26.273Z</time></trkpt><trkpt lat="46.1928335" lon="13.5365962"><ele>911.25</ele><time>2026-04-24T12:07:27.273Z</time></trkpt><trkpt lat="46.1929141" lon="13.5364433"><ele>911.5</ele><time>2026-04-24T12:07:28.273Z</time></trkpt><trkpt lat="46.1929696" lon="13.5362824"><ele>911.75</ele><time>2026-04-24T12:07:29.272Z</time></trkpt><trkpt lat="46.1930027" lon="13.5361086"><ele>912.0</ele><time>2026-04-24T12:07:30.273Z</time></trkpt><trkpt lat="46.1930121" lon="13.5359225"><ele>910.25</ele><time>2026-04-24T12:07:31.272Z</time></trkpt><trkpt lat="46.1930117" lon="13.5357362"><ele>908.5</ele><time>2026-04-24T12:07:32.273Z</time></trkpt><trkpt lat="46.1930131" lon="13.5355455"><ele>906.75</ele><time>2026-04-24T12:07:33.273Z</time></trkpt><trkpt lat="46.1930264" lon="13.535355"><ele>905.0</ele><time>2026-04-24T12:07:34.274Z</time></trkpt><trkpt lat="46.1930499" lon="13.5351716"><ele>903.75</ele><time>2026-04-24T12:07:35.273Z</time></trkpt><trkpt lat="46.1930955" lon="13.5349948"><ele>902.5</ele><time>2026-04-24T12:07:36.273Z</time></trkpt><trkpt lat="46.1931645" lon="13.5348327"><ele>901.25</ele><time>2026-04-24T12:07:37.272Z</time></trkpt><trkpt lat="46.193248" lon="13.5346829"><ele>900.0</ele><time>2026-04-24T12:07:38.272Z</time></trkpt><trkpt lat="46.1933333" lon="13.5345343"><ele>906.25</ele><time>2026-04-24T12:07:39.273Z</time></trkpt><trkpt lat="46.1934224" lon="13.5343885"><ele>912.5</ele><time>2026-04-24T12:07:40.272Z</time></trkpt><trkpt lat="46.1935062" lon="13.534245"><ele>918.75</ele><time>2026-04-24T12:07:41.272Z</time></trkpt><trkpt lat="46.1935947" lon="13.5341177"><ele>925.0</ele><time>2026-04-24T12:07:42.272Z</time></trkpt><trkpt lat="46.1936972" lon="13.5340087"><ele>925.0</ele><time>2026-04-24T12:07:43.272Z</time></trkpt><trkpt lat="46.1938056" lon="13.5339215"><ele>925.0</ele><time>2026-04-24T12:07:44.272Z</time></trkpt><trkpt lat="46.1939183" lon="13.5338406"><ele>925.0</ele><time>2026-04-24T12:07:45.271Z</time></trkpt><trkpt lat="46.1940275" lon="13.5337601"><ele>925.0</ele><time>2026-04-24T12:07:46.271Z</time></trkpt><trkpt lat="46.1941398" lon="13.5336785"><ele>931.25</ele><time>2026-04-24T12:07:47.272Z</time></trkpt><trkpt lat="46.1942512" lon="13.5336022"><ele>937.5</ele><time>2026-04-24T12:07:48.273Z</time></trkpt><trkpt lat="46.1943656" lon="13.5335284"><ele>943.75</ele><time>2026-04-24T12:07:49.272Z</time></trkpt><trkpt lat="46.1944758" lon="13.5334499"><ele>950.0</ele><time>2026-04-24T12:07:50.272Z</time></trkpt><trkpt lat="46.1945807" lon="13.5333546"><ele>950.0</ele><time>2026-04-24T12:07:51.273Z</time></trkpt><trkpt lat="46.1946735" lon="13.533242"><ele>950.0</ele><time>2026-04-24T12:07:52.272Z</time></trkpt><trkpt lat="46.1947587" lon="13.5330953"><ele>950.0</ele><time>2026-04-24T12:07:53.272Z</time></trkpt><trkpt lat="46.1948366" lon="13.5329396"><ele>950.0</ele><time>2026-04-24T12:07:54.271Z</time></trkpt><trkpt lat="46.1949111" lon="13.5327826"><ele>955.0</ele><time>2026-04-24T12:07:55.273Z</time></trkpt><trkpt lat="46.1949839" lon="13.5326237"><ele>960.0</ele><time>2026-04-24T12:07:56.273Z</time></trkpt><trkpt lat="46.1950571" lon="13.5324579"><ele>965.0</ele><time>2026-04-24T12:07:57.272Z</time></trkpt><trkpt lat="46.1951338" lon="13.5322952"><ele>970.0</ele><time>2026-04-24T12:07:58.271Z</time></trkpt><trkpt lat="46.1952134" lon="13.5321353"><ele>969.75</ele><time>2026-04-24T12:07:59.273Z</time></trkpt><trkpt lat="46.1952703" lon="13.5319527"><ele>969.5</ele><time>2026-04-24T12:08:00.272Z</time></trkpt><trkpt lat="46.195309" lon="13.5317528"><ele>969.25</ele><time>2026-04-24T12:08:01.272Z</time></trkpt><trkpt lat="46.1953213" lon="13.5315375"><ele>969.0</ele><time>2026-04-24T12:08:02.272Z</time></trkpt><trkpt lat="46.1953285" lon="13.5313211"><ele>968.0</ele><time>2026-04-24T12:08:03.272Z</time></trkpt><trkpt lat="46.195351" lon="13.5311088"><ele>967.0</ele><time>2026-04-24T12:08:04.272Z</time></trkpt><trkpt lat="46.1953739" lon="13.5308947"><ele>966.0</ele><time>2026-04-24T12:08:05.272Z</time></trkpt><trkpt lat="46.1954042" lon="13.5306808"><ele>966.0</ele><time>2026-04-24T12:08:06.271Z</time></trkpt><trkpt lat="46.1954434" lon="13.5304744"><ele>966.0</ele><time>2026-04-24T12:08:07.272Z</time></trkpt><trkpt lat="46.1954973" lon="13.5302581"><ele>966.0</ele><time>2026-04-24T12:08:08.272Z</time></trkpt><trkpt lat="46.1956116" lon="13.5300511"><ele>973.0</ele><time>2026-04-24T12:08:09.271Z</time></trkpt><trkpt lat="46.1956988" lon="13.5298335"><ele>980.0</ele><time>2026-04-24T12:08:10.272Z</time></trkpt><trkpt lat="46.1958142" lon="13.5296295"><ele>987.0</ele><time>2026-04-24T12:08:11.272Z</time></trkpt><trkpt lat="46.1959209" lon="13.5294435"><ele>987.0</ele><time>2026-04-24T12:08:12.273Z</time></trkpt><trkpt lat="46.1960163" lon="13.5292625"><ele>987.0</ele><time>2026-04-24T12:08:13.273Z</time></trkpt><trkpt lat="46.1961073" lon="13.5290853"><ele>987.0</ele><time>2026-04-24T12:08:14.272Z</time></trkpt><trkpt lat="46.1961922" lon="13.5289676"><ele>987.0</ele><time>2026-04-24T12:08:15.272Z</time></trkpt><trkpt lat="46.1962653" lon="13.5288229"><ele>987.0</ele><time>2026-04-24T12:08:16.271Z</time></trkpt><trkpt lat="46.1962784" lon="13.5286556"><ele>987.0</ele><time>2026-04-24T12:08:17.272Z</time></trkpt><trkpt lat="46.1962961" lon="13.5284748"><ele>987.0</ele><time>2026-04-24T12:08:18.272Z</time></trkpt><trkpt lat="46.1962587" lon="13.5282824"><ele>987.0</ele><time>2026-04-24T12:08:19.272Z</time></trkpt><trkpt lat="46.1962275" lon="13.5280986"><ele>987.0</ele><time>2026-04-24T12:08:20.271Z</time></trkpt><trkpt lat="46.1962064" lon="13.5279104"><ele>987.0</ele><time>2026-04-24T12:08:21.272Z</time></trkpt><trkpt lat="46.1962144" lon="13.5277392"><ele>987.0</ele><time>2026-04-24T12:08:22.272Z</time></trkpt><trkpt lat="46.1962424" lon="13.5275845"><ele>987.0</ele><time>2026-04-24T12:08:23.272Z</time></trkpt><trkpt lat="46.1963172" lon="13.5274559"><ele>988.25</ele><time>2026-04-24T12:08:24.273Z</time></trkpt><trkpt lat="46.1964075" lon="13.5273202"><ele>989.5</ele><time>2026-04-24T12:08:25.273Z</time></trkpt><trkpt lat="46.1965186" lon="13.5271876"><ele>990.75</ele><time>2026-04-24T12:08:26.272Z</time></trkpt><trkpt lat="46.1966302" lon="13.5270701"><ele>992.0</ele><time>2026-04-24T12:08:27.272Z</time></trkpt><trkpt lat="46.1967485" lon="13.5269802"><ele>997.5</ele><time>2026-04-24T12:08:28.271Z</time></trkpt><trkpt lat="46.196871" lon="13.5268919"><ele>1003.0</ele><time>2026-04-24T12:08:29.272Z</time></trkpt><trkpt lat="46.1969993" lon="13.5268121"><ele>1008.5</ele><time>2026-04-24T12:08:30.271Z</time></trkpt><trkpt lat="46.1970967" lon="13.5268518"><ele>1014.0</ele><time>2026-04-24T12:08:31.271Z</time></trkpt><trkpt lat="46.1972412" lon="13.527024"><ele>1013.8000000000001</ele><time>2026-04-24T12:08:32.272Z</time></trkpt><trkpt lat="46.1973243" lon="13.5270735"><ele>1013.6000000000001</ele><time>2026-04-24T12:08:33.271Z</time></trkpt><trkpt lat="46.1973841" lon="13.5271816"><ele>1013.4</ele><time>2026-04-24T12:08:34.273Z</time></trkpt><trkpt lat="46.1974149" lon="13.5272989"><ele>1013.2</ele><time>2026-04-24T12:08:35.271Z</time></trkpt><trkpt lat="46.197437" lon="13.5274415"><ele>1013.0</ele><time>2026-04-24T12:08:36.272Z</time></trkpt><trkpt lat="46.1973783" lon="13.5275962"><ele>1013.5</ele><time>2026-04-24T12:08:37.272Z</time></trkpt><trkpt lat="46.1973466" lon="13.5277767"><ele>1014.0</ele><time>2026-04-24T12:08:38.272Z</time></trkpt><trkpt lat="46.1973025" lon="13.5279816"><ele>1014.5</ele><time>2026-04-24T12:08:39.273Z</time></trkpt><trkpt lat="46.1972508" lon="13.5281878"><ele>1015.0</ele><time>2026-04-24T12:08:40.271Z</time></trkpt><trkpt lat="46.197214" lon="13.5283661"><ele>1015.0</ele><time>2026-04-24T12:08:41.272Z</time></trkpt><trkpt lat="46.1971695" lon="13.5285324"><ele>1015.0</ele><time>2026-04-24T12:08:42.272Z</time></trkpt><trkpt lat="46.1971365" lon="13.5287139"><ele>1015.0</ele><time>2026-04-24T12:08:43.273Z</time></trkpt><trkpt lat="46.1971945" lon="13.5288763"><ele>1015.0</ele><time>2026-04-24T12:08:44.273Z</time></trkpt><trkpt lat="46.1972052" lon="13.5290472"><ele>1016.5</ele><time>2026-04-24T12:08:45.271Z</time></trkpt><trkpt lat="46.1971965" lon="13.5292077"><ele>1018.0</ele><time>2026-04-24T12:08:46.271Z</time></trkpt><trkpt lat="46.1971692" lon="13.5293631"><ele>1019.5</ele><time>2026-04-24T12:08:47.272Z</time></trkpt><trkpt lat="46.1971115" lon="13.529522"><ele>1021.0</ele><time>2026-04-24T12:08:48.273Z</time></trkpt><trkpt lat="46.197049" lon="13.5296572"><ele>1024.0</ele><time>2026-04-24T12:08:49.272Z</time></trkpt><trkpt lat="46.1970006" lon="13.5297962"><ele>1027.0</ele><time>2026-04-24T12:08:50.271Z</time></trkpt><trkpt lat="46.1969738" lon="13.5299524"><ele>1030.0</ele><time>2026-04-24T12:08:51.272Z</time></trkpt><trkpt lat="46.1969712" lon="13.5301308"><ele>1033.0</ele><time>2026-04-24T12:08:52.272Z</time></trkpt><trkpt lat="46.1969858" lon="13.5303261"><ele>1035.6666666666665</ele><time>2026-04-24T12:08:53.272Z</time></trkpt><trkpt lat="46.1970236" lon="13.5305529"><ele>1038.3333333333333</ele><time>2026-04-24T12:08:54.272Z</time></trkpt><trkpt lat="46.197064" lon="13.530768"><ele>1041.0</ele><time>2026-04-24T12:08:55.272Z</time></trkpt><trkpt lat="46.1970975" lon="13.5309691"><ele>1041.0</ele><time>2026-04-24T12:08:56.273Z</time></trkpt><trkpt lat="46.1971135" lon="13.5311593"><ele>1041.0</ele><time>2026-04-24T12:08:57.273Z</time></trkpt><trkpt lat="46.197105" lon="13.5313375"><ele>1041.0</ele><time>2026-04-24T12:08:58.271Z</time></trkpt><trkpt lat="46.1970744" lon="13.5314944"><ele>1041.0</ele><time>2026-04-24T12:08:59.272Z</time></trkpt><trkpt lat="46.1970219" lon="13.5316488"><ele>1041.2</ele><time>2026-04-24T12:09:00.271Z</time></trkpt><trkpt lat="46.19697" lon="13.5317953"><ele>1041.3999999999999</ele><time>2026-04-24T12:09:01.272Z</time></trkpt><trkpt lat="46.1969223" lon="13.5319429"><ele>1041.6</ele><time>2026-04-24T12:09:02.272Z</time></trkpt><trkpt lat="46.1968939" lon="13.5320927"><ele>1041.8</ele><time>2026-04-24T12:09:03.273Z</time></trkpt><trkpt lat="46.1968962" lon="13.5322387"><ele>1042.0</ele><time>2026-04-24T12:09:04.271Z</time></trkpt><trkpt lat="46.1969239" lon="13.5323846"><ele>1043.75</ele><time>2026-04-24T12:09:05.271Z</time></trkpt><trkpt lat="46.1969666" lon="13.5325468"><ele>1045.5</ele><time>2026-04-24T12:09:06.271Z</time></trkpt><trkpt lat="46.1970068" lon="13.5327074"><ele>1047.25</ele><time>2026-04-24T12:09:07.272Z</time></trkpt><trkpt lat="46.1970317" lon="13.5328691"><ele>1049.0</ele><time>2026-04-24T12:09:08.272Z</time></trkpt><trkpt lat="46.1970297" lon="13.53305"><ele>1051.6666666666667</ele><time>2026-04-24T12:09:09.273Z</time></trkpt><trkpt lat="46.1970014" lon="13.5332526"><ele>1054.3333333333333</ele><time>2026-04-24T12:09:10.271Z</time></trkpt><trkpt lat="46.1969515" lon="13.5334766"><ele>1057.0</ele><time>2026-04-24T12:09:11.271Z</time></trkpt><trkpt lat="46.1968925" lon="13.5337126"><ele>1059.5</ele><time>2026-04-24T12:09:12.273Z</time></trkpt><trkpt lat="46.1968469" lon="13.5339168"><ele>1062.0</ele><time>2026-04-24T12:09:13.272Z</time></trkpt><trkpt lat="46.1968105" lon="13.534105"><ele>1064.5</ele><time>2026-04-24T12:09:14.271Z</time></trkpt><trkpt lat="46.1967939" lon="13.5342694"><ele>1067.0</ele><time>2026-04-24T12:09:15.271Z</time></trkpt><trkpt lat="46.1968007" lon="13.5344122"><ele>1067.8</ele><time>2026-04-24T12:09:16.271Z</time></trkpt><trkpt lat="46.1968014" lon="13.5345648"><ele>1068.6</ele><time>2026-04-24T12:09:17.272Z</time></trkpt><trkpt lat="46.1968977" lon="13.5346388"><ele>1069.3999999999999</ele><time>2026-04-24T12:09:18.273Z</time></trkpt><trkpt lat="46.1969695" lon="13.5347072"><ele>1070.2</ele><time>2026-04-24T12:09:19.273Z</time></trkpt><trkpt lat="46.1970644" lon="13.5347676"><ele>1071.0</ele><time>2026-04-24T12:09:20.271Z</time></trkpt><trkpt lat="46.1971787" lon="13.5346903"><ele>1071.0</ele><time>2026-04-24T12:09:21.271Z</time></trkpt><trkpt lat="46.1973046" lon="13.534652"><ele>1071.0</ele><time>2026-04-24T12:09:22.271Z</time></trkpt><trkpt lat="46.1974219" lon="13.5346152"><ele>1071.0</ele><time>2026-04-24T12:09:23.272Z</time></trkpt><trkpt lat="46.1975235" lon="13.534595"><ele>1071.0</ele><time>2026-04-24T12:09:24.271Z</time></trkpt><trkpt lat="46.1976104" lon="13.5346041"><ele>1071.0</ele><time>2026-04-24T12:09:25.273Z</time></trkpt><trkpt lat="46.1976841" lon="13.5346643"><ele>1073.8</ele><time>2026-04-24T12:09:26.272Z</time></trkpt><trkpt lat="46.1977358" lon="13.5347685"><ele>1076.6</ele><time>2026-04-24T12:09:27.273Z</time></trkpt><trkpt lat="46.1977693" lon="13.5349084"><ele>1079.4</ele><time>2026-04-24T12:09:28.273Z</time></trkpt><trkpt lat="46.1977996" lon="13.5350745"><ele>1082.2</ele><time>2026-04-24T12:09:29.272Z</time></trkpt><trkpt lat="46.1978367" lon="13.5352668"><ele>1085.0</ele><time>2026-04-24T12:09:30.273Z</time></trkpt><trkpt lat="46.1978736" lon="13.5354747"><ele>1085.0</ele><time>2026-04-24T12:09:31.272Z</time></trkpt><trkpt lat="46.1979092" lon="13.5356773"><ele>1085.0</ele><time>2026-04-24T12:09:32.272Z</time></trkpt><trkpt lat="46.1979438" lon="13.5358699"><ele>1085.0</ele><time>2026-04-24T12:09:33.273Z</time></trkpt><trkpt lat="46.1979662" lon="13.5360307"><ele>1085.0</ele><time>2026-04-24T12:09:34.272Z</time></trkpt><trkpt lat="46.1979872" lon="13.5361538"><ele>1084.8333333333335</ele><time>2026-04-24T12:09:35.272Z</time></trkpt><trkpt lat="46.198025" lon="13.5362447"><ele>1084.6666666666667</ele><time>2026-04-24T12:09:36.273Z</time></trkpt><trkpt lat="46.1980786" lon="13.5362995"><ele>1084.5</ele><time>2026-04-24T12:09:37.272Z</time></trkpt><trkpt lat="46.1981936" lon="13.5362384"><ele>1084.3333333333333</ele><time>2026-04-24T12:09:39.271Z</time></trkpt><trkpt lat="46.198226" lon="13.5361449"><ele>1084.1666666666665</ele><time>2026-04-24T12:09:40.271Z</time></trkpt><trkpt lat="46.1982372" lon="13.5359816"><ele>1084.0</ele><time>2026-04-24T12:09:41.271Z</time></trkpt><trkpt lat="46.1982637" lon="13.5357866"><ele>1091.0</ele><time>2026-04-24T12:09:42.271Z</time></trkpt><trkpt lat="46.1982905" lon="13.5355486"><ele>1098.0</ele><time>2026-04-24T12:09:43.271Z</time></trkpt><trkpt lat="46.1983201" lon="13.5352863"><ele>1105.0</ele><time>2026-04-24T12:09:44.271Z</time></trkpt><trkpt lat="46.1983502" lon="13.5350204"><ele>1105.0</ele><time>2026-04-24T12:09:45.272Z</time></trkpt><trkpt lat="46.198387" lon="13.5347126"><ele>1105.0</ele><time>2026-04-24T12:09:46.272Z</time></trkpt><trkpt lat="46.1984146" lon="13.5344091"><ele>1105.0</ele><time>2026-04-24T12:09:47.273Z</time></trkpt><trkpt lat="46.1984435" lon="13.5341228"><ele>1105.6666666666665</ele><time>2026-04-24T12:09:48.273Z</time></trkpt><trkpt lat="46.1984729" lon="13.5338489"><ele>1106.3333333333333</ele><time>2026-04-24T12:09:49.273Z</time></trkpt><trkpt lat="46.1985044" lon="13.533594"><ele>1107.0</ele><time>2026-04-24T12:09:50.271Z</time></trkpt><trkpt lat="46.1985298" lon="13.533355"><ele>1107.5</ele><time>2026-04-24T12:09:51.272Z</time></trkpt><trkpt lat="46.1985555" lon="13.5331321"><ele>1108.0</ele><time>2026-04-24T12:09:52.272Z</time></trkpt><trkpt lat="46.1985792" lon="13.5329313"><ele>1108.5</ele><time>2026-04-24T12:09:53.271Z</time></trkpt><trkpt lat="46.1985985" lon="13.5327496"><ele>1109.0</ele><time>2026-04-24T12:09:54.272Z</time></trkpt><trkpt lat="46.1986191" lon="13.5325906"><ele>1109.0</ele><time>2026-04-24T12:09:55.271Z</time></trkpt><trkpt lat="46.1986558" lon="13.5324491"><ele>1109.0</ele><time>2026-04-24T12:09:56.271Z</time></trkpt><trkpt lat="46.1987158" lon="13.5323396"><ele>1109.0</ele><time>2026-04-24T12:09:57.272Z</time></trkpt><trkpt lat="46.1987953" lon="13.5322718"><ele>1109.0</ele><time>2026-04-24T12:09:58.273Z</time></trkpt><trkpt lat="46.1988966" lon="13.5322265"><ele>1109.0</ele><time>2026-04-24T12:09:59.272Z</time></trkpt><trkpt lat="46.1990005" lon="13.5321962"><ele>1113.8</ele><time>2026-04-24T12:10:00.272Z</time></trkpt><trkpt lat="46.1990977" lon="13.5321808"><ele>1118.6000000000001</ele><time>2026-04-24T12:10:01.272Z</time></trkpt><trkpt lat="46.1991834" lon="13.5322076"><ele>1123.4</ele><time>2026-04-24T12:10:02.272Z</time></trkpt><trkpt lat="46.1992689" lon="13.5322293"><ele>1128.2</ele><time>2026-04-24T12:10:03.271Z</time></trkpt><trkpt lat="46.1992892" lon="13.532365"><ele>1133.0</ele><time>2026-04-24T12:10:04.272Z</time></trkpt><trkpt lat="46.1993108" lon="13.5324989"><ele>1133.0</ele><time>2026-04-24T12:10:05.272Z</time></trkpt><trkpt lat="46.1993149" lon="13.5326705"><ele>1133.0</ele><time>2026-04-24T12:10:06.272Z</time></trkpt><trkpt lat="46.1993233" lon="13.5328798"><ele>1133.0</ele><time>2026-04-24T12:10:07.271Z</time></trkpt><trkpt lat="46.199332" lon="13.5331242"><ele>1133.0</ele><time>2026-04-24T12:10:08.272Z</time></trkpt><trkpt lat="46.1993402" lon="13.5333803"><ele>1133.6666666666667</ele><time>2026-04-24T12:10:09.272Z</time></trkpt><trkpt lat="46.199348" lon="13.5336591"><ele>1134.3333333333333</ele><time>2026-04-24T12:10:10.272Z</time></trkpt><trkpt lat="46.1993517" lon="13.5339584"><ele>1135.0</ele><time>2026-04-24T12:10:11.271Z</time></trkpt><trkpt lat="46.1993625" lon="13.5342491"><ele>1136.3333333333333</ele><time>2026-04-24T12:10:12.271Z</time></trkpt><trkpt lat="46.1993692" lon="13.5345395"><ele>1137.6666666666667</ele><time>2026-04-24T12:10:13.273Z</time></trkpt><trkpt lat="46.1993739" lon="13.534813"><ele>1139.0</ele><time>2026-04-24T12:10:14.273Z</time></trkpt><trkpt lat="46.1993826" lon="13.5350709"><ele>1140.0</ele><time>2026-04-24T12:10:15.271Z</time></trkpt><trkpt lat="46.1993908" lon="13.5353163"><ele>1141.0</ele><time>2026-04-24T12:10:16.273Z</time></trkpt><trkpt lat="46.199399" lon="13.5355546"><ele>1142.0</ele><time>2026-04-24T12:10:17.272Z</time></trkpt><trkpt lat="46.1994054" lon="13.5357838"><ele>1143.0</ele><time>2026-04-24T12:10:18.273Z</time></trkpt><trkpt lat="46.1994142" lon="13.5360047"><ele>1144.0</ele><time>2026-04-24T12:10:19.272Z</time></trkpt><trkpt lat="46.199427" lon="13.5362204"><ele>1145.0</ele><time>2026-04-24T12:10:20.272Z</time></trkpt><trkpt lat="46.1994405" lon="13.5364276"><ele>1146.0</ele><time>2026-04-24T12:10:21.272Z</time></trkpt><trkpt lat="46.199451" lon="13.5366295"><ele>1147.0</ele><time>2026-04-24T12:10:22.273Z</time></trkpt><trkpt lat="46.1994629" lon="13.5368263"><ele>1148.0</ele><time>2026-04-24T12:10:23.271Z</time></trkpt><trkpt lat="46.1994834" lon="13.5370191"><ele>1149.0</ele><time>2026-04-24T12:10:24.272Z</time></trkpt><trkpt lat="46.1995096" lon="13.5372108"><ele>1150.0</ele><time>2026-04-24T12:10:25.272Z</time></trkpt><trkpt lat="46.199538" lon="13.5374006"><ele>1150.5</ele><time>2026-04-24T12:10:26.273Z</time></trkpt><trkpt lat="46.1995686" lon="13.5375897"><ele>1151.0</ele><time>2026-04-24T12:10:27.272Z</time></trkpt><trkpt lat="46.1995987" lon="13.5377752"><ele>1151.5</ele><time>2026-04-24T12:10:28.272Z</time></trkpt><trkpt lat="46.1996309" lon="13.5379577"><ele>1152.0</ele><time>2026-04-24T12:10:29.273Z</time></trkpt><trkpt lat="46.1996622" lon="13.5381381"><ele>1152.5</ele><time>2026-04-24T12:10:30.271Z</time></trkpt><trkpt lat="46.1996929" lon="13.5383179"><ele>1153.0</ele><time>2026-04-24T12:10:31.271Z</time></trkpt><trkpt lat="46.1997258" lon="13.5384991"><ele>1153.5</ele><time>2026-04-24T12:10:32.272Z</time></trkpt><trkpt lat="46.1997566" lon="13.5386748"><ele>1154.0</ele><time>2026-04-24T12:10:33.272Z</time></trkpt><trkpt lat="46.1997891" lon="13.5388573"><ele>1157.25</ele><time>2026-04-24T12:10:34.272Z</time></trkpt><trkpt lat="46.1998165" lon="13.5390429"><ele>1160.5</ele><time>2026-04-24T12:10:35.273Z</time></trkpt><trkpt lat="46.1998385" lon="13.5392281"><ele>1163.75</ele><time>2026-04-24T12:10:36.272Z</time></trkpt><trkpt lat="46.1998566" lon="13.539417"><ele>1167.0</ele><time>2026-04-24T12:10:37.272Z</time></trkpt><trkpt lat="46.1998617" lon="13.5396046"><ele>1168.75</ele><time>2026-04-24T12:10:38.272Z</time></trkpt><trkpt lat="46.1998533" lon="13.5397916"><ele>1170.5</ele><time>2026-04-24T12:10:39.273Z</time></trkpt><trkpt lat="46.199838" lon="13.5399821"><ele>1172.25</ele><time>2026-04-24T12:10:40.272Z</time></trkpt><trkpt lat="46.1998183" lon="13.5401647"><ele>1174.0</ele><time>2026-04-24T12:10:41.272Z</time></trkpt><trkpt lat="46.1997931" lon="13.5403487"><ele>1174.75</ele><time>2026-04-24T12:10:42.272Z</time></trkpt><trkpt lat="46.1997623" lon="13.5405326"><ele>1175.5</ele><time>2026-04-24T12:10:43.272Z</time></trkpt><trkpt lat="46.1997422" lon="13.5407174"><ele>1176.25</ele><time>2026-04-24T12:10:44.271Z</time></trkpt><trkpt lat="46.1997378" lon="13.5408999"><ele>1177.0</ele><time>2026-04-24T12:10:45.271Z</time></trkpt><trkpt lat="46.1997498" lon="13.5410807"><ele>1177.5</ele><time>2026-04-24T12:10:46.272Z</time></trkpt><trkpt lat="46.1997874" lon="13.5412528"><ele>1178.0</ele><time>2026-04-24T12:10:47.271Z</time></trkpt><trkpt lat="46.1998463" lon="13.5414227"><ele>1178.5</ele><time>2026-04-24T12:10:48.271Z</time></trkpt><trkpt lat="46.1999051" lon="13.5415887"><ele>1179.0</ele><time>2026-04-24T12:10:49.271Z</time></trkpt><trkpt lat="46.1999622" lon="13.5417576"><ele>1185.5</ele><time>2026-04-24T12:10:50.271Z</time></trkpt><trkpt lat="46.2000127" lon="13.5419268"><ele>1192.0</ele><time>2026-04-24T12:10:51.271Z</time></trkpt><trkpt lat="46.2000581" lon="13.5420986"><ele>1198.5</ele><time>2026-04-24T12:10:52.271Z</time></trkpt><trkpt lat="46.2001008" lon="13.5422744"><ele>1205.0</ele><time>2026-04-24T12:10:53.271Z</time></trkpt><trkpt lat="46.2001457" lon="13.5424525"><ele>1205.0</ele><time>2026-04-24T12:10:54.27Z</time></trkpt><trkpt lat="46.2001857" lon="13.5426299"><ele>1205.0</ele><time>2026-04-24T12:10:55.271Z</time></trkpt><trkpt lat="46.2002282" lon="13.542805"><ele>1205.0</ele><time>2026-04-24T12:10:56.271Z</time></trkpt><trkpt lat="46.200272" lon="13.5429824"><ele>1205.0</ele><time>2026-04-24T12:10:57.27Z</time></trkpt><trkpt lat="46.200314" lon="13.5431535"><ele>1205.5</ele><time>2026-04-24T12:10:58.271Z</time></trkpt><trkpt lat="46.2003652" lon="13.5433038"><ele>1206.0</ele><time>2026-04-24T12:10:59.272Z</time></trkpt><trkpt lat="46.2004336" lon="13.5434434"><ele>1206.5</ele><time>2026-04-24T12:11:00.272Z</time></trkpt><trkpt lat="46.2005158" lon="13.5435669"><ele>1207.0</ele><time>2026-04-24T12:11:01.271Z</time></trkpt><trkpt lat="46.2006023" lon="13.5436747"><ele>1208.6666666666665</ele><time>2026-04-24T12:11:02.271Z</time></trkpt><trkpt lat="46.2006844" lon="13.5437557"><ele>1210.3333333333333</ele><time>2026-04-24T12:11:03.272Z</time></trkpt><trkpt lat="46.2007585" lon="13.543804"><ele>1212.0</ele><time>2026-04-24T12:11:04.272Z</time></trkpt><trkpt lat="46.200833" lon="13.543822"><ele>1213.6666666666667</ele><time>2026-04-24T12:11:05.272Z</time></trkpt><trkpt lat="46.2009066" lon="13.5438109"><ele>1215.3333333333335</ele><time>2026-04-24T12:11:06.271Z</time></trkpt><trkpt lat="46.2009763" lon="13.5437516"><ele>1217.0</ele><time>2026-04-24T12:11:07.27Z</time></trkpt><trkpt lat="46.2010374" lon="13.5436553"><ele>1219.0</ele><time>2026-04-24T12:11:08.27Z</time></trkpt><trkpt lat="46.2010983" lon="13.5435454"><ele>1221.0</ele><time>2026-04-24T12:11:09.271Z</time></trkpt><trkpt lat="46.2011618" lon="13.5434377"><ele>1223.0</ele><time>2026-04-24T12:11:10.27Z</time></trkpt><trkpt lat="46.2012314" lon="13.5433402"><ele>1225.0</ele><time>2026-04-24T12:11:11.272Z</time></trkpt><trkpt lat="46.2013093" lon="13.54327"><ele>1227.0</ele><time>2026-04-24T12:11:12.271Z</time></trkpt><trkpt lat="46.2013986" lon="13.5432357"><ele>1227.0</ele><time>2026-04-24T12:11:13.27Z</time></trkpt><trkpt lat="46.2014961" lon="13.5432366"><ele>1227.0</ele><time>2026-04-24T12:11:14.27Z</time></trkpt><trkpt lat="46.2016014" lon="13.543269"><ele>1227.0</ele><time>2026-04-24T12:11:15.271Z</time></trkpt><trkpt lat="46.2016994" lon="13.5432994"><ele>1227.0</ele><time>2026-04-24T12:11:16.272Z</time></trkpt><trkpt lat="46.201787" lon="13.5433252"><ele>1227.0</ele><time>2026-04-24T12:11:17.271Z</time></trkpt><trkpt lat="46.2018638" lon="13.5433323"><ele>1230.2</ele><time>2026-04-24T12:11:18.272Z</time></trkpt><trkpt lat="46.2019312" lon="13.5433145"><ele>1233.4</ele><time>2026-04-24T12:11:19.272Z</time></trkpt><trkpt lat="46.2019935" lon="13.5432631"><ele>1236.6</ele><time>2026-04-24T12:11:20.271Z</time></trkpt><trkpt lat="46.2020456" lon="13.5431605"><ele>1239.8</ele><time>2026-04-24T12:11:21.271Z</time></trkpt><trkpt lat="46.2020993" lon="13.5430284"><ele>1243.0</ele><time>2026-04-24T12:11:22.271Z</time></trkpt><trkpt lat="46.2021635" lon="13.5428649"><ele>1244.8</ele><time>2026-04-24T12:11:23.271Z</time></trkpt><trkpt lat="46.2022196" lon="13.5427145"><ele>1246.6</ele><time>2026-04-24T12:11:24.271Z</time></trkpt><trkpt lat="46.2022769" lon="13.5425728"><ele>1248.4</ele><time>2026-04-24T12:11:25.271Z</time></trkpt><trkpt lat="46.2023252" lon="13.5424357"><ele>1250.2</ele><time>2026-04-24T12:11:26.271Z</time></trkpt><trkpt lat="46.2023636" lon="13.542306"><ele>1252.0</ele><time>2026-04-24T12:11:27.272Z</time></trkpt><trkpt lat="46.202388" lon="13.5421702"><ele>1254.0</ele><time>2026-04-24T12:11:28.27Z</time></trkpt><trkpt lat="46.2023961" lon="13.5420293"><ele>1256.0</ele><time>2026-04-24T12:11:29.27Z</time></trkpt><trkpt lat="46.2023844" lon="13.5418738"><ele>1258.0</ele><time>2026-04-24T12:11:30.271Z</time></trkpt><trkpt lat="46.202355" lon="13.5416952"><ele>1260.0</ele><time>2026-04-24T12:11:31.27Z</time></trkpt><trkpt lat="46.2023118" lon="13.5414985"><ele>1260.0</ele><time>2026-04-24T12:11:32.27Z</time></trkpt><trkpt lat="46.2022547" lon="13.5412822"><ele>1260.0</ele><time>2026-04-24T12:11:33.27Z</time></trkpt><trkpt lat="46.202207" lon="13.541092"><ele>1260.0</ele><time>2026-04-24T12:11:34.27Z</time></trkpt><trkpt lat="46.20216" lon="13.5409167"><ele>1260.0</ele><time>2026-04-24T12:11:35.27Z</time></trkpt><trkpt lat="46.2021142" lon="13.5407548"><ele>1260.5</ele><time>2026-04-24T12:11:36.27Z</time></trkpt><trkpt lat="46.2020708" lon="13.540591"><ele>1261.0</ele><time>2026-04-24T12:11:37.27Z</time></trkpt><trkpt lat="46.2020321" lon="13.5404254"><ele>1261.5</ele><time>2026-04-24T12:11:38.272Z</time></trkpt><trkpt lat="46.2020076" lon="13.5402496"><ele>1262.0</ele><time>2026-04-24T12:11:39.272Z</time></trkpt><trkpt lat="46.201999" lon="13.5400734"><ele>1263.25</ele><time>2026-04-24T12:11:40.27Z</time></trkpt><trkpt lat="46.2020002" lon="13.539887"><ele>1264.5</ele><time>2026-04-24T12:11:41.27Z</time></trkpt><trkpt lat="46.202001" lon="13.5396979"><ele>1265.75</ele><time>2026-04-24T12:11:42.27Z</time></trkpt><trkpt lat="46.2020086" lon="13.5395031"><ele>1267.0</ele><time>2026-04-24T12:11:43.272Z</time></trkpt><trkpt lat="46.202028" lon="13.5393051"><ele>1267.0</ele><time>2026-04-24T12:11:44.271Z</time></trkpt><trkpt lat="46.2020533" lon="13.5391045"><ele>1267.0</ele><time>2026-04-24T12:11:45.272Z</time></trkpt><trkpt lat="46.2020795" lon="13.5388955"><ele>1267.0</ele><time>2026-04-24T12:11:46.271Z</time></trkpt><trkpt lat="46.202106" lon="13.5386911"><ele>1267.0</ele><time>2026-04-24T12:11:47.27Z</time></trkpt><trkpt lat="46.2021357" lon="13.5384819"><ele>1267.0</ele><time>2026-04-24T12:11:48.272Z</time></trkpt><trkpt lat="46.2021742" lon="13.5382751"><ele>1267.0</ele><time>2026-04-24T12:11:49.271Z</time></trkpt><trkpt lat="46.2022134" lon="13.5380719"><ele>1267.0</ele><time>2026-04-24T12:11:50.27Z</time></trkpt><trkpt lat="46.202243" lon="13.5378934"><ele>1267.0</ele><time>2026-04-24T12:11:51.27Z</time></trkpt><trkpt lat="46.2022689" lon="13.5377584"><ele>1267.2</ele><time>2026-04-24T12:11:52.271Z</time></trkpt><trkpt lat="46.2022902" lon="13.5376512"><ele>1267.4</ele><time>2026-04-24T12:11:53.27Z</time></trkpt><trkpt lat="46.2023707" lon="13.537548"><ele>1267.6</ele><time>2026-04-24T12:11:55.272Z</time></trkpt><trkpt lat="46.2024877" lon="13.5375913"><ele>1267.8</ele><time>2026-04-24T12:11:57.271Z</time></trkpt><trkpt lat="46.2025505" lon="13.537635"><ele>1268.0</ele><time>2026-04-24T12:11:58.272Z</time></trkpt><trkpt lat="46.2025578" lon="13.5377857"><ele>1275.8</ele><time>2026-04-24T12:11:59.271Z</time></trkpt><trkpt lat="46.2025054" lon="13.5379027"><ele>1283.6</ele><time>2026-04-24T12:12:00.27Z</time></trkpt><trkpt lat="46.2024763" lon="13.5380387"><ele>1291.3999999999999</ele><time>2026-04-24T12:12:01.27Z</time></trkpt><trkpt lat="46.202448" lon="13.5381843"><ele>1299.1999999999998</ele><time>2026-04-24T12:12:02.271Z</time></trkpt><trkpt lat="46.2024245" lon="13.538319"><ele>1307.0</ele><time>2026-04-24T12:12:03.271Z</time></trkpt><trkpt lat="46.2024104" lon="13.5384548"><ele>1307.0</ele><time>2026-04-24T12:12:04.271Z</time></trkpt><trkpt lat="46.2024024" lon="13.5385757"><ele>1307.0</ele><time>2026-04-24T12:12:05.271Z</time></trkpt><trkpt lat="46.2024187" lon="13.5386975"><ele>1307.0</ele><time>2026-04-24T12:12:06.271Z</time></trkpt><trkpt lat="46.2024457" lon="13.5388024"><ele>1307.0</ele><time>2026-04-24T12:12:07.27Z</time></trkpt><trkpt lat="46.2024776" lon="13.5389056"><ele>1307.0</ele><time>2026-04-24T12:12:08.271Z</time></trkpt><trkpt lat="46.2025112" lon="13.5390094"><ele>1307.0</ele><time>2026-04-24T12:12:09.271Z</time></trkpt><trkpt lat="46.2025479" lon="13.5391095"><ele>1307.5</ele><time>2026-04-24T12:12:10.272Z</time></trkpt><trkpt lat="46.2025882" lon="13.5392053"><ele>1308.0</ele><time>2026-04-24T12:12:11.27Z</time></trkpt><trkpt lat="46.2026272" lon="13.5393065"><ele>1308.5</ele><time>2026-04-24T12:12:12.271Z</time></trkpt><trkpt lat="46.2026612" lon="13.539409"><ele>1309.0</ele><time>2026-04-24T12:12:13.271Z</time></trkpt><trkpt lat="46.2027046" lon="13.5395039"><ele>1309.5</ele><time>2026-04-24T12:12:14.271Z</time></trkpt><trkpt lat="46.2027515" lon="13.5395876"><ele>1310.0</ele><time>2026-04-24T12:12:15.27Z</time></trkpt><trkpt lat="46.2028007" lon="13.5396496"><ele>1310.0</ele><time>2026-04-24T12:12:16.27Z</time></trkpt><trkpt lat="46.2028851" lon="13.5396951"><ele>1310.0</ele><time>2026-04-24T12:12:18.271Z</time></trkpt><trkpt lat="46.2029547" lon="13.5395987"><ele>1310.0</ele><time>2026-04-24T12:12:21.27Z</time></trkpt><trkpt lat="46.2029484" lon="13.5394666"><ele>1310.0</ele><time>2026-04-24T12:12:23.272Z</time></trkpt><trkpt lat="46.2028988" lon="13.5393145"><ele>1310.0</ele><time>2026-04-24T12:12:25.27Z</time></trkpt><trkpt lat="46.2028721" lon="13.5392298"><ele>1310.0</ele><time>2026-04-24T12:12:26.272Z</time></trkpt><trkpt lat="46.2028333" lon="13.5390776"><ele>1310.0</ele><time>2026-04-24T12:12:28.272Z</time></trkpt><trkpt lat="46.2028027" lon="13.5389455"><ele>1310.0</ele><time>2026-04-24T12:12:30.272Z</time></trkpt><trkpt lat="46.2027757" lon="13.5388316"><ele>1310.0</ele><time>2026-04-24T12:12:32.271Z</time></trkpt><trkpt lat="46.2027426" lon="13.5387235"><ele>1310.0</ele><time>2026-04-24T12:12:34.271Z</time></trkpt><trkpt lat="46.2027167" lon="13.5386308"><ele>1310.0</ele><time>2026-04-24T12:12:36.272Z</time></trkpt><trkpt lat="46.2026642" lon="13.5385491"><ele>1309.5</ele><time>2026-04-24T12:12:39.271Z</time></trkpt><trkpt lat="46.2026696" lon="13.5384449"><ele>1309.0</ele><time>2026-04-24T12:17:20.268Z</time></trkpt><trkpt lat="46.2026834" lon="13.5382856"><ele>1308.5</ele><time>2026-04-24T12:17:22.27Z</time></trkpt><trkpt lat="46.2027053" lon="13.5381107"><ele>1308.0</ele><time>2026-04-24T12:17:24.269Z</time></trkpt><trkpt lat="46.2027179" lon="13.5380173"><ele>1307.5</ele><time>2026-04-24T12:17:25.269Z</time></trkpt><trkpt lat="46.2027307" lon="13.5379196"><ele>1307.0</ele><time>2026-04-24T12:17:26.269Z</time></trkpt><trkpt lat="46.2027385" lon="13.5378175"><ele>1306.7142857142856</ele><time>2026-04-24T12:17:27.269Z</time></trkpt><trkpt lat="46.2027492" lon="13.5377139"><ele>1306.4285714285716</ele><time>2026-04-24T12:17:28.268Z</time></trkpt><trkpt lat="46.2027657" lon="13.5376133"><ele>1306.142857142857</ele><time>2026-04-24T12:17:29.269Z</time></trkpt><trkpt lat="46.2027847" lon="13.5375132"><ele>1305.8571428571427</ele><time>2026-04-24T12:17:30.269Z</time></trkpt><trkpt lat="46.2027986" lon="13.5374074"><ele>1305.5714285714284</ele><time>2026-04-24T12:17:31.269Z</time></trkpt><trkpt lat="46.2028096" lon="13.5373106"><ele>1305.2857142857142</ele><time>2026-04-24T12:17:32.27Z</time></trkpt><trkpt lat="46.202807" lon="13.5372086"><ele>1305.0</ele><time>2026-04-24T12:17:33.27Z</time></trkpt><trkpt lat="46.2027795" lon="13.5371117"><ele>1305.0</ele><time>2026-04-24T12:17:34.27Z</time></trkpt><trkpt lat="46.2027184" lon="13.536988"><ele>1305.0</ele><time>2026-04-24T12:17:35.269Z</time></trkpt><trkpt lat="46.202675" lon="13.5369195"><ele>1305.0</ele><time>2026-04-24T12:17:36.268Z</time></trkpt><trkpt lat="46.2026014" lon="13.5368388"><ele>1305.0</ele><time>2026-04-24T12:17:37.269Z</time></trkpt><trkpt lat="46.2024902" lon="13.5368188"><ele>1305.0</ele><time>2026-04-24T12:17:39.269Z</time></trkpt><trkpt lat="46.2024174" lon="13.5368729"><ele>1305.0</ele><time>2026-04-24T12:17:40.268Z</time></trkpt><trkpt lat="46.2023666" lon="13.5369555"><ele>1305.0</ele><time>2026-04-24T12:17:41.268Z</time></trkpt><trkpt lat="46.2023434" lon="13.537056"><ele>1305.0</ele><time>2026-04-24T12:17:42.27Z</time></trkpt><trkpt lat="46.2023332" lon="13.5371734"><ele>1305.0</ele><time>2026-04-24T12:17:43.27Z</time></trkpt><trkpt lat="46.2023247" lon="13.5372993"><ele>1305.0</ele><time>2026-04-24T12:17:44.269Z</time></trkpt><trkpt lat="46.2023174" lon="13.53743"><ele>1305.0</ele><time>2026-04-24T12:17:45.269Z</time></trkpt><trkpt lat="46.2023013" lon="13.5375705"><ele>1297.6</ele><time>2026-04-24T12:17:46.27Z</time></trkpt><trkpt lat="46.2022815" lon="13.5377078"><ele>1290.2</ele><time>2026-04-24T12:17:47.27Z</time></trkpt><trkpt lat="46.2022614" lon="13.5378496"><ele>1282.8</ele><time>2026-04-24T12:17:48.27Z</time></trkpt><trkpt lat="46.2022424" lon="13.5379859"><ele>1275.4</ele><time>2026-04-24T12:17:49.268Z</time></trkpt><trkpt lat="46.202221" lon="13.5381244"><ele>1268.0</ele><time>2026-04-24T12:17:50.269Z</time></trkpt><trkpt lat="46.2021982" lon="13.538271"><ele>1267.8</ele><time>2026-04-24T12:17:51.27Z</time></trkpt><trkpt lat="46.2021714" lon="13.5384157"><ele>1267.6</ele><time>2026-04-24T12:17:52.268Z</time></trkpt><trkpt lat="46.2021444" lon="13.5385647"><ele>1267.4</ele><time>2026-04-24T12:17:53.268Z</time></trkpt><trkpt lat="46.2021183" lon="13.5387174"><ele>1267.2</ele><time>2026-04-24T12:17:54.27Z</time></trkpt><trkpt lat="46.2020956" lon="13.5388699"><ele>1267.0</ele><time>2026-04-24T12:17:55.27Z</time></trkpt><trkpt lat="46.2020724" lon="13.5390268"><ele>1267.0</ele><time>2026-04-24T12:17:56.269Z</time></trkpt><trkpt lat="46.202051" lon="13.5391861"><ele>1267.0</ele><time>2026-04-24T12:17:57.269Z</time></trkpt><trkpt lat="46.2020318" lon="13.5393451"><ele>1267.0</ele><time>2026-04-24T12:17:58.27Z</time></trkpt><trkpt lat="46.202019" lon="13.5395105"><ele>1267.0</ele><time>2026-04-24T12:17:59.27Z</time></trkpt><trkpt lat="46.2020133" lon="13.5396781"><ele>1267.0</ele><time>2026-04-24T12:18:00.269Z</time></trkpt><trkpt lat="46.2020103" lon="13.53985"><ele>1267.0</ele><time>2026-04-24T12:18:01.269Z</time></trkpt><trkpt lat="46.2020112" lon="13.540022"><ele>1267.0</ele><time>2026-04-24T12:18:02.268Z</time></trkpt><trkpt lat="46.2020147" lon="13.5401932"><ele>1267.0</ele><time>2026-04-24T12:18:03.269Z</time></trkpt><trkpt lat="46.2020319" lon="13.5403663"><ele>1265.75</ele><time>2026-04-24T12:18:04.27Z</time></trkpt><trkpt lat="46.2020654" lon="13.5405323"><ele>1264.5</ele><time>2026-04-24T12:18:05.269Z</time></trkpt><trkpt lat="46.2021084" lon="13.5406939"><ele>1263.25</ele><time>2026-04-24T12:18:06.269Z</time></trkpt><trkpt lat="46.2021519" lon="13.5408498"><ele>1262.0</ele><time>2026-04-24T12:18:07.268Z</time></trkpt><trkpt lat="46.2022" lon="13.5410108"><ele>1262.0</ele><time>2026-04-24T12:18:08.268Z</time></trkpt><trkpt lat="46.2022423" lon="13.5411719"><ele>1262.0</ele><time>2026-04-24T12:18:09.269Z</time></trkpt><trkpt lat="46.2022862" lon="13.5413315"><ele>1262.0</ele><time>2026-04-24T12:18:10.269Z</time></trkpt><trkpt lat="46.2023281" lon="13.5414914"><ele>1262.0</ele><time>2026-04-24T12:18:11.27Z</time></trkpt><trkpt lat="46.2023664" lon="13.541638"><ele>1263.0</ele><time>2026-04-24T12:18:12.268Z</time></trkpt><trkpt lat="46.2023975" lon="13.541787"><ele>1264.0</ele><time>2026-04-24T12:18:13.27Z</time></trkpt><trkpt lat="46.2024079" lon="13.5419405"><ele>1265.0</ele><time>2026-04-24T12:18:14.269Z</time></trkpt><trkpt lat="46.2024038" lon="13.5420889"><ele>1266.0</ele><time>2026-04-24T12:18:15.268Z</time></trkpt><trkpt lat="46.2023853" lon="13.5422376"><ele>1267.0</ele><time>2026-04-24T12:18:16.27Z</time></trkpt><trkpt lat="46.2023506" lon="13.5423755"><ele>1264.4</ele><time>2026-04-24T12:18:17.268Z</time></trkpt><trkpt lat="46.2023105" lon="13.5425086"><ele>1261.8000000000002</ele><time>2026-04-24T12:18:18.269Z</time></trkpt><trkpt lat="46.2022601" lon="13.5426407"><ele>1259.2</ele><time>2026-04-24T12:18:19.268Z</time></trkpt><trkpt lat="46.2022138" lon="13.5427734"><ele>1256.6000000000001</ele><time>2026-04-24T12:18:20.268Z</time></trkpt><trkpt lat="46.2021599" lon="13.5429008"><ele>1254.0</ele><time>2026-04-24T12:18:21.27Z</time></trkpt><trkpt lat="46.2021118" lon="13.543022"><ele>1252.1666666666667</ele><time>2026-04-24T12:18:22.27Z</time></trkpt><trkpt lat="46.2020673" lon="13.543135"><ele>1250.3333333333333</ele><time>2026-04-24T12:18:23.27Z</time></trkpt><trkpt lat="46.2020143" lon="13.5432364"><ele>1248.5</ele><time>2026-04-24T12:18:24.268Z</time></trkpt><trkpt lat="46.2019462" lon="13.5432926"><ele>1246.6666666666665</ele><time>2026-04-24T12:18:25.27Z</time></trkpt><trkpt lat="46.2018709" lon="13.5433109"><ele>1244.8333333333333</ele><time>2026-04-24T12:18:26.268Z</time></trkpt><trkpt lat="46.2017858" lon="13.5432952"><ele>1243.0</ele><time>2026-04-24T12:18:27.27Z</time></trkpt><trkpt lat="46.2016879" lon="13.5432628"><ele>1243.0</ele><time>2026-04-24T12:18:28.268Z</time></trkpt><trkpt lat="46.201595" lon="13.5432384"><ele>1243.0</ele><time>2026-04-24T12:18:29.269Z</time></trkpt><trkpt lat="46.2014994" lon="13.5432116"><ele>1243.0</ele><time>2026-04-24T12:18:30.269Z</time></trkpt><trkpt lat="46.2014094" lon="13.5432041"><ele>1243.0</ele><time>2026-04-24T12:18:31.269Z</time></trkpt><trkpt lat="46.2013275" lon="13.5432308"><ele>1243.0</ele><time>2026-04-24T12:18:32.269Z</time></trkpt><trkpt lat="46.2012605" lon="13.5432871"><ele>1243.0</ele><time>2026-04-24T12:18:33.269Z</time></trkpt><trkpt lat="46.2012046" lon="13.5433654"><ele>1240.3333333333333</ele><time>2026-04-24T12:18:34.268Z</time></trkpt><trkpt lat="46.2011506" lon="13.5434543"><ele>1237.6666666666665</ele><time>2026-04-24T12:18:35.268Z</time></trkpt><trkpt lat="46.2011001" lon="13.5435436"><ele>1235.0</ele><time>2026-04-24T12:18:36.269Z</time></trkpt><trkpt lat="46.2010517" lon="13.5436309"><ele>1232.3333333333333</ele><time>2026-04-24T12:18:37.269Z</time></trkpt><trkpt lat="46.2009964" lon="13.5437111"><ele>1229.6666666666667</ele><time>2026-04-24T12:18:38.268Z</time></trkpt><trkpt lat="46.2009312" lon="13.5437744"><ele>1227.0</ele><time>2026-04-24T12:18:39.269Z</time></trkpt><trkpt lat="46.2008595" lon="13.5438005"><ele>1227.0</ele><time>2026-04-24T12:18:40.269Z</time></trkpt><trkpt lat="46.2007625" lon="13.5437718"><ele>1227.0</ele><time>2026-04-24T12:18:42.27Z</time></trkpt><trkpt lat="46.2007053" lon="13.5437086"><ele>1227.0</ele><time>2026-04-24T12:18:44.269Z</time></trkpt><trkpt lat="46.2007053" lon="13.5437086"><ele>1227.0</ele><time>2026-04-24T12:18:44.269Z</time></trkpt><trkpt lat="46.2007053" lon="13.5437086"><ele>1227.0</ele><time>2026-04-24T12:18:44.269Z</time></trkpt><trkpt lat="46.2007053" lon="13.5437086"><ele>1227.0</ele><time>2026-04-24T12:18:44.269Z</time></trkpt><trkpt lat="46.2006185" lon="13.5436359"><ele>1227.0</ele><time>2026-04-24T12:23:22.266Z</time></trkpt><trkpt lat="46.2005278" lon="13.5435474"><ele>1227.0</ele><time>2026-04-24T12:23:24.268Z</time></trkpt><trkpt lat="46.200475" lon="13.54348"><ele>1223.0</ele><time>2026-04-24T12:23:25.266Z</time></trkpt><trkpt lat="46.2004218" lon="13.5433917"><ele>1219.0</ele><time>2026-04-24T12:23:26.267Z</time></trkpt><trkpt lat="46.2003746" lon="13.5432812"><ele>1215.0</ele><time>2026-04-24T12:23:27.267Z</time></trkpt><trkpt lat="46.2003322" lon="13.5431461"><ele>1211.0</ele><time>2026-04-24T12:23:28.267Z</time></trkpt><trkpt lat="46.2002871" lon="13.5429751"><ele>1207.0</ele><time>2026-04-24T12:23:29.267Z</time></trkpt><trkpt lat="46.2002328" lon="13.542764"><ele>1206.3333333333333</ele><time>2026-04-24T12:23:30.266Z</time></trkpt><trkpt lat="46.2001771" lon="13.5425592"><ele>1205.6666666666667</ele><time>2026-04-24T12:23:31.266Z</time></trkpt><trkpt lat="46.2001224" lon="13.5423473"><ele>1205.0</ele><time>2026-04-24T12:23:32.267Z</time></trkpt><trkpt lat="46.2000724" lon="13.5421364"><ele>1205.5</ele><time>2026-04-24T12:23:33.267Z</time></trkpt><trkpt lat="46.2000179" lon="13.5419342"><ele>1206.0</ele><time>2026-04-24T12:23:34.266Z</time></trkpt><trkpt lat="46.1999589" lon="13.5417448"><ele>1206.5</ele><time>2026-04-24T12:23:35.266Z</time></trkpt><trkpt lat="46.1999001" lon="13.541577"><ele>1207.0</ele><time>2026-04-24T12:23:36.266Z</time></trkpt><trkpt lat="46.1998455" lon="13.5414253"><ele>1200.0</ele><time>2026-04-24T12:23:37.268Z</time></trkpt><trkpt lat="46.1998001" lon="13.5412757"><ele>1193.0</ele><time>2026-04-24T12:23:38.267Z</time></trkpt><trkpt lat="46.1997677" lon="13.5411171"><ele>1186.0</ele><time>2026-04-24T12:23:39.267Z</time></trkpt><trkpt lat="46.199749" lon="13.5409518"><ele>1179.0</ele><time>2026-04-24T12:23:40.266Z</time></trkpt><trkpt lat="46.1997462" lon="13.540773"><ele>1178.5</ele><time>2026-04-24T12:23:41.267Z</time></trkpt><trkpt lat="46.19976" lon="13.5405905"><ele>1178.0</ele><time>2026-04-24T12:23:42.267Z</time></trkpt><trkpt lat="46.1997896" lon="13.5403936"><ele>1177.5</ele><time>2026-04-24T12:23:43.267Z</time></trkpt><trkpt lat="46.1998215" lon="13.5401914"><ele>1177.0</ele><time>2026-04-24T12:23:44.267Z</time></trkpt><trkpt lat="46.1998465" lon="13.5399883"><ele>1174.5</ele><time>2026-04-24T12:23:45.266Z</time></trkpt><trkpt lat="46.1998623" lon="13.5397834"><ele>1172.0</ele><time>2026-04-24T12:23:46.267Z</time></trkpt><trkpt lat="46.1998645" lon="13.5395733"><ele>1169.5</ele><time>2026-04-24T12:23:47.266Z</time></trkpt><trkpt lat="46.1998515" lon="13.5393448"><ele>1167.0</ele><time>2026-04-24T12:23:48.267Z</time></trkpt><trkpt lat="46.1998285" lon="13.5391133"><ele>1167.0</ele><time>2026-04-24T12:23:49.267Z</time></trkpt><trkpt lat="46.1997906" lon="13.538867"><ele>1167.0</ele><time>2026-04-24T12:23:50.267Z</time></trkpt><trkpt lat="46.1997463" lon="13.5386184"><ele>1167.0</ele><time>2026-04-24T12:23:51.267Z</time></trkpt><trkpt lat="46.1997008" lon="13.5383601"><ele>1162.6666666666667</ele><time>2026-04-24T12:23:52.267Z</time></trkpt><trkpt lat="46.1996594" lon="13.5381043"><ele>1158.3333333333335</ele><time>2026-04-24T12:23:53.267Z</time></trkpt><trkpt lat="46.1996179" lon="13.5378529"><ele>1154.0</ele><time>2026-04-24T12:23:54.266Z</time></trkpt><trkpt lat="46.1995746" lon="13.5376012"><ele>1153.3333333333335</ele><time>2026-04-24T12:23:55.266Z</time></trkpt><trkpt lat="46.1995335" lon="13.5373536"><ele>1152.6666666666667</ele><time>2026-04-24T12:23:56.268Z</time></trkpt><trkpt lat="46.1995" lon="13.5371084"><ele>1152.0</ele><time>2026-04-24T12:23:57.267Z</time></trkpt><trkpt lat="46.1994707" lon="13.5368641"><ele>1151.3333333333333</ele><time>2026-04-24T12:23:58.266Z</time></trkpt><trkpt lat="46.1994486" lon="13.5366214"><ele>1150.6666666666665</ele><time>2026-04-24T12:23:59.267Z</time></trkpt><trkpt lat="46.1994418" lon="13.5363805"><ele>1150.0</ele><time>2026-04-24T12:24:00.266Z</time></trkpt><trkpt lat="46.199429" lon="13.5361308"><ele>1148.6666666666665</ele><time>2026-04-24T12:24:01.266Z</time></trkpt><trkpt lat="46.1994147" lon="13.5358748"><ele>1147.3333333333333</ele><time>2026-04-24T12:24:02.267Z</time></trkpt><trkpt lat="46.1994012" lon="13.5356101"><ele>1146.0</ele><time>2026-04-24T12:24:03.266Z</time></trkpt><trkpt lat="46.1993909" lon="13.5353417"><ele>1144.6666666666667</ele><time>2026-04-24T12:24:04.268Z</time></trkpt><trkpt lat="46.1993819" lon="13.5350771"><ele>1143.3333333333335</ele><time>2026-04-24T12:24:05.266Z</time></trkpt><trkpt lat="46.1993769" lon="13.5348145"><ele>1142.0</ele><time>2026-04-24T12:24:06.267Z</time></trkpt><trkpt lat="46.1993703" lon="13.5345564"><ele>1141.0</ele><time>2026-04-24T12:24:07.266Z</time></trkpt><trkpt lat="46.1993615" lon="13.5343051"><ele>1140.0</ele><time>2026-04-24T12:24:08.266Z</time></trkpt><trkpt lat="46.1993572" lon="13.5340575"><ele>1139.0</ele><time>2026-04-24T12:24:09.267Z</time></trkpt><trkpt lat="46.1993492" lon="13.5338133"><ele>1137.6666666666667</ele><time>2026-04-24T12:24:10.267Z</time></trkpt><trkpt lat="46.1993461" lon="13.5335764"><ele>1136.3333333333333</ele><time>2026-04-24T12:24:11.267Z</time></trkpt><trkpt lat="46.1993456" lon="13.5333511"><ele>1135.0</ele><time>2026-04-24T12:24:12.267Z</time></trkpt><trkpt lat="46.1993445" lon="13.5331498"><ele>1135.0</ele><time>2026-04-24T12:24:13.266Z</time></trkpt><trkpt lat="46.1993418" lon="13.532963"><ele>1135.0</ele><time>2026-04-24T12:24:14.266Z</time></trkpt><trkpt lat="46.1993373" lon="13.5327985"><ele>1135.0</ele><time>2026-04-24T12:24:15.267Z</time></trkpt><trkpt lat="46.1993341" lon="13.5326474"><ele>1135.0</ele><time>2026-04-24T12:24:16.266Z</time></trkpt><trkpt lat="46.1993293" lon="13.5325082"><ele>1135.0</ele><time>2026-04-24T12:24:17.267Z</time></trkpt><trkpt lat="46.1993201" lon="13.5323918"><ele>1134.6666666666665</ele><time>2026-04-24T12:24:18.265Z</time></trkpt><trkpt lat="46.1992989" lon="13.5322976"><ele>1134.3333333333333</ele><time>2026-04-24T12:24:19.266Z</time></trkpt><trkpt lat="46.1992575" lon="13.5322243"><ele>1134.0</ele><time>2026-04-24T12:24:20.265Z</time></trkpt><trkpt lat="46.1991977" lon="13.5321622"><ele>1133.6666666666667</ele><time>2026-04-24T12:24:21.266Z</time></trkpt><trkpt lat="46.1991353" lon="13.5321217"><ele>1133.3333333333335</ele><time>2026-04-24T12:24:22.265Z</time></trkpt><trkpt lat="46.1990472" lon="13.5321542"><ele>1133.0</ele><time>2026-04-24T12:24:23.267Z</time></trkpt><trkpt lat="46.1989591" lon="13.5321766"><ele>1129.0</ele><time>2026-04-24T12:24:24.266Z</time></trkpt><trkpt lat="46.1988709" lon="13.5321996"><ele>1125.0</ele><time>2026-04-24T12:24:25.267Z</time></trkpt><trkpt lat="46.1987869" lon="13.532245"><ele>1121.0</ele><time>2026-04-24T12:24:26.266Z</time></trkpt><trkpt lat="46.1987157" lon="13.5323151"><ele>1117.0</ele><time>2026-04-24T12:24:27.266Z</time></trkpt><trkpt lat="46.1986588" lon="13.5323933"><ele>1113.0</ele><time>2026-04-24T12:24:28.266Z</time></trkpt><trkpt lat="46.198634" lon="13.5325324"><ele>1109.0</ele><time>2026-04-24T12:24:29.266Z</time></trkpt><trkpt lat="46.1986059" lon="13.5326682"><ele>1109.0</ele><time>2026-04-24T12:24:30.266Z</time></trkpt><trkpt lat="46.1985937" lon="13.5328728"><ele>1109.0</ele><time>2026-04-24T12:24:31.266Z</time></trkpt><trkpt lat="46.1985733" lon="13.5330387"><ele>1109.0</ele><time>2026-04-24T12:24:32.266Z</time></trkpt><trkpt lat="46.1985545" lon="13.5332102"><ele>1109.0</ele><time>2026-04-24T12:24:33.267Z</time></trkpt><trkpt lat="46.1985399" lon="13.533381"><ele>1109.5</ele><time>2026-04-24T12:24:34.265Z</time></trkpt><trkpt lat="46.198523" lon="13.5335381"><ele>1110.0</ele><time>2026-04-24T12:24:35.266Z</time></trkpt><trkpt lat="46.1985081" lon="13.5337095"><ele>1110.5</ele><time>2026-04-24T12:24:36.267Z</time></trkpt><trkpt lat="46.1984868" lon="13.533866"><ele>1111.0</ele><time>2026-04-24T12:24:37.266Z</time></trkpt><trkpt lat="46.1984666" lon="13.534023"><ele>1110.2</ele><time>2026-04-24T12:24:38.266Z</time></trkpt><trkpt lat="46.1984488" lon="13.5341742"><ele>1109.3999999999999</ele><time>2026-04-24T12:24:39.266Z</time></trkpt><trkpt lat="46.1984308" lon="13.534325"><ele>1108.6</ele><time>2026-04-24T12:24:40.267Z</time></trkpt><trkpt lat="46.1984151" lon="13.5344729"><ele>1107.8</ele><time>2026-04-24T12:24:41.266Z</time></trkpt><trkpt lat="46.1983954" lon="13.5346179"><ele>1107.0</ele><time>2026-04-24T12:24:42.267Z</time></trkpt><trkpt lat="46.1983786" lon="13.5347611"><ele>1107.2</ele><time>2026-04-24T12:24:43.265Z</time></trkpt><trkpt lat="46.1983648" lon="13.5349064"><ele>1107.4</ele><time>2026-04-24T12:24:44.267Z</time></trkpt><trkpt lat="46.1983532" lon="13.5350487"><ele>1107.6</ele><time>2026-04-24T12:24:45.267Z</time></trkpt><trkpt lat="46.1983398" lon="13.5351884"><ele>1107.8</ele><time>2026-04-24T12:24:46.265Z</time></trkpt><trkpt lat="46.1983279" lon="13.5353291"><ele>1108.0</ele><time>2026-04-24T12:24:47.265Z</time></trkpt><trkpt lat="46.1983147" lon="13.5354642"><ele>1108.0</ele><time>2026-04-24T12:24:48.266Z</time></trkpt><trkpt lat="46.198304" lon="13.5356001"><ele>1108.0</ele><time>2026-04-24T12:24:49.266Z</time></trkpt><trkpt lat="46.1982887" lon="13.5357328"><ele>1108.0</ele><time>2026-04-24T12:24:50.266Z</time></trkpt><trkpt lat="46.1982745" lon="13.5358634"><ele>1108.0</ele><time>2026-04-24T12:24:51.266Z</time></trkpt><trkpt lat="46.1982578" lon="13.5359881"><ele>1108.0</ele><time>2026-04-24T12:24:52.266Z</time></trkpt><trkpt lat="46.1982329" lon="13.5361055"><ele>1108.0</ele><time>2026-04-24T12:24:53.267Z</time></trkpt><trkpt lat="46.1982071" lon="13.5361985"><ele>1108.0</ele><time>2026-04-24T12:24:54.267Z</time></trkpt><trkpt lat="46.198105" lon="13.5362714"><ele>1108.0</ele><time>2026-04-24T12:24:56.265Z</time></trkpt><trkpt lat="46.1980475" lon="13.5362287"><ele>1108.0</ele><time>2026-04-24T12:24:57.265Z</time></trkpt><trkpt lat="46.1980084" lon="13.5361457"><ele>1108.0</ele><time>2026-04-24T12:24:58.267Z</time></trkpt><trkpt lat="46.1979847" lon="13.5360259"><ele>1108.0</ele><time>2026-04-24T12:24:59.266Z</time></trkpt><trkpt lat="46.1979619" lon="13.5358872"><ele>1102.5</ele><time>2026-04-24T12:25:00.266Z</time></trkpt><trkpt lat="46.1979384" lon="13.5357281"><ele>1097.0</ele><time>2026-04-24T12:25:01.266Z</time></trkpt><trkpt lat="46.1979021" lon="13.5355357"><ele>1091.5</ele><time>2026-04-24T12:25:02.266Z</time></trkpt><trkpt lat="46.1978663" lon="13.5353574"><ele>1086.0</ele><time>2026-04-24T12:25:03.267Z</time></trkpt><trkpt lat="46.1978218" lon="13.5351641"><ele>1086.0</ele><time>2026-04-24T12:25:04.266Z</time></trkpt><trkpt lat="46.1977938" lon="13.5349913"><ele>1086.0</ele><time>2026-04-24T12:25:05.266Z</time></trkpt><trkpt lat="46.1977737" lon="13.5348342"><ele>1086.0</ele><time>2026-04-24T12:25:06.265Z</time></trkpt><trkpt lat="46.1977395" lon="13.5347172"><ele>1086.0</ele><time>2026-04-24T12:25:07.266Z</time></trkpt><trkpt lat="46.1976843" lon="13.5346332"><ele>1086.0</ele><time>2026-04-24T12:25:08.265Z</time></trkpt><trkpt lat="46.1976087" lon="13.5345891"><ele>1086.0</ele><time>2026-04-24T12:25:09.267Z</time></trkpt><trkpt lat="46.1975175" lon="13.534601"><ele>1086.0</ele><time>2026-04-24T12:25:10.266Z</time></trkpt><trkpt lat="46.1974108" lon="13.5346408"><ele>1086.0</ele><time>2026-04-24T12:25:11.266Z</time></trkpt><trkpt lat="46.197299" lon="13.534682"><ele>1086.0</ele><time>2026-04-24T12:25:12.265Z</time></trkpt><trkpt lat="46.1971829" lon="13.5347082"><ele>1086.0</ele><time>2026-04-24T12:25:13.267Z</time></trkpt><trkpt lat="46.1970771" lon="13.534713"><ele>1083.0</ele><time>2026-04-24T12:25:14.267Z</time></trkpt><trkpt lat="46.196981" lon="13.5347112"><ele>1080.0</ele><time>2026-04-24T12:25:15.266Z</time></trkpt><trkpt lat="46.196915" lon="13.5346212"><ele>1077.0</ele><time>2026-04-24T12:25:16.266Z</time></trkpt><trkpt lat="46.1968614" lon="13.5345346"><ele>1074.0</ele><time>2026-04-24T12:25:17.266Z</time></trkpt><trkpt lat="46.1968257" lon="13.5344084"><ele>1071.0</ele><time>2026-04-24T12:25:18.265Z</time></trkpt><trkpt lat="46.1967985" lon="13.534273"><ele>1070.0</ele><time>2026-04-24T12:25:19.267Z</time></trkpt><trkpt lat="46.1968264" lon="13.5341023"><ele>1069.0</ele><time>2026-04-24T12:25:20.266Z</time></trkpt><trkpt lat="46.196862" lon="13.5339405"><ele>1068.0</ele><time>2026-04-24T12:25:21.266Z</time></trkpt><trkpt lat="46.1969007" lon="13.5337634"><ele>1067.0</ele><time>2026-04-24T12:25:22.266Z</time></trkpt><trkpt lat="46.1969404" lon="13.5335817"><ele>1064.5</ele><time>2026-04-24T12:25:23.267Z</time></trkpt><trkpt lat="46.1969797" lon="13.5334057"><ele>1062.0</ele><time>2026-04-24T12:25:24.266Z</time></trkpt><trkpt lat="46.1970172" lon="13.5332387"><ele>1059.5</ele><time>2026-04-24T12:25:25.265Z</time></trkpt><trkpt lat="46.1970448" lon="13.533068"><ele>1057.0</ele><time>2026-04-24T12:25:26.266Z</time></trkpt><trkpt lat="46.197042" lon="13.532893"><ele>1055.0</ele><time>2026-04-24T12:25:27.265Z</time></trkpt><trkpt lat="46.1970153" lon="13.5327238"><ele>1053.0</ele><time>2026-04-24T12:25:28.266Z</time></trkpt><trkpt lat="46.1969693" lon="13.5325646"><ele>1051.0</ele><time>2026-04-24T12:25:29.265Z</time></trkpt><trkpt lat="46.1969225" lon="13.5324206"><ele>1049.0</ele><time>2026-04-24T12:25:30.266Z</time></trkpt><trkpt lat="46.1969024" lon="13.532273"><ele>1049.0</ele><time>2026-04-24T12:25:31.267Z</time></trkpt><trkpt lat="46.1969074" lon="13.5321223"><ele>1049.0</ele><time>2026-04-24T12:25:32.266Z</time></trkpt><trkpt lat="46.1969388" lon="13.5319603"><ele>1049.0</ele><time>2026-04-24T12:25:33.266Z</time></trkpt><trkpt lat="46.1969911" lon="13.5318093"><ele>1049.0</ele><time>2026-04-24T12:25:34.266Z</time></trkpt><trkpt lat="46.1970438" lon="13.5316486"><ele>1047.25</ele><time>2026-04-24T12:25:35.267Z</time></trkpt><trkpt lat="46.1970915" lon="13.5314855"><ele>1045.5</ele><time>2026-04-24T12:25:36.265Z</time></trkpt><trkpt lat="46.1971291" lon="13.5313262"><ele>1043.75</ele><time>2026-04-24T12:25:37.266Z</time></trkpt><trkpt lat="46.1971297" lon="13.5311534"><ele>1042.0</ele><time>2026-04-24T12:25:38.266Z</time></trkpt><trkpt lat="46.1971065" lon="13.5309786"><ele>1041.75</ele><time>2026-04-24T12:25:39.266Z</time></trkpt><trkpt lat="46.1970623" lon="13.5307876"><ele>1041.5</ele><time>2026-04-24T12:25:40.265Z</time></trkpt><trkpt lat="46.1970272" lon="13.5306017"><ele>1041.25</ele><time>2026-04-24T12:25:41.265Z</time></trkpt><trkpt lat="46.1970036" lon="13.5304093"><ele>1041.0</ele><time>2026-04-24T12:25:42.265Z</time></trkpt><trkpt lat="46.1969818" lon="13.5302296"><ele>1039.0</ele><time>2026-04-24T12:25:43.266Z</time></trkpt><trkpt lat="46.1969731" lon="13.5300656"><ele>1037.0</ele><time>2026-04-24T12:25:44.266Z</time></trkpt><trkpt lat="46.1969856" lon="13.5299118"><ele>1035.0</ele><time>2026-04-24T12:25:45.266Z</time></trkpt><trkpt lat="46.1970251" lon="13.5297504"><ele>1033.0</ele><time>2026-04-24T12:25:46.267Z</time></trkpt><trkpt lat="46.19709" lon="13.5296048"><ele>1030.0</ele><time>2026-04-24T12:25:47.267Z</time></trkpt><trkpt lat="46.19715" lon="13.5294601"><ele>1027.0</ele><time>2026-04-24T12:25:48.267Z</time></trkpt><trkpt lat="46.1971911" lon="13.5293072"><ele>1024.0</ele><time>2026-04-24T12:25:49.267Z</time></trkpt><trkpt lat="46.1972032" lon="13.5291381"><ele>1021.0</ele><time>2026-04-24T12:25:50.267Z</time></trkpt><trkpt lat="46.1971969" lon="13.5289718"><ele>1021.0</ele><time>2026-04-24T12:25:51.265Z</time></trkpt><trkpt lat="46.1971739" lon="13.5288064"><ele>1021.0</ele><time>2026-04-24T12:25:52.265Z</time></trkpt><trkpt lat="46.1971667" lon="13.5286252"><ele>1021.0</ele><time>2026-04-24T12:25:53.265Z</time></trkpt><trkpt lat="46.1971723" lon="13.5284533"><ele>1021.0</ele><time>2026-04-24T12:25:54.265Z</time></trkpt><trkpt lat="46.1971905" lon="13.5282901"><ele>1019.5</ele><time>2026-04-24T12:25:55.265Z</time></trkpt><trkpt lat="46.1972374" lon="13.5280942"><ele>1018.0</ele><time>2026-04-24T12:25:56.266Z</time></trkpt><trkpt lat="46.1972744" lon="13.527937"><ele>1016.5</ele><time>2026-04-24T12:25:57.265Z</time></trkpt><trkpt lat="46.1973208" lon="13.5277816"><ele>1015.0</ele><time>2026-04-24T12:25:58.265Z</time></trkpt><trkpt lat="46.1973585" lon="13.5276271"><ele>1014.8</ele><time>2026-04-24T12:25:59.266Z</time></trkpt><trkpt lat="46.1974134" lon="13.5274864"><ele>1014.6</ele><time>2026-04-24T12:26:00.267Z</time></trkpt><trkpt lat="46.197421" lon="13.5273657"><ele>1014.4000000000001</ele><time>2026-04-24T12:26:01.266Z</time></trkpt><trkpt lat="46.1974338" lon="13.5272276"><ele>1014.2</ele><time>2026-04-24T12:26:02.266Z</time></trkpt><trkpt lat="46.1973595" lon="13.52712"><ele>1014.0</ele><time>2026-04-24T12:26:03.266Z</time></trkpt><trkpt lat="46.1972901" lon="13.527035"><ele>1014.0</ele><time>2026-04-24T12:26:04.266Z</time></trkpt><trkpt lat="46.1972062" lon="13.5269844"><ele>1014.0000000000001</ele><time>2026-04-24T12:26:05.266Z</time></trkpt><trkpt lat="46.1971192" lon="13.5269522"><ele>1014.0000000000001</ele><time>2026-04-24T12:26:06.267Z</time></trkpt><trkpt lat="46.1970217" lon="13.5269247"><ele>1014.0</ele><time>2026-04-24T12:26:07.266Z</time></trkpt><trkpt lat="46.1969142" lon="13.5268953"><ele>1014.0</ele><time>2026-04-24T12:26:08.266Z</time></trkpt><trkpt lat="46.1968017" lon="13.5268661"><ele>1014.0</ele><time>2026-04-24T12:26:09.265Z</time></trkpt><trkpt lat="46.1966921" lon="13.5269535"><ele>1014.0</ele><time>2026-04-24T12:26:10.266Z</time></trkpt><trkpt lat="46.1965973" lon="13.5270419"><ele>1014.0</ele><time>2026-04-24T12:26:11.266Z</time></trkpt><trkpt lat="46.196495" lon="13.5271739"><ele>1014.0</ele><time>2026-04-24T12:26:12.266Z</time></trkpt><trkpt lat="46.1963955" lon="13.5272805"><ele>1009.6</ele><time>2026-04-24T12:26:13.266Z</time></trkpt><trkpt lat="46.1963112" lon="13.5273962"><ele>1005.2</ele><time>2026-04-24T12:26:14.265Z</time></trkpt><trkpt lat="46.1962505" lon="13.5275064"><ele>1000.8000000000001</ele><time>2026-04-24T12:26:15.265Z</time></trkpt><trkpt lat="46.1961944" lon="13.5276115"><ele>996.4000000000001</ele><time>2026-04-24T12:26:16.267Z</time></trkpt><trkpt lat="46.1961791" lon="13.5277442"><ele>992.0</ele><time>2026-04-24T12:26:17.267Z</time></trkpt><trkpt lat="46.1961679" lon="13.5278811"><ele>991.0</ele><time>2026-04-24T12:26:18.266Z</time></trkpt><trkpt lat="46.1961954" lon="13.5280244"><ele>990.0</ele><time>2026-04-24T12:26:19.265Z</time></trkpt><trkpt lat="46.1962226" lon="13.5281708"><ele>989.0</ele><time>2026-04-24T12:26:20.266Z</time></trkpt><trkpt lat="46.1962428" lon="13.5283268"><ele>988.0</ele><time>2026-04-24T12:26:21.265Z</time></trkpt><trkpt lat="46.196261" lon="13.528476"><ele>987.0</ele><time>2026-04-24T12:26:22.266Z</time></trkpt><trkpt lat="46.1962689" lon="13.5286189"><ele>987.0</ele><time>2026-04-24T12:26:23.266Z</time></trkpt><trkpt lat="46.196254" lon="13.5287574"><ele>987.0</ele><time>2026-04-24T12:26:24.265Z</time></trkpt><trkpt lat="46.1962111" lon="13.5288981"><ele>987.0</ele><time>2026-04-24T12:26:25.265Z</time></trkpt><trkpt lat="46.1961459" lon="13.5290322"><ele>987.0</ele><time>2026-04-24T12:26:26.267Z</time></trkpt><trkpt lat="46.1960789" lon="13.5291862"><ele>987.0</ele><time>2026-04-24T12:26:27.266Z</time></trkpt><trkpt lat="46.1959869" lon="13.529328"><ele>987.0</ele><time>2026-04-24T12:26:28.267Z</time></trkpt><trkpt lat="46.1959016" lon="13.5294806"><ele>987.0</ele><time>2026-04-24T12:26:29.266Z</time></trkpt><trkpt lat="46.195814" lon="13.5296386"><ele>987.0</ele><time>2026-04-24T12:26:30.265Z</time></trkpt><trkpt lat="46.1957404" lon="13.529813"><ele>987.0</ele><time>2026-04-24T12:26:31.265Z</time></trkpt><trkpt lat="46.1956578" lon="13.52999"><ele>981.75</ele><time>2026-04-24T12:26:32.266Z</time></trkpt><trkpt lat="46.1955766" lon="13.5301612"><ele>976.5</ele><time>2026-04-24T12:26:33.266Z</time></trkpt><trkpt lat="46.1955101" lon="13.5303553"><ele>971.25</ele><time>2026-04-24T12:26:34.266Z</time></trkpt><trkpt lat="46.1954573" lon="13.5305473"><ele>966.0</ele><time>2026-04-24T12:26:35.266Z</time></trkpt><trkpt lat="46.1954033" lon="13.5307604"><ele>966.0</ele><time>2026-04-24T12:26:36.266Z</time></trkpt><trkpt lat="46.195375" lon="13.5309882"><ele>966.0</ele><time>2026-04-24T12:26:37.265Z</time></trkpt><trkpt lat="46.1953466" lon="13.5312186"><ele>966.0</ele><time>2026-04-24T12:26:38.266Z</time></trkpt><trkpt lat="46.1953245" lon="13.5314398"><ele>967.0</ele><time>2026-04-24T12:26:39.266Z</time></trkpt><trkpt lat="46.1953031" lon="13.5316601"><ele>968.0</ele><time>2026-04-24T12:26:40.265Z</time></trkpt><trkpt lat="46.1952682" lon="13.5318684"><ele>969.0</ele><time>2026-04-24T12:26:41.266Z</time></trkpt><trkpt lat="46.1952094" lon="13.5320729"><ele>969.3333333333333</ele><time>2026-04-24T12:26:42.267Z</time></trkpt><trkpt lat="46.1951347" lon="13.5322803"><ele>969.6666666666666</ele><time>2026-04-24T12:26:43.265Z</time></trkpt><trkpt lat="46.1950407" lon="13.5324717"><ele>970.0</ele><time>2026-04-24T12:26:44.266Z</time></trkpt><trkpt lat="46.1949479" lon="13.5326595"><ele>970.0</ele><time>2026-04-24T12:26:45.266Z</time></trkpt><trkpt lat="46.1948577" lon="13.5328415"><ele>970.0</ele><time>2026-04-24T12:26:46.265Z</time></trkpt><trkpt lat="46.1947688" lon="13.533016"><ele>970.0</ele><time>2026-04-24T12:26:47.265Z</time></trkpt><trkpt lat="46.1946827" lon="13.5331765"><ele>970.0</ele><time>2026-04-24T12:26:48.266Z</time></trkpt><trkpt lat="46.1945812" lon="13.5333215"><ele>965.0</ele><time>2026-04-24T12:26:49.266Z</time></trkpt><trkpt lat="46.1944718" lon="13.5334361"><ele>960.0</ele><time>2026-04-24T12:26:50.266Z</time></trkpt><trkpt lat="46.1943667" lon="13.5335219"><ele>955.0</ele><time>2026-04-24T12:26:51.266Z</time></trkpt><trkpt lat="46.1942558" lon="13.5335992"><ele>950.0</ele><time>2026-04-24T12:26:52.267Z</time></trkpt><trkpt lat="46.1941387" lon="13.533676"><ele>953.25</ele><time>2026-04-24T12:26:53.266Z</time></trkpt><trkpt lat="46.1940223" lon="13.533757"><ele>956.5</ele><time>2026-04-24T12:26:54.266Z</time></trkpt><trkpt lat="46.193904" lon="13.5338386"><ele>959.75</ele><time>2026-04-24T12:26:55.266Z</time></trkpt><trkpt lat="46.193785" lon="13.5339233"><ele>963.0</ele><time>2026-04-24T12:26:56.266Z</time></trkpt><trkpt lat="46.1936758" lon="13.5340158"><ele>957.0</ele><time>2026-04-24T12:26:57.265Z</time></trkpt><trkpt lat="46.1935698" lon="13.5341329"><ele>951.0</ele><time>2026-04-24T12:26:58.266Z</time></trkpt><trkpt lat="46.1934741" lon="13.534272"><ele>945.0</ele><time>2026-04-24T12:26:59.265Z</time></trkpt><trkpt lat="46.1933841" lon="13.534416"><ele>939.0</ele><time>2026-04-24T12:27:00.266Z</time></trkpt><trkpt lat="46.1932929" lon="13.5345645"><ele>939.0</ele><time>2026-04-24T12:27:01.265Z</time></trkpt><trkpt lat="46.1932045" lon="13.5347111"><ele>939.0</ele><time>2026-04-24T12:27:02.265Z</time></trkpt><trkpt lat="46.1931307" lon="13.5348577"><ele>939.0</ele><time>2026-04-24T12:27:03.267Z</time></trkpt><trkpt lat="46.1930694" lon="13.5350218"><ele>939.0</ele><time>2026-04-24T12:27:04.266Z</time></trkpt><trkpt lat="46.1930256" lon="13.5351927"><ele>930.5</ele><time>2026-04-24T12:27:05.265Z</time></trkpt><trkpt lat="46.193004" lon="13.5353761"><ele>922.0</ele><time>2026-04-24T12:27:06.266Z</time></trkpt><trkpt lat="46.1929955" lon="13.5355728"><ele>913.5</ele><time>2026-04-24T12:27:07.267Z</time></trkpt><trkpt lat="46.1929886" lon="13.5357705"><ele>905.0</ele><time>2026-04-24T12:27:08.265Z</time></trkpt><trkpt lat="46.1929808" lon="13.5359638"><ele>905.0</ele><time>2026-04-24T12:27:09.267Z</time></trkpt><trkpt lat="46.1929596" lon="13.5361413"><ele>905.0</ele><time>2026-04-24T12:27:10.265Z</time></trkpt><trkpt lat="46.1929167" lon="13.5363083"><ele>905.0</ele><time>2026-04-24T12:27:11.267Z</time></trkpt><trkpt lat="46.192864" lon="13.5364709"><ele>905.0</ele><time>2026-04-24T12:27:12.267Z</time></trkpt><trkpt lat="46.192788" lon="13.5366267"><ele>906.5</ele><time>2026-04-24T12:27:13.265Z</time></trkpt><trkpt lat="46.1926931" lon="13.5367869"><ele>908.0</ele><time>2026-04-24T12:27:14.267Z</time></trkpt><trkpt lat="46.1926097" lon="13.53697"><ele>909.5</ele><time>2026-04-24T12:27:15.266Z</time></trkpt><trkpt lat="46.1925597" lon="13.5371453"><ele>911.0</ele><time>2026-04-24T12:27:16.266Z</time></trkpt><trkpt lat="46.1925073" lon="13.5373278"><ele>911.0</ele><time>2026-04-24T12:27:17.265Z</time></trkpt><trkpt lat="46.1924765" lon="13.5375202"><ele>911.0</ele><time>2026-04-24T12:27:18.267Z</time></trkpt><trkpt lat="46.1924602" lon="13.5377394"><ele>911.0</ele><time>2026-04-24T12:27:19.267Z</time></trkpt><trkpt lat="46.1924712" lon="13.5379591"><ele>911.0</ele><time>2026-04-24T12:27:20.266Z</time></trkpt><trkpt lat="46.1924867" lon="13.5381883"><ele>911.0</ele><time>2026-04-24T12:27:21.267Z</time></trkpt><trkpt lat="46.1925063" lon="13.5384258"><ele>911.0</ele><time>2026-04-24T12:27:22.265Z</time></trkpt><trkpt lat="46.1925387" lon="13.5386453"><ele>911.0</ele><time>2026-04-24T12:27:23.265Z</time></trkpt><trkpt lat="46.1925665" lon="13.5388647"><ele>910.5</ele><time>2026-04-24T12:27:24.265Z</time></trkpt><trkpt lat="46.1925958" lon="13.5390634"><ele>910.0</ele><time>2026-04-24T12:27:25.265Z</time></trkpt><trkpt lat="46.1926146" lon="13.5392319"><ele>909.5</ele><time>2026-04-24T12:27:26.265Z</time></trkpt><trkpt lat="46.1926259" lon="13.5393902"><ele>909.0</ele><time>2026-04-24T12:27:27.264Z</time></trkpt><trkpt lat="46.1926128" lon="13.5395431"><ele>907.2</ele><time>2026-04-24T12:27:28.266Z</time></trkpt><trkpt lat="46.1925746" lon="13.5396879"><ele>905.4000000000001</ele><time>2026-04-24T12:27:29.265Z</time></trkpt><trkpt lat="46.192534" lon="13.5398224"><ele>903.6</ele><time>2026-04-24T12:27:30.265Z</time></trkpt><trkpt lat="46.1925301" lon="13.5399511"><ele>901.8</ele><time>2026-04-24T12:27:31.265Z</time></trkpt><trkpt lat="46.1925383" lon="13.5401076"><ele>900.0</ele><time>2026-04-24T12:27:32.265Z</time></trkpt><trkpt lat="46.1925986" lon="13.5402759"><ele>898.75</ele><time>2026-04-24T12:27:33.265Z</time></trkpt><trkpt lat="46.1926346" lon="13.5404439"><ele>897.5</ele><time>2026-04-24T12:27:34.265Z</time></trkpt><trkpt lat="46.1926761" lon="13.5406017"><ele>896.25</ele><time>2026-04-24T12:27:35.265Z</time></trkpt><trkpt lat="46.1927274" lon="13.5407949"><ele>895.0</ele><time>2026-04-24T12:27:36.265Z</time></trkpt><trkpt lat="46.1927716" lon="13.5409831"><ele>895.0</ele><time>2026-04-24T12:27:37.265Z</time></trkpt><trkpt lat="46.1928166" lon="13.541159"><ele>895.0</ele><time>2026-04-24T12:27:38.265Z</time></trkpt><trkpt lat="46.1928422" lon="13.541326"><ele>895.0</ele><time>2026-04-24T12:27:39.265Z</time></trkpt><trkpt lat="46.1928715" lon="13.5414919"><ele>895.0</ele><time>2026-04-24T12:27:40.265Z</time></trkpt><trkpt lat="46.1928215" lon="13.5416055"><ele>893.4</ele><time>2026-04-24T12:27:41.265Z</time></trkpt><trkpt lat="46.1927644" lon="13.5416927"><ele>891.8</ele><time>2026-04-24T12:27:42.265Z</time></trkpt><trkpt lat="46.1926892" lon="13.5417688"><ele>890.2</ele><time>2026-04-24T12:27:43.266Z</time></trkpt><trkpt lat="46.1926065" lon="13.5418228"><ele>888.6</ele><time>2026-04-24T12:27:44.264Z</time></trkpt><trkpt lat="46.1925334" lon="13.5419048"><ele>887.0</ele><time>2026-04-24T12:27:45.265Z</time></trkpt><trkpt lat="46.1924716" lon="13.5420129"><ele>886.0</ele><time>2026-04-24T12:27:46.266Z</time></trkpt><trkpt lat="46.1924377" lon="13.5421477"><ele>885.0</ele><time>2026-04-24T12:27:47.265Z</time></trkpt><trkpt lat="46.192434" lon="13.5422927"><ele>884.0</ele><time>2026-04-24T12:27:48.265Z</time></trkpt><trkpt lat="46.1924242" lon="13.542456"><ele>883.0</ele><time>2026-04-24T12:27:49.266Z</time></trkpt><trkpt lat="46.1924878" lon="13.5426342"><ele>883.0</ele><time>2026-04-24T12:27:50.265Z</time></trkpt><trkpt lat="46.1925107" lon="13.5428143"><ele>883.0</ele><time>2026-04-24T12:27:51.265Z</time></trkpt><trkpt lat="46.1925244" lon="13.5430054"><ele>883.0</ele><time>2026-04-24T12:27:52.264Z</time></trkpt><trkpt lat="46.1925429" lon="13.5431915"><ele>883.0</ele><time>2026-04-24T12:27:53.265Z</time></trkpt><trkpt lat="46.1925504" lon="13.5433744"><ele>883.5</ele><time>2026-04-24T12:27:54.266Z</time></trkpt><trkpt lat="46.1925533" lon="13.5435544"><ele>884.0</ele><time>2026-04-24T12:27:55.264Z</time></trkpt><trkpt lat="46.1925576" lon="13.5437362"><ele>884.5</ele><time>2026-04-24T12:27:56.266Z</time></trkpt><trkpt lat="46.1925559" lon="13.543902"><ele>885.0</ele><time>2026-04-24T12:27:57.265Z</time></trkpt><trkpt lat="46.1925556" lon="13.5440368"><ele>885.1666666666666</ele><time>2026-04-24T12:27:58.265Z</time></trkpt><trkpt lat="46.1925147" lon="13.544143"><ele>885.3333333333333</ele><time>2026-04-24T12:27:59.264Z</time></trkpt><trkpt lat="46.1924567" lon="13.5442186"><ele>885.5</ele><time>2026-04-24T12:28:00.266Z</time></trkpt><trkpt lat="46.1923794" lon="13.5442676"><ele>885.6666666666666</ele><time>2026-04-24T12:28:01.265Z</time></trkpt><trkpt lat="46.1922831" lon="13.5442763"><ele>885.8333333333333</ele><time>2026-04-24T12:28:02.266Z</time></trkpt><trkpt lat="46.1921806" lon="13.5442691"><ele>886.0</ele><time>2026-04-24T12:28:03.264Z</time></trkpt><trkpt lat="46.1920894" lon="13.5442849"><ele>879.4</ele><time>2026-04-24T12:28:04.266Z</time></trkpt><trkpt lat="46.192" lon="13.5443229"><ele>872.8</ele><time>2026-04-24T12:28:05.265Z</time></trkpt><trkpt lat="46.1919401" lon="13.5444077"><ele>866.1999999999999</ele><time>2026-04-24T12:28:06.265Z</time></trkpt><trkpt lat="46.1918634" lon="13.544492"><ele>859.5999999999999</ele><time>2026-04-24T12:28:07.266Z</time></trkpt><trkpt lat="46.1918433" lon="13.5446404"><ele>853.0</ele><time>2026-04-24T12:28:08.266Z</time></trkpt><trkpt lat="46.191795" lon="13.5447681"><ele>853.0</ele><time>2026-04-24T12:28:09.264Z</time></trkpt><trkpt lat="46.1918482" lon="13.5449765"><ele>853.0</ele><time>2026-04-24T12:28:10.266Z</time></trkpt><trkpt lat="46.1918528" lon="13.5451285"><ele>853.0</ele><time>2026-04-24T12:28:11.265Z</time></trkpt><trkpt lat="46.1918982" lon="13.5453369"><ele>853.0</ele><time>2026-04-24T12:28:12.265Z</time></trkpt><trkpt lat="46.1919696" lon="13.545523"><ele>853.0</ele><time>2026-04-24T12:28:13.265Z</time></trkpt><trkpt lat="46.1920185" lon="13.5457081"><ele>853.0</ele><time>2026-04-24T12:28:14.265Z</time></trkpt><trkpt lat="46.1920544" lon="13.5458928"><ele>853.0</ele><time>2026-04-24T12:28:15.265Z</time></trkpt><trkpt lat="46.1920839" lon="13.5460748"><ele>853.0</ele><time>2026-04-24T12:28:16.266Z</time></trkpt><trkpt lat="46.1920878" lon="13.5462509"><ele>852.4</ele><time>2026-04-24T12:28:17.265Z</time></trkpt><trkpt lat="46.1920785" lon="13.5464165"><ele>851.8</ele><time>2026-04-24T12:28:18.265Z</time></trkpt><trkpt lat="46.192069" lon="13.5465851"><ele>851.2</ele><time>2026-04-24T12:28:19.265Z</time></trkpt><trkpt lat="46.1920699" lon="13.5467296"><ele>850.6</ele><time>2026-04-24T12:28:20.264Z</time></trkpt><trkpt lat="46.1920791" lon="13.5468523"><ele>850.0</ele><time>2026-04-24T12:28:21.265Z</time></trkpt><trkpt lat="46.1921094" lon="13.5469672"><ele>848.6</ele><time>2026-04-24T12:28:22.265Z</time></trkpt><trkpt lat="46.1921541" lon="13.5470797"><ele>847.2</ele><time>2026-04-24T12:28:23.265Z</time></trkpt><trkpt lat="46.1922452" lon="13.5471693"><ele>845.8</ele><time>2026-04-24T12:28:24.265Z</time></trkpt><trkpt lat="46.1923426" lon="13.5472641"><ele>844.4</ele><time>2026-04-24T12:28:25.265Z</time></trkpt><trkpt lat="46.1924451" lon="13.5473468"><ele>843.0</ele><time>2026-04-24T12:28:26.264Z</time></trkpt><trkpt lat="46.192543" lon="13.547431"><ele>845.8571428571429</ele><time>2026-04-24T12:28:27.266Z</time></trkpt><trkpt lat="46.1926212" lon="13.5475025"><ele>848.7142857142857</ele><time>2026-04-24T12:28:28.266Z</time></trkpt><trkpt lat="46.1926884" lon="13.5475734"><ele>851.5714285714287</ele><time>2026-04-24T12:28:29.265Z</time></trkpt><trkpt lat="46.192731" lon="13.5476472"><ele>854.4285714285714</ele><time>2026-04-24T12:28:30.264Z</time></trkpt><trkpt lat="46.1927222" lon="13.5477393"><ele>857.2857142857143</ele><time>2026-04-24T12:28:31.265Z</time></trkpt><trkpt lat="46.192689" lon="13.5478229"><ele>860.1428571428572</ele><time>2026-04-24T12:28:32.265Z</time></trkpt><trkpt lat="46.1926391" lon="13.5478997"><ele>863.0</ele><time>2026-04-24T12:28:33.265Z</time></trkpt><trkpt lat="46.1925672" lon="13.5479831"><ele>865.5</ele><time>2026-04-24T12:28:34.266Z</time></trkpt><trkpt lat="46.1924166" lon="13.5480095"><ele>868.0</ele><time>2026-04-24T12:28:35.265Z</time></trkpt><trkpt lat="46.1922932" lon="13.5480622"><ele>870.5</ele><time>2026-04-24T12:28:36.265Z</time></trkpt><trkpt lat="46.1921601" lon="13.5481341"><ele>873.0</ele><time>2026-04-24T12:28:37.265Z</time></trkpt><trkpt lat="46.1920239" lon="13.5482108"><ele>873.0</ele><time>2026-04-24T12:28:38.266Z</time></trkpt><trkpt lat="46.191896" lon="13.5482857"><ele>873.0</ele><time>2026-04-24T12:28:39.265Z</time></trkpt><trkpt lat="46.1917706" lon="13.5483386"><ele>873.0</ele><time>2026-04-24T12:28:40.265Z</time></trkpt><trkpt lat="46.1916199" lon="13.548346"><ele>873.0</ele><time>2026-04-24T12:28:41.266Z</time></trkpt><trkpt lat="46.1914548" lon="13.5483573"><ele>867.6666666666667</ele><time>2026-04-24T12:28:42.264Z</time></trkpt><trkpt lat="46.1912947" lon="13.5483644"><ele>862.3333333333334</ele><time>2026-04-24T12:28:43.264Z</time></trkpt><trkpt lat="46.1911096" lon="13.5483431"><ele>857.0</ele><time>2026-04-24T12:28:44.265Z</time></trkpt><trkpt lat="46.1909547" lon="13.5482975"><ele>857.0</ele><time>2026-04-24T12:28:45.266Z</time></trkpt><trkpt lat="46.1907968" lon="13.548274"><ele>857.0</ele><time>2026-04-24T12:28:46.266Z</time></trkpt><trkpt lat="46.190645" lon="13.5482521"><ele>857.0</ele><time>2026-04-24T12:28:47.264Z</time></trkpt><trkpt lat="46.1904918" lon="13.5481979"><ele>851.6666666666667</ele><time>2026-04-24T12:28:48.265Z</time></trkpt><trkpt lat="46.19031" lon="13.5481508"><ele>846.3333333333333</ele><time>2026-04-24T12:28:49.265Z</time></trkpt><trkpt lat="46.1901665" lon="13.5480929"><ele>841.0</ele><time>2026-04-24T12:28:50.265Z</time></trkpt><trkpt lat="46.1900574" lon="13.5480165"><ele>841.0</ele><time>2026-04-24T12:28:51.264Z</time></trkpt><trkpt lat="46.189893" lon="13.5479753"><ele>841.0</ele><time>2026-04-24T12:28:52.266Z</time></trkpt><trkpt lat="46.1897462" lon="13.5479353"><ele>841.0</ele><time>2026-04-24T12:28:53.265Z</time></trkpt><trkpt lat="46.1893997" lon="13.5480342"><ele>836.25</ele><time>2026-04-24T12:28:55.264Z</time></trkpt><trkpt lat="46.1892639" lon="13.548075"><ele>831.5</ele><time>2026-04-24T12:28:56.264Z</time></trkpt><trkpt lat="46.1891173" lon="13.5481375"><ele>826.75</ele><time>2026-04-24T12:28:57.265Z</time></trkpt><trkpt lat="46.1889881" lon="13.5482498"><ele>822.0</ele><time>2026-04-24T12:28:58.265Z</time></trkpt><trkpt lat="46.1888528" lon="13.5483201"><ele>817.6666666666667</ele><time>2026-04-24T12:28:59.265Z</time></trkpt><trkpt lat="46.1887109" lon="13.5483764"><ele>813.3333333333334</ele><time>2026-04-24T12:29:00.266Z</time></trkpt><trkpt lat="46.188544" lon="13.5484048"><ele>809.0</ele><time>2026-04-24T12:29:01.265Z</time></trkpt><trkpt lat="46.1883901" lon="13.5484196"><ele>809.0</ele><time>2026-04-24T12:29:02.266Z</time></trkpt><trkpt lat="46.1882604" lon="13.5484714"><ele>809.0</ele><time>2026-04-24T12:29:03.265Z</time></trkpt><trkpt lat="46.1881263" lon="13.5484886"><ele>809.0</ele><time>2026-04-24T12:29:04.265Z</time></trkpt><trkpt lat="46.1879951" lon="13.5485098"><ele>809.0</ele><time>2026-04-24T12:29:05.265Z</time></trkpt><trkpt lat="46.1878864" lon="13.5485972"><ele>810.25</ele><time>2026-04-24T12:29:06.266Z</time></trkpt><trkpt lat="46.1877544" lon="13.5486842"><ele>811.5</ele><time>2026-04-24T12:29:07.266Z</time></trkpt><trkpt lat="46.1876307" lon="13.5487469"><ele>812.75</ele><time>2026-04-24T12:29:08.265Z</time></trkpt><trkpt lat="46.1874972" lon="13.5487986"><ele>814.0</ele><time>2026-04-24T12:29:09.264Z</time></trkpt><trkpt lat="46.1873576" lon="13.5488213"><ele>810.0</ele><time>2026-04-24T12:29:10.265Z</time></trkpt><trkpt lat="46.1872188" lon="13.5488456"><ele>806.0</ele><time>2026-04-24T12:29:11.264Z</time></trkpt><trkpt lat="46.1870557" lon="13.5487935"><ele>802.0</ele><time>2026-04-24T12:29:12.265Z</time></trkpt><trkpt lat="46.1868883" lon="13.5488114"><ele>802.0</ele><time>2026-04-24T12:29:13.265Z</time></trkpt><trkpt lat="46.1867008" lon="13.548849"><ele>802.0</ele><time>2026-04-24T12:29:14.264Z</time></trkpt><trkpt lat="46.1865063" lon="13.5488884"><ele>802.0</ele><time>2026-04-24T12:29:15.264Z</time></trkpt><trkpt lat="46.1863184" lon="13.5489163"><ele>795.3333333333333</ele><time>2026-04-24T12:29:16.264Z</time></trkpt><trkpt lat="46.1861502" lon="13.5489516"><ele>788.6666666666667</ele><time>2026-04-24T12:29:17.265Z</time></trkpt><trkpt lat="46.1860063" lon="13.5489946"><ele>782.0</ele><time>2026-04-24T12:29:18.265Z</time></trkpt><trkpt lat="46.1858633" lon="13.5490263"><ele>782.0</ele><time>2026-04-24T12:29:19.265Z</time></trkpt><trkpt lat="46.1857215" lon="13.5490809"><ele>782.0</ele><time>2026-04-24T12:29:20.266Z</time></trkpt><trkpt lat="46.1855784" lon="13.5491717"><ele>782.0</ele><time>2026-04-24T12:29:21.265Z</time></trkpt><trkpt lat="46.1854339" lon="13.5492707"><ele>785.0</ele><time>2026-04-24T12:29:22.265Z</time></trkpt><trkpt lat="46.1852222" lon="13.5494251"><ele>788.0</ele><time>2026-04-24T12:29:23.265Z</time></trkpt><trkpt lat="46.1850521" lon="13.5495217"><ele>791.0</ele><time>2026-04-24T12:29:24.266Z</time></trkpt><trkpt lat="46.1848825" lon="13.5496161"><ele>782.6666666666667</ele><time>2026-04-24T12:29:25.265Z</time></trkpt><trkpt lat="46.1847371" lon="13.5496953"><ele>774.3333333333334</ele><time>2026-04-24T12:29:26.265Z</time></trkpt><trkpt lat="46.184591" lon="13.5497658"><ele>766.0</ele><time>2026-04-24T12:29:27.266Z</time></trkpt><trkpt lat="46.1844486" lon="13.5498248"><ele>766.0</ele><time>2026-04-24T12:29:28.265Z</time></trkpt><trkpt lat="46.1843165" lon="13.5498732"><ele>766.0</ele><time>2026-04-24T12:29:29.265Z</time></trkpt><trkpt lat="46.1841851" lon="13.5498825"><ele>766.0</ele><time>2026-04-24T12:29:30.265Z</time></trkpt><trkpt lat="46.1840591" lon="13.5499163"><ele>766.0</ele><time>2026-04-24T12:29:31.264Z</time></trkpt><trkpt lat="46.1839614" lon="13.5499378"><ele>764.5</ele><time>2026-04-24T12:29:32.266Z</time></trkpt><trkpt lat="46.1838707" lon="13.5499671"><ele>763.0</ele><time>2026-04-24T12:29:33.265Z</time></trkpt><trkpt lat="46.183805" lon="13.5499889"><ele>761.5</ele><time>2026-04-24T12:29:34.264Z</time></trkpt><trkpt lat="46.1837416" lon="13.5499551"><ele>760.0</ele><time>2026-04-24T12:29:35.266Z</time></trkpt><trkpt lat="46.1836823" lon="13.5499214"><ele>758.5</ele><time>2026-04-24T12:29:36.265Z</time></trkpt><trkpt lat="46.183581" lon="13.5498818"><ele>757.0</ele><time>2026-04-24T12:29:38.264Z</time></trkpt><trkpt lat="46.1834943" lon="13.549977"><ele>757.0</ele><time>2026-04-24T12:29:40.265Z</time></trkpt><trkpt lat="46.1834088" lon="13.5501277"><ele>757.0</ele><time>2026-04-24T12:29:42.264Z</time></trkpt><trkpt lat="46.1833705" lon="13.5502185"><ele>757.0</ele><time>2026-04-24T12:29:43.265Z</time></trkpt><trkpt lat="46.1833272" lon="13.5503149"><ele>757.0</ele><time>2026-04-24T12:29:44.265Z</time></trkpt><trkpt lat="46.1832821" lon="13.5504227"><ele>757.0</ele><time>2026-04-24T12:29:45.265Z</time></trkpt><trkpt lat="46.1832304" lon="13.550529"><ele>755.3333333333334</ele><time>2026-04-24T12:29:46.266Z</time></trkpt><trkpt lat="46.1831732" lon="13.5506283"><ele>753.6666666666667</ele><time>2026-04-24T12:29:47.264Z</time></trkpt><trkpt lat="46.1831191" lon="13.5507209"><ele>752.0</ele><time>2026-04-24T12:29:48.264Z</time></trkpt><trkpt lat="46.1830724" lon="13.5508087"><ele>750.3333333333334</ele><time>2026-04-24T12:29:49.265Z</time></trkpt><trkpt lat="46.1830355" lon="13.5508907"><ele>748.6666666666666</ele><time>2026-04-24T12:29:50.265Z</time></trkpt><trkpt lat="46.1830126" lon="13.5509891"><ele>747.0</ele><time>2026-04-24T12:29:51.264Z</time></trkpt><trkpt lat="46.1829976" lon="13.5511051"><ele>747.4000000000001</ele><time>2026-04-24T12:29:52.264Z</time></trkpt><trkpt lat="46.1829886" lon="13.5512353"><ele>747.8000000000001</ele><time>2026-04-24T12:29:53.265Z</time></trkpt><trkpt lat="46.1829752" lon="13.5513707"><ele>748.2</ele><time>2026-04-24T12:29:54.264Z</time></trkpt><trkpt lat="46.1829691" lon="13.551516"><ele>748.6</ele><time>2026-04-24T12:29:55.265Z</time></trkpt><trkpt lat="46.1829538" lon="13.5516557"><ele>749.0</ele><time>2026-04-24T12:29:56.264Z</time></trkpt><trkpt lat="46.1829247" lon="13.5517881"><ele>749.0</ele><time>2026-04-24T12:29:57.265Z</time></trkpt><trkpt lat="46.1828788" lon="13.5519168"><ele>749.0</ele><time>2026-04-24T12:29:58.264Z</time></trkpt><trkpt lat="46.1828225" lon="13.5520381"><ele>749.0</ele><time>2026-04-24T12:29:59.264Z</time></trkpt><trkpt lat="46.1827557" lon="13.5521596"><ele>749.0</ele><time>2026-04-24T12:30:00.266Z</time></trkpt><trkpt lat="46.182684" lon="13.5522871"><ele>749.0</ele><time>2026-04-24T12:30:01.265Z</time></trkpt><trkpt lat="46.1826251" lon="13.5524363"><ele>751.5</ele><time>2026-04-24T12:30:02.265Z</time></trkpt><trkpt lat="46.1825856" lon="13.5526028"><ele>754.0</ele><time>2026-04-24T12:30:03.265Z</time></trkpt><trkpt lat="46.1825627" lon="13.5527853"><ele>756.5</ele><time>2026-04-24T12:30:04.266Z</time></trkpt><trkpt lat="46.1825352" lon="13.5529616"><ele>759.0</ele><time>2026-04-24T12:30:05.264Z</time></trkpt><trkpt lat="46.182504" lon="13.5531453"><ele>759.75</ele><time>2026-04-24T12:30:06.266Z</time></trkpt><trkpt lat="46.1824754" lon="13.5533267"><ele>760.5</ele><time>2026-04-24T12:30:07.265Z</time></trkpt><trkpt lat="46.1824475" lon="13.5535056"><ele>761.25</ele><time>2026-04-24T12:30:08.265Z</time></trkpt><trkpt lat="46.1824266" lon="13.5536769"><ele>762.0</ele><time>2026-04-24T12:30:09.264Z</time></trkpt><trkpt lat="46.1824101" lon="13.5538392"><ele>760.5</ele><time>2026-04-24T12:30:10.265Z</time></trkpt><trkpt lat="46.1824182" lon="13.5539931"><ele>759.0</ele><time>2026-04-24T12:30:11.264Z</time></trkpt><trkpt lat="46.1824619" lon="13.5541518"><ele>757.5</ele><time>2026-04-24T12:30:12.265Z</time></trkpt><trkpt lat="46.1825362" lon="13.5543216"><ele>756.0</ele><time>2026-04-24T12:30:13.265Z</time></trkpt><trkpt lat="46.1826183" lon="13.5544858"><ele>748.3333333333334</ele><time>2026-04-24T12:30:14.265Z</time></trkpt><trkpt lat="46.1827082" lon="13.5546585"><ele>740.6666666666667</ele><time>2026-04-24T12:30:15.264Z</time></trkpt><trkpt lat="46.1828032" lon="13.554836"><ele>733.0</ele><time>2026-04-24T12:30:16.264Z</time></trkpt><trkpt lat="46.1829085" lon="13.5550166"><ele>733.0</ele><time>2026-04-24T12:30:17.265Z</time></trkpt><trkpt lat="46.1830167" lon="13.5552009"><ele>733.0</ele><time>2026-04-24T12:30:18.265Z</time></trkpt><trkpt lat="46.1831744" lon="13.5553711"><ele>733.0</ele><time>2026-04-24T12:30:19.265Z</time></trkpt><trkpt lat="46.1833116" lon="13.5555727"><ele>734.3333333333334</ele><time>2026-04-24T12:30:20.264Z</time></trkpt><trkpt lat="46.1834542" lon="13.5557697"><ele>735.6666666666666</ele><time>2026-04-24T12:30:21.263Z</time></trkpt><trkpt lat="46.1836067" lon="13.5559562"><ele>737.0</ele><time>2026-04-24T12:30:22.263Z</time></trkpt><trkpt lat="46.1837443" lon="13.5561367"><ele>736.3333333333333</ele><time>2026-04-24T12:30:23.265Z</time></trkpt><trkpt lat="46.1838843" lon="13.5563046"><ele>735.6666666666666</ele><time>2026-04-24T12:30:24.264Z</time></trkpt><trkpt lat="46.1840307" lon="13.5564744"><ele>735.0</ele><time>2026-04-24T12:30:25.264Z</time></trkpt><trkpt lat="46.184176" lon="13.5566341"><ele>735.0</ele><time>2026-04-24T12:30:26.264Z</time></trkpt><trkpt lat="46.1843223" lon="13.556783"><ele>735.0</ele><time>2026-04-24T12:30:27.263Z</time></trkpt><trkpt lat="46.1844631" lon="13.5569344"><ele>735.0</ele><time>2026-04-24T12:30:28.265Z</time></trkpt><trkpt lat="46.1845938" lon="13.5570795"><ele>733.25</ele><time>2026-04-24T12:30:29.264Z</time></trkpt><trkpt lat="46.1847129" lon="13.557216"><ele>731.5</ele><time>2026-04-24T12:30:30.265Z</time></trkpt><trkpt lat="46.184827" lon="13.5573284"><ele>729.75</ele><time>2026-04-24T12:30:31.265Z</time></trkpt><trkpt lat="46.184942" lon="13.557451"><ele>728.0</ele><time>2026-04-24T12:30:32.264Z</time></trkpt><trkpt lat="46.1850561" lon="13.5575465"><ele>728.0</ele><time>2026-04-24T12:30:33.265Z</time></trkpt><trkpt lat="46.1851807" lon="13.5576068"><ele>728.0</ele><time>2026-04-24T12:30:34.264Z</time></trkpt><trkpt lat="46.1852865" lon="13.5576275"><ele>728.0</ele><time>2026-04-24T12:30:35.263Z</time></trkpt><trkpt lat="46.1854195" lon="13.5576526"><ele>728.0</ele><time>2026-04-24T12:30:36.264Z</time></trkpt><trkpt lat="46.1855411" lon="13.557688"><ele>728.0</ele><time>2026-04-24T12:30:37.264Z</time></trkpt><trkpt lat="46.1856154" lon="13.5577342"><ele>728.0</ele><time>2026-04-24T12:30:38.264Z</time></trkpt><trkpt lat="46.1856994" lon="13.5578754"><ele>728.0</ele><time>2026-04-24T12:30:40.263Z</time></trkpt><trkpt lat="46.1857" lon="13.5580026"><ele>728.0</ele><time>2026-04-24T12:30:41.264Z</time></trkpt><trkpt lat="46.1856056" lon="13.5581364"><ele>728.0</ele><time>2026-04-24T12:30:42.264Z</time></trkpt><trkpt lat="46.1855412" lon="13.5582839"><ele>727.25</ele><time>2026-04-24T12:30:43.263Z</time></trkpt><trkpt lat="46.1854933" lon="13.5584554"><ele>726.5</ele><time>2026-04-24T12:30:44.263Z</time></trkpt><trkpt lat="46.1854403" lon="13.5586229"><ele>725.75</ele><time>2026-04-24T12:30:45.263Z</time></trkpt><trkpt lat="46.1854099" lon="13.5588"><ele>725.0</ele><time>2026-04-24T12:30:46.264Z</time></trkpt><trkpt lat="46.1853506" lon="13.5588973"><ele>725.0</ele><time>2026-04-24T12:30:47.265Z</time></trkpt><trkpt lat="46.1852862" lon="13.5589723"><ele>725.0</ele><time>2026-04-24T12:30:48.265Z</time></trkpt><trkpt lat="46.1852019" lon="13.5590058"><ele>725.0</ele><time>2026-04-24T12:30:49.265Z</time></trkpt><trkpt lat="46.1850936" lon="13.5590008"><ele>725.0</ele><time>2026-04-24T12:30:50.264Z</time></trkpt><trkpt lat="46.1849628" lon="13.558983"><ele>725.0</ele><time>2026-04-24T12:30:51.263Z</time></trkpt><trkpt lat="46.1848427" lon="13.5589562"><ele>723.0</ele><time>2026-04-24T12:30:52.263Z</time></trkpt><trkpt lat="46.1847002" lon="13.5589125"><ele>721.0</ele><time>2026-04-24T12:30:53.263Z</time></trkpt><trkpt lat="46.1845555" lon="13.5588468"><ele>719.0</ele><time>2026-04-24T12:30:54.264Z</time></trkpt><trkpt lat="46.184409" lon="13.5587791"><ele>719.0</ele><time>2026-04-24T12:30:55.264Z</time></trkpt><trkpt lat="46.1842674" lon="13.5587476"><ele>719.0</ele><time>2026-04-24T12:30:56.264Z</time></trkpt><trkpt lat="46.1840534" lon="13.5588221"><ele>719.0</ele><time>2026-04-24T12:30:57.264Z</time></trkpt><trkpt lat="46.1839158" lon="13.5588569"><ele>719.3333333333333</ele><time>2026-04-24T12:30:58.263Z</time></trkpt><trkpt lat="46.1837632" lon="13.5588835"><ele>719.6666666666666</ele><time>2026-04-24T12:30:59.263Z</time></trkpt><trkpt lat="46.1836121" lon="13.5589091"><ele>720.0</ele><time>2026-04-24T12:31:00.264Z</time></trkpt><trkpt lat="46.1834676" lon="13.5588905"><ele>720.0</ele><time>2026-04-24T12:31:01.265Z</time></trkpt><trkpt lat="46.1833326" lon="13.5588653"><ele>720.0</ele><time>2026-04-24T12:31:02.264Z</time></trkpt><trkpt lat="46.1832069" lon="13.5587805"><ele>720.0</ele><time>2026-04-24T12:31:03.265Z</time></trkpt><trkpt lat="46.1830374" lon="13.5586442"><ele>708.6666666666666</ele><time>2026-04-24T12:31:04.264Z</time></trkpt><trkpt lat="46.1828574" lon="13.5585726"><ele>697.3333333333333</ele><time>2026-04-24T12:31:05.263Z</time></trkpt><trkpt lat="46.1826431" lon="13.5584878"><ele>686.0</ele><time>2026-04-24T12:31:06.263Z</time></trkpt><trkpt lat="46.1824463" lon="13.5584341"><ele>685.3333333333333</ele><time>2026-04-24T12:31:07.264Z</time></trkpt><trkpt lat="46.1822366" lon="13.5583862"><ele>684.6666666666666</ele><time>2026-04-24T12:31:08.263Z</time></trkpt><trkpt lat="46.1820224" lon="13.5583032"><ele>684.0</ele><time>2026-04-24T12:31:09.264Z</time></trkpt><trkpt lat="46.1817812" lon="13.5583334"><ele>684.0</ele><time>2026-04-24T12:31:10.264Z</time></trkpt><trkpt lat="46.181564" lon="13.5582935"><ele>684.0</ele><time>2026-04-24T12:31:11.265Z</time></trkpt><trkpt lat="46.1813474" lon="13.558253"><ele>684.0</ele><time>2026-04-24T12:31:12.263Z</time></trkpt><trkpt lat="46.1811546" lon="13.5582295"><ele>681.0</ele><time>2026-04-24T12:31:13.265Z</time></trkpt><trkpt lat="46.1809565" lon="13.5582013"><ele>678.0</ele><time>2026-04-24T12:31:14.263Z</time></trkpt><trkpt lat="46.1807986" lon="13.5582746"><ele>675.0</ele><time>2026-04-24T12:31:15.265Z</time></trkpt><trkpt lat="46.1806862" lon="13.5583725"><ele>673.0</ele><time>2026-04-24T12:31:16.264Z</time></trkpt><trkpt lat="46.1805206" lon="13.5584117"><ele>671.0</ele><time>2026-04-24T12:31:17.263Z</time></trkpt><trkpt lat="46.1803805" lon="13.558445"><ele>669.0</ele><time>2026-04-24T12:31:18.263Z</time></trkpt><trkpt lat="46.1802434" lon="13.5584855"><ele>669.0</ele><time>2026-04-24T12:31:19.264Z</time></trkpt><trkpt lat="46.1801022" lon="13.5584828"><ele>669.0</ele><time>2026-04-24T12:31:20.264Z</time></trkpt><trkpt lat="46.1799524" lon="13.5584756"><ele>669.0</ele><time>2026-04-24T12:31:21.263Z</time></trkpt><trkpt lat="46.1798248" lon="13.5584174"><ele>669.0</ele><time>2026-04-24T12:31:22.263Z</time></trkpt><trkpt lat="46.1797112" lon="13.558258"><ele>669.3333333333334</ele><time>2026-04-24T12:31:23.264Z</time></trkpt><trkpt lat="46.1795532" lon="13.5581954"><ele>669.6666666666667</ele><time>2026-04-24T12:31:24.264Z</time></trkpt><trkpt lat="46.1793866" lon="13.5581243"><ele>670.0</ele><time>2026-04-24T12:31:25.264Z</time></trkpt><trkpt lat="46.179208" lon="13.5580538"><ele>672.0</ele><time>2026-04-24T12:31:26.264Z</time></trkpt><trkpt lat="46.1790032" lon="13.557952"><ele>674.0</ele><time>2026-04-24T12:31:27.263Z</time></trkpt><trkpt lat="46.1787731" lon="13.5578329"><ele>666.6666666666666</ele><time>2026-04-24T12:31:28.264Z</time></trkpt><trkpt lat="46.1785509" lon="13.5577647"><ele>659.3333333333334</ele><time>2026-04-24T12:31:29.264Z</time></trkpt><trkpt lat="46.1783638" lon="13.5576173"><ele>652.0</ele><time>2026-04-24T12:31:30.265Z</time></trkpt><trkpt lat="46.178178" lon="13.5575288"><ele>652.0</ele><time>2026-04-24T12:31:31.263Z</time></trkpt><trkpt lat="46.1780007" lon="13.5574547"><ele>652.0</ele><time>2026-04-24T12:31:32.264Z</time></trkpt><trkpt lat="46.1778621" lon="13.5573424"><ele>652.0</ele><time>2026-04-24T12:31:33.263Z</time></trkpt><trkpt lat="46.1777644" lon="13.557282"><ele>652.0</ele><time>2026-04-24T12:31:34.264Z</time></trkpt><trkpt lat="46.1776085" lon="13.5571536"><ele>652.0</ele><time>2026-04-24T12:31:35.264Z</time></trkpt><trkpt lat="46.1775085" lon="13.5570548"><ele>652.0</ele><time>2026-04-24T12:31:36.264Z</time></trkpt><trkpt lat="46.1773939" lon="13.5569253"><ele>652.0</ele><time>2026-04-24T12:31:37.263Z</time></trkpt><trkpt lat="46.1772862" lon="13.5568244"><ele>649.25</ele><time>2026-04-24T12:31:38.264Z</time></trkpt><trkpt lat="46.177146" lon="13.5567356"><ele>646.5</ele><time>2026-04-24T12:31:39.265Z</time></trkpt><trkpt lat="46.1770074" lon="13.556671"><ele>643.75</ele><time>2026-04-24T12:31:40.264Z</time></trkpt><trkpt lat="46.1768827" lon="13.5566234"><ele>641.0</ele><time>2026-04-24T12:31:41.264Z</time></trkpt><trkpt lat="46.1767266" lon="13.5565817"><ele>641.0</ele><time>2026-04-24T12:31:42.264Z</time></trkpt><trkpt lat="46.1765943" lon="13.5565436"><ele>641.0</ele><time>2026-04-24T12:31:43.264Z</time></trkpt><trkpt lat="46.1765068" lon="13.5565553"><ele>641.0</ele><time>2026-04-24T12:31:44.265Z</time></trkpt><trkpt lat="46.1763909" lon="13.5565303"><ele>641.0</ele><time>2026-04-24T12:31:45.265Z</time></trkpt><trkpt lat="46.1762735" lon="13.5565349"><ele>639.0</ele><time>2026-04-24T12:31:46.264Z</time></trkpt><trkpt lat="46.1761648" lon="13.5565523"><ele>637.0</ele><time>2026-04-24T12:31:47.264Z</time></trkpt><trkpt lat="46.1760731" lon="13.5565859"><ele>635.0</ele><time>2026-04-24T12:31:48.264Z</time></trkpt><trkpt lat="46.176011" lon="13.556657"><ele>633.0</ele><time>2026-04-24T12:31:49.264Z</time></trkpt><trkpt lat="46.1759635" lon="13.5567382"><ele>631.0</ele><time>2026-04-24T12:31:50.264Z</time></trkpt><trkpt lat="46.175919" lon="13.5568244"><ele>629.0</ele><time>2026-04-24T12:31:51.263Z</time></trkpt><trkpt lat="46.1758841" lon="13.5569091"><ele>629.0</ele><time>2026-04-24T12:31:52.265Z</time></trkpt><trkpt lat="46.1758419" lon="13.5569934"><ele>629.0</ele><time>2026-04-24T12:31:53.264Z</time></trkpt><trkpt lat="46.1758315" lon="13.5571647"><ele>629.0</ele><time>2026-04-24T12:31:54.264Z</time></trkpt><trkpt lat="46.175806" lon="13.5573106"><ele>629.0</ele><time>2026-04-24T12:31:55.265Z</time></trkpt><trkpt lat="46.1757878" lon="13.5574669"><ele>629.0</ele><time>2026-04-24T12:31:56.263Z</time></trkpt><trkpt lat="46.1757795" lon="13.5576626"><ele>628.3333333333333</ele><time>2026-04-24T12:31:57.263Z</time></trkpt><trkpt lat="46.1757229" lon="13.5579211"><ele>627.6666666666666</ele><time>2026-04-24T12:31:58.264Z</time></trkpt><trkpt lat="46.1757016" lon="13.5581185"><ele>627.0</ele><time>2026-04-24T12:31:59.264Z</time></trkpt><trkpt lat="46.1757166" lon="13.5583329"><ele>627.0</ele><time>2026-04-24T12:32:00.264Z</time></trkpt><trkpt lat="46.1757257" lon="13.5585374"><ele>627.0</ele><time>2026-04-24T12:32:01.264Z</time></trkpt><trkpt lat="46.1757324" lon="13.5587241"><ele>627.0</ele><time>2026-04-24T12:32:02.263Z</time></trkpt><trkpt lat="46.1757401" lon="13.5589038"><ele>627.0</ele><time>2026-04-24T12:32:03.264Z</time></trkpt><trkpt lat="46.1757677" lon="13.5591075"><ele>624.6666666666666</ele><time>2026-04-24T12:32:04.263Z</time></trkpt><trkpt lat="46.175806" lon="13.5592996"><ele>622.3333333333333</ele><time>2026-04-24T12:32:05.264Z</time></trkpt><trkpt lat="46.1758557" lon="13.5595064"><ele>620.0</ele><time>2026-04-24T12:32:06.264Z</time></trkpt><trkpt lat="46.1759057" lon="13.5597282"><ele>614.6666666666666</ele><time>2026-04-24T12:32:07.264Z</time></trkpt><trkpt lat="46.1759695" lon="13.5599427"><ele>609.3333333333334</ele><time>2026-04-24T12:32:08.265Z</time></trkpt><trkpt lat="46.176015" lon="13.5601586"><ele>604.0</ele><time>2026-04-24T12:32:09.264Z</time></trkpt><trkpt lat="46.1760623" lon="13.5603821"><ele>600.5</ele><time>2026-04-24T12:32:10.264Z</time></trkpt><trkpt lat="46.1760647" lon="13.5605782"><ele>597.0</ele><time>2026-04-24T12:32:11.264Z</time></trkpt><trkpt lat="46.176086" lon="13.5607905"><ele>593.5</ele><time>2026-04-24T12:32:12.264Z</time></trkpt><trkpt lat="46.1760982" lon="13.5609975"><ele>590.0</ele><time>2026-04-24T12:32:13.263Z</time></trkpt><trkpt lat="46.1760493" lon="13.5611728"><ele>587.0</ele><time>2026-04-24T12:32:14.263Z</time></trkpt><trkpt lat="46.1760422" lon="13.5613803"><ele>584.0</ele><time>2026-04-24T12:32:15.264Z</time></trkpt><trkpt lat="46.1760323" lon="13.5615818"><ele>581.0</ele><time>2026-04-24T12:32:16.263Z</time></trkpt><trkpt lat="46.1760322" lon="13.5617355"><ele>578.0</ele><time>2026-04-24T12:32:17.263Z</time></trkpt><trkpt lat="46.1760571" lon="13.5618521"><ele>578.0</ele><time>2026-04-24T12:32:18.265Z</time></trkpt><trkpt lat="46.176119" lon="13.5619924"><ele>578.0</ele><time>2026-04-24T12:32:19.264Z</time></trkpt><trkpt lat="46.1761667" lon="13.5621485"><ele>578.0</ele><time>2026-04-24T12:32:20.265Z</time></trkpt><trkpt lat="46.1762351" lon="13.5623137"><ele>578.0</ele><time>2026-04-24T12:32:21.264Z</time></trkpt><trkpt lat="46.1763147" lon="13.5624687"><ele>577.75</ele><time>2026-04-24T12:32:22.264Z</time></trkpt><trkpt lat="46.1764173" lon="13.5625924"><ele>577.5</ele><time>2026-04-24T12:32:23.265Z</time></trkpt><trkpt lat="46.1765132" lon="13.5627239"><ele>577.25</ele><time>2026-04-24T12:32:24.263Z</time></trkpt><trkpt lat="46.1765813" lon="13.5628662"><ele>577.0</ele><time>2026-04-24T12:32:25.263Z</time></trkpt><trkpt lat="46.1766276" lon="13.5630148"><ele>577.0</ele><time>2026-04-24T12:32:26.263Z</time></trkpt><trkpt lat="46.1766532" lon="13.5631825"><ele>577.0</ele><time>2026-04-24T12:32:27.264Z</time></trkpt><trkpt lat="46.1766743" lon="13.5633558"><ele>577.0</ele><time>2026-04-24T12:32:28.264Z</time></trkpt><trkpt lat="46.1766611" lon="13.5635548"><ele>577.0</ele><time>2026-04-24T12:32:29.264Z</time></trkpt><trkpt lat="46.1766409" lon="13.5637589"><ele>576.5</ele><time>2026-04-24T12:32:30.264Z</time></trkpt><trkpt lat="46.1766096" lon="13.5639552"><ele>576.0</ele><time>2026-04-24T12:32:31.263Z</time></trkpt><trkpt lat="46.176555" lon="13.5641587"><ele>575.5</ele><time>2026-04-24T12:32:32.264Z</time></trkpt><trkpt lat="46.1765139" lon="13.5643614"><ele>575.0</ele><time>2026-04-24T12:32:33.265Z</time></trkpt><trkpt lat="46.1765083" lon="13.5645678"><ele>564.0</ele><time>2026-04-24T12:32:34.264Z</time></trkpt><trkpt lat="46.1764848" lon="13.5647797"><ele>553.0</ele><time>2026-04-24T12:32:35.263Z</time></trkpt><trkpt lat="46.1764701" lon="13.5649854"><ele>542.0</ele><time>2026-04-24T12:32:36.264Z</time></trkpt><trkpt lat="46.176434" lon="13.5651817"><ele>531.0</ele><time>2026-04-24T12:32:37.263Z</time></trkpt><trkpt lat="46.1763866" lon="13.5653649"><ele>530.75</ele><time>2026-04-24T12:32:38.265Z</time></trkpt><trkpt lat="46.1763412" lon="13.565544"><ele>530.5</ele><time>2026-04-24T12:32:39.265Z</time></trkpt><trkpt lat="46.1763049" lon="13.5657298"><ele>530.25</ele><time>2026-04-24T12:32:40.265Z</time></trkpt><trkpt lat="46.1762828" lon="13.5659185"><ele>530.0</ele><time>2026-04-24T12:32:41.264Z</time></trkpt><trkpt lat="46.1762649" lon="13.5661023"><ele>530.75</ele><time>2026-04-24T12:32:42.264Z</time></trkpt><trkpt lat="46.1762474" lon="13.5662855"><ele>531.5</ele><time>2026-04-24T12:32:43.265Z</time></trkpt><trkpt lat="46.1762075" lon="13.5664476"><ele>532.25</ele><time>2026-04-24T12:32:44.265Z</time></trkpt><trkpt lat="46.17617" lon="13.5666106"><ele>533.0</ele><time>2026-04-24T12:32:45.265Z</time></trkpt><trkpt lat="46.1761602" lon="13.5667628"><ele>533.0</ele><time>2026-04-24T12:32:46.264Z</time></trkpt><trkpt lat="46.176171" lon="13.5668982"><ele>533.0</ele><time>2026-04-24T12:32:47.264Z</time></trkpt><trkpt lat="46.1762085" lon="13.5670342"><ele>533.0</ele><time>2026-04-24T12:32:48.265Z</time></trkpt><trkpt lat="46.1762533" lon="13.5671879"><ele>533.0</ele><time>2026-04-24T12:32:49.263Z</time></trkpt><trkpt lat="46.1763329" lon="13.5673325"><ele>533.0</ele><time>2026-04-24T12:32:50.263Z</time></trkpt><trkpt lat="46.1764606" lon="13.5674012"><ele>532.0</ele><time>2026-04-24T12:32:51.264Z</time></trkpt><trkpt lat="46.1765568" lon="13.5674958"><ele>531.0</ele><time>2026-04-24T12:32:52.264Z</time></trkpt><trkpt lat="46.1766461" lon="13.5675911"><ele>530.0</ele><time>2026-04-24T12:32:53.263Z</time></trkpt><trkpt lat="46.1767276" lon="13.5676796"><ele>529.0</ele><time>2026-04-24T12:32:54.264Z</time></trkpt><trkpt lat="46.1767886" lon="13.5677478"><ele>528.0</ele><time>2026-04-24T12:32:55.264Z</time></trkpt><trkpt lat="46.1768225" lon="13.5678958"><ele>528.0</ele><time>2026-04-24T12:32:57.265Z</time></trkpt><trkpt lat="46.1767264" lon="13.5679499"><ele>528.0</ele><time>2026-04-24T12:32:59.265Z</time></trkpt><trkpt lat="46.1766391" lon="13.5679038"><ele>528.0</ele><time>2026-04-24T12:33:00.264Z</time></trkpt><trkpt lat="46.1765267" lon="13.5678284"><ele>528.0</ele><time>2026-04-24T12:33:01.265Z</time></trkpt><trkpt lat="46.1764042" lon="13.5677512"><ele>527.0</ele><time>2026-04-24T12:33:02.264Z</time></trkpt><trkpt lat="46.1762843" lon="13.567655"><ele>526.0</ele><time>2026-04-24T12:33:03.264Z</time></trkpt><trkpt lat="46.1761659" lon="13.5675195"><ele>525.0</ele><time>2026-04-24T12:33:04.264Z</time></trkpt><trkpt lat="46.1760614" lon="13.5673753"><ele>524.0</ele><time>2026-04-24T12:33:05.265Z</time></trkpt><trkpt lat="46.1759718" lon="13.5672244"><ele>524.0</ele><time>2026-04-24T12:33:06.263Z</time></trkpt><trkpt lat="46.1759045" lon="13.5670855"><ele>524.0</ele><time>2026-04-24T12:33:07.264Z</time></trkpt><trkpt lat="46.1758594" lon="13.5669349"><ele>524.0</ele><time>2026-04-24T12:33:08.264Z</time></trkpt><trkpt lat="46.1758048" lon="13.56679"><ele>524.0</ele><time>2026-04-24T12:33:09.265Z</time></trkpt><trkpt lat="46.1757815" lon="13.5666329"><ele>526.0</ele><time>2026-04-24T12:33:10.264Z</time></trkpt><trkpt lat="46.1758062" lon="13.5664142"><ele>528.0</ele><time>2026-04-24T12:33:11.265Z</time></trkpt><trkpt lat="46.1758276" lon="13.5661965"><ele>530.0</ele><time>2026-04-24T12:33:12.264Z</time></trkpt><trkpt lat="46.175837" lon="13.5659879"><ele>530.0</ele><time>2026-04-24T12:33:13.265Z</time></trkpt><trkpt lat="46.1758467" lon="13.5657731"><ele>530.0</ele><time>2026-04-24T12:33:14.265Z</time></trkpt><trkpt lat="46.1758465" lon="13.5655588"><ele>530.0</ele><time>2026-04-24T12:33:15.263Z</time></trkpt><trkpt lat="46.1758414" lon="13.5653438"><ele>530.0</ele><time>2026-04-24T12:33:16.262Z</time></trkpt><trkpt lat="46.1758267" lon="13.5651175"><ele>530.0</ele><time>2026-04-24T12:33:17.263Z</time></trkpt><trkpt lat="46.1758149" lon="13.5648859"><ele>530.0</ele><time>2026-04-24T12:33:18.263Z</time></trkpt><trkpt lat="46.1758283" lon="13.5646659"><ele>530.0</ele><time>2026-04-24T12:33:19.262Z</time></trkpt><trkpt lat="46.1758463" lon="13.5642344"><ele>530.0</ele><time>2026-04-24T12:33:21.264Z</time></trkpt><trkpt lat="46.1758462" lon="13.5640381"><ele>530.0</ele><time>2026-04-24T12:33:22.262Z</time></trkpt><trkpt lat="46.1758232" lon="13.5638518"><ele>530.0</ele><time>2026-04-24T12:33:23.262Z</time></trkpt><trkpt lat="46.1757757" lon="13.5636792"><ele>530.0</ele><time>2026-04-24T12:33:24.263Z</time></trkpt><trkpt lat="46.1757032" lon="13.5635175"><ele>523.0</ele><time>2026-04-24T12:33:25.264Z</time></trkpt><trkpt lat="46.1756022" lon="13.5633657"><ele>516.0</ele><time>2026-04-24T12:33:26.263Z</time></trkpt><trkpt lat="46.1754866" lon="13.5632183"><ele>509.0</ele><time>2026-04-24T12:33:27.263Z</time></trkpt><trkpt lat="46.175365" lon="13.5630726"><ele>509.0</ele><time>2026-04-24T12:33:28.263Z</time></trkpt><trkpt lat="46.1752359" lon="13.5629195"><ele>509.0</ele><time>2026-04-24T12:33:29.262Z</time></trkpt><trkpt lat="46.1751092" lon="13.5627765"><ele>509.0</ele><time>2026-04-24T12:33:30.263Z</time></trkpt><trkpt lat="46.1749813" lon="13.5626483"><ele>505.5</ele><time>2026-04-24T12:33:31.264Z</time></trkpt><trkpt lat="46.1748553" lon="13.5625272"><ele>502.0</ele><time>2026-04-24T12:33:32.263Z</time></trkpt><trkpt lat="46.1747308" lon="13.5624055"><ele>498.5</ele><time>2026-04-24T12:33:33.264Z</time></trkpt><trkpt lat="46.1746265" lon="13.5623017"><ele>495.0</ele><time>2026-04-24T12:33:34.263Z</time></trkpt><trkpt lat="46.1745248" lon="13.5622099"><ele>495.0</ele><time>2026-04-24T12:33:35.263Z</time></trkpt><trkpt lat="46.1744327" lon="13.5621049"><ele>495.0</ele><time>2026-04-24T12:33:36.262Z</time></trkpt><trkpt lat="46.1743413" lon="13.5619568"><ele>495.0</ele><time>2026-04-24T12:33:37.263Z</time></trkpt><trkpt lat="46.1742861" lon="13.5617869"><ele>495.0</ele><time>2026-04-24T12:33:38.262Z</time></trkpt><trkpt lat="46.1742394" lon="13.561597"><ele>497.5</ele><time>2026-04-24T12:33:39.263Z</time></trkpt><trkpt lat="46.1741608" lon="13.5614336"><ele>500.0</ele><time>2026-04-24T12:33:40.263Z</time></trkpt><trkpt lat="46.1740677" lon="13.5612826"><ele>502.5</ele><time>2026-04-24T12:33:41.263Z</time></trkpt><trkpt lat="46.1739897" lon="13.5611384"><ele>505.0</ele><time>2026-04-24T12:33:42.262Z</time></trkpt><trkpt lat="46.1739322" lon="13.5609749"><ele>499.75</ele><time>2026-04-24T12:33:43.264Z</time></trkpt><trkpt lat="46.1738843" lon="13.560793"><ele>494.5</ele><time>2026-04-24T12:33:44.264Z</time></trkpt><trkpt lat="46.1738452" lon="13.5605957"><ele>489.25</ele><time>2026-04-24T12:33:45.264Z</time></trkpt><trkpt lat="46.173808" lon="13.5603894"><ele>484.0</ele><time>2026-04-24T12:33:46.264Z</time></trkpt><trkpt lat="46.1737553" lon="13.5601814"><ele>484.0</ele><time>2026-04-24T12:33:47.264Z</time></trkpt><trkpt lat="46.1737208" lon="13.5599631"><ele>484.0</ele><time>2026-04-24T12:33:48.262Z</time></trkpt><trkpt lat="46.1737315" lon="13.5597393"><ele>484.0</ele><time>2026-04-24T12:33:49.262Z</time></trkpt><trkpt lat="46.1736766" lon="13.5595609"><ele>484.0</ele><time>2026-04-24T12:33:50.263Z</time></trkpt><trkpt lat="46.1736585" lon="13.5593687"><ele>484.75</ele><time>2026-04-24T12:33:51.264Z</time></trkpt><trkpt lat="46.1736502" lon="13.5591795"><ele>485.5</ele><time>2026-04-24T12:33:52.263Z</time></trkpt><trkpt lat="46.1736249" lon="13.5590206"><ele>486.25</ele><time>2026-04-24T12:33:53.263Z</time></trkpt><trkpt lat="46.173556" lon="13.5588686"><ele>487.0</ele><time>2026-04-24T12:33:54.263Z</time></trkpt><trkpt lat="46.1734679" lon="13.5587453"><ele>487.0</ele><time>2026-04-24T12:33:55.263Z</time></trkpt><trkpt lat="46.1733218" lon="13.5587999"><ele>487.0</ele><time>2026-04-24T12:33:56.264Z</time></trkpt><trkpt lat="46.173201" lon="13.5587294"><ele>487.0</ele><time>2026-04-24T12:33:57.263Z</time></trkpt><trkpt lat="46.1730955" lon="13.5586783"><ele>487.0</ele><time>2026-04-24T12:33:58.262Z</time></trkpt><trkpt lat="46.1729818" lon="13.5585463"><ele>482.75</ele><time>2026-04-24T12:33:59.262Z</time></trkpt><trkpt lat="46.1728763" lon="13.5584116"><ele>478.5</ele><time>2026-04-24T12:34:00.263Z</time></trkpt><trkpt lat="46.1728016" lon="13.5582455"><ele>474.25</ele><time>2026-04-24T12:34:01.264Z</time></trkpt><trkpt lat="46.1727288" lon="13.5580325"><ele>470.0</ele><time>2026-04-24T12:34:02.262Z</time></trkpt><trkpt lat="46.172662" lon="13.5578462"><ele>470.0</ele><time>2026-04-24T12:34:03.263Z</time></trkpt><trkpt lat="46.1726266" lon="13.557676"><ele>470.0</ele><time>2026-04-24T12:34:04.263Z</time></trkpt><trkpt lat="46.1725935" lon="13.5574429"><ele>470.0</ele><time>2026-04-24T12:34:05.264Z</time></trkpt><trkpt lat="46.1725607" lon="13.5572754"><ele>470.0</ele><time>2026-04-24T12:34:06.262Z</time></trkpt><trkpt lat="46.1725399" lon="13.5571014"><ele>469.2</ele><time>2026-04-24T12:34:07.263Z</time></trkpt><trkpt lat="46.1725109" lon="13.5570108"><ele>468.4</ele><time>2026-04-24T12:34:08.264Z</time></trkpt><trkpt lat="46.1724466" lon="13.5568279"><ele>467.6</ele><time>2026-04-24T12:34:10.264Z</time></trkpt><trkpt lat="46.1723417" lon="13.5568775"><ele>466.8</ele><time>2026-04-24T12:34:12.263Z</time></trkpt><trkpt lat="46.1723341" lon="13.5570081"><ele>466.0</ele><time>2026-04-24T12:34:13.264Z</time></trkpt><trkpt lat="46.1723551" lon="13.5571966"><ele>467.0</ele><time>2026-04-24T12:34:14.262Z</time></trkpt><trkpt lat="46.1723709" lon="13.5573539"><ele>468.0</ele><time>2026-04-24T12:34:15.263Z</time></trkpt><trkpt lat="46.17243" lon="13.5575414"><ele>469.0</ele><time>2026-04-24T12:34:16.263Z</time></trkpt><trkpt lat="46.1724986" lon="13.5577646"><ele>470.0</ele><time>2026-04-24T12:34:17.263Z</time></trkpt><trkpt lat="46.1725483" lon="13.5579743"><ele>466.75</ele><time>2026-04-24T12:34:18.263Z</time></trkpt><trkpt lat="46.1725721" lon="13.5581784"><ele>463.5</ele><time>2026-04-24T12:34:19.263Z</time></trkpt><trkpt lat="46.1725739" lon="13.5583451"><ele>460.25</ele><time>2026-04-24T12:34:20.262Z</time></trkpt><trkpt lat="46.1726171" lon="13.5585446"><ele>457.0</ele><time>2026-04-24T12:34:21.263Z</time></trkpt><trkpt lat="46.1727135" lon="13.5586727"><ele>456.25</ele><time>2026-04-24T12:34:22.263Z</time></trkpt><trkpt lat="46.17278" lon="13.5588541"><ele>455.5</ele><time>2026-04-24T12:34:23.262Z</time></trkpt><trkpt lat="46.1728465" lon="13.5590392"><ele>454.75</ele><time>2026-04-24T12:34:24.263Z</time></trkpt><trkpt lat="46.1728894" lon="13.559203"><ele>454.0</ele><time>2026-04-24T12:34:25.264Z</time></trkpt><trkpt lat="46.1729039" lon="13.5593745"><ele>448.75</ele><time>2026-04-24T12:34:26.264Z</time></trkpt><trkpt lat="46.172925" lon="13.5595409"><ele>443.5</ele><time>2026-04-24T12:34:27.263Z</time></trkpt><trkpt lat="46.1729221" lon="13.559715"><ele>438.25</ele><time>2026-04-24T12:34:28.263Z</time></trkpt><trkpt lat="46.1728866" lon="13.55985"><ele>433.0</ele><time>2026-04-24T12:34:29.263Z</time></trkpt><trkpt lat="46.1728496" lon="13.5600221"><ele>433.0</ele><time>2026-04-24T12:34:30.264Z</time></trkpt><trkpt lat="46.1727539" lon="13.5601838"><ele>433.0</ele><time>2026-04-24T12:34:31.263Z</time></trkpt><trkpt lat="46.1727249" lon="13.5603651"><ele>433.0</ele><time>2026-04-24T12:34:32.263Z</time></trkpt><trkpt lat="46.1727019" lon="13.5605046"><ele>433.0</ele><time>2026-04-24T12:34:33.263Z</time></trkpt><trkpt lat="46.1727164" lon="13.5606473"><ele>434.59999999999997</ele><time>2026-04-24T12:34:34.262Z</time></trkpt><trkpt lat="46.172789" lon="13.5607455"><ele>436.19999999999993</ele><time>2026-04-24T12:34:35.264Z</time></trkpt><trkpt lat="46.1728407" lon="13.5608474"><ele>437.8</ele><time>2026-04-24T12:34:36.264Z</time></trkpt><trkpt lat="46.1728922" lon="13.5609345"><ele>439.4</ele><time>2026-04-24T12:34:37.262Z</time></trkpt><trkpt lat="46.1728918" lon="13.5610954"><ele>441.0</ele><time>2026-04-24T12:34:39.263Z</time></trkpt><trkpt lat="46.1728107" lon="13.5610984"><ele>441.0</ele><time>2026-04-24T12:34:41.263Z</time></trkpt><trkpt lat="46.1727377" lon="13.5610285"><ele>441.0</ele><time>2026-04-24T12:34:42.263Z</time></trkpt><trkpt lat="46.1726579" lon="13.5609314"><ele>441.0</ele><time>2026-04-24T12:34:43.264Z</time></trkpt><trkpt lat="46.1725962" lon="13.5607939"><ele>441.0</ele><time>2026-04-24T12:34:44.264Z</time></trkpt><trkpt lat="46.1725294" lon="13.5606339"><ele>441.0</ele><time>2026-04-24T12:34:45.263Z</time></trkpt><trkpt lat="46.172525" lon="13.5604095"><ele>439.0</ele><time>2026-04-24T12:34:46.263Z</time></trkpt><trkpt lat="46.1725329" lon="13.5602167"><ele>437.0</ele><time>2026-04-24T12:34:47.262Z</time></trkpt><trkpt lat="46.1725321" lon="13.5600205"><ele>435.0</ele><time>2026-04-24T12:34:48.262Z</time></trkpt><trkpt lat="46.1725406" lon="13.5598465"><ele>433.0</ele><time>2026-04-24T12:34:49.262Z</time></trkpt><trkpt lat="46.1725559" lon="13.5596748"><ele>433.0</ele><time>2026-04-24T12:34:50.264Z</time></trkpt><trkpt lat="46.1725966" lon="13.5595663"><ele>432.99999999999994</ele><time>2026-04-24T12:34:51.263Z</time></trkpt><trkpt lat="46.1725689" lon="13.5593962"><ele>432.99999999999994</ele><time>2026-04-24T12:34:52.263Z</time></trkpt><trkpt lat="46.1725522" lon="13.5592801"><ele>433.0</ele><time>2026-04-24T12:34:53.262Z</time></trkpt><trkpt lat="46.1725289" lon="13.559147"><ele>433.0</ele><time>2026-04-24T12:34:54.264Z</time></trkpt><trkpt lat="46.1724627" lon="13.5590157"><ele>430.6666666666667</ele><time>2026-04-24T12:34:55.263Z</time></trkpt><trkpt lat="46.1723176" lon="13.5589184"><ele>428.33333333333337</ele><time>2026-04-24T12:34:56.263Z</time></trkpt><trkpt lat="46.1722029" lon="13.558803"><ele>426.0</ele><time>2026-04-24T12:34:57.263Z</time></trkpt><trkpt lat="46.1720719" lon="13.5586347"><ele>426.0</ele><time>2026-04-24T12:34:58.262Z</time></trkpt><trkpt lat="46.1719667" lon="13.5584838"><ele>426.0</ele><time>2026-04-24T12:34:59.263Z</time></trkpt><trkpt lat="46.1718871" lon="13.5583182"><ele>426.0</ele><time>2026-04-24T12:35:00.262Z</time></trkpt><trkpt lat="46.1718054" lon="13.5581661"><ele>426.0</ele><time>2026-04-24T12:35:01.262Z</time></trkpt><trkpt lat="46.1717544" lon="13.5580155"><ele>426.0</ele><time>2026-04-24T12:35:02.262Z</time></trkpt><trkpt lat="46.1716994" lon="13.5578855"><ele>426.0</ele><time>2026-04-24T12:35:03.263Z</time></trkpt><trkpt lat="46.1717306" lon="13.5577589"><ele>426.0</ele><time>2026-04-24T12:35:04.264Z</time></trkpt><trkpt lat="46.1717258" lon="13.5576185"><ele>426.0</ele><time>2026-04-24T12:35:05.263Z</time></trkpt><trkpt lat="46.1717241" lon="13.557485"><ele>426.0</ele><time>2026-04-24T12:35:06.263Z</time></trkpt><trkpt lat="46.1716879" lon="13.5573905"><ele>429.4</ele><time>2026-04-24T12:35:07.263Z</time></trkpt><trkpt lat="46.171648" lon="13.557283"><ele>432.8</ele><time>2026-04-24T12:35:08.262Z</time></trkpt><trkpt lat="46.1715447" lon="13.5572235"><ele>436.19999999999993</ele><time>2026-04-24T12:35:09.262Z</time></trkpt><trkpt lat="46.1714588" lon="13.5571445"><ele>439.59999999999997</ele><time>2026-04-24T12:35:10.262Z</time></trkpt><trkpt lat="46.1713758" lon="13.5572352"><ele>443.0</ele><time>2026-04-24T12:35:11.263Z</time></trkpt><trkpt lat="46.1713197" lon="13.5573072"><ele>433.4</ele><time>2026-04-24T12:35:12.264Z</time></trkpt><trkpt lat="46.1712571" lon="13.5573691"><ele>423.79999999999995</ele><time>2026-04-24T12:35:13.264Z</time></trkpt><trkpt lat="46.1713093" lon="13.5575481"><ele>414.2</ele><time>2026-04-24T12:35:15.262Z</time></trkpt><trkpt lat="46.1713674" lon="13.5576537"><ele>404.6</ele><time>2026-04-24T12:35:16.263Z</time></trkpt><trkpt lat="46.1714235" lon="13.5577204"><ele>395.0</ele><time>2026-04-24T12:35:17.263Z</time></trkpt><trkpt lat="46.1714971" lon="13.5578196"><ele>402.75</ele><time>2026-04-24T12:35:18.263Z</time></trkpt><trkpt lat="46.1715275" lon="13.5579203"><ele>410.5</ele><time>2026-04-24T12:35:19.264Z</time></trkpt><trkpt lat="46.1715261" lon="13.5581209"><ele>418.25</ele><time>2026-04-24T12:35:20.262Z</time></trkpt><trkpt lat="46.1715637" lon="13.5582542"><ele>426.0</ele><time>2026-04-24T12:35:21.263Z</time></trkpt><trkpt lat="46.1716044" lon="13.5584483"><ele>426.0</ele><time>2026-04-24T12:35:22.263Z</time></trkpt><trkpt lat="46.1716364" lon="13.5586295"><ele>426.0</ele><time>2026-04-24T12:35:23.263Z</time></trkpt><trkpt lat="46.171681" lon="13.5588172"><ele>426.0</ele><time>2026-04-24T12:35:24.262Z</time></trkpt><trkpt lat="46.1717489" lon="13.5589696"><ele>426.0</ele><time>2026-04-24T12:35:25.262Z</time></trkpt><trkpt lat="46.1717837" lon="13.5591273"><ele>417.6</ele><time>2026-04-24T12:35:26.264Z</time></trkpt><trkpt lat="46.1718199" lon="13.5592787"><ele>409.20000000000005</ele><time>2026-04-24T12:35:27.263Z</time></trkpt><trkpt lat="46.1719245" lon="13.5593711"><ele>400.79999999999995</ele><time>2026-04-24T12:35:28.264Z</time></trkpt><trkpt lat="46.171986" lon="13.559493"><ele>392.4</ele><time>2026-04-24T12:35:29.264Z</time></trkpt><trkpt lat="46.1720666" lon="13.5595985"><ele>384.0</ele><time>2026-04-24T12:35:30.263Z</time></trkpt><trkpt lat="46.1721094" lon="13.5597305"><ele>384.0</ele><time>2026-04-24T12:35:32.263Z</time></trkpt><trkpt lat="46.1720555" lon="13.5598162"><ele>384.0</ele><time>2026-04-24T12:35:34.263Z</time></trkpt><trkpt lat="46.1719928" lon="13.5597375"><ele>384.0</ele><time>2026-04-24T12:35:35.262Z</time></trkpt><trkpt lat="46.1718654" lon="13.5595724"><ele>384.0</ele><time>2026-04-24T12:35:37.263Z</time></trkpt><trkpt lat="46.171782" lon="13.5594836"><ele>384.0</ele><time>2026-04-24T12:35:38.263Z</time></trkpt><trkpt lat="46.1716813" lon="13.5593738"><ele>375.5</ele><time>2026-04-24T12:35:39.262Z</time></trkpt><trkpt lat="46.1715485" lon="13.5592775"><ele>367.0</ele><time>2026-04-24T12:35:40.262Z</time></trkpt><trkpt lat="46.1714418" lon="13.5591776"><ele>358.5</ele><time>2026-04-24T12:35:41.263Z</time></trkpt><trkpt lat="46.1713555" lon="13.5590607"><ele>350.0</ele><time>2026-04-24T12:35:42.264Z</time></trkpt><trkpt lat="46.1712957" lon="13.5588861"><ele>350.0</ele><time>2026-04-24T12:35:43.263Z</time></trkpt><trkpt lat="46.1712926" lon="13.5587616"><ele>350.0</ele><time>2026-04-24T12:35:44.263Z</time></trkpt><trkpt lat="46.1713295" lon="13.5585795"><ele>350.0</ele><time>2026-04-24T12:35:45.263Z</time></trkpt><trkpt lat="46.1713128" lon="13.558416"><ele>350.0</ele><time>2026-04-24T12:35:46.263Z</time></trkpt><trkpt lat="46.1712842" lon="13.5582591"><ele>350.0</ele><time>2026-04-24T12:35:47.262Z</time></trkpt><trkpt lat="46.1712642" lon="13.5581008"><ele>355.25</ele><time>2026-04-24T12:35:48.262Z</time></trkpt><trkpt lat="46.1711782" lon="13.5579182"><ele>360.5</ele><time>2026-04-24T12:35:49.262Z</time></trkpt><trkpt lat="46.1711185" lon="13.557852"><ele>365.75</ele><time>2026-04-24T12:35:50.262Z</time></trkpt><trkpt lat="46.1709517" lon="13.557801"><ele>371.0</ele><time>2026-04-24T12:35:51.262Z</time></trkpt><trkpt lat="46.1708382" lon="13.5577251"><ele>368.6666666666667</ele><time>2026-04-24T12:35:52.263Z</time></trkpt><trkpt lat="46.1706736" lon="13.5576912"><ele>366.3333333333333</ele><time>2026-04-24T12:35:53.264Z</time></trkpt><trkpt lat="46.1705398" lon="13.5576255"><ele>364.0</ele><time>2026-04-24T12:35:54.263Z</time></trkpt><trkpt lat="46.1703974" lon="13.5575678"><ele>364.0</ele><time>2026-04-24T12:35:55.264Z</time></trkpt><trkpt lat="46.1702663" lon="13.5574793"><ele>364.0</ele><time>2026-04-24T12:35:56.262Z</time></trkpt><trkpt lat="46.1701341" lon="13.5573809"><ele>364.0</ele><time>2026-04-24T12:35:57.263Z</time></trkpt><trkpt lat="46.1700226" lon="13.557299"><ele>364.0</ele><time>2026-04-24T12:35:58.263Z</time></trkpt><trkpt lat="46.16993" lon="13.5572316"><ele>364.0</ele><time>2026-04-24T12:35:59.263Z</time></trkpt><trkpt lat="46.1698516" lon="13.5571979"><ele>364.0</ele><time>2026-04-24T12:36:00.264Z</time></trkpt><trkpt lat="46.1697595" lon="13.557252"><ele>364.0</ele><time>2026-04-24T12:36:02.263Z</time></trkpt><trkpt lat="46.1697569" lon="13.5573567"><ele>364.0</ele><time>2026-04-24T12:36:03.263Z</time></trkpt><trkpt lat="46.1698131" lon="13.5575156"><ele>364.0</ele><time>2026-04-24T12:36:05.263Z</time></trkpt><trkpt lat="46.1698808" lon="13.5576033"><ele>364.0</ele><time>2026-04-24T12:36:06.262Z</time></trkpt><trkpt lat="46.1700531" lon="13.557698"><ele>364.0</ele><time>2026-04-24T12:36:07.261Z</time></trkpt><trkpt lat="46.1701512" lon="13.5578013"><ele>364.0</ele><time>2026-04-24T12:36:08.262Z</time></trkpt><trkpt lat="46.1702507" lon="13.5579119"><ele>364.0</ele><time>2026-04-24T12:36:09.262Z</time></trkpt><trkpt lat="46.1703489" lon="13.5580223"><ele>365.4</ele><time>2026-04-24T12:36:10.261Z</time></trkpt><trkpt lat="46.1704465" lon="13.5581313"><ele>366.79999999999995</ele><time>2026-04-24T12:36:11.262Z</time></trkpt><trkpt lat="46.170533" lon="13.5582238"><ele>368.20000000000005</ele><time>2026-04-24T12:36:12.261Z</time></trkpt><trkpt lat="46.170606" lon="13.5582969"><ele>369.6</ele><time>2026-04-24T12:36:13.263Z</time></trkpt><trkpt lat="46.1706516" lon="13.5583681"><ele>371.0</ele><time>2026-04-24T12:36:14.263Z</time></trkpt><trkpt lat="46.170693" lon="13.5584491"><ele>361.25</ele><time>2026-04-24T12:36:15.262Z</time></trkpt><trkpt lat="46.1705691" lon="13.5584797"><ele>351.5</ele><time>2026-04-24T12:36:17.262Z</time></trkpt><trkpt lat="46.1704675" lon="13.5583278"><ele>341.75</ele><time>2026-04-24T12:36:19.262Z</time></trkpt><trkpt lat="46.1703724" lon="13.5582486"><ele>332.0</ele><time>2026-04-24T12:36:20.263Z</time></trkpt><trkpt lat="46.1702581" lon="13.5581857"><ele>332.0</ele><time>2026-04-24T12:36:21.263Z</time></trkpt><trkpt lat="46.1701344" lon="13.5581115"><ele>332.0</ele><time>2026-04-24T12:36:22.262Z</time></trkpt><trkpt lat="46.1700085" lon="13.5580365"><ele>332.0</ele><time>2026-04-24T12:36:23.262Z</time></trkpt><trkpt lat="46.1698756" lon="13.557966"><ele>332.0</ele><time>2026-04-24T12:36:24.263Z</time></trkpt><trkpt lat="46.169738" lon="13.5579001"><ele>330.33333333333337</ele><time>2026-04-24T12:36:25.262Z</time></trkpt><trkpt lat="46.1695942" lon="13.5578255"><ele>328.6666666666667</ele><time>2026-04-24T12:36:26.262Z</time></trkpt><trkpt lat="46.1694553" lon="13.557722"><ele>327.0</ele><time>2026-04-24T12:36:27.262Z</time></trkpt><trkpt lat="46.1693103" lon="13.5576007"><ele>327.0</ele><time>2026-04-24T12:36:28.262Z</time></trkpt><trkpt lat="46.1691671" lon="13.5574557"><ele>327.0</ele><time>2026-04-24T12:36:29.262Z</time></trkpt><trkpt lat="46.1690296" lon="13.5572947"><ele>327.0</ele><time>2026-04-24T12:36:30.262Z</time></trkpt><trkpt lat="46.1688891" lon="13.5571367"><ele>321.6666666666667</ele><time>2026-04-24T12:36:31.261Z</time></trkpt><trkpt lat="46.1687455" lon="13.5569887"><ele>316.33333333333337</ele><time>2026-04-24T12:36:32.263Z</time></trkpt><trkpt lat="46.1685976" lon="13.5568305"><ele>311.0</ele><time>2026-04-24T12:36:33.262Z</time></trkpt><trkpt lat="46.1684567" lon="13.5566785"><ele>311.0</ele><time>2026-04-24T12:36:34.262Z</time></trkpt><trkpt lat="46.1683374" lon="13.5565285"><ele>311.0</ele><time>2026-04-24T12:36:35.262Z</time></trkpt><trkpt lat="46.1682274" lon="13.556363"><ele>311.0</ele><time>2026-04-24T12:36:36.263Z</time></trkpt><trkpt lat="46.1681389" lon="13.5561659"><ele>307.33333333333337</ele><time>2026-04-24T12:36:37.262Z</time></trkpt><trkpt lat="46.1680415" lon="13.5559622"><ele>303.6666666666667</ele><time>2026-04-24T12:36:38.261Z</time></trkpt><trkpt lat="46.1679484" lon="13.5557541"><ele>300.0</ele><time>2026-04-24T12:36:39.262Z</time></trkpt><trkpt lat="46.1678354" lon="13.5555633"><ele>300.0</ele><time>2026-04-24T12:36:40.261Z</time></trkpt><trkpt lat="46.1677065" lon="13.5553949"><ele>300.0</ele><time>2026-04-24T12:36:41.262Z</time></trkpt><trkpt lat="46.1675719" lon="13.5552284"><ele>300.0</ele><time>2026-04-24T12:36:42.261Z</time></trkpt><trkpt lat="46.1674387" lon="13.555058"><ele>298.6666666666667</ele><time>2026-04-24T12:36:43.262Z</time></trkpt><trkpt lat="46.167332" lon="13.5548548"><ele>297.33333333333337</ele><time>2026-04-24T12:36:44.263Z</time></trkpt><trkpt lat="46.1672274" lon="13.5546593"><ele>296.0</ele><time>2026-04-24T12:36:45.263Z</time></trkpt><trkpt lat="46.1671302" lon="13.5544603"><ele>296.0</ele><time>2026-04-24T12:36:46.262Z</time></trkpt><trkpt lat="46.1670312" lon="13.5542725"><ele>296.0</ele><time>2026-04-24T12:36:47.263Z</time></trkpt><trkpt lat="46.1669277" lon="13.5540951"><ele>296.0</ele><time>2026-04-24T12:36:48.262Z</time></trkpt><trkpt lat="46.1668233" lon="13.5539255"><ele>296.0</ele><time>2026-04-24T12:36:49.261Z</time></trkpt><trkpt lat="46.1667166" lon="13.5537543"><ele>296.0</ele><time>2026-04-24T12:36:50.261Z</time></trkpt><trkpt lat="46.1666119" lon="13.5536029"><ele>296.0</ele><time>2026-04-24T12:36:51.262Z</time></trkpt><trkpt lat="46.1665171" lon="13.5534637"><ele>296.0</ele><time>2026-04-24T12:36:52.261Z</time></trkpt><trkpt lat="46.1664333" lon="13.5533378"><ele>296.0</ele><time>2026-04-24T12:36:53.263Z</time></trkpt><trkpt lat="46.1663616" lon="13.5532069"><ele>296.0</ele><time>2026-04-24T12:36:54.262Z</time></trkpt><trkpt lat="46.1663045" lon="13.5530662"><ele>296.0</ele><time>2026-04-24T12:36:55.263Z</time></trkpt><trkpt lat="46.1662444" lon="13.5529152"><ele>296.0</ele><time>2026-04-24T12:36:56.263Z</time></trkpt><trkpt lat="46.1661796" lon="13.5527504"><ele>296.5</ele><time>2026-04-24T12:36:57.263Z</time></trkpt><trkpt lat="46.1661026" lon="13.5525899"><ele>297.0</ele><time>2026-04-24T12:36:58.262Z</time></trkpt><trkpt lat="46.1659974" lon="13.5524471"><ele>297.5</ele><time>2026-04-24T12:36:59.262Z</time></trkpt><trkpt lat="46.1658858" lon="13.5523136"><ele>298.0</ele><time>2026-04-24T12:37:00.263Z</time></trkpt><trkpt lat="46.1657562" lon="13.5522329"><ele>296.75</ele><time>2026-04-24T12:37:01.263Z</time></trkpt><trkpt lat="46.1656171" lon="13.5521927"><ele>295.5</ele><time>2026-04-24T12:37:02.261Z</time></trkpt><trkpt lat="46.165485" lon="13.5521394"><ele>294.25</ele><time>2026-04-24T12:37:03.261Z</time></trkpt><trkpt lat="46.1653747" lon="13.5520979"><ele>293.0</ele><time>2026-04-24T12:37:04.262Z</time></trkpt><trkpt lat="46.1652771" lon="13.552021"><ele>293.0</ele><time>2026-04-24T12:37:05.261Z</time></trkpt><trkpt lat="46.1651832" lon="13.551939"><ele>293.0</ele><time>2026-04-24T12:37:06.262Z</time></trkpt><trkpt lat="46.1651139" lon="13.5518167"><ele>293.0</ele><time>2026-04-24T12:37:07.261Z</time></trkpt><trkpt lat="46.1650416" lon="13.5516694"><ele>293.0</ele><time>2026-04-24T12:37:08.262Z</time></trkpt><trkpt lat="46.1649618" lon="13.5514945"><ele>293.0</ele><time>2026-04-24T12:37:09.261Z</time></trkpt><trkpt lat="46.164875" lon="13.5513021"><ele>293.0</ele><time>2026-04-24T12:37:10.262Z</time></trkpt><trkpt lat="46.1647859" lon="13.5511091"><ele>293.0</ele><time>2026-04-24T12:37:11.262Z</time></trkpt><trkpt lat="46.1646923" lon="13.5509192"><ele>288.0</ele><time>2026-04-24T12:37:12.262Z</time></trkpt><trkpt lat="46.1645778" lon="13.5507585"><ele>283.0</ele><time>2026-04-24T12:37:13.261Z</time></trkpt><trkpt lat="46.1644832" lon="13.5505788"><ele>278.0</ele><time>2026-04-24T12:37:14.261Z</time></trkpt><trkpt lat="46.164377" lon="13.5503887"><ele>279.33333333333337</ele><time>2026-04-24T12:37:15.261Z</time></trkpt><trkpt lat="46.1643317" lon="13.5501489"><ele>280.6666666666667</ele><time>2026-04-24T12:37:16.262Z</time></trkpt><trkpt lat="46.1642563" lon="13.5499372"><ele>282.0</ele><time>2026-04-24T12:37:17.262Z</time></trkpt><trkpt lat="46.1641892" lon="13.5497079"><ele>283.6666666666667</ele><time>2026-04-24T12:37:18.263Z</time></trkpt><trkpt lat="46.1641294" lon="13.5494687"><ele>285.33333333333337</ele><time>2026-04-24T12:37:19.263Z</time></trkpt><trkpt lat="46.1640711" lon="13.5492254"><ele>287.0</ele><time>2026-04-24T12:37:20.262Z</time></trkpt><trkpt lat="46.1640176" lon="13.5489811"><ele>287.0</ele><time>2026-04-24T12:37:21.262Z</time></trkpt><trkpt lat="46.163944" lon="13.5487461"><ele>287.0</ele><time>2026-04-24T12:37:22.262Z</time></trkpt><trkpt lat="46.1638599" lon="13.548505"><ele>287.0</ele><time>2026-04-24T12:37:23.262Z</time></trkpt><trkpt lat="46.1637761" lon="13.548261"><ele>283.33333333333337</ele><time>2026-04-24T12:37:24.263Z</time></trkpt><trkpt lat="46.1636872" lon="13.5480189"><ele>279.6666666666667</ele><time>2026-04-24T12:37:25.262Z</time></trkpt><trkpt lat="46.1635949" lon="13.5477838"><ele>276.0</ele><time>2026-04-24T12:37:26.263Z</time></trkpt><trkpt lat="46.163494" lon="13.5475609"><ele>275.0</ele><time>2026-04-24T12:37:27.261Z</time></trkpt><trkpt lat="46.1633959" lon="13.5473444"><ele>274.0</ele><time>2026-04-24T12:37:28.261Z</time></trkpt><trkpt lat="46.1633102" lon="13.5471274"><ele>273.0</ele><time>2026-04-24T12:37:29.261Z</time></trkpt><trkpt lat="46.1632336" lon="13.5469108"><ele>271.0</ele><time>2026-04-24T12:37:30.261Z</time></trkpt><trkpt lat="46.1631618" lon="13.5466913"><ele>269.0</ele><time>2026-04-24T12:37:31.262Z</time></trkpt><trkpt lat="46.163089" lon="13.5464837"><ele>267.0</ele><time>2026-04-24T12:37:32.261Z</time></trkpt><trkpt lat="46.1630025" lon="13.5462948"><ele>263.3333333333333</ele><time>2026-04-24T12:37:33.261Z</time></trkpt><trkpt lat="46.1628996" lon="13.5461278"><ele>259.66666666666663</ele><time>2026-04-24T12:37:34.262Z</time></trkpt><trkpt lat="46.1628" lon="13.545958"><ele>256.0</ele><time>2026-04-24T12:37:35.262Z</time></trkpt><trkpt lat="46.1626999" lon="13.5457984"><ele>256.0</ele><time>2026-04-24T12:37:36.263Z</time></trkpt><trkpt lat="46.1626205" lon="13.5456025"><ele>256.0</ele><time>2026-04-24T12:37:37.261Z</time></trkpt><trkpt lat="46.1625493" lon="13.5453874"><ele>256.0</ele><time>2026-04-24T12:37:38.261Z</time></trkpt><trkpt lat="46.162487" lon="13.545169"><ele>255.66666666666666</ele><time>2026-04-24T12:37:39.261Z</time></trkpt><trkpt lat="46.1624222" lon="13.5449372"><ele>255.33333333333331</ele><time>2026-04-24T12:37:40.262Z</time></trkpt><trkpt lat="46.1623505" lon="13.5447059"><ele>255.0</ele><time>2026-04-24T12:37:41.263Z</time></trkpt><trkpt lat="46.1622672" lon="13.5444774"><ele>255.0</ele><time>2026-04-24T12:37:42.263Z</time></trkpt><trkpt lat="46.1621774" lon="13.5442517"><ele>255.0</ele><time>2026-04-24T12:37:43.262Z</time></trkpt><trkpt lat="46.1620749" lon="13.5440308"><ele>255.0</ele><time>2026-04-24T12:37:44.262Z</time></trkpt><trkpt lat="46.1619704" lon="13.5438094"><ele>254.66666666666669</ele><time>2026-04-24T12:37:45.261Z</time></trkpt><trkpt lat="46.1618564" lon="13.5435965"><ele>254.33333333333334</ele><time>2026-04-24T12:37:46.261Z</time></trkpt><trkpt lat="46.1617354" lon="13.5433849"><ele>254.0</ele><time>2026-04-24T12:37:47.263Z</time></trkpt><trkpt lat="46.1616175" lon="13.5431836"><ele>255.66666666666669</ele><time>2026-04-24T12:37:48.262Z</time></trkpt><trkpt lat="46.161507" lon="13.5429902"><ele>257.3333333333333</ele><time>2026-04-24T12:37:49.263Z</time></trkpt><trkpt lat="46.1614036" lon="13.5427988"><ele>259.0</ele><time>2026-04-24T12:37:50.263Z</time></trkpt><trkpt lat="46.1613129" lon="13.5426044"><ele>259.0</ele><time>2026-04-24T12:37:51.263Z</time></trkpt><trkpt lat="46.161242" lon="13.5424097"><ele>259.0</ele><time>2026-04-24T12:37:52.262Z</time></trkpt><trkpt lat="46.1611913" lon="13.5422227"><ele>259.0</ele><time>2026-04-24T12:37:53.261Z</time></trkpt><trkpt lat="46.1611562" lon="13.5420224"><ele>259.0</ele><time>2026-04-24T12:37:54.261Z</time></trkpt><trkpt lat="46.1611433" lon="13.5418215"><ele>257.5</ele><time>2026-04-24T12:37:55.262Z</time></trkpt><trkpt lat="46.1611438" lon="13.5416159"><ele>256.0</ele><time>2026-04-24T12:37:56.261Z</time></trkpt><trkpt lat="46.1611493" lon="13.5414002"><ele>254.5</ele><time>2026-04-24T12:37:57.261Z</time></trkpt><trkpt lat="46.1611567" lon="13.541184"><ele>253.0</ele><time>2026-04-24T12:37:58.262Z</time></trkpt><trkpt lat="46.16117" lon="13.5409628"><ele>252.5</ele><time>2026-04-24T12:37:59.263Z</time></trkpt><trkpt lat="46.1611843" lon="13.540742"><ele>252.0</ele><time>2026-04-24T12:38:00.263Z</time></trkpt><trkpt lat="46.1611932" lon="13.5405295"><ele>251.5</ele><time>2026-04-24T12:38:01.262Z</time></trkpt><trkpt lat="46.1612009" lon="13.5403284"><ele>251.0</ele><time>2026-04-24T12:38:02.262Z</time></trkpt><trkpt lat="46.1611867" lon="13.5401309"><ele>249.66666666666669</ele><time>2026-04-24T12:38:03.263Z</time></trkpt><trkpt lat="46.161146" lon="13.5399238"><ele>248.33333333333331</ele><time>2026-04-24T12:38:04.261Z</time></trkpt><trkpt lat="46.1610962" lon="13.5397149"><ele>247.0</ele><time>2026-04-24T12:38:05.263Z</time></trkpt><trkpt lat="46.1610384" lon="13.5394947"><ele>246.66666666666666</ele><time>2026-04-24T12:38:06.262Z</time></trkpt><trkpt lat="46.1609831" lon="13.5392904"><ele>246.33333333333331</ele><time>2026-04-24T12:38:07.262Z</time></trkpt><trkpt lat="46.1609131" lon="13.539074"><ele>246.0</ele><time>2026-04-24T12:38:08.262Z</time></trkpt><trkpt lat="46.1608389" lon="13.5388589"><ele>246.0</ele><time>2026-04-24T12:38:09.262Z</time></trkpt><trkpt lat="46.1607579" lon="13.5386276"><ele>246.0</ele><time>2026-04-24T12:38:10.261Z</time></trkpt><trkpt lat="46.1606789" lon="13.5383896"><ele>246.0</ele><time>2026-04-24T12:38:11.261Z</time></trkpt><trkpt lat="46.1606008" lon="13.5381663"><ele>246.0</ele><time>2026-04-24T12:38:12.263Z</time></trkpt><trkpt lat="46.160531" lon="13.5379698"><ele>246.0</ele><time>2026-04-24T12:38:13.262Z</time></trkpt><trkpt lat="46.1604689" lon="13.5377873"><ele>246.0</ele><time>2026-04-24T12:38:14.261Z</time></trkpt><trkpt lat="46.1604162" lon="13.5376209"><ele>246.0</ele><time>2026-04-24T12:38:15.262Z</time></trkpt><trkpt lat="46.1603767" lon="13.5374617"><ele>244.5</ele><time>2026-04-24T12:38:16.262Z</time></trkpt><trkpt lat="46.1603646" lon="13.5372906"><ele>243.0</ele><time>2026-04-24T12:38:17.263Z</time></trkpt><trkpt lat="46.1603671" lon="13.5371029"><ele>241.5</ele><time>2026-04-24T12:38:18.262Z</time></trkpt><trkpt lat="46.1603744" lon="13.5369045"><ele>240.0</ele><time>2026-04-24T12:38:19.262Z</time></trkpt><trkpt lat="46.1603777" lon="13.5367014"><ele>237.75</ele><time>2026-04-24T12:38:20.262Z</time></trkpt><trkpt lat="46.160372" lon="13.5364979"><ele>235.5</ele><time>2026-04-24T12:38:21.263Z</time></trkpt><trkpt lat="46.1603507" lon="13.5362945"><ele>233.25</ele><time>2026-04-24T12:38:22.262Z</time></trkpt><trkpt lat="46.1603157" lon="13.5360886"><ele>231.0</ele><time>2026-04-24T12:38:23.262Z</time></trkpt><trkpt lat="46.1602699" lon="13.5358877"><ele>229.25</ele><time>2026-04-24T12:38:24.262Z</time></trkpt><trkpt lat="46.1602115" lon="13.5357039"><ele>227.5</ele><time>2026-04-24T12:38:25.263Z</time></trkpt><trkpt lat="46.1601484" lon="13.5355354"><ele>225.75</ele><time>2026-04-24T12:38:26.262Z</time></trkpt><trkpt lat="46.1600745" lon="13.5353735"><ele>224.0</ele><time>2026-04-24T12:38:27.263Z</time></trkpt><trkpt lat="46.1599989" lon="13.5352126"><ele>223.6</ele><time>2026-04-24T12:38:28.262Z</time></trkpt><trkpt lat="46.159928" lon="13.5350667"><ele>223.2</ele><time>2026-04-24T12:38:29.262Z</time></trkpt><trkpt lat="46.1598683" lon="13.5349393"><ele>222.79999999999998</ele><time>2026-04-24T12:38:30.261Z</time></trkpt><trkpt lat="46.1598214" lon="13.534825"><ele>222.39999999999998</ele><time>2026-04-24T12:38:31.261Z</time></trkpt><trkpt lat="46.1597853" lon="13.5347059"><ele>222.0</ele><time>2026-04-24T12:38:32.261Z</time></trkpt><trkpt lat="46.1597795" lon="13.5345787"><ele>221.33333333333334</ele><time>2026-04-24T12:38:33.261Z</time></trkpt><trkpt lat="46.1597834" lon="13.534441"><ele>220.66666666666669</ele><time>2026-04-24T12:38:34.261Z</time></trkpt><trkpt lat="46.1597793" lon="13.5342956"><ele>220.0</ele><time>2026-04-24T12:38:35.262Z</time></trkpt><trkpt lat="46.1597846" lon="13.5341656"><ele>219.33333333333334</ele><time>2026-04-24T12:38:36.262Z</time></trkpt><trkpt lat="46.1597936" lon="13.5340514"><ele>218.66666666666669</ele><time>2026-04-24T12:38:37.262Z</time></trkpt><trkpt lat="46.1597975" lon="13.5339587"><ele>218.0</ele><time>2026-04-24T12:38:38.263Z</time></trkpt><trkpt lat="46.1597837" lon="13.5338694"><ele>218.00000000000003</ele><time>2026-04-24T12:38:39.261Z</time></trkpt><trkpt lat="46.1597413" lon="13.5337807"><ele>218.0</ele><time>2026-04-24T12:38:40.262Z</time></trkpt><trkpt lat="46.1596884" lon="13.5336856"><ele>218.0</ele><time>2026-04-24T12:38:41.261Z</time></trkpt><trkpt lat="46.1596326" lon="13.5335982"><ele>218.0</ele><time>2026-04-24T12:38:42.261Z</time></trkpt><trkpt lat="46.1595797" lon="13.5335393"><ele>218.00000000000003</ele><time>2026-04-24T12:38:43.261Z</time></trkpt><trkpt lat="46.1595123" lon="13.5335034"><ele>218.0</ele><time>2026-04-24T12:38:44.261Z</time></trkpt><trkpt lat="46.1594359" lon="13.53349"><ele>217.66666666666669</ele><time>2026-04-24T12:38:45.263Z</time></trkpt><trkpt lat="46.1593571" lon="13.5334813"><ele>217.33333333333334</ele><time>2026-04-24T12:38:46.262Z</time></trkpt><trkpt lat="46.1592778" lon="13.5334836"><ele>217.0</ele><time>2026-04-24T12:38:47.261Z</time></trkpt><trkpt lat="46.1591986" lon="13.5334878"><ele>216.66666666666669</ele><time>2026-04-24T12:38:48.261Z</time></trkpt><trkpt lat="46.1591201" lon="13.5334905"><ele>216.33333333333334</ele><time>2026-04-24T12:38:49.263Z</time></trkpt><trkpt lat="46.1590477" lon="13.533494"><ele>216.0</ele><time>2026-04-24T12:38:50.262Z</time></trkpt><trkpt lat="46.1589796" lon="13.5334912"><ele>215.4</ele><time>2026-04-24T12:38:51.262Z</time></trkpt><trkpt lat="46.1589161" lon="13.5334757"><ele>214.8</ele><time>2026-04-24T12:38:52.261Z</time></trkpt><trkpt lat="46.1588068" lon="13.5334032"><ele>214.20000000000002</ele><time>2026-04-24T12:38:54.261Z</time></trkpt><trkpt lat="46.1587099" lon="13.5332904"><ele>213.60000000000002</ele><time>2026-04-24T12:38:56.262Z</time></trkpt><trkpt lat="46.1586565" lon="13.5332191"><ele>213.0</ele><time>2026-04-24T12:38:57.262Z</time></trkpt><trkpt lat="46.1585998" lon="13.5331369"><ele>213.0</ele><time>2026-04-24T12:38:58.261Z</time></trkpt><trkpt lat="46.1585407" lon="13.5330515"><ele>213.0</ele><time>2026-04-24T12:38:59.263Z</time></trkpt><trkpt lat="46.1584885" lon="13.5329759"><ele>213.0</ele><time>2026-04-24T12:39:00.262Z</time></trkpt><trkpt lat="46.1584091" lon="13.5328701"><ele>213.0</ele><time>2026-04-24T12:39:02.261Z</time></trkpt><trkpt lat="46.1583448" lon="13.5328564"><ele>213.0</ele><time>2026-04-24T12:39:05.262Z</time></trkpt><trkpt lat="46.1583876" lon="13.5329573"><ele>213.0</ele><time>2026-04-24T12:39:08.261Z</time></trkpt><trkpt lat="46.1584857" lon="13.5330192"><ele>213.0</ele><time>2026-04-24T12:39:10.261Z</time></trkpt><trkpt lat="46.1585358" lon="13.5330904"><ele>213.0</ele><time>2026-04-24T12:39:11.26Z</time></trkpt><trkpt lat="46.1585746" lon="13.5331673"><ele>213.0</ele><time>2026-04-24T12:39:12.261Z</time></trkpt><trkpt lat="46.1586545" lon="13.5332913"><ele>213.0</ele><time>2026-04-24T12:39:14.26Z</time></trkpt><trkpt lat="46.1587079" lon="13.5333835"><ele>213.0</ele><time>2026-04-24T12:39:16.262Z</time></trkpt><trkpt lat="46.1587456" lon="13.533457"><ele>213.0</ele><time>2026-04-24T12:39:18.262Z</time></trkpt><trkpt lat="46.1586975" lon="13.5335501"><ele>213.0</ele><time>2026-04-24T12:39:21.261Z</time></trkpt><trkpt lat="46.1586641" lon="13.533637"><ele>213.0</ele><time>2026-04-24T12:39:24.26Z</time></trkpt><trkpt lat="46.1586992" lon="13.5335517"><ele>213.0</ele><time>2026-04-24T12:40:58.261Z</time></trkpt><trkpt lat="46.1587329" lon="13.5334211"><ele>213.0</ele><time>2026-04-24T12:49:07.256Z</time></trkpt><trkpt lat="46.1586693" lon="13.5334684"><ele>213.0</ele><time>2026-04-24T12:49:56.257Z</time></trkpt><trkpt lat="46.1586578" lon="13.5335742"><ele>213.0</ele><time>2026-04-24T12:50:00.258Z</time></trkpt><trkpt lat="46.1586197" lon="13.5336738"><ele>213.0</ele><time>2026-04-24T12:52:20.254Z</time></trkpt><trkpt lat="46.1585955" lon="13.5337767"><ele>213.0</ele><time>2026-04-24T12:52:23.255Z</time></trkpt><trkpt lat="46.1585957" lon="13.5336706"><ele>213.0</ele><time>2026-04-24T12:52:29.254Z</time></trkpt><trkpt lat="46.1586533" lon="13.5335818"><ele>213.0</ele><time>2026-04-24T12:52:31.255Z</time></trkpt><trkpt lat="46.1587133" lon="13.5335093"><ele>213.0</ele><time>2026-04-24T12:52:33.255Z</time></trkpt><trkpt lat="46.1587332" lon="13.5334004"><ele>213.0</ele><time>2026-04-24T12:52:37.255Z</time></trkpt><trkpt lat="46.1586676" lon="13.5332675"><ele>213.0</ele><time>2026-04-24T12:52:39.256Z</time></trkpt><trkpt lat="46.158585" lon="13.5331286"><ele>213.0</ele><time>2026-04-24T12:52:41.255Z</time></trkpt><trkpt lat="46.1585356" lon="13.5330473"><ele>213.0</ele><time>2026-04-24T12:52:42.255Z</time></trkpt><trkpt lat="46.1584824" lon="13.5329517"><ele>213.0</ele><time>2026-04-24T12:52:43.255Z</time></trkpt><trkpt lat="46.1584277" lon="13.5328494"><ele>213.0</ele><time>2026-04-24T12:52:44.256Z</time></trkpt><trkpt lat="46.1583737" lon="13.5327405"><ele>212.60000000000002</ele><time>2026-04-24T12:52:45.254Z</time></trkpt><trkpt lat="46.1583144" lon="13.5326168"><ele>212.20000000000002</ele><time>2026-04-24T12:52:46.254Z</time></trkpt><trkpt lat="46.1582545" lon="13.5324938"><ele>211.8</ele><time>2026-04-24T12:52:47.255Z</time></trkpt><trkpt lat="46.1581934" lon="13.5323574"><ele>211.4</ele><time>2026-04-24T12:52:48.255Z</time></trkpt><trkpt lat="46.1581303" lon="13.5322189"><ele>211.0</ele><time>2026-04-24T12:52:49.256Z</time></trkpt><trkpt lat="46.1580614" lon="13.5320792"><ele>211.0</ele><time>2026-04-24T12:52:50.254Z</time></trkpt><trkpt lat="46.1579974" lon="13.531933"><ele>211.0</ele><time>2026-04-24T12:52:51.255Z</time></trkpt><trkpt lat="46.1579331" lon="13.5317928"><ele>211.0</ele><time>2026-04-24T12:52:52.256Z</time></trkpt><trkpt lat="46.1578738" lon="13.5316631"><ele>211.0</ele><time>2026-04-24T12:52:53.255Z</time></trkpt><trkpt lat="46.1578171" lon="13.5315363"><ele>211.0</ele><time>2026-04-24T12:52:54.254Z</time></trkpt><trkpt lat="46.1577618" lon="13.5314143"><ele>211.0</ele><time>2026-04-24T12:52:55.254Z</time></trkpt><trkpt lat="46.1577054" lon="13.5312924"><ele>211.0</ele><time>2026-04-24T12:52:56.254Z</time></trkpt><trkpt lat="46.1576506" lon="13.5311724"><ele>211.0</ele><time>2026-04-24T12:52:57.255Z</time></trkpt><trkpt lat="46.1575942" lon="13.5310459"><ele>211.0</ele><time>2026-04-24T12:52:58.255Z</time></trkpt><trkpt lat="46.1575371" lon="13.53092"><ele>211.0</ele><time>2026-04-24T12:52:59.254Z</time></trkpt><trkpt lat="46.1574788" lon="13.5307953"><ele>210.8</ele><time>2026-04-24T12:53:00.256Z</time></trkpt><trkpt lat="46.1574184" lon="13.5306716"><ele>210.60000000000002</ele><time>2026-04-24T12:53:01.255Z</time></trkpt><trkpt lat="46.1573569" lon="13.5305403"><ele>210.4</ele><time>2026-04-24T12:53:02.256Z</time></trkpt><trkpt lat="46.1572939" lon="13.5304121"><ele>210.2</ele><time>2026-04-24T12:53:03.254Z</time></trkpt><trkpt lat="46.1572266" lon="13.5302856"><ele>210.0</ele><time>2026-04-24T12:53:04.255Z</time></trkpt><trkpt lat="46.1571561" lon="13.5301582"><ele>210.0</ele><time>2026-04-24T12:53:05.255Z</time></trkpt><trkpt lat="46.1570783" lon="13.5300376"><ele>210.0</ele><time>2026-04-24T12:53:06.255Z</time></trkpt><trkpt lat="46.1569979" lon="13.5299175"><ele>210.0</ele><time>2026-04-24T12:53:07.254Z</time></trkpt><trkpt lat="46.1569125" lon="13.5297999"><ele>210.0</ele><time>2026-04-24T12:53:08.254Z</time></trkpt><trkpt lat="46.1568246" lon="13.5296837"><ele>210.0</ele><time>2026-04-24T12:53:09.255Z</time></trkpt><trkpt lat="46.1567389" lon="13.5295738"><ele>210.0</ele><time>2026-04-24T12:53:10.256Z</time></trkpt><trkpt lat="46.1566551" lon="13.5294534"><ele>210.0</ele><time>2026-04-24T12:53:11.255Z</time></trkpt><trkpt lat="46.1565716" lon="13.5293292"><ele>210.0</ele><time>2026-04-24T12:53:12.254Z</time></trkpt><trkpt lat="46.1564857" lon="13.529205"><ele>208.25</ele><time>2026-04-24T12:53:13.254Z</time></trkpt><trkpt lat="46.1563992" lon="13.5290695"><ele>206.5</ele><time>2026-04-24T12:53:14.255Z</time></trkpt><trkpt lat="46.1563151" lon="13.5289031"><ele>204.75</ele><time>2026-04-24T12:53:15.256Z</time></trkpt><trkpt lat="46.1562379" lon="13.5286919"><ele>203.0</ele><time>2026-04-24T12:53:16.256Z</time></trkpt><trkpt lat="46.1561662" lon="13.5284561"><ele>202.33333333333334</ele><time>2026-04-24T12:53:17.255Z</time></trkpt><trkpt lat="46.1560956" lon="13.5282357"><ele>201.66666666666669</ele><time>2026-04-24T12:53:18.255Z</time></trkpt><trkpt lat="46.1560253" lon="13.5280099"><ele>201.0</ele><time>2026-04-24T12:53:19.255Z</time></trkpt><trkpt lat="46.1559564" lon="13.5277825"><ele>201.0</ele><time>2026-04-24T12:53:20.255Z</time></trkpt><trkpt lat="46.1558888" lon="13.5275535"><ele>201.0</ele><time>2026-04-24T12:53:21.255Z</time></trkpt><trkpt lat="46.1558163" lon="13.52733"><ele>201.0</ele><time>2026-04-24T12:53:22.256Z</time></trkpt><trkpt lat="46.1557352" lon="13.5271121"><ele>200.66666666666669</ele><time>2026-04-24T12:53:23.255Z</time></trkpt><trkpt lat="46.1556442" lon="13.5269041"><ele>200.33333333333334</ele><time>2026-04-24T12:53:24.255Z</time></trkpt><trkpt lat="46.1555418" lon="13.5267058"><ele>200.0</ele><time>2026-04-24T12:53:25.256Z</time></trkpt><trkpt lat="46.1554356" lon="13.5265125"><ele>200.0</ele><time>2026-04-24T12:53:26.255Z</time></trkpt><trkpt lat="46.1553272" lon="13.5263169"><ele>200.0</ele><time>2026-04-24T12:53:27.255Z</time></trkpt><trkpt lat="46.1552167" lon="13.5261261"><ele>200.0</ele><time>2026-04-24T12:53:28.256Z</time></trkpt><trkpt lat="46.1551051" lon="13.5259313"><ele>200.33333333333334</ele><time>2026-04-24T12:53:29.255Z</time></trkpt><trkpt lat="46.1549943" lon="13.5257362"><ele>200.66666666666669</ele><time>2026-04-24T12:53:30.254Z</time></trkpt><trkpt lat="46.1548795" lon="13.5255354"><ele>201.0</ele><time>2026-04-24T12:53:31.254Z</time></trkpt><trkpt lat="46.1547664" lon="13.5253336"><ele>200.33333333333331</ele><time>2026-04-24T12:53:32.255Z</time></trkpt><trkpt lat="46.1546539" lon="13.5251365"><ele>199.66666666666666</ele><time>2026-04-24T12:53:33.254Z</time></trkpt><trkpt lat="46.1545445" lon="13.5249488"><ele>199.0</ele><time>2026-04-24T12:53:34.256Z</time></trkpt><trkpt lat="46.1544382" lon="13.5247589"><ele>199.0</ele><time>2026-04-24T12:53:35.254Z</time></trkpt><trkpt lat="46.1543365" lon="13.5245655"><ele>199.0</ele><time>2026-04-24T12:53:36.256Z</time></trkpt><trkpt lat="46.1542414" lon="13.5243688"><ele>199.0</ele><time>2026-04-24T12:53:37.255Z</time></trkpt><trkpt lat="46.1540411" lon="13.5237395"><ele>198.66666666666666</ele><time>2026-04-24T12:53:40.255Z</time></trkpt><trkpt lat="46.1540012" lon="13.5235314"><ele>198.33333333333331</ele><time>2026-04-24T12:53:41.256Z</time></trkpt><trkpt lat="46.1539642" lon="13.5233131"><ele>198.0</ele><time>2026-04-24T12:53:42.255Z</time></trkpt><trkpt lat="46.1539078" lon="13.5230989"><ele>199.33333333333331</ele><time>2026-04-24T12:53:43.255Z</time></trkpt><trkpt lat="46.153835" lon="13.522888"><ele>200.66666666666666</ele><time>2026-04-24T12:53:44.255Z</time></trkpt><trkpt lat="46.1537527" lon="13.522683"><ele>202.0</ele><time>2026-04-24T12:53:45.255Z</time></trkpt><trkpt lat="46.1536663" lon="13.5224971"><ele>202.0</ele><time>2026-04-24T12:53:46.256Z</time></trkpt><trkpt lat="46.1535613" lon="13.5223494"><ele>202.0</ele><time>2026-04-24T12:53:47.254Z</time></trkpt><trkpt lat="46.1534368" lon="13.5222194"><ele>202.0</ele><time>2026-04-24T12:53:48.254Z</time></trkpt><trkpt lat="46.1532906" lon="13.5221215"><ele>201.66666666666666</ele><time>2026-04-24T12:53:49.254Z</time></trkpt><trkpt lat="46.1531321" lon="13.5220229"><ele>201.33333333333331</ele><time>2026-04-24T12:53:50.253Z</time></trkpt><trkpt lat="46.152971" lon="13.5219116"><ele>201.0</ele><time>2026-04-24T12:53:51.254Z</time></trkpt><trkpt lat="46.1528077" lon="13.5218041"><ele>201.0</ele><time>2026-04-24T12:53:52.253Z</time></trkpt><trkpt lat="46.1526502" lon="13.5217002"><ele>201.0</ele><time>2026-04-24T12:53:53.255Z</time></trkpt><trkpt lat="46.1524916" lon="13.5215887"><ele>201.0</ele><time>2026-04-24T12:53:54.253Z</time></trkpt><trkpt lat="46.152333" lon="13.5214719"><ele>201.0</ele><time>2026-04-24T12:53:55.254Z</time></trkpt><trkpt lat="46.1521733" lon="13.5213489"><ele>201.0</ele><time>2026-04-24T12:53:56.253Z</time></trkpt><trkpt lat="46.1520343" lon="13.5211519"><ele>201.0</ele><time>2026-04-24T12:53:57.253Z</time></trkpt><trkpt lat="46.1518921" lon="13.5209621"><ele>199.0</ele><time>2026-04-24T12:53:58.253Z</time></trkpt><trkpt lat="46.1517588" lon="13.5207475"><ele>197.0</ele><time>2026-04-24T12:53:59.253Z</time></trkpt><trkpt lat="46.1516327" lon="13.5205153"><ele>195.0</ele><time>2026-04-24T12:54:00.253Z</time></trkpt><trkpt lat="46.1515139" lon="13.5202673"><ele>195.0</ele><time>2026-04-24T12:54:01.254Z</time></trkpt><trkpt lat="46.1514123" lon="13.5199958"><ele>195.0</ele><time>2026-04-24T12:54:02.254Z</time></trkpt><trkpt lat="46.1513198" lon="13.5197043"><ele>195.0</ele><time>2026-04-24T12:54:03.253Z</time></trkpt><trkpt lat="46.151231" lon="13.5193956"><ele>193.0</ele><time>2026-04-24T12:54:04.254Z</time></trkpt><trkpt lat="46.1511475" lon="13.5190936"><ele>191.0</ele><time>2026-04-24T12:54:05.253Z</time></trkpt><trkpt lat="46.1510662" lon="13.5187953"><ele>189.0</ele><time>2026-04-24T12:54:06.254Z</time></trkpt><trkpt lat="46.1509857" lon="13.5184943"><ele>188.33333333333334</ele><time>2026-04-24T12:54:07.255Z</time></trkpt><trkpt lat="46.150904" lon="13.5182054"><ele>187.66666666666669</ele><time>2026-04-24T12:54:08.254Z</time></trkpt><trkpt lat="46.1508242" lon="13.5179174"><ele>187.0</ele><time>2026-04-24T12:54:09.254Z</time></trkpt><trkpt lat="46.15067" lon="13.5173456"><ele>186.66666666666669</ele><time>2026-04-24T12:54:11.255Z</time></trkpt><trkpt lat="46.1505931" lon="13.5170654"><ele>186.33333333333334</ele><time>2026-04-24T12:54:12.254Z</time></trkpt><trkpt lat="46.1505193" lon="13.5167924"><ele>186.0</ele><time>2026-04-24T12:54:13.254Z</time></trkpt><trkpt lat="46.1504413" lon="13.5165217"><ele>186.0</ele><time>2026-04-24T12:54:14.254Z</time></trkpt><trkpt lat="46.1503527" lon="13.5162587"><ele>186.0</ele><time>2026-04-24T12:54:15.255Z</time></trkpt><trkpt lat="46.1502542" lon="13.5160117"><ele>186.0</ele><time>2026-04-24T12:54:16.254Z</time></trkpt><trkpt lat="46.1501303" lon="13.5157844"><ele>186.33333333333334</ele><time>2026-04-24T12:54:17.253Z</time></trkpt><trkpt lat="46.1499854" lon="13.5155724"><ele>186.66666666666669</ele><time>2026-04-24T12:54:18.253Z</time></trkpt><trkpt lat="46.1498364" lon="13.5153694"><ele>187.0</ele><time>2026-04-24T12:54:19.253Z</time></trkpt><trkpt lat="46.149691" lon="13.5151732"><ele>190.0</ele><time>2026-04-24T12:54:20.255Z</time></trkpt><trkpt lat="46.1495531" lon="13.5149938"><ele>193.0</ele><time>2026-04-24T12:54:21.254Z</time></trkpt><trkpt lat="46.1494151" lon="13.514853"><ele>196.0</ele><time>2026-04-24T12:54:22.254Z</time></trkpt><trkpt lat="46.1492676" lon="13.5147503"><ele>196.0</ele><time>2026-04-24T12:54:23.254Z</time></trkpt><trkpt lat="46.149122" lon="13.5146649"><ele>196.0</ele><time>2026-04-24T12:54:24.255Z</time></trkpt><trkpt lat="46.148945" lon="13.5146813"><ele>196.0</ele><time>2026-04-24T12:54:25.255Z</time></trkpt><trkpt lat="46.1487797" lon="13.5147042"><ele>194.0</ele><time>2026-04-24T12:54:26.254Z</time></trkpt><trkpt lat="46.1486178" lon="13.5147378"><ele>192.0</ele><time>2026-04-24T12:54:27.254Z</time></trkpt><trkpt lat="46.1484554" lon="13.5147661"><ele>190.0</ele><time>2026-04-24T12:54:28.255Z</time></trkpt><trkpt lat="46.1482918" lon="13.514732"><ele>190.33333333333334</ele><time>2026-04-24T12:54:29.254Z</time></trkpt><trkpt lat="46.1481355" lon="13.5147087"><ele>190.66666666666666</ele><time>2026-04-24T12:54:30.253Z</time></trkpt><trkpt lat="46.1479796" lon="13.5146876"><ele>191.0</ele><time>2026-04-24T12:54:31.254Z</time></trkpt><trkpt lat="46.1478231" lon="13.5146736"><ele>191.0</ele><time>2026-04-24T12:54:32.254Z</time></trkpt><trkpt lat="46.1476811" lon="13.5146724"><ele>191.0</ele><time>2026-04-24T12:54:33.254Z</time></trkpt><trkpt lat="46.1475503" lon="13.514671"><ele>191.0</ele><time>2026-04-24T12:54:34.254Z</time></trkpt><trkpt lat="46.1474263" lon="13.5146647"><ele>191.0</ele><time>2026-04-24T12:54:35.254Z</time></trkpt><trkpt lat="46.1473073" lon="13.5146473"><ele>189.5</ele><time>2026-04-24T12:54:36.255Z</time></trkpt><trkpt lat="46.1471839" lon="13.5146125"><ele>188.0</ele><time>2026-04-24T12:54:37.253Z</time></trkpt><trkpt lat="46.1470686" lon="13.5145606"><ele>186.5</ele><time>2026-04-24T12:54:38.253Z</time></trkpt><trkpt lat="46.1469613" lon="13.5144756"><ele>185.0</ele><time>2026-04-24T12:54:39.254Z</time></trkpt><trkpt lat="46.1468579" lon="13.5143598"><ele>184.0</ele><time>2026-04-24T12:54:40.253Z</time></trkpt><trkpt lat="46.1467517" lon="13.5142302"><ele>183.0</ele><time>2026-04-24T12:54:41.254Z</time></trkpt><trkpt lat="46.1466463" lon="13.5140948"><ele>182.0</ele><time>2026-04-24T12:54:42.254Z</time></trkpt><trkpt lat="46.1465353" lon="13.5139595"><ele>181.0</ele><time>2026-04-24T12:54:43.253Z</time></trkpt><trkpt lat="46.1464177" lon="13.51382"><ele>186.33333333333334</ele><time>2026-04-24T12:54:44.254Z</time></trkpt><trkpt lat="46.1462954" lon="13.5136787"><ele>191.66666666666669</ele><time>2026-04-24T12:54:45.254Z</time></trkpt><trkpt lat="46.146168" lon="13.5135326"><ele>197.0</ele><time>2026-04-24T12:54:46.253Z</time></trkpt><trkpt lat="46.1460385" lon="13.5133891"><ele>197.0</ele><time>2026-04-24T12:54:47.254Z</time></trkpt><trkpt lat="46.1458969" lon="13.5132521"><ele>197.0</ele><time>2026-04-24T12:54:48.254Z</time></trkpt><trkpt lat="46.1457513" lon="13.5131172"><ele>197.0</ele><time>2026-04-24T12:54:49.253Z</time></trkpt><trkpt lat="46.1456019" lon="13.5129799"><ele>197.33333333333334</ele><time>2026-04-24T12:54:50.254Z</time></trkpt><trkpt lat="46.1454509" lon="13.5128377"><ele>197.66666666666669</ele><time>2026-04-24T12:54:51.253Z</time></trkpt><trkpt lat="46.1452969" lon="13.5126878"><ele>198.0</ele><time>2026-04-24T12:54:52.254Z</time></trkpt><trkpt lat="46.145144" lon="13.512535"><ele>198.0</ele><time>2026-04-24T12:54:53.255Z</time></trkpt><trkpt lat="46.1449914" lon="13.5123848"><ele>198.0</ele><time>2026-04-24T12:54:54.254Z</time></trkpt><trkpt lat="46.1448327" lon="13.5122321"><ele>198.0</ele><time>2026-04-24T12:54:55.254Z</time></trkpt><trkpt lat="46.1446767" lon="13.5120818"><ele>197.33333333333331</ele><time>2026-04-24T12:54:56.253Z</time></trkpt><trkpt lat="46.1445201" lon="13.5119267"><ele>196.66666666666666</ele><time>2026-04-24T12:54:57.253Z</time></trkpt><trkpt lat="46.1443597" lon="13.5117783"><ele>196.0</ele><time>2026-04-24T12:54:58.253Z</time></trkpt><trkpt lat="46.144202" lon="13.5116204"><ele>191.33333333333331</ele><time>2026-04-24T12:54:59.254Z</time></trkpt><trkpt lat="46.1440427" lon="13.511459"><ele>186.66666666666666</ele><time>2026-04-24T12:55:00.253Z</time></trkpt><trkpt lat="46.1438852" lon="13.5112961"><ele>182.0</ele><time>2026-04-24T12:55:01.253Z</time></trkpt><trkpt lat="46.1437295" lon="13.5111317"><ele>182.0</ele><time>2026-04-24T12:55:02.254Z</time></trkpt><trkpt lat="46.1435778" lon="13.5109628"><ele>182.0</ele><time>2026-04-24T12:55:03.253Z</time></trkpt><trkpt lat="46.1434309" lon="13.5107813"><ele>182.0</ele><time>2026-04-24T12:55:04.254Z</time></trkpt><trkpt lat="46.1432877" lon="13.5105929"><ele>178.5</ele><time>2026-04-24T12:55:05.254Z</time></trkpt><trkpt lat="46.143145" lon="13.5103962"><ele>175.0</ele><time>2026-04-24T12:55:06.253Z</time></trkpt><trkpt lat="46.1428697" lon="13.5099821"><ele>175.0</ele><time>2026-04-24T12:55:08.253Z</time></trkpt><trkpt lat="46.1427593" lon="13.5097671"><ele>175.0</ele><time>2026-04-24T12:55:09.254Z</time></trkpt><trkpt lat="46.1426439" lon="13.5095609"><ele>175.0</ele><time>2026-04-24T12:55:10.255Z</time></trkpt><trkpt lat="46.1425372" lon="13.5093558"><ele>176.0</ele><time>2026-04-24T12:55:11.255Z</time></trkpt><trkpt lat="46.1424394" lon="13.5091612"><ele>177.0</ele><time>2026-04-24T12:55:12.254Z</time></trkpt><trkpt lat="46.1423428" lon="13.5089808"><ele>178.0</ele><time>2026-04-24T12:55:13.255Z</time></trkpt><trkpt lat="46.1422393" lon="13.5088056"><ele>176.0</ele><time>2026-04-24T12:55:14.255Z</time></trkpt><trkpt lat="46.142124" lon="13.5086621"><ele>174.0</ele><time>2026-04-24T12:55:15.253Z</time></trkpt><trkpt lat="46.1420101" lon="13.5085121"><ele>172.0</ele><time>2026-04-24T12:55:16.253Z</time></trkpt><trkpt lat="46.1418914" lon="13.50837"><ele>172.0</ele><time>2026-04-24T12:55:17.255Z</time></trkpt><trkpt lat="46.1417503" lon="13.5082324"><ele>172.0</ele><time>2026-04-24T12:55:18.254Z</time></trkpt><trkpt lat="46.1414295" lon="13.5080479"><ele>171.0</ele><time>2026-04-24T12:55:20.255Z</time></trkpt><trkpt lat="46.1412628" lon="13.5079377"><ele>170.0</ele><time>2026-04-24T12:55:21.254Z</time></trkpt><trkpt lat="46.1410914" lon="13.5077984"><ele>169.0</ele><time>2026-04-24T12:55:22.253Z</time></trkpt><trkpt lat="46.1409162" lon="13.507636"><ele>169.0</ele><time>2026-04-24T12:55:23.255Z</time></trkpt><trkpt lat="46.1407485" lon="13.507457"><ele>169.0</ele><time>2026-04-24T12:55:24.254Z</time></trkpt><trkpt lat="46.1405946" lon="13.5072562"><ele>169.0</ele><time>2026-04-24T12:55:25.254Z</time></trkpt><trkpt lat="46.1404448" lon="13.5070423"><ele>168.0</ele><time>2026-04-24T12:55:26.255Z</time></trkpt><trkpt lat="46.1403073" lon="13.5068206"><ele>167.0</ele><time>2026-04-24T12:55:27.253Z</time></trkpt><trkpt lat="46.140053" lon="13.5063855"><ele>168.0</ele><time>2026-04-24T12:55:29.255Z</time></trkpt><trkpt lat="46.1399261" lon="13.5061842"><ele>169.0</ele><time>2026-04-24T12:55:30.254Z</time></trkpt><trkpt lat="46.1397983" lon="13.5060015"><ele>170.0</ele><time>2026-04-24T12:55:31.253Z</time></trkpt><trkpt lat="46.1396571" lon="13.5058401"><ele>170.66666666666666</ele><time>2026-04-24T12:55:32.255Z</time></trkpt><trkpt lat="46.139501" lon="13.5056967"><ele>171.33333333333334</ele><time>2026-04-24T12:55:33.254Z</time></trkpt><trkpt lat="46.1393295" lon="13.5055674"><ele>172.0</ele><time>2026-04-24T12:55:34.254Z</time></trkpt><trkpt lat="46.1391454" lon="13.5054406"><ele>173.33333333333334</ele><time>2026-04-24T12:55:35.254Z</time></trkpt><trkpt lat="46.1389569" lon="13.5053232"><ele>174.66666666666666</ele><time>2026-04-24T12:55:36.255Z</time></trkpt><trkpt lat="46.1387717" lon="13.5051993"><ele>176.0</ele><time>2026-04-24T12:55:37.254Z</time></trkpt><trkpt lat="46.1385983" lon="13.5050857"><ele>176.0</ele><time>2026-04-24T12:55:38.254Z</time></trkpt><trkpt lat="46.1384368" lon="13.5049888"><ele>176.0</ele><time>2026-04-24T12:55:39.254Z</time></trkpt><trkpt lat="46.1382794" lon="13.5049091"><ele>176.0</ele><time>2026-04-24T12:55:40.252Z</time></trkpt><trkpt lat="46.1381188" lon="13.5048701"><ele>175.33333333333331</ele><time>2026-04-24T12:55:41.253Z</time></trkpt><trkpt lat="46.1379512" lon="13.5048545"><ele>174.66666666666666</ele><time>2026-04-24T12:55:42.253Z</time></trkpt><trkpt lat="46.1377791" lon="13.5048577"><ele>174.0</ele><time>2026-04-24T12:55:43.253Z</time></trkpt><trkpt lat="46.1376062" lon="13.5048825"><ele>174.0</ele><time>2026-04-24T12:55:44.253Z</time></trkpt><trkpt lat="46.1374326" lon="13.5049188"><ele>174.0</ele><time>2026-04-24T12:55:45.253Z</time></trkpt><trkpt lat="46.1372569" lon="13.5049394"><ele>174.0</ele><time>2026-04-24T12:55:46.253Z</time></trkpt><trkpt lat="46.1370867" lon="13.5049267"><ele>171.66666666666666</ele><time>2026-04-24T12:55:47.253Z</time></trkpt><trkpt lat="46.1369172" lon="13.5048842"><ele>169.33333333333331</ele><time>2026-04-24T12:55:48.252Z</time></trkpt><trkpt lat="46.1367479" lon="13.5048067"><ele>167.0</ele><time>2026-04-24T12:55:49.253Z</time></trkpt><trkpt lat="46.1365696" lon="13.5047122"><ele>167.33333333333331</ele><time>2026-04-24T12:55:50.252Z</time></trkpt><trkpt lat="46.1363806" lon="13.50461"><ele>167.66666666666666</ele><time>2026-04-24T12:55:51.253Z</time></trkpt><trkpt lat="46.1361821" lon="13.5045014"><ele>168.0</ele><time>2026-04-24T12:55:52.253Z</time></trkpt><trkpt lat="46.1359787" lon="13.5043883"><ele>168.0</ele><time>2026-04-24T12:55:53.254Z</time></trkpt><trkpt lat="46.1357663" lon="13.5042696"><ele>168.0</ele><time>2026-04-24T12:55:54.252Z</time></trkpt><trkpt lat="46.1355438" lon="13.5041459"><ele>164.0</ele><time>2026-04-24T12:55:55.254Z</time></trkpt><trkpt lat="46.1353134" lon="13.5040154"><ele>160.0</ele><time>2026-04-24T12:55:56.254Z</time></trkpt><trkpt lat="46.1350696" lon="13.5038835"><ele>158.5</ele><time>2026-04-24T12:55:57.253Z</time></trkpt><trkpt lat="46.1348221" lon="13.5037458"><ele>157.0</ele><time>2026-04-24T12:55:58.253Z</time></trkpt><trkpt lat="46.1345845" lon="13.5036125"><ele>157.0</ele><time>2026-04-24T12:55:59.252Z</time></trkpt><trkpt lat="46.1343634" lon="13.5034881"><ele>157.0</ele><time>2026-04-24T12:56:00.252Z</time></trkpt><trkpt lat="46.1341512" lon="13.5033665"><ele>156.66666666666669</ele><time>2026-04-24T12:56:01.253Z</time></trkpt><trkpt lat="46.1339421" lon="13.5032449"><ele>156.33333333333334</ele><time>2026-04-24T12:56:02.254Z</time></trkpt><trkpt lat="46.1337414" lon="13.5031175"><ele>156.0</ele><time>2026-04-24T12:56:03.253Z</time></trkpt><trkpt lat="46.1335528" lon="13.5029769"><ele>156.0</ele><time>2026-04-24T12:56:04.252Z</time></trkpt><trkpt lat="46.1333707" lon="13.5028246"><ele>156.0</ele><time>2026-04-24T12:56:05.252Z</time></trkpt><trkpt lat="46.133199" lon="13.5026583"><ele>156.0</ele><time>2026-04-24T12:56:06.253Z</time></trkpt><trkpt lat="46.1330311" lon="13.5024961"><ele>156.0</ele><time>2026-04-24T12:56:07.253Z</time></trkpt><trkpt lat="46.1328666" lon="13.5023368"><ele>156.0</ele><time>2026-04-24T12:56:08.253Z</time></trkpt><trkpt lat="46.1327029" lon="13.50218"><ele>156.0</ele><time>2026-04-24T12:56:09.253Z</time></trkpt><trkpt lat="46.1325386" lon="13.5020257"><ele>156.0</ele><time>2026-04-24T12:56:10.254Z</time></trkpt><trkpt lat="46.1323741" lon="13.5018712"><ele>156.0</ele><time>2026-04-24T12:56:11.253Z</time></trkpt><trkpt lat="46.1322135" lon="13.50172"><ele>156.0</ele><time>2026-04-24T12:56:12.253Z</time></trkpt><trkpt lat="46.1320555" lon="13.50157"><ele>156.0</ele><time>2026-04-24T12:56:13.253Z</time></trkpt><trkpt lat="46.1318989" lon="13.5014155"><ele>156.0</ele><time>2026-04-24T12:56:14.253Z</time></trkpt><trkpt lat="46.1317425" lon="13.5012653"><ele>156.0</ele><time>2026-04-24T12:56:15.253Z</time></trkpt><trkpt lat="46.1315847" lon="13.501116"><ele>155.0</ele><time>2026-04-24T12:56:16.253Z</time></trkpt><trkpt lat="46.1314296" lon="13.5009645"><ele>154.0</ele><time>2026-04-24T12:56:17.253Z</time></trkpt><trkpt lat="46.1312791" lon="13.5008131"><ele>153.0</ele><time>2026-04-24T12:56:18.253Z</time></trkpt><trkpt lat="46.1311331" lon="13.5006535"><ele>153.0</ele><time>2026-04-24T12:56:19.254Z</time></trkpt><trkpt lat="46.1309959" lon="13.5004852"><ele>153.0</ele><time>2026-04-24T12:56:20.253Z</time></trkpt><trkpt lat="46.1308598" lon="13.5003176"><ele>153.0</ele><time>2026-04-24T12:56:21.253Z</time></trkpt><trkpt lat="46.1307275" lon="13.5001476"><ele>154.33333333333334</ele><time>2026-04-24T12:56:22.253Z</time></trkpt><trkpt lat="46.130595" lon="13.4999803"><ele>155.66666666666669</ele><time>2026-04-24T12:56:23.253Z</time></trkpt><trkpt lat="46.1304649" lon="13.4998165"><ele>157.0</ele><time>2026-04-24T12:56:24.254Z</time></trkpt><trkpt lat="46.1303354" lon="13.4996544"><ele>158.66666666666669</ele><time>2026-04-24T12:56:25.253Z</time></trkpt><trkpt lat="46.1302055" lon="13.4994964"><ele>160.33333333333334</ele><time>2026-04-24T12:56:26.254Z</time></trkpt><trkpt lat="46.1300822" lon="13.4993346"><ele>162.0</ele><time>2026-04-24T12:56:27.253Z</time></trkpt><trkpt lat="46.1299576" lon="13.4991752"><ele>161.66666666666666</ele><time>2026-04-24T12:56:28.252Z</time></trkpt><trkpt lat="46.129835" lon="13.499019"><ele>161.33333333333331</ele><time>2026-04-24T12:56:29.253Z</time></trkpt><trkpt lat="46.1297124" lon="13.4988624"><ele>161.0</ele><time>2026-04-24T12:56:30.253Z</time></trkpt><trkpt lat="46.1295875" lon="13.4987111"><ele>161.0</ele><time>2026-04-24T12:56:31.252Z</time></trkpt><trkpt lat="46.1294618" lon="13.4985598"><ele>161.0</ele><time>2026-04-24T12:56:32.254Z</time></trkpt><trkpt lat="46.1293244" lon="13.4984237"><ele>161.0</ele><time>2026-04-24T12:56:33.254Z</time></trkpt><trkpt lat="46.1291795" lon="13.4982992"><ele>158.0</ele><time>2026-04-24T12:56:34.253Z</time></trkpt><trkpt lat="46.1290219" lon="13.4981878"><ele>155.0</ele><time>2026-04-24T12:56:35.254Z</time></trkpt><trkpt lat="46.1288642" lon="13.4980834"><ele>152.0</ele><time>2026-04-24T12:56:36.253Z</time></trkpt><trkpt lat="46.1286964" lon="13.4979826"><ele>152.66666666666666</ele><time>2026-04-24T12:56:37.252Z</time></trkpt><trkpt lat="46.1285308" lon="13.4978805"><ele>153.33333333333334</ele><time>2026-04-24T12:56:38.253Z</time></trkpt><trkpt lat="46.1283669" lon="13.497772"><ele>154.0</ele><time>2026-04-24T12:56:39.253Z</time></trkpt><trkpt lat="46.1281948" lon="13.4976632"><ele>154.33333333333334</ele><time>2026-04-24T12:56:40.254Z</time></trkpt><trkpt lat="46.1280267" lon="13.4975566"><ele>154.66666666666666</ele><time>2026-04-24T12:56:41.253Z</time></trkpt><trkpt lat="46.1278527" lon="13.4974582"><ele>155.0</ele><time>2026-04-24T12:56:42.253Z</time></trkpt><trkpt lat="46.127676" lon="13.4973593"><ele>155.0</ele><time>2026-04-24T12:56:43.254Z</time></trkpt><trkpt lat="46.127503" lon="13.4972537"><ele>155.0</ele><time>2026-04-24T12:56:44.253Z</time></trkpt><trkpt lat="46.1273319" lon="13.4971444"><ele>155.0</ele><time>2026-04-24T12:56:45.252Z</time></trkpt><trkpt lat="46.1271631" lon="13.4970264"><ele>156.33333333333331</ele><time>2026-04-24T12:56:46.252Z</time></trkpt><trkpt lat="46.1269888" lon="13.4969143"><ele>157.66666666666666</ele><time>2026-04-24T12:56:47.254Z</time></trkpt><trkpt lat="46.1268143" lon="13.4968088"><ele>159.0</ele><time>2026-04-24T12:56:48.253Z</time></trkpt><trkpt lat="46.1266426" lon="13.496699"><ele>156.33333333333334</ele><time>2026-04-24T12:56:49.252Z</time></trkpt><trkpt lat="46.1264697" lon="13.4965896"><ele>153.66666666666669</ele><time>2026-04-24T12:56:50.252Z</time></trkpt><trkpt lat="46.1262922" lon="13.4964814"><ele>151.0</ele><time>2026-04-24T12:56:51.253Z</time></trkpt><trkpt lat="46.1261153" lon="13.4963807"><ele>151.0</ele><time>2026-04-24T12:56:52.253Z</time></trkpt><trkpt lat="46.1259344" lon="13.4963018"><ele>151.0</ele><time>2026-04-24T12:56:53.254Z</time></trkpt><trkpt lat="46.1257519" lon="13.4962338"><ele>151.0</ele><time>2026-04-24T12:56:54.252Z</time></trkpt><trkpt lat="46.1255651" lon="13.496206"><ele>158.33333333333334</ele><time>2026-04-24T12:56:55.253Z</time></trkpt><trkpt lat="46.1253739" lon="13.4961932"><ele>165.66666666666666</ele><time>2026-04-24T12:56:56.253Z</time></trkpt><trkpt lat="46.1251735" lon="13.4962036"><ele>173.0</ele><time>2026-04-24T12:56:57.254Z</time></trkpt><trkpt lat="46.1249784" lon="13.4962529"><ele>172.33333333333331</ele><time>2026-04-24T12:56:58.253Z</time></trkpt><trkpt lat="46.1247847" lon="13.4962774"><ele>171.66666666666666</ele><time>2026-04-24T12:56:59.254Z</time></trkpt><trkpt lat="46.1245913" lon="13.4962811"><ele>171.0</ele><time>2026-04-24T12:57:00.254Z</time></trkpt><trkpt lat="46.1243953" lon="13.4962531"><ele>171.0</ele><time>2026-04-24T12:57:01.252Z</time></trkpt><trkpt lat="46.1242033" lon="13.4962026"><ele>171.0</ele><time>2026-04-24T12:57:02.254Z</time></trkpt><trkpt lat="46.1240139" lon="13.496141"><ele>171.0</ele><time>2026-04-24T12:57:03.253Z</time></trkpt><trkpt lat="46.1238233" lon="13.4960773"><ele>166.33333333333334</ele><time>2026-04-24T12:57:04.253Z</time></trkpt><trkpt lat="46.1236366" lon="13.4960091"><ele>161.66666666666669</ele><time>2026-04-24T12:57:05.252Z</time></trkpt><trkpt lat="46.1234521" lon="13.4959367"><ele>157.0</ele><time>2026-04-24T12:57:06.253Z</time></trkpt><trkpt lat="46.1232744" lon="13.4958567"><ele>155.0</ele><time>2026-04-24T12:57:07.254Z</time></trkpt><trkpt lat="46.1231036" lon="13.4957629"><ele>153.0</ele><time>2026-04-24T12:57:08.252Z</time></trkpt><trkpt lat="46.1229356" lon="13.4956638"><ele>151.0</ele><time>2026-04-24T12:57:09.253Z</time></trkpt><trkpt lat="46.1227686" lon="13.4955492"><ele>151.0</ele><time>2026-04-24T12:57:10.252Z</time></trkpt><trkpt lat="46.1225957" lon="13.4954298"><ele>151.0</ele><time>2026-04-24T12:57:11.254Z</time></trkpt><trkpt lat="46.1224243" lon="13.4953057"><ele>151.0</ele><time>2026-04-24T12:57:12.253Z</time></trkpt><trkpt lat="46.1222494" lon="13.4951804"><ele>152.33333333333334</ele><time>2026-04-24T12:57:13.252Z</time></trkpt><trkpt lat="46.122074" lon="13.495048"><ele>153.66666666666666</ele><time>2026-04-24T12:57:14.253Z</time></trkpt><trkpt lat="46.1218947" lon="13.4949169"><ele>155.0</ele><time>2026-04-24T12:57:15.252Z</time></trkpt><trkpt lat="46.1217111" lon="13.4947848"><ele>153.33333333333331</ele><time>2026-04-24T12:57:16.253Z</time></trkpt><trkpt lat="46.1215302" lon="13.4946511"><ele>151.66666666666666</ele><time>2026-04-24T12:57:17.253Z</time></trkpt><trkpt lat="46.1213397" lon="13.4945297"><ele>150.0</ele><time>2026-04-24T12:57:18.253Z</time></trkpt><trkpt lat="46.1211516" lon="13.4944158"><ele>150.0</ele><time>2026-04-24T12:57:19.253Z</time></trkpt><trkpt lat="46.1209615" lon="13.494313"><ele>150.0</ele><time>2026-04-24T12:57:20.253Z</time></trkpt><trkpt lat="46.1207666" lon="13.4942248"><ele>150.0</ele><time>2026-04-24T12:57:21.252Z</time></trkpt><trkpt lat="46.1205682" lon="13.4941555"><ele>149.33333333333334</ele><time>2026-04-24T12:57:22.253Z</time></trkpt><trkpt lat="46.1203711" lon="13.4940814"><ele>148.66666666666669</ele><time>2026-04-24T12:57:23.254Z</time></trkpt><trkpt lat="46.1201759" lon="13.4939996"><ele>148.0</ele><time>2026-04-24T12:57:24.253Z</time></trkpt><trkpt lat="46.1199754" lon="13.4939241"><ele>147.0</ele><time>2026-04-24T12:57:25.253Z</time></trkpt><trkpt lat="46.119777" lon="13.493845"><ele>146.0</ele><time>2026-04-24T12:57:26.253Z</time></trkpt><trkpt lat="46.1195776" lon="13.4937683"><ele>145.0</ele><time>2026-04-24T12:57:27.253Z</time></trkpt><trkpt lat="46.1193818" lon="13.4936871"><ele>146.66666666666669</ele><time>2026-04-24T12:57:28.252Z</time></trkpt><trkpt lat="46.1191827" lon="13.4936149"><ele>148.33333333333334</ele><time>2026-04-24T12:57:29.253Z</time></trkpt><trkpt lat="46.1189857" lon="13.493538"><ele>150.0</ele><time>2026-04-24T12:57:30.252Z</time></trkpt><trkpt lat="46.1187877" lon="13.4934605"><ele>150.0</ele><time>2026-04-24T12:57:31.252Z</time></trkpt><trkpt lat="46.118589" lon="13.4933759"><ele>150.0</ele><time>2026-04-24T12:57:32.252Z</time></trkpt><trkpt lat="46.1183941" lon="13.4932985"><ele>150.0</ele><time>2026-04-24T12:57:33.252Z</time></trkpt><trkpt lat="46.1181947" lon="13.4932276"><ele>149.66666666666666</ele><time>2026-04-24T12:57:34.254Z</time></trkpt><trkpt lat="46.1179948" lon="13.4931536"><ele>149.33333333333331</ele><time>2026-04-24T12:57:35.253Z</time></trkpt><trkpt lat="46.1177967" lon="13.4930825"><ele>149.0</ele><time>2026-04-24T12:57:36.253Z</time></trkpt><trkpt lat="46.1175989" lon="13.4930087"><ele>149.66666666666666</ele><time>2026-04-24T12:57:37.254Z</time></trkpt><trkpt lat="46.1173972" lon="13.4929325"><ele>150.33333333333334</ele><time>2026-04-24T12:57:38.253Z</time></trkpt><trkpt lat="46.1171983" lon="13.4928587"><ele>151.0</ele><time>2026-04-24T12:57:39.253Z</time></trkpt><trkpt lat="46.1169943" lon="13.4927808"><ele>151.0</ele><time>2026-04-24T12:57:40.253Z</time></trkpt><trkpt lat="46.1167945" lon="13.492702"><ele>151.0</ele><time>2026-04-24T12:57:41.252Z</time></trkpt><trkpt lat="46.1165912" lon="13.4926236"><ele>151.0</ele><time>2026-04-24T12:57:42.254Z</time></trkpt><trkpt lat="46.1163944" lon="13.4925369"><ele>149.66666666666669</ele><time>2026-04-24T12:57:43.253Z</time></trkpt><trkpt lat="46.1162039" lon="13.4924401"><ele>148.33333333333334</ele><time>2026-04-24T12:57:44.252Z</time></trkpt><trkpt lat="46.116032" lon="13.4923419"><ele>147.0</ele><time>2026-04-24T12:57:45.252Z</time></trkpt><trkpt lat="46.1158822" lon="13.4922422"><ele>147.0</ele><time>2026-04-24T12:57:46.251Z</time></trkpt><trkpt lat="46.1157497" lon="13.4921565"><ele>147.0</ele><time>2026-04-24T12:57:47.251Z</time></trkpt><trkpt lat="46.1156328" lon="13.492079"><ele>147.0</ele><time>2026-04-24T12:57:48.251Z</time></trkpt><trkpt lat="46.1155238" lon="13.4919825"><ele>147.0</ele><time>2026-04-24T12:57:49.251Z</time></trkpt><trkpt lat="46.1154266" lon="13.4918609"><ele>147.0</ele><time>2026-04-24T12:57:50.251Z</time></trkpt><trkpt lat="46.1153371" lon="13.4917113"><ele>147.0</ele><time>2026-04-24T12:57:51.252Z</time></trkpt><trkpt lat="46.1152532" lon="13.4915495"><ele>147.0</ele><time>2026-04-24T12:57:52.252Z</time></trkpt><trkpt lat="46.1151629" lon="13.4913851"><ele>147.0</ele><time>2026-04-24T12:57:53.251Z</time></trkpt><trkpt lat="46.1150689" lon="13.4912127"><ele>145.33333333333334</ele><time>2026-04-24T12:57:54.252Z</time></trkpt><trkpt lat="46.1149753" lon="13.4910295"><ele>143.66666666666669</ele><time>2026-04-24T12:57:55.251Z</time></trkpt><trkpt lat="46.1148833" lon="13.490841"><ele>142.0</ele><time>2026-04-24T12:57:56.251Z</time></trkpt><trkpt lat="46.1147955" lon="13.4906448"><ele>142.0</ele><time>2026-04-24T12:57:57.252Z</time></trkpt><trkpt lat="46.1147127" lon="13.4904394"><ele>142.0</ele><time>2026-04-24T12:57:58.252Z</time></trkpt><trkpt lat="46.114637" lon="13.4902322"><ele>142.0</ele><time>2026-04-24T12:57:59.252Z</time></trkpt><trkpt lat="46.1145721" lon="13.4900276"><ele>142.66666666666669</ele><time>2026-04-24T12:58:00.251Z</time></trkpt><trkpt lat="46.1145069" lon="13.4898286"><ele>143.33333333333334</ele><time>2026-04-24T12:58:01.251Z</time></trkpt><trkpt lat="46.1144428" lon="13.4896335"><ele>144.0</ele><time>2026-04-24T12:58:02.252Z</time></trkpt><trkpt lat="46.114387" lon="13.4894325"><ele>145.0</ele><time>2026-04-24T12:58:03.252Z</time></trkpt><trkpt lat="46.1143425" lon="13.489239"><ele>146.0</ele><time>2026-04-24T12:58:04.252Z</time></trkpt><trkpt lat="46.1143023" lon="13.4890603"><ele>147.0</ele><time>2026-04-24T12:58:05.252Z</time></trkpt><trkpt lat="46.1142712" lon="13.4889051"><ele>148.0</ele><time>2026-04-24T12:58:06.253Z</time></trkpt><trkpt lat="46.1142544" lon="13.4887564"><ele>149.0</ele><time>2026-04-24T12:58:07.252Z</time></trkpt><trkpt lat="46.1142468" lon="13.4885976"><ele>150.0</ele><time>2026-04-24T12:58:08.252Z</time></trkpt><trkpt lat="46.1142409" lon="13.4884305"><ele>151.0</ele><time>2026-04-24T12:58:09.251Z</time></trkpt><trkpt lat="46.1142274" lon="13.4882616"><ele>152.0</ele><time>2026-04-24T12:58:10.251Z</time></trkpt><trkpt lat="46.1142111" lon="13.4880822"><ele>152.4</ele><time>2026-04-24T12:58:11.251Z</time></trkpt><trkpt lat="46.1141932" lon="13.4878997"><ele>152.79999999999998</ele><time>2026-04-24T12:58:12.251Z</time></trkpt><trkpt lat="46.1141715" lon="13.4877386"><ele>153.2</ele><time>2026-04-24T12:58:13.253Z</time></trkpt><trkpt lat="46.1141505" lon="13.4876085"><ele>153.6</ele><time>2026-04-24T12:58:14.252Z</time></trkpt><trkpt lat="46.1141387" lon="13.4875031"><ele>154.0</ele><time>2026-04-24T12:58:15.252Z</time></trkpt><trkpt lat="46.1141243" lon="13.4873703"><ele>154.0</ele><time>2026-04-24T12:58:17.252Z</time></trkpt><trkpt lat="46.1140877" lon="13.4872897"><ele>154.0</ele><time>2026-04-24T12:58:34.253Z</time></trkpt><trkpt lat="46.1140438" lon="13.4871986"><ele>154.0</ele><time>2026-04-24T12:58:35.252Z</time></trkpt><trkpt lat="46.1139998" lon="13.4870993"><ele>154.0</ele><time>2026-04-24T12:58:36.251Z</time></trkpt><trkpt lat="46.1139454" lon="13.4869703"><ele>154.0</ele><time>2026-04-24T12:58:37.252Z</time></trkpt><trkpt lat="46.1138795" lon="13.4868188"><ele>152.25</ele><time>2026-04-24T12:58:38.251Z</time></trkpt><trkpt lat="46.113812" lon="13.4866745"><ele>150.5</ele><time>2026-04-24T12:58:39.252Z</time></trkpt><trkpt lat="46.1137418" lon="13.486505"><ele>148.75</ele><time>2026-04-24T12:58:40.251Z</time></trkpt><trkpt lat="46.1136806" lon="13.4863293"><ele>147.0</ele><time>2026-04-24T12:58:41.251Z</time></trkpt><trkpt lat="46.1136161" lon="13.4861332"><ele>147.0</ele><time>2026-04-24T12:58:42.251Z</time></trkpt><trkpt lat="46.1135438" lon="13.4859297"><ele>147.0</ele><time>2026-04-24T12:58:43.251Z</time></trkpt><trkpt lat="46.1134726" lon="13.4857252"><ele>147.0</ele><time>2026-04-24T12:58:44.251Z</time></trkpt><trkpt lat="46.1133901" lon="13.4855308"><ele>147.0</ele><time>2026-04-24T12:58:45.252Z</time></trkpt><trkpt lat="46.1132922" lon="13.485348"><ele>147.0</ele><time>2026-04-24T12:58:46.252Z</time></trkpt><trkpt lat="46.113179" lon="13.4851828"><ele>147.0</ele><time>2026-04-24T12:58:47.253Z</time></trkpt><trkpt lat="46.1130462" lon="13.4850325"><ele>147.0</ele><time>2026-04-24T12:58:48.253Z</time></trkpt><trkpt lat="46.1129018" lon="13.4848924"><ele>147.0</ele><time>2026-04-24T12:58:49.252Z</time></trkpt><trkpt lat="46.112753" lon="13.4847592"><ele>147.0</ele><time>2026-04-24T12:58:50.252Z</time></trkpt><trkpt lat="46.1126099" lon="13.484628"><ele>146.25</ele><time>2026-04-24T12:58:51.252Z</time></trkpt><trkpt lat="46.112475" lon="13.4845053"><ele>145.5</ele><time>2026-04-24T12:58:52.252Z</time></trkpt><trkpt lat="46.1123502" lon="13.484388"><ele>144.75</ele><time>2026-04-24T12:58:53.252Z</time></trkpt><trkpt lat="46.1122349" lon="13.4842757"><ele>144.0</ele><time>2026-04-24T12:58:54.251Z</time></trkpt><trkpt lat="46.1121356" lon="13.4841528"><ele>144.0</ele><time>2026-04-24T12:58:55.252Z</time></trkpt><trkpt lat="46.1120514" lon="13.4839917"><ele>144.0</ele><time>2026-04-24T12:58:56.252Z</time></trkpt><trkpt lat="46.1119769" lon="13.4837972"><ele>144.0</ele><time>2026-04-24T12:58:57.252Z</time></trkpt><trkpt lat="46.1119121" lon="13.4835936"><ele>144.0</ele><time>2026-04-24T12:58:58.252Z</time></trkpt><trkpt lat="46.111844" lon="13.4833823"><ele>144.66666666666666</ele><time>2026-04-24T12:58:59.251Z</time></trkpt><trkpt lat="46.1117714" lon="13.4831765"><ele>145.33333333333331</ele><time>2026-04-24T12:59:00.253Z</time></trkpt><trkpt lat="46.1117015" lon="13.4829664"><ele>146.0</ele><time>2026-04-24T12:59:01.253Z</time></trkpt><trkpt lat="46.1116415" lon="13.4827448"><ele>146.66666666666666</ele><time>2026-04-24T12:59:02.252Z</time></trkpt><trkpt lat="46.1116042" lon="13.4825066"><ele>147.33333333333334</ele><time>2026-04-24T12:59:03.252Z</time></trkpt><trkpt lat="46.1115853" lon="13.4822614"><ele>148.0</ele><time>2026-04-24T12:59:04.252Z</time></trkpt><trkpt lat="46.1115758" lon="13.4820097"><ele>144.33333333333334</ele><time>2026-04-24T12:59:05.252Z</time></trkpt><trkpt lat="46.111567" lon="13.4817531"><ele>140.66666666666666</ele><time>2026-04-24T12:59:06.251Z</time></trkpt><trkpt lat="46.1115569" lon="13.4814938"><ele>137.0</ele><time>2026-04-24T12:59:07.251Z</time></trkpt><trkpt lat="46.1115451" lon="13.4812261"><ele>137.0</ele><time>2026-04-24T12:59:08.251Z</time></trkpt><trkpt lat="46.1115351" lon="13.4809533"><ele>137.0</ele><time>2026-04-24T12:59:09.252Z</time></trkpt><trkpt lat="46.1115266" lon="13.4806799"><ele>137.0</ele><time>2026-04-24T12:59:10.252Z</time></trkpt><trkpt lat="46.1115179" lon="13.4804024"><ele>137.66666666666666</ele><time>2026-04-24T12:59:11.252Z</time></trkpt><trkpt lat="46.1115116" lon="13.4801343"><ele>138.33333333333334</ele><time>2026-04-24T12:59:12.252Z</time></trkpt><trkpt lat="46.1115066" lon="13.4798799"><ele>139.0</ele><time>2026-04-24T12:59:13.251Z</time></trkpt><trkpt lat="46.111498" lon="13.479645"><ele>138.5</ele><time>2026-04-24T12:59:14.251Z</time></trkpt><trkpt lat="46.1114979" lon="13.479425"><ele>138.0</ele><time>2026-04-24T12:59:15.252Z</time></trkpt><trkpt lat="46.11151" lon="13.4792209"><ele>137.5</ele><time>2026-04-24T12:59:16.252Z</time></trkpt><trkpt lat="46.111534" lon="13.4790243"><ele>137.0</ele><time>2026-04-24T12:59:17.252Z</time></trkpt><trkpt lat="46.1115665" lon="13.4788316"><ele>139.25</ele><time>2026-04-24T12:59:18.252Z</time></trkpt><trkpt lat="46.1116055" lon="13.4786364"><ele>141.5</ele><time>2026-04-24T12:59:19.253Z</time></trkpt><trkpt lat="46.111644" lon="13.4784421"><ele>143.75</ele><time>2026-04-24T12:59:20.252Z</time></trkpt><trkpt lat="46.1116786" lon="13.4782544"><ele>146.0</ele><time>2026-04-24T12:59:21.253Z</time></trkpt><trkpt lat="46.1117104" lon="13.4780813"><ele>146.4</ele><time>2026-04-24T12:59:22.252Z</time></trkpt><trkpt lat="46.1117379" lon="13.4779277"><ele>146.8</ele><time>2026-04-24T12:59:23.251Z</time></trkpt><trkpt lat="46.1117656" lon="13.4777865"><ele>147.20000000000002</ele><time>2026-04-24T12:59:24.252Z</time></trkpt><trkpt lat="46.1117904" lon="13.4776706"><ele>147.6</ele><time>2026-04-24T12:59:25.251Z</time></trkpt><trkpt lat="46.1118067" lon="13.4775784"><ele>148.0</ele><time>2026-04-24T12:59:26.252Z</time></trkpt><trkpt lat="46.1118007" lon="13.4774439"><ele>148.0</ele><time>2026-04-24T12:59:28.253Z</time></trkpt><trkpt lat="46.1117544" lon="13.4773778"><ele>148.0</ele><time>2026-04-24T12:59:29.253Z</time></trkpt><trkpt lat="46.1116764" lon="13.4773292"><ele>148.0</ele><time>2026-04-24T12:59:30.251Z</time></trkpt><trkpt lat="46.1115687" lon="13.4772882"><ele>148.0</ele><time>2026-04-24T12:59:31.251Z</time></trkpt><trkpt lat="46.1114615" lon="13.4772419"><ele>148.0</ele><time>2026-04-24T12:59:32.251Z</time></trkpt><trkpt lat="46.1113501" lon="13.4771922"><ele>146.75</ele><time>2026-04-24T12:59:33.251Z</time></trkpt><trkpt lat="46.1112319" lon="13.4771311"><ele>145.5</ele><time>2026-04-24T12:59:34.253Z</time></trkpt><trkpt lat="46.1111195" lon="13.4770535"><ele>144.25</ele><time>2026-04-24T12:59:35.253Z</time></trkpt><trkpt lat="46.1110071" lon="13.4769553"><ele>143.0</ele><time>2026-04-24T12:59:36.252Z</time></trkpt><trkpt lat="46.1109008" lon="13.476861"><ele>143.0</ele><time>2026-04-24T12:59:37.252Z</time></trkpt><trkpt lat="46.1107969" lon="13.4767751"><ele>143.0</ele><time>2026-04-24T12:59:38.253Z</time></trkpt><trkpt lat="46.1107044" lon="13.4766969"><ele>143.0</ele><time>2026-04-24T12:59:39.252Z</time></trkpt><trkpt lat="46.1106276" lon="13.4766067"><ele>143.0</ele><time>2026-04-24T12:59:40.252Z</time></trkpt><trkpt lat="46.110553" lon="13.4764983"><ele>143.0</ele><time>2026-04-24T12:59:41.252Z</time></trkpt><trkpt lat="46.1105147" lon="13.4763357"><ele>141.5</ele><time>2026-04-24T12:59:42.252Z</time></trkpt><trkpt lat="46.1104768" lon="13.4761872"><ele>140.0</ele><time>2026-04-24T12:59:43.251Z</time></trkpt><trkpt lat="46.1104372" lon="13.476033"><ele>138.5</ele><time>2026-04-24T12:59:44.253Z</time></trkpt><trkpt lat="46.1103779" lon="13.4758937"><ele>137.0</ele><time>2026-04-24T12:59:45.253Z</time></trkpt><trkpt lat="46.1102966" lon="13.475764"><ele>137.0</ele><time>2026-04-24T12:59:46.251Z</time></trkpt><trkpt lat="46.1101893" lon="13.4756518"><ele>137.0</ele><time>2026-04-24T12:59:47.253Z</time></trkpt><trkpt lat="46.1100816" lon="13.4755419"><ele>137.0</ele><time>2026-04-24T12:59:48.252Z</time></trkpt><trkpt lat="46.10997" lon="13.4754361"><ele>137.0</ele><time>2026-04-24T12:59:49.253Z</time></trkpt><trkpt lat="46.1098532" lon="13.475326"><ele>135.5</ele><time>2026-04-24T12:59:50.253Z</time></trkpt><trkpt lat="46.1097375" lon="13.4752152"><ele>134.0</ele><time>2026-04-24T12:59:51.252Z</time></trkpt><trkpt lat="46.1096246" lon="13.4750946"><ele>132.5</ele><time>2026-04-24T12:59:52.253Z</time></trkpt><trkpt lat="46.1095058" lon="13.4749841"><ele>131.0</ele><time>2026-04-24T12:59:53.252Z</time></trkpt><trkpt lat="46.1093909" lon="13.4748685"><ele>131.0</ele><time>2026-04-24T12:59:54.251Z</time></trkpt><trkpt lat="46.109273" lon="13.4747508"><ele>131.0</ele><time>2026-04-24T12:59:55.252Z</time></trkpt><trkpt lat="46.109153" lon="13.4746452"><ele>131.0</ele><time>2026-04-24T12:59:56.252Z</time></trkpt><trkpt lat="46.1090254" lon="13.4745524"><ele>131.0</ele><time>2026-04-24T12:59:57.251Z</time></trkpt><trkpt lat="46.1088833" lon="13.4744887"><ele>131.33333333333331</ele><time>2026-04-24T12:59:58.253Z</time></trkpt><trkpt lat="46.1087359" lon="13.4744355"><ele>131.66666666666666</ele><time>2026-04-24T12:59:59.252Z</time></trkpt><trkpt lat="46.1085838" lon="13.4744065"><ele>132.0</ele><time>2026-04-24T13:00:00.252Z</time></trkpt><trkpt lat="46.1084249" lon="13.4743786"><ele>132.0</ele><time>2026-04-24T13:00:01.252Z</time></trkpt><trkpt lat="46.1082636" lon="13.4743551"><ele>132.0</ele><time>2026-04-24T13:00:02.253Z</time></trkpt><trkpt lat="46.1081025" lon="13.4743306"><ele>132.0</ele><time>2026-04-24T13:00:03.252Z</time></trkpt><trkpt lat="46.1079366" lon="13.4743129"><ele>132.33333333333334</ele><time>2026-04-24T13:00:04.253Z</time></trkpt><trkpt lat="46.1077673" lon="13.4742917"><ele>132.66666666666669</ele><time>2026-04-24T13:00:05.253Z</time></trkpt><trkpt lat="46.1075992" lon="13.474269"><ele>133.0</ele><time>2026-04-24T13:00:06.251Z</time></trkpt><trkpt lat="46.1074304" lon="13.4742489"><ele>134.66666666666669</ele><time>2026-04-24T13:00:07.252Z</time></trkpt><trkpt lat="46.1072613" lon="13.4742277"><ele>136.33333333333334</ele><time>2026-04-24T13:00:08.251Z</time></trkpt><trkpt lat="46.1070914" lon="13.4742063"><ele>138.0</ele><time>2026-04-24T13:00:09.252Z</time></trkpt><trkpt lat="46.1069258" lon="13.4741844"><ele>138.0</ele><time>2026-04-24T13:00:10.252Z</time></trkpt><trkpt lat="46.1067582" lon="13.4741617"><ele>138.0</ele><time>2026-04-24T13:00:11.251Z</time></trkpt><trkpt lat="46.1065925" lon="13.474116"><ele>138.0</ele><time>2026-04-24T13:00:12.251Z</time></trkpt><trkpt lat="46.1064314" lon="13.4740463"><ele>138.66666666666666</ele><time>2026-04-24T13:00:13.252Z</time></trkpt><trkpt lat="46.1062766" lon="13.4739474"><ele>139.33333333333331</ele><time>2026-04-24T13:00:14.251Z</time></trkpt><trkpt lat="46.106131" lon="13.4738188"><ele>140.0</ele><time>2026-04-24T13:00:15.251Z</time></trkpt><trkpt lat="46.105998" lon="13.4736602"><ele>140.0</ele><time>2026-04-24T13:00:16.25Z</time></trkpt><trkpt lat="46.1058796" lon="13.4734732"><ele>140.0</ele><time>2026-04-24T13:00:17.251Z</time></trkpt><trkpt lat="46.1057761" lon="13.4732642"><ele>140.0</ele><time>2026-04-24T13:00:18.25Z</time></trkpt><trkpt lat="46.1056724" lon="13.4730437"><ele>142.0</ele><time>2026-04-24T13:00:19.251Z</time></trkpt><trkpt lat="46.1055628" lon="13.4728239"><ele>144.0</ele><time>2026-04-24T13:00:20.25Z</time></trkpt><trkpt lat="46.105452" lon="13.4726045"><ele>146.0</ele><time>2026-04-24T13:00:21.251Z</time></trkpt><trkpt lat="46.1053438" lon="13.4723915"><ele>146.0</ele><time>2026-04-24T13:00:22.251Z</time></trkpt><trkpt lat="46.1052441" lon="13.472195"><ele>146.0</ele><time>2026-04-24T13:00:23.25Z</time></trkpt><trkpt lat="46.105153" lon="13.4720093"><ele>146.0</ele><time>2026-04-24T13:00:24.251Z</time></trkpt><trkpt lat="46.1050632" lon="13.4718447"><ele>146.25</ele><time>2026-04-24T13:00:25.251Z</time></trkpt><trkpt lat="46.1049645" lon="13.471701"><ele>146.5</ele><time>2026-04-24T13:00:26.252Z</time></trkpt><trkpt lat="46.104842" lon="13.4715714"><ele>146.75</ele><time>2026-04-24T13:00:27.251Z</time></trkpt><trkpt lat="46.1047092" lon="13.471458"><ele>147.0</ele><time>2026-04-24T13:00:28.252Z</time></trkpt><trkpt lat="46.1045811" lon="13.4713587"><ele>147.0</ele><time>2026-04-24T13:00:29.251Z</time></trkpt><trkpt lat="46.1044545" lon="13.4712601"><ele>147.0</ele><time>2026-04-24T13:00:30.251Z</time></trkpt><trkpt lat="46.1043285" lon="13.471161"><ele>147.0</ele><time>2026-04-24T13:00:31.251Z</time></trkpt><trkpt lat="46.1042078" lon="13.471078"><ele>147.0</ele><time>2026-04-24T13:00:32.251Z</time></trkpt><trkpt lat="46.1040801" lon="13.4709857"><ele>147.0</ele><time>2026-04-24T13:00:33.251Z</time></trkpt><trkpt lat="46.1039476" lon="13.4708964"><ele>147.0</ele><time>2026-04-24T13:00:34.251Z</time></trkpt><trkpt lat="46.1038116" lon="13.4707972"><ele>147.0</ele><time>2026-04-24T13:00:35.252Z</time></trkpt><trkpt lat="46.1036799" lon="13.4706985"><ele>147.0</ele><time>2026-04-24T13:00:36.251Z</time></trkpt><trkpt lat="46.103553" lon="13.470581"><ele>147.0</ele><time>2026-04-24T13:00:37.25Z</time></trkpt><trkpt lat="46.103431" lon="13.4704468"><ele>147.0</ele><time>2026-04-24T13:00:38.251Z</time></trkpt><trkpt lat="46.103311" lon="13.470308"><ele>147.0</ele><time>2026-04-24T13:00:39.25Z</time></trkpt><trkpt lat="46.1031894" lon="13.4701675"><ele>146.66666666666666</ele><time>2026-04-24T13:00:40.251Z</time></trkpt><trkpt lat="46.1030669" lon="13.470022"><ele>146.33333333333331</ele><time>2026-04-24T13:00:41.251Z</time></trkpt><trkpt lat="46.1029464" lon="13.4698711"><ele>146.0</ele><time>2026-04-24T13:00:42.25Z</time></trkpt><trkpt lat="46.1028289" lon="13.4697075"><ele>146.0</ele><time>2026-04-24T13:00:43.25Z</time></trkpt><trkpt lat="46.1027201" lon="13.4695347"><ele>146.0</ele><time>2026-04-24T13:00:44.25Z</time></trkpt><trkpt lat="46.1026238" lon="13.4693537"><ele>146.0</ele><time>2026-04-24T13:00:45.25Z</time></trkpt><trkpt lat="46.1025373" lon="13.4691779"><ele>146.0</ele><time>2026-04-24T13:00:46.25Z</time></trkpt><trkpt lat="46.102463" lon="13.469009"><ele>146.0</ele><time>2026-04-24T13:00:47.252Z</time></trkpt><trkpt lat="46.1023953" lon="13.4688495"><ele>146.0</ele><time>2026-04-24T13:00:48.251Z</time></trkpt><trkpt lat="46.1023315" lon="13.4687009"><ele>146.0</ele><time>2026-04-24T13:00:49.252Z</time></trkpt><trkpt lat="46.1022701" lon="13.4685584"><ele>146.0</ele><time>2026-04-24T13:00:50.251Z</time></trkpt><trkpt lat="46.1022065" lon="13.4684139"><ele>146.0</ele><time>2026-04-24T13:00:51.251Z</time></trkpt><trkpt lat="46.102137" lon="13.4682638"><ele>146.0</ele><time>2026-04-24T13:00:52.251Z</time></trkpt><trkpt lat="46.1020658" lon="13.4681108"><ele>146.0</ele><time>2026-04-24T13:00:53.252Z</time></trkpt><trkpt lat="46.1019952" lon="13.4679479"><ele>146.0</ele><time>2026-04-24T13:00:54.252Z</time></trkpt><trkpt lat="46.1019235" lon="13.4677824"><ele>146.0</ele><time>2026-04-24T13:00:55.252Z</time></trkpt><trkpt lat="46.1018491" lon="13.4676171"><ele>146.0</ele><time>2026-04-24T13:00:56.252Z</time></trkpt><trkpt lat="46.1017781" lon="13.4674514"><ele>146.0</ele><time>2026-04-24T13:00:57.251Z</time></trkpt><trkpt lat="46.1017057" lon="13.4672889"><ele>146.0</ele><time>2026-04-24T13:00:58.251Z</time></trkpt><trkpt lat="46.1016415" lon="13.4671443"><ele>146.0</ele><time>2026-04-24T13:00:59.251Z</time></trkpt><trkpt lat="46.1015881" lon="13.4670253"><ele>146.0</ele><time>2026-04-24T13:01:00.25Z</time></trkpt><trkpt lat="46.1015419" lon="13.4669276"><ele>146.0</ele><time>2026-04-24T13:01:01.251Z</time></trkpt><trkpt lat="46.1014701" lon="13.4668438"><ele>146.0</ele><time>2026-04-24T13:01:03.251Z</time></trkpt><trkpt lat="46.1013904" lon="13.4668784"><ele>146.0</ele><time>2026-04-24T13:01:05.252Z</time></trkpt><trkpt lat="46.1013281" lon="13.4669295"><ele>146.0</ele><time>2026-04-24T13:01:06.252Z</time></trkpt><trkpt lat="46.1012551" lon="13.4669885"><ele>146.0</ele><time>2026-04-24T13:01:07.251Z</time></trkpt><trkpt lat="46.1011816" lon="13.467061"><ele>146.0</ele><time>2026-04-24T13:01:08.252Z</time></trkpt><trkpt lat="46.1011143" lon="13.4671414"><ele>146.0</ele><time>2026-04-24T13:01:09.25Z</time></trkpt><trkpt lat="46.1010477" lon="13.4672311"><ele>146.0</ele><time>2026-04-24T13:01:10.251Z</time></trkpt><trkpt lat="46.1009847" lon="13.4673306"><ele>146.0</ele><time>2026-04-24T13:01:11.25Z</time></trkpt><trkpt lat="46.1009248" lon="13.4674383"><ele>146.0</ele><time>2026-04-24T13:01:12.25Z</time></trkpt><trkpt lat="46.1008646" lon="13.4675451"><ele>146.0</ele><time>2026-04-24T13:01:13.25Z</time></trkpt><trkpt lat="46.1008207" lon="13.4676518"><ele>146.0</ele><time>2026-04-24T13:01:14.25Z</time></trkpt><trkpt lat="46.1007827" lon="13.4677542"><ele>146.0</ele><time>2026-04-24T13:01:15.251Z</time></trkpt><trkpt lat="46.1007556" lon="13.4678526"><ele>146.0</ele><time>2026-04-24T13:01:16.25Z</time></trkpt><trkpt lat="46.1007426" lon="13.4679481"><ele>146.16666666666666</ele><time>2026-04-24T13:01:17.251Z</time></trkpt><trkpt lat="46.1007403" lon="13.4681199"><ele>146.33333333333331</ele><time>2026-04-24T13:01:19.251Z</time></trkpt><trkpt lat="46.1007581" lon="13.4682229"><ele>146.5</ele><time>2026-04-24T13:01:20.252Z</time></trkpt><trkpt lat="46.1007838" lon="13.468337"><ele>146.66666666666666</ele><time>2026-04-24T13:01:21.251Z</time></trkpt><trkpt lat="46.10081" lon="13.4684453"><ele>146.83333333333334</ele><time>2026-04-24T13:01:22.25Z</time></trkpt><trkpt lat="46.1008427" lon="13.4685642"><ele>147.0</ele><time>2026-04-24T13:01:23.251Z</time></trkpt><trkpt lat="46.1008726" lon="13.4686784"><ele>146.83333333333334</ele><time>2026-04-24T13:01:24.251Z</time></trkpt><trkpt lat="46.1009053" lon="13.4687959"><ele>146.66666666666666</ele><time>2026-04-24T13:01:25.25Z</time></trkpt><trkpt lat="46.1009362" lon="13.4689122"><ele>146.5</ele><time>2026-04-24T13:01:26.251Z</time></trkpt><trkpt lat="46.1009708" lon="13.4690218"><ele>146.33333333333331</ele><time>2026-04-24T13:01:27.25Z</time></trkpt><trkpt lat="46.1010021" lon="13.4691319"><ele>146.16666666666666</ele><time>2026-04-24T13:01:28.25Z</time></trkpt><trkpt lat="46.1010172" lon="13.4692363"><ele>146.0</ele><time>2026-04-24T13:01:29.25Z</time></trkpt><trkpt lat="46.1010224" lon="13.4693343"><ele>146.0</ele><time>2026-04-24T13:01:30.251Z</time></trkpt><trkpt lat="46.101014" lon="13.469428"><ele>146.0</ele><time>2026-04-24T13:01:31.252Z</time></trkpt><trkpt lat="46.1009948" lon="13.4695273"><ele>146.0</ele><time>2026-04-24T13:01:32.251Z</time></trkpt><trkpt lat="46.1009659" lon="13.4696263"><ele>146.0</ele><time>2026-04-24T13:01:33.252Z</time></trkpt><trkpt lat="46.1009278" lon="13.4697256"><ele>146.0</ele><time>2026-04-24T13:01:34.251Z</time></trkpt><trkpt lat="46.1008787" lon="13.4698219"><ele>146.0</ele><time>2026-04-24T13:01:35.252Z</time></trkpt><trkpt lat="46.100822" lon="13.4699182"><ele>145.83333333333331</ele><time>2026-04-24T13:01:36.251Z</time></trkpt><trkpt lat="46.1007634" lon="13.4700154"><ele>145.66666666666666</ele><time>2026-04-24T13:01:37.25Z</time></trkpt><trkpt lat="46.100707" lon="13.4701075"><ele>145.5</ele><time>2026-04-24T13:01:38.25Z</time></trkpt><trkpt lat="46.1006541" lon="13.4701945"><ele>145.33333333333334</ele><time>2026-04-24T13:01:39.25Z</time></trkpt><trkpt lat="46.1006151" lon="13.4702748"><ele>145.16666666666669</ele><time>2026-04-24T13:01:40.251Z</time></trkpt><trkpt lat="46.1005711" lon="13.4704359"><ele>145.0</ele><time>2026-04-24T13:01:42.251Z</time></trkpt><trkpt lat="46.1005662" lon="13.470576"><ele>145.33333333333334</ele><time>2026-04-24T13:01:44.252Z</time></trkpt><trkpt lat="46.1006032" lon="13.4706804"><ele>145.66666666666669</ele><time>2026-04-24T13:01:46.251Z</time></trkpt><trkpt lat="46.1006811" lon="13.4707616"><ele>146.0</ele><time>2026-04-24T13:01:48.25Z</time></trkpt><trkpt lat="46.100739" lon="13.4708147"><ele>146.33333333333334</ele><time>2026-04-24T13:01:49.251Z</time></trkpt><trkpt lat="46.1008004" lon="13.4708673"><ele>146.66666666666666</ele><time>2026-04-24T13:01:50.25Z</time></trkpt><trkpt lat="46.100859" lon="13.4709191"><ele>147.0</ele><time>2026-04-24T13:01:51.25Z</time></trkpt><trkpt lat="46.1009147" lon="13.4709762"><ele>147.0</ele><time>2026-04-24T13:01:52.25Z</time></trkpt><trkpt lat="46.10097" lon="13.4710328"><ele>147.0</ele><time>2026-04-24T13:01:53.25Z</time></trkpt><trkpt lat="46.1010266" lon="13.4710909"><ele>147.0</ele><time>2026-04-24T13:01:54.25Z</time></trkpt><trkpt lat="46.1010832" lon="13.4711431"><ele>147.0</ele><time>2026-04-24T13:01:55.252Z</time></trkpt><trkpt lat="46.1011746" lon="13.4712201"><ele>147.0</ele><time>2026-04-24T13:01:57.252Z</time></trkpt><trkpt lat="46.1012162" lon="13.4713356"><ele>147.0</ele><time>2026-04-24T13:02:00.251Z</time></trkpt><trkpt lat="46.1011999" lon="13.471464"><ele>147.6</ele><time>2026-04-24T13:02:02.251Z</time></trkpt><trkpt lat="46.1011641" lon="13.4716276"><ele>148.2</ele><time>2026-04-24T13:02:04.252Z</time></trkpt><trkpt lat="46.1011501" lon="13.4717226"><ele>148.8</ele><time>2026-04-24T13:02:05.251Z</time></trkpt><trkpt lat="46.1011128" lon="13.4719019"><ele>149.4</ele><time>2026-04-24T13:02:07.251Z</time></trkpt><trkpt lat="46.1010862" lon="13.4720016"><ele>150.0</ele><time>2026-04-24T13:02:08.25Z</time></trkpt><trkpt lat="46.1010598" lon="13.4721073"><ele>150.16666666666666</ele><time>2026-04-24T13:02:09.25Z</time></trkpt><trkpt lat="46.1010337" lon="13.4722166"><ele>150.33333333333334</ele><time>2026-04-24T13:02:10.252Z</time></trkpt><trkpt lat="46.1010103" lon="13.4723131"><ele>150.5</ele><time>2026-04-24T13:02:11.252Z</time></trkpt><trkpt lat="46.1009765" lon="13.4724562"><ele>150.66666666666669</ele><time>2026-04-24T13:02:13.25Z</time></trkpt><trkpt lat="46.1009741" lon="13.472581"><ele>150.83333333333334</ele><time>2026-04-24T13:02:18.252Z</time></trkpt><trkpt lat="46.1010361" lon="13.4726956"><ele>151.0</ele><time>2026-04-24T13:02:20.25Z</time></trkpt><trkpt lat="46.1011126" lon="13.4728204"><ele>151.6</ele><time>2026-04-24T13:02:22.251Z</time></trkpt><trkpt lat="46.1011712" lon="13.4729704"><ele>152.2</ele><time>2026-04-24T13:02:24.252Z</time></trkpt><trkpt lat="46.1012023" lon="13.4731372"><ele>152.8</ele><time>2026-04-24T13:02:26.251Z</time></trkpt><trkpt lat="46.1011677" lon="13.4733003"><ele>153.4</ele><time>2026-04-24T13:02:28.25Z</time></trkpt><trkpt lat="46.1011282" lon="13.4733889"><ele>154.0</ele><time>2026-04-24T13:02:29.25Z</time></trkpt><trkpt lat="46.1010862" lon="13.47348"><ele>154.0</ele><time>2026-04-24T13:02:30.252Z</time></trkpt><trkpt lat="46.1010423" lon="13.4735758"><ele>154.0</ele><time>2026-04-24T13:02:31.251Z</time></trkpt><trkpt lat="46.1009999" lon="13.4736752"><ele>154.0</ele><time>2026-04-24T13:02:32.25Z</time></trkpt><trkpt lat="46.1009541" lon="13.4737703"><ele>154.0</ele><time>2026-04-24T13:02:33.251Z</time></trkpt><trkpt lat="46.1009056" lon="13.4738667"><ele>154.0</ele><time>2026-04-24T13:02:34.25Z</time></trkpt><trkpt lat="46.1008628" lon="13.4739676"><ele>154.0</ele><time>2026-04-24T13:02:35.252Z</time></trkpt><trkpt lat="46.100821" lon="13.4740644"><ele>154.0</ele><time>2026-04-24T13:02:36.251Z</time></trkpt><trkpt lat="46.100779" lon="13.474141"><ele>154.0</ele><time>2026-04-24T13:02:37.251Z</time></trkpt><trkpt lat="46.1006969" lon="13.4742203"><ele>154.0</ele><time>2026-04-24T13:02:39.251Z</time></trkpt><trkpt lat="46.1006014" lon="13.4742095"><ele>154.0</ele><time>2026-04-24T13:02:42.251Z</time></trkpt><trkpt lat="46.1004709" lon="13.4741537"><ele>154.0</ele><time>2026-04-24T13:02:44.25Z</time></trkpt><trkpt lat="46.1003891" lon="13.4741212"><ele>153.66666666666669</ele><time>2026-04-24T13:02:45.252Z</time></trkpt><trkpt lat="46.1003093" lon="13.4740902"><ele>153.33333333333334</ele><time>2026-04-24T13:02:46.251Z</time></trkpt><trkpt lat="46.1002375" lon="13.4740617"><ele>153.0</ele><time>2026-04-24T13:02:47.252Z</time></trkpt><trkpt lat="46.1001751" lon="13.4740401"><ele>152.66666666666666</ele><time>2026-04-24T13:02:48.251Z</time></trkpt><trkpt lat="46.1000933" lon="13.4740102"><ele>152.33333333333331</ele><time>2026-04-24T13:02:50.251Z</time></trkpt><trkpt lat="46.1000224" lon="13.4740213"><ele>152.0</ele><time>2026-04-24T13:02:53.249Z</time></trkpt><trkpt lat="46.0999854" lon="13.4741285"><ele>152.0</ele><time>2026-04-24T13:02:56.25Z</time></trkpt><trkpt lat="46.0999467" lon="13.4742711"><ele>152.0</ele><time>2026-04-24T13:02:58.25Z</time></trkpt><trkpt lat="46.0999312" lon="13.4744056"><ele>152.0</ele><time>2026-04-24T13:03:00.249Z</time></trkpt><trkpt lat="46.0999237" lon="13.4745041"><ele>152.0</ele><time>2026-04-24T13:03:02.249Z</time></trkpt><trkpt lat="46.0999175" lon="13.4746316"><ele>152.0</ele><time>2026-04-24T13:03:05.25Z</time></trkpt><trkpt lat="46.0999041" lon="13.4747417"><ele>152.0</ele><time>2026-04-24T13:03:08.25Z</time></trkpt><trkpt lat="46.0998711" lon="13.4748202"><ele>152.0</ele><time>2026-04-24T13:03:11.25Z</time></trkpt><trkpt lat="46.0999317" lon="13.4745567"><ele>152.0</ele><time>2026-04-24T13:03:38.249Z</time></trkpt><trkpt lat="46.099944" lon="13.4744145"><ele>152.0</ele><time>2026-04-24T13:03:40.249Z</time></trkpt><trkpt lat="46.0999892" lon="13.4742116"><ele>152.0</ele><time>2026-04-24T13:03:44.25Z</time></trkpt><trkpt lat="46.1000248" lon="13.4740795"><ele>152.0</ele><time>2026-04-24T13:03:51.251Z</time></trkpt><trkpt lat="46.0999902" lon="13.4739799"><ele>152.0</ele><time>2026-04-24T13:04:59.25Z</time></trkpt><trkpt lat="46.0999022" lon="13.4739508"><ele>152.0</ele><time>2026-04-24T13:05:00.249Z</time></trkpt><trkpt lat="46.0998001" lon="13.4739456"><ele>152.0</ele><time>2026-04-24T13:05:01.249Z</time></trkpt><trkpt lat="46.0996746" lon="13.473911"><ele>152.0</ele><time>2026-04-24T13:05:03.25Z</time></trkpt><trkpt lat="46.0996065" lon="13.473903"><ele>151.66666666666666</ele><time>2026-04-24T13:05:04.249Z</time></trkpt><trkpt lat="46.099498" lon="13.4738517"><ele>151.33333333333331</ele><time>2026-04-24T13:05:06.249Z</time></trkpt><trkpt lat="46.0994393" lon="13.473815"><ele>151.0</ele><time>2026-04-24T13:05:07.251Z</time></trkpt><trkpt lat="46.099379" lon="13.4737587"><ele>150.66666666666666</ele><time>2026-04-24T13:05:08.25Z</time></trkpt><trkpt lat="46.099324" lon="13.4736721"><ele>150.33333333333334</ele><time>2026-04-24T13:05:09.251Z</time></trkpt><trkpt lat="46.0992745" lon="13.473567"><ele>150.0</ele><time>2026-04-24T13:05:10.25Z</time></trkpt><trkpt lat="46.0992369" lon="13.4734536"><ele>150.0</ele><time>2026-04-24T13:05:11.249Z</time></trkpt><trkpt lat="46.0992133" lon="13.4733324"><ele>150.0</ele><time>2026-04-24T13:05:12.248Z</time></trkpt><trkpt lat="46.099204" lon="13.4732144"><ele>150.0</ele><time>2026-04-24T13:05:13.248Z</time></trkpt><trkpt lat="46.0992048" lon="13.4731038"><ele>150.0</ele><time>2026-04-24T13:05:14.25Z</time></trkpt><trkpt lat="46.099205" lon="13.4729947"><ele>150.0</ele><time>2026-04-24T13:05:15.249Z</time></trkpt><trkpt lat="46.0992042" lon="13.4728985"><ele>150.0</ele><time>2026-04-24T13:05:16.249Z</time></trkpt><trkpt lat="46.0991675" lon="13.4727852"><ele>149.8</ele><time>2026-04-24T13:05:18.249Z</time></trkpt><trkpt lat="46.0990578" lon="13.4727647"><ele>149.6</ele><time>2026-04-24T13:05:20.248Z</time></trkpt><trkpt lat="46.098981" lon="13.4727508"><ele>149.4</ele><time>2026-04-24T13:05:21.248Z</time></trkpt><trkpt lat="46.0989052" lon="13.4727272"><ele>149.2</ele><time>2026-04-24T13:05:22.249Z</time></trkpt><trkpt lat="46.0988121" lon="13.472703"><ele>149.0</ele><time>2026-04-24T13:05:23.249Z</time></trkpt><trkpt lat="46.0987194" lon="13.4726707"><ele>149.0</ele><time>2026-04-24T13:05:24.25Z</time></trkpt><trkpt lat="46.0986229" lon="13.4726359"><ele>149.0</ele><time>2026-04-24T13:05:25.25Z</time></trkpt><trkpt lat="46.0985214" lon="13.472601"><ele>149.0</ele><time>2026-04-24T13:05:26.248Z</time></trkpt><trkpt lat="46.0984159" lon="13.4725644"><ele>149.0</ele><time>2026-04-24T13:05:27.248Z</time></trkpt><trkpt lat="46.0983059" lon="13.4725298"><ele>149.0</ele><time>2026-04-24T13:05:28.248Z</time></trkpt><trkpt lat="46.0981933" lon="13.472497"><ele>149.6</ele><time>2026-04-24T13:05:29.249Z</time></trkpt><trkpt lat="46.0980766" lon="13.4724746"><ele>150.2</ele><time>2026-04-24T13:05:30.25Z</time></trkpt><trkpt lat="46.0979699" lon="13.4724586"><ele>150.79999999999998</ele><time>2026-04-24T13:05:31.248Z</time></trkpt><trkpt lat="46.0978676" lon="13.4724502"><ele>151.4</ele><time>2026-04-24T13:05:32.249Z</time></trkpt><trkpt lat="46.0977723" lon="13.4724464"><ele>152.0</ele><time>2026-04-24T13:05:33.25Z</time></trkpt><trkpt lat="46.0976862" lon="13.4724458"><ele>152.0</ele><time>2026-04-24T13:05:34.25Z</time></trkpt><trkpt lat="46.0976133" lon="13.4724451"><ele>152.0</ele><time>2026-04-24T13:05:35.248Z</time></trkpt><trkpt lat="46.0975418" lon="13.472448"><ele>152.0</ele><time>2026-04-24T13:05:36.25Z</time></trkpt><trkpt lat="46.0974746" lon="13.4724647"><ele>152.0</ele><time>2026-04-24T13:05:37.25Z</time></trkpt><trkpt lat="46.0974132" lon="13.4725008"><ele>152.0</ele><time>2026-04-24T13:05:38.25Z</time></trkpt><trkpt lat="46.0973557" lon="13.4725689"><ele>152.0</ele><time>2026-04-24T13:05:39.249Z</time></trkpt><trkpt lat="46.0972981" lon="13.4726545"><ele>152.0</ele><time>2026-04-24T13:05:40.25Z</time></trkpt><trkpt lat="46.097234" lon="13.4727488"><ele>152.79999999999998</ele><time>2026-04-24T13:05:41.248Z</time></trkpt><trkpt lat="46.0971668" lon="13.4728415"><ele>153.6</ele><time>2026-04-24T13:05:42.25Z</time></trkpt><trkpt lat="46.0970909" lon="13.4729311"><ele>154.39999999999998</ele><time>2026-04-24T13:05:43.25Z</time></trkpt><trkpt lat="46.0970127" lon="13.4730296"><ele>155.2</ele><time>2026-04-24T13:05:44.25Z</time></trkpt><trkpt lat="46.0969391" lon="13.4731388"><ele>156.0</ele><time>2026-04-24T13:05:45.25Z</time></trkpt><trkpt lat="46.0968682" lon="13.4732574"><ele>156.0</ele><time>2026-04-24T13:05:46.249Z</time></trkpt><trkpt lat="46.0967953" lon="13.4733907"><ele>156.0</ele><time>2026-04-24T13:05:47.249Z</time></trkpt><trkpt lat="46.0967211" lon="13.473521"><ele>156.0</ele><time>2026-04-24T13:05:48.248Z</time></trkpt><trkpt lat="46.0966442" lon="13.4736586"><ele>156.0</ele><time>2026-04-24T13:05:49.25Z</time></trkpt><trkpt lat="46.0965723" lon="13.4737998"><ele>156.75</ele><time>2026-04-24T13:05:50.25Z</time></trkpt><trkpt lat="46.0964942" lon="13.4739447"><ele>157.5</ele><time>2026-04-24T13:05:51.25Z</time></trkpt><trkpt lat="46.0964135" lon="13.4740929"><ele>158.25</ele><time>2026-04-24T13:05:52.249Z</time></trkpt><trkpt lat="46.0963334" lon="13.4742453"><ele>159.0</ele><time>2026-04-24T13:05:53.249Z</time></trkpt><trkpt lat="46.0962575" lon="13.4743911"><ele>159.0</ele><time>2026-04-24T13:05:54.248Z</time></trkpt><trkpt lat="46.0961853" lon="13.4745257"><ele>159.0</ele><time>2026-04-24T13:05:55.248Z</time></trkpt><trkpt lat="46.0961165" lon="13.4746498"><ele>159.0</ele><time>2026-04-24T13:05:56.249Z</time></trkpt><trkpt lat="46.0960516" lon="13.4747668"><ele>159.0</ele><time>2026-04-24T13:05:57.249Z</time></trkpt><trkpt lat="46.0959896" lon="13.474873"><ele>159.0</ele><time>2026-04-24T13:05:58.248Z</time></trkpt><trkpt lat="46.0959205" lon="13.4749652"><ele>159.5</ele><time>2026-04-24T13:05:59.249Z</time></trkpt><trkpt lat="46.0958541" lon="13.4750356"><ele>160.0</ele><time>2026-04-24T13:06:00.249Z</time></trkpt><trkpt lat="46.0957766" lon="13.4750869"><ele>160.5</ele><time>2026-04-24T13:06:01.249Z</time></trkpt><trkpt lat="46.0956985" lon="13.4751332"><ele>161.0</ele><time>2026-04-24T13:06:02.25Z</time></trkpt><trkpt lat="46.0956145" lon="13.475173"><ele>161.5</ele><time>2026-04-24T13:06:03.249Z</time></trkpt><trkpt lat="46.095526" lon="13.4752024"><ele>162.0</ele><time>2026-04-24T13:06:04.249Z</time></trkpt><trkpt lat="46.0954291" lon="13.4752141"><ele>162.0</ele><time>2026-04-24T13:06:05.248Z</time></trkpt><trkpt lat="46.0953339" lon="13.475213"><ele>162.0</ele><time>2026-04-24T13:06:06.249Z</time></trkpt><trkpt lat="46.0952359" lon="13.4752013"><ele>162.0</ele><time>2026-04-24T13:06:07.25Z</time></trkpt><trkpt lat="46.0951397" lon="13.4751879"><ele>162.0</ele><time>2026-04-24T13:06:08.249Z</time></trkpt><trkpt lat="46.0950396" lon="13.4751798"><ele>162.0</ele><time>2026-04-24T13:06:09.25Z</time></trkpt><trkpt lat="46.0949366" lon="13.4751709"><ele>162.2</ele><time>2026-04-24T13:06:10.249Z</time></trkpt><trkpt lat="46.0948343" lon="13.4751529"><ele>162.39999999999998</ele><time>2026-04-24T13:06:11.248Z</time></trkpt><trkpt lat="46.0947297" lon="13.4751413"><ele>162.60000000000002</ele><time>2026-04-24T13:06:12.248Z</time></trkpt><trkpt lat="46.0946242" lon="13.4751301"><ele>162.8</ele><time>2026-04-24T13:06:13.248Z</time></trkpt><trkpt lat="46.0945182" lon="13.4751229"><ele>163.0</ele><time>2026-04-24T13:06:14.249Z</time></trkpt><trkpt lat="46.0944109" lon="13.4751213"><ele>163.0</ele><time>2026-04-24T13:06:15.248Z</time></trkpt><trkpt lat="46.0943062" lon="13.4751309"><ele>163.0</ele><time>2026-04-24T13:06:16.249Z</time></trkpt><trkpt lat="46.094208" lon="13.475145"><ele>163.0</ele><time>2026-04-24T13:06:17.249Z</time></trkpt><trkpt lat="46.0941111" lon="13.475155"><ele>163.0</ele><time>2026-04-24T13:06:18.25Z</time></trkpt><trkpt lat="46.0940206" lon="13.4751485"><ele>163.0</ele><time>2026-04-24T13:06:19.249Z</time></trkpt><trkpt lat="46.0939347" lon="13.4751303"><ele>161.83333333333334</ele><time>2026-04-24T13:06:20.249Z</time></trkpt><trkpt lat="46.0938598" lon="13.4751055"><ele>160.66666666666669</ele><time>2026-04-24T13:06:21.249Z</time></trkpt><trkpt lat="46.0937903" lon="13.4750773"><ele>159.5</ele><time>2026-04-24T13:06:22.249Z</time></trkpt><trkpt lat="46.0937229" lon="13.4750384"><ele>158.33333333333334</ele><time>2026-04-24T13:06:23.25Z</time></trkpt><trkpt lat="46.093657" lon="13.4749886"><ele>157.16666666666666</ele><time>2026-04-24T13:06:24.249Z</time></trkpt><trkpt lat="46.093596" lon="13.4749241"><ele>156.0</ele><time>2026-04-24T13:06:25.249Z</time></trkpt><trkpt lat="46.0935395" lon="13.4748414"><ele>156.0</ele><time>2026-04-24T13:06:26.249Z</time></trkpt><trkpt lat="46.093488" lon="13.4747474"><ele>156.0</ele><time>2026-04-24T13:06:27.25Z</time></trkpt><trkpt lat="46.0934423" lon="13.4746462"><ele>156.0</ele><time>2026-04-24T13:06:28.249Z</time></trkpt><trkpt lat="46.0933987" lon="13.4745399"><ele>156.0</ele><time>2026-04-24T13:06:29.249Z</time></trkpt><trkpt lat="46.0933434" lon="13.4744388"><ele>156.0</ele><time>2026-04-24T13:06:30.25Z</time></trkpt><trkpt lat="46.0932753" lon="13.4743429"><ele>156.0</ele><time>2026-04-24T13:06:31.249Z</time></trkpt><trkpt lat="46.0931975" lon="13.4742581"><ele>156.83333333333334</ele><time>2026-04-24T13:06:32.249Z</time></trkpt><trkpt lat="46.0931152" lon="13.4741715"><ele>157.66666666666666</ele><time>2026-04-24T13:06:33.247Z</time></trkpt><trkpt lat="46.0930408" lon="13.4740801"><ele>158.5</ele><time>2026-04-24T13:06:34.248Z</time></trkpt><trkpt lat="46.0929769" lon="13.473977"><ele>159.33333333333331</ele><time>2026-04-24T13:06:35.248Z</time></trkpt><trkpt lat="46.0929154" lon="13.4738914"><ele>160.16666666666666</ele><time>2026-04-24T13:06:36.248Z</time></trkpt><trkpt lat="46.0928513" lon="13.4738594"><ele>161.0</ele><time>2026-04-24T13:06:37.248Z</time></trkpt><trkpt lat="46.0927296" lon="13.4739026"><ele>161.0</ele><time>2026-04-24T13:06:39.248Z</time></trkpt><trkpt lat="46.092674" lon="13.4739483"><ele>161.0</ele><time>2026-04-24T13:06:40.249Z</time></trkpt><trkpt lat="46.0926253" lon="13.4740623"><ele>161.0</ele><time>2026-04-24T13:06:41.248Z</time></trkpt><trkpt lat="46.0925802" lon="13.4741557"><ele>161.0</ele><time>2026-04-24T13:06:42.248Z</time></trkpt><trkpt lat="46.0925274" lon="13.4742624"><ele>161.0</ele><time>2026-04-24T13:06:43.247Z</time></trkpt><trkpt lat="46.0924697" lon="13.4743669"><ele>161.0</ele><time>2026-04-24T13:06:44.249Z</time></trkpt><trkpt lat="46.0924089" lon="13.4744718"><ele>161.8</ele><time>2026-04-24T13:06:45.248Z</time></trkpt><trkpt lat="46.0923449" lon="13.4745728"><ele>162.60000000000002</ele><time>2026-04-24T13:06:46.249Z</time></trkpt><trkpt lat="46.09227" lon="13.4746533"><ele>163.4</ele><time>2026-04-24T13:06:47.249Z</time></trkpt><trkpt lat="46.0921872" lon="13.4747"><ele>164.2</ele><time>2026-04-24T13:06:48.248Z</time></trkpt><trkpt lat="46.0920977" lon="13.4747274"><ele>165.0</ele><time>2026-04-24T13:06:49.247Z</time></trkpt><trkpt lat="46.0920063" lon="13.4747308"><ele>165.0</ele><time>2026-04-24T13:06:50.247Z</time></trkpt><trkpt lat="46.0919151" lon="13.474703"><ele>165.0</ele><time>2026-04-24T13:06:51.248Z</time></trkpt><trkpt lat="46.0918256" lon="13.4746542"><ele>165.0</ele><time>2026-04-24T13:06:52.249Z</time></trkpt><trkpt lat="46.0917344" lon="13.4746004"><ele>165.0</ele><time>2026-04-24T13:06:53.248Z</time></trkpt><trkpt lat="46.0916392" lon="13.4745481"><ele>165.0</ele><time>2026-04-24T13:06:54.248Z</time></trkpt><trkpt lat="46.0915399" lon="13.4745155"><ele>166.0</ele><time>2026-04-24T13:06:55.248Z</time></trkpt><trkpt lat="46.0914387" lon="13.474504"><ele>167.0</ele><time>2026-04-24T13:06:56.247Z</time></trkpt><trkpt lat="46.0913362" lon="13.4745149"><ele>168.0</ele><time>2026-04-24T13:06:57.248Z</time></trkpt><trkpt lat="46.0912306" lon="13.4745475"><ele>169.0</ele><time>2026-04-24T13:06:58.247Z</time></trkpt><trkpt lat="46.0911223" lon="13.4745994"><ele>170.0</ele><time>2026-04-24T13:06:59.247Z</time></trkpt><trkpt lat="46.091012" lon="13.4746538"><ele>169.0</ele><time>2026-04-24T13:07:00.248Z</time></trkpt><trkpt lat="46.0909035" lon="13.4747072"><ele>168.0</ele><time>2026-04-24T13:07:01.248Z</time></trkpt><trkpt lat="46.090788" lon="13.4747637"><ele>167.0</ele><time>2026-04-24T13:07:02.248Z</time></trkpt><trkpt lat="46.0906854" lon="13.4748156"><ele>166.0</ele><time>2026-04-24T13:07:03.248Z</time></trkpt><trkpt lat="46.0905899" lon="13.4748565"><ele>165.0</ele><time>2026-04-24T13:07:04.247Z</time></trkpt><trkpt lat="46.0905019" lon="13.4749001"><ele>165.0</ele><time>2026-04-24T13:07:05.248Z</time></trkpt><trkpt lat="46.0904171" lon="13.4749341"><ele>165.0</ele><time>2026-04-24T13:07:06.248Z</time></trkpt><trkpt lat="46.0903344" lon="13.4749602"><ele>165.0</ele><time>2026-04-24T13:07:07.247Z</time></trkpt><trkpt lat="46.0902542" lon="13.4749673"><ele>165.0</ele><time>2026-04-24T13:07:08.248Z</time></trkpt><trkpt lat="46.0901812" lon="13.4749691"><ele>165.0</ele><time>2026-04-24T13:07:09.248Z</time></trkpt><trkpt lat="46.0901153" lon="13.4749613"><ele>165.0</ele><time>2026-04-24T13:07:10.249Z</time></trkpt><trkpt lat="46.0900216" lon="13.4749241"><ele>165.0</ele><time>2026-04-24T13:07:12.248Z</time></trkpt><trkpt lat="46.0899439" lon="13.4748841"><ele>165.0</ele><time>2026-04-24T13:07:55.246Z</time></trkpt><trkpt lat="46.0897951" lon="13.4748236"><ele>165.0</ele><time>2026-04-24T13:07:57.247Z</time></trkpt><trkpt lat="46.0897198" lon="13.4747656"><ele>165.0</ele><time>2026-04-24T13:07:58.247Z</time></trkpt><trkpt lat="46.0896384" lon="13.4747153"><ele>165.0</ele><time>2026-04-24T13:07:59.246Z</time></trkpt><trkpt lat="46.0895482" lon="13.474637"><ele>167.2</ele><time>2026-04-24T13:08:00.247Z</time></trkpt><trkpt lat="46.0894572" lon="13.4745787"><ele>169.4</ele><time>2026-04-24T13:08:01.247Z</time></trkpt><trkpt lat="46.0893576" lon="13.4745047"><ele>171.60000000000002</ele><time>2026-04-24T13:08:02.247Z</time></trkpt><trkpt lat="46.0892671" lon="13.4744292"><ele>173.8</ele><time>2026-04-24T13:08:03.247Z</time></trkpt><trkpt lat="46.0891768" lon="13.4743497"><ele>176.0</ele><time>2026-04-24T13:08:04.246Z</time></trkpt><trkpt lat="46.0890842" lon="13.4742733"><ele>178.16666666666666</ele><time>2026-04-24T13:08:05.246Z</time></trkpt><trkpt lat="46.0889913" lon="13.4742059"><ele>180.33333333333331</ele><time>2026-04-24T13:08:06.248Z</time></trkpt><trkpt lat="46.0889029" lon="13.4741508"><ele>182.5</ele><time>2026-04-24T13:08:07.247Z</time></trkpt><trkpt lat="46.0888213" lon="13.474136"><ele>184.66666666666666</ele><time>2026-04-24T13:08:08.247Z</time></trkpt><trkpt lat="46.0887453" lon="13.4741673"><ele>186.83333333333334</ele><time>2026-04-24T13:08:09.247Z</time></trkpt><trkpt lat="46.088677" lon="13.4741821"><ele>189.0</ele><time>2026-04-24T13:08:10.247Z</time></trkpt><trkpt lat="46.0886219" lon="13.4742428"><ele>189.0</ele><time>2026-04-24T13:08:11.247Z</time></trkpt><trkpt lat="46.0885752" lon="13.4743095"><ele>189.0</ele><time>2026-04-24T13:08:12.247Z</time></trkpt><trkpt lat="46.088536" lon="13.4744844"><ele>189.0</ele><time>2026-04-24T13:08:14.246Z</time></trkpt><trkpt lat="46.0885955" lon="13.4746214"><ele>189.0</ele><time>2026-04-24T13:08:15.247Z</time></trkpt><trkpt lat="46.0886482" lon="13.4747512"><ele>189.0</ele><time>2026-04-24T13:08:16.247Z</time></trkpt><trkpt lat="46.0887036" lon="13.4748862"><ele>190.79999999999998</ele><time>2026-04-24T13:08:17.247Z</time></trkpt><trkpt lat="46.0887499" lon="13.4750202"><ele>192.6</ele><time>2026-04-24T13:08:18.248Z</time></trkpt><trkpt lat="46.0887829" lon="13.475154"><ele>194.4</ele><time>2026-04-24T13:08:19.247Z</time></trkpt><trkpt lat="46.0888155" lon="13.4752854"><ele>196.2</ele><time>2026-04-24T13:08:20.247Z</time></trkpt><trkpt lat="46.0888351" lon="13.4754147"><ele>198.0</ele><time>2026-04-24T13:08:21.247Z</time></trkpt><trkpt lat="46.0888447" lon="13.4755335"><ele>198.0</ele><time>2026-04-24T13:08:22.246Z</time></trkpt><trkpt lat="46.0888412" lon="13.4756599"><ele>198.0</ele><time>2026-04-24T13:08:23.248Z</time></trkpt><trkpt lat="46.0888425" lon="13.4757686"><ele>198.0</ele><time>2026-04-24T13:08:24.247Z</time></trkpt><trkpt lat="46.0888229" lon="13.47587"><ele>198.0</ele><time>2026-04-24T13:08:25.246Z</time></trkpt><trkpt lat="46.0887751" lon="13.4759359"><ele>198.0</ele><time>2026-04-24T13:08:26.246Z</time></trkpt><trkpt lat="46.0886534" lon="13.4758629"><ele>198.0</ele><time>2026-04-24T13:08:27.246Z</time></trkpt><trkpt lat="46.0886327" lon="13.4757714"><ele>198.0</ele><time>2026-04-24T13:08:28.248Z</time></trkpt><trkpt lat="46.0886233" lon="13.4756062"><ele>198.0</ele><time>2026-04-24T13:08:30.247Z</time></trkpt><trkpt lat="46.0886227" lon="13.4755039"><ele>198.0</ele><time>2026-04-24T13:08:31.247Z</time></trkpt><trkpt lat="46.0885947" lon="13.4753931"><ele>198.0</ele><time>2026-04-24T13:08:32.247Z</time></trkpt><trkpt lat="46.08857" lon="13.4752606"><ele>198.0</ele><time>2026-04-24T13:08:33.247Z</time></trkpt><trkpt lat="46.0885349" lon="13.4751387"><ele>198.83333333333334</ele><time>2026-04-24T13:08:34.248Z</time></trkpt><trkpt lat="46.0885109" lon="13.4750292"><ele>199.66666666666669</ele><time>2026-04-24T13:08:35.246Z</time></trkpt><trkpt lat="46.08842" lon="13.4749565"><ele>200.5</ele><time>2026-04-24T13:08:37.247Z</time></trkpt><trkpt lat="46.0883598" lon="13.4750036"><ele>201.33333333333334</ele><time>2026-04-24T13:08:38.247Z</time></trkpt><trkpt lat="46.0883679" lon="13.4751108"><ele>202.16666666666669</ele><time>2026-04-24T13:08:39.247Z</time></trkpt><trkpt lat="46.0883661" lon="13.4752078"><ele>203.0</ele><time>2026-04-24T13:08:40.246Z</time></trkpt><trkpt lat="46.0883859" lon="13.4753065"><ele>203.0</ele><time>2026-04-24T13:08:41.246Z</time></trkpt><trkpt lat="46.0884372" lon="13.4753956"><ele>203.0</ele><time>2026-04-24T13:08:42.247Z</time></trkpt><trkpt lat="46.0884249" lon="13.4755104"><ele>203.0</ele><time>2026-04-24T13:08:43.247Z</time></trkpt><trkpt lat="46.0884044" lon="13.4756233"><ele>203.0</ele><time>2026-04-24T13:08:44.246Z</time></trkpt><trkpt lat="46.0883838" lon="13.4757475"><ele>203.0</ele><time>2026-04-24T13:08:45.247Z</time></trkpt><trkpt lat="46.0882632" lon="13.4758343"><ele>208.8</ele><time>2026-04-24T13:08:46.248Z</time></trkpt><trkpt lat="46.0882" lon="13.4759396"><ele>214.60000000000002</ele><time>2026-04-24T13:08:47.247Z</time></trkpt><trkpt lat="46.0881297" lon="13.4760286"><ele>220.39999999999998</ele><time>2026-04-24T13:08:48.247Z</time></trkpt><trkpt lat="46.0880205" lon="13.4760774"><ele>226.2</ele><time>2026-04-24T13:08:49.248Z</time></trkpt><trkpt lat="46.0879238" lon="13.4761426"><ele>232.0</ele><time>2026-04-24T13:08:50.246Z</time></trkpt><trkpt lat="46.087838" lon="13.4761995"><ele>232.0</ele><time>2026-04-24T13:08:51.246Z</time></trkpt><trkpt lat="46.0877156" lon="13.4762341"><ele>232.0</ele><time>2026-04-24T13:08:52.248Z</time></trkpt><trkpt lat="46.0876093" lon="13.4762744"><ele>232.0</ele><time>2026-04-24T13:08:53.246Z</time></trkpt><trkpt lat="46.0875023" lon="13.476318"><ele>232.0</ele><time>2026-04-24T13:08:54.247Z</time></trkpt><trkpt lat="46.0874331" lon="13.4763675"><ele>232.0</ele><time>2026-04-24T13:08:55.247Z</time></trkpt><trkpt lat="46.0873482" lon="13.4763739"><ele>232.0</ele><time>2026-04-24T13:08:57.247Z</time></trkpt><trkpt lat="46.0873852" lon="13.476228"><ele>232.0</ele><time>2026-04-24T13:08:59.247Z</time></trkpt><trkpt lat="46.0874302" lon="13.4761283"><ele>232.0</ele><time>2026-04-24T13:09:00.246Z</time></trkpt><trkpt lat="46.0874762" lon="13.4760394"><ele>232.0</ele><time>2026-04-24T13:09:01.248Z</time></trkpt><trkpt lat="46.087548" lon="13.4759598"><ele>232.0</ele><time>2026-04-24T13:09:02.247Z</time></trkpt><trkpt lat="46.0876394" lon="13.4759224"><ele>232.0</ele><time>2026-04-24T13:09:03.247Z</time></trkpt><trkpt lat="46.0877011" lon="13.4758148"><ele>232.0</ele><time>2026-04-24T13:09:04.246Z</time></trkpt><trkpt lat="46.0877857" lon="13.4757322"><ele>232.0</ele><time>2026-04-24T13:09:05.246Z</time></trkpt><trkpt lat="46.0878585" lon="13.4756315"><ele>232.0</ele><time>2026-04-24T13:09:06.246Z</time></trkpt><trkpt lat="46.0878931" lon="13.4755422"><ele>232.0</ele><time>2026-04-24T13:09:07.246Z</time></trkpt><trkpt lat="46.0878464" lon="13.4754238"><ele>233.2</ele><time>2026-04-24T13:09:08.247Z</time></trkpt><trkpt lat="46.087837" lon="13.47533"><ele>234.39999999999998</ele><time>2026-04-24T13:09:09.247Z</time></trkpt><trkpt lat="46.0877341" lon="13.4752495"><ele>235.60000000000002</ele><time>2026-04-24T13:09:10.246Z</time></trkpt><trkpt lat="46.0876762" lon="13.4751577"><ele>236.8</ele><time>2026-04-24T13:09:11.247Z</time></trkpt><trkpt lat="46.087529" lon="13.4750353"><ele>238.0</ele><time>2026-04-24T13:09:12.247Z</time></trkpt><trkpt lat="46.0874188" lon="13.4749142"><ele>242.25</ele><time>2026-04-24T13:09:13.247Z</time></trkpt><trkpt lat="46.0872984" lon="13.4747956"><ele>246.5</ele><time>2026-04-24T13:09:14.247Z</time></trkpt><trkpt lat="46.0871581" lon="13.4747311"><ele>250.75</ele><time>2026-04-24T13:09:15.247Z</time></trkpt><trkpt lat="46.0870585" lon="13.4746682"><ele>255.0</ele><time>2026-04-24T13:09:16.247Z</time></trkpt><trkpt lat="46.0869589" lon="13.4745885"><ele>255.0</ele><time>2026-04-24T13:09:17.247Z</time></trkpt><trkpt lat="46.0868777" lon="13.4745156"><ele>255.0</ele><time>2026-04-24T13:09:18.246Z</time></trkpt><trkpt lat="46.0868249" lon="13.4744325"><ele>255.0</ele><time>2026-04-24T13:09:19.247Z</time></trkpt><trkpt lat="46.0867992" lon="13.4743446"><ele>255.0</ele><time>2026-04-24T13:09:20.246Z</time></trkpt><trkpt lat="46.0867119" lon="13.4742322"><ele>255.0</ele><time>2026-04-24T13:09:22.246Z</time></trkpt><trkpt lat="46.0866643" lon="13.4743428"><ele>255.0</ele><time>2026-04-24T13:09:24.247Z</time></trkpt><trkpt lat="46.0866802" lon="13.4744987"><ele>255.0</ele><time>2026-04-24T13:09:26.248Z</time></trkpt><trkpt lat="46.0867796" lon="13.4745843"><ele>255.0</ele><time>2026-04-24T13:09:27.246Z</time></trkpt><trkpt lat="46.0868673" lon="13.4747058"><ele>255.0</ele><time>2026-04-24T13:09:28.246Z</time></trkpt><trkpt lat="46.0869661" lon="13.4748324"><ele>255.0</ele><time>2026-04-24T13:09:29.247Z</time></trkpt><trkpt lat="46.0870581" lon="13.4749541"><ele>256.8</ele><time>2026-04-24T13:09:30.246Z</time></trkpt><trkpt lat="46.0871397" lon="13.4750574"><ele>258.6</ele><time>2026-04-24T13:09:31.246Z</time></trkpt><trkpt lat="46.0872046" lon="13.4751555"><ele>260.4</ele><time>2026-04-24T13:09:32.246Z</time></trkpt><trkpt lat="46.0872502" lon="13.4752336"><ele>262.2</ele><time>2026-04-24T13:09:33.247Z</time></trkpt><trkpt lat="46.0872921" lon="13.4753154"><ele>264.0</ele><time>2026-04-24T13:09:34.247Z</time></trkpt><trkpt lat="46.087238" lon="13.4754528"><ele>264.0</ele><time>2026-04-24T13:09:36.247Z</time></trkpt><trkpt lat="46.0871531" lon="13.4754712"><ele>264.0</ele><time>2026-04-24T13:09:38.247Z</time></trkpt><trkpt lat="46.0870921" lon="13.475323"><ele>264.0</ele><time>2026-04-24T13:09:40.247Z</time></trkpt><trkpt lat="46.0870546" lon="13.4752475"><ele>264.0</ele><time>2026-04-24T13:09:41.246Z</time></trkpt><trkpt lat="46.0869456" lon="13.4751462"><ele>264.0</ele><time>2026-04-24T13:09:43.246Z</time></trkpt><trkpt lat="46.0868851" lon="13.4750953"><ele>264.1666666666667</ele><time>2026-04-24T13:09:44.248Z</time></trkpt><trkpt lat="46.0868248" lon="13.4750407"><ele>264.3333333333333</ele><time>2026-04-24T13:09:45.248Z</time></trkpt><trkpt lat="46.08676" lon="13.4749824"><ele>264.5</ele><time>2026-04-24T13:09:46.247Z</time></trkpt><trkpt lat="46.0866896" lon="13.4749146"><ele>264.66666666666663</ele><time>2026-04-24T13:09:47.246Z</time></trkpt><trkpt lat="46.0866119" lon="13.4748486"><ele>264.8333333333333</ele><time>2026-04-24T13:09:48.248Z</time></trkpt><trkpt lat="46.0865323" lon="13.4747781"><ele>265.0</ele><time>2026-04-24T13:09:49.247Z</time></trkpt><trkpt lat="46.0864617" lon="13.4747036"><ele>267.5</ele><time>2026-04-24T13:09:50.248Z</time></trkpt><trkpt lat="46.0864022" lon="13.4746104"><ele>270.0</ele><time>2026-04-24T13:09:51.246Z</time></trkpt><trkpt lat="46.0863218" lon="13.4745192"><ele>272.5</ele><time>2026-04-24T13:09:52.246Z</time></trkpt><trkpt lat="46.0862493" lon="13.474471"><ele>275.0</ele><time>2026-04-24T13:09:53.248Z</time></trkpt><trkpt lat="46.0862048" lon="13.4743919"><ele>277.5</ele><time>2026-04-24T13:09:55.246Z</time></trkpt><trkpt lat="46.0861555" lon="13.4743323"><ele>280.0</ele><time>2026-04-24T13:09:56.247Z</time></trkpt><trkpt lat="46.0861126" lon="13.4742043"><ele>280.0</ele><time>2026-04-24T13:09:58.248Z</time></trkpt><trkpt lat="46.0860343" lon="13.4741018"><ele>280.0</ele><time>2026-04-24T13:10:00.247Z</time></trkpt><trkpt lat="46.0859913" lon="13.4740171"><ele>280.0</ele><time>2026-04-24T13:10:01.248Z</time></trkpt><trkpt lat="46.0859229" lon="13.4739608"><ele>280.0</ele><time>2026-04-24T13:10:02.247Z</time></trkpt><trkpt lat="46.0858187" lon="13.4739024"><ele>280.0</ele><time>2026-04-24T13:10:04.247Z</time></trkpt><trkpt lat="46.0857432" lon="13.4738197"><ele>278.3333333333333</ele><time>2026-04-24T13:10:06.246Z</time></trkpt><trkpt lat="46.0856845" lon="13.4737716"><ele>276.66666666666663</ele><time>2026-04-24T13:10:08.246Z</time></trkpt><trkpt lat="46.0856132" lon="13.4737775"><ele>275.0</ele><time>2026-04-24T13:10:11.245Z</time></trkpt><trkpt lat="46.0855517" lon="13.4738941"><ele>273.3333333333333</ele><time>2026-04-24T13:10:12.245Z</time></trkpt><trkpt lat="46.0854967" lon="13.4740006"><ele>271.6666666666667</ele><time>2026-04-24T13:10:13.246Z</time></trkpt><trkpt lat="46.0854417" lon="13.4741187"><ele>270.0</ele><time>2026-04-24T13:10:14.247Z</time></trkpt><trkpt lat="46.0853896" lon="13.474244"><ele>270.0</ele><time>2026-04-24T13:10:15.245Z</time></trkpt><trkpt lat="46.0853478" lon="13.4743687"><ele>270.0</ele><time>2026-04-24T13:10:16.246Z</time></trkpt><trkpt lat="46.085322" lon="13.4745166"><ele>270.0</ele><time>2026-04-24T13:10:17.246Z</time></trkpt><trkpt lat="46.0853161" lon="13.4746834"><ele>270.0</ele><time>2026-04-24T13:10:18.246Z</time></trkpt><trkpt lat="46.0853374" lon="13.4748723"><ele>270.3333333333333</ele><time>2026-04-24T13:10:19.246Z</time></trkpt><trkpt lat="46.0853814" lon="13.4750749"><ele>270.66666666666663</ele><time>2026-04-24T13:10:20.245Z</time></trkpt><trkpt lat="46.0854285" lon="13.475296"><ele>271.0</ele><time>2026-04-24T13:10:21.247Z</time></trkpt><trkpt lat="46.0854674" lon="13.4755108"><ele>271.0</ele><time>2026-04-24T13:10:22.245Z</time></trkpt><trkpt lat="46.0855157" lon="13.475728"><ele>271.0</ele><time>2026-04-24T13:10:23.247Z</time></trkpt><trkpt lat="46.0855652" lon="13.4759469"><ele>271.0</ele><time>2026-04-24T13:10:24.246Z</time></trkpt><trkpt lat="46.085615" lon="13.4761527"><ele>270.66666666666663</ele><time>2026-04-24T13:10:25.246Z</time></trkpt><trkpt lat="46.0856594" lon="13.4763596"><ele>270.3333333333333</ele><time>2026-04-24T13:10:26.245Z</time></trkpt><trkpt lat="46.0856997" lon="13.4765806"><ele>270.0</ele><time>2026-04-24T13:10:27.246Z</time></trkpt><trkpt lat="46.085729" lon="13.476823"><ele>270.0</ele><time>2026-04-24T13:10:28.246Z</time></trkpt><trkpt lat="46.0857407" lon="13.4770724"><ele>270.0</ele><time>2026-04-24T13:10:29.246Z</time></trkpt><trkpt lat="46.085746" lon="13.4773335"><ele>270.0</ele><time>2026-04-24T13:10:30.245Z</time></trkpt><trkpt lat="46.085747" lon="13.477595"><ele>274.6666666666667</ele><time>2026-04-24T13:10:31.247Z</time></trkpt><trkpt lat="46.0857625" lon="13.4778566"><ele>279.33333333333337</ele><time>2026-04-24T13:10:32.246Z</time></trkpt><trkpt lat="46.0857972" lon="13.4781149"><ele>284.0</ele><time>2026-04-24T13:10:33.246Z</time></trkpt><trkpt lat="46.0858542" lon="13.4783524"><ele>286.33333333333337</ele><time>2026-04-24T13:10:34.246Z</time></trkpt><trkpt lat="46.0859225" lon="13.47859"><ele>288.6666666666667</ele><time>2026-04-24T13:10:35.245Z</time></trkpt><trkpt lat="46.0859934" lon="13.4788129"><ele>291.0</ele><time>2026-04-24T13:10:36.246Z</time></trkpt><trkpt lat="46.0860587" lon="13.4790351"><ele>292.0</ele><time>2026-04-24T13:10:37.246Z</time></trkpt><trkpt lat="46.0861161" lon="13.479257"><ele>293.0</ele><time>2026-04-24T13:10:38.246Z</time></trkpt><trkpt lat="46.0861652" lon="13.4794741"><ele>294.0</ele><time>2026-04-24T13:10:39.246Z</time></trkpt><trkpt lat="46.0862115" lon="13.4796802"><ele>294.0</ele><time>2026-04-24T13:10:40.246Z</time></trkpt><trkpt lat="46.0862508" lon="13.4798852"><ele>294.0</ele><time>2026-04-24T13:10:41.246Z</time></trkpt><trkpt lat="46.0862876" lon="13.4800725"><ele>294.0</ele><time>2026-04-24T13:10:42.245Z</time></trkpt><trkpt lat="46.0863149" lon="13.4802468"><ele>294.0</ele><time>2026-04-24T13:10:43.245Z</time></trkpt><trkpt lat="46.086339" lon="13.4804098"><ele>295.0</ele><time>2026-04-24T13:10:44.246Z</time></trkpt><trkpt lat="46.086352" lon="13.4805727"><ele>296.0</ele><time>2026-04-24T13:10:45.245Z</time></trkpt><trkpt lat="46.0863498" lon="13.480745"><ele>297.0</ele><time>2026-04-24T13:10:46.246Z</time></trkpt><trkpt lat="46.0863369" lon="13.4809263"><ele>298.0</ele><time>2026-04-24T13:10:47.246Z</time></trkpt><trkpt lat="46.0863257" lon="13.4811132"><ele>300.25</ele><time>2026-04-24T13:10:48.246Z</time></trkpt><trkpt lat="46.0863149" lon="13.481311"><ele>302.5</ele><time>2026-04-24T13:10:49.247Z</time></trkpt><trkpt lat="46.0863036" lon="13.4815075"><ele>304.75</ele><time>2026-04-24T13:10:50.245Z</time></trkpt><trkpt lat="46.0862942" lon="13.4816968"><ele>307.0</ele><time>2026-04-24T13:10:51.246Z</time></trkpt><trkpt lat="46.0862986" lon="13.4818543"><ele>307.0</ele><time>2026-04-24T13:10:52.246Z</time></trkpt><trkpt lat="46.0863131" lon="13.4820021"><ele>307.0</ele><time>2026-04-24T13:10:53.246Z</time></trkpt><trkpt lat="46.0863667" lon="13.4821607"><ele>307.0</ele><time>2026-04-24T13:10:54.245Z</time></trkpt><trkpt lat="46.0864369" lon="13.4823385"><ele>307.0</ele><time>2026-04-24T13:10:55.245Z</time></trkpt><trkpt lat="46.0865077" lon="13.4825234"><ele>307.66666666666663</ele><time>2026-04-24T13:10:56.246Z</time></trkpt><trkpt lat="46.0865823" lon="13.4827145"><ele>308.3333333333333</ele><time>2026-04-24T13:10:57.246Z</time></trkpt><trkpt lat="46.0866791" lon="13.4829081"><ele>309.0</ele><time>2026-04-24T13:10:58.245Z</time></trkpt><trkpt lat="46.0867968" lon="13.4831018"><ele>313.3333333333333</ele><time>2026-04-24T13:10:59.246Z</time></trkpt><trkpt lat="46.0869154" lon="13.4833025"><ele>317.66666666666663</ele><time>2026-04-24T13:11:00.246Z</time></trkpt><trkpt lat="46.0870279" lon="13.4834917"><ele>322.0</ele><time>2026-04-24T13:11:01.246Z</time></trkpt><trkpt lat="46.0871154" lon="13.4836924"><ele>319.75</ele><time>2026-04-24T13:11:02.247Z</time></trkpt><trkpt lat="46.0871733" lon="13.4839071"><ele>317.5</ele><time>2026-04-24T13:11:03.247Z</time></trkpt><trkpt lat="46.087234" lon="13.4840984"><ele>315.25</ele><time>2026-04-24T13:11:04.247Z</time></trkpt><trkpt lat="46.0872839" lon="13.484268"><ele>313.0</ele><time>2026-04-24T13:11:05.246Z</time></trkpt><trkpt lat="46.0873399" lon="13.4844341"><ele>313.0</ele><time>2026-04-24T13:11:06.245Z</time></trkpt><trkpt lat="46.0874225" lon="13.4845478"><ele>313.0</ele><time>2026-04-24T13:11:07.246Z</time></trkpt><trkpt lat="46.087505" lon="13.4846719"><ele>313.0</ele><time>2026-04-24T13:11:08.246Z</time></trkpt><trkpt lat="46.0876171" lon="13.4847673"><ele>313.0</ele><time>2026-04-24T13:11:09.245Z</time></trkpt><trkpt lat="46.0877884" lon="13.4847976"><ele>321.0</ele><time>2026-04-24T13:11:10.247Z</time></trkpt><trkpt lat="46.0879568" lon="13.4848353"><ele>329.0</ele><time>2026-04-24T13:11:11.246Z</time></trkpt><trkpt lat="46.0881131" lon="13.4849192"><ele>337.0</ele><time>2026-04-24T13:11:12.245Z</time></trkpt><trkpt lat="46.0882665" lon="13.4849984"><ele>344.0</ele><time>2026-04-24T13:11:13.247Z</time></trkpt><trkpt lat="46.0884169" lon="13.4850868"><ele>351.0</ele><time>2026-04-24T13:11:14.245Z</time></trkpt><trkpt lat="46.0885631" lon="13.4852369"><ele>358.0</ele><time>2026-04-24T13:11:15.246Z</time></trkpt><trkpt lat="46.0886957" lon="13.485359"><ele>349.3333333333333</ele><time>2026-04-24T13:11:16.246Z</time></trkpt><trkpt lat="46.0888325" lon="13.4854796"><ele>340.6666666666667</ele><time>2026-04-24T13:11:17.245Z</time></trkpt><trkpt lat="46.0889595" lon="13.4856175"><ele>332.0</ele><time>2026-04-24T13:11:18.246Z</time></trkpt><trkpt lat="46.0890873" lon="13.4857495"><ele>336.6666666666667</ele><time>2026-04-24T13:11:19.246Z</time></trkpt><trkpt lat="46.0892091" lon="13.485891"><ele>341.3333333333333</ele><time>2026-04-24T13:11:20.246Z</time></trkpt><trkpt lat="46.0893072" lon="13.4860675"><ele>346.0</ele><time>2026-04-24T13:11:21.246Z</time></trkpt><trkpt lat="46.089398" lon="13.4862851"><ele>346.0</ele><time>2026-04-24T13:11:22.247Z</time></trkpt><trkpt lat="46.0894767" lon="13.4864802"><ele>346.0</ele><time>2026-04-24T13:11:23.245Z</time></trkpt><trkpt lat="46.0895582" lon="13.486669"><ele>346.0</ele><time>2026-04-24T13:11:24.246Z</time></trkpt><trkpt lat="46.0895797" lon="13.4868561"><ele>346.0</ele><time>2026-04-24T13:11:25.245Z</time></trkpt><trkpt lat="46.0895335" lon="13.4870521"><ele>343.75</ele><time>2026-04-24T13:11:26.247Z</time></trkpt><trkpt lat="46.0895788" lon="13.4872566"><ele>341.5</ele><time>2026-04-24T13:11:27.245Z</time></trkpt><trkpt lat="46.0896247" lon="13.4874607"><ele>339.25</ele><time>2026-04-24T13:11:28.246Z</time></trkpt><trkpt lat="46.0896872" lon="13.487628"><ele>337.0</ele><time>2026-04-24T13:11:29.247Z</time></trkpt><trkpt lat="46.0897883" lon="13.4878626"><ele>333.3333333333333</ele><time>2026-04-24T13:11:30.246Z</time></trkpt><trkpt lat="46.0899227" lon="13.4880381"><ele>329.6666666666667</ele><time>2026-04-24T13:11:31.246Z</time></trkpt><trkpt lat="46.090029" lon="13.4882356"><ele>326.0</ele><time>2026-04-24T13:11:32.246Z</time></trkpt><trkpt lat="46.0901228" lon="13.4884179"><ele>332.75</ele><time>2026-04-24T13:11:33.245Z</time></trkpt><trkpt lat="46.0901906" lon="13.4885851"><ele>339.5</ele><time>2026-04-24T13:11:34.247Z</time></trkpt><trkpt lat="46.0902212" lon="13.4887725"><ele>346.25</ele><time>2026-04-24T13:11:35.246Z</time></trkpt><trkpt lat="46.0902186" lon="13.488991"><ele>353.0</ele><time>2026-04-24T13:11:36.245Z</time></trkpt><trkpt lat="46.0902053" lon="13.4892363"><ele>353.6666666666667</ele><time>2026-04-24T13:11:37.247Z</time></trkpt><trkpt lat="46.0901909" lon="13.4895177"><ele>354.3333333333333</ele><time>2026-04-24T13:11:38.246Z</time></trkpt><trkpt lat="46.0901683" lon="13.4897911"><ele>355.0</ele><time>2026-04-24T13:11:39.245Z</time></trkpt><trkpt lat="46.0901263" lon="13.4900937"><ele>356.0</ele><time>2026-04-24T13:11:40.245Z</time></trkpt><trkpt lat="46.0900778" lon="13.4904092"><ele>357.0</ele><time>2026-04-24T13:11:41.246Z</time></trkpt><trkpt lat="46.0900319" lon="13.4906971"><ele>358.0</ele><time>2026-04-24T13:11:42.246Z</time></trkpt><trkpt lat="46.0899992" lon="13.4909758"><ele>361.66666666666663</ele><time>2026-04-24T13:11:43.247Z</time></trkpt><trkpt lat="46.0899793" lon="13.4912644"><ele>365.3333333333333</ele><time>2026-04-24T13:11:44.245Z</time></trkpt><trkpt lat="46.0899705" lon="13.4915462"><ele>369.0</ele><time>2026-04-24T13:11:45.245Z</time></trkpt><trkpt lat="46.0899634" lon="13.4918339"><ele>372.3333333333333</ele><time>2026-04-24T13:11:46.246Z</time></trkpt><trkpt lat="46.0899501" lon="13.4921261"><ele>375.66666666666663</ele><time>2026-04-24T13:11:47.246Z</time></trkpt><trkpt lat="46.0899376" lon="13.4924255"><ele>379.0</ele><time>2026-04-24T13:11:48.246Z</time></trkpt><trkpt lat="46.0899394" lon="13.4927403"><ele>382.3333333333333</ele><time>2026-04-24T13:11:49.245Z</time></trkpt><trkpt lat="46.0899328" lon="13.4930091"><ele>385.66666666666663</ele><time>2026-04-24T13:11:50.246Z</time></trkpt><trkpt lat="46.0899221" lon="13.493253"><ele>389.0</ele><time>2026-04-24T13:11:51.246Z</time></trkpt><trkpt lat="46.0899027" lon="13.4934924"><ele>389.0</ele><time>2026-04-24T13:11:52.246Z</time></trkpt><trkpt lat="46.0898758" lon="13.4937112"><ele>389.0</ele><time>2026-04-24T13:11:53.247Z</time></trkpt><trkpt lat="46.0898245" lon="13.4939041"><ele>389.0</ele><time>2026-04-24T13:11:54.245Z</time></trkpt><trkpt lat="46.0897743" lon="13.4940789"><ele>389.0</ele><time>2026-04-24T13:11:55.246Z</time></trkpt><trkpt lat="46.0897184" lon="13.4942202"><ele>388.99999999999994</ele><time>2026-04-24T13:11:56.246Z</time></trkpt><trkpt lat="46.0896429" lon="13.4943111"><ele>389.0</ele><time>2026-04-24T13:11:57.246Z</time></trkpt><trkpt lat="46.0895569" lon="13.4943481"><ele>389.0</ele><time>2026-04-24T13:11:58.245Z</time></trkpt><trkpt lat="46.0894777" lon="13.4943905"><ele>389.0</ele><time>2026-04-24T13:11:59.247Z</time></trkpt><trkpt lat="46.0894011" lon="13.4943987"><ele>388.99999999999994</ele><time>2026-04-24T13:12:00.246Z</time></trkpt><trkpt lat="46.0893455" lon="13.4944585"><ele>389.0</ele><time>2026-04-24T13:12:01.246Z</time></trkpt><trkpt lat="46.0893133" lon="13.4945624"><ele>391.2</ele><time>2026-04-24T13:12:02.246Z</time></trkpt><trkpt lat="46.0892989" lon="13.4946904"><ele>393.4</ele><time>2026-04-24T13:12:03.245Z</time></trkpt><trkpt lat="46.0892773" lon="13.4948258"><ele>395.6</ele><time>2026-04-24T13:12:04.246Z</time></trkpt><trkpt lat="46.0892678" lon="13.494944"><ele>397.8</ele><time>2026-04-24T13:12:05.246Z</time></trkpt><trkpt lat="46.0893344" lon="13.4950794"><ele>400.0</ele><time>2026-04-24T13:12:07.246Z</time></trkpt><trkpt lat="46.0894282" lon="13.4949838"><ele>400.00000000000006</ele><time>2026-04-24T13:12:09.245Z</time></trkpt><trkpt lat="46.0894587" lon="13.4948924"><ele>400.0</ele><time>2026-04-24T13:12:10.246Z</time></trkpt><trkpt lat="46.089505" lon="13.4948275"><ele>400.0</ele><time>2026-04-24T13:12:11.246Z</time></trkpt><trkpt lat="46.0895814" lon="13.4947978"><ele>400.0</ele><time>2026-04-24T13:12:12.246Z</time></trkpt><trkpt lat="46.0896644" lon="13.4948263"><ele>400.00000000000006</ele><time>2026-04-24T13:12:13.246Z</time></trkpt><trkpt lat="46.0897583" lon="13.4948595"><ele>400.0</ele><time>2026-04-24T13:12:14.246Z</time></trkpt><trkpt lat="46.0898549" lon="13.4948971"><ele>402.8</ele><time>2026-04-24T13:12:15.245Z</time></trkpt><trkpt lat="46.0899412" lon="13.4949638"><ele>405.6</ele><time>2026-04-24T13:12:16.246Z</time></trkpt><trkpt lat="46.0900142" lon="13.4950716"><ele>408.4</ele><time>2026-04-24T13:12:17.246Z</time></trkpt><trkpt lat="46.0900771" lon="13.4952135"><ele>411.2</ele><time>2026-04-24T13:12:18.247Z</time></trkpt><trkpt lat="46.0901105" lon="13.4953882"><ele>414.0</ele><time>2026-04-24T13:12:19.247Z</time></trkpt><trkpt lat="46.0901324" lon="13.4955551"><ele>415.5</ele><time>2026-04-24T13:12:20.245Z</time></trkpt><trkpt lat="46.0901604" lon="13.4957216"><ele>417.0</ele><time>2026-04-24T13:12:21.246Z</time></trkpt><trkpt lat="46.0901794" lon="13.4958829"><ele>418.5</ele><time>2026-04-24T13:12:22.246Z</time></trkpt><trkpt lat="46.0901903" lon="13.4960521"><ele>420.0</ele><time>2026-04-24T13:12:23.245Z</time></trkpt><trkpt lat="46.0901997" lon="13.4962196"><ele>420.0</ele><time>2026-04-24T13:12:24.245Z</time></trkpt><trkpt lat="46.0902162" lon="13.4963995"><ele>420.0</ele><time>2026-04-24T13:12:25.246Z</time></trkpt><trkpt lat="46.0902385" lon="13.4965883"><ele>420.0</ele><time>2026-04-24T13:12:26.245Z</time></trkpt><trkpt lat="46.0902658" lon="13.4967882"><ele>420.0</ele><time>2026-04-24T13:12:27.246Z</time></trkpt><trkpt lat="46.0902957" lon="13.4969849"><ele>420.0</ele><time>2026-04-24T13:12:28.246Z</time></trkpt><trkpt lat="46.0903278" lon="13.4971718"><ele>420.0</ele><time>2026-04-24T13:12:29.245Z</time></trkpt><trkpt lat="46.0903705" lon="13.4973593"><ele>420.0</ele><time>2026-04-24T13:12:30.247Z</time></trkpt><trkpt lat="46.0904237" lon="13.4975445"><ele>420.0</ele><time>2026-04-24T13:12:31.246Z</time></trkpt><trkpt lat="46.0904745" lon="13.497727"><ele>420.0</ele><time>2026-04-24T13:12:32.246Z</time></trkpt><trkpt lat="46.0905245" lon="13.4979143"><ele>420.0</ele><time>2026-04-24T13:12:33.246Z</time></trkpt><trkpt lat="46.090566" lon="13.4981175"><ele>420.0</ele><time>2026-04-24T13:12:34.245Z</time></trkpt><trkpt lat="46.0906184" lon="13.4983233"><ele>420.0</ele><time>2026-04-24T13:12:35.245Z</time></trkpt><trkpt lat="46.0906679" lon="13.4985329"><ele>419.0</ele><time>2026-04-24T13:12:36.246Z</time></trkpt><trkpt lat="46.0907159" lon="13.4987417"><ele>418.0</ele><time>2026-04-24T13:12:37.245Z</time></trkpt><trkpt lat="46.0907599" lon="13.4989578"><ele>417.0</ele><time>2026-04-24T13:12:38.246Z</time></trkpt><trkpt lat="46.0907931" lon="13.4991715"><ele>423.0</ele><time>2026-04-24T13:12:39.245Z</time></trkpt><trkpt lat="46.0908326" lon="13.4993731"><ele>429.0</ele><time>2026-04-24T13:12:40.246Z</time></trkpt><trkpt lat="46.0908836" lon="13.499574"><ele>435.0</ele><time>2026-04-24T13:12:41.244Z</time></trkpt><trkpt lat="46.0909379" lon="13.4997731"><ele>441.0</ele><time>2026-04-24T13:12:42.245Z</time></trkpt><trkpt lat="46.0909959" lon="13.499973"><ele>441.0</ele><time>2026-04-24T13:12:43.246Z</time></trkpt><trkpt lat="46.0910457" lon="13.500185"><ele>441.0</ele><time>2026-04-24T13:12:44.245Z</time></trkpt><trkpt lat="46.0910915" lon="13.5004253"><ele>441.0</ele><time>2026-04-24T13:12:45.245Z</time></trkpt><trkpt lat="46.091114" lon="13.5006852"><ele>442.66666666666663</ele><time>2026-04-24T13:12:46.245Z</time></trkpt><trkpt lat="46.0911173" lon="13.5009713"><ele>444.3333333333333</ele><time>2026-04-24T13:12:47.246Z</time></trkpt><trkpt lat="46.0911139" lon="13.5012748"><ele>446.0</ele><time>2026-04-24T13:12:48.246Z</time></trkpt><trkpt lat="46.0911116" lon="13.5015631"><ele>447.3333333333333</ele><time>2026-04-24T13:12:49.245Z</time></trkpt><trkpt lat="46.0911079" lon="13.5018384"><ele>448.66666666666663</ele><time>2026-04-24T13:12:50.246Z</time></trkpt><trkpt lat="46.0911051" lon="13.5020879"><ele>450.0</ele><time>2026-04-24T13:12:51.245Z</time></trkpt><trkpt lat="46.0910994" lon="13.5023143"><ele>450.25</ele><time>2026-04-24T13:12:52.244Z</time></trkpt><trkpt lat="46.0910963" lon="13.5025176"><ele>450.5</ele><time>2026-04-24T13:12:53.246Z</time></trkpt><trkpt lat="46.091103" lon="13.5027091"><ele>450.75</ele><time>2026-04-24T13:12:54.244Z</time></trkpt><trkpt lat="46.0911384" lon="13.5028973"><ele>451.0</ele><time>2026-04-24T13:12:55.245Z</time></trkpt><trkpt lat="46.0911715" lon="13.5030718"><ele>451.0</ele><time>2026-04-24T13:12:56.245Z</time></trkpt><trkpt lat="46.0912569" lon="13.5032396"><ele>451.0</ele><time>2026-04-24T13:12:57.245Z</time></trkpt><trkpt lat="46.0913432" lon="13.5034107"><ele>451.0</ele><time>2026-04-24T13:12:58.245Z</time></trkpt><trkpt lat="46.0914412" lon="13.5035811"><ele>451.0</ele><time>2026-04-24T13:12:59.245Z</time></trkpt><trkpt lat="46.0915521" lon="13.5037621"><ele>459.0</ele><time>2026-04-24T13:13:00.246Z</time></trkpt><trkpt lat="46.0916699" lon="13.5039478"><ele>467.0</ele><time>2026-04-24T13:13:01.246Z</time></trkpt><trkpt lat="46.0917849" lon="13.504126"><ele>475.0</ele><time>2026-04-24T13:13:02.246Z</time></trkpt><trkpt lat="46.0918828" lon="13.5043008"><ele>475.0</ele><time>2026-04-24T13:13:03.246Z</time></trkpt><trkpt lat="46.0919756" lon="13.504457"><ele>475.0</ele><time>2026-04-24T13:13:04.244Z</time></trkpt><trkpt lat="46.0920561" lon="13.5046041"><ele>475.0</ele><time>2026-04-24T13:13:05.245Z</time></trkpt><trkpt lat="46.0921252" lon="13.5047331"><ele>475.0</ele><time>2026-04-24T13:13:06.246Z</time></trkpt><trkpt lat="46.0921915" lon="13.5048362"><ele>474.25</ele><time>2026-04-24T13:13:07.245Z</time></trkpt><trkpt lat="46.0922734" lon="13.5049289"><ele>473.5</ele><time>2026-04-24T13:13:08.245Z</time></trkpt><trkpt lat="46.0923659" lon="13.5050049"><ele>472.75</ele><time>2026-04-24T13:13:09.246Z</time></trkpt><trkpt lat="46.0925071" lon="13.5050222"><ele>472.0</ele><time>2026-04-24T13:13:10.244Z</time></trkpt><trkpt lat="46.0926276" lon="13.505078"><ele>477.0</ele><time>2026-04-24T13:13:11.245Z</time></trkpt><trkpt lat="46.0927576" lon="13.505106"><ele>482.0</ele><time>2026-04-24T13:13:12.244Z</time></trkpt><trkpt lat="46.0928898" lon="13.505099"><ele>487.0</ele><time>2026-04-24T13:13:13.244Z</time></trkpt><trkpt lat="46.0930059" lon="13.5050571"><ele>492.0</ele><time>2026-04-24T13:13:14.246Z</time></trkpt><trkpt lat="46.0930956" lon="13.505033"><ele>492.0</ele><time>2026-04-24T13:13:15.246Z</time></trkpt><trkpt lat="46.093162" lon="13.5050563"><ele>492.0</ele><time>2026-04-24T13:13:16.244Z</time></trkpt><trkpt lat="46.093189" lon="13.5051932"><ele>492.0</ele><time>2026-04-24T13:13:18.246Z</time></trkpt><trkpt lat="46.0931597" lon="13.5052767"><ele>492.0</ele><time>2026-04-24T13:13:19.244Z</time></trkpt><trkpt lat="46.0931041" lon="13.5053698"><ele>492.0</ele><time>2026-04-24T13:13:20.246Z</time></trkpt><trkpt lat="46.0930386" lon="13.5054963"><ele>492.0</ele><time>2026-04-24T13:13:21.245Z</time></trkpt><trkpt lat="46.0929856" lon="13.5056334"><ele>492.5</ele><time>2026-04-24T13:13:22.246Z</time></trkpt><trkpt lat="46.0929234" lon="13.5057673"><ele>493.0</ele><time>2026-04-24T13:13:23.244Z</time></trkpt><trkpt lat="46.0928773" lon="13.5059526"><ele>493.5</ele><time>2026-04-24T13:13:24.245Z</time></trkpt><trkpt lat="46.0928361" lon="13.5061145"><ele>494.0</ele><time>2026-04-24T13:13:25.244Z</time></trkpt><trkpt lat="46.0928257" lon="13.5063037"><ele>494.0</ele><time>2026-04-24T13:13:26.245Z</time></trkpt><trkpt lat="46.0928291" lon="13.5064535"><ele>494.0</ele><time>2026-04-24T13:13:27.245Z</time></trkpt><trkpt lat="46.0929788" lon="13.5064605"><ele>494.0</ele><time>2026-04-24T13:13:28.244Z</time></trkpt><trkpt lat="46.0931029" lon="13.5063692"><ele>494.0</ele><time>2026-04-24T13:13:29.245Z</time></trkpt><trkpt lat="46.0931917" lon="13.5063126"><ele>494.0</ele><time>2026-04-24T13:13:31.245Z</time></trkpt><trkpt lat="46.0932219" lon="13.5061599"><ele>494.0</ele><time>2026-04-24T13:13:32.245Z</time></trkpt><trkpt lat="46.0932052" lon="13.5060665"><ele>494.0</ele><time>2026-04-24T13:13:33.246Z</time></trkpt><trkpt lat="46.0932972" lon="13.5060145"><ele>494.0</ele><time>2026-04-24T13:13:35.245Z</time></trkpt><trkpt lat="46.0933302" lon="13.5061341"><ele>494.0</ele><time>2026-04-24T13:13:36.245Z</time></trkpt><trkpt lat="46.0933875" lon="13.5062422"><ele>498.79999999999995</ele><time>2026-04-24T13:13:37.244Z</time></trkpt><trkpt lat="46.0934442" lon="13.5063368"><ele>503.59999999999997</ele><time>2026-04-24T13:13:38.245Z</time></trkpt><trkpt lat="46.0935053" lon="13.5064609"><ele>508.4</ele><time>2026-04-24T13:13:39.245Z</time></trkpt><trkpt lat="46.0935478" lon="13.5065983"><ele>513.1999999999999</ele><time>2026-04-24T13:13:40.245Z</time></trkpt><trkpt lat="46.0935583" lon="13.5067384"><ele>518.0</ele><time>2026-04-24T13:13:41.245Z</time></trkpt><trkpt lat="46.0935409" lon="13.5068993"><ele>518.0</ele><time>2026-04-24T13:13:42.244Z</time></trkpt><trkpt lat="46.0935128" lon="13.5070729"><ele>518.0</ele><time>2026-04-24T13:13:43.245Z</time></trkpt><trkpt lat="46.0934897" lon="13.5072558"><ele>518.0</ele><time>2026-04-24T13:13:44.245Z</time></trkpt><trkpt lat="46.0934723" lon="13.5074498"><ele>518.0</ele><time>2026-04-24T13:13:45.244Z</time></trkpt><trkpt lat="46.0934914" lon="13.5076518"><ele>519.25</ele><time>2026-04-24T13:13:46.244Z</time></trkpt><trkpt lat="46.0934915" lon="13.5078576"><ele>520.5</ele><time>2026-04-24T13:13:47.244Z</time></trkpt><trkpt lat="46.093488" lon="13.5080616"><ele>521.75</ele><time>2026-04-24T13:13:48.245Z</time></trkpt><trkpt lat="46.093484" lon="13.5082813"><ele>523.0</ele><time>2026-04-24T13:13:49.245Z</time></trkpt><trkpt lat="46.0934837" lon="13.508491"><ele>526.0</ele><time>2026-04-24T13:13:50.245Z</time></trkpt><trkpt lat="46.0934754" lon="13.5087234"><ele>529.0</ele><time>2026-04-24T13:13:51.245Z</time></trkpt><trkpt lat="46.0935069" lon="13.5089359"><ele>532.0</ele><time>2026-04-24T13:13:52.245Z</time></trkpt><trkpt lat="46.0935178" lon="13.509156"><ele>534.75</ele><time>2026-04-24T13:13:53.246Z</time></trkpt><trkpt lat="46.0935208" lon="13.5093578"><ele>537.5</ele><time>2026-04-24T13:13:54.244Z</time></trkpt><trkpt lat="46.0935206" lon="13.5095666"><ele>540.25</ele><time>2026-04-24T13:13:55.245Z</time></trkpt><trkpt lat="46.0934923" lon="13.5097577"><ele>543.0</ele><time>2026-04-24T13:13:56.246Z</time></trkpt><trkpt lat="46.0934698" lon="13.5099485"><ele>545.25</ele><time>2026-04-24T13:13:57.245Z</time></trkpt><trkpt lat="46.093447" lon="13.5101278"><ele>547.5</ele><time>2026-04-24T13:13:58.245Z</time></trkpt><trkpt lat="46.0934065" lon="13.5102873"><ele>549.75</ele><time>2026-04-24T13:13:59.245Z</time></trkpt><trkpt lat="46.0933783" lon="13.5104574"><ele>552.0</ele><time>2026-04-24T13:14:00.245Z</time></trkpt><trkpt lat="46.0933463" lon="13.5106213"><ele>552.25</ele><time>2026-04-24T13:14:01.246Z</time></trkpt><trkpt lat="46.093307" lon="13.5107818"><ele>552.5</ele><time>2026-04-24T13:14:02.245Z</time></trkpt><trkpt lat="46.0932656" lon="13.5109438"><ele>552.75</ele><time>2026-04-24T13:14:03.246Z</time></trkpt><trkpt lat="46.093181" lon="13.511077"><ele>553.0</ele><time>2026-04-24T13:14:04.246Z</time></trkpt><trkpt lat="46.0931065" lon="13.5112181"><ele>555.75</ele><time>2026-04-24T13:14:05.244Z</time></trkpt><trkpt lat="46.0930386" lon="13.5113693"><ele>558.5</ele><time>2026-04-24T13:14:06.244Z</time></trkpt><trkpt lat="46.0929725" lon="13.5115219"><ele>561.25</ele><time>2026-04-24T13:14:07.245Z</time></trkpt><trkpt lat="46.0929008" lon="13.5116713"><ele>564.0</ele><time>2026-04-24T13:14:08.244Z</time></trkpt><trkpt lat="46.0928361" lon="13.5118271"><ele>564.0</ele><time>2026-04-24T13:14:09.245Z</time></trkpt><trkpt lat="46.0927713" lon="13.5119788"><ele>564.0</ele><time>2026-04-24T13:14:10.245Z</time></trkpt><trkpt lat="46.0927174" lon="13.5121395"><ele>564.0</ele><time>2026-04-24T13:14:11.245Z</time></trkpt><trkpt lat="46.0926639" lon="13.5123003"><ele>564.0</ele><time>2026-04-24T13:14:12.245Z</time></trkpt><trkpt lat="46.0926265" lon="13.512463"><ele>565.25</ele><time>2026-04-24T13:14:13.245Z</time></trkpt><trkpt lat="46.0926423" lon="13.5126458"><ele>566.5</ele><time>2026-04-24T13:14:14.244Z</time></trkpt><trkpt lat="46.0926496" lon="13.5128199"><ele>567.75</ele><time>2026-04-24T13:14:15.245Z</time></trkpt><trkpt lat="46.0926597" lon="13.5130039"><ele>569.0</ele><time>2026-04-24T13:14:16.245Z</time></trkpt><trkpt lat="46.0926697" lon="13.5131856"><ele>570.5</ele><time>2026-04-24T13:14:17.246Z</time></trkpt><trkpt lat="46.092674" lon="13.5133689"><ele>572.0</ele><time>2026-04-24T13:14:18.245Z</time></trkpt><trkpt lat="46.0926744" lon="13.5135546"><ele>573.5</ele><time>2026-04-24T13:14:19.245Z</time></trkpt><trkpt lat="46.0926589" lon="13.5137382"><ele>575.0</ele><time>2026-04-24T13:14:20.246Z</time></trkpt><trkpt lat="46.092635" lon="13.5139208"><ele>576.75</ele><time>2026-04-24T13:14:21.246Z</time></trkpt><trkpt lat="46.0926033" lon="13.514118"><ele>578.5</ele><time>2026-04-24T13:14:22.245Z</time></trkpt><trkpt lat="46.0925721" lon="13.5143146"><ele>580.25</ele><time>2026-04-24T13:14:23.244Z</time></trkpt><trkpt lat="46.0925556" lon="13.514505"><ele>582.0</ele><time>2026-04-24T13:14:24.245Z</time></trkpt><trkpt lat="46.0925399" lon="13.5146917"><ele>582.0</ele><time>2026-04-24T13:14:25.244Z</time></trkpt><trkpt lat="46.0925354" lon="13.5148788"><ele>582.0</ele><time>2026-04-24T13:14:26.245Z</time></trkpt><trkpt lat="46.0925363" lon="13.5150703"><ele>582.0</ele><time>2026-04-24T13:14:27.245Z</time></trkpt><trkpt lat="46.0925361" lon="13.5152581"><ele>582.0</ele><time>2026-04-24T13:14:28.245Z</time></trkpt><trkpt lat="46.0925359" lon="13.5154533"><ele>582.25</ele><time>2026-04-24T13:14:29.246Z</time></trkpt><trkpt lat="46.0925369" lon="13.5156473"><ele>582.5</ele><time>2026-04-24T13:14:30.245Z</time></trkpt><trkpt lat="46.0925406" lon="13.5158399"><ele>582.75</ele><time>2026-04-24T13:14:31.245Z</time></trkpt><trkpt lat="46.0925458" lon="13.5160297"><ele>583.0</ele><time>2026-04-24T13:14:32.245Z</time></trkpt><trkpt lat="46.0925511" lon="13.5162223"><ele>582.25</ele><time>2026-04-24T13:14:33.245Z</time></trkpt><trkpt lat="46.0925562" lon="13.5164129"><ele>581.5</ele><time>2026-04-24T13:14:34.245Z</time></trkpt><trkpt lat="46.0925678" lon="13.5165849"><ele>580.75</ele><time>2026-04-24T13:14:35.244Z</time></trkpt><trkpt lat="46.0925826" lon="13.5167413"><ele>580.0</ele><time>2026-04-24T13:14:36.245Z</time></trkpt><trkpt lat="46.0925974" lon="13.5168879"><ele>580.0</ele><time>2026-04-24T13:14:37.245Z</time></trkpt><trkpt lat="46.0926153" lon="13.5170182"><ele>580.0</ele><time>2026-04-24T13:14:38.246Z</time></trkpt><trkpt lat="46.0926355" lon="13.5171552"><ele>580.0</ele><time>2026-04-24T13:14:39.246Z</time></trkpt><trkpt lat="46.0926625" lon="13.5173163"><ele>580.0</ele><time>2026-04-24T13:14:40.246Z</time></trkpt><trkpt lat="46.0926812" lon="13.5174705"><ele>580.0</ele><time>2026-04-24T13:14:41.245Z</time></trkpt><trkpt lat="46.0927037" lon="13.5176206"><ele>578.25</ele><time>2026-04-24T13:14:42.245Z</time></trkpt><trkpt lat="46.0927217" lon="13.5178024"><ele>576.5</ele><time>2026-04-24T13:14:43.245Z</time></trkpt><trkpt lat="46.0927395" lon="13.5179689"><ele>574.75</ele><time>2026-04-24T13:14:44.246Z</time></trkpt><trkpt lat="46.0927583" lon="13.5181377"><ele>573.0</ele><time>2026-04-24T13:14:45.244Z</time></trkpt><trkpt lat="46.0927801" lon="13.5183048"><ele>571.8</ele><time>2026-04-24T13:14:46.245Z</time></trkpt><trkpt lat="46.092797" lon="13.5184635"><ele>570.5999999999999</ele><time>2026-04-24T13:14:47.245Z</time></trkpt><trkpt lat="46.0928116" lon="13.5186226"><ele>569.4000000000001</ele><time>2026-04-24T13:14:48.245Z</time></trkpt><trkpt lat="46.092825" lon="13.518759"><ele>568.2</ele><time>2026-04-24T13:14:49.245Z</time></trkpt><trkpt lat="46.0928471" lon="13.5188809"><ele>567.0</ele><time>2026-04-24T13:14:50.245Z</time></trkpt><trkpt lat="46.0928657" lon="13.5189906"><ele>566.0</ele><time>2026-04-24T13:14:51.244Z</time></trkpt><trkpt lat="46.0928835" lon="13.5190902"><ele>565.0</ele><time>2026-04-24T13:14:52.246Z</time></trkpt><trkpt lat="46.0929174" lon="13.519174"><ele>564.0</ele><time>2026-04-24T13:14:53.244Z</time></trkpt><trkpt lat="46.0929675" lon="13.5192497"><ele>563.0</ele><time>2026-04-24T13:14:54.245Z</time></trkpt><trkpt lat="46.0930243" lon="13.5193082"><ele>562.0</ele><time>2026-04-24T13:14:55.245Z</time></trkpt><trkpt lat="46.0930865" lon="13.5193615"><ele>561.0</ele><time>2026-04-24T13:14:56.245Z</time></trkpt><trkpt lat="46.0931483" lon="13.5194155"><ele>560.0</ele><time>2026-04-24T13:14:57.244Z</time></trkpt><trkpt lat="46.0932148" lon="13.5194678"><ele>564.2</ele><time>2026-04-24T13:14:58.244Z</time></trkpt><trkpt lat="46.0932794" lon="13.5195229"><ele>568.4</ele><time>2026-04-24T13:14:59.246Z</time></trkpt><trkpt lat="46.093342" lon="13.5195656"><ele>572.6</ele><time>2026-04-24T13:15:00.246Z</time></trkpt><trkpt lat="46.0934056" lon="13.5195896"><ele>576.8</ele><time>2026-04-24T13:15:01.245Z</time></trkpt><trkpt lat="46.0935315" lon="13.5195815"><ele>581.0</ele><time>2026-04-24T13:15:03.246Z</time></trkpt><trkpt lat="46.0936471" lon="13.5196367"><ele>581.0</ele><time>2026-04-24T13:15:05.245Z</time></trkpt><trkpt lat="46.0936975" lon="13.5197009"><ele>581.0</ele><time>2026-04-24T13:15:06.245Z</time></trkpt><trkpt lat="46.0937386" lon="13.5197772"><ele>581.0</ele><time>2026-04-24T13:15:07.245Z</time></trkpt><trkpt lat="46.09376" lon="13.5198707"><ele>581.0</ele><time>2026-04-24T13:15:08.246Z</time></trkpt><trkpt lat="46.0937705" lon="13.5199726"><ele>581.0</ele><time>2026-04-24T13:15:09.246Z</time></trkpt><trkpt lat="46.0937902" lon="13.520065"><ele>581.0</ele><time>2026-04-24T13:15:10.245Z</time></trkpt><trkpt lat="46.0938043" lon="13.520171"><ele>581.0</ele><time>2026-04-24T13:15:11.245Z</time></trkpt><trkpt lat="46.0938066" lon="13.5202816"><ele>581.0</ele><time>2026-04-24T13:15:12.245Z</time></trkpt><trkpt lat="46.0938054" lon="13.5203955"><ele>581.0</ele><time>2026-04-24T13:15:13.245Z</time></trkpt><trkpt lat="46.0938068" lon="13.5205098"><ele>581.0</ele><time>2026-04-24T13:15:14.245Z</time></trkpt><trkpt lat="46.0938032" lon="13.5206306"><ele>581.0</ele><time>2026-04-24T13:15:15.245Z</time></trkpt><trkpt lat="46.0938023" lon="13.5207429"><ele>581.0</ele><time>2026-04-24T13:15:16.245Z</time></trkpt><trkpt lat="46.0938164" lon="13.5209068"><ele>581.0</ele><time>2026-04-24T13:15:18.245Z</time></trkpt><trkpt lat="46.093839" lon="13.5210072"><ele>574.0</ele><time>2026-04-24T13:15:20.244Z</time></trkpt><trkpt lat="46.0938559" lon="13.5210983"><ele>574.0</ele><time>2026-04-24T13:15:22.245Z</time></trkpt><trkpt lat="46.093855" lon="13.5212134"><ele>574.0</ele><time>2026-04-24T13:15:25.245Z</time></trkpt></trkseg><trkseg><trkpt lat="46.0938485" lon="13.5211589"><ele>574.0</ele><time>2026-04-24T13:27:52.24Z</time></trkpt><trkpt lat="46.093831" lon="13.5210092"><ele>574.0</ele><time>2026-04-24T13:27:54.24Z</time></trkpt><trkpt lat="46.0937993" lon="13.5208207"><ele>574.0</ele><time>2026-04-24T13:27:56.241Z</time></trkpt><trkpt lat="46.0937959" lon="13.5207034"><ele>574.0</ele><time>2026-04-24T13:27:57.239Z</time></trkpt><trkpt lat="46.0937928" lon="13.5205803"><ele>574.0</ele><time>2026-04-24T13:27:58.241Z</time></trkpt><trkpt lat="46.093797" lon="13.5204648"><ele>575.1666666666667</ele><time>2026-04-24T13:27:59.241Z</time></trkpt><trkpt lat="46.0938013" lon="13.5203548"><ele>576.3333333333334</ele><time>2026-04-24T13:28:00.241Z</time></trkpt><trkpt lat="46.0938021" lon="13.5202508"><ele>577.5</ele><time>2026-04-24T13:28:01.239Z</time></trkpt><trkpt lat="46.0938025" lon="13.5201486"><ele>578.6666666666666</ele><time>2026-04-24T13:28:02.24Z</time></trkpt><trkpt lat="46.0937976" lon="13.5200518"><ele>579.8333333333333</ele><time>2026-04-24T13:28:03.239Z</time></trkpt><trkpt lat="46.0937737" lon="13.5198803"><ele>581.0</ele><time>2026-04-24T13:28:05.24Z</time></trkpt><trkpt lat="46.093754" lon="13.5197739"><ele>581.0</ele><time>2026-04-24T13:28:07.239Z</time></trkpt><trkpt lat="46.0937249" lon="13.5196885"><ele>581.0</ele><time>2026-04-24T13:28:10.24Z</time></trkpt><trkpt lat="46.0937582" lon="13.519589"><ele>581.0</ele><time>2026-04-24T13:28:40.241Z</time></trkpt><trkpt lat="46.0938205" lon="13.519501"><ele>581.0</ele><time>2026-04-24T13:28:43.239Z</time></trkpt><trkpt lat="46.0938973" lon="13.5194714"><ele>581.0</ele><time>2026-04-24T13:28:45.241Z</time></trkpt><trkpt lat="46.0939976" lon="13.5194844"><ele>581.0</ele><time>2026-04-24T13:28:47.24Z</time></trkpt><trkpt lat="46.0940617" lon="13.519458"><ele>581.7142857142857</ele><time>2026-04-24T13:28:48.24Z</time></trkpt><trkpt lat="46.0941278" lon="13.5194392"><ele>582.4285714285714</ele><time>2026-04-24T13:28:49.24Z</time></trkpt><trkpt lat="46.0941934" lon="13.5194121"><ele>583.1428571428571</ele><time>2026-04-24T13:28:50.24Z</time></trkpt><trkpt lat="46.0942658" lon="13.5193849"><ele>583.8571428571429</ele><time>2026-04-24T13:28:51.238Z</time></trkpt><trkpt lat="46.0943338" lon="13.519358"><ele>584.5714285714286</ele><time>2026-04-24T13:28:52.239Z</time></trkpt><trkpt lat="46.094403" lon="13.5193218"><ele>585.2857142857142</ele><time>2026-04-24T13:28:53.24Z</time></trkpt><trkpt lat="46.0944748" lon="13.51928"><ele>586.0</ele><time>2026-04-24T13:28:54.239Z</time></trkpt><trkpt lat="46.0945463" lon="13.5192264"><ele>586.0</ele><time>2026-04-24T13:28:55.239Z</time></trkpt><trkpt lat="46.0946196" lon="13.5191827"><ele>586.0</ele><time>2026-04-24T13:28:56.24Z</time></trkpt><trkpt lat="46.0946939" lon="13.5191342"><ele>586.0</ele><time>2026-04-24T13:28:57.239Z</time></trkpt><trkpt lat="46.0947659" lon="13.5190847"><ele>586.0</ele><time>2026-04-24T13:28:58.238Z</time></trkpt><trkpt lat="46.0948366" lon="13.5190249"><ele>586.0</ele><time>2026-04-24T13:28:59.239Z</time></trkpt><trkpt lat="46.0949074" lon="13.5189595"><ele>586.0</ele><time>2026-04-24T13:29:00.238Z</time></trkpt><trkpt lat="46.0949748" lon="13.5188903"><ele>584.5</ele><time>2026-04-24T13:29:01.239Z</time></trkpt><trkpt lat="46.095042" lon="13.5188176"><ele>583.0</ele><time>2026-04-24T13:29:02.239Z</time></trkpt><trkpt lat="46.0951022" lon="13.5187565"><ele>581.5</ele><time>2026-04-24T13:29:03.239Z</time></trkpt><trkpt lat="46.0951914" lon="13.5187077"><ele>580.0</ele><time>2026-04-24T13:29:05.239Z</time></trkpt><trkpt lat="46.0952266" lon="13.5188322"><ele>578.5</ele><time>2026-04-24T13:29:07.238Z</time></trkpt><trkpt lat="46.0952109" lon="13.5189293"><ele>577.0</ele><time>2026-04-24T13:29:08.238Z</time></trkpt><trkpt lat="46.0951897" lon="13.5190336"><ele>577.0</ele><time>2026-04-24T13:29:09.239Z</time></trkpt><trkpt lat="46.0951704" lon="13.5191514"><ele>577.0</ele><time>2026-04-24T13:29:10.238Z</time></trkpt><trkpt lat="46.0951614" lon="13.5192776"><ele>577.0</ele><time>2026-04-24T13:29:11.24Z</time></trkpt><trkpt lat="46.0951544" lon="13.5194124"><ele>577.0</ele><time>2026-04-24T13:29:12.239Z</time></trkpt><trkpt lat="46.0951523" lon="13.5195467"><ele>577.0</ele><time>2026-04-24T13:29:13.239Z</time></trkpt><trkpt lat="46.0951527" lon="13.5196872"><ele>577.6</ele><time>2026-04-24T13:29:14.239Z</time></trkpt><trkpt lat="46.0951612" lon="13.5198311"><ele>578.2</ele><time>2026-04-24T13:29:15.239Z</time></trkpt><trkpt lat="46.0951654" lon="13.519977"><ele>578.8</ele><time>2026-04-24T13:29:16.238Z</time></trkpt><trkpt lat="46.0951783" lon="13.5201452"><ele>579.4</ele><time>2026-04-24T13:29:17.239Z</time></trkpt><trkpt lat="46.0951939" lon="13.5202865"><ele>580.0</ele><time>2026-04-24T13:29:18.238Z</time></trkpt><trkpt lat="46.095224" lon="13.5204153"><ele>580.0</ele><time>2026-04-24T13:29:19.239Z</time></trkpt><trkpt lat="46.0952342" lon="13.5205456"><ele>580.0</ele><time>2026-04-24T13:29:20.239Z</time></trkpt><trkpt lat="46.0952218" lon="13.5207093"><ele>580.0</ele><time>2026-04-24T13:29:21.239Z</time></trkpt><trkpt lat="46.0952349" lon="13.5208539"><ele>580.0</ele><time>2026-04-24T13:29:22.24Z</time></trkpt><trkpt lat="46.0952494" lon="13.5209934"><ele>580.0</ele><time>2026-04-24T13:29:23.238Z</time></trkpt><trkpt lat="46.0952739" lon="13.5211196"><ele>576.8</ele><time>2026-04-24T13:29:24.239Z</time></trkpt><trkpt lat="46.0953007" lon="13.5212558"><ele>573.6</ele><time>2026-04-24T13:29:25.239Z</time></trkpt><trkpt lat="46.0953311" lon="13.5213904"><ele>570.4</ele><time>2026-04-24T13:29:26.238Z</time></trkpt><trkpt lat="46.0953506" lon="13.5215276"><ele>567.2</ele><time>2026-04-24T13:29:27.239Z</time></trkpt><trkpt lat="46.0953717" lon="13.5216684"><ele>564.0</ele><time>2026-04-24T13:29:28.239Z</time></trkpt><trkpt lat="46.0953953" lon="13.5218121"><ele>564.0</ele><time>2026-04-24T13:29:29.239Z</time></trkpt><trkpt lat="46.0954038" lon="13.5219526"><ele>564.0</ele><time>2026-04-24T13:29:30.238Z</time></trkpt><trkpt lat="46.0954723" lon="13.5221297"><ele>564.0</ele><time>2026-04-24T13:29:32.239Z</time></trkpt><trkpt lat="46.0955745" lon="13.522217"><ele>564.0</ele><time>2026-04-24T13:29:34.24Z</time></trkpt><trkpt lat="46.0956487" lon="13.5222242"><ele>564.0</ele><time>2026-04-24T13:29:35.239Z</time></trkpt><trkpt lat="46.0957306" lon="13.5222237"><ele>563.2</ele><time>2026-04-24T13:29:36.238Z</time></trkpt><trkpt lat="46.095824" lon="13.5222267"><ele>562.4</ele><time>2026-04-24T13:29:37.239Z</time></trkpt><trkpt lat="46.0959138" lon="13.5222117"><ele>561.6</ele><time>2026-04-24T13:29:38.24Z</time></trkpt><trkpt lat="46.0960062" lon="13.5221976"><ele>560.8</ele><time>2026-04-24T13:29:39.239Z</time></trkpt><trkpt lat="46.0960971" lon="13.5221739"><ele>560.0</ele><time>2026-04-24T13:29:40.238Z</time></trkpt><trkpt lat="46.0961915" lon="13.522156"><ele>560.0</ele><time>2026-04-24T13:29:41.239Z</time></trkpt><trkpt lat="46.0962882" lon="13.5221716"><ele>560.0</ele><time>2026-04-24T13:29:42.239Z</time></trkpt><trkpt lat="46.0963723" lon="13.5222178"><ele>560.0</ele><time>2026-04-24T13:29:43.238Z</time></trkpt><trkpt lat="46.0964419" lon="13.5222677"><ele>560.0</ele><time>2026-04-24T13:29:44.239Z</time></trkpt><trkpt lat="46.0964753" lon="13.5223885"><ele>560.0</ele><time>2026-04-24T13:29:45.239Z</time></trkpt><trkpt lat="46.0964737" lon="13.5225064"><ele>560.0</ele><time>2026-04-24T13:29:46.239Z</time></trkpt><trkpt lat="46.0964669" lon="13.522637"><ele>560.0</ele><time>2026-04-24T13:29:47.238Z</time></trkpt><trkpt lat="46.0964457" lon="13.5227652"><ele>560.0</ele><time>2026-04-24T13:29:48.239Z</time></trkpt><trkpt lat="46.0964299" lon="13.5228983"><ele>560.0</ele><time>2026-04-24T13:29:49.238Z</time></trkpt><trkpt lat="46.0964099" lon="13.5230319"><ele>560.0</ele><time>2026-04-24T13:29:50.239Z</time></trkpt><trkpt lat="46.0963873" lon="13.5231705"><ele>560.0</ele><time>2026-04-24T13:29:51.239Z</time></trkpt><trkpt lat="46.0963946" lon="13.523297"><ele>560.6666666666666</ele><time>2026-04-24T13:29:52.24Z</time></trkpt><trkpt lat="46.096416" lon="13.5234207"><ele>561.3333333333333</ele><time>2026-04-24T13:29:53.239Z</time></trkpt><trkpt lat="46.0964649" lon="13.523522"><ele>562.0</ele><time>2026-04-24T13:29:54.24Z</time></trkpt><trkpt lat="46.0965324" lon="13.523592"><ele>562.6666666666666</ele><time>2026-04-24T13:29:55.239Z</time></trkpt><trkpt lat="46.0966089" lon="13.5236465"><ele>563.3333333333334</ele><time>2026-04-24T13:29:56.239Z</time></trkpt><trkpt lat="46.096694" lon="13.5236907"><ele>564.0</ele><time>2026-04-24T13:29:57.239Z</time></trkpt><trkpt lat="46.0967745" lon="13.5237371"><ele>566.4</ele><time>2026-04-24T13:29:58.239Z</time></trkpt><trkpt lat="46.0968579" lon="13.5237862"><ele>568.8</ele><time>2026-04-24T13:29:59.238Z</time></trkpt><trkpt lat="46.0969415" lon="13.5238406"><ele>571.2</ele><time>2026-04-24T13:30:00.239Z</time></trkpt><trkpt lat="46.0970296" lon="13.523903"><ele>573.6</ele><time>2026-04-24T13:30:01.239Z</time></trkpt><trkpt lat="46.0971177" lon="13.5239622"><ele>576.0</ele><time>2026-04-24T13:30:02.238Z</time></trkpt><trkpt lat="46.097213" lon="13.5240251"><ele>576.0</ele><time>2026-04-24T13:30:03.239Z</time></trkpt><trkpt lat="46.0973004" lon="13.5240929"><ele>576.0</ele><time>2026-04-24T13:30:04.24Z</time></trkpt><trkpt lat="46.0973766" lon="13.5241589"><ele>576.0</ele><time>2026-04-24T13:30:05.239Z</time></trkpt><trkpt lat="46.0974462" lon="13.5242594"><ele>576.0</ele><time>2026-04-24T13:30:06.238Z</time></trkpt><trkpt lat="46.0975194" lon="13.5243512"><ele>576.0</ele><time>2026-04-24T13:30:07.24Z</time></trkpt><trkpt lat="46.0975972" lon="13.5244202"><ele>577.0</ele><time>2026-04-24T13:30:08.239Z</time></trkpt><trkpt lat="46.0976804" lon="13.5245002"><ele>578.0</ele><time>2026-04-24T13:30:09.238Z</time></trkpt><trkpt lat="46.0977589" lon="13.524552"><ele>579.0</ele><time>2026-04-24T13:30:10.24Z</time></trkpt><trkpt lat="46.0978656" lon="13.5246128"><ele>580.0</ele><time>2026-04-24T13:30:11.24Z</time></trkpt><trkpt lat="46.0979678" lon="13.5246236"><ele>581.0</ele><time>2026-04-24T13:30:12.239Z</time></trkpt><trkpt lat="46.0980749" lon="13.5246265"><ele>583.8</ele><time>2026-04-24T13:30:13.239Z</time></trkpt><trkpt lat="46.0981565" lon="13.5246751"><ele>586.6</ele><time>2026-04-24T13:30:14.239Z</time></trkpt><trkpt lat="46.0982424" lon="13.5247183"><ele>589.4</ele><time>2026-04-24T13:30:15.238Z</time></trkpt><trkpt lat="46.0983307" lon="13.5247846"><ele>592.2</ele><time>2026-04-24T13:30:16.24Z</time></trkpt><trkpt lat="46.0984145" lon="13.5248217"><ele>595.0</ele><time>2026-04-24T13:30:17.239Z</time></trkpt><trkpt lat="46.0984902" lon="13.5248744"><ele>596.4</ele><time>2026-04-24T13:30:18.239Z</time></trkpt><trkpt lat="46.0985793" lon="13.524898"><ele>597.8</ele><time>2026-04-24T13:30:19.239Z</time></trkpt><trkpt lat="46.098666" lon="13.5249195"><ele>599.2</ele><time>2026-04-24T13:30:20.238Z</time></trkpt><trkpt lat="46.098742" lon="13.5249578"><ele>600.6</ele><time>2026-04-24T13:30:21.239Z</time></trkpt><trkpt lat="46.0988622" lon="13.5250305"><ele>602.0</ele><time>2026-04-24T13:30:23.238Z</time></trkpt><trkpt lat="46.0989264" lon="13.5251233"><ele>602.0</ele><time>2026-04-24T13:30:24.239Z</time></trkpt><trkpt lat="46.0989975" lon="13.5252071"><ele>602.0</ele><time>2026-04-24T13:30:25.239Z</time></trkpt><trkpt lat="46.0990845" lon="13.5252822"><ele>602.0</ele><time>2026-04-24T13:30:26.239Z</time></trkpt><trkpt lat="46.0991923" lon="13.5254081"><ele>602.0</ele><time>2026-04-24T13:30:28.239Z</time></trkpt><trkpt lat="46.0992792" lon="13.5254751"><ele>602.0</ele><time>2026-04-24T13:30:29.238Z</time></trkpt><trkpt lat="46.0993614" lon="13.5255356"><ele>606.2</ele><time>2026-04-24T13:30:30.239Z</time></trkpt><trkpt lat="46.0994561" lon="13.5254939"><ele>610.4000000000001</ele><time>2026-04-24T13:30:31.239Z</time></trkpt><trkpt lat="46.0995454" lon="13.5254935"><ele>614.5999999999999</ele><time>2026-04-24T13:30:32.239Z</time></trkpt><trkpt lat="46.0996354" lon="13.5254936"><ele>618.8</ele><time>2026-04-24T13:30:33.239Z</time></trkpt><trkpt lat="46.0997318" lon="13.5254877"><ele>623.0</ele><time>2026-04-24T13:30:34.24Z</time></trkpt><trkpt lat="46.0998252" lon="13.5254618"><ele>621.3333333333333</ele><time>2026-04-24T13:30:35.24Z</time></trkpt><trkpt lat="46.0999174" lon="13.5254467"><ele>619.6666666666666</ele><time>2026-04-24T13:30:36.24Z</time></trkpt><trkpt lat="46.1000053" lon="13.5254125"><ele>618.0</ele><time>2026-04-24T13:30:37.239Z</time></trkpt><trkpt lat="46.1000847" lon="13.5254092"><ele>616.3333333333334</ele><time>2026-04-24T13:30:38.238Z</time></trkpt><trkpt lat="46.1001486" lon="13.5254152"><ele>614.6666666666667</ele><time>2026-04-24T13:30:39.239Z</time></trkpt><trkpt lat="46.100199" lon="13.5254784"><ele>613.0</ele><time>2026-04-24T13:30:41.239Z</time></trkpt><trkpt lat="46.100163" lon="13.5256227"><ele>613.0</ele><time>2026-04-24T13:30:43.239Z</time></trkpt><trkpt lat="46.1001237" lon="13.5257132"><ele>613.0</ele><time>2026-04-24T13:30:44.238Z</time></trkpt><trkpt lat="46.1000821" lon="13.5258209"><ele>613.0</ele><time>2026-04-24T13:30:45.238Z</time></trkpt><trkpt lat="46.1000395" lon="13.5259243"><ele>613.0</ele><time>2026-04-24T13:30:46.24Z</time></trkpt><trkpt lat="46.0999885" lon="13.5260345"><ele>613.0</ele><time>2026-04-24T13:30:47.239Z</time></trkpt><trkpt lat="46.0999369" lon="13.5261467"><ele>613.0</ele><time>2026-04-24T13:30:48.24Z</time></trkpt><trkpt lat="46.0998863" lon="13.5262623"><ele>617.8</ele><time>2026-04-24T13:30:49.239Z</time></trkpt><trkpt lat="46.0998385" lon="13.52638"><ele>622.5999999999999</ele><time>2026-04-24T13:30:50.239Z</time></trkpt><trkpt lat="46.0997939" lon="13.5264986"><ele>627.4000000000001</ele><time>2026-04-24T13:30:51.24Z</time></trkpt><trkpt lat="46.0997552" lon="13.5266158"><ele>632.2</ele><time>2026-04-24T13:30:52.238Z</time></trkpt><trkpt lat="46.0997123" lon="13.5267266"><ele>637.0</ele><time>2026-04-24T13:30:53.239Z</time></trkpt><trkpt lat="46.0996703" lon="13.5268382"><ele>637.0</ele><time>2026-04-24T13:30:54.239Z</time></trkpt><trkpt lat="46.0996289" lon="13.5269456"><ele>637.0</ele><time>2026-04-24T13:30:55.238Z</time></trkpt><trkpt lat="46.0995937" lon="13.5270541"><ele>637.0</ele><time>2026-04-24T13:30:56.239Z</time></trkpt><trkpt lat="46.0995565" lon="13.5271522"><ele>637.0</ele><time>2026-04-24T13:30:57.238Z</time></trkpt><trkpt lat="46.09952" lon="13.5272483"><ele>637.0</ele><time>2026-04-24T13:30:58.238Z</time></trkpt><trkpt lat="46.0995357" lon="13.52741"><ele>637.0</ele><time>2026-04-24T13:30:59.239Z</time></trkpt><trkpt lat="46.0995159" lon="13.5275103"><ele>635.6</ele><time>2026-04-24T13:31:00.239Z</time></trkpt><trkpt lat="46.0995207" lon="13.5276307"><ele>634.2</ele><time>2026-04-24T13:31:01.238Z</time></trkpt><trkpt lat="46.0994701" lon="13.5277584"><ele>632.8</ele><time>2026-04-24T13:31:02.239Z</time></trkpt><trkpt lat="46.0994501" lon="13.5278813"><ele>631.4</ele><time>2026-04-24T13:31:03.239Z</time></trkpt><trkpt lat="46.0994274" lon="13.5280097"><ele>630.0</ele><time>2026-04-24T13:31:04.239Z</time></trkpt><trkpt lat="46.0993979" lon="13.5281575"><ele>628.4</ele><time>2026-04-24T13:31:05.238Z</time></trkpt><trkpt lat="46.0993502" lon="13.5282768"><ele>626.8</ele><time>2026-04-24T13:31:06.239Z</time></trkpt><trkpt lat="46.0993248" lon="13.5284171"><ele>625.2</ele><time>2026-04-24T13:31:07.238Z</time></trkpt><trkpt lat="46.0992976" lon="13.5285512"><ele>623.6</ele><time>2026-04-24T13:31:08.238Z</time></trkpt><trkpt lat="46.0992636" lon="13.5286781"><ele>622.0</ele><time>2026-04-24T13:31:09.239Z</time></trkpt><trkpt lat="46.0992423" lon="13.5288083"><ele>621.0</ele><time>2026-04-24T13:31:10.239Z</time></trkpt><trkpt lat="46.0992196" lon="13.5289349"><ele>620.0</ele><time>2026-04-24T13:31:11.238Z</time></trkpt><trkpt lat="46.0992088" lon="13.5290531"><ele>619.0</ele><time>2026-04-24T13:31:12.239Z</time></trkpt><trkpt lat="46.0991953" lon="13.5291884"><ele>618.0</ele><time>2026-04-24T13:31:13.239Z</time></trkpt><trkpt lat="46.0991858" lon="13.5293218"><ele>617.0</ele><time>2026-04-24T13:31:14.239Z</time></trkpt><trkpt lat="46.099173" lon="13.529464"><ele>615.8000000000001</ele><time>2026-04-24T13:31:15.24Z</time></trkpt><trkpt lat="46.0991639" lon="13.5296191"><ele>614.6</ele><time>2026-04-24T13:31:16.24Z</time></trkpt><trkpt lat="46.099164" lon="13.52977"><ele>613.4000000000001</ele><time>2026-04-24T13:31:17.238Z</time></trkpt><trkpt lat="46.0991664" lon="13.5299074"><ele>612.2</ele><time>2026-04-24T13:31:18.239Z</time></trkpt><trkpt lat="46.0991699" lon="13.5300468"><ele>611.0</ele><time>2026-04-24T13:31:19.24Z</time></trkpt><trkpt lat="46.099179" lon="13.5301731"><ele>611.0</ele><time>2026-04-24T13:31:20.24Z</time></trkpt><trkpt lat="46.0991867" lon="13.5303018"><ele>611.0</ele><time>2026-04-24T13:31:21.239Z</time></trkpt><trkpt lat="46.0992147" lon="13.5304231"><ele>611.0</ele><time>2026-04-24T13:31:22.238Z</time></trkpt><trkpt lat="46.0992308" lon="13.5305567"><ele>611.0</ele><time>2026-04-24T13:31:23.239Z</time></trkpt><trkpt lat="46.0992936" lon="13.530655"><ele>611.0</ele><time>2026-04-24T13:31:24.24Z</time></trkpt><trkpt lat="46.0993518" lon="13.5307636"><ele>609.4</ele><time>2026-04-24T13:31:25.238Z</time></trkpt><trkpt lat="46.0994235" lon="13.5308587"><ele>607.8</ele><time>2026-04-24T13:31:26.238Z</time></trkpt><trkpt lat="46.0995544" lon="13.5308343"><ele>606.1999999999999</ele><time>2026-04-24T13:31:27.238Z</time></trkpt><trkpt lat="46.0996343" lon="13.5308967"><ele>604.6</ele><time>2026-04-24T13:31:28.237Z</time></trkpt><trkpt lat="46.0997213" lon="13.530949"><ele>603.0</ele><time>2026-04-24T13:31:29.237Z</time></trkpt><trkpt lat="46.0997961" lon="13.5310427"><ele>603.0</ele><time>2026-04-24T13:31:30.238Z</time></trkpt><trkpt lat="46.0998603" lon="13.5311406"><ele>603.0</ele><time>2026-04-24T13:31:31.239Z</time></trkpt><trkpt lat="46.0999124" lon="13.5312445"><ele>603.0</ele><time>2026-04-24T13:31:32.237Z</time></trkpt><trkpt lat="46.0999746" lon="13.5313571"><ele>603.0</ele><time>2026-04-24T13:31:33.238Z</time></trkpt><trkpt lat="46.100032" lon="13.5314609"><ele>603.0</ele><time>2026-04-24T13:31:34.239Z</time></trkpt><trkpt lat="46.1001026" lon="13.5315453"><ele>604.0</ele><time>2026-04-24T13:31:35.238Z</time></trkpt><trkpt lat="46.1002327" lon="13.5315622"><ele>605.0</ele><time>2026-04-24T13:31:36.237Z</time></trkpt><trkpt lat="46.1003364" lon="13.5316037"><ele>606.0</ele><time>2026-04-24T13:31:37.238Z</time></trkpt><trkpt lat="46.1004329" lon="13.5316431"><ele>607.0</ele><time>2026-04-24T13:31:38.238Z</time></trkpt><trkpt lat="46.1005236" lon="13.5316762"><ele>608.0</ele><time>2026-04-24T13:31:39.239Z</time></trkpt><trkpt lat="46.1006083" lon="13.5316832"><ele>608.0</ele><time>2026-04-24T13:31:40.238Z</time></trkpt><trkpt lat="46.1006895" lon="13.5316907"><ele>608.0</ele><time>2026-04-24T13:31:41.238Z</time></trkpt><trkpt lat="46.1007659" lon="13.5317108"><ele>608.0</ele><time>2026-04-24T13:31:42.238Z</time></trkpt><trkpt lat="46.1008318" lon="13.5317516"><ele>608.0</ele><time>2026-04-24T13:31:43.237Z</time></trkpt><trkpt lat="46.100929" lon="13.5318445"><ele>608.0</ele><time>2026-04-24T13:31:45.237Z</time></trkpt><trkpt lat="46.1010009" lon="13.5319706"><ele>609.2857142857142</ele><time>2026-04-24T13:31:47.237Z</time></trkpt><trkpt lat="46.1010301" lon="13.5320615"><ele>610.5714285714287</ele><time>2026-04-24T13:31:48.238Z</time></trkpt><trkpt lat="46.1010581" lon="13.5321592"><ele>611.8571428571429</ele><time>2026-04-24T13:31:49.238Z</time></trkpt><trkpt lat="46.1010809" lon="13.5322589"><ele>613.1428571428571</ele><time>2026-04-24T13:31:50.239Z</time></trkpt><trkpt lat="46.1011024" lon="13.5323609"><ele>614.4285714285713</ele><time>2026-04-24T13:31:51.238Z</time></trkpt><trkpt lat="46.1011121" lon="13.5324702"><ele>615.7142857142858</ele><time>2026-04-24T13:31:52.237Z</time></trkpt><trkpt lat="46.1011162" lon="13.5325824"><ele>617.0</ele><time>2026-04-24T13:31:53.237Z</time></trkpt><trkpt lat="46.1011197" lon="13.5326971"><ele>617.0</ele><time>2026-04-24T13:31:54.238Z</time></trkpt><trkpt lat="46.1011176" lon="13.5328148"><ele>617.0</ele><time>2026-04-24T13:31:55.238Z</time></trkpt><trkpt lat="46.101104" lon="13.5329343"><ele>617.0</ele><time>2026-04-24T13:31:56.237Z</time></trkpt><trkpt lat="46.1010843" lon="13.5330552"><ele>617.0</ele><time>2026-04-24T13:31:57.238Z</time></trkpt><trkpt lat="46.1010626" lon="13.5331775"><ele>617.0</ele><time>2026-04-24T13:31:58.237Z</time></trkpt><trkpt lat="46.1010494" lon="13.5333023"><ele>617.0</ele><time>2026-04-24T13:31:59.237Z</time></trkpt><trkpt lat="46.1010343" lon="13.533429"><ele>615.8000000000001</ele><time>2026-04-24T13:32:00.237Z</time></trkpt><trkpt lat="46.1010186" lon="13.533561"><ele>614.6</ele><time>2026-04-24T13:32:01.238Z</time></trkpt><trkpt lat="46.1010046" lon="13.5336886"><ele>613.4000000000001</ele><time>2026-04-24T13:32:02.238Z</time></trkpt><trkpt lat="46.1009929" lon="13.5338198"><ele>612.2</ele><time>2026-04-24T13:32:03.238Z</time></trkpt><trkpt lat="46.1009827" lon="13.5339673"><ele>611.0</ele><time>2026-04-24T13:32:04.238Z</time></trkpt><trkpt lat="46.1009745" lon="13.5341385"><ele>609.75</ele><time>2026-04-24T13:32:05.237Z</time></trkpt><trkpt lat="46.1009598" lon="13.5343141"><ele>608.5</ele><time>2026-04-24T13:32:06.238Z</time></trkpt><trkpt lat="46.1009472" lon="13.5345003"><ele>607.25</ele><time>2026-04-24T13:32:07.238Z</time></trkpt><trkpt lat="46.100935" lon="13.5346993"><ele>606.0</ele><time>2026-04-24T13:32:08.238Z</time></trkpt><trkpt lat="46.1009204" lon="13.5349007"><ele>605.0</ele><time>2026-04-24T13:32:09.238Z</time></trkpt><trkpt lat="46.1009124" lon="13.5351005"><ele>604.0</ele><time>2026-04-24T13:32:10.237Z</time></trkpt><trkpt lat="46.1009152" lon="13.5352926"><ele>603.0</ele><time>2026-04-24T13:32:11.238Z</time></trkpt><trkpt lat="46.1009215" lon="13.5354758"><ele>602.0</ele><time>2026-04-24T13:32:12.237Z</time></trkpt><trkpt lat="46.1009308" lon="13.5356579"><ele>601.25</ele><time>2026-04-24T13:32:13.238Z</time></trkpt><trkpt lat="46.1009398" lon="13.5358346"><ele>600.5</ele><time>2026-04-24T13:32:14.238Z</time></trkpt><trkpt lat="46.1009639" lon="13.5359972"><ele>599.75</ele><time>2026-04-24T13:32:15.237Z</time></trkpt><trkpt lat="46.101001" lon="13.5361472"><ele>599.0</ele><time>2026-04-24T13:32:16.237Z</time></trkpt><trkpt lat="46.1010479" lon="13.5362807"><ele>598.6</ele><time>2026-04-24T13:32:17.239Z</time></trkpt><trkpt lat="46.1010913" lon="13.5364105"><ele>598.2</ele><time>2026-04-24T13:32:18.239Z</time></trkpt><trkpt lat="46.1011326" lon="13.5365472"><ele>597.8000000000001</ele><time>2026-04-24T13:32:19.238Z</time></trkpt><trkpt lat="46.1011619" lon="13.5366965"><ele>597.4</ele><time>2026-04-24T13:32:20.239Z</time></trkpt><trkpt lat="46.1011745" lon="13.5368595"><ele>597.0</ele><time>2026-04-24T13:32:21.239Z</time></trkpt><trkpt lat="46.1011751" lon="13.5370281"><ele>597.2</ele><time>2026-04-24T13:32:22.239Z</time></trkpt><trkpt lat="46.1011679" lon="13.5371889"><ele>597.4000000000001</ele><time>2026-04-24T13:32:23.238Z</time></trkpt><trkpt lat="46.1011615" lon="13.5373417"><ele>597.5999999999999</ele><time>2026-04-24T13:32:24.238Z</time></trkpt><trkpt lat="46.1011576" lon="13.5374655"><ele>597.8</ele><time>2026-04-24T13:32:25.238Z</time></trkpt><trkpt lat="46.1011693" lon="13.5375703"><ele>598.0</ele><time>2026-04-24T13:32:26.238Z</time></trkpt><trkpt lat="46.1011994" lon="13.5376664"><ele>598.0</ele><time>2026-04-24T13:32:27.237Z</time></trkpt><trkpt lat="46.1013314" lon="13.5377605"><ele>598.0</ele><time>2026-04-24T13:32:29.238Z</time></trkpt><trkpt lat="46.1014465" lon="13.5377893"><ele>598.0</ele><time>2026-04-24T13:32:30.238Z</time></trkpt><trkpt lat="46.1015485" lon="13.5378908"><ele>598.0</ele><time>2026-04-24T13:32:31.239Z</time></trkpt><trkpt lat="46.101638" lon="13.537987"><ele>594.0</ele><time>2026-04-24T13:32:32.239Z</time></trkpt><trkpt lat="46.1017182" lon="13.5380909"><ele>590.0</ele><time>2026-04-24T13:32:33.239Z</time></trkpt><trkpt lat="46.1017706" lon="13.5382095"><ele>586.0</ele><time>2026-04-24T13:32:34.237Z</time></trkpt><trkpt lat="46.1018132" lon="13.5383269"><ele>582.0</ele><time>2026-04-24T13:32:35.238Z</time></trkpt><trkpt lat="46.1018328" lon="13.5384686"><ele>578.0</ele><time>2026-04-24T13:32:36.238Z</time></trkpt><trkpt lat="46.1018529" lon="13.5386117"><ele>578.0</ele><time>2026-04-24T13:32:37.237Z</time></trkpt><trkpt lat="46.1018543" lon="13.538711"><ele>578.0</ele><time>2026-04-24T13:32:38.238Z</time></trkpt><trkpt lat="46.1018637" lon="13.5388166"><ele>578.0</ele><time>2026-04-24T13:32:39.238Z</time></trkpt><trkpt lat="46.1018702" lon="13.5389199"><ele>578.0</ele><time>2026-04-24T13:32:40.237Z</time></trkpt><trkpt lat="46.1020095" lon="13.53885"><ele>578.0</ele><time>2026-04-24T13:32:41.238Z</time></trkpt><trkpt lat="46.1020835" lon="13.5388928"><ele>578.0</ele><time>2026-04-24T13:32:42.238Z</time></trkpt><trkpt lat="46.1021429" lon="13.5389705"><ele>579.6</ele><time>2026-04-24T13:32:43.238Z</time></trkpt><trkpt lat="46.102177" lon="13.5390876"><ele>581.1999999999999</ele><time>2026-04-24T13:32:44.238Z</time></trkpt><trkpt lat="46.1021902" lon="13.5392328"><ele>582.8</ele><time>2026-04-24T13:32:45.238Z</time></trkpt><trkpt lat="46.1021873" lon="13.539383"><ele>584.4</ele><time>2026-04-24T13:32:46.237Z</time></trkpt><trkpt lat="46.1021752" lon="13.5395697"><ele>586.0</ele><time>2026-04-24T13:32:47.238Z</time></trkpt><trkpt lat="46.1021706" lon="13.5397503"><ele>586.75</ele><time>2026-04-24T13:32:48.238Z</time></trkpt><trkpt lat="46.1021643" lon="13.5399482"><ele>587.5</ele><time>2026-04-24T13:32:49.238Z</time></trkpt><trkpt lat="46.1021636" lon="13.540136"><ele>588.25</ele><time>2026-04-24T13:32:50.239Z</time></trkpt><trkpt lat="46.1021897" lon="13.5403316"><ele>589.0</ele><time>2026-04-24T13:32:51.238Z</time></trkpt><trkpt lat="46.1022062" lon="13.5405324"><ele>587.5</ele><time>2026-04-24T13:32:52.239Z</time></trkpt><trkpt lat="46.1022501" lon="13.5407267"><ele>586.0</ele><time>2026-04-24T13:32:53.237Z</time></trkpt><trkpt lat="46.1022981" lon="13.5409126"><ele>584.5</ele><time>2026-04-24T13:32:54.238Z</time></trkpt><trkpt lat="46.1024061" lon="13.5410566"><ele>583.0</ele><time>2026-04-24T13:32:55.237Z</time></trkpt><trkpt lat="46.1024757" lon="13.5412117"><ele>576.5</ele><time>2026-04-24T13:32:56.237Z</time></trkpt><trkpt lat="46.1025338" lon="13.5413627"><ele>570.0</ele><time>2026-04-24T13:32:57.237Z</time></trkpt><trkpt lat="46.1025679" lon="13.5415091"><ele>563.5</ele><time>2026-04-24T13:32:58.238Z</time></trkpt><trkpt lat="46.1025922" lon="13.5416683"><ele>557.0</ele><time>2026-04-24T13:32:59.239Z</time></trkpt><trkpt lat="46.1026007" lon="13.5418354"><ele>557.0</ele><time>2026-04-24T13:33:00.238Z</time></trkpt><trkpt lat="46.1025803" lon="13.5420233"><ele>557.0</ele><time>2026-04-24T13:33:01.238Z</time></trkpt><trkpt lat="46.1025536" lon="13.5422087"><ele>557.0</ele><time>2026-04-24T13:33:02.237Z</time></trkpt><trkpt lat="46.1025119" lon="13.5424126"><ele>557.0</ele><time>2026-04-24T13:33:03.237Z</time></trkpt><trkpt lat="46.1024791" lon="13.5426201"><ele>556.0</ele><time>2026-04-24T13:33:04.237Z</time></trkpt><trkpt lat="46.1024449" lon="13.542809"><ele>555.0</ele><time>2026-04-24T13:33:05.239Z</time></trkpt><trkpt lat="46.1024224" lon="13.542986"><ele>554.0</ele><time>2026-04-24T13:33:06.238Z</time></trkpt><trkpt lat="46.1024112" lon="13.5431568"><ele>553.0</ele><time>2026-04-24T13:33:07.238Z</time></trkpt><trkpt lat="46.102408" lon="13.5433213"><ele>552.25</ele><time>2026-04-24T13:33:08.238Z</time></trkpt><trkpt lat="46.1024229" lon="13.54349"><ele>551.5</ele><time>2026-04-24T13:33:09.239Z</time></trkpt><trkpt lat="46.1024398" lon="13.5436609"><ele>550.75</ele><time>2026-04-24T13:33:10.239Z</time></trkpt><trkpt lat="46.102476" lon="13.5438076"><ele>550.0</ele><time>2026-04-24T13:33:11.238Z</time></trkpt><trkpt lat="46.1025425" lon="13.5439317"><ele>550.0</ele><time>2026-04-24T13:33:12.239Z</time></trkpt><trkpt lat="46.102626" lon="13.5440542"><ele>550.0</ele><time>2026-04-24T13:33:13.237Z</time></trkpt><trkpt lat="46.1027077" lon="13.5441931"><ele>550.0</ele><time>2026-04-24T13:33:14.239Z</time></trkpt><trkpt lat="46.1027523" lon="13.5443664"><ele>550.0</ele><time>2026-04-24T13:33:15.238Z</time></trkpt><trkpt lat="46.1027924" lon="13.5445367"><ele>551.0</ele><time>2026-04-24T13:33:16.238Z</time></trkpt><trkpt lat="46.102822" lon="13.5447184"><ele>552.0</ele><time>2026-04-24T13:33:17.237Z</time></trkpt><trkpt lat="46.1028516" lon="13.544898"><ele>553.0</ele><time>2026-04-24T13:33:18.237Z</time></trkpt><trkpt lat="46.1028813" lon="13.5450612"><ele>554.0</ele><time>2026-04-24T13:33:19.238Z</time></trkpt><trkpt lat="46.102909" lon="13.5451909"><ele>554.0</ele><time>2026-04-24T13:33:20.237Z</time></trkpt><trkpt lat="46.1029581" lon="13.5453005"><ele>554.0</ele><time>2026-04-24T13:33:21.238Z</time></trkpt><trkpt lat="46.1030011" lon="13.5454129"><ele>554.0</ele><time>2026-04-24T13:33:22.239Z</time></trkpt><trkpt lat="46.1030639" lon="13.5455035"><ele>554.0</ele><time>2026-04-24T13:33:23.238Z</time></trkpt><trkpt lat="46.1031837" lon="13.5454463"><ele>554.0</ele><time>2026-04-24T13:33:24.239Z</time></trkpt><trkpt lat="46.1032722" lon="13.5454215"><ele>550.6</ele><time>2026-04-24T13:33:25.239Z</time></trkpt><trkpt lat="46.1033562" lon="13.5454218"><ele>547.2</ele><time>2026-04-24T13:33:26.239Z</time></trkpt><trkpt lat="46.1034335" lon="13.545451"><ele>543.8000000000001</ele><time>2026-04-24T13:33:27.238Z</time></trkpt><trkpt lat="46.1035095" lon="13.5455322"><ele>540.4</ele><time>2026-04-24T13:33:28.238Z</time></trkpt><trkpt lat="46.1035821" lon="13.5456408"><ele>537.0</ele><time>2026-04-24T13:33:29.237Z</time></trkpt><trkpt lat="46.1036622" lon="13.5457497"><ele>537.0</ele><time>2026-04-24T13:33:30.238Z</time></trkpt><trkpt lat="46.1037465" lon="13.5458711"><ele>537.0</ele><time>2026-04-24T13:33:31.239Z</time></trkpt><trkpt lat="46.1038334" lon="13.5459871"><ele>537.0</ele><time>2026-04-24T13:33:32.238Z</time></trkpt><trkpt lat="46.1039162" lon="13.5460833"><ele>537.0</ele><time>2026-04-24T13:33:33.238Z</time></trkpt><trkpt lat="46.1039751" lon="13.5461909"><ele>537.0</ele><time>2026-04-24T13:33:34.238Z</time></trkpt><trkpt lat="46.1040347" lon="13.5462945"><ele>537.2</ele><time>2026-04-24T13:33:35.238Z</time></trkpt><trkpt lat="46.1040709" lon="13.5464264"><ele>537.4000000000001</ele><time>2026-04-24T13:33:36.238Z</time></trkpt><trkpt lat="46.1040331" lon="13.5465885"><ele>537.5999999999999</ele><time>2026-04-24T13:33:37.239Z</time></trkpt><trkpt lat="46.1040212" lon="13.5467256"><ele>537.8</ele><time>2026-04-24T13:33:38.237Z</time></trkpt><trkpt lat="46.1039963" lon="13.5468539"><ele>538.0</ele><time>2026-04-24T13:33:39.238Z</time></trkpt><trkpt lat="46.1039371" lon="13.5469534"><ele>538.0</ele><time>2026-04-24T13:33:40.238Z</time></trkpt><trkpt lat="46.10389" lon="13.5470435"><ele>538.0</ele><time>2026-04-24T13:33:41.237Z</time></trkpt><trkpt lat="46.1038647" lon="13.5471332"><ele>538.0</ele><time>2026-04-24T13:33:42.237Z</time></trkpt><trkpt lat="46.1038985" lon="13.5472907"><ele>538.0</ele><time>2026-04-24T13:33:44.238Z</time></trkpt><trkpt lat="46.10401" lon="13.5473752"><ele>538.0</ele><time>2026-04-24T13:33:46.237Z</time></trkpt><trkpt lat="46.1040647" lon="13.5474467"><ele>536.1666666666667</ele><time>2026-04-24T13:33:47.238Z</time></trkpt><trkpt lat="46.1041134" lon="13.5475368"><ele>534.3333333333334</ele><time>2026-04-24T13:33:48.237Z</time></trkpt><trkpt lat="46.1041532" lon="13.5476399"><ele>532.5</ele><time>2026-04-24T13:33:49.238Z</time></trkpt><trkpt lat="46.1041915" lon="13.5477412"><ele>530.6666666666666</ele><time>2026-04-24T13:33:50.237Z</time></trkpt><trkpt lat="46.1042323" lon="13.5478513"><ele>528.8333333333333</ele><time>2026-04-24T13:33:51.238Z</time></trkpt><trkpt lat="46.1042719" lon="13.5479698"><ele>527.0</ele><time>2026-04-24T13:33:52.237Z</time></trkpt><trkpt lat="46.1043091" lon="13.5480766"><ele>527.0</ele><time>2026-04-24T13:33:53.237Z</time></trkpt><trkpt lat="46.104357" lon="13.5481556"><ele>527.0</ele><time>2026-04-24T13:33:54.238Z</time></trkpt><trkpt lat="46.1044223" lon="13.5481968"><ele>527.0</ele><time>2026-04-24T13:33:55.239Z</time></trkpt><trkpt lat="46.1044931" lon="13.5482576"><ele>527.0</ele><time>2026-04-24T13:33:56.238Z</time></trkpt><trkpt lat="46.104576" lon="13.5483299"><ele>527.0</ele><time>2026-04-24T13:33:57.239Z</time></trkpt><trkpt lat="46.1046615" lon="13.5484031"><ele>527.0</ele><time>2026-04-24T13:33:58.238Z</time></trkpt><trkpt lat="46.1047458" lon="13.5484897"><ele>527.0</ele><time>2026-04-24T13:33:59.237Z</time></trkpt><trkpt lat="46.1048342" lon="13.5485777"><ele>527.0</ele><time>2026-04-24T13:34:00.237Z</time></trkpt><trkpt lat="46.104924" lon="13.5486616"><ele>527.0</ele><time>2026-04-24T13:34:01.238Z</time></trkpt><trkpt lat="46.1050227" lon="13.5487271"><ele>527.0</ele><time>2026-04-24T13:34:02.237Z</time></trkpt><trkpt lat="46.1051298" lon="13.5487619"><ele>527.0</ele><time>2026-04-24T13:34:03.237Z</time></trkpt><trkpt lat="46.1052434" lon="13.5487632"><ele>526.0</ele><time>2026-04-24T13:34:04.237Z</time></trkpt><trkpt lat="46.1053583" lon="13.5487479"><ele>525.0</ele><time>2026-04-24T13:34:05.237Z</time></trkpt><trkpt lat="46.1054651" lon="13.5487416"><ele>524.0</ele><time>2026-04-24T13:34:06.237Z</time></trkpt><trkpt lat="46.1055645" lon="13.5487506"><ele>523.0</ele><time>2026-04-24T13:34:07.238Z</time></trkpt><trkpt lat="46.1056638" lon="13.5487672"><ele>522.0</ele><time>2026-04-24T13:34:08.238Z</time></trkpt><trkpt lat="46.1057675" lon="13.5487882"><ele>520.5</ele><time>2026-04-24T13:34:09.238Z</time></trkpt><trkpt lat="46.1058777" lon="13.5488121"><ele>519.0</ele><time>2026-04-24T13:34:10.238Z</time></trkpt><trkpt lat="46.1059895" lon="13.5488355"><ele>517.5</ele><time>2026-04-24T13:34:11.238Z</time></trkpt><trkpt lat="46.106107" lon="13.5488618"><ele>516.0</ele><time>2026-04-24T13:34:12.238Z</time></trkpt><trkpt lat="46.1062306" lon="13.5489029"><ele>516.0</ele><time>2026-04-24T13:34:13.237Z</time></trkpt><trkpt lat="46.1063584" lon="13.5489692"><ele>516.0</ele><time>2026-04-24T13:34:14.238Z</time></trkpt><trkpt lat="46.1064858" lon="13.5490514"><ele>516.0</ele><time>2026-04-24T13:34:15.237Z</time></trkpt><trkpt lat="46.1066185" lon="13.5491458"><ele>516.0</ele><time>2026-04-24T13:34:16.238Z</time></trkpt><trkpt lat="46.106756" lon="13.5492326"><ele>512.6666666666666</ele><time>2026-04-24T13:34:17.237Z</time></trkpt><trkpt lat="46.106905" lon="13.5493014"><ele>509.3333333333333</ele><time>2026-04-24T13:34:18.236Z</time></trkpt><trkpt lat="46.107062" lon="13.5493584"><ele>506.0</ele><time>2026-04-24T13:34:19.237Z</time></trkpt><trkpt lat="46.1072244" lon="13.5493927"><ele>506.0</ele><time>2026-04-24T13:34:20.237Z</time></trkpt><trkpt lat="46.107393" lon="13.5494194"><ele>506.0</ele><time>2026-04-24T13:34:21.236Z</time></trkpt><trkpt lat="46.1075657" lon="13.5494403"><ele>506.0</ele><time>2026-04-24T13:34:22.237Z</time></trkpt><trkpt lat="46.1077356" lon="13.5494772"><ele>502.66666666666663</ele><time>2026-04-24T13:34:23.237Z</time></trkpt><trkpt lat="46.1079026" lon="13.5495085"><ele>499.33333333333337</ele><time>2026-04-24T13:34:24.238Z</time></trkpt><trkpt lat="46.1080683" lon="13.5495322"><ele>496.0</ele><time>2026-04-24T13:34:25.236Z</time></trkpt><trkpt lat="46.1082216" lon="13.5495373"><ele>495.25</ele><time>2026-04-24T13:34:26.236Z</time></trkpt><trkpt lat="46.1083661" lon="13.5495238"><ele>494.5</ele><time>2026-04-24T13:34:27.236Z</time></trkpt><trkpt lat="46.108502" lon="13.5494808"><ele>493.75</ele><time>2026-04-24T13:34:28.237Z</time></trkpt><trkpt lat="46.1086301" lon="13.5494091"><ele>493.0</ele><time>2026-04-24T13:34:29.238Z</time></trkpt><trkpt lat="46.1087517" lon="13.5493183"><ele>493.0</ele><time>2026-04-24T13:34:30.237Z</time></trkpt><trkpt lat="46.1088708" lon="13.5492253"><ele>493.0</ele><time>2026-04-24T13:34:31.237Z</time></trkpt><trkpt lat="46.1089842" lon="13.5491338"><ele>493.0</ele><time>2026-04-24T13:34:32.237Z</time></trkpt><trkpt lat="46.1090891" lon="13.5490655"><ele>493.0</ele><time>2026-04-24T13:34:33.237Z</time></trkpt><trkpt lat="46.1092002" lon="13.5490146"><ele>493.75</ele><time>2026-04-24T13:34:34.236Z</time></trkpt><trkpt lat="46.1093172" lon="13.5489981"><ele>494.5</ele><time>2026-04-24T13:34:35.236Z</time></trkpt><trkpt lat="46.1094391" lon="13.5489904"><ele>495.25</ele><time>2026-04-24T13:34:36.238Z</time></trkpt><trkpt lat="46.109568" lon="13.5490043"><ele>496.0</ele><time>2026-04-24T13:34:37.238Z</time></trkpt><trkpt lat="46.1097049" lon="13.5490273"><ele>496.0</ele><time>2026-04-24T13:34:38.237Z</time></trkpt><trkpt lat="46.1098361" lon="13.5490474"><ele>496.0</ele><time>2026-04-24T13:34:39.237Z</time></trkpt><trkpt lat="46.1099747" lon="13.5490799"><ele>496.0</ele><time>2026-04-24T13:34:40.237Z</time></trkpt><trkpt lat="46.1101131" lon="13.5491003"><ele>496.0</ele><time>2026-04-24T13:34:41.237Z</time></trkpt><trkpt lat="46.1102513" lon="13.5491271"><ele>493.25</ele><time>2026-04-24T13:34:42.237Z</time></trkpt><trkpt lat="46.1103794" lon="13.549145"><ele>490.5</ele><time>2026-04-24T13:34:43.236Z</time></trkpt><trkpt lat="46.1104913" lon="13.5491567"><ele>487.75</ele><time>2026-04-24T13:34:44.237Z</time></trkpt><trkpt lat="46.1105945" lon="13.5492095"><ele>485.0</ele><time>2026-04-24T13:34:45.236Z</time></trkpt><trkpt lat="46.1106957" lon="13.5492787"><ele>480.25</ele><time>2026-04-24T13:34:46.237Z</time></trkpt><trkpt lat="46.1108038" lon="13.5493474"><ele>475.5</ele><time>2026-04-24T13:34:47.237Z</time></trkpt><trkpt lat="46.110915" lon="13.549402"><ele>470.75</ele><time>2026-04-24T13:34:48.237Z</time></trkpt><trkpt lat="46.1110282" lon="13.5494225"><ele>466.0</ele><time>2026-04-24T13:34:49.237Z</time></trkpt><trkpt lat="46.111168" lon="13.549391"><ele>466.0</ele><time>2026-04-24T13:34:50.236Z</time></trkpt><trkpt lat="46.1112994" lon="13.5493319"><ele>466.0</ele><time>2026-04-24T13:34:51.238Z</time></trkpt><trkpt lat="46.1114351" lon="13.5493005"><ele>466.0</ele><time>2026-04-24T13:34:52.237Z</time></trkpt><trkpt lat="46.1115335" lon="13.5492903"><ele>466.0</ele><time>2026-04-24T13:34:53.237Z</time></trkpt><trkpt lat="46.1116611" lon="13.549269"><ele>463.4</ele><time>2026-04-24T13:34:54.238Z</time></trkpt><trkpt lat="46.1117816" lon="13.5492543"><ele>460.8</ele><time>2026-04-24T13:34:55.237Z</time></trkpt><trkpt lat="46.1118874" lon="13.5492593"><ele>458.19999999999993</ele><time>2026-04-24T13:34:56.238Z</time></trkpt><trkpt lat="46.1119649" lon="13.5493204"><ele>455.59999999999997</ele><time>2026-04-24T13:34:57.236Z</time></trkpt><trkpt lat="46.1120281" lon="13.5493405"><ele>453.0</ele><time>2026-04-24T13:34:58.237Z</time></trkpt><trkpt lat="46.1121263" lon="13.5492663"><ele>453.0</ele><time>2026-04-24T13:35:00.237Z</time></trkpt><trkpt lat="46.1121116" lon="13.5491417"><ele>453.0</ele><time>2026-04-24T13:35:02.237Z</time></trkpt><trkpt lat="46.1120614" lon="13.5490827"><ele>453.0</ele><time>2026-04-24T13:35:03.236Z</time></trkpt><trkpt lat="46.1119937" lon="13.5490061"><ele>453.0</ele><time>2026-04-24T13:35:04.236Z</time></trkpt><trkpt lat="46.1119199" lon="13.5489217"><ele>453.0</ele><time>2026-04-24T13:35:05.237Z</time></trkpt><trkpt lat="46.1118442" lon="13.5488427"><ele>453.0</ele><time>2026-04-24T13:35:06.237Z</time></trkpt><trkpt lat="46.1117702" lon="13.54879"><ele>453.0</ele><time>2026-04-24T13:35:07.237Z</time></trkpt><trkpt lat="46.1116918" lon="13.5487682"><ele>453.0</ele><time>2026-04-24T13:35:08.237Z</time></trkpt><trkpt lat="46.1116092" lon="13.548795"><ele>453.0</ele><time>2026-04-24T13:35:09.236Z</time></trkpt><trkpt lat="46.1115291" lon="13.5488074"><ele>453.0</ele><time>2026-04-24T13:35:10.237Z</time></trkpt><trkpt lat="46.1114607" lon="13.54881"><ele>453.0</ele><time>2026-04-24T13:35:11.238Z</time></trkpt><trkpt lat="46.1113437" lon="13.5487548"><ele>453.0</ele><time>2026-04-24T13:35:13.238Z</time></trkpt><trkpt lat="46.1113164" lon="13.5486544"><ele>451.0</ele><time>2026-04-24T13:35:14.237Z</time></trkpt><trkpt lat="46.1112904" lon="13.5484766"><ele>449.0</ele><time>2026-04-24T13:35:16.236Z</time></trkpt><trkpt lat="46.1112838" lon="13.5483805"><ele>447.0</ele><time>2026-04-24T13:35:17.236Z</time></trkpt><trkpt lat="46.1112993" lon="13.5482145"><ele>445.0</ele><time>2026-04-24T13:35:19.237Z</time></trkpt><trkpt lat="46.1113302" lon="13.5481298"><ele>443.0</ele><time>2026-04-24T13:35:20.236Z</time></trkpt><trkpt lat="46.1113668" lon="13.548051"><ele>441.0</ele><time>2026-04-24T13:35:21.238Z</time></trkpt><trkpt lat="46.1114071" lon="13.5479693"><ele>441.0</ele><time>2026-04-24T13:35:22.237Z</time></trkpt><trkpt lat="46.1114593" lon="13.5478954"><ele>441.0</ele><time>2026-04-24T13:35:23.237Z</time></trkpt><trkpt lat="46.1115186" lon="13.5478314"><ele>441.0</ele><time>2026-04-24T13:35:24.237Z</time></trkpt><trkpt lat="46.111583" lon="13.547781"><ele>441.0</ele><time>2026-04-24T13:35:25.236Z</time></trkpt><trkpt lat="46.1116457" lon="13.5477279"><ele>441.0</ele><time>2026-04-24T13:35:26.236Z</time></trkpt><trkpt lat="46.1117093" lon="13.5476701"><ele>441.0</ele><time>2026-04-24T13:35:27.237Z</time></trkpt><trkpt lat="46.1117709" lon="13.5476019"><ele>441.0</ele><time>2026-04-24T13:35:28.236Z</time></trkpt><trkpt lat="46.1118266" lon="13.5475238"><ele>438.6666666666667</ele><time>2026-04-24T13:35:29.236Z</time></trkpt><trkpt lat="46.1118849" lon="13.5474452"><ele>436.33333333333337</ele><time>2026-04-24T13:35:30.237Z</time></trkpt><trkpt lat="46.1119395" lon="13.5473645"><ele>434.0</ele><time>2026-04-24T13:35:31.237Z</time></trkpt><trkpt lat="46.1119946" lon="13.5472823"><ele>431.6666666666667</ele><time>2026-04-24T13:35:32.236Z</time></trkpt><trkpt lat="46.1120558" lon="13.5472027"><ele>429.33333333333337</ele><time>2026-04-24T13:35:33.237Z</time></trkpt><trkpt lat="46.1121176" lon="13.5471214"><ele>427.0</ele><time>2026-04-24T13:35:34.238Z</time></trkpt><trkpt lat="46.1121792" lon="13.5470348"><ele>426.14285714285717</ele><time>2026-04-24T13:35:35.238Z</time></trkpt><trkpt lat="46.1122351" lon="13.5469443"><ele>425.2857142857143</ele><time>2026-04-24T13:35:36.237Z</time></trkpt><trkpt lat="46.1122751" lon="13.5468535"><ele>424.42857142857144</ele><time>2026-04-24T13:35:37.238Z</time></trkpt><trkpt lat="46.1123101" lon="13.5467669"><ele>423.57142857142856</ele><time>2026-04-24T13:35:38.237Z</time></trkpt><trkpt lat="46.1123428" lon="13.5466773"><ele>422.7142857142857</ele><time>2026-04-24T13:35:39.237Z</time></trkpt><trkpt lat="46.1123805" lon="13.5465926"><ele>421.8571428571429</ele><time>2026-04-24T13:35:40.237Z</time></trkpt><trkpt lat="46.1124233" lon="13.5465157"><ele>421.0</ele><time>2026-04-24T13:35:41.238Z</time></trkpt><trkpt lat="46.1124674" lon="13.5464376"><ele>420.00000000000006</ele><time>2026-04-24T13:35:42.237Z</time></trkpt><trkpt lat="46.1125065" lon="13.5463555"><ele>419.0</ele><time>2026-04-24T13:35:43.237Z</time></trkpt><trkpt lat="46.1125508" lon="13.5462698"><ele>418.0</ele><time>2026-04-24T13:35:44.237Z</time></trkpt><trkpt lat="46.1125981" lon="13.5461875"><ele>417.0</ele><time>2026-04-24T13:35:45.238Z</time></trkpt><trkpt lat="46.1126425" lon="13.5460986"><ele>416.00000000000006</ele><time>2026-04-24T13:35:46.237Z</time></trkpt><trkpt lat="46.1126875" lon="13.5460074"><ele>415.0</ele><time>2026-04-24T13:35:47.237Z</time></trkpt><trkpt lat="46.1127423" lon="13.5459221"><ele>413.1666666666667</ele><time>2026-04-24T13:35:48.237Z</time></trkpt><trkpt lat="46.1128049" lon="13.5458415"><ele>411.33333333333337</ele><time>2026-04-24T13:35:49.237Z</time></trkpt><trkpt lat="46.1128697" lon="13.5457644"><ele>409.5</ele><time>2026-04-24T13:35:50.238Z</time></trkpt><trkpt lat="46.1129416" lon="13.5456909"><ele>407.66666666666663</ele><time>2026-04-24T13:35:51.237Z</time></trkpt><trkpt lat="46.1130144" lon="13.545618"><ele>405.8333333333333</ele><time>2026-04-24T13:35:52.238Z</time></trkpt><trkpt lat="46.1130932" lon="13.5455471"><ele>404.0</ele><time>2026-04-24T13:35:53.237Z</time></trkpt><trkpt lat="46.1131792" lon="13.5454904"><ele>403.99999999999994</ele><time>2026-04-24T13:35:54.236Z</time></trkpt><trkpt lat="46.1132648" lon="13.5454558"><ele>404.0</ele><time>2026-04-24T13:35:55.236Z</time></trkpt><trkpt lat="46.1133508" lon="13.5454313"><ele>404.0</ele><time>2026-04-24T13:35:56.237Z</time></trkpt><trkpt lat="46.113432" lon="13.5453874"><ele>404.0</ele><time>2026-04-24T13:35:57.238Z</time></trkpt><trkpt lat="46.1135038" lon="13.5453122"><ele>403.99999999999994</ele><time>2026-04-24T13:35:58.236Z</time></trkpt><trkpt lat="46.1135614" lon="13.5452025"><ele>404.0</ele><time>2026-04-24T13:35:59.236Z</time></trkpt><trkpt lat="46.1135975" lon="13.545063"><ele>401.25</ele><time>2026-04-24T13:36:00.237Z</time></trkpt><trkpt lat="46.1136236" lon="13.5449173"><ele>398.5</ele><time>2026-04-24T13:36:01.237Z</time></trkpt><trkpt lat="46.1136479" lon="13.5447607"><ele>395.75</ele><time>2026-04-24T13:36:02.238Z</time></trkpt><trkpt lat="46.1136797" lon="13.5445969"><ele>393.0</ele><time>2026-04-24T13:36:03.237Z</time></trkpt><trkpt lat="46.1137185" lon="13.5444374"><ele>391.0</ele><time>2026-04-24T13:36:04.236Z</time></trkpt><trkpt lat="46.113758" lon="13.5442775"><ele>389.0</ele><time>2026-04-24T13:36:05.237Z</time></trkpt><trkpt lat="46.1138024" lon="13.5441178"><ele>387.0</ele><time>2026-04-24T13:36:06.237Z</time></trkpt><trkpt lat="46.1138545" lon="13.5439665"><ele>385.0</ele><time>2026-04-24T13:36:07.237Z</time></trkpt><trkpt lat="46.1139191" lon="13.5438295"><ele>382.75</ele><time>2026-04-24T13:36:08.237Z</time></trkpt><trkpt lat="46.1139926" lon="13.5436916"><ele>380.5</ele><time>2026-04-24T13:36:09.236Z</time></trkpt><trkpt lat="46.1140659" lon="13.5435585"><ele>378.25</ele><time>2026-04-24T13:36:10.237Z</time></trkpt><trkpt lat="46.1141392" lon="13.5434231"><ele>376.0</ele><time>2026-04-24T13:36:11.237Z</time></trkpt><trkpt lat="46.1142121" lon="13.5432948"><ele>376.0</ele><time>2026-04-24T13:36:12.237Z</time></trkpt><trkpt lat="46.1142811" lon="13.5431604"><ele>376.0</ele><time>2026-04-24T13:36:13.237Z</time></trkpt><trkpt lat="46.1143527" lon="13.5430391"><ele>376.0</ele><time>2026-04-24T13:36:14.237Z</time></trkpt><trkpt lat="46.1144247" lon="13.54292"><ele>376.0</ele><time>2026-04-24T13:36:15.238Z</time></trkpt><trkpt lat="46.1144933" lon="13.5427934"><ele>376.0</ele><time>2026-04-24T13:36:16.236Z</time></trkpt><trkpt lat="46.1145586" lon="13.5426667"><ele>375.8</ele><time>2026-04-24T13:36:17.236Z</time></trkpt><trkpt lat="46.1146261" lon="13.542546"><ele>375.6</ele><time>2026-04-24T13:36:18.236Z</time></trkpt><trkpt lat="46.1146939" lon="13.5424256"><ele>375.4</ele><time>2026-04-24T13:36:19.238Z</time></trkpt><trkpt lat="46.114761" lon="13.5423113"><ele>375.2</ele><time>2026-04-24T13:36:20.237Z</time></trkpt><trkpt lat="46.1148261" lon="13.5421943"><ele>375.0</ele><time>2026-04-24T13:36:21.238Z</time></trkpt><trkpt lat="46.1148862" lon="13.5420806"><ele>375.0</ele><time>2026-04-24T13:36:22.238Z</time></trkpt><trkpt lat="46.1149283" lon="13.5419662"><ele>375.0</ele><time>2026-04-24T13:36:23.237Z</time></trkpt><trkpt lat="46.1149473" lon="13.5418437"><ele>375.0</ele><time>2026-04-24T13:36:24.237Z</time></trkpt><trkpt lat="46.1149455" lon="13.5417162"><ele>375.0</ele><time>2026-04-24T13:36:25.237Z</time></trkpt><trkpt lat="46.1149296" lon="13.5415839"><ele>375.0</ele><time>2026-04-24T13:36:26.238Z</time></trkpt><trkpt lat="46.1149087" lon="13.5414474"><ele>373.6</ele><time>2026-04-24T13:36:27.236Z</time></trkpt><trkpt lat="46.1148869" lon="13.5413117"><ele>372.2</ele><time>2026-04-24T13:36:28.238Z</time></trkpt><trkpt lat="46.1148779" lon="13.5411753"><ele>370.79999999999995</ele><time>2026-04-24T13:36:29.238Z</time></trkpt><trkpt lat="46.1148834" lon="13.5410377"><ele>369.4</ele><time>2026-04-24T13:36:30.238Z</time></trkpt><trkpt lat="46.1149039" lon="13.5408994"><ele>368.0</ele><time>2026-04-24T13:36:31.238Z</time></trkpt><trkpt lat="46.1149338" lon="13.5407627"><ele>368.0</ele><time>2026-04-24T13:36:32.236Z</time></trkpt><trkpt lat="46.1149727" lon="13.5406255"><ele>368.0</ele><time>2026-04-24T13:36:33.236Z</time></trkpt><trkpt lat="46.1150111" lon="13.540497"><ele>368.0</ele><time>2026-04-24T13:36:34.236Z</time></trkpt><trkpt lat="46.1150409" lon="13.5403861"><ele>368.0</ele><time>2026-04-24T13:36:35.236Z</time></trkpt><trkpt lat="46.115054" lon="13.5402819"><ele>368.0</ele><time>2026-04-24T13:36:36.237Z</time></trkpt><trkpt lat="46.1150024" lon="13.5401199"><ele>366.2</ele><time>2026-04-24T13:36:38.237Z</time></trkpt><trkpt lat="46.1149469" lon="13.5400659"><ele>364.4</ele><time>2026-04-24T13:36:39.238Z</time></trkpt><trkpt lat="46.1148858" lon="13.5400304"><ele>362.59999999999997</ele><time>2026-04-24T13:36:40.236Z</time></trkpt><trkpt lat="46.114795" lon="13.540094"><ele>360.79999999999995</ele><time>2026-04-24T13:36:41.237Z</time></trkpt><trkpt lat="46.1147018" lon="13.540175"><ele>359.0</ele><time>2026-04-24T13:36:42.237Z</time></trkpt><trkpt lat="46.1146382" lon="13.5403089"><ele>357.6666666666667</ele><time>2026-04-24T13:36:43.237Z</time></trkpt><trkpt lat="46.1145957" lon="13.5404114"><ele>356.33333333333337</ele><time>2026-04-24T13:36:44.238Z</time></trkpt><trkpt lat="46.1145441" lon="13.540531"><ele>355.0</ele><time>2026-04-24T13:36:45.237Z</time></trkpt><trkpt lat="46.1145008" lon="13.5406058"><ele>353.6666666666667</ele><time>2026-04-24T13:36:46.237Z</time></trkpt><trkpt lat="46.1144684" lon="13.5406837"><ele>352.3333333333333</ele><time>2026-04-24T13:36:47.238Z</time></trkpt><trkpt lat="46.1144379" lon="13.5405065"><ele>351.0</ele><time>2026-04-24T13:36:50.237Z</time></trkpt><trkpt lat="46.1144381" lon="13.5403597"><ele>348.5</ele><time>2026-04-24T13:36:51.237Z</time></trkpt><trkpt lat="46.1144292" lon="13.5402101"><ele>346.0</ele><time>2026-04-24T13:36:52.237Z</time></trkpt><trkpt lat="46.1144221" lon="13.540041"><ele>343.5</ele><time>2026-04-24T13:36:53.236Z</time></trkpt><trkpt lat="46.1144021" lon="13.5398684"><ele>341.0</ele><time>2026-04-24T13:36:54.237Z</time></trkpt><trkpt lat="46.1143874" lon="13.5396975"><ele>338.4</ele><time>2026-04-24T13:36:55.237Z</time></trkpt><trkpt lat="46.1143717" lon="13.5395211"><ele>335.8</ele><time>2026-04-24T13:36:56.237Z</time></trkpt><trkpt lat="46.1143542" lon="13.5393576"><ele>333.2</ele><time>2026-04-24T13:36:57.236Z</time></trkpt><trkpt lat="46.114346" lon="13.5392101"><ele>330.59999999999997</ele><time>2026-04-24T13:36:58.237Z</time></trkpt><trkpt lat="46.1143431" lon="13.5390794"><ele>328.0</ele><time>2026-04-24T13:36:59.238Z</time></trkpt><trkpt lat="46.1143309" lon="13.5389418"><ele>328.0</ele><time>2026-04-24T13:37:00.236Z</time></trkpt><trkpt lat="46.1143462" lon="13.5387977"><ele>328.0</ele><time>2026-04-24T13:37:01.238Z</time></trkpt><trkpt lat="46.1143772" lon="13.5386554"><ele>328.0</ele><time>2026-04-24T13:37:02.238Z</time></trkpt><trkpt lat="46.1144149" lon="13.5385129"><ele>328.0</ele><time>2026-04-24T13:37:03.237Z</time></trkpt><trkpt lat="46.1144706" lon="13.5383841"><ele>328.0</ele><time>2026-04-24T13:37:04.238Z</time></trkpt><trkpt lat="46.1145196" lon="13.5382636"><ele>328.79999999999995</ele><time>2026-04-24T13:37:05.236Z</time></trkpt><trkpt lat="46.1145761" lon="13.5381708"><ele>329.6</ele><time>2026-04-24T13:37:06.237Z</time></trkpt><trkpt lat="46.1146891" lon="13.5381888"><ele>330.4</ele><time>2026-04-24T13:37:07.238Z</time></trkpt><trkpt lat="46.1147694" lon="13.5381516"><ele>331.20000000000005</ele><time>2026-04-24T13:37:08.236Z</time></trkpt><trkpt lat="46.1148784" lon="13.5382214"><ele>332.0</ele><time>2026-04-24T13:37:09.237Z</time></trkpt><trkpt lat="46.1149761" lon="13.5382421"><ele>332.0</ele><time>2026-04-24T13:37:10.238Z</time></trkpt><trkpt lat="46.115079" lon="13.5382542"><ele>332.0</ele><time>2026-04-24T13:37:11.236Z</time></trkpt><trkpt lat="46.1151826" lon="13.5382357"><ele>332.0</ele><time>2026-04-24T13:37:12.237Z</time></trkpt><trkpt lat="46.1152792" lon="13.5382202"><ele>332.0</ele><time>2026-04-24T13:37:13.237Z</time></trkpt><trkpt lat="46.1153709" lon="13.5381826"><ele>332.0</ele><time>2026-04-24T13:37:14.236Z</time></trkpt><trkpt lat="46.1154639" lon="13.538163"><ele>332.0</ele><time>2026-04-24T13:37:15.236Z</time></trkpt><trkpt lat="46.1155606" lon="13.5381493"><ele>332.0</ele><time>2026-04-24T13:37:16.235Z</time></trkpt><trkpt lat="46.1156665" lon="13.5381726"><ele>332.0</ele><time>2026-04-24T13:37:17.236Z</time></trkpt><trkpt lat="46.1157717" lon="13.5381994"><ele>332.0</ele><time>2026-04-24T13:37:18.236Z</time></trkpt><trkpt lat="46.115879" lon="13.5382589"><ele>332.0</ele><time>2026-04-24T13:37:19.236Z</time></trkpt><trkpt lat="46.1159772" lon="13.5383574"><ele>332.5</ele><time>2026-04-24T13:37:20.236Z</time></trkpt><trkpt lat="46.1160554" lon="13.5384555"><ele>333.0</ele><time>2026-04-24T13:37:21.236Z</time></trkpt><trkpt lat="46.1161206" lon="13.5385659"><ele>333.5</ele><time>2026-04-24T13:37:22.236Z</time></trkpt><trkpt lat="46.1161731" lon="13.5386562"><ele>334.0</ele><time>2026-04-24T13:37:23.235Z</time></trkpt><trkpt lat="46.1162149" lon="13.5387297"><ele>334.5</ele><time>2026-04-24T13:37:24.235Z</time></trkpt><trkpt lat="46.1163042" lon="13.5387549"><ele>335.0</ele><time>2026-04-24T13:37:26.235Z</time></trkpt><trkpt lat="46.1163444" lon="13.5386257"><ele>330.5</ele><time>2026-04-24T13:37:28.236Z</time></trkpt><trkpt lat="46.1163372" lon="13.5385333"><ele>326.0</ele><time>2026-04-24T13:37:29.237Z</time></trkpt><trkpt lat="46.1162878" lon="13.5383998"><ele>321.5</ele><time>2026-04-24T13:37:30.237Z</time></trkpt><trkpt lat="46.1161839" lon="13.5381882"><ele>317.0</ele><time>2026-04-24T13:37:31.235Z</time></trkpt><trkpt lat="46.1161288" lon="13.5380219"><ele>313.2</ele><time>2026-04-24T13:37:32.235Z</time></trkpt><trkpt lat="46.1160611" lon="13.537874"><ele>309.4</ele><time>2026-04-24T13:37:33.236Z</time></trkpt><trkpt lat="46.1160046" lon="13.5377228"><ele>305.6</ele><time>2026-04-24T13:37:34.237Z</time></trkpt><trkpt lat="46.1159356" lon="13.5376765"><ele>301.8</ele><time>2026-04-24T13:37:35.236Z</time></trkpt><trkpt lat="46.1158886" lon="13.5375992"><ele>298.0</ele><time>2026-04-24T13:37:36.237Z</time></trkpt><trkpt lat="46.1159577" lon="13.5375033"><ele>298.0</ele><time>2026-04-24T13:37:37.236Z</time></trkpt><trkpt lat="46.1160446" lon="13.5374331"><ele>298.0</ele><time>2026-04-24T13:37:39.236Z</time></trkpt><trkpt lat="46.1161683" lon="13.5376072"><ele>298.0</ele><time>2026-04-24T13:37:41.235Z</time></trkpt><trkpt lat="46.1162273" lon="13.5376908"><ele>298.0</ele><time>2026-04-24T13:37:42.236Z</time></trkpt><trkpt lat="46.1163122" lon="13.53779"><ele>296.5</ele><time>2026-04-24T13:37:43.235Z</time></trkpt><trkpt lat="46.1164564" lon="13.5379154"><ele>295.0</ele><time>2026-04-24T13:37:44.235Z</time></trkpt><trkpt lat="46.1165393" lon="13.5379959"><ele>293.5</ele><time>2026-04-24T13:37:45.236Z</time></trkpt><trkpt lat="46.1166292" lon="13.5380703"><ele>292.0</ele><time>2026-04-24T13:37:46.237Z</time></trkpt><trkpt lat="46.116703" lon="13.538014"><ele>292.0</ele><time>2026-04-24T13:37:47.235Z</time></trkpt><trkpt lat="46.116785" lon="13.5379597"><ele>292.0</ele><time>2026-04-24T13:37:48.235Z</time></trkpt><trkpt lat="46.1168647" lon="13.5378992"><ele>292.0</ele><time>2026-04-24T13:37:49.236Z</time></trkpt><trkpt lat="46.1169232" lon="13.5378241"><ele>292.0</ele><time>2026-04-24T13:37:50.237Z</time></trkpt><trkpt lat="46.1169716" lon="13.5377535"><ele>292.0</ele><time>2026-04-24T13:37:51.236Z</time></trkpt><trkpt lat="46.1169959" lon="13.5376345"><ele>292.0</ele><time>2026-04-24T13:37:52.236Z</time></trkpt><trkpt lat="46.1168389" lon="13.5375192"><ele>293.0</ele><time>2026-04-24T13:37:54.236Z</time></trkpt><trkpt lat="46.1167647" lon="13.5374588"><ele>294.0</ele><time>2026-04-24T13:37:55.236Z</time></trkpt><trkpt lat="46.1166617" lon="13.5373995"><ele>295.0</ele><time>2026-04-24T13:37:56.236Z</time></trkpt><trkpt lat="46.1165807" lon="13.5373437"><ele>296.0</ele><time>2026-04-24T13:37:57.235Z</time></trkpt><trkpt lat="46.1165122" lon="13.5372861"><ele>297.0</ele><time>2026-04-24T13:37:58.236Z</time></trkpt><trkpt lat="46.1164502" lon="13.537204"><ele>298.0</ele><time>2026-04-24T13:37:59.237Z</time></trkpt><trkpt lat="46.1163983" lon="13.5370908"><ele>290.75</ele><time>2026-04-24T13:38:01.235Z</time></trkpt><trkpt lat="46.1165052" lon="13.5369908"><ele>283.5</ele><time>2026-04-24T13:38:02.236Z</time></trkpt><trkpt lat="46.1165619" lon="13.5369323"><ele>276.25</ele><time>2026-04-24T13:38:03.236Z</time></trkpt><trkpt lat="46.1167955" lon="13.5369322"><ele>269.0</ele><time>2026-04-24T13:38:04.236Z</time></trkpt><trkpt lat="46.1169001" lon="13.5368491"><ele>267.8</ele><time>2026-04-24T13:38:05.237Z</time></trkpt><trkpt lat="46.1170185" lon="13.5367761"><ele>266.59999999999997</ele><time>2026-04-24T13:38:06.236Z</time></trkpt><trkpt lat="46.1171314" lon="13.5367109"><ele>265.4</ele><time>2026-04-24T13:38:07.236Z</time></trkpt><trkpt lat="46.1172288" lon="13.5366637"><ele>264.2</ele><time>2026-04-24T13:38:08.237Z</time></trkpt><trkpt lat="46.1173178" lon="13.536642"><ele>263.0</ele><time>2026-04-24T13:38:09.237Z</time></trkpt><trkpt lat="46.117401" lon="13.5366782"><ele>262.2</ele><time>2026-04-24T13:38:10.236Z</time></trkpt><trkpt lat="46.1175017" lon="13.5367233"><ele>261.4</ele><time>2026-04-24T13:38:11.237Z</time></trkpt><trkpt lat="46.1175844" lon="13.5368344"><ele>260.59999999999997</ele><time>2026-04-24T13:38:12.236Z</time></trkpt><trkpt lat="46.1176624" lon="13.5369361"><ele>259.8</ele><time>2026-04-24T13:38:13.236Z</time></trkpt><trkpt lat="46.1177146" lon="13.5370325"><ele>259.0</ele><time>2026-04-24T13:38:14.236Z</time></trkpt><trkpt lat="46.1177686" lon="13.5371212"><ele>259.0</ele><time>2026-04-24T13:38:15.235Z</time></trkpt><trkpt lat="46.1178298" lon="13.5371997"><ele>259.0</ele><time>2026-04-24T13:38:16.237Z</time></trkpt><trkpt lat="46.1178676" lon="13.5370382"><ele>259.0</ele><time>2026-04-24T13:38:17.235Z</time></trkpt><trkpt lat="46.1179124" lon="13.5369395"><ele>259.0</ele><time>2026-04-24T13:38:19.236Z</time></trkpt><trkpt lat="46.1179443" lon="13.5368344"><ele>259.0</ele><time>2026-04-24T13:38:20.236Z</time></trkpt><trkpt lat="46.117957" lon="13.5366646"><ele>259.0</ele><time>2026-04-24T13:38:21.235Z</time></trkpt><trkpt lat="46.1179086" lon="13.5364623"><ele>259.0</ele><time>2026-04-24T13:38:22.236Z</time></trkpt><trkpt lat="46.1179183" lon="13.5362883"><ele>259.0</ele><time>2026-04-24T13:38:23.235Z</time></trkpt><trkpt lat="46.1179047" lon="13.5361187"><ele>259.0</ele><time>2026-04-24T13:38:24.236Z</time></trkpt><trkpt lat="46.117898" lon="13.5359511"><ele>256.25</ele><time>2026-04-24T13:38:25.236Z</time></trkpt><trkpt lat="46.11781" lon="13.5357493"><ele>253.5</ele><time>2026-04-24T13:38:26.235Z</time></trkpt><trkpt lat="46.1177959" lon="13.5355738"><ele>250.75</ele><time>2026-04-24T13:38:27.236Z</time></trkpt><trkpt lat="46.1178028" lon="13.535421"><ele>248.0</ele><time>2026-04-24T13:38:28.235Z</time></trkpt><trkpt lat="46.1178043" lon="13.5352807"><ele>246.00000000000003</ele><time>2026-04-24T13:38:29.236Z</time></trkpt><trkpt lat="46.1177585" lon="13.5351843"><ele>244.0</ele><time>2026-04-24T13:38:30.236Z</time></trkpt><trkpt lat="46.1177194" lon="13.5350757"><ele>242.0</ele><time>2026-04-24T13:38:31.236Z</time></trkpt><trkpt lat="46.1176449" lon="13.5350529"><ele>240.0</ele><time>2026-04-24T13:38:32.236Z</time></trkpt><trkpt lat="46.1175665" lon="13.5350346"><ele>238.00000000000003</ele><time>2026-04-24T13:38:33.236Z</time></trkpt><trkpt lat="46.1174644" lon="13.5350681"><ele>236.0</ele><time>2026-04-24T13:38:34.236Z</time></trkpt><trkpt lat="46.1172834" lon="13.5350879"><ele>233.75</ele><time>2026-04-24T13:38:35.236Z</time></trkpt><trkpt lat="46.1171498" lon="13.5350937"><ele>231.5</ele><time>2026-04-24T13:38:36.237Z</time></trkpt><trkpt lat="46.1170137" lon="13.5350512"><ele>229.25</ele><time>2026-04-24T13:38:37.236Z</time></trkpt><trkpt lat="46.1168748" lon="13.535036"><ele>227.0</ele><time>2026-04-24T13:38:38.235Z</time></trkpt><trkpt lat="46.1167391" lon="13.5350464"><ele>227.0</ele><time>2026-04-24T13:38:39.236Z</time></trkpt><trkpt lat="46.1166265" lon="13.5351093"><ele>227.0</ele><time>2026-04-24T13:38:40.236Z</time></trkpt><trkpt lat="46.1165093" lon="13.5352138"><ele>227.0</ele><time>2026-04-24T13:38:41.236Z</time></trkpt><trkpt lat="46.116394" lon="13.5352858"><ele>227.0</ele><time>2026-04-24T13:38:42.236Z</time></trkpt><trkpt lat="46.1162799" lon="13.5353629"><ele>229.75</ele><time>2026-04-24T13:38:43.236Z</time></trkpt><trkpt lat="46.1161563" lon="13.5354009"><ele>232.5</ele><time>2026-04-24T13:38:44.236Z</time></trkpt><trkpt lat="46.1160025" lon="13.5354423"><ele>235.25</ele><time>2026-04-24T13:38:45.237Z</time></trkpt><trkpt lat="46.1158882" lon="13.5354681"><ele>238.0</ele><time>2026-04-24T13:38:46.236Z</time></trkpt><trkpt lat="46.1157833" lon="13.5354987"><ele>238.60000000000002</ele><time>2026-04-24T13:38:47.237Z</time></trkpt><trkpt lat="46.1156811" lon="13.5355052"><ele>239.20000000000002</ele><time>2026-04-24T13:38:48.236Z</time></trkpt><trkpt lat="46.1155524" lon="13.5354032"><ele>239.8</ele><time>2026-04-24T13:38:50.235Z</time></trkpt><trkpt lat="46.1154872" lon="13.535295"><ele>240.4</ele><time>2026-04-24T13:38:51.236Z</time></trkpt><trkpt lat="46.1154614" lon="13.535165"><ele>241.0</ele><time>2026-04-24T13:38:52.235Z</time></trkpt><trkpt lat="46.1154587" lon="13.5350354"><ele>233.0</ele><time>2026-04-24T13:38:53.236Z</time></trkpt><trkpt lat="46.1153262" lon="13.5349404"><ele>225.0</ele><time>2026-04-24T13:38:55.237Z</time></trkpt><trkpt lat="46.1152117" lon="13.5348947"><ele>217.0</ele><time>2026-04-24T13:38:56.236Z</time></trkpt><trkpt lat="46.1150758" lon="13.5349471"><ele>209.0</ele><time>2026-04-24T13:38:57.237Z</time></trkpt><trkpt lat="46.1149451" lon="13.5349382"><ele>208.0</ele><time>2026-04-24T13:38:58.237Z</time></trkpt><trkpt lat="46.1148027" lon="13.5349775"><ele>207.0</ele><time>2026-04-24T13:38:59.235Z</time></trkpt><trkpt lat="46.1146651" lon="13.5349928"><ele>206.0</ele><time>2026-04-24T13:39:00.236Z</time></trkpt><trkpt lat="46.114535" lon="13.5350253"><ele>205.0</ele><time>2026-04-24T13:39:01.236Z</time></trkpt><trkpt lat="46.1143941" lon="13.5350285"><ele>205.0</ele><time>2026-04-24T13:39:02.236Z</time></trkpt><trkpt lat="46.1142661" lon="13.5350748"><ele>205.0</ele><time>2026-04-24T13:39:03.236Z</time></trkpt><trkpt lat="46.1141304" lon="13.5350934"><ele>205.0</ele><time>2026-04-24T13:39:04.237Z</time></trkpt><trkpt lat="46.1140572" lon="13.535131"><ele>205.0</ele><time>2026-04-24T13:39:05.236Z</time></trkpt><trkpt lat="46.113953" lon="13.5351573"><ele>205.4</ele><time>2026-04-24T13:39:06.235Z</time></trkpt><trkpt lat="46.1138801" lon="13.5351696"><ele>205.8</ele><time>2026-04-24T13:39:07.235Z</time></trkpt><trkpt lat="46.1138084" lon="13.535132"><ele>206.2</ele><time>2026-04-24T13:39:08.236Z</time></trkpt><trkpt lat="46.1137997" lon="13.5349466"><ele>206.6</ele><time>2026-04-24T13:39:10.236Z</time></trkpt><trkpt lat="46.1138959" lon="13.5348111"><ele>207.0</ele><time>2026-04-24T13:39:11.235Z</time></trkpt><trkpt lat="46.1140069" lon="13.5346934"><ele>206.33333333333331</ele><time>2026-04-24T13:39:12.236Z</time></trkpt><trkpt lat="46.1141408" lon="13.5345685"><ele>205.66666666666666</ele><time>2026-04-24T13:39:13.236Z</time></trkpt><trkpt lat="46.1142547" lon="13.5344308"><ele>205.0</ele><time>2026-04-24T13:39:14.235Z</time></trkpt><trkpt lat="46.1143728" lon="13.5342695"><ele>203.0</ele><time>2026-04-24T13:39:15.236Z</time></trkpt><trkpt lat="46.114507" lon="13.5341276"><ele>201.0</ele><time>2026-04-24T13:39:16.236Z</time></trkpt><trkpt lat="46.114645" lon="13.5339994"><ele>199.0</ele><time>2026-04-24T13:39:17.236Z</time></trkpt><trkpt lat="46.1147753" lon="13.5338488"><ele>200.66666666666666</ele><time>2026-04-24T13:39:18.235Z</time></trkpt><trkpt lat="46.1149001" lon="13.5336945"><ele>202.33333333333331</ele><time>2026-04-24T13:39:19.235Z</time></trkpt><trkpt lat="46.115023" lon="13.5335416"><ele>204.0</ele><time>2026-04-24T13:39:20.237Z</time></trkpt><trkpt lat="46.1151388" lon="13.5334035"><ele>200.0</ele><time>2026-04-24T13:39:21.236Z</time></trkpt><trkpt lat="46.1152551" lon="13.5332848"><ele>196.0</ele><time>2026-04-24T13:39:22.235Z</time></trkpt><trkpt lat="46.1153769" lon="13.5331795"><ele>192.0</ele><time>2026-04-24T13:39:23.236Z</time></trkpt><trkpt lat="46.1155142" lon="13.5330989"><ele>188.0</ele><time>2026-04-24T13:39:24.236Z</time></trkpt><trkpt lat="46.1156554" lon="13.5330321"><ele>186.0</ele><time>2026-04-24T13:39:25.235Z</time></trkpt><trkpt lat="46.1157927" lon="13.5329802"><ele>184.0</ele><time>2026-04-24T13:39:26.236Z</time></trkpt><trkpt lat="46.1159324" lon="13.5329466"><ele>182.0</ele><time>2026-04-24T13:39:27.236Z</time></trkpt><trkpt lat="46.1160587" lon="13.5329037"><ele>180.0</ele><time>2026-04-24T13:39:28.235Z</time></trkpt><trkpt lat="46.116169" lon="13.5328225"><ele>179.75</ele><time>2026-04-24T13:39:29.236Z</time></trkpt><trkpt lat="46.1162668" lon="13.532718"><ele>179.5</ele><time>2026-04-24T13:39:30.236Z</time></trkpt><trkpt lat="46.1163639" lon="13.5326184"><ele>179.25</ele><time>2026-04-24T13:39:31.236Z</time></trkpt><trkpt lat="46.1164508" lon="13.5325027"><ele>179.0</ele><time>2026-04-24T13:39:32.236Z</time></trkpt><trkpt lat="46.1165004" lon="13.5323464"><ele>178.2</ele><time>2026-04-24T13:39:33.237Z</time></trkpt><trkpt lat="46.1165738" lon="13.5322203"><ele>177.39999999999998</ele><time>2026-04-24T13:39:34.236Z</time></trkpt><trkpt lat="46.1166403" lon="13.5320868"><ele>176.6</ele><time>2026-04-24T13:39:35.235Z</time></trkpt><trkpt lat="46.1167426" lon="13.5320143"><ele>175.8</ele><time>2026-04-24T13:39:36.236Z</time></trkpt><trkpt lat="46.1168454" lon="13.5320138"><ele>175.0</ele><time>2026-04-24T13:39:37.236Z</time></trkpt><trkpt lat="46.117001" lon="13.5320955"><ele>175.0</ele><time>2026-04-24T13:39:38.236Z</time></trkpt><trkpt lat="46.1171167" lon="13.5321151"><ele>175.0</ele><time>2026-04-24T13:39:39.235Z</time></trkpt><trkpt lat="46.117226" lon="13.5321092"><ele>175.0</ele><time>2026-04-24T13:39:40.236Z</time></trkpt><trkpt lat="46.1173356" lon="13.5321089"><ele>175.0</ele><time>2026-04-24T13:39:41.236Z</time></trkpt><trkpt lat="46.1174281" lon="13.5320596"><ele>175.0</ele><time>2026-04-24T13:39:42.237Z</time></trkpt><trkpt lat="46.117511" lon="13.5320041"><ele>174.0</ele><time>2026-04-24T13:39:43.236Z</time></trkpt><trkpt lat="46.1175862" lon="13.5319383"><ele>173.0</ele><time>2026-04-24T13:39:44.236Z</time></trkpt><trkpt lat="46.117662" lon="13.5318588"><ele>172.0</ele><time>2026-04-24T13:39:45.237Z</time></trkpt><trkpt lat="46.117742" lon="13.5317773"><ele>171.0</ele><time>2026-04-24T13:39:46.236Z</time></trkpt><trkpt lat="46.1178335" lon="13.5317114"><ele>170.0</ele><time>2026-04-24T13:39:47.235Z</time></trkpt><trkpt lat="46.1179278" lon="13.5316505"><ele>170.0</ele><time>2026-04-24T13:39:48.236Z</time></trkpt><trkpt lat="46.1180233" lon="13.5316053"><ele>170.0</ele><time>2026-04-24T13:39:49.235Z</time></trkpt><trkpt lat="46.1181218" lon="13.5315709"><ele>170.0</ele><time>2026-04-24T13:39:50.236Z</time></trkpt><trkpt lat="46.1182165" lon="13.5315516"><ele>170.0</ele><time>2026-04-24T13:39:51.236Z</time></trkpt><trkpt lat="46.1183082" lon="13.5315293"><ele>170.0</ele><time>2026-04-24T13:39:52.236Z</time></trkpt><trkpt lat="46.1183983" lon="13.5315089"><ele>170.0</ele><time>2026-04-24T13:39:53.236Z</time></trkpt><trkpt lat="46.1184844" lon="13.5315054"><ele>170.0</ele><time>2026-04-24T13:39:54.236Z</time></trkpt><trkpt lat="46.1185618" lon="13.5315027"><ele>170.0</ele><time>2026-04-24T13:39:55.235Z</time></trkpt><trkpt lat="46.1186397" lon="13.5314763"><ele>170.0</ele><time>2026-04-24T13:39:56.236Z</time></trkpt><trkpt lat="46.1187141" lon="13.5314419"><ele>170.0</ele><time>2026-04-24T13:39:57.237Z</time></trkpt><trkpt lat="46.1187857" lon="13.5313949"><ele>170.0</ele><time>2026-04-24T13:39:58.235Z</time></trkpt><trkpt lat="46.1188536" lon="13.5313451"><ele>170.0</ele><time>2026-04-24T13:39:59.235Z</time></trkpt><trkpt lat="46.118919" lon="13.5313063"><ele>170.0</ele><time>2026-04-24T13:40:00.236Z</time></trkpt><trkpt lat="46.1189857" lon="13.5312675"><ele>170.0</ele><time>2026-04-24T13:40:01.237Z</time></trkpt><trkpt lat="46.119057" lon="13.5312203"><ele>170.0</ele><time>2026-04-24T13:40:02.236Z</time></trkpt><trkpt lat="46.1191287" lon="13.5311672"><ele>170.0</ele><time>2026-04-24T13:40:03.235Z</time></trkpt><trkpt lat="46.1191996" lon="13.531101"><ele>170.0</ele><time>2026-04-24T13:40:04.236Z</time></trkpt><trkpt lat="46.1192827" lon="13.5310482"><ele>169.4</ele><time>2026-04-24T13:40:05.236Z</time></trkpt><trkpt lat="46.1193653" lon="13.5310117"><ele>168.8</ele><time>2026-04-24T13:40:06.235Z</time></trkpt><trkpt lat="46.1194562" lon="13.5309999"><ele>168.2</ele><time>2026-04-24T13:40:07.236Z</time></trkpt><trkpt lat="46.1195483" lon="13.5309899"><ele>167.6</ele><time>2026-04-24T13:40:08.236Z</time></trkpt><trkpt lat="46.1196513" lon="13.5309856"><ele>167.0</ele><time>2026-04-24T13:40:09.236Z</time></trkpt><trkpt lat="46.1197632" lon="13.5309695"><ele>167.0</ele><time>2026-04-24T13:40:10.237Z</time></trkpt><trkpt lat="46.1198666" lon="13.5309405"><ele>167.0</ele><time>2026-04-24T13:40:11.234Z</time></trkpt><trkpt lat="46.1199732" lon="13.5309191"><ele>167.0</ele><time>2026-04-24T13:40:12.234Z</time></trkpt><trkpt lat="46.1200806" lon="13.5308935"><ele>167.0</ele><time>2026-04-24T13:40:13.234Z</time></trkpt><trkpt lat="46.1201907" lon="13.5308687"><ele>167.0</ele><time>2026-04-24T13:40:14.235Z</time></trkpt><trkpt lat="46.120298" lon="13.5308399"><ele>166.2</ele><time>2026-04-24T13:40:15.234Z</time></trkpt><trkpt lat="46.1204065" lon="13.5308183"><ele>165.39999999999998</ele><time>2026-04-24T13:40:16.234Z</time></trkpt><trkpt lat="46.1205142" lon="13.5307889"><ele>164.60000000000002</ele><time>2026-04-24T13:40:17.236Z</time></trkpt><trkpt lat="46.1206212" lon="13.5307607"><ele>163.8</ele><time>2026-04-24T13:40:18.236Z</time></trkpt><trkpt lat="46.1207288" lon="13.5307342"><ele>163.0</ele><time>2026-04-24T13:40:19.236Z</time></trkpt><trkpt lat="46.1208233" lon="13.5307207"><ele>163.0</ele><time>2026-04-24T13:40:20.236Z</time></trkpt><trkpt lat="46.120919" lon="13.5307044"><ele>163.0</ele><time>2026-04-24T13:40:21.235Z</time></trkpt><trkpt lat="46.1210087" lon="13.5306877"><ele>163.0</ele><time>2026-04-24T13:40:22.234Z</time></trkpt><trkpt lat="46.1210861" lon="13.5306758"><ele>163.0</ele><time>2026-04-24T13:40:23.236Z</time></trkpt><trkpt lat="46.1211515" lon="13.5306656"><ele>163.0</ele><time>2026-04-24T13:40:24.234Z</time></trkpt><trkpt lat="46.1212429" lon="13.5306637"><ele>163.0</ele><time>2026-04-24T13:40:26.236Z</time></trkpt><trkpt lat="46.1213413" lon="13.5305894"><ele>163.0</ele><time>2026-04-24T13:41:12.236Z</time></trkpt><trkpt lat="46.1213748" lon="13.5304807"><ele>163.0</ele><time>2026-04-24T13:41:13.234Z</time></trkpt><trkpt lat="46.1213952" lon="13.5303678"><ele>163.0</ele><time>2026-04-24T13:41:14.235Z</time></trkpt><trkpt lat="46.1214185" lon="13.5302517"><ele>163.0</ele><time>2026-04-24T13:41:15.236Z</time></trkpt><trkpt lat="46.1214402" lon="13.5301226"><ele>163.0</ele><time>2026-04-24T13:41:16.234Z</time></trkpt><trkpt lat="46.1214638" lon="13.5299818"><ele>163.0</ele><time>2026-04-24T13:41:17.234Z</time></trkpt><trkpt lat="46.121486" lon="13.5298538"><ele>163.0</ele><time>2026-04-24T13:41:18.235Z</time></trkpt><trkpt lat="46.1215092" lon="13.5297196"><ele>163.0</ele><time>2026-04-24T13:41:19.234Z</time></trkpt><trkpt lat="46.1215324" lon="13.5295811"><ele>163.0</ele><time>2026-04-24T13:41:20.235Z</time></trkpt><trkpt lat="46.121553" lon="13.5294374"><ele>163.0</ele><time>2026-04-24T13:41:21.236Z</time></trkpt><trkpt lat="46.1215707" lon="13.5293058"><ele>163.0</ele><time>2026-04-24T13:41:22.236Z</time></trkpt><trkpt lat="46.1215879" lon="13.5291709"><ele>164.4</ele><time>2026-04-24T13:41:23.235Z</time></trkpt><trkpt lat="46.1216049" lon="13.5290327"><ele>165.8</ele><time>2026-04-24T13:41:24.235Z</time></trkpt><trkpt lat="46.1216241" lon="13.5288954"><ele>167.2</ele><time>2026-04-24T13:41:25.235Z</time></trkpt><trkpt lat="46.1216444" lon="13.5287555"><ele>168.6</ele><time>2026-04-24T13:41:26.234Z</time></trkpt><trkpt lat="46.1216623" lon="13.5286145"><ele>170.0</ele><time>2026-04-24T13:41:27.235Z</time></trkpt><trkpt lat="46.1216776" lon="13.528482"><ele>170.0</ele><time>2026-04-24T13:41:28.235Z</time></trkpt><trkpt lat="46.1216879" lon="13.5283468"><ele>170.0</ele><time>2026-04-24T13:41:29.235Z</time></trkpt><trkpt lat="46.1217091" lon="13.5282114"><ele>170.0</ele><time>2026-04-24T13:41:30.236Z</time></trkpt><trkpt lat="46.1217325" lon="13.5280824"><ele>170.0</ele><time>2026-04-24T13:41:31.235Z</time></trkpt><trkpt lat="46.1217504" lon="13.5279456"><ele>170.0</ele><time>2026-04-24T13:41:32.235Z</time></trkpt><trkpt lat="46.1217675" lon="13.527801"><ele>170.2</ele><time>2026-04-24T13:41:33.236Z</time></trkpt><trkpt lat="46.1217777" lon="13.5276516"><ele>170.4</ele><time>2026-04-24T13:41:34.236Z</time></trkpt><trkpt lat="46.1217812" lon="13.5274956"><ele>170.60000000000002</ele><time>2026-04-24T13:41:35.235Z</time></trkpt><trkpt lat="46.1217865" lon="13.5273305"><ele>170.8</ele><time>2026-04-24T13:41:36.234Z</time></trkpt><trkpt lat="46.1217892" lon="13.5271577"><ele>171.0</ele><time>2026-04-24T13:41:37.235Z</time></trkpt><trkpt lat="46.1217959" lon="13.5269791"><ele>171.0</ele><time>2026-04-24T13:41:38.236Z</time></trkpt><trkpt lat="46.1218031" lon="13.5268104"><ele>171.0</ele><time>2026-04-24T13:41:39.236Z</time></trkpt><trkpt lat="46.1218022" lon="13.5266513"><ele>171.0</ele><time>2026-04-24T13:41:40.235Z</time></trkpt><trkpt lat="46.1217821" lon="13.5264996"><ele>171.0</ele><time>2026-04-24T13:41:41.236Z</time></trkpt><trkpt lat="46.1217482" lon="13.5263443"><ele>171.0</ele><time>2026-04-24T13:41:42.234Z</time></trkpt><trkpt lat="46.1217098" lon="13.5261888"><ele>169.5</ele><time>2026-04-24T13:41:43.235Z</time></trkpt><trkpt lat="46.1216701" lon="13.5260227"><ele>168.0</ele><time>2026-04-24T13:41:44.234Z</time></trkpt><trkpt lat="46.121636" lon="13.5258432"><ele>166.5</ele><time>2026-04-24T13:41:45.234Z</time></trkpt><trkpt lat="46.1216039" lon="13.525661"><ele>165.0</ele><time>2026-04-24T13:41:46.235Z</time></trkpt><trkpt lat="46.1215765" lon="13.5254718"><ele>163.0</ele><time>2026-04-24T13:41:47.236Z</time></trkpt><trkpt lat="46.1215401" lon="13.5252864"><ele>161.0</ele><time>2026-04-24T13:41:48.234Z</time></trkpt><trkpt lat="46.1215019" lon="13.5251039"><ele>159.0</ele><time>2026-04-24T13:41:49.236Z</time></trkpt><trkpt lat="46.1214571" lon="13.5249286"><ele>157.0</ele><time>2026-04-24T13:41:50.236Z</time></trkpt><trkpt lat="46.1214051" lon="13.5247545"><ele>157.0</ele><time>2026-04-24T13:41:51.235Z</time></trkpt><trkpt lat="46.1213563" lon="13.524586"><ele>157.0</ele><time>2026-04-24T13:41:52.235Z</time></trkpt><trkpt lat="46.1213083" lon="13.5244199"><ele>157.0</ele><time>2026-04-24T13:41:53.235Z</time></trkpt><trkpt lat="46.1212576" lon="13.5242531"><ele>157.0</ele><time>2026-04-24T13:41:54.236Z</time></trkpt><trkpt lat="46.1212068" lon="13.5240947"><ele>157.0</ele><time>2026-04-24T13:41:55.235Z</time></trkpt><trkpt lat="46.121159" lon="13.5239426"><ele>157.0</ele><time>2026-04-24T13:41:56.235Z</time></trkpt><trkpt lat="46.121116" lon="13.5237955"><ele>157.0</ele><time>2026-04-24T13:41:57.234Z</time></trkpt><trkpt lat="46.1210834" lon="13.5236446"><ele>157.0</ele><time>2026-04-24T13:41:58.234Z</time></trkpt><trkpt lat="46.12106" lon="13.5235042"><ele>157.0</ele><time>2026-04-24T13:41:59.234Z</time></trkpt><trkpt lat="46.121054" lon="13.5233641"><ele>157.0</ele><time>2026-04-24T13:42:00.235Z</time></trkpt><trkpt lat="46.1210624" lon="13.5232245"><ele>157.0</ele><time>2026-04-24T13:42:01.234Z</time></trkpt><trkpt lat="46.1210756" lon="13.5230811"><ele>157.0</ele><time>2026-04-24T13:42:02.235Z</time></trkpt><trkpt lat="46.1210854" lon="13.5229379"><ele>157.0</ele><time>2026-04-24T13:42:03.235Z</time></trkpt><trkpt lat="46.1211041" lon="13.5228029"><ele>157.0</ele><time>2026-04-24T13:42:04.235Z</time></trkpt><trkpt lat="46.1211268" lon="13.5226701"><ele>156.83333333333334</ele><time>2026-04-24T13:42:05.235Z</time></trkpt><trkpt lat="46.1211548" lon="13.5225398"><ele>156.66666666666669</ele><time>2026-04-24T13:42:06.234Z</time></trkpt><trkpt lat="46.1211784" lon="13.522426"><ele>156.5</ele><time>2026-04-24T13:42:07.235Z</time></trkpt><trkpt lat="46.1211984" lon="13.5223375"><ele>156.33333333333334</ele><time>2026-04-24T13:42:08.234Z</time></trkpt><trkpt lat="46.1212152" lon="13.5222421"><ele>156.16666666666666</ele><time>2026-04-24T13:42:10.235Z</time></trkpt><trkpt lat="46.1212108" lon="13.5221467"><ele>156.0</ele><time>2026-04-24T13:42:13.235Z</time></trkpt><trkpt lat="46.1211044" lon="13.5220373"><ele>156.0</ele><time>2026-04-24T13:42:15.235Z</time></trkpt><trkpt lat="46.121044" lon="13.5219696"><ele>156.0</ele><time>2026-04-24T13:42:16.234Z</time></trkpt><trkpt lat="46.1209762" lon="13.5218857"><ele>156.0</ele><time>2026-04-24T13:42:17.234Z</time></trkpt><trkpt lat="46.1208912" lon="13.5217797"><ele>156.0</ele><time>2026-04-24T13:42:18.235Z</time></trkpt><trkpt lat="46.1208032" lon="13.5216579"><ele>156.0</ele><time>2026-04-24T13:42:19.234Z</time></trkpt><trkpt lat="46.1207115" lon="13.521522"><ele>156.0</ele><time>2026-04-24T13:42:20.235Z</time></trkpt><trkpt lat="46.1206069" lon="13.5213558"><ele>156.0</ele><time>2026-04-24T13:42:21.235Z</time></trkpt><trkpt lat="46.1204915" lon="13.5211677"><ele>156.0</ele><time>2026-04-24T13:42:22.236Z</time></trkpt><trkpt lat="46.1203653" lon="13.5209659"><ele>156.0</ele><time>2026-04-24T13:42:23.235Z</time></trkpt><trkpt lat="46.1202381" lon="13.5207596"><ele>156.0</ele><time>2026-04-24T13:42:24.234Z</time></trkpt><trkpt lat="46.1200973" lon="13.5205355"><ele>156.0</ele><time>2026-04-24T13:42:25.234Z</time></trkpt><trkpt lat="46.1199642" lon="13.5203205"><ele>155.66666666666666</ele><time>2026-04-24T13:42:26.235Z</time></trkpt><trkpt lat="46.1198298" lon="13.5201042"><ele>155.33333333333331</ele><time>2026-04-24T13:42:27.235Z</time></trkpt><trkpt lat="46.1196971" lon="13.519881"><ele>155.0</ele><time>2026-04-24T13:42:28.235Z</time></trkpt><trkpt lat="46.1195706" lon="13.5196523"><ele>155.33333333333331</ele><time>2026-04-24T13:42:29.234Z</time></trkpt><trkpt lat="46.1194462" lon="13.5194131"><ele>155.66666666666666</ele><time>2026-04-24T13:42:30.234Z</time></trkpt><trkpt lat="46.1193274" lon="13.5191647"><ele>156.0</ele><time>2026-04-24T13:42:31.235Z</time></trkpt><trkpt lat="46.1192143" lon="13.5189121"><ele>156.0</ele><time>2026-04-24T13:42:32.234Z</time></trkpt><trkpt lat="46.1191159" lon="13.5186645"><ele>156.0</ele><time>2026-04-24T13:42:33.235Z</time></trkpt><trkpt lat="46.1190306" lon="13.5184306"><ele>156.0</ele><time>2026-04-24T13:42:34.234Z</time></trkpt><trkpt lat="46.1189547" lon="13.5181963"><ele>156.0</ele><time>2026-04-24T13:42:35.235Z</time></trkpt><trkpt lat="46.1188794" lon="13.5179623"><ele>156.0</ele><time>2026-04-24T13:42:36.235Z</time></trkpt><trkpt lat="46.1188007" lon="13.5177251"><ele>156.0</ele><time>2026-04-24T13:42:37.235Z</time></trkpt><trkpt lat="46.1187258" lon="13.5174928"><ele>157.0</ele><time>2026-04-24T13:42:38.235Z</time></trkpt><trkpt lat="46.1186513" lon="13.5172647"><ele>158.0</ele><time>2026-04-24T13:42:39.235Z</time></trkpt><trkpt lat="46.1185778" lon="13.5170339"><ele>159.0</ele><time>2026-04-24T13:42:40.234Z</time></trkpt><trkpt lat="46.118501" lon="13.516801"><ele>159.0</ele><time>2026-04-24T13:42:41.234Z</time></trkpt><trkpt lat="46.1184247" lon="13.5165701"><ele>159.0</ele><time>2026-04-24T13:42:42.235Z</time></trkpt><trkpt lat="46.1183484" lon="13.516339"><ele>159.0</ele><time>2026-04-24T13:42:43.235Z</time></trkpt><trkpt lat="46.1182692" lon="13.5161063"><ele>159.33333333333334</ele><time>2026-04-24T13:42:44.235Z</time></trkpt><trkpt lat="46.1181885" lon="13.5158759"><ele>159.66666666666669</ele><time>2026-04-24T13:42:45.235Z</time></trkpt><trkpt lat="46.1181092" lon="13.5156415"><ele>160.0</ele><time>2026-04-24T13:42:46.235Z</time></trkpt><trkpt lat="46.1180306" lon="13.5154104"><ele>159.66666666666669</ele><time>2026-04-24T13:42:47.235Z</time></trkpt><trkpt lat="46.1179582" lon="13.5151849"><ele>159.33333333333334</ele><time>2026-04-24T13:42:48.236Z</time></trkpt><trkpt lat="46.1178881" lon="13.5149701"><ele>159.0</ele><time>2026-04-24T13:42:49.236Z</time></trkpt><trkpt lat="46.1178311" lon="13.5147574"><ele>159.0</ele><time>2026-04-24T13:42:50.235Z</time></trkpt><trkpt lat="46.1177882" lon="13.5145371"><ele>159.0</ele><time>2026-04-24T13:42:51.234Z</time></trkpt><trkpt lat="46.1177636" lon="13.5143139"><ele>159.0</ele><time>2026-04-24T13:42:52.235Z</time></trkpt><trkpt lat="46.1177584" lon="13.5140786"><ele>159.0</ele><time>2026-04-24T13:42:53.235Z</time></trkpt><trkpt lat="46.1177678" lon="13.5138375"><ele>159.0</ele><time>2026-04-24T13:42:54.234Z</time></trkpt><trkpt lat="46.1177864" lon="13.5135835"><ele>159.0</ele><time>2026-04-24T13:42:55.234Z</time></trkpt><trkpt lat="46.1177988" lon="13.5133247"><ele>158.66666666666666</ele><time>2026-04-24T13:42:56.234Z</time></trkpt><trkpt lat="46.1178114" lon="13.5130595"><ele>158.33333333333331</ele><time>2026-04-24T13:42:57.236Z</time></trkpt><trkpt lat="46.117818" lon="13.5127811"><ele>158.0</ele><time>2026-04-24T13:42:58.234Z</time></trkpt><trkpt lat="46.1177964" lon="13.5125022"><ele>158.66666666666666</ele><time>2026-04-24T13:42:59.235Z</time></trkpt><trkpt lat="46.1177501" lon="13.5122252"><ele>159.33333333333334</ele><time>2026-04-24T13:43:00.235Z</time></trkpt><trkpt lat="46.1176863" lon="13.5119527"><ele>160.0</ele><time>2026-04-24T13:43:01.233Z</time></trkpt><trkpt lat="46.1176235" lon="13.5116877"><ele>161.33333333333334</ele><time>2026-04-24T13:43:02.234Z</time></trkpt><trkpt lat="46.1175638" lon="13.511427"><ele>162.66666666666666</ele><time>2026-04-24T13:43:03.235Z</time></trkpt><trkpt lat="46.1175056" lon="13.5111765"><ele>164.0</ele><time>2026-04-24T13:43:04.234Z</time></trkpt><trkpt lat="46.1174469" lon="13.5109309"><ele>161.0</ele><time>2026-04-24T13:43:05.233Z</time></trkpt><trkpt lat="46.1173833" lon="13.5106855"><ele>158.0</ele><time>2026-04-24T13:43:06.234Z</time></trkpt><trkpt lat="46.1173159" lon="13.5104415"><ele>155.0</ele><time>2026-04-24T13:43:07.234Z</time></trkpt><trkpt lat="46.117242" lon="13.5101993"><ele>155.0</ele><time>2026-04-24T13:43:08.234Z</time></trkpt><trkpt lat="46.1171697" lon="13.5099646"><ele>155.0</ele><time>2026-04-24T13:43:09.234Z</time></trkpt><trkpt lat="46.1171007" lon="13.5097304"><ele>155.0</ele><time>2026-04-24T13:43:10.234Z</time></trkpt><trkpt lat="46.1170313" lon="13.5094994"><ele>154.66666666666666</ele><time>2026-04-24T13:43:11.234Z</time></trkpt><trkpt lat="46.1169685" lon="13.5092699"><ele>154.33333333333334</ele><time>2026-04-24T13:43:12.234Z</time></trkpt><trkpt lat="46.1169066" lon="13.5090379"><ele>154.0</ele><time>2026-04-24T13:43:13.233Z</time></trkpt><trkpt lat="46.1168475" lon="13.508807"><ele>153.66666666666669</ele><time>2026-04-24T13:43:14.233Z</time></trkpt><trkpt lat="46.1167942" lon="13.5085717"><ele>153.33333333333334</ele><time>2026-04-24T13:43:15.233Z</time></trkpt><trkpt lat="46.1167457" lon="13.5083353"><ele>153.0</ele><time>2026-04-24T13:43:16.234Z</time></trkpt><trkpt lat="46.116696" lon="13.5080966"><ele>152.0</ele><time>2026-04-24T13:43:17.233Z</time></trkpt><trkpt lat="46.1166348" lon="13.5078661"><ele>151.0</ele><time>2026-04-24T13:43:18.233Z</time></trkpt><trkpt lat="46.1165543" lon="13.5076519"><ele>150.0</ele><time>2026-04-24T13:43:19.234Z</time></trkpt><trkpt lat="46.1164596" lon="13.5074459"><ele>149.0</ele><time>2026-04-24T13:43:20.234Z</time></trkpt><trkpt lat="46.1163487" lon="13.5072559"><ele>148.0</ele><time>2026-04-24T13:43:21.233Z</time></trkpt><trkpt lat="46.1162205" lon="13.5070801"><ele>147.0</ele><time>2026-04-24T13:43:22.233Z</time></trkpt><trkpt lat="46.1160888" lon="13.5069137"><ele>147.0</ele><time>2026-04-24T13:43:23.234Z</time></trkpt><trkpt lat="46.1159644" lon="13.5067491"><ele>147.0</ele><time>2026-04-24T13:43:24.234Z</time></trkpt><trkpt lat="46.1158552" lon="13.5065734"><ele>147.0</ele><time>2026-04-24T13:43:25.234Z</time></trkpt><trkpt lat="46.1157574" lon="13.5063878"><ele>146.0</ele><time>2026-04-24T13:43:26.234Z</time></trkpt><trkpt lat="46.1156768" lon="13.5062007"><ele>145.0</ele><time>2026-04-24T13:43:27.233Z</time></trkpt><trkpt lat="46.1156088" lon="13.5060032"><ele>144.0</ele><time>2026-04-24T13:43:28.234Z</time></trkpt><trkpt lat="46.1155602" lon="13.5057904"><ele>144.0</ele><time>2026-04-24T13:43:29.235Z</time></trkpt><trkpt lat="46.1155335" lon="13.5055602"><ele>144.0</ele><time>2026-04-24T13:43:30.234Z</time></trkpt><trkpt lat="46.1155174" lon="13.5053084"><ele>144.0</ele><time>2026-04-24T13:43:31.234Z</time></trkpt><trkpt lat="46.1154954" lon="13.5050431"><ele>144.33333333333334</ele><time>2026-04-24T13:43:32.234Z</time></trkpt><trkpt lat="46.1154717" lon="13.5047713"><ele>144.66666666666669</ele><time>2026-04-24T13:43:33.235Z</time></trkpt><trkpt lat="46.1154434" lon="13.5044908"><ele>145.0</ele><time>2026-04-24T13:43:34.234Z</time></trkpt><trkpt lat="46.1154103" lon="13.5042087"><ele>144.33333333333334</ele><time>2026-04-24T13:43:35.235Z</time></trkpt><trkpt lat="46.1153714" lon="13.5039254"><ele>143.66666666666666</ele><time>2026-04-24T13:43:36.233Z</time></trkpt><trkpt lat="46.1153192" lon="13.5036474"><ele>143.0</ele><time>2026-04-24T13:43:37.234Z</time></trkpt><trkpt lat="46.1152575" lon="13.5033738"><ele>143.0</ele><time>2026-04-24T13:43:38.234Z</time></trkpt><trkpt lat="46.1151952" lon="13.5030984"><ele>143.0</ele><time>2026-04-24T13:43:39.234Z</time></trkpt><trkpt lat="46.1151315" lon="13.5028245"><ele>143.0</ele><time>2026-04-24T13:43:40.233Z</time></trkpt><trkpt lat="46.1150686" lon="13.5025614"><ele>143.33333333333331</ele><time>2026-04-24T13:43:41.234Z</time></trkpt><trkpt lat="46.1150129" lon="13.502317"><ele>143.66666666666666</ele><time>2026-04-24T13:43:42.234Z</time></trkpt><trkpt lat="46.1149643" lon="13.5020885"><ele>144.0</ele><time>2026-04-24T13:43:43.234Z</time></trkpt><trkpt lat="46.1149311" lon="13.5018688"><ele>144.0</ele><time>2026-04-24T13:43:44.233Z</time></trkpt><trkpt lat="46.114919" lon="13.5016588"><ele>144.0</ele><time>2026-04-24T13:43:45.233Z</time></trkpt><trkpt lat="46.1149313" lon="13.5014524"><ele>144.0</ele><time>2026-04-24T13:43:46.233Z</time></trkpt><trkpt lat="46.1149604" lon="13.5012469"><ele>144.0</ele><time>2026-04-24T13:43:47.234Z</time></trkpt><trkpt lat="46.115009" lon="13.5010339"><ele>144.33333333333334</ele><time>2026-04-24T13:43:48.234Z</time></trkpt><trkpt lat="46.1150829" lon="13.5008194"><ele>144.66666666666669</ele><time>2026-04-24T13:43:49.233Z</time></trkpt><trkpt lat="46.1151696" lon="13.5006084"><ele>145.0</ele><time>2026-04-24T13:43:50.235Z</time></trkpt><trkpt lat="46.1152647" lon="13.5003907"><ele>145.33333333333334</ele><time>2026-04-24T13:43:51.234Z</time></trkpt><trkpt lat="46.1153565" lon="13.5001619"><ele>145.66666666666666</ele><time>2026-04-24T13:43:52.234Z</time></trkpt><trkpt lat="46.1154484" lon="13.4999253"><ele>146.0</ele><time>2026-04-24T13:43:53.235Z</time></trkpt><trkpt lat="46.1155361" lon="13.4996821"><ele>146.33333333333331</ele><time>2026-04-24T13:43:54.234Z</time></trkpt><trkpt lat="46.1156197" lon="13.4994243"><ele>146.66666666666666</ele><time>2026-04-24T13:43:55.234Z</time></trkpt><trkpt lat="46.1156942" lon="13.499167"><ele>147.0</ele><time>2026-04-24T13:43:56.234Z</time></trkpt><trkpt lat="46.1157664" lon="13.4989118"><ele>145.33333333333334</ele><time>2026-04-24T13:43:57.234Z</time></trkpt><trkpt lat="46.115839" lon="13.4986684"><ele>143.66666666666669</ele><time>2026-04-24T13:43:58.235Z</time></trkpt><trkpt lat="46.1159115" lon="13.498427"><ele>142.0</ele><time>2026-04-24T13:43:59.234Z</time></trkpt><trkpt lat="46.1159811" lon="13.498201"><ele>142.0</ele><time>2026-04-24T13:44:00.233Z</time></trkpt><trkpt lat="46.1160579" lon="13.4979818"><ele>142.0</ele><time>2026-04-24T13:44:01.234Z</time></trkpt><trkpt lat="46.1161413" lon="13.4977735"><ele>142.0</ele><time>2026-04-24T13:44:02.234Z</time></trkpt><trkpt lat="46.1162353" lon="13.4975778"><ele>140.66666666666669</ele><time>2026-04-24T13:44:03.235Z</time></trkpt><trkpt lat="46.1163369" lon="13.4973885"><ele>139.33333333333334</ele><time>2026-04-24T13:44:04.235Z</time></trkpt><trkpt lat="46.1164503" lon="13.4972128"><ele>138.0</ele><time>2026-04-24T13:44:05.235Z</time></trkpt><trkpt lat="46.1165707" lon="13.4970443"><ele>138.0</ele><time>2026-04-24T13:44:06.235Z</time></trkpt><trkpt lat="46.1167002" lon="13.4968829"><ele>138.0</ele><time>2026-04-24T13:44:07.234Z</time></trkpt><trkpt lat="46.1168315" lon="13.4967173"><ele>138.0</ele><time>2026-04-24T13:44:08.233Z</time></trkpt><trkpt lat="46.1169617" lon="13.4965498"><ele>138.0</ele><time>2026-04-24T13:44:09.233Z</time></trkpt><trkpt lat="46.1170896" lon="13.4963783"><ele>138.0</ele><time>2026-04-24T13:44:10.233Z</time></trkpt><trkpt lat="46.1172228" lon="13.4962103"><ele>138.0</ele><time>2026-04-24T13:44:11.235Z</time></trkpt><trkpt lat="46.1173523" lon="13.4960413"><ele>139.0</ele><time>2026-04-24T13:44:12.234Z</time></trkpt><trkpt lat="46.1174828" lon="13.4958665"><ele>140.0</ele><time>2026-04-24T13:44:13.234Z</time></trkpt><trkpt lat="46.1176145" lon="13.4956957"><ele>141.0</ele><time>2026-04-24T13:44:14.234Z</time></trkpt><trkpt lat="46.1177478" lon="13.4955243"><ele>141.66666666666666</ele><time>2026-04-24T13:44:15.234Z</time></trkpt><trkpt lat="46.1178769" lon="13.4953563"><ele>142.33333333333331</ele><time>2026-04-24T13:44:16.234Z</time></trkpt><trkpt lat="46.1179996" lon="13.4951998"><ele>143.0</ele><time>2026-04-24T13:44:17.233Z</time></trkpt><trkpt lat="46.1181132" lon="13.4950553"><ele>143.0</ele><time>2026-04-24T13:44:18.234Z</time></trkpt><trkpt lat="46.118216" lon="13.4949187"><ele>143.0</ele><time>2026-04-24T13:44:19.234Z</time></trkpt><trkpt lat="46.1183141" lon="13.4947908"><ele>143.0</ele><time>2026-04-24T13:44:20.234Z</time></trkpt><trkpt lat="46.1184051" lon="13.4946714"><ele>143.0</ele><time>2026-04-24T13:44:21.234Z</time></trkpt><trkpt lat="46.1184949" lon="13.4945572"><ele>143.4</ele><time>2026-04-24T13:44:22.234Z</time></trkpt><trkpt lat="46.1185787" lon="13.4944505"><ele>143.8</ele><time>2026-04-24T13:44:23.233Z</time></trkpt><trkpt lat="46.1186586" lon="13.4943484"><ele>144.2</ele><time>2026-04-24T13:44:24.235Z</time></trkpt><trkpt lat="46.1187376" lon="13.4942503"><ele>144.6</ele><time>2026-04-24T13:44:25.234Z</time></trkpt><trkpt lat="46.1188119" lon="13.494156"><ele>145.0</ele><time>2026-04-24T13:44:26.234Z</time></trkpt><trkpt lat="46.1188792" lon="13.4940745"><ele>145.0</ele><time>2026-04-24T13:44:27.235Z</time></trkpt><trkpt lat="46.1189309" lon="13.4940096"><ele>145.0</ele><time>2026-04-24T13:44:28.233Z</time></trkpt><trkpt lat="46.1189969" lon="13.4939278"><ele>145.0</ele><time>2026-04-24T13:44:30.234Z</time></trkpt><trkpt lat="46.119026" lon="13.4937637"><ele>145.0</ele><time>2026-04-24T13:44:48.234Z</time></trkpt><trkpt lat="46.1190212" lon="13.4936407"><ele>145.0</ele><time>2026-04-24T13:44:50.235Z</time></trkpt><trkpt lat="46.1189103" lon="13.4935193"><ele>146.25</ele><time>2026-04-24T13:44:52.234Z</time></trkpt><trkpt lat="46.1188048" lon="13.4934652"><ele>147.5</ele><time>2026-04-24T13:44:53.234Z</time></trkpt><trkpt lat="46.1186855" lon="13.4934144"><ele>148.75</ele><time>2026-04-24T13:44:54.234Z</time></trkpt><trkpt lat="46.1185412" lon="13.493358"><ele>150.0</ele><time>2026-04-24T13:44:55.233Z</time></trkpt><trkpt lat="46.1183842" lon="13.4932971"><ele>149.66666666666666</ele><time>2026-04-24T13:44:56.233Z</time></trkpt><trkpt lat="46.118216" lon="13.4932331"><ele>149.33333333333331</ele><time>2026-04-24T13:44:57.233Z</time></trkpt><trkpt lat="46.1180277" lon="13.493161"><ele>149.0</ele><time>2026-04-24T13:44:58.233Z</time></trkpt><trkpt lat="46.1178248" lon="13.4930927"><ele>149.0</ele><time>2026-04-24T13:44:59.234Z</time></trkpt><trkpt lat="46.117621" lon="13.4930217"><ele>149.0</ele><time>2026-04-24T13:45:00.234Z</time></trkpt><trkpt lat="46.1174001" lon="13.4929419"><ele>149.0</ele><time>2026-04-24T13:45:01.233Z</time></trkpt><trkpt lat="46.1171771" lon="13.4928589"><ele>149.66666666666666</ele><time>2026-04-24T13:45:02.235Z</time></trkpt><trkpt lat="46.1169609" lon="13.4927804"><ele>150.33333333333334</ele><time>2026-04-24T13:45:03.235Z</time></trkpt><trkpt lat="46.1167545" lon="13.4927025"><ele>151.0</ele><time>2026-04-24T13:45:04.234Z</time></trkpt><trkpt lat="46.1165605" lon="13.4926222"><ele>149.66666666666669</ele><time>2026-04-24T13:45:05.235Z</time></trkpt><trkpt lat="46.1163772" lon="13.4925363"><ele>148.33333333333334</ele><time>2026-04-24T13:45:06.234Z</time></trkpt><trkpt lat="46.1161965" lon="13.4924416"><ele>147.0</ele><time>2026-04-24T13:45:07.234Z</time></trkpt><trkpt lat="46.116028" lon="13.4923378"><ele>147.0</ele><time>2026-04-24T13:45:08.233Z</time></trkpt><trkpt lat="46.1158741" lon="13.4922406"><ele>147.0</ele><time>2026-04-24T13:45:09.233Z</time></trkpt><trkpt lat="46.1157365" lon="13.492149"><ele>147.0</ele><time>2026-04-24T13:45:10.234Z</time></trkpt><trkpt lat="46.1156198" lon="13.492078"><ele>147.0</ele><time>2026-04-24T13:45:11.234Z</time></trkpt><trkpt lat="46.1155095" lon="13.4919833"><ele>147.0</ele><time>2026-04-24T13:45:12.234Z</time></trkpt><trkpt lat="46.1154024" lon="13.4918391"><ele>147.0</ele><time>2026-04-24T13:45:13.234Z</time></trkpt><trkpt lat="46.1153" lon="13.4916641"><ele>147.0</ele><time>2026-04-24T13:45:14.233Z</time></trkpt><trkpt lat="46.1151923" lon="13.4914686"><ele>147.0</ele><time>2026-04-24T13:45:15.234Z</time></trkpt><trkpt lat="46.1150914" lon="13.4912703"><ele>147.0</ele><time>2026-04-24T13:45:16.234Z</time></trkpt><trkpt lat="46.1149894" lon="13.4910754"><ele>147.0</ele><time>2026-04-24T13:45:17.234Z</time></trkpt><trkpt lat="46.1148903" lon="13.4908811"><ele>146.0</ele><time>2026-04-24T13:45:18.233Z</time></trkpt><trkpt lat="46.1147966" lon="13.4906825"><ele>145.0</ele><time>2026-04-24T13:45:19.233Z</time></trkpt><trkpt lat="46.1147077" lon="13.4904742"><ele>144.0</ele><time>2026-04-24T13:45:20.233Z</time></trkpt><trkpt lat="46.1146265" lon="13.4902603"><ele>144.0</ele><time>2026-04-24T13:45:21.234Z</time></trkpt><trkpt lat="46.1145499" lon="13.4900428"><ele>144.0</ele><time>2026-04-24T13:45:22.235Z</time></trkpt><trkpt lat="46.1144796" lon="13.4898265"><ele>144.0</ele><time>2026-04-24T13:45:23.234Z</time></trkpt><trkpt lat="46.1144223" lon="13.4896276"><ele>145.0</ele><time>2026-04-24T13:45:24.235Z</time></trkpt><trkpt lat="46.1143773" lon="13.4894293"><ele>146.0</ele><time>2026-04-24T13:45:25.233Z</time></trkpt><trkpt lat="46.1143335" lon="13.4892398"><ele>147.0</ele><time>2026-04-24T13:45:26.234Z</time></trkpt><trkpt lat="46.1142929" lon="13.4890695"><ele>148.0</ele><time>2026-04-24T13:45:27.235Z</time></trkpt><trkpt lat="46.1142592" lon="13.4889079"><ele>149.0</ele><time>2026-04-24T13:45:28.235Z</time></trkpt><trkpt lat="46.1142424" lon="13.4887347"><ele>150.0</ele><time>2026-04-24T13:45:29.235Z</time></trkpt><trkpt lat="46.1142385" lon="13.4885431"><ele>151.0</ele><time>2026-04-24T13:45:30.233Z</time></trkpt><trkpt lat="46.1142316" lon="13.4883382"><ele>152.0</ele><time>2026-04-24T13:45:31.234Z</time></trkpt><trkpt lat="46.1142089" lon="13.4881151"><ele>152.66666666666666</ele><time>2026-04-24T13:45:32.234Z</time></trkpt><trkpt lat="46.1141796" lon="13.4878792"><ele>153.33333333333334</ele><time>2026-04-24T13:45:33.235Z</time></trkpt><trkpt lat="46.1141446" lon="13.4876668"><ele>154.0</ele><time>2026-04-24T13:45:34.235Z</time></trkpt><trkpt lat="46.1140947" lon="13.4874638"><ele>150.66666666666669</ele><time>2026-04-24T13:45:35.233Z</time></trkpt><trkpt lat="46.1140205" lon="13.4872374"><ele>147.33333333333334</ele><time>2026-04-24T13:45:36.233Z</time></trkpt><trkpt lat="46.1139289" lon="13.486999"><ele>144.0</ele><time>2026-04-24T13:45:37.235Z</time></trkpt><trkpt lat="46.1138376" lon="13.486773"><ele>144.0</ele><time>2026-04-24T13:45:38.234Z</time></trkpt><trkpt lat="46.1137408" lon="13.486521"><ele>144.0</ele><time>2026-04-24T13:45:39.234Z</time></trkpt><trkpt lat="46.1136511" lon="13.4862641"><ele>144.0</ele><time>2026-04-24T13:45:40.234Z</time></trkpt><trkpt lat="46.1135633" lon="13.4860166"><ele>145.0</ele><time>2026-04-24T13:45:41.233Z</time></trkpt><trkpt lat="46.1134771" lon="13.4857802"><ele>146.0</ele><time>2026-04-24T13:45:42.234Z</time></trkpt><trkpt lat="46.1133896" lon="13.4855674"><ele>147.0</ele><time>2026-04-24T13:45:43.235Z</time></trkpt><trkpt lat="46.1133005" lon="13.4853826"><ele>147.0</ele><time>2026-04-24T13:45:44.235Z</time></trkpt><trkpt lat="46.1132006" lon="13.4852203"><ele>147.0</ele><time>2026-04-24T13:45:45.234Z</time></trkpt><trkpt lat="46.113067" lon="13.4850714"><ele>147.0</ele><time>2026-04-24T13:45:46.234Z</time></trkpt><trkpt lat="46.1129144" lon="13.4849198"><ele>147.0</ele><time>2026-04-24T13:45:47.233Z</time></trkpt><trkpt lat="46.1127474" lon="13.4847739"><ele>147.0</ele><time>2026-04-24T13:45:48.233Z</time></trkpt><trkpt lat="46.1125952" lon="13.4846341"><ele>147.0</ele><time>2026-04-24T13:45:49.234Z</time></trkpt><trkpt lat="46.112447" lon="13.4845039"><ele>146.0</ele><time>2026-04-24T13:45:50.235Z</time></trkpt><trkpt lat="46.1123136" lon="13.4843751"><ele>145.0</ele><time>2026-04-24T13:45:51.234Z</time></trkpt><trkpt lat="46.1121929" lon="13.4842414"><ele>144.0</ele><time>2026-04-24T13:45:52.234Z</time></trkpt><trkpt lat="46.11209" lon="13.4840944"><ele>144.0</ele><time>2026-04-24T13:45:53.233Z</time></trkpt><trkpt lat="46.1120042" lon="13.4839016"><ele>144.0</ele><time>2026-04-24T13:45:54.234Z</time></trkpt><trkpt lat="46.1119182" lon="13.4836682"><ele>144.0</ele><time>2026-04-24T13:45:55.234Z</time></trkpt><trkpt lat="46.1118307" lon="13.483407"><ele>144.66666666666666</ele><time>2026-04-24T13:45:56.234Z</time></trkpt><trkpt lat="46.1117526" lon="13.4831689"><ele>145.33333333333331</ele><time>2026-04-24T13:45:57.235Z</time></trkpt><trkpt lat="46.1116813" lon="13.4829337"><ele>146.0</ele><time>2026-04-24T13:45:58.233Z</time></trkpt><trkpt lat="46.1116229" lon="13.4827068"><ele>146.66666666666666</ele><time>2026-04-24T13:45:59.234Z</time></trkpt><trkpt lat="46.1115842" lon="13.4824612"><ele>147.33333333333334</ele><time>2026-04-24T13:46:00.235Z</time></trkpt><trkpt lat="46.1115681" lon="13.4821947"><ele>148.0</ele><time>2026-04-24T13:46:01.234Z</time></trkpt><trkpt lat="46.1115621" lon="13.4819147"><ele>144.33333333333334</ele><time>2026-04-24T13:46:02.234Z</time></trkpt><trkpt lat="46.1115523" lon="13.4816224"><ele>140.66666666666666</ele><time>2026-04-24T13:46:03.234Z</time></trkpt><trkpt lat="46.1115446" lon="13.4813288"><ele>137.0</ele><time>2026-04-24T13:46:04.235Z</time></trkpt><trkpt lat="46.1115365" lon="13.4810397"><ele>137.0</ele><time>2026-04-24T13:46:05.233Z</time></trkpt><trkpt lat="46.1115282" lon="13.4807484"><ele>137.0</ele><time>2026-04-24T13:46:06.235Z</time></trkpt><trkpt lat="46.111515" lon="13.480459"><ele>137.0</ele><time>2026-04-24T13:46:07.233Z</time></trkpt><trkpt lat="46.1115032" lon="13.4801688"><ele>137.0</ele><time>2026-04-24T13:46:08.233Z</time></trkpt><trkpt lat="46.1114928" lon="13.4798956"><ele>137.0</ele><time>2026-04-24T13:46:09.234Z</time></trkpt><trkpt lat="46.1114835" lon="13.4796326"><ele>137.0</ele><time>2026-04-24T13:46:10.234Z</time></trkpt><trkpt lat="46.1114853" lon="13.4793873"><ele>137.0</ele><time>2026-04-24T13:46:11.233Z</time></trkpt><trkpt lat="46.1115074" lon="13.4791538"><ele>137.0</ele><time>2026-04-24T13:46:12.232Z</time></trkpt><trkpt lat="46.1115423" lon="13.4789219"><ele>137.0</ele><time>2026-04-24T13:46:13.234Z</time></trkpt><trkpt lat="46.1115872" lon="13.4786964"><ele>139.25</ele><time>2026-04-24T13:46:14.233Z</time></trkpt><trkpt lat="46.111627" lon="13.4784937"><ele>141.5</ele><time>2026-04-24T13:46:15.234Z</time></trkpt><trkpt lat="46.1116639" lon="13.4783088"><ele>143.75</ele><time>2026-04-24T13:46:16.234Z</time></trkpt><trkpt lat="46.1116992" lon="13.4781439"><ele>146.0</ele><time>2026-04-24T13:46:17.233Z</time></trkpt><trkpt lat="46.1117292" lon="13.4779973"><ele>146.33333333333331</ele><time>2026-04-24T13:46:18.233Z</time></trkpt><trkpt lat="46.1117561" lon="13.4778662"><ele>146.66666666666666</ele><time>2026-04-24T13:46:19.234Z</time></trkpt><trkpt lat="46.1117812" lon="13.4777424"><ele>147.0</ele><time>2026-04-24T13:46:20.234Z</time></trkpt><trkpt lat="46.1118013" lon="13.4776391"><ele>147.33333333333334</ele><time>2026-04-24T13:46:21.233Z</time></trkpt><trkpt lat="46.1118302" lon="13.4774933"><ele>147.66666666666669</ele><time>2026-04-24T13:46:23.233Z</time></trkpt><trkpt lat="46.1118114" lon="13.4773907"><ele>148.0</ele><time>2026-04-24T13:46:26.232Z</time></trkpt><trkpt lat="46.111676" lon="13.4773347"><ele>148.0</ele><time>2026-04-24T13:46:28.234Z</time></trkpt><trkpt lat="46.1115831" lon="13.4772957"><ele>148.0</ele><time>2026-04-24T13:46:29.233Z</time></trkpt><trkpt lat="46.1114813" lon="13.477251"><ele>148.0</ele><time>2026-04-24T13:46:30.234Z</time></trkpt><trkpt lat="46.1113581" lon="13.4771926"><ele>148.0</ele><time>2026-04-24T13:46:31.234Z</time></trkpt><trkpt lat="46.1112227" lon="13.4771192"><ele>146.75</ele><time>2026-04-24T13:46:32.233Z</time></trkpt><trkpt lat="46.1110869" lon="13.4770211"><ele>145.5</ele><time>2026-04-24T13:46:33.234Z</time></trkpt><trkpt lat="46.1109607" lon="13.4769109"><ele>144.25</ele><time>2026-04-24T13:46:34.233Z</time></trkpt><trkpt lat="46.1108432" lon="13.4768173"><ele>143.0</ele><time>2026-04-24T13:46:35.234Z</time></trkpt><trkpt lat="46.1107407" lon="13.4767308"><ele>141.5</ele><time>2026-04-24T13:46:36.234Z</time></trkpt><trkpt lat="46.1106525" lon="13.4766476"><ele>140.0</ele><time>2026-04-24T13:46:37.233Z</time></trkpt><trkpt lat="46.1105762" lon="13.4765412"><ele>138.5</ele><time>2026-04-24T13:46:38.234Z</time></trkpt><trkpt lat="46.1105165" lon="13.4764001"><ele>137.0</ele><time>2026-04-24T13:46:39.234Z</time></trkpt><trkpt lat="46.1104732" lon="13.47623"><ele>137.0</ele><time>2026-04-24T13:46:40.234Z</time></trkpt><trkpt lat="46.1104246" lon="13.4760631"><ele>137.0</ele><time>2026-04-24T13:46:41.233Z</time></trkpt><trkpt lat="46.1103658" lon="13.475908"><ele>137.0</ele><time>2026-04-24T13:46:42.234Z</time></trkpt><trkpt lat="46.1102822" lon="13.4757656"><ele>137.0</ele><time>2026-04-24T13:46:43.233Z</time></trkpt><trkpt lat="46.1101636" lon="13.4756466"><ele>137.0</ele><time>2026-04-24T13:46:44.234Z</time></trkpt><trkpt lat="46.1100378" lon="13.475524"><ele>137.0</ele><time>2026-04-24T13:46:45.233Z</time></trkpt><trkpt lat="46.1099077" lon="13.4753921"><ele>137.0</ele><time>2026-04-24T13:46:46.233Z</time></trkpt><trkpt lat="46.1097766" lon="13.4752648"><ele>135.0</ele><time>2026-04-24T13:46:47.232Z</time></trkpt><trkpt lat="46.1096435" lon="13.4751415"><ele>133.0</ele><time>2026-04-24T13:46:48.233Z</time></trkpt><trkpt lat="46.1095115" lon="13.4750081"><ele>131.0</ele><time>2026-04-24T13:46:49.232Z</time></trkpt><trkpt lat="46.1093792" lon="13.4748758"><ele>131.0</ele><time>2026-04-24T13:46:50.233Z</time></trkpt><trkpt lat="46.1092523" lon="13.4747448"><ele>131.0</ele><time>2026-04-24T13:46:51.232Z</time></trkpt><trkpt lat="46.1091291" lon="13.4746331"><ele>131.0</ele><time>2026-04-24T13:46:52.234Z</time></trkpt><trkpt lat="46.1089987" lon="13.4745424"><ele>131.0</ele><time>2026-04-24T13:46:53.233Z</time></trkpt><trkpt lat="46.1088567" lon="13.4744735"><ele>131.33333333333331</ele><time>2026-04-24T13:46:54.233Z</time></trkpt><trkpt lat="46.108708" lon="13.4744299"><ele>131.66666666666666</ele><time>2026-04-24T13:46:55.233Z</time></trkpt><trkpt lat="46.1085489" lon="13.4743988"><ele>132.0</ele><time>2026-04-24T13:46:56.233Z</time></trkpt><trkpt lat="46.1083853" lon="13.4743821"><ele>132.33333333333334</ele><time>2026-04-24T13:46:57.232Z</time></trkpt><trkpt lat="46.1082186" lon="13.4743582"><ele>132.66666666666669</ele><time>2026-04-24T13:46:58.232Z</time></trkpt><trkpt lat="46.1080513" lon="13.474331"><ele>133.0</ele><time>2026-04-24T13:46:59.232Z</time></trkpt><trkpt lat="46.107883" lon="13.4743109"><ele>133.0</ele><time>2026-04-24T13:47:00.232Z</time></trkpt><trkpt lat="46.1077123" lon="13.4742871"><ele>133.0</ele><time>2026-04-24T13:47:01.234Z</time></trkpt><trkpt lat="46.1075422" lon="13.4742625"><ele>133.0</ele><time>2026-04-24T13:47:02.233Z</time></trkpt><trkpt lat="46.1073695" lon="13.4742375"><ele>134.66666666666669</ele><time>2026-04-24T13:47:03.233Z</time></trkpt><trkpt lat="46.107198" lon="13.4742145"><ele>136.33333333333334</ele><time>2026-04-24T13:47:04.234Z</time></trkpt><trkpt lat="46.1070219" lon="13.4741971"><ele>138.0</ele><time>2026-04-24T13:47:05.233Z</time></trkpt><trkpt lat="46.1068435" lon="13.4741762"><ele>138.0</ele><time>2026-04-24T13:47:06.234Z</time></trkpt><trkpt lat="46.1066673" lon="13.4741426"><ele>138.0</ele><time>2026-04-24T13:47:07.232Z</time></trkpt><trkpt lat="46.1064975" lon="13.4740825"><ele>138.0</ele><time>2026-04-24T13:47:08.234Z</time></trkpt><trkpt lat="46.1063343" lon="13.4739926"><ele>138.66666666666666</ele><time>2026-04-24T13:47:09.233Z</time></trkpt><trkpt lat="46.1061823" lon="13.4738789"><ele>139.33333333333331</ele><time>2026-04-24T13:47:10.233Z</time></trkpt><trkpt lat="46.1060442" lon="13.4737312"><ele>140.0</ele><time>2026-04-24T13:47:11.234Z</time></trkpt><trkpt lat="46.1059177" lon="13.4735539"><ele>140.0</ele><time>2026-04-24T13:47:12.233Z</time></trkpt><trkpt lat="46.1058098" lon="13.473352"><ele>140.0</ele><time>2026-04-24T13:47:13.234Z</time></trkpt><trkpt lat="46.1057053" lon="13.4731426"><ele>140.0</ele><time>2026-04-24T13:47:14.233Z</time></trkpt><trkpt lat="46.1056005" lon="13.4729276"><ele>142.0</ele><time>2026-04-24T13:47:15.232Z</time></trkpt><trkpt lat="46.1054917" lon="13.4727145"><ele>144.0</ele><time>2026-04-24T13:47:16.233Z</time></trkpt><trkpt lat="46.1053809" lon="13.4725049"><ele>146.0</ele><time>2026-04-24T13:47:17.232Z</time></trkpt><trkpt lat="46.1052725" lon="13.4722932"><ele>145.0</ele><time>2026-04-24T13:47:18.232Z</time></trkpt><trkpt lat="46.1051729" lon="13.4720895"><ele>144.0</ele><time>2026-04-24T13:47:19.233Z</time></trkpt><trkpt lat="46.1050784" lon="13.4719054"><ele>143.0</ele><time>2026-04-24T13:47:20.233Z</time></trkpt><trkpt lat="46.1049724" lon="13.4717401"><ele>144.33333333333331</ele><time>2026-04-24T13:47:21.232Z</time></trkpt><trkpt lat="46.1048451" lon="13.4716008"><ele>145.66666666666666</ele><time>2026-04-24T13:47:22.232Z</time></trkpt><trkpt lat="46.1047053" lon="13.4714772"><ele>147.0</ele><time>2026-04-24T13:47:23.233Z</time></trkpt><trkpt lat="46.1045633" lon="13.471363"><ele>147.0</ele><time>2026-04-24T13:47:24.234Z</time></trkpt><trkpt lat="46.1044223" lon="13.4712593"><ele>147.0</ele><time>2026-04-24T13:47:25.233Z</time></trkpt><trkpt lat="46.1042812" lon="13.4711578"><ele>147.0</ele><time>2026-04-24T13:47:26.233Z</time></trkpt><trkpt lat="46.104142" lon="13.4710615"><ele>147.0</ele><time>2026-04-24T13:47:27.234Z</time></trkpt><trkpt lat="46.1040032" lon="13.4709632"><ele>147.0</ele><time>2026-04-24T13:47:28.234Z</time></trkpt><trkpt lat="46.1038617" lon="13.4708619"><ele>147.0</ele><time>2026-04-24T13:47:29.234Z</time></trkpt><trkpt lat="46.1037218" lon="13.4707535"><ele>147.0</ele><time>2026-04-24T13:47:30.234Z</time></trkpt><trkpt lat="46.1035884" lon="13.4706434"><ele>147.0</ele><time>2026-04-24T13:47:31.234Z</time></trkpt><trkpt lat="46.1034616" lon="13.4705207"><ele>147.0</ele><time>2026-04-24T13:47:32.234Z</time></trkpt><trkpt lat="46.1033434" lon="13.4703858"><ele>146.66666666666666</ele><time>2026-04-24T13:47:33.233Z</time></trkpt><trkpt lat="46.10323" lon="13.4702434"><ele>146.33333333333331</ele><time>2026-04-24T13:47:34.233Z</time></trkpt><trkpt lat="46.1031117" lon="13.4701024"><ele>146.0</ele><time>2026-04-24T13:47:35.233Z</time></trkpt><trkpt lat="46.1029948" lon="13.4699602"><ele>146.0</ele><time>2026-04-24T13:47:36.233Z</time></trkpt><trkpt lat="46.1028813" lon="13.4698131"><ele>146.0</ele><time>2026-04-24T13:47:37.233Z</time></trkpt><trkpt lat="46.1027753" lon="13.4696554"><ele>146.0</ele><time>2026-04-24T13:47:38.233Z</time></trkpt><trkpt lat="46.1026768" lon="13.4694847"><ele>146.0</ele><time>2026-04-24T13:47:39.233Z</time></trkpt><trkpt lat="46.1025868" lon="13.4693096"><ele>146.0</ele><time>2026-04-24T13:47:40.234Z</time></trkpt><trkpt lat="46.1025015" lon="13.4691292"><ele>146.0</ele><time>2026-04-24T13:47:41.232Z</time></trkpt><trkpt lat="46.1024206" lon="13.4689401"><ele>146.0</ele><time>2026-04-24T13:47:42.233Z</time></trkpt><trkpt lat="46.1023401" lon="13.4687508"><ele>146.0</ele><time>2026-04-24T13:47:43.232Z</time></trkpt><trkpt lat="46.1022592" lon="13.4685615"><ele>146.0</ele><time>2026-04-24T13:47:44.233Z</time></trkpt><trkpt lat="46.1021766" lon="13.4683753"><ele>146.0</ele><time>2026-04-24T13:47:45.233Z</time></trkpt><trkpt lat="46.1020939" lon="13.4681872"><ele>146.0</ele><time>2026-04-24T13:47:46.234Z</time></trkpt><trkpt lat="46.1020141" lon="13.467999"><ele>146.0</ele><time>2026-04-24T13:47:47.233Z</time></trkpt><trkpt lat="46.1019307" lon="13.4678086"><ele>146.0</ele><time>2026-04-24T13:47:48.233Z</time></trkpt><trkpt lat="46.1018482" lon="13.4676173"><ele>146.0</ele><time>2026-04-24T13:47:49.234Z</time></trkpt><trkpt lat="46.1017697" lon="13.4674314"><ele>146.0</ele><time>2026-04-24T13:47:50.233Z</time></trkpt><trkpt lat="46.101703" lon="13.4672696"><ele>146.0</ele><time>2026-04-24T13:47:51.233Z</time></trkpt><trkpt lat="46.1016498" lon="13.467138"><ele>145.66666666666666</ele><time>2026-04-24T13:47:52.232Z</time></trkpt><trkpt lat="46.1016026" lon="13.4670304"><ele>145.33333333333331</ele><time>2026-04-24T13:47:53.234Z</time></trkpt><trkpt lat="46.1015662" lon="13.4669481"><ele>145.0</ele><time>2026-04-24T13:47:54.234Z</time></trkpt><trkpt lat="46.1015011" lon="13.4668439"><ele>144.66666666666666</ele><time>2026-04-24T13:47:56.232Z</time></trkpt><trkpt lat="46.1014088" lon="13.4668609"><ele>144.33333333333334</ele><time>2026-04-24T13:47:58.232Z</time></trkpt><trkpt lat="46.1013437" lon="13.4669134"><ele>144.0</ele><time>2026-04-24T13:47:59.234Z</time></trkpt><trkpt lat="46.1012648" lon="13.4669819"><ele>144.0</ele><time>2026-04-24T13:48:00.232Z</time></trkpt><trkpt lat="46.1011872" lon="13.4670498"><ele>144.0</ele><time>2026-04-24T13:48:01.232Z</time></trkpt><trkpt lat="46.1011105" lon="13.4671303"><ele>144.0</ele><time>2026-04-24T13:48:02.232Z</time></trkpt><trkpt lat="46.1010367" lon="13.4672192"><ele>144.0</ele><time>2026-04-24T13:48:03.233Z</time></trkpt><trkpt lat="46.10097" lon="13.4673269"><ele>144.0</ele><time>2026-04-24T13:48:04.234Z</time></trkpt><trkpt lat="46.1009055" lon="13.4674469"><ele>144.33333333333334</ele><time>2026-04-24T13:48:05.233Z</time></trkpt><trkpt lat="46.1008448" lon="13.4675687"><ele>144.66666666666666</ele><time>2026-04-24T13:48:06.233Z</time></trkpt><trkpt lat="46.1007976" lon="13.4676826"><ele>145.0</ele><time>2026-04-24T13:48:07.234Z</time></trkpt><trkpt lat="46.1007645" lon="13.4677958"><ele>145.33333333333331</ele><time>2026-04-24T13:48:08.233Z</time></trkpt><trkpt lat="46.1007447" lon="13.467908"><ele>145.66666666666666</ele><time>2026-04-24T13:48:09.234Z</time></trkpt><trkpt lat="46.1007395" lon="13.4680139"><ele>146.0</ele><time>2026-04-24T13:48:10.232Z</time></trkpt><trkpt lat="46.1007481" lon="13.4681147"><ele>146.16666666666666</ele><time>2026-04-24T13:48:11.234Z</time></trkpt><trkpt lat="46.100762" lon="13.4682176"><ele>146.33333333333331</ele><time>2026-04-24T13:48:12.233Z</time></trkpt><trkpt lat="46.1007785" lon="13.4683245"><ele>146.5</ele><time>2026-04-24T13:48:13.234Z</time></trkpt><trkpt lat="46.1008016" lon="13.4684349"><ele>146.66666666666666</ele><time>2026-04-24T13:48:14.233Z</time></trkpt><trkpt lat="46.1008284" lon="13.4685434"><ele>146.83333333333334</ele><time>2026-04-24T13:48:15.234Z</time></trkpt><trkpt lat="46.1008576" lon="13.4686547"><ele>147.0</ele><time>2026-04-24T13:48:16.232Z</time></trkpt><trkpt lat="46.10089" lon="13.4687669"><ele>146.83333333333334</ele><time>2026-04-24T13:48:17.233Z</time></trkpt><trkpt lat="46.1009268" lon="13.4688866"><ele>146.66666666666666</ele><time>2026-04-24T13:48:18.233Z</time></trkpt><trkpt lat="46.1009615" lon="13.469005"><ele>146.5</ele><time>2026-04-24T13:48:19.234Z</time></trkpt><trkpt lat="46.1009903" lon="13.4691127"><ele>146.33333333333331</ele><time>2026-04-24T13:48:20.232Z</time></trkpt><trkpt lat="46.101006" lon="13.4692201"><ele>146.16666666666666</ele><time>2026-04-24T13:48:21.233Z</time></trkpt><trkpt lat="46.1010064" lon="13.4693321"><ele>146.0</ele><time>2026-04-24T13:48:22.233Z</time></trkpt><trkpt lat="46.1009979" lon="13.4694465"><ele>146.0</ele><time>2026-04-24T13:48:23.234Z</time></trkpt><trkpt lat="46.1009744" lon="13.469557"><ele>146.0</ele><time>2026-04-24T13:48:24.233Z</time></trkpt><trkpt lat="46.1009405" lon="13.4696643"><ele>146.0</ele><time>2026-04-24T13:48:25.234Z</time></trkpt><trkpt lat="46.1008927" lon="13.4697692"><ele>146.0</ele><time>2026-04-24T13:48:26.232Z</time></trkpt><trkpt lat="46.1008367" lon="13.4698679"><ele>146.0</ele><time>2026-04-24T13:48:27.233Z</time></trkpt><trkpt lat="46.1007809" lon="13.469963"><ele>146.0</ele><time>2026-04-24T13:48:28.233Z</time></trkpt><trkpt lat="46.1007223" lon="13.4700558"><ele>145.83333333333331</ele><time>2026-04-24T13:48:29.233Z</time></trkpt><trkpt lat="46.1006665" lon="13.4701512"><ele>145.66666666666666</ele><time>2026-04-24T13:48:30.232Z</time></trkpt><trkpt lat="46.1006194" lon="13.4702473"><ele>145.5</ele><time>2026-04-24T13:48:31.234Z</time></trkpt><trkpt lat="46.1005826" lon="13.4703364"><ele>145.33333333333334</ele><time>2026-04-24T13:48:32.233Z</time></trkpt><trkpt lat="46.1005631" lon="13.470423"><ele>145.16666666666669</ele><time>2026-04-24T13:48:33.233Z</time></trkpt><trkpt lat="46.1005639" lon="13.4705924"><ele>145.0</ele><time>2026-04-24T13:48:35.233Z</time></trkpt><trkpt lat="46.1006166" lon="13.4707122"><ele>145.4</ele><time>2026-04-24T13:48:37.233Z</time></trkpt><trkpt lat="46.1006634" lon="13.4707745"><ele>145.8</ele><time>2026-04-24T13:48:38.233Z</time></trkpt><trkpt lat="46.1007645" lon="13.4708578"><ele>146.2</ele><time>2026-04-24T13:48:40.234Z</time></trkpt><trkpt lat="46.1008615" lon="13.4709517"><ele>146.6</ele><time>2026-04-24T13:48:42.233Z</time></trkpt><trkpt lat="46.1009514" lon="13.4710443"><ele>147.0</ele><time>2026-04-24T13:48:44.232Z</time></trkpt><trkpt lat="46.101046" lon="13.471137"><ele>147.0</ele><time>2026-04-24T13:48:46.233Z</time></trkpt><trkpt lat="46.1011417" lon="13.4712274"><ele>147.0</ele><time>2026-04-24T13:48:48.233Z</time></trkpt><trkpt lat="46.1011937" lon="13.4713206"><ele>147.0</ele><time>2026-04-24T13:48:50.233Z</time></trkpt><trkpt lat="46.1011994" lon="13.4714341"><ele>147.0</ele><time>2026-04-24T13:48:52.234Z</time></trkpt><trkpt lat="46.1011687" lon="13.4715762"><ele>147.0</ele><time>2026-04-24T13:48:54.233Z</time></trkpt><trkpt lat="46.1011403" lon="13.4717486"><ele>147.42857142857142</ele><time>2026-04-24T13:48:56.232Z</time></trkpt><trkpt lat="46.1011235" lon="13.471838"><ele>147.85714285714286</ele><time>2026-04-24T13:48:57.233Z</time></trkpt><trkpt lat="46.1011004" lon="13.4719377"><ele>148.28571428571428</ele><time>2026-04-24T13:48:58.232Z</time></trkpt><trkpt lat="46.1010716" lon="13.4720436"><ele>148.71428571428572</ele><time>2026-04-24T13:48:59.234Z</time></trkpt><trkpt lat="46.1010446" lon="13.4721532"><ele>149.14285714285714</ele><time>2026-04-24T13:49:00.234Z</time></trkpt><trkpt lat="46.101017" lon="13.472262"><ele>149.57142857142856</ele><time>2026-04-24T13:49:01.233Z</time></trkpt><trkpt lat="46.1009924" lon="13.472358"><ele>150.0</ele><time>2026-04-24T13:49:02.233Z</time></trkpt><trkpt lat="46.1009649" lon="13.4724888"><ele>150.16666666666666</ele><time>2026-04-24T13:49:04.232Z</time></trkpt><trkpt lat="46.1009778" lon="13.4726207"><ele>150.33333333333334</ele><time>2026-04-24T13:49:09.234Z</time></trkpt><trkpt lat="46.1010504" lon="13.4727415"><ele>150.5</ele><time>2026-04-24T13:49:11.233Z</time></trkpt><trkpt lat="46.1010875" lon="13.4728169"><ele>150.66666666666669</ele><time>2026-04-24T13:49:12.234Z</time></trkpt><trkpt lat="46.1011219" lon="13.4728956"><ele>150.83333333333334</ele><time>2026-04-24T13:49:13.233Z</time></trkpt><trkpt lat="46.101152" lon="13.4729815"><ele>151.0</ele><time>2026-04-24T13:49:14.233Z</time></trkpt><trkpt lat="46.1011798" lon="13.4730753"><ele>151.5</ele><time>2026-04-24T13:49:15.232Z</time></trkpt><trkpt lat="46.1012019" lon="13.4731623"><ele>152.0</ele><time>2026-04-24T13:49:16.232Z</time></trkpt><trkpt lat="46.1012331" lon="13.4732431"><ele>152.5</ele><time>2026-04-24T13:49:17.234Z</time></trkpt><trkpt lat="46.1012625" lon="13.4733267"><ele>153.0</ele><time>2026-04-24T13:49:18.232Z</time></trkpt><trkpt lat="46.1013074" lon="13.4733991"><ele>153.5</ele><time>2026-04-24T13:49:19.233Z</time></trkpt><trkpt lat="46.1014002" lon="13.4735099"><ele>154.0</ele><time>2026-04-24T13:49:21.233Z</time></trkpt><trkpt lat="46.1014927" lon="13.4736088"><ele>154.0</ele><time>2026-04-24T13:49:23.233Z</time></trkpt><trkpt lat="46.1015709" lon="13.4736952"><ele>154.0</ele><time>2026-04-24T13:49:25.233Z</time></trkpt><trkpt lat="46.1016771" lon="13.4737241"><ele>154.0</ele><time>2026-04-24T13:49:27.233Z</time></trkpt><trkpt lat="46.1017945" lon="13.4737353"><ele>154.0</ele><time>2026-04-24T13:49:29.232Z</time></trkpt><trkpt lat="46.1019107" lon="13.4737381"><ele>154.0</ele><time>2026-04-24T13:49:31.233Z</time></trkpt><trkpt lat="46.1020247" lon="13.4737464"><ele>154.2</ele><time>2026-04-24T13:49:33.232Z</time></trkpt><trkpt lat="46.10214" lon="13.4737645"><ele>154.4</ele><time>2026-04-24T13:49:35.233Z</time></trkpt><trkpt lat="46.1022542" lon="13.473817"><ele>154.6</ele><time>2026-04-24T13:49:37.233Z</time></trkpt><trkpt lat="46.102372" lon="13.4738774"><ele>154.8</ele><time>2026-04-24T13:49:39.232Z</time></trkpt><trkpt lat="46.1024315" lon="13.4739095"><ele>155.0</ele><time>2026-04-24T13:49:40.232Z</time></trkpt><trkpt lat="46.1025277" lon="13.4739566"><ele>155.2</ele><time>2026-04-24T13:49:42.232Z</time></trkpt><trkpt lat="46.1025988" lon="13.4739541"><ele>155.4</ele><time>2026-04-24T13:49:45.232Z</time></trkpt><trkpt lat="46.1027005" lon="13.4738439"><ele>155.6</ele><time>2026-04-24T13:49:47.232Z</time></trkpt><trkpt lat="46.1027619" lon="13.4737692"><ele>155.8</ele><time>2026-04-24T13:49:48.232Z</time></trkpt><trkpt lat="46.1028316" lon="13.4736916"><ele>156.0</ele><time>2026-04-24T13:49:49.232Z</time></trkpt><trkpt lat="46.1028949" lon="13.4735979"><ele>155.4</ele><time>2026-04-24T13:49:50.233Z</time></trkpt><trkpt lat="46.10295" lon="13.4734936"><ele>154.8</ele><time>2026-04-24T13:49:51.231Z</time></trkpt><trkpt lat="46.1030041" lon="13.4733779"><ele>154.20000000000002</ele><time>2026-04-24T13:49:52.231Z</time></trkpt><trkpt lat="46.1030541" lon="13.4732524"><ele>153.6</ele><time>2026-04-24T13:49:53.232Z</time></trkpt><trkpt lat="46.1031052" lon="13.47313"><ele>153.0</ele><time>2026-04-24T13:49:54.233Z</time></trkpt><trkpt lat="46.1031602" lon="13.473006"><ele>152.6</ele><time>2026-04-24T13:49:55.231Z</time></trkpt><trkpt lat="46.1032129" lon="13.4728757"><ele>152.20000000000002</ele><time>2026-04-24T13:49:56.231Z</time></trkpt><trkpt lat="46.1032579" lon="13.4727341"><ele>151.8</ele><time>2026-04-24T13:49:57.232Z</time></trkpt><trkpt lat="46.1032979" lon="13.4725821"><ele>151.4</ele><time>2026-04-24T13:49:58.231Z</time></trkpt><trkpt lat="46.1033385" lon="13.4724218"><ele>151.0</ele><time>2026-04-24T13:49:59.233Z</time></trkpt><trkpt lat="46.1033806" lon="13.4722592"><ele>150.25</ele><time>2026-04-24T13:50:00.233Z</time></trkpt><trkpt lat="46.1034224" lon="13.4720902"><ele>149.5</ele><time>2026-04-24T13:50:01.231Z</time></trkpt><trkpt lat="46.103464" lon="13.4719173"><ele>148.75</ele><time>2026-04-24T13:50:02.232Z</time></trkpt><trkpt lat="46.1034998" lon="13.4717475"><ele>148.0</ele><time>2026-04-24T13:50:03.231Z</time></trkpt><trkpt lat="46.1035314" lon="13.4715942"><ele>148.0</ele><time>2026-04-24T13:50:04.232Z</time></trkpt><trkpt lat="46.1035663" lon="13.4714424"><ele>148.0</ele><time>2026-04-24T13:50:05.232Z</time></trkpt><trkpt lat="46.1036036" lon="13.4713007"><ele>148.0</ele><time>2026-04-24T13:50:06.233Z</time></trkpt><trkpt lat="46.1036404" lon="13.4711822"><ele>148.0</ele><time>2026-04-24T13:50:07.231Z</time></trkpt><trkpt lat="46.1036758" lon="13.4710921"><ele>148.0</ele><time>2026-04-24T13:50:08.232Z</time></trkpt><trkpt lat="46.1037061" lon="13.4710125"><ele>148.0</ele><time>2026-04-24T13:50:09.232Z</time></trkpt><trkpt lat="46.1037451" lon="13.4709133"><ele>147.83333333333334</ele><time>2026-04-24T13:50:11.233Z</time></trkpt><trkpt lat="46.1037785" lon="13.47083"><ele>147.66666666666669</ele><time>2026-04-24T13:50:22.231Z</time></trkpt><trkpt lat="46.1038163" lon="13.4707425"><ele>147.5</ele><time>2026-04-24T13:50:24.232Z</time></trkpt><trkpt lat="46.1038553" lon="13.4706626"><ele>147.33333333333334</ele><time>2026-04-24T13:50:27.233Z</time></trkpt><trkpt lat="46.1038986" lon="13.4705639"><ele>147.16666666666666</ele><time>2026-04-24T13:50:29.231Z</time></trkpt><trkpt lat="46.1039569" lon="13.4704363"><ele>147.0</ele><time>2026-04-24T13:50:31.232Z</time></trkpt><trkpt lat="46.1040086" lon="13.4703102"><ele>147.0</ele><time>2026-04-24T13:50:33.231Z</time></trkpt><trkpt lat="46.1040676" lon="13.470176"><ele>147.0</ele><time>2026-04-24T13:50:35.232Z</time></trkpt><trkpt lat="46.1041277" lon="13.4700316"><ele>147.0</ele><time>2026-04-24T13:50:37.231Z</time></trkpt><trkpt lat="46.1041925" lon="13.4698859"><ele>147.0</ele><time>2026-04-24T13:50:39.232Z</time></trkpt><trkpt lat="46.1042523" lon="13.469735"><ele>146.79999999999998</ele><time>2026-04-24T13:50:41.231Z</time></trkpt><trkpt lat="46.1043153" lon="13.4695917"><ele>146.6</ele><time>2026-04-24T13:50:43.232Z</time></trkpt><trkpt lat="46.1043775" lon="13.4694539"><ele>146.39999999999998</ele><time>2026-04-24T13:50:45.232Z</time></trkpt><trkpt lat="46.1044252" lon="13.4693154"><ele>146.2</ele><time>2026-04-24T13:50:47.232Z</time></trkpt><trkpt lat="46.1044588" lon="13.469181"><ele>146.0</ele><time>2026-04-24T13:50:49.233Z</time></trkpt><trkpt lat="46.1044743" lon="13.4690562"><ele>146.0</ele><time>2026-04-24T13:50:51.232Z</time></trkpt><trkpt lat="46.104478" lon="13.4689229"><ele>146.0</ele><time>2026-04-24T13:50:53.231Z</time></trkpt><trkpt lat="46.1044728" lon="13.4687857"><ele>146.0</ele><time>2026-04-24T13:50:55.232Z</time></trkpt><trkpt lat="46.1044779" lon="13.4686421"><ele>146.0</ele><time>2026-04-24T13:50:57.231Z</time></trkpt><trkpt lat="46.1045013" lon="13.4684975"><ele>146.0</ele><time>2026-04-24T13:50:59.232Z</time></trkpt><trkpt lat="46.1045434" lon="13.4683599"><ele>145.8</ele><time>2026-04-24T13:51:01.232Z</time></trkpt><trkpt lat="46.1045935" lon="13.4682265"><ele>145.6</ele><time>2026-04-24T13:51:03.232Z</time></trkpt><trkpt lat="46.1046144" lon="13.4680802"><ele>145.4</ele><time>2026-04-24T13:51:05.231Z</time></trkpt><trkpt lat="46.1046062" lon="13.4679364"><ele>145.2</ele><time>2026-04-24T13:51:07.232Z</time></trkpt><trkpt lat="46.1045767" lon="13.4677873"><ele>145.0</ele><time>2026-04-24T13:51:09.232Z</time></trkpt><trkpt lat="46.1045349" lon="13.4676357"><ele>144.66666666666669</ele><time>2026-04-24T13:51:11.232Z</time></trkpt><trkpt lat="46.1044878" lon="13.467492"><ele>144.33333333333334</ele><time>2026-04-24T13:51:13.232Z</time></trkpt><trkpt lat="46.1044293" lon="13.4673404"><ele>144.0</ele><time>2026-04-24T13:51:15.232Z</time></trkpt><trkpt lat="46.1044002" lon="13.4672598"><ele>143.66666666666666</ele><time>2026-04-24T13:51:16.232Z</time></trkpt><trkpt lat="46.1043718" lon="13.4671777"><ele>143.33333333333331</ele><time>2026-04-24T13:51:17.233Z</time></trkpt><trkpt lat="46.1043474" lon="13.4670926"><ele>143.0</ele><time>2026-04-24T13:51:18.233Z</time></trkpt><trkpt lat="46.104324" lon="13.4670052"><ele>142.99999999999997</ele><time>2026-04-24T13:51:19.233Z</time></trkpt><trkpt lat="46.1043043" lon="13.4669148"><ele>143.0</ele><time>2026-04-24T13:51:20.233Z</time></trkpt><trkpt lat="46.1042922" lon="13.4668233"><ele>143.0</ele><time>2026-04-24T13:51:21.232Z</time></trkpt><trkpt lat="46.1042801" lon="13.4667304"><ele>143.0</ele><time>2026-04-24T13:51:22.232Z</time></trkpt><trkpt lat="46.1042698" lon="13.4666341"><ele>143.0</ele><time>2026-04-24T13:51:23.232Z</time></trkpt><trkpt lat="46.1042631" lon="13.4665408"><ele>142.99999999999997</ele><time>2026-04-24T13:51:24.233Z</time></trkpt><trkpt lat="46.1042618" lon="13.4664475"><ele>143.0</ele><time>2026-04-24T13:51:25.231Z</time></trkpt><trkpt lat="46.1042508" lon="13.4663557"><ele>142.83333333333331</ele><time>2026-04-24T13:51:26.232Z</time></trkpt><trkpt lat="46.1042363" lon="13.466263"><ele>142.66666666666666</ele><time>2026-04-24T13:51:27.231Z</time></trkpt><trkpt lat="46.1041655" lon="13.4661062"><ele>142.5</ele><time>2026-04-24T13:51:29.232Z</time></trkpt><trkpt lat="46.1041113" lon="13.4660353"><ele>142.33333333333334</ele><time>2026-04-24T13:51:30.232Z</time></trkpt><trkpt lat="46.1040515" lon="13.4659608"><ele>142.16666666666669</ele><time>2026-04-24T13:51:31.233Z</time></trkpt><trkpt lat="46.1039939" lon="13.465882"><ele>142.0</ele><time>2026-04-24T13:51:32.231Z</time></trkpt><trkpt lat="46.1039423" lon="13.4657957"><ele>142.0</ele><time>2026-04-24T13:51:33.233Z</time></trkpt><trkpt lat="46.1038886" lon="13.4657159"><ele>142.0</ele><time>2026-04-24T13:51:34.232Z</time></trkpt><trkpt lat="46.1038367" lon="13.4656352"><ele>142.0</ele><time>2026-04-24T13:51:35.232Z</time></trkpt><trkpt lat="46.1037887" lon="13.4655528"><ele>142.0</ele><time>2026-04-24T13:51:36.232Z</time></trkpt><trkpt lat="46.1037504" lon="13.465466"><ele>142.0</ele><time>2026-04-24T13:51:37.231Z</time></trkpt><trkpt lat="46.103713" lon="13.4653767"><ele>142.0</ele><time>2026-04-24T13:51:38.232Z</time></trkpt><trkpt lat="46.1036779" lon="13.4652923"><ele>142.0</ele><time>2026-04-24T13:51:39.231Z</time></trkpt><trkpt lat="46.1036475" lon="13.4652019"><ele>142.14285714285714</ele><time>2026-04-24T13:51:40.232Z</time></trkpt><trkpt lat="46.1036172" lon="13.4651101"><ele>142.28571428571428</ele><time>2026-04-24T13:51:41.233Z</time></trkpt><trkpt lat="46.1035923" lon="13.4650191"><ele>142.42857142857142</ele><time>2026-04-24T13:51:42.231Z</time></trkpt><trkpt lat="46.1035703" lon="13.4649253"><ele>142.57142857142856</ele><time>2026-04-24T13:51:43.231Z</time></trkpt><trkpt lat="46.1035478" lon="13.4648302"><ele>142.71428571428572</ele><time>2026-04-24T13:51:44.231Z</time></trkpt><trkpt lat="46.1035332" lon="13.4647309"><ele>142.85714285714283</ele><time>2026-04-24T13:51:45.233Z</time></trkpt><trkpt lat="46.103523" lon="13.4646291"><ele>143.0</ele><time>2026-04-24T13:51:46.233Z</time></trkpt><trkpt lat="46.1035116" lon="13.4645259"><ele>142.99999999999997</ele><time>2026-04-24T13:51:47.233Z</time></trkpt><trkpt lat="46.1035065" lon="13.4644214"><ele>143.0</ele><time>2026-04-24T13:51:48.232Z</time></trkpt><trkpt lat="46.1035071" lon="13.4643149"><ele>143.0</ele><time>2026-04-24T13:51:49.232Z</time></trkpt><trkpt lat="46.1035122" lon="13.4642101"><ele>143.0</ele><time>2026-04-24T13:51:50.233Z</time></trkpt><trkpt lat="46.1035157" lon="13.4641022"><ele>143.0</ele><time>2026-04-24T13:51:51.232Z</time></trkpt><trkpt lat="46.1035227" lon="13.463994"><ele>142.99999999999997</ele><time>2026-04-24T13:51:52.232Z</time></trkpt><trkpt lat="46.1035347" lon="13.463885"><ele>143.0</ele><time>2026-04-24T13:51:53.232Z</time></trkpt><trkpt lat="46.1035501" lon="13.4637801"><ele>143.0</ele><time>2026-04-24T13:51:54.232Z</time></trkpt><trkpt lat="46.1035759" lon="13.4636752"><ele>143.0</ele><time>2026-04-24T13:51:55.232Z</time></trkpt><trkpt lat="46.1036036" lon="13.4635774"><ele>143.0</ele><time>2026-04-24T13:51:56.232Z</time></trkpt><trkpt lat="46.1036258" lon="13.4634737"><ele>143.0</ele><time>2026-04-24T13:51:57.232Z</time></trkpt><trkpt lat="46.1036434" lon="13.4633734"><ele>143.0</ele><time>2026-04-24T13:51:58.232Z</time></trkpt><trkpt lat="46.1036541" lon="13.4632785"><ele>143.0</ele><time>2026-04-24T13:51:59.232Z</time></trkpt><trkpt lat="46.103637" lon="13.4631479"><ele>143.0</ele><time>2026-04-24T13:52:01.231Z</time></trkpt><trkpt lat="46.1035993" lon="13.4630565"><ele>143.0</ele><time>2026-04-24T13:52:03.231Z</time></trkpt><trkpt lat="46.1035719" lon="13.4629245"><ele>143.0</ele><time>2026-04-24T13:52:05.233Z</time></trkpt><trkpt lat="46.1035584" lon="13.462758"><ele>143.0</ele><time>2026-04-24T13:52:07.232Z</time></trkpt><trkpt lat="46.1035465" lon="13.4626631"><ele>143.0</ele><time>2026-04-24T13:52:08.231Z</time></trkpt><trkpt lat="46.1035287" lon="13.4625741"><ele>143.0</ele><time>2026-04-24T13:52:09.232Z</time></trkpt><trkpt lat="46.1034987" lon="13.4624088"><ele>143.0</ele><time>2026-04-24T13:52:11.232Z</time></trkpt><trkpt lat="46.1034889" lon="13.4622638"><ele>143.0</ele><time>2026-04-24T13:52:13.232Z</time></trkpt><trkpt lat="46.10349" lon="13.4621181"><ele>143.0</ele><time>2026-04-24T13:52:15.231Z</time></trkpt><trkpt lat="46.1034892" lon="13.4619802"><ele>143.0</ele><time>2026-04-24T13:52:17.231Z</time></trkpt><trkpt lat="46.1034726" lon="13.4618367"><ele>143.0</ele><time>2026-04-24T13:52:19.231Z</time></trkpt><trkpt lat="46.103447" lon="13.4616902"><ele>142.75</ele><time>2026-04-24T13:52:21.232Z</time></trkpt><trkpt lat="46.1034283" lon="13.4615216"><ele>142.5</ele><time>2026-04-24T13:52:23.231Z</time></trkpt><trkpt lat="46.1034079" lon="13.4613486"><ele>142.25</ele><time>2026-04-24T13:52:25.23Z</time></trkpt><trkpt lat="46.1033802" lon="13.4611727"><ele>142.0</ele><time>2026-04-24T13:52:27.231Z</time></trkpt><trkpt lat="46.1033355" lon="13.4610108"><ele>141.79999999999998</ele><time>2026-04-24T13:52:29.232Z</time></trkpt><trkpt lat="46.1032706" lon="13.4608739"><ele>141.6</ele><time>2026-04-24T13:52:31.23Z</time></trkpt><trkpt lat="46.1032009" lon="13.4607459"><ele>141.39999999999998</ele><time>2026-04-24T13:52:33.232Z</time></trkpt><trkpt lat="46.1031432" lon="13.4606349"><ele>141.2</ele><time>2026-04-24T13:52:35.231Z</time></trkpt><trkpt lat="46.1030816" lon="13.4605241"><ele>141.0</ele><time>2026-04-24T13:52:37.231Z</time></trkpt><trkpt lat="46.1030214" lon="13.4603907"><ele>141.33333333333334</ele><time>2026-04-24T13:52:39.231Z</time></trkpt><trkpt lat="46.1029692" lon="13.4602364"><ele>141.66666666666666</ele><time>2026-04-24T13:52:41.231Z</time></trkpt><trkpt lat="46.1029161" lon="13.4600692"><ele>142.0</ele><time>2026-04-24T13:52:43.231Z</time></trkpt><trkpt lat="46.1028884" lon="13.4599813"><ele>142.33333333333331</ele><time>2026-04-24T13:52:44.23Z</time></trkpt><trkpt lat="46.1028587" lon="13.4598947"><ele>142.66666666666666</ele><time>2026-04-24T13:52:45.231Z</time></trkpt><trkpt lat="46.1028246" lon="13.4598098"><ele>143.0</ele><time>2026-04-24T13:52:46.232Z</time></trkpt><trkpt lat="46.1027854" lon="13.4597247"><ele>142.99999999999997</ele><time>2026-04-24T13:52:47.231Z</time></trkpt><trkpt lat="46.1027462" lon="13.4596447"><ele>143.0</ele><time>2026-04-24T13:52:48.231Z</time></trkpt><trkpt lat="46.1027024" lon="13.4595685"><ele>143.0</ele><time>2026-04-24T13:52:49.232Z</time></trkpt><trkpt lat="46.1026535" lon="13.4594986"><ele>143.0</ele><time>2026-04-24T13:52:50.23Z</time></trkpt><trkpt lat="46.1026054" lon="13.4594284"><ele>143.0</ele><time>2026-04-24T13:52:51.232Z</time></trkpt><trkpt lat="46.1025598" lon="13.4593562"><ele>142.99999999999997</ele><time>2026-04-24T13:52:52.232Z</time></trkpt><trkpt lat="46.1025179" lon="13.4592784"><ele>143.0</ele><time>2026-04-24T13:52:53.23Z</time></trkpt><trkpt lat="46.1024806" lon="13.4591938"><ele>142.83333333333331</ele><time>2026-04-24T13:52:54.232Z</time></trkpt><trkpt lat="46.1024427" lon="13.4591113"><ele>142.66666666666666</ele><time>2026-04-24T13:52:55.232Z</time></trkpt><trkpt lat="46.1024025" lon="13.4590329"><ele>142.5</ele><time>2026-04-24T13:52:56.232Z</time></trkpt><trkpt lat="46.1023613" lon="13.4589616"><ele>142.33333333333334</ele><time>2026-04-24T13:52:57.231Z</time></trkpt><trkpt lat="46.1022813" lon="13.4588203"><ele>142.16666666666669</ele><time>2026-04-24T13:52:59.231Z</time></trkpt><trkpt lat="46.1022134" lon="13.4586767"><ele>142.0</ele><time>2026-04-24T13:53:01.231Z</time></trkpt><trkpt lat="46.1021507" lon="13.458513"><ele>142.0</ele><time>2026-04-24T13:53:03.23Z</time></trkpt><trkpt lat="46.1021181" lon="13.4584308"><ele>142.0</ele><time>2026-04-24T13:53:04.231Z</time></trkpt><trkpt lat="46.1020871" lon="13.4583365"><ele>142.0</ele><time>2026-04-24T13:53:05.23Z</time></trkpt><trkpt lat="46.102054" lon="13.4582431"><ele>142.0</ele><time>2026-04-24T13:53:06.231Z</time></trkpt><trkpt lat="46.101994" lon="13.4580954"><ele>142.0</ele><time>2026-04-24T13:53:08.231Z</time></trkpt><trkpt lat="46.1019566" lon="13.4580106"><ele>142.0</ele><time>2026-04-24T13:53:09.232Z</time></trkpt><trkpt lat="46.1019265" lon="13.4579172"><ele>141.83333333333334</ele><time>2026-04-24T13:53:10.23Z</time></trkpt><trkpt lat="46.1018849" lon="13.4578306"><ele>141.66666666666669</ele><time>2026-04-24T13:53:11.231Z</time></trkpt><trkpt lat="46.101843" lon="13.4577479"><ele>141.5</ele><time>2026-04-24T13:53:12.232Z</time></trkpt><trkpt lat="46.1018035" lon="13.4576676"><ele>141.33333333333334</ele><time>2026-04-24T13:53:13.231Z</time></trkpt><trkpt lat="46.1017646" lon="13.4575942"><ele>141.16666666666666</ele><time>2026-04-24T13:53:14.23Z</time></trkpt><trkpt lat="46.1016852" lon="13.4574619"><ele>141.0</ele><time>2026-04-24T13:53:16.232Z</time></trkpt><trkpt lat="46.1016155" lon="13.4573282"><ele>141.16666666666666</ele><time>2026-04-24T13:53:18.232Z</time></trkpt><trkpt lat="46.1015498" lon="13.4571793"><ele>141.33333333333334</ele><time>2026-04-24T13:53:20.231Z</time></trkpt><trkpt lat="46.1015214" lon="13.4570966"><ele>141.5</ele><time>2026-04-24T13:53:21.231Z</time></trkpt><trkpt lat="46.1014926" lon="13.4570133"><ele>141.66666666666669</ele><time>2026-04-24T13:53:22.23Z</time></trkpt><trkpt lat="46.1014602" lon="13.4569317"><ele>141.83333333333334</ele><time>2026-04-24T13:53:23.23Z</time></trkpt><trkpt lat="46.1014245" lon="13.4568546"><ele>142.0</ele><time>2026-04-24T13:53:24.231Z</time></trkpt><trkpt lat="46.1013518" lon="13.4567087"><ele>142.0</ele><time>2026-04-24T13:53:26.231Z</time></trkpt><trkpt lat="46.1012723" lon="13.4565702"><ele>142.0</ele><time>2026-04-24T13:53:28.231Z</time></trkpt><trkpt lat="46.1012156" lon="13.4564437"><ele>142.0</ele><time>2026-04-24T13:53:30.231Z</time></trkpt><trkpt lat="46.1011646" lon="13.4563104"><ele>142.0</ele><time>2026-04-24T13:53:32.23Z</time></trkpt><trkpt lat="46.1011244" lon="13.4561455"><ele>142.0</ele><time>2026-04-24T13:53:34.231Z</time></trkpt><trkpt lat="46.1011064" lon="13.456058"><ele>142.0</ele><time>2026-04-24T13:53:35.232Z</time></trkpt><trkpt lat="46.101088" lon="13.4559662"><ele>142.0</ele><time>2026-04-24T13:53:36.23Z</time></trkpt><trkpt lat="46.1010698" lon="13.4558715"><ele>142.0</ele><time>2026-04-24T13:53:37.231Z</time></trkpt><trkpt lat="46.1010522" lon="13.4557754"><ele>142.0</ele><time>2026-04-24T13:53:38.23Z</time></trkpt><trkpt lat="46.1010317" lon="13.4556809"><ele>142.0</ele><time>2026-04-24T13:53:39.23Z</time></trkpt><trkpt lat="46.1010068" lon="13.455588"><ele>142.0</ele><time>2026-04-24T13:53:40.23Z</time></trkpt><trkpt lat="46.1009789" lon="13.4554967"><ele>141.28571428571428</ele><time>2026-04-24T13:53:41.231Z</time></trkpt><trkpt lat="46.1009524" lon="13.4554114"><ele>140.57142857142856</ele><time>2026-04-24T13:53:42.231Z</time></trkpt><trkpt lat="46.1009262" lon="13.4553287"><ele>139.85714285714286</ele><time>2026-04-24T13:53:43.231Z</time></trkpt><trkpt lat="46.1008945" lon="13.4552439"><ele>139.14285714285714</ele><time>2026-04-24T13:53:44.231Z</time></trkpt><trkpt lat="46.100861" lon="13.4551567"><ele>138.42857142857144</ele><time>2026-04-24T13:53:45.23Z</time></trkpt><trkpt lat="46.100825" lon="13.4550714"><ele>137.71428571428572</ele><time>2026-04-24T13:53:46.23Z</time></trkpt><trkpt lat="46.1007895" lon="13.4549843"><ele>137.0</ele><time>2026-04-24T13:53:47.23Z</time></trkpt><trkpt lat="46.1007556" lon="13.4548965"><ele>137.00000000000003</ele><time>2026-04-24T13:53:48.231Z</time></trkpt><trkpt lat="46.100719" lon="13.4548071"><ele>137.0</ele><time>2026-04-24T13:53:49.232Z</time></trkpt><trkpt lat="46.1006838" lon="13.4547169"><ele>137.0</ele><time>2026-04-24T13:53:50.232Z</time></trkpt><trkpt lat="46.1006478" lon="13.4546294"><ele>137.0</ele><time>2026-04-24T13:53:51.231Z</time></trkpt><trkpt lat="46.1006089" lon="13.4545437"><ele>137.0</ele><time>2026-04-24T13:53:52.231Z</time></trkpt><trkpt lat="46.1005662" lon="13.4544603"><ele>137.00000000000003</ele><time>2026-04-24T13:53:53.231Z</time></trkpt><trkpt lat="46.1005185" lon="13.4543821"><ele>137.0</ele><time>2026-04-24T13:53:54.23Z</time></trkpt><trkpt lat="46.100468" lon="13.4543107"><ele>137.00000000000003</ele><time>2026-04-24T13:53:55.232Z</time></trkpt><trkpt lat="46.1004198" lon="13.4542391"><ele>137.0</ele><time>2026-04-24T13:53:56.232Z</time></trkpt><trkpt lat="46.1003803" lon="13.4541646"><ele>137.0</ele><time>2026-04-24T13:53:57.232Z</time></trkpt><trkpt lat="46.1003475" lon="13.4540856"><ele>137.0</ele><time>2026-04-24T13:53:58.232Z</time></trkpt><trkpt lat="46.1003171" lon="13.4540035"><ele>137.0</ele><time>2026-04-24T13:53:59.23Z</time></trkpt><trkpt lat="46.1002881" lon="13.45392"><ele>137.00000000000003</ele><time>2026-04-24T13:54:00.23Z</time></trkpt><trkpt lat="46.1002544" lon="13.4538392"><ele>137.0</ele><time>2026-04-24T13:54:01.231Z</time></trkpt><trkpt lat="46.1002173" lon="13.4537643"><ele>136.42857142857144</ele><time>2026-04-24T13:54:02.231Z</time></trkpt><trkpt lat="46.1001787" lon="13.4536909"><ele>135.85714285714286</ele><time>2026-04-24T13:54:03.23Z</time></trkpt><trkpt lat="46.1001393" lon="13.453619"><ele>135.28571428571428</ele><time>2026-04-24T13:54:04.23Z</time></trkpt><trkpt lat="46.1001011" lon="13.4535459"><ele>134.71428571428572</ele><time>2026-04-24T13:54:05.23Z</time></trkpt><trkpt lat="46.100062" lon="13.4534721"><ele>134.14285714285714</ele><time>2026-04-24T13:54:06.23Z</time></trkpt><trkpt lat="46.1000241" lon="13.453396"><ele>133.57142857142858</ele><time>2026-04-24T13:54:07.23Z</time></trkpt><trkpt lat="46.0999822" lon="13.4533253"><ele>133.0</ele><time>2026-04-24T13:54:08.23Z</time></trkpt><trkpt lat="46.0999323" lon="13.453261"><ele>134.14285714285714</ele><time>2026-04-24T13:54:09.231Z</time></trkpt><trkpt lat="46.0998871" lon="13.4531916"><ele>135.28571428571428</ele><time>2026-04-24T13:54:10.23Z</time></trkpt><trkpt lat="46.0998508" lon="13.4531109"><ele>136.42857142857144</ele><time>2026-04-24T13:54:11.231Z</time></trkpt><trkpt lat="46.0998168" lon="13.4530267"><ele>137.57142857142856</ele><time>2026-04-24T13:54:12.23Z</time></trkpt><trkpt lat="46.0997856" lon="13.4529368"><ele>138.71428571428572</ele><time>2026-04-24T13:54:13.23Z</time></trkpt><trkpt lat="46.0997597" lon="13.4528406"><ele>139.85714285714286</ele><time>2026-04-24T13:54:14.23Z</time></trkpt><trkpt lat="46.0997302" lon="13.4527369"><ele>141.0</ele><time>2026-04-24T13:54:15.232Z</time></trkpt><trkpt lat="46.0996949" lon="13.4526306"><ele>141.0</ele><time>2026-04-24T13:54:16.232Z</time></trkpt><trkpt lat="46.0996582" lon="13.4525279"><ele>141.0</ele><time>2026-04-24T13:54:17.23Z</time></trkpt><trkpt lat="46.0996195" lon="13.4524257"><ele>141.0</ele><time>2026-04-24T13:54:18.231Z</time></trkpt><trkpt lat="46.099577" lon="13.4523229"><ele>141.0</ele><time>2026-04-24T13:54:19.23Z</time></trkpt><trkpt lat="46.0995302" lon="13.4522227"><ele>141.0</ele><time>2026-04-24T13:54:20.23Z</time></trkpt><trkpt lat="46.0994771" lon="13.4521263"><ele>141.0</ele><time>2026-04-24T13:54:21.231Z</time></trkpt><trkpt lat="46.0994158" lon="13.4520317"><ele>141.0</ele><time>2026-04-24T13:54:22.231Z</time></trkpt><trkpt lat="46.0993516" lon="13.4519371"><ele>141.0</ele><time>2026-04-24T13:54:23.23Z</time></trkpt><trkpt lat="46.0992855" lon="13.4518436"><ele>141.0</ele><time>2026-04-24T13:54:24.23Z</time></trkpt><trkpt lat="46.0992167" lon="13.4517484"><ele>141.0</ele><time>2026-04-24T13:54:25.23Z</time></trkpt><trkpt lat="46.0991468" lon="13.4516486"><ele>141.0</ele><time>2026-04-24T13:54:26.231Z</time></trkpt><trkpt lat="46.0990802" lon="13.4515416"><ele>140.4</ele><time>2026-04-24T13:54:27.231Z</time></trkpt><trkpt lat="46.0990123" lon="13.4514336"><ele>139.8</ele><time>2026-04-24T13:54:28.23Z</time></trkpt><trkpt lat="46.0989399" lon="13.451332"><ele>139.20000000000002</ele><time>2026-04-24T13:54:29.231Z</time></trkpt><trkpt lat="46.0988641" lon="13.4512357"><ele>138.6</ele><time>2026-04-24T13:54:30.23Z</time></trkpt><trkpt lat="46.0987881" lon="13.4511447"><ele>138.0</ele><time>2026-04-24T13:54:31.231Z</time></trkpt><trkpt lat="46.0987091" lon="13.4510647"><ele>138.0</ele><time>2026-04-24T13:54:32.232Z</time></trkpt><trkpt lat="46.0986292" lon="13.4509891"><ele>138.0</ele><time>2026-04-24T13:54:33.231Z</time></trkpt><trkpt lat="46.0985479" lon="13.4509245"><ele>138.0</ele><time>2026-04-24T13:54:34.232Z</time></trkpt><trkpt lat="46.0984704" lon="13.4508763"><ele>138.0</ele><time>2026-04-24T13:54:35.232Z</time></trkpt><trkpt lat="46.0983985" lon="13.4508426"><ele>138.0</ele><time>2026-04-24T13:54:36.231Z</time></trkpt><trkpt lat="46.0983326" lon="13.4508268"><ele>138.0</ele><time>2026-04-24T13:54:37.231Z</time></trkpt><trkpt lat="46.0982129" lon="13.4508516"><ele>138.28571428571428</ele><time>2026-04-24T13:54:39.231Z</time></trkpt><trkpt lat="46.0981546" lon="13.4508867"><ele>138.57142857142858</ele><time>2026-04-24T13:54:40.231Z</time></trkpt><trkpt lat="46.0980938" lon="13.4509332"><ele>138.85714285714286</ele><time>2026-04-24T13:54:41.232Z</time></trkpt><trkpt lat="46.0980314" lon="13.4509887"><ele>139.14285714285714</ele><time>2026-04-24T13:54:42.231Z</time></trkpt><trkpt lat="46.0979689" lon="13.4510497"><ele>139.42857142857144</ele><time>2026-04-24T13:54:43.232Z</time></trkpt><trkpt lat="46.0979089" lon="13.4511161"><ele>139.71428571428572</ele><time>2026-04-24T13:54:44.232Z</time></trkpt><trkpt lat="46.0978595" lon="13.4511898"><ele>140.0</ele><time>2026-04-24T13:54:45.232Z</time></trkpt><trkpt lat="46.0978205" lon="13.4512701"><ele>139.6</ele><time>2026-04-24T13:54:46.232Z</time></trkpt><trkpt lat="46.0977863" lon="13.4513476"><ele>139.2</ele><time>2026-04-24T13:54:47.231Z</time></trkpt><trkpt lat="46.0977263" lon="13.4514923"><ele>138.8</ele><time>2026-04-24T13:54:49.232Z</time></trkpt><trkpt lat="46.0976642" lon="13.4516258"><ele>138.4</ele><time>2026-04-24T13:54:51.232Z</time></trkpt><trkpt lat="46.097584" lon="13.451742"><ele>138.0</ele><time>2026-04-24T13:54:53.232Z</time></trkpt><trkpt lat="46.0974866" lon="13.451838"><ele>137.8</ele><time>2026-04-24T13:54:55.231Z</time></trkpt><trkpt lat="46.0973925" lon="13.4519252"><ele>137.60000000000002</ele><time>2026-04-24T13:54:57.231Z</time></trkpt><trkpt lat="46.0973342" lon="13.451986"><ele>137.39999999999998</ele><time>2026-04-24T13:54:59.231Z</time></trkpt><trkpt lat="46.0972465" lon="13.4519296"><ele>137.2</ele><time>2026-04-24T13:55:45.231Z</time></trkpt><trkpt lat="46.0972339" lon="13.4518303"><ele>137.0</ele><time>2026-04-24T13:55:46.23Z</time></trkpt><trkpt lat="46.0971424" lon="13.4515539"><ele>137.0</ele><time>2026-04-24T13:55:50.23Z</time></trkpt><trkpt lat="46.0970781" lon="13.4513999"><ele>137.0</ele><time>2026-04-24T13:55:52.23Z</time></trkpt><trkpt lat="46.0970447" lon="13.4513171"><ele>137.0</ele><time>2026-04-24T13:55:53.23Z</time></trkpt><trkpt lat="46.097008" lon="13.4512356"><ele>137.0</ele><time>2026-04-24T13:55:54.231Z</time></trkpt><trkpt lat="46.0969723" lon="13.4511602"><ele>137.0</ele><time>2026-04-24T13:55:55.231Z</time></trkpt><trkpt lat="46.0969048" lon="13.4510169"><ele>137.0</ele><time>2026-04-24T13:55:57.23Z</time></trkpt><trkpt lat="46.0968497" lon="13.4508595"><ele>137.33333333333331</ele><time>2026-04-24T13:55:59.229Z</time></trkpt><trkpt lat="46.0968038" lon="13.4506898"><ele>137.66666666666666</ele><time>2026-04-24T13:56:01.23Z</time></trkpt><trkpt lat="46.0967833" lon="13.4506"><ele>138.0</ele><time>2026-04-24T13:56:02.231Z</time></trkpt><trkpt lat="46.0967552" lon="13.4505131"><ele>138.33333333333334</ele><time>2026-04-24T13:56:03.229Z</time></trkpt><trkpt lat="46.0967248" lon="13.4504251"><ele>138.66666666666669</ele><time>2026-04-24T13:56:04.23Z</time></trkpt><trkpt lat="46.0966946" lon="13.4503367"><ele>139.0</ele><time>2026-04-24T13:56:05.23Z</time></trkpt><trkpt lat="46.0966609" lon="13.4502468"><ele>138.83333333333334</ele><time>2026-04-24T13:56:06.23Z</time></trkpt><trkpt lat="46.0966228" lon="13.4501586"><ele>138.66666666666669</ele><time>2026-04-24T13:56:07.231Z</time></trkpt><trkpt lat="46.0965834" lon="13.4500717"><ele>138.5</ele><time>2026-04-24T13:56:08.23Z</time></trkpt><trkpt lat="46.0965434" lon="13.4499788"><ele>138.33333333333334</ele><time>2026-04-24T13:56:09.23Z</time></trkpt><trkpt lat="46.096501" lon="13.4498875"><ele>138.16666666666666</ele><time>2026-04-24T13:56:10.23Z</time></trkpt><trkpt lat="46.096458" lon="13.4497893"><ele>138.0</ele><time>2026-04-24T13:56:11.229Z</time></trkpt><trkpt lat="46.0964085" lon="13.4496964"><ele>137.83333333333334</ele><time>2026-04-24T13:56:12.231Z</time></trkpt><trkpt lat="46.0963641" lon="13.4496"><ele>137.66666666666666</ele><time>2026-04-24T13:56:13.231Z</time></trkpt><trkpt lat="46.0963224" lon="13.4495024"><ele>137.5</ele><time>2026-04-24T13:56:14.23Z</time></trkpt><trkpt lat="46.0962778" lon="13.4494052"><ele>137.33333333333331</ele><time>2026-04-24T13:56:15.229Z</time></trkpt><trkpt lat="46.0962304" lon="13.449302"><ele>137.16666666666666</ele><time>2026-04-24T13:56:16.23Z</time></trkpt><trkpt lat="46.0961974" lon="13.4492058"><ele>137.0</ele><time>2026-04-24T13:56:17.231Z</time></trkpt><trkpt lat="46.0961664" lon="13.4491118"><ele>137.0</ele><time>2026-04-24T13:56:18.229Z</time></trkpt><trkpt lat="46.0961131" lon="13.4490324"><ele>137.0</ele><time>2026-04-24T13:56:19.23Z</time></trkpt><trkpt lat="46.0960844" lon="13.4489313"><ele>137.0</ele><time>2026-04-24T13:56:20.23Z</time></trkpt><trkpt lat="46.0960345" lon="13.4488524"><ele>137.0</ele><time>2026-04-24T13:56:21.23Z</time></trkpt><trkpt lat="46.0959891" lon="13.4487767"><ele>137.0</ele><time>2026-04-24T13:56:22.229Z</time></trkpt><trkpt lat="46.0959307" lon="13.4486174"><ele>137.0</ele><time>2026-04-24T13:56:24.23Z</time></trkpt><trkpt lat="46.0958741" lon="13.448467"><ele>137.2857142857143</ele><time>2026-04-24T13:56:26.23Z</time></trkpt><trkpt lat="46.0958468" lon="13.4483818"><ele>137.57142857142858</ele><time>2026-04-24T13:56:27.231Z</time></trkpt><trkpt lat="46.0958279" lon="13.4482919"><ele>137.85714285714286</ele><time>2026-04-24T13:56:28.231Z</time></trkpt><trkpt lat="46.0958162" lon="13.4481955"><ele>138.14285714285717</ele><time>2026-04-24T13:56:29.23Z</time></trkpt><trkpt lat="46.0957994" lon="13.4480989"><ele>138.42857142857144</ele><time>2026-04-24T13:56:30.229Z</time></trkpt><trkpt lat="46.0957721" lon="13.4480126"><ele>138.71428571428572</ele><time>2026-04-24T13:56:31.229Z</time></trkpt><trkpt lat="46.095745" lon="13.4479291"><ele>139.0</ele><time>2026-04-24T13:56:32.23Z</time></trkpt><trkpt lat="46.0957103" lon="13.4478494"><ele>138.33333333333334</ele><time>2026-04-24T13:56:33.23Z</time></trkpt><trkpt lat="46.0956722" lon="13.4477611"><ele>137.66666666666669</ele><time>2026-04-24T13:56:34.231Z</time></trkpt><trkpt lat="46.0956317" lon="13.4476645"><ele>137.0</ele><time>2026-04-24T13:56:35.23Z</time></trkpt><trkpt lat="46.0955816" lon="13.4475702"><ele>136.33333333333334</ele><time>2026-04-24T13:56:36.23Z</time></trkpt><trkpt lat="46.0955305" lon="13.4474748"><ele>135.66666666666666</ele><time>2026-04-24T13:56:37.23Z</time></trkpt><trkpt lat="46.0954752" lon="13.4473765"><ele>135.0</ele><time>2026-04-24T13:56:38.229Z</time></trkpt><trkpt lat="46.0954207" lon="13.4472757"><ele>135.0</ele><time>2026-04-24T13:56:39.229Z</time></trkpt><trkpt lat="46.0953685" lon="13.4471695"><ele>135.0</ele><time>2026-04-24T13:56:40.23Z</time></trkpt><trkpt lat="46.0953167" lon="13.4470688"><ele>135.0</ele><time>2026-04-24T13:56:41.23Z</time></trkpt><trkpt lat="46.0952692" lon="13.4469659"><ele>135.0</ele><time>2026-04-24T13:56:42.227Z</time></trkpt><trkpt lat="46.0952209" lon="13.4468671"><ele>135.0</ele><time>2026-04-24T13:56:43.23Z</time></trkpt><trkpt lat="46.09517" lon="13.4467703"><ele>135.0</ele><time>2026-04-24T13:56:44.229Z</time></trkpt><trkpt lat="46.0951191" lon="13.4466685"><ele>135.16666666666666</ele><time>2026-04-24T13:56:45.229Z</time></trkpt><trkpt lat="46.0950677" lon="13.4465796"><ele>135.33333333333334</ele><time>2026-04-24T13:56:46.231Z</time></trkpt><trkpt lat="46.0950226" lon="13.446509"><ele>135.5</ele><time>2026-04-24T13:56:47.23Z</time></trkpt><trkpt lat="46.0949617" lon="13.4463727"><ele>135.66666666666669</ele><time>2026-04-24T13:56:49.229Z</time></trkpt><trkpt lat="46.0949058" lon="13.4462569"><ele>135.83333333333334</ele><time>2026-04-24T13:56:51.231Z</time></trkpt><trkpt lat="46.0948558" lon="13.4461561"><ele>136.0</ele><time>2026-04-24T13:56:53.229Z</time></trkpt><trkpt lat="46.0948061" lon="13.4460595"><ele>134.2</ele><time>2026-04-24T13:56:55.229Z</time></trkpt><trkpt lat="46.094751" lon="13.4459588"><ele>132.39999999999998</ele><time>2026-04-24T13:56:57.23Z</time></trkpt><trkpt lat="46.094691" lon="13.4458284"><ele>130.6</ele><time>2026-04-24T13:56:59.229Z</time></trkpt><trkpt lat="46.0946597" lon="13.4457459"><ele>128.79999999999998</ele><time>2026-04-24T13:57:00.231Z</time></trkpt><trkpt lat="46.0946003" lon="13.4455893"><ele>127.0</ele><time>2026-04-24T13:57:02.229Z</time></trkpt><trkpt lat="46.0945691" lon="13.4455015"><ele>127.16666666666667</ele><time>2026-04-24T13:57:03.23Z</time></trkpt><trkpt lat="46.0945314" lon="13.445418"><ele>127.33333333333334</ele><time>2026-04-24T13:57:04.23Z</time></trkpt><trkpt lat="46.0944348" lon="13.4452791"><ele>127.5</ele><time>2026-04-24T13:57:06.229Z</time></trkpt><trkpt lat="46.0943735" lon="13.4452132"><ele>127.66666666666666</ele><time>2026-04-24T13:57:07.23Z</time></trkpt><trkpt lat="46.09433" lon="13.4451441"><ele>127.83333333333333</ele><time>2026-04-24T13:57:08.229Z</time></trkpt><trkpt lat="46.0942879" lon="13.4450453"><ele>128.0</ele><time>2026-04-24T13:57:09.231Z</time></trkpt><trkpt lat="46.0942592" lon="13.4449561"><ele>127.99999999999999</ele><time>2026-04-24T13:57:10.23Z</time></trkpt><trkpt lat="46.0942277" lon="13.4448766"><ele>128.0</ele><time>2026-04-24T13:57:11.231Z</time></trkpt><trkpt lat="46.0941926" lon="13.4447949"><ele>128.0</ele><time>2026-04-24T13:57:12.23Z</time></trkpt><trkpt lat="46.0941523" lon="13.4446718"><ele>128.0</ele><time>2026-04-24T13:57:14.231Z</time></trkpt><trkpt lat="46.0941445" lon="13.4445196"><ele>127.99999999999999</ele><time>2026-04-24T13:57:16.23Z</time></trkpt><trkpt lat="46.0941636" lon="13.4443888"><ele>128.0</ele><time>2026-04-24T13:57:18.231Z</time></trkpt><trkpt lat="46.094193" lon="13.4442677"><ele>127.66666666666666</ele><time>2026-04-24T13:57:20.23Z</time></trkpt><trkpt lat="46.0942279" lon="13.4441597"><ele>127.33333333333333</ele><time>2026-04-24T13:57:22.229Z</time></trkpt><trkpt lat="46.0942746" lon="13.4440314"><ele>127.0</ele><time>2026-04-24T13:57:25.23Z</time></trkpt><trkpt lat="46.094301" lon="13.4439371"><ele>126.66666666666666</ele><time>2026-04-24T13:57:27.23Z</time></trkpt><trkpt lat="46.0943127" lon="13.4438381"><ele>126.33333333333333</ele><time>2026-04-24T13:57:29.23Z</time></trkpt><trkpt lat="46.0943175" lon="13.4437367"><ele>126.0</ele><time>2026-04-24T13:57:31.23Z</time></trkpt><trkpt lat="46.0943135" lon="13.4436334"><ele>126.0</ele><time>2026-04-24T13:57:33.23Z</time></trkpt><trkpt lat="46.0942943" lon="13.4435017"><ele>126.0</ele><time>2026-04-24T13:57:35.23Z</time></trkpt><trkpt lat="46.0942702" lon="13.4433513"><ele>126.0</ele><time>2026-04-24T13:57:37.229Z</time></trkpt><trkpt lat="46.0942406" lon="13.4431879"><ele>126.0</ele><time>2026-04-24T13:57:39.23Z</time></trkpt><trkpt lat="46.0942096" lon="13.4431056"><ele>126.0</ele><time>2026-04-24T13:57:40.229Z</time></trkpt><trkpt lat="46.0941404" lon="13.442964"><ele>127.6</ele><time>2026-04-24T13:57:42.23Z</time></trkpt><trkpt lat="46.0940615" lon="13.442838"><ele>129.2</ele><time>2026-04-24T13:57:44.231Z</time></trkpt><trkpt lat="46.0940155" lon="13.4427747"><ele>130.8</ele><time>2026-04-24T13:57:45.229Z</time></trkpt><trkpt lat="46.0939339" lon="13.4426526"><ele>132.4</ele><time>2026-04-24T13:57:47.229Z</time></trkpt><trkpt lat="46.0938363" lon="13.442541"><ele>134.0</ele><time>2026-04-24T13:57:49.23Z</time></trkpt><trkpt lat="46.0937815" lon="13.4424893"><ele>134.0</ele><time>2026-04-24T13:57:50.231Z</time></trkpt><trkpt lat="46.093726" lon="13.4424322"><ele>134.0</ele><time>2026-04-24T13:57:51.23Z</time></trkpt><trkpt lat="46.0936253" lon="13.4423276"><ele>134.0</ele><time>2026-04-24T13:57:53.23Z</time></trkpt><trkpt lat="46.0935553" lon="13.4421961"><ele>134.0</ele><time>2026-04-24T13:57:55.23Z</time></trkpt><trkpt lat="46.0935117" lon="13.4421248"><ele>134.0</ele><time>2026-04-24T13:57:56.23Z</time></trkpt><trkpt lat="46.0934481" lon="13.4420055"><ele>134.0</ele><time>2026-04-24T13:57:58.23Z</time></trkpt><trkpt lat="46.0933832" lon="13.4418952"><ele>134.0</ele><time>2026-04-24T13:58:00.229Z</time></trkpt><trkpt lat="46.0933265" lon="13.4417953"><ele>134.0</ele><time>2026-04-24T13:58:02.23Z</time></trkpt><trkpt lat="46.0932756" lon="13.4416931"><ele>134.0</ele><time>2026-04-24T13:58:04.23Z</time></trkpt><trkpt lat="46.0932316" lon="13.4415741"><ele>134.0</ele><time>2026-04-24T13:58:06.23Z</time></trkpt><trkpt lat="46.0932052" lon="13.4414143"><ele>134.4</ele><time>2026-04-24T13:58:08.229Z</time></trkpt><trkpt lat="46.0931765" lon="13.4412696"><ele>134.8</ele><time>2026-04-24T13:58:10.229Z</time></trkpt><trkpt lat="46.0931331" lon="13.4411481"><ele>135.2</ele><time>2026-04-24T13:58:12.23Z</time></trkpt><trkpt lat="46.0930933" lon="13.4410153"><ele>135.6</ele><time>2026-04-24T13:58:14.229Z</time></trkpt><trkpt lat="46.0930343" lon="13.4408961"><ele>136.0</ele><time>2026-04-24T13:58:16.23Z</time></trkpt><trkpt lat="46.0929952" lon="13.4407704"><ele>136.0</ele><time>2026-04-24T13:58:18.228Z</time></trkpt><trkpt lat="46.09299" lon="13.4406357"><ele>136.0</ele><time>2026-04-24T13:58:20.229Z</time></trkpt><trkpt lat="46.0930036" lon="13.4405274"><ele>136.0</ele><time>2026-04-24T13:58:22.229Z</time></trkpt><trkpt lat="46.0929966" lon="13.4403829"><ele>136.0</ele><time>2026-04-24T13:58:24.23Z</time></trkpt><trkpt lat="46.0930045" lon="13.4402417"><ele>136.0</ele><time>2026-04-24T13:58:26.228Z</time></trkpt><trkpt lat="46.0930067" lon="13.440101"><ele>136.0</ele><time>2026-04-24T13:58:28.229Z</time></trkpt><trkpt lat="46.0930229" lon="13.4399851"><ele>136.0</ele><time>2026-04-24T13:58:30.228Z</time></trkpt><trkpt lat="46.0930357" lon="13.4398754"><ele>136.0</ele><time>2026-04-24T13:58:32.23Z</time></trkpt><trkpt lat="46.0930571" lon="13.4397528"><ele>136.0</ele><time>2026-04-24T13:58:34.23Z</time></trkpt><trkpt lat="46.0930827" lon="13.4394911"><ele>136.0</ele><time>2026-04-24T13:58:39.228Z</time></trkpt><trkpt lat="46.0930621" lon="13.4393487"><ele>135.83333333333334</ele><time>2026-04-24T13:58:41.228Z</time></trkpt><trkpt lat="46.0930192" lon="13.4391901"><ele>135.66666666666669</ele><time>2026-04-24T13:58:43.229Z</time></trkpt><trkpt lat="46.0929721" lon="13.4390287"><ele>135.5</ele><time>2026-04-24T13:58:45.228Z</time></trkpt><trkpt lat="46.0929417" lon="13.4389432"><ele>135.33333333333334</ele><time>2026-04-24T13:58:46.229Z</time></trkpt><trkpt lat="46.0929135" lon="13.4388565"><ele>135.16666666666666</ele><time>2026-04-24T13:58:47.228Z</time></trkpt><trkpt lat="46.0928849" lon="13.4387745"><ele>135.0</ele><time>2026-04-24T13:58:48.229Z</time></trkpt><trkpt lat="46.0928564" lon="13.4386923"><ele>134.66666666666666</ele><time>2026-04-24T13:58:49.229Z</time></trkpt><trkpt lat="46.0927953" lon="13.4385306"><ele>134.33333333333334</ele><time>2026-04-24T13:58:51.229Z</time></trkpt><trkpt lat="46.0927714" lon="13.4384434"><ele>134.0</ele><time>2026-04-24T13:58:52.229Z</time></trkpt><trkpt lat="46.092749" lon="13.4383518"><ele>133.66666666666669</ele><time>2026-04-24T13:58:53.23Z</time></trkpt><trkpt lat="46.0927296" lon="13.4382555"><ele>133.33333333333334</ele><time>2026-04-24T13:58:54.228Z</time></trkpt><trkpt lat="46.0927139" lon="13.4381552"><ele>133.0</ele><time>2026-04-24T13:58:55.228Z</time></trkpt><trkpt lat="46.0926974" lon="13.438053"><ele>132.66666666666669</ele><time>2026-04-24T13:58:56.228Z</time></trkpt><trkpt lat="46.0926835" lon="13.43795"><ele>132.33333333333334</ele><time>2026-04-24T13:58:57.23Z</time></trkpt><trkpt lat="46.0926629" lon="13.4378471"><ele>132.0</ele><time>2026-04-24T13:58:58.228Z</time></trkpt><trkpt lat="46.0926348" lon="13.4377425"><ele>131.66666666666666</ele><time>2026-04-24T13:58:59.229Z</time></trkpt><trkpt lat="46.0926003" lon="13.4376364"><ele>131.33333333333331</ele><time>2026-04-24T13:59:00.228Z</time></trkpt><trkpt lat="46.0925593" lon="13.4375277"><ele>131.0</ele><time>2026-04-24T13:59:01.228Z</time></trkpt><trkpt lat="46.0925161" lon="13.4374315"><ele>131.0</ele><time>2026-04-24T13:59:02.228Z</time></trkpt><trkpt lat="46.0924708" lon="13.4373412"><ele>131.0</ele><time>2026-04-24T13:59:03.229Z</time></trkpt><trkpt lat="46.0924262" lon="13.4372507"><ele>131.0</ele><time>2026-04-24T13:59:04.228Z</time></trkpt><trkpt lat="46.0923778" lon="13.4371617"><ele>131.0</ele><time>2026-04-24T13:59:05.228Z</time></trkpt><trkpt lat="46.0923289" lon="13.4370668"><ele>131.0</ele><time>2026-04-24T13:59:06.228Z</time></trkpt><trkpt lat="46.0922848" lon="13.4369694"><ele>131.0</ele><time>2026-04-24T13:59:07.229Z</time></trkpt><trkpt lat="46.0922333" lon="13.4368768"><ele>131.66666666666666</ele><time>2026-04-24T13:59:08.229Z</time></trkpt><trkpt lat="46.0921819" lon="13.4367807"><ele>132.33333333333331</ele><time>2026-04-24T13:59:09.228Z</time></trkpt><trkpt lat="46.0921308" lon="13.4366842"><ele>133.0</ele><time>2026-04-24T13:59:10.229Z</time></trkpt><trkpt lat="46.092081" lon="13.4365905"><ele>133.66666666666666</ele><time>2026-04-24T13:59:11.229Z</time></trkpt><trkpt lat="46.0920274" lon="13.4364937"><ele>134.33333333333334</ele><time>2026-04-24T13:59:12.229Z</time></trkpt><trkpt lat="46.0919738" lon="13.4363957"><ele>135.0</ele><time>2026-04-24T13:59:13.229Z</time></trkpt><trkpt lat="46.0919172" lon="13.4363013"><ele>135.0</ele><time>2026-04-24T13:59:14.23Z</time></trkpt><trkpt lat="46.0918636" lon="13.4362072"><ele>135.0</ele><time>2026-04-24T13:59:15.228Z</time></trkpt><trkpt lat="46.0918127" lon="13.4361147"><ele>135.0</ele><time>2026-04-24T13:59:16.229Z</time></trkpt><trkpt lat="46.0917627" lon="13.4360197"><ele>135.0</ele><time>2026-04-24T13:59:17.23Z</time></trkpt><trkpt lat="46.0917087" lon="13.4359225"><ele>135.0</ele><time>2026-04-24T13:59:18.229Z</time></trkpt><trkpt lat="46.0916521" lon="13.4358208"><ele>135.0</ele><time>2026-04-24T13:59:19.229Z</time></trkpt><trkpt lat="46.0915917" lon="13.4357138"><ele>135.0</ele><time>2026-04-24T13:59:20.229Z</time></trkpt><trkpt lat="46.0915314" lon="13.4356076"><ele>135.0</ele><time>2026-04-24T13:59:21.228Z</time></trkpt><trkpt lat="46.0914717" lon="13.435499"><ele>135.0</ele><time>2026-04-24T13:59:22.229Z</time></trkpt><trkpt lat="46.0914094" lon="13.4353827"><ele>135.0</ele><time>2026-04-24T13:59:23.228Z</time></trkpt><trkpt lat="46.0913456" lon="13.4352632"><ele>135.0</ele><time>2026-04-24T13:59:24.229Z</time></trkpt><trkpt lat="46.0912831" lon="13.4351406"><ele>135.2</ele><time>2026-04-24T13:59:25.229Z</time></trkpt><trkpt lat="46.0912218" lon="13.4350178"><ele>135.4</ele><time>2026-04-24T13:59:26.228Z</time></trkpt><trkpt lat="46.0911664" lon="13.4349041"><ele>135.6</ele><time>2026-04-24T13:59:27.23Z</time></trkpt><trkpt lat="46.0911128" lon="13.4347946"><ele>135.8</ele><time>2026-04-24T13:59:28.23Z</time></trkpt><trkpt lat="46.0910583" lon="13.4346879"><ele>136.0</ele><time>2026-04-24T13:59:29.23Z</time></trkpt><trkpt lat="46.0910071" lon="13.4345895"><ele>136.0</ele><time>2026-04-24T13:59:30.23Z</time></trkpt><trkpt lat="46.090947" lon="13.4345127"><ele>136.0</ele><time>2026-04-24T13:59:31.23Z</time></trkpt><trkpt lat="46.0908754" lon="13.43447"><ele>136.0</ele><time>2026-04-24T13:59:32.23Z</time></trkpt><trkpt lat="46.0908025" lon="13.4344614"><ele>136.0</ele><time>2026-04-24T13:59:33.229Z</time></trkpt><trkpt lat="46.0907292" lon="13.4344732"><ele>136.0</ele><time>2026-04-24T13:59:34.229Z</time></trkpt><trkpt lat="46.090653" lon="13.4344904"><ele>136.0</ele><time>2026-04-24T13:59:35.228Z</time></trkpt><trkpt lat="46.0905786" lon="13.4345014"><ele>136.0</ele><time>2026-04-24T13:59:36.228Z</time></trkpt><trkpt lat="46.0905025" lon="13.4345001"><ele>136.0</ele><time>2026-04-24T13:59:37.228Z</time></trkpt><trkpt lat="46.0904313" lon="13.4344749"><ele>136.0</ele><time>2026-04-24T13:59:38.23Z</time></trkpt><trkpt lat="46.0903576" lon="13.4344149"><ele>136.0</ele><time>2026-04-24T13:59:39.229Z</time></trkpt><trkpt lat="46.0902891" lon="13.4343336"><ele>136.0</ele><time>2026-04-24T13:59:40.23Z</time></trkpt><trkpt lat="46.0902219" lon="13.43426"><ele>136.0</ele><time>2026-04-24T13:59:41.228Z</time></trkpt><trkpt lat="46.0901507" lon="13.4341832"><ele>136.0</ele><time>2026-04-24T13:59:42.23Z</time></trkpt><trkpt lat="46.0900863" lon="13.4341071"><ele>136.0</ele><time>2026-04-24T13:59:43.23Z</time></trkpt><trkpt lat="46.0900242" lon="13.4340354"><ele>136.0</ele><time>2026-04-24T13:59:44.229Z</time></trkpt><trkpt lat="46.0899604" lon="13.4339636"><ele>136.0</ele><time>2026-04-24T13:59:45.23Z</time></trkpt><trkpt lat="46.089909" lon="13.4338995"><ele>136.0</ele><time>2026-04-24T13:59:46.23Z</time></trkpt><trkpt lat="46.0898574" lon="13.4338086"><ele>136.0</ele><time>2026-04-24T13:59:48.229Z</time></trkpt><trkpt lat="46.0897737" lon="13.4338139"><ele>135.8</ele><time>2026-04-24T14:00:18.229Z</time></trkpt><trkpt lat="46.0896938" lon="13.4337104"><ele>135.6</ele><time>2026-04-24T14:00:20.228Z</time></trkpt><trkpt lat="46.0896229" lon="13.4336207"><ele>135.4</ele><time>2026-04-24T14:00:22.229Z</time></trkpt><trkpt lat="46.0895707" lon="13.433531"><ele>135.2</ele><time>2026-04-24T14:00:25.23Z</time></trkpt><trkpt lat="46.0895153" lon="13.4334424"><ele>135.0</ele><time>2026-04-24T14:00:41.23Z</time></trkpt><trkpt lat="46.0893959" lon="13.4334901"><ele>135.0</ele><time>2026-04-24T14:00:43.229Z</time></trkpt><trkpt lat="46.0892746" lon="13.433573"><ele>135.0</ele><time>2026-04-24T14:00:45.229Z</time></trkpt><trkpt lat="46.0891954" lon="13.4336426"><ele>135.0</ele><time>2026-04-24T14:00:46.23Z</time></trkpt><trkpt lat="46.0891138" lon="13.4337031"><ele>135.0</ele><time>2026-04-24T14:00:47.229Z</time></trkpt><trkpt lat="46.0890344" lon="13.4337709"><ele>135.0</ele><time>2026-04-24T14:00:48.228Z</time></trkpt><trkpt lat="46.0889492" lon="13.4338392"><ele>135.0</ele><time>2026-04-24T14:00:49.228Z</time></trkpt><trkpt lat="46.0888602" lon="13.4339096"><ele>135.0</ele><time>2026-04-24T14:00:50.227Z</time></trkpt><trkpt lat="46.0887685" lon="13.4339835"><ele>135.0</ele><time>2026-04-24T14:00:51.228Z</time></trkpt><trkpt lat="46.0886755" lon="13.4340537"><ele>135.0</ele><time>2026-04-24T14:00:52.228Z</time></trkpt><trkpt lat="46.088575" lon="13.4341273"><ele>135.0</ele><time>2026-04-24T14:00:53.228Z</time></trkpt><trkpt lat="46.0884756" lon="13.4342042"><ele>135.0</ele><time>2026-04-24T14:00:54.228Z</time></trkpt><trkpt lat="46.0883765" lon="13.4342806"><ele>135.0</ele><time>2026-04-24T14:00:55.227Z</time></trkpt><trkpt lat="46.0882748" lon="13.4343637"><ele>135.0</ele><time>2026-04-24T14:00:56.227Z</time></trkpt><trkpt lat="46.0881703" lon="13.4344518"><ele>135.0</ele><time>2026-04-24T14:00:57.228Z</time></trkpt><trkpt lat="46.0880641" lon="13.4345407"><ele>135.6</ele><time>2026-04-24T14:00:58.227Z</time></trkpt><trkpt lat="46.087952" lon="13.4346267"><ele>136.2</ele><time>2026-04-24T14:00:59.228Z</time></trkpt><trkpt lat="46.0878493" lon="13.4347103"><ele>136.8</ele><time>2026-04-24T14:01:00.228Z</time></trkpt><trkpt lat="46.0877568" lon="13.4347807"><ele>137.4</ele><time>2026-04-24T14:01:01.229Z</time></trkpt><trkpt lat="46.0876752" lon="13.4348302"><ele>138.0</ele><time>2026-04-24T14:01:02.228Z</time></trkpt><trkpt lat="46.0875973" lon="13.434855"><ele>138.0</ele><time>2026-04-24T14:01:03.227Z</time></trkpt><trkpt lat="46.0875196" lon="13.4348631"><ele>138.0</ele><time>2026-04-24T14:01:04.228Z</time></trkpt><trkpt lat="46.0874545" lon="13.4347792"><ele>138.0</ele><time>2026-04-24T14:01:05.229Z</time></trkpt><trkpt lat="46.087399" lon="13.4346846"><ele>138.0</ele><time>2026-04-24T14:01:06.228Z</time></trkpt><trkpt lat="46.0873379" lon="13.4345692"><ele>138.0</ele><time>2026-04-24T14:01:07.227Z</time></trkpt><trkpt lat="46.0872739" lon="13.4344399"><ele>137.25</ele><time>2026-04-24T14:01:08.227Z</time></trkpt><trkpt lat="46.0872141" lon="13.4343053"><ele>136.5</ele><time>2026-04-24T14:01:09.228Z</time></trkpt><trkpt lat="46.0871461" lon="13.4341573"><ele>135.75</ele><time>2026-04-24T14:01:10.227Z</time></trkpt><trkpt lat="46.0870716" lon="13.4339905"><ele>135.0</ele><time>2026-04-24T14:01:11.229Z</time></trkpt><trkpt lat="46.086994" lon="13.4337972"><ele>135.0</ele><time>2026-04-24T14:01:12.228Z</time></trkpt><trkpt lat="46.0869186" lon="13.4336225"><ele>135.0</ele><time>2026-04-24T14:01:13.228Z</time></trkpt><trkpt lat="46.0868457" lon="13.4334452"><ele>135.0</ele><time>2026-04-24T14:01:14.228Z</time></trkpt><trkpt lat="46.0867713" lon="13.4332663"><ele>135.0</ele><time>2026-04-24T14:01:15.228Z</time></trkpt><trkpt lat="46.0866968" lon="13.4330821"><ele>135.25</ele><time>2026-04-24T14:01:16.228Z</time></trkpt><trkpt lat="46.0866201" lon="13.4328961"><ele>135.5</ele><time>2026-04-24T14:01:17.228Z</time></trkpt><trkpt lat="46.0865452" lon="13.4327122"><ele>135.75</ele><time>2026-04-24T14:01:18.228Z</time></trkpt><trkpt lat="46.0864723" lon="13.4325294"><ele>136.0</ele><time>2026-04-24T14:01:19.228Z</time></trkpt><trkpt lat="46.0863995" lon="13.432356"><ele>135.25</ele><time>2026-04-24T14:01:20.227Z</time></trkpt><trkpt lat="46.0863288" lon="13.4321888"><ele>134.5</ele><time>2026-04-24T14:01:21.227Z</time></trkpt><trkpt lat="46.0862579" lon="13.432032"><ele>133.75</ele><time>2026-04-24T14:01:22.227Z</time></trkpt><trkpt lat="46.0861926" lon="13.4318804"><ele>133.0</ele><time>2026-04-24T14:01:23.228Z</time></trkpt><trkpt lat="46.0861299" lon="13.431737"><ele>133.0</ele><time>2026-04-24T14:01:24.227Z</time></trkpt><trkpt lat="46.0860675" lon="13.4316039"><ele>133.0</ele><time>2026-04-24T14:01:25.228Z</time></trkpt><trkpt lat="46.0860025" lon="13.4314901"><ele>133.0</ele><time>2026-04-24T14:01:26.227Z</time></trkpt><trkpt lat="46.0859404" lon="13.4313995"><ele>133.0</ele><time>2026-04-24T14:01:27.228Z</time></trkpt><trkpt lat="46.08588" lon="13.4313184"><ele>133.0</ele><time>2026-04-24T14:01:28.228Z</time></trkpt><trkpt lat="46.0858276" lon="13.431218"><ele>133.0</ele><time>2026-04-24T14:01:29.228Z</time></trkpt><trkpt lat="46.0857954" lon="13.4311047"><ele>133.0</ele><time>2026-04-24T14:01:30.229Z</time></trkpt><trkpt lat="46.0857777" lon="13.430989"><ele>133.0</ele><time>2026-04-24T14:01:31.229Z</time></trkpt><trkpt lat="46.0857766" lon="13.4308686"><ele>133.0</ele><time>2026-04-24T14:01:32.228Z</time></trkpt><trkpt lat="46.0857958" lon="13.4307419"><ele>133.0</ele><time>2026-04-24T14:01:33.227Z</time></trkpt><trkpt lat="46.0858386" lon="13.4306153"><ele>133.0</ele><time>2026-04-24T14:01:34.227Z</time></trkpt><trkpt lat="46.0859038" lon="13.4304952"><ele>133.0</ele><time>2026-04-24T14:01:35.229Z</time></trkpt><trkpt lat="46.0859795" lon="13.4303846"><ele>133.0</ele><time>2026-04-24T14:01:36.228Z</time></trkpt><trkpt lat="46.086059" lon="13.4302643"><ele>133.0</ele><time>2026-04-24T14:01:37.229Z</time></trkpt><trkpt lat="46.0861355" lon="13.4301383"><ele>133.0</ele><time>2026-04-24T14:01:38.228Z</time></trkpt><trkpt lat="46.0862138" lon="13.4300034"><ele>133.0</ele><time>2026-04-24T14:01:39.228Z</time></trkpt><trkpt lat="46.0862956" lon="13.4298591"><ele>133.0</ele><time>2026-04-24T14:01:40.228Z</time></trkpt><trkpt lat="46.086384" lon="13.4297219"><ele>133.0</ele><time>2026-04-24T14:01:41.228Z</time></trkpt><trkpt lat="46.0864742" lon="13.4295833"><ele>133.0</ele><time>2026-04-24T14:01:42.227Z</time></trkpt><trkpt lat="46.0865647" lon="13.4294409"><ele>132.75</ele><time>2026-04-24T14:01:43.228Z</time></trkpt><trkpt lat="46.0866451" lon="13.4293024"><ele>132.5</ele><time>2026-04-24T14:01:44.228Z</time></trkpt><trkpt lat="46.0867264" lon="13.42918"><ele>132.25</ele><time>2026-04-24T14:01:45.227Z</time></trkpt><trkpt lat="46.0868001" lon="13.4290624"><ele>132.0</ele><time>2026-04-24T14:01:46.227Z</time></trkpt><trkpt lat="46.0868671" lon="13.4289497"><ele>132.0</ele><time>2026-04-24T14:01:47.227Z</time></trkpt><trkpt lat="46.0869309" lon="13.4288507"><ele>132.0</ele><time>2026-04-24T14:01:48.228Z</time></trkpt><trkpt lat="46.0869811" lon="13.4287807"><ele>132.0</ele><time>2026-04-24T14:01:49.227Z</time></trkpt><trkpt lat="46.0870524" lon="13.4286697"><ele>132.0</ele><time>2026-04-24T14:01:51.228Z</time></trkpt><trkpt lat="46.0870987" lon="13.4286035"><ele>132.0</ele><time>2026-04-24T14:02:03.228Z</time></trkpt><trkpt lat="46.0871524" lon="13.4285329"><ele>132.0</ele><time>2026-04-24T14:02:07.228Z</time></trkpt><trkpt lat="46.0872386" lon="13.4284744"><ele>132.2</ele><time>2026-04-24T14:02:09.227Z</time></trkpt><trkpt lat="46.0872838" lon="13.4283219"><ele>132.39999999999998</ele><time>2026-04-24T14:02:11.228Z</time></trkpt><trkpt lat="46.0873218" lon="13.4281534"><ele>132.60000000000002</ele><time>2026-04-24T14:02:13.227Z</time></trkpt><trkpt lat="46.0873619" lon="13.4280509"><ele>132.8</ele><time>2026-04-24T14:02:14.227Z</time></trkpt><trkpt lat="46.0874015" lon="13.4279468"><ele>133.0</ele><time>2026-04-24T14:02:15.228Z</time></trkpt><trkpt lat="46.0874427" lon="13.4278328"><ele>133.0</ele><time>2026-04-24T14:02:16.228Z</time></trkpt><trkpt lat="46.0874858" lon="13.4277147"><ele>133.0</ele><time>2026-04-24T14:02:17.227Z</time></trkpt><trkpt lat="46.0875324" lon="13.4275939"><ele>133.0</ele><time>2026-04-24T14:02:18.229Z</time></trkpt><trkpt lat="46.0875822" lon="13.4274636"><ele>133.0</ele><time>2026-04-24T14:02:19.228Z</time></trkpt><trkpt lat="46.087633" lon="13.4273373"><ele>133.0</ele><time>2026-04-24T14:02:20.227Z</time></trkpt><trkpt lat="46.0876892" lon="13.4272082"><ele>131.25</ele><time>2026-04-24T14:02:21.228Z</time></trkpt><trkpt lat="46.0877567" lon="13.4270777"><ele>129.5</ele><time>2026-04-24T14:02:22.227Z</time></trkpt><trkpt lat="46.0878304" lon="13.4269563"><ele>127.75</ele><time>2026-04-24T14:02:23.229Z</time></trkpt><trkpt lat="46.0879217" lon="13.4268456"><ele>126.0</ele><time>2026-04-24T14:02:24.228Z</time></trkpt><trkpt lat="46.0880238" lon="13.4267463"><ele>126.0</ele><time>2026-04-24T14:02:25.229Z</time></trkpt><trkpt lat="46.088134" lon="13.4266584"><ele>126.0</ele><time>2026-04-24T14:02:26.227Z</time></trkpt><trkpt lat="46.0882479" lon="13.4265908"><ele>126.0</ele><time>2026-04-24T14:02:27.227Z</time></trkpt><trkpt lat="46.0883704" lon="13.4265345"><ele>126.0</ele><time>2026-04-24T14:02:28.228Z</time></trkpt><trkpt lat="46.0884953" lon="13.4264947"><ele>125.75</ele><time>2026-04-24T14:02:29.229Z</time></trkpt><trkpt lat="46.0886218" lon="13.4264728"><ele>125.5</ele><time>2026-04-24T14:02:30.227Z</time></trkpt><trkpt lat="46.0887462" lon="13.4264595"><ele>125.25</ele><time>2026-04-24T14:02:31.228Z</time></trkpt><trkpt lat="46.0888758" lon="13.4264461"><ele>125.0</ele><time>2026-04-24T14:02:32.227Z</time></trkpt><trkpt lat="46.0890099" lon="13.4264287"><ele>125.0</ele><time>2026-04-24T14:02:33.229Z</time></trkpt><trkpt lat="46.0891451" lon="13.4264052"><ele>125.0</ele><time>2026-04-24T14:02:34.228Z</time></trkpt><trkpt lat="46.089283" lon="13.4263715"><ele>125.0</ele><time>2026-04-24T14:02:35.229Z</time></trkpt><trkpt lat="46.0894243" lon="13.4263305"><ele>125.0</ele><time>2026-04-24T14:02:36.228Z</time></trkpt><trkpt lat="46.0895658" lon="13.4262918"><ele>125.0</ele><time>2026-04-24T14:02:37.229Z</time></trkpt><trkpt lat="46.0897074" lon="13.4262494"><ele>125.0</ele><time>2026-04-24T14:02:38.228Z</time></trkpt><trkpt lat="46.0898545" lon="13.4262103"><ele>125.0</ele><time>2026-04-24T14:02:39.227Z</time></trkpt><trkpt lat="46.0899999" lon="13.4261615"><ele>125.0</ele><time>2026-04-24T14:02:40.227Z</time></trkpt><trkpt lat="46.0901481" lon="13.4261185"><ele>124.66666666666666</ele><time>2026-04-24T14:02:41.229Z</time></trkpt><trkpt lat="46.0902974" lon="13.4260728"><ele>124.33333333333334</ele><time>2026-04-24T14:02:42.229Z</time></trkpt><trkpt lat="46.0904471" lon="13.4260321"><ele>124.0</ele><time>2026-04-24T14:02:43.229Z</time></trkpt><trkpt lat="46.0905967" lon="13.425987"><ele>124.0</ele><time>2026-04-24T14:02:44.227Z</time></trkpt><trkpt lat="46.0907435" lon="13.4259338"><ele>124.0</ele><time>2026-04-24T14:02:45.228Z</time></trkpt><trkpt lat="46.0908858" lon="13.4258676"><ele>124.0</ele><time>2026-04-24T14:02:46.228Z</time></trkpt><trkpt lat="46.0910256" lon="13.4257909"><ele>126.0</ele><time>2026-04-24T14:02:47.228Z</time></trkpt><trkpt lat="46.0911552" lon="13.4257172"><ele>128.0</ele><time>2026-04-24T14:02:48.227Z</time></trkpt><trkpt lat="46.0912761" lon="13.4256432"><ele>130.0</ele><time>2026-04-24T14:02:49.227Z</time></trkpt><trkpt lat="46.0913956" lon="13.4255732"><ele>132.0</ele><time>2026-04-24T14:02:50.227Z</time></trkpt><trkpt lat="46.0915134" lon="13.425508"><ele>133.0</ele><time>2026-04-24T14:02:51.227Z</time></trkpt><trkpt lat="46.0916296" lon="13.425446"><ele>134.0</ele><time>2026-04-24T14:02:52.229Z</time></trkpt><trkpt lat="46.0917435" lon="13.4253821"><ele>135.0</ele><time>2026-04-24T14:02:53.228Z</time></trkpt><trkpt lat="46.0918541" lon="13.4253154"><ele>136.0</ele><time>2026-04-24T14:02:54.227Z</time></trkpt><trkpt lat="46.0919675" lon="13.4252505"><ele>136.0</ele><time>2026-04-24T14:02:55.229Z</time></trkpt><trkpt lat="46.0920749" lon="13.4251913"><ele>136.0</ele><time>2026-04-24T14:02:56.229Z</time></trkpt><trkpt lat="46.0921722" lon="13.425132"><ele>136.0</ele><time>2026-04-24T14:02:57.229Z</time></trkpt><trkpt lat="46.0922504" lon="13.4250692"><ele>136.0</ele><time>2026-04-24T14:02:58.227Z</time></trkpt><trkpt lat="46.0923131" lon="13.4250192"><ele>136.0</ele><time>2026-04-24T14:02:59.227Z</time></trkpt><trkpt lat="46.0924341" lon="13.4249363"><ele>135.8</ele><time>2026-04-24T14:03:01.228Z</time></trkpt><trkpt lat="46.0925144" lon="13.4248844"><ele>135.6</ele><time>2026-04-24T14:03:02.228Z</time></trkpt><trkpt lat="46.0926091" lon="13.4248159"><ele>135.4</ele><time>2026-04-24T14:03:03.227Z</time></trkpt><trkpt lat="46.0927031" lon="13.42474"><ele>135.2</ele><time>2026-04-24T14:03:04.228Z</time></trkpt><trkpt lat="46.0928004" lon="13.4246688"><ele>135.0</ele><time>2026-04-24T14:03:05.227Z</time></trkpt><trkpt lat="46.0929045" lon="13.4246192"><ele>135.0</ele><time>2026-04-24T14:03:06.227Z</time></trkpt><trkpt lat="46.0930166" lon="13.4245898"><ele>135.0</ele><time>2026-04-24T14:03:07.228Z</time></trkpt><trkpt lat="46.0931376" lon="13.424569"><ele>135.0</ele><time>2026-04-24T14:03:08.227Z</time></trkpt><trkpt lat="46.0932623" lon="13.4245553"><ele>135.0</ele><time>2026-04-24T14:03:09.229Z</time></trkpt><trkpt lat="46.0933917" lon="13.4245454"><ele>134.5</ele><time>2026-04-24T14:03:10.229Z</time></trkpt><trkpt lat="46.093526" lon="13.4245362"><ele>134.0</ele><time>2026-04-24T14:03:11.228Z</time></trkpt><trkpt lat="46.0936637" lon="13.4245284"><ele>133.5</ele><time>2026-04-24T14:03:12.228Z</time></trkpt><trkpt lat="46.0937923" lon="13.4245169"><ele>133.0</ele><time>2026-04-24T14:03:13.229Z</time></trkpt><trkpt lat="46.0939216" lon="13.4245064"><ele>133.0</ele><time>2026-04-24T14:03:14.227Z</time></trkpt><trkpt lat="46.0940539" lon="13.4244974"><ele>133.0</ele><time>2026-04-24T14:03:15.228Z</time></trkpt><trkpt lat="46.094182" lon="13.4244756"><ele>133.0</ele><time>2026-04-24T14:03:16.228Z</time></trkpt><trkpt lat="46.0943066" lon="13.4244605"><ele>133.0</ele><time>2026-04-24T14:03:17.228Z</time></trkpt><trkpt lat="46.0944202" lon="13.4244539"><ele>133.0</ele><time>2026-04-24T14:03:18.228Z</time></trkpt><trkpt lat="46.0945246" lon="13.4244522"><ele>133.0</ele><time>2026-04-24T14:03:19.227Z</time></trkpt><trkpt lat="46.0946063" lon="13.4244474"><ele>133.0</ele><time>2026-04-24T14:03:20.227Z</time></trkpt><trkpt lat="46.0946787" lon="13.4244426"><ele>133.0</ele><time>2026-04-24T14:03:21.229Z</time></trkpt><trkpt lat="46.0947965" lon="13.4244598"><ele>133.0</ele><time>2026-04-24T14:03:23.226Z</time></trkpt><trkpt lat="46.094866" lon="13.4244874"><ele>133.0</ele><time>2026-04-24T14:03:24.226Z</time></trkpt><trkpt lat="46.094936" lon="13.4245013"><ele>132.83333333333334</ele><time>2026-04-24T14:03:25.227Z</time></trkpt><trkpt lat="46.0950108" lon="13.4245125"><ele>132.66666666666669</ele><time>2026-04-24T14:03:26.226Z</time></trkpt><trkpt lat="46.0950853" lon="13.4245046"><ele>132.5</ele><time>2026-04-24T14:03:27.227Z</time></trkpt><trkpt lat="46.0951641" lon="13.4244976"><ele>132.33333333333334</ele><time>2026-04-24T14:03:28.226Z</time></trkpt><trkpt lat="46.0952441" lon="13.4244924"><ele>132.16666666666666</ele><time>2026-04-24T14:03:29.227Z</time></trkpt><trkpt lat="46.0953207" lon="13.4244916"><ele>132.0</ele><time>2026-04-24T14:03:30.226Z</time></trkpt><trkpt lat="46.0953973" lon="13.4244962"><ele>132.0</ele><time>2026-04-24T14:03:31.227Z</time></trkpt><trkpt lat="46.0955084" lon="13.4245175"><ele>132.0</ele><time>2026-04-24T14:03:33.227Z</time></trkpt><trkpt lat="46.0955995" lon="13.4245738"><ele>132.0</ele><time>2026-04-24T14:03:35.227Z</time></trkpt><trkpt lat="46.0956562" lon="13.4246218"><ele>132.0</ele><time>2026-04-24T14:03:36.227Z</time></trkpt><trkpt lat="46.0957705" lon="13.4246805"><ele>132.0</ele><time>2026-04-24T14:03:38.227Z</time></trkpt><trkpt lat="46.095834" lon="13.4246691"><ele>131.83333333333334</ele><time>2026-04-24T14:03:39.226Z</time></trkpt><trkpt lat="46.0958925" lon="13.424627"><ele>131.66666666666666</ele><time>2026-04-24T14:03:40.227Z</time></trkpt><trkpt lat="46.0959542" lon="13.4244853"><ele>131.5</ele><time>2026-04-24T14:03:42.226Z</time></trkpt><trkpt lat="46.0959326" lon="13.4243115"><ele>131.33333333333331</ele><time>2026-04-24T14:03:44.226Z</time></trkpt><trkpt lat="46.0959027" lon="13.4242291"><ele>131.16666666666666</ele><time>2026-04-24T14:03:45.228Z</time></trkpt><trkpt lat="46.0958718" lon="13.4241383"><ele>131.0</ele><time>2026-04-24T14:03:46.227Z</time></trkpt><trkpt lat="46.0958404" lon="13.4240255"><ele>131.0</ele><time>2026-04-24T14:03:47.226Z</time></trkpt><trkpt lat="46.0958222" lon="13.4238855"><ele>131.0</ele><time>2026-04-24T14:03:48.227Z</time></trkpt><trkpt lat="46.0958108" lon="13.4237329"><ele>131.0</ele><time>2026-04-24T14:03:49.227Z</time></trkpt><trkpt lat="46.0957963" lon="13.4235545"><ele>131.0</ele><time>2026-04-24T14:03:50.228Z</time></trkpt><trkpt lat="46.0957852" lon="13.4233414"><ele>130.33333333333331</ele><time>2026-04-24T14:03:51.227Z</time></trkpt><trkpt lat="46.0957773" lon="13.423108"><ele>129.66666666666666</ele><time>2026-04-24T14:03:52.227Z</time></trkpt><trkpt lat="46.0957726" lon="13.4228647"><ele>129.0</ele><time>2026-04-24T14:03:53.227Z</time></trkpt><trkpt lat="46.0957651" lon="13.4226165"><ele>129.0</ele><time>2026-04-24T14:03:54.227Z</time></trkpt><trkpt lat="46.0957536" lon="13.4223689"><ele>129.0</ele><time>2026-04-24T14:03:55.228Z</time></trkpt><trkpt lat="46.0957388" lon="13.422112"><ele>129.0</ele><time>2026-04-24T14:03:56.226Z</time></trkpt><trkpt lat="46.0957234" lon="13.4218617"><ele>129.66666666666666</ele><time>2026-04-24T14:03:57.226Z</time></trkpt><trkpt lat="46.095706" lon="13.4216126"><ele>130.33333333333331</ele><time>2026-04-24T14:03:58.226Z</time></trkpt><trkpt lat="46.0956888" lon="13.4213677"><ele>131.0</ele><time>2026-04-24T14:03:59.226Z</time></trkpt><trkpt lat="46.0956717" lon="13.421119"><ele>131.0</ele><time>2026-04-24T14:04:00.226Z</time></trkpt><trkpt lat="46.0956496" lon="13.4208703"><ele>131.0</ele><time>2026-04-24T14:04:01.227Z</time></trkpt><trkpt lat="46.095631" lon="13.4206193"><ele>131.0</ele><time>2026-04-24T14:04:02.227Z</time></trkpt><trkpt lat="46.0956124" lon="13.4203702"><ele>131.0</ele><time>2026-04-24T14:04:03.227Z</time></trkpt><trkpt lat="46.0955945" lon="13.4201201"><ele>131.0</ele><time>2026-04-24T14:04:04.228Z</time></trkpt><trkpt lat="46.0955778" lon="13.4198698"><ele>131.0</ele><time>2026-04-24T14:04:05.227Z</time></trkpt><trkpt lat="46.0955592" lon="13.4196236"><ele>131.0</ele><time>2026-04-24T14:04:06.227Z</time></trkpt><trkpt lat="46.0955432" lon="13.4193778"><ele>131.0</ele><time>2026-04-24T14:04:07.226Z</time></trkpt><trkpt lat="46.095525" lon="13.4191355"><ele>131.0</ele><time>2026-04-24T14:04:08.227Z</time></trkpt><trkpt lat="46.0955038" lon="13.4188974"><ele>131.25</ele><time>2026-04-24T14:04:09.227Z</time></trkpt><trkpt lat="46.0954939" lon="13.4186687"><ele>131.5</ele><time>2026-04-24T14:04:10.227Z</time></trkpt><trkpt lat="46.0954823" lon="13.4184595"><ele>131.75</ele><time>2026-04-24T14:04:11.226Z</time></trkpt><trkpt lat="46.0954689" lon="13.4182613"><ele>132.0</ele><time>2026-04-24T14:04:12.228Z</time></trkpt><trkpt lat="46.0954522" lon="13.4180732"><ele>131.6</ele><time>2026-04-24T14:04:13.228Z</time></trkpt><trkpt lat="46.095435" lon="13.4178969"><ele>131.2</ele><time>2026-04-24T14:04:14.228Z</time></trkpt><trkpt lat="46.0954143" lon="13.4177332"><ele>130.8</ele><time>2026-04-24T14:04:15.227Z</time></trkpt><trkpt lat="46.0953956" lon="13.4175977"><ele>130.4</ele><time>2026-04-24T14:04:16.227Z</time></trkpt><trkpt lat="46.0953825" lon="13.4174993"><ele>130.0</ele><time>2026-04-24T14:04:17.226Z</time></trkpt><trkpt lat="46.0953903" lon="13.4174015"><ele>130.0</ele><time>2026-04-24T14:04:18.227Z</time></trkpt><trkpt lat="46.0954131" lon="13.4173065"><ele>130.0</ele><time>2026-04-24T14:04:19.227Z</time></trkpt><trkpt lat="46.0955109" lon="13.4171922"><ele>130.0</ele><time>2026-04-24T14:04:21.227Z</time></trkpt><trkpt lat="46.0955833" lon="13.4171533"><ele>130.0</ele><time>2026-04-24T14:04:22.227Z</time></trkpt><trkpt lat="46.0956652" lon="13.417111"><ele>130.0</ele><time>2026-04-24T14:04:23.228Z</time></trkpt><trkpt lat="46.0957499" lon="13.417062"><ele>130.6</ele><time>2026-04-24T14:04:24.228Z</time></trkpt><trkpt lat="46.0958385" lon="13.4170115"><ele>131.2</ele><time>2026-04-24T14:04:25.227Z</time></trkpt><trkpt lat="46.0959214" lon="13.4169396"><ele>131.8</ele><time>2026-04-24T14:04:26.227Z</time></trkpt><trkpt lat="46.0960063" lon="13.4168566"><ele>132.4</ele><time>2026-04-24T14:04:27.227Z</time></trkpt><trkpt lat="46.0960883" lon="13.4167544"><ele>133.0</ele><time>2026-04-24T14:04:28.227Z</time></trkpt><trkpt lat="46.0961748" lon="13.4166373"><ele>133.0</ele><time>2026-04-24T14:04:29.227Z</time></trkpt><trkpt lat="46.0962733" lon="13.416524"><ele>133.0</ele><time>2026-04-24T14:04:30.228Z</time></trkpt><trkpt lat="46.0963838" lon="13.4164133"><ele>133.0</ele><time>2026-04-24T14:04:31.227Z</time></trkpt><trkpt lat="46.0964918" lon="13.4163161"><ele>133.0</ele><time>2026-04-24T14:04:32.226Z</time></trkpt><trkpt lat="46.0965992" lon="13.4161969"><ele>132.0</ele><time>2026-04-24T14:04:33.227Z</time></trkpt><trkpt lat="46.096696" lon="13.4160594"><ele>131.0</ele><time>2026-04-24T14:04:34.226Z</time></trkpt><trkpt lat="46.0967817" lon="13.4159015"><ele>130.0</ele><time>2026-04-24T14:04:35.227Z</time></trkpt><trkpt lat="46.0968707" lon="13.4157451"><ele>129.0</ele><time>2026-04-24T14:04:36.226Z</time></trkpt><trkpt lat="46.0969653" lon="13.4156204"><ele>129.0</ele><time>2026-04-24T14:04:37.226Z</time></trkpt><trkpt lat="46.0970691" lon="13.415536"><ele>129.0</ele><time>2026-04-24T14:04:38.228Z</time></trkpt><trkpt lat="46.0971748" lon="13.4154931"><ele>129.0</ele><time>2026-04-24T14:04:39.226Z</time></trkpt><trkpt lat="46.0972641" lon="13.4154737"><ele>129.0</ele><time>2026-04-24T14:04:40.228Z</time></trkpt><trkpt lat="46.0973283" lon="13.4154574"><ele>129.0</ele><time>2026-04-24T14:04:41.226Z</time></trkpt><trkpt lat="46.0974397" lon="13.4154521"><ele>129.5</ele><time>2026-04-24T14:04:43.226Z</time></trkpt><trkpt lat="46.0975088" lon="13.415453"><ele>130.0</ele><time>2026-04-24T14:04:44.228Z</time></trkpt><trkpt lat="46.0975902" lon="13.4154523"><ele>130.5</ele><time>2026-04-24T14:04:45.226Z</time></trkpt><trkpt lat="46.0976783" lon="13.4154544"><ele>131.0</ele><time>2026-04-24T14:04:46.227Z</time></trkpt><trkpt lat="46.0977634" lon="13.4154614"><ele>131.5</ele><time>2026-04-24T14:04:47.228Z</time></trkpt><trkpt lat="46.0978341" lon="13.4154614"><ele>132.0</ele><time>2026-04-24T14:04:48.228Z</time></trkpt><trkpt lat="46.0979193" lon="13.415414"><ele>132.0</ele><time>2026-04-24T14:04:50.227Z</time></trkpt><trkpt lat="46.0979606" lon="13.4152792"><ele>132.0</ele><time>2026-04-24T14:04:52.226Z</time></trkpt><trkpt lat="46.0979552" lon="13.4151774"><ele>132.0</ele><time>2026-04-24T14:04:53.227Z</time></trkpt><trkpt lat="46.0979444" lon="13.4150623"><ele>132.0</ele><time>2026-04-24T14:04:54.226Z</time></trkpt><trkpt lat="46.0979355" lon="13.4149396"><ele>132.0</ele><time>2026-04-24T14:04:55.227Z</time></trkpt><trkpt lat="46.0979297" lon="13.4148069"><ele>132.0</ele><time>2026-04-24T14:04:56.226Z</time></trkpt><trkpt lat="46.0979311" lon="13.4146691"><ele>131.4</ele><time>2026-04-24T14:04:57.226Z</time></trkpt><trkpt lat="46.0979355" lon="13.4145391"><ele>130.79999999999998</ele><time>2026-04-24T14:04:58.228Z</time></trkpt><trkpt lat="46.0979387" lon="13.4144097"><ele>130.2</ele><time>2026-04-24T14:04:59.228Z</time></trkpt><trkpt lat="46.0979456" lon="13.4142756"><ele>129.6</ele><time>2026-04-24T14:05:00.228Z</time></trkpt><trkpt lat="46.0979495" lon="13.4141415"><ele>129.0</ele><time>2026-04-24T14:05:01.226Z</time></trkpt><trkpt lat="46.0979594" lon="13.4140083"><ele>129.0</ele><time>2026-04-24T14:05:02.227Z</time></trkpt><trkpt lat="46.097979" lon="13.4138737"><ele>129.0</ele><time>2026-04-24T14:05:03.227Z</time></trkpt><trkpt lat="46.0979996" lon="13.413729"><ele>129.0</ele><time>2026-04-24T14:05:04.226Z</time></trkpt><trkpt lat="46.0980199" lon="13.4135793"><ele>129.0</ele><time>2026-04-24T14:05:05.228Z</time></trkpt><trkpt lat="46.098047" lon="13.4134259"><ele>129.0</ele><time>2026-04-24T14:05:06.226Z</time></trkpt><trkpt lat="46.0980753" lon="13.4132644"><ele>128.5</ele><time>2026-04-24T14:05:07.228Z</time></trkpt><trkpt lat="46.0981066" lon="13.4131044"><ele>128.0</ele><time>2026-04-24T14:05:08.227Z</time></trkpt><trkpt lat="46.098137" lon="13.4129413"><ele>127.5</ele><time>2026-04-24T14:05:09.227Z</time></trkpt><trkpt lat="46.0981619" lon="13.4127823"><ele>127.0</ele><time>2026-04-24T14:05:10.228Z</time></trkpt><trkpt lat="46.0981837" lon="13.4126199"><ele>127.0</ele><time>2026-04-24T14:05:11.226Z</time></trkpt><trkpt lat="46.0982054" lon="13.4124546"><ele>127.0</ele><time>2026-04-24T14:05:12.227Z</time></trkpt><trkpt lat="46.0982281" lon="13.4122879"><ele>127.0</ele><time>2026-04-24T14:05:13.226Z</time></trkpt><trkpt lat="46.0982539" lon="13.4121229"><ele>127.0</ele><time>2026-04-24T14:05:14.227Z</time></trkpt><trkpt lat="46.0982866" lon="13.4119555"><ele>127.0</ele><time>2026-04-24T14:05:15.226Z</time></trkpt><trkpt lat="46.0983235" lon="13.4117929"><ele>127.0</ele><time>2026-04-24T14:05:16.226Z</time></trkpt><trkpt lat="46.0983667" lon="13.4116324"><ele>127.0</ele><time>2026-04-24T14:05:17.228Z</time></trkpt><trkpt lat="46.0984142" lon="13.4114701"><ele>127.0</ele><time>2026-04-24T14:05:18.227Z</time></trkpt><trkpt lat="46.0984596" lon="13.4113074"><ele>127.0</ele><time>2026-04-24T14:05:19.226Z</time></trkpt><trkpt lat="46.0985017" lon="13.4111381"><ele>127.0</ele><time>2026-04-24T14:05:20.228Z</time></trkpt><trkpt lat="46.0985382" lon="13.4109659"><ele>127.0</ele><time>2026-04-24T14:05:21.226Z</time></trkpt><trkpt lat="46.0985692" lon="13.4107886"><ele>127.0</ele><time>2026-04-24T14:05:22.228Z</time></trkpt><trkpt lat="46.0985935" lon="13.4106097"><ele>126.8</ele><time>2026-04-24T14:05:23.228Z</time></trkpt><trkpt lat="46.0986107" lon="13.410427"><ele>126.6</ele><time>2026-04-24T14:05:24.227Z</time></trkpt><trkpt lat="46.0986256" lon="13.4102646"><ele>126.39999999999999</ele><time>2026-04-24T14:05:25.226Z</time></trkpt><trkpt lat="46.0986367" lon="13.410115"><ele>126.19999999999999</ele><time>2026-04-24T14:05:26.227Z</time></trkpt><trkpt lat="46.0986464" lon="13.4099892"><ele>126.0</ele><time>2026-04-24T14:05:27.228Z</time></trkpt><trkpt lat="46.0986482" lon="13.4098841"><ele>126.0</ele><time>2026-04-24T14:05:28.227Z</time></trkpt><trkpt lat="46.0986505" lon="13.4097544"><ele>126.0</ele><time>2026-04-24T14:05:30.226Z</time></trkpt><trkpt lat="46.0986452" lon="13.4096424"><ele>126.0</ele><time>2026-04-24T14:05:34.227Z</time></trkpt><trkpt lat="46.0986327" lon="13.4095363"><ele>126.0</ele><time>2026-04-24T14:05:36.228Z</time></trkpt><trkpt lat="46.0986084" lon="13.40937"><ele>126.0</ele><time>2026-04-24T14:05:38.228Z</time></trkpt><trkpt lat="46.0985716" lon="13.4092158"><ele>126.0</ele><time>2026-04-24T14:05:40.227Z</time></trkpt><trkpt lat="46.0985418" lon="13.4090492"><ele>126.0</ele><time>2026-04-24T14:05:42.227Z</time></trkpt><trkpt lat="46.0985238" lon="13.4088784"><ele>126.0</ele><time>2026-04-24T14:05:44.227Z</time></trkpt><trkpt lat="46.0985166" lon="13.4087117"><ele>126.0</ele><time>2026-04-24T14:05:46.227Z</time></trkpt><trkpt lat="46.0985551" lon="13.4085935"><ele>126.0</ele><time>2026-04-24T14:05:48.227Z</time></trkpt><trkpt lat="46.0986302" lon="13.4085599"><ele>125.83333333333333</ele><time>2026-04-24T14:05:50.227Z</time></trkpt><trkpt lat="46.0987388" lon="13.4085759"><ele>125.66666666666666</ele><time>2026-04-24T14:05:52.226Z</time></trkpt><trkpt lat="46.0988041" lon="13.4085892"><ele>125.5</ele><time>2026-04-24T14:05:53.226Z</time></trkpt><trkpt lat="46.0988721" lon="13.4086065"><ele>125.33333333333333</ele><time>2026-04-24T14:05:54.228Z</time></trkpt><trkpt lat="46.0989432" lon="13.4086214"><ele>125.16666666666666</ele><time>2026-04-24T14:05:55.226Z</time></trkpt><trkpt lat="46.0990195" lon="13.4086401"><ele>125.0</ele><time>2026-04-24T14:05:56.228Z</time></trkpt><trkpt lat="46.0990967" lon="13.4086558"><ele>125.33333333333333</ele><time>2026-04-24T14:05:57.226Z</time></trkpt><trkpt lat="46.0991749" lon="13.4086718"><ele>125.66666666666666</ele><time>2026-04-24T14:05:58.228Z</time></trkpt><trkpt lat="46.0992569" lon="13.4086864"><ele>126.0</ele><time>2026-04-24T14:05:59.227Z</time></trkpt><trkpt lat="46.0993402" lon="13.4087051"><ele>126.33333333333334</ele><time>2026-04-24T14:06:00.228Z</time></trkpt><trkpt lat="46.0994269" lon="13.4087275"><ele>126.66666666666667</ele><time>2026-04-24T14:06:01.226Z</time></trkpt><trkpt lat="46.0995146" lon="13.4087446"><ele>127.0</ele><time>2026-04-24T14:06:02.227Z</time></trkpt><trkpt lat="46.0996031" lon="13.4087613"><ele>127.00000000000001</ele><time>2026-04-24T14:06:03.226Z</time></trkpt><trkpt lat="46.099689" lon="13.4087802"><ele>127.0</ele><time>2026-04-24T14:06:04.227Z</time></trkpt><trkpt lat="46.0997737" lon="13.4087956"><ele>127.0</ele><time>2026-04-24T14:06:05.226Z</time></trkpt><trkpt lat="46.0998629" lon="13.4088152"><ele>127.0</ele><time>2026-04-24T14:06:06.226Z</time></trkpt><trkpt lat="46.0999515" lon="13.4088359"><ele>127.00000000000001</ele><time>2026-04-24T14:06:07.227Z</time></trkpt><trkpt lat="46.1000405" lon="13.408855"><ele>127.0</ele><time>2026-04-24T14:06:08.226Z</time></trkpt><trkpt lat="46.100129" lon="13.4088687"><ele>127.00000000000001</ele><time>2026-04-24T14:06:09.225Z</time></trkpt><trkpt lat="46.1002168" lon="13.408879"><ele>127.0</ele><time>2026-04-24T14:06:10.226Z</time></trkpt><trkpt lat="46.1003033" lon="13.4088863"><ele>127.0</ele><time>2026-04-24T14:06:11.226Z</time></trkpt><trkpt lat="46.1003897" lon="13.4088967"><ele>127.0</ele><time>2026-04-24T14:06:12.225Z</time></trkpt><trkpt lat="46.1004709" lon="13.4089076"><ele>127.00000000000001</ele><time>2026-04-24T14:06:13.226Z</time></trkpt><trkpt lat="46.1005555" lon="13.4089222"><ele>127.0</ele><time>2026-04-24T14:06:14.225Z</time></trkpt><trkpt lat="46.1006402" lon="13.4089414"><ele>127.00000000000001</ele><time>2026-04-24T14:06:15.225Z</time></trkpt><trkpt lat="46.1007242" lon="13.4089669"><ele>127.0</ele><time>2026-04-24T14:06:16.225Z</time></trkpt><trkpt lat="46.1008101" lon="13.4089963"><ele>127.0</ele><time>2026-04-24T14:06:17.226Z</time></trkpt><trkpt lat="46.1008943" lon="13.4090277"><ele>127.0</ele><time>2026-04-24T14:06:18.226Z</time></trkpt><trkpt lat="46.1009825" lon="13.4090605"><ele>127.00000000000001</ele><time>2026-04-24T14:06:19.226Z</time></trkpt><trkpt lat="46.1010696" lon="13.4090928"><ele>127.0</ele><time>2026-04-24T14:06:20.225Z</time></trkpt><trkpt lat="46.1011572" lon="13.4091229"><ele>127.0</ele><time>2026-04-24T14:06:21.226Z</time></trkpt><trkpt lat="46.1012458" lon="13.4091598"><ele>126.99999999999999</ele><time>2026-04-24T14:06:22.226Z</time></trkpt><trkpt lat="46.1013391" lon="13.4091914"><ele>126.99999999999999</ele><time>2026-04-24T14:06:23.225Z</time></trkpt><trkpt lat="46.1014314" lon="13.4092314"><ele>127.0</ele><time>2026-04-24T14:06:24.226Z</time></trkpt><trkpt lat="46.1015243" lon="13.4092705"><ele>127.0</ele><time>2026-04-24T14:06:25.227Z</time></trkpt><trkpt lat="46.1016157" lon="13.4093142"><ele>127.39999999999999</ele><time>2026-04-24T14:06:26.225Z</time></trkpt><trkpt lat="46.1017064" lon="13.4093519"><ele>127.79999999999998</ele><time>2026-04-24T14:06:27.225Z</time></trkpt><trkpt lat="46.1017962" lon="13.4093831"><ele>128.2</ele><time>2026-04-24T14:06:28.226Z</time></trkpt><trkpt lat="46.1018862" lon="13.4094004"><ele>128.6</ele><time>2026-04-24T14:06:29.227Z</time></trkpt><trkpt lat="46.101973" lon="13.4094091"><ele>129.0</ele><time>2026-04-24T14:06:30.225Z</time></trkpt><trkpt lat="46.1020593" lon="13.4094074"><ele>129.0</ele><time>2026-04-24T14:06:31.227Z</time></trkpt><trkpt lat="46.1021463" lon="13.4093958"><ele>129.0</ele><time>2026-04-24T14:06:32.225Z</time></trkpt><trkpt lat="46.1022305" lon="13.4093916"><ele>129.0</ele><time>2026-04-24T14:06:33.225Z</time></trkpt><trkpt lat="46.1023167" lon="13.4093923"><ele>129.0</ele><time>2026-04-24T14:06:34.225Z</time></trkpt><trkpt lat="46.1024055" lon="13.4094048"><ele>129.0</ele><time>2026-04-24T14:06:35.225Z</time></trkpt><trkpt lat="46.1024945" lon="13.4094234"><ele>129.0</ele><time>2026-04-24T14:06:36.226Z</time></trkpt><trkpt lat="46.1025843" lon="13.4094457"><ele>128.83333333333334</ele><time>2026-04-24T14:06:37.225Z</time></trkpt><trkpt lat="46.1026737" lon="13.4094682"><ele>128.66666666666666</ele><time>2026-04-24T14:06:38.225Z</time></trkpt><trkpt lat="46.1027597" lon="13.4094964"><ele>128.5</ele><time>2026-04-24T14:06:39.226Z</time></trkpt><trkpt lat="46.1028455" lon="13.4095252"><ele>128.33333333333331</ele><time>2026-04-24T14:06:40.226Z</time></trkpt><trkpt lat="46.102928" lon="13.4095634"><ele>128.16666666666666</ele><time>2026-04-24T14:06:41.226Z</time></trkpt><trkpt lat="46.1030093" lon="13.4096061"><ele>128.0</ele><time>2026-04-24T14:06:42.226Z</time></trkpt><trkpt lat="46.1030828" lon="13.409649"><ele>127.99999999999999</ele><time>2026-04-24T14:06:43.227Z</time></trkpt><trkpt lat="46.103156" lon="13.409699"><ele>128.0</ele><time>2026-04-24T14:06:44.226Z</time></trkpt><trkpt lat="46.1032277" lon="13.4097528"><ele>128.0</ele><time>2026-04-24T14:06:45.227Z</time></trkpt><trkpt lat="46.1032953" lon="13.4098136"><ele>128.0</ele><time>2026-04-24T14:06:46.226Z</time></trkpt><trkpt lat="46.1033595" lon="13.4098836"><ele>127.99999999999999</ele><time>2026-04-24T14:06:47.226Z</time></trkpt><trkpt lat="46.1034225" lon="13.4099605"><ele>128.0</ele><time>2026-04-24T14:06:48.225Z</time></trkpt><trkpt lat="46.1034782" lon="13.4100427"><ele>128.33333333333331</ele><time>2026-04-24T14:06:49.226Z</time></trkpt><trkpt lat="46.1035308" lon="13.4101203"><ele>128.66666666666666</ele><time>2026-04-24T14:06:50.225Z</time></trkpt><trkpt lat="46.1035929" lon="13.4102387"><ele>129.0</ele><time>2026-04-24T14:06:52.227Z</time></trkpt><trkpt lat="46.1036685" lon="13.4102775"><ele>129.33333333333334</ele><time>2026-04-24T14:06:58.227Z</time></trkpt><trkpt lat="46.10372" lon="13.4101644"><ele>129.66666666666669</ele><time>2026-04-24T14:07:00.226Z</time></trkpt><trkpt lat="46.1037477" lon="13.4100685"><ele>130.0</ele><time>2026-04-24T14:07:01.227Z</time></trkpt><trkpt lat="46.103778" lon="13.4099765"><ele>130.0</ele><time>2026-04-24T14:07:02.227Z</time></trkpt><trkpt lat="46.1038078" lon="13.4098582"><ele>130.0</ele><time>2026-04-24T14:07:03.226Z</time></trkpt><trkpt lat="46.1038335" lon="13.4097361"><ele>130.0</ele><time>2026-04-24T14:07:04.225Z</time></trkpt><trkpt lat="46.1038596" lon="13.4096079"><ele>130.0</ele><time>2026-04-24T14:07:05.226Z</time></trkpt><trkpt lat="46.1038856" lon="13.4094729"><ele>130.0</ele><time>2026-04-24T14:07:06.226Z</time></trkpt><trkpt lat="46.1039162" lon="13.4093305"><ele>129.66666666666669</ele><time>2026-04-24T14:07:07.226Z</time></trkpt><trkpt lat="46.1039436" lon="13.409199"><ele>129.33333333333334</ele><time>2026-04-24T14:07:08.226Z</time></trkpt><trkpt lat="46.1039724" lon="13.4090727"><ele>129.0</ele><time>2026-04-24T14:07:09.225Z</time></trkpt><trkpt lat="46.103995" lon="13.4089407"><ele>128.66666666666666</ele><time>2026-04-24T14:07:10.225Z</time></trkpt><trkpt lat="46.1040213" lon="13.4088223"><ele>128.33333333333331</ele><time>2026-04-24T14:07:11.226Z</time></trkpt><trkpt lat="46.1040461" lon="13.4087103"><ele>128.0</ele><time>2026-04-24T14:07:12.225Z</time></trkpt><trkpt lat="46.1040677" lon="13.4085965"><ele>127.83333333333333</ele><time>2026-04-24T14:07:13.226Z</time></trkpt><trkpt lat="46.1040935" lon="13.4084882"><ele>127.66666666666666</ele><time>2026-04-24T14:07:14.227Z</time></trkpt><trkpt lat="46.1041242" lon="13.4083724"><ele>127.5</ele><time>2026-04-24T14:07:15.226Z</time></trkpt><trkpt lat="46.1041538" lon="13.4082553"><ele>127.33333333333334</ele><time>2026-04-24T14:07:16.225Z</time></trkpt><trkpt lat="46.1041841" lon="13.4081407"><ele>127.16666666666667</ele><time>2026-04-24T14:07:17.225Z</time></trkpt><trkpt lat="46.1042151" lon="13.4080226"><ele>127.0</ele><time>2026-04-24T14:07:18.224Z</time></trkpt><trkpt lat="46.1042482" lon="13.4079075"><ele>127.00000000000001</ele><time>2026-04-24T14:07:19.225Z</time></trkpt><trkpt lat="46.1042813" lon="13.4077918"><ele>127.0</ele><time>2026-04-24T14:07:20.224Z</time></trkpt><trkpt lat="46.1043162" lon="13.4076735"><ele>127.0</ele><time>2026-04-24T14:07:21.226Z</time></trkpt><trkpt lat="46.1043537" lon="13.407555"><ele>127.0</ele><time>2026-04-24T14:07:22.226Z</time></trkpt><trkpt lat="46.1043904" lon="13.4074405"><ele>127.00000000000001</ele><time>2026-04-24T14:07:23.226Z</time></trkpt><trkpt lat="46.1044227" lon="13.4073201"><ele>127.0</ele><time>2026-04-24T14:07:24.224Z</time></trkpt><trkpt lat="46.1044601" lon="13.4071986"><ele>126.8</ele><time>2026-04-24T14:07:25.224Z</time></trkpt><trkpt lat="46.1045024" lon="13.4070765"><ele>126.6</ele><time>2026-04-24T14:07:26.225Z</time></trkpt><trkpt lat="46.1045479" lon="13.4069584"><ele>126.39999999999999</ele><time>2026-04-24T14:07:27.224Z</time></trkpt><trkpt lat="46.1045937" lon="13.4068335"><ele>126.19999999999999</ele><time>2026-04-24T14:07:28.224Z</time></trkpt><trkpt lat="46.1046381" lon="13.4067115"><ele>126.0</ele><time>2026-04-24T14:07:29.226Z</time></trkpt><trkpt lat="46.1046797" lon="13.4065831"><ele>126.0</ele><time>2026-04-24T14:07:30.225Z</time></trkpt><trkpt lat="46.1047201" lon="13.4064575"><ele>126.0</ele><time>2026-04-24T14:07:31.225Z</time></trkpt><trkpt lat="46.1047652" lon="13.4063339"><ele>126.0</ele><time>2026-04-24T14:07:32.224Z</time></trkpt><trkpt lat="46.1048157" lon="13.4062096"><ele>126.0</ele><time>2026-04-24T14:07:33.225Z</time></trkpt><trkpt lat="46.1048612" lon="13.4060836"><ele>126.0</ele><time>2026-04-24T14:07:34.225Z</time></trkpt><trkpt lat="46.1049032" lon="13.4059623"><ele>126.0</ele><time>2026-04-24T14:07:35.224Z</time></trkpt><trkpt lat="46.1049431" lon="13.405843"><ele>126.0</ele><time>2026-04-24T14:07:36.225Z</time></trkpt><trkpt lat="46.1049862" lon="13.4057286"><ele>126.0</ele><time>2026-04-24T14:07:37.225Z</time></trkpt><trkpt lat="46.1050407" lon="13.405623"><ele>126.0</ele><time>2026-04-24T14:07:38.225Z</time></trkpt><trkpt lat="46.1050997" lon="13.4055252"><ele>126.0</ele><time>2026-04-24T14:07:39.224Z</time></trkpt><trkpt lat="46.1051539" lon="13.4054256"><ele>126.33333333333333</ele><time>2026-04-24T14:07:40.226Z</time></trkpt><trkpt lat="46.1052022" lon="13.4053134"><ele>126.66666666666666</ele><time>2026-04-24T14:07:41.224Z</time></trkpt><trkpt lat="46.1052424" lon="13.4051961"><ele>127.0</ele><time>2026-04-24T14:07:42.226Z</time></trkpt><trkpt lat="46.1052735" lon="13.405079"><ele>127.33333333333333</ele><time>2026-04-24T14:07:43.225Z</time></trkpt><trkpt lat="46.1052998" lon="13.404968"><ele>127.66666666666666</ele><time>2026-04-24T14:07:44.225Z</time></trkpt><trkpt lat="46.10532" lon="13.4048449"><ele>128.0</ele><time>2026-04-24T14:07:45.224Z</time></trkpt><trkpt lat="46.1053437" lon="13.4047199"><ele>128.0</ele><time>2026-04-24T14:07:46.224Z</time></trkpt><trkpt lat="46.1053683" lon="13.4045859"><ele>128.0</ele><time>2026-04-24T14:07:47.225Z</time></trkpt><trkpt lat="46.105393" lon="13.4044565"><ele>128.0</ele><time>2026-04-24T14:07:48.225Z</time></trkpt><trkpt lat="46.1054162" lon="13.4043251"><ele>128.0</ele><time>2026-04-24T14:07:49.224Z</time></trkpt><trkpt lat="46.1054431" lon="13.404194"><ele>128.0</ele><time>2026-04-24T14:07:50.225Z</time></trkpt><trkpt lat="46.1054683" lon="13.4040665"><ele>127.99999999999999</ele><time>2026-04-24T14:07:51.226Z</time></trkpt><trkpt lat="46.1054968" lon="13.4039406"><ele>128.0</ele><time>2026-04-24T14:07:52.225Z</time></trkpt><trkpt lat="46.1055245" lon="13.4038142"><ele>128.0</ele><time>2026-04-24T14:07:53.225Z</time></trkpt><trkpt lat="46.1055553" lon="13.4036896"><ele>128.0</ele><time>2026-04-24T14:07:54.224Z</time></trkpt><trkpt lat="46.1055803" lon="13.4035679"><ele>127.99999999999999</ele><time>2026-04-24T14:07:55.225Z</time></trkpt><trkpt lat="46.1056069" lon="13.4034499"><ele>128.0</ele><time>2026-04-24T14:07:56.224Z</time></trkpt><trkpt lat="46.1056313" lon="13.403344"><ele>127.80000000000001</ele><time>2026-04-24T14:07:57.225Z</time></trkpt><trkpt lat="46.1056576" lon="13.4032516"><ele>127.60000000000001</ele><time>2026-04-24T14:07:58.226Z</time></trkpt><trkpt lat="46.1057246" lon="13.4031284"><ele>127.39999999999999</ele><time>2026-04-24T14:08:00.225Z</time></trkpt><trkpt lat="46.1058383" lon="13.4030674"><ele>127.19999999999999</ele><time>2026-04-24T14:08:02.226Z</time></trkpt><trkpt lat="46.1059118" lon="13.4030449"><ele>127.0</ele><time>2026-04-24T14:08:03.225Z</time></trkpt><trkpt lat="46.1059912" lon="13.4030397"><ele>126.83333333333334</ele><time>2026-04-24T14:08:04.224Z</time></trkpt><trkpt lat="46.1060727" lon="13.4030355"><ele>126.66666666666667</ele><time>2026-04-24T14:08:05.225Z</time></trkpt><trkpt lat="46.1061564" lon="13.403025"><ele>126.5</ele><time>2026-04-24T14:08:06.226Z</time></trkpt><trkpt lat="46.1062402" lon="13.4030113"><ele>126.33333333333334</ele><time>2026-04-24T14:08:07.225Z</time></trkpt><trkpt lat="46.1063262" lon="13.4029961"><ele>126.16666666666667</ele><time>2026-04-24T14:08:08.226Z</time></trkpt><trkpt lat="46.1064144" lon="13.4029801"><ele>126.0</ele><time>2026-04-24T14:08:09.225Z</time></trkpt><trkpt lat="46.1065049" lon="13.4029645"><ele>125.8</ele><time>2026-04-24T14:08:10.226Z</time></trkpt><trkpt lat="46.1065977" lon="13.4029514"><ele>125.6</ele><time>2026-04-24T14:08:11.225Z</time></trkpt><trkpt lat="46.1066921" lon="13.4029359"><ele>125.4</ele><time>2026-04-24T14:08:12.226Z</time></trkpt><trkpt lat="46.106787" lon="13.4029178"><ele>125.2</ele><time>2026-04-24T14:08:13.225Z</time></trkpt><trkpt lat="46.1068837" lon="13.4028994"><ele>125.0</ele><time>2026-04-24T14:08:14.225Z</time></trkpt><trkpt lat="46.1069801" lon="13.4028833"><ele>125.0</ele><time>2026-04-24T14:08:15.224Z</time></trkpt><trkpt lat="46.1070774" lon="13.402864"><ele>125.0</ele><time>2026-04-24T14:08:16.226Z</time></trkpt><trkpt lat="46.1071737" lon="13.4028434"><ele>125.0</ele><time>2026-04-24T14:08:17.224Z</time></trkpt><trkpt lat="46.1072681" lon="13.4028313"><ele>125.0</ele><time>2026-04-24T14:08:18.224Z</time></trkpt><trkpt lat="46.1073621" lon="13.402825"><ele>125.0</ele><time>2026-04-24T14:08:19.225Z</time></trkpt><trkpt lat="46.1074536" lon="13.4028291"><ele>125.49999999999999</ele><time>2026-04-24T14:08:20.226Z</time></trkpt><trkpt lat="46.1075429" lon="13.4028401"><ele>126.0</ele><time>2026-04-24T14:08:21.225Z</time></trkpt><trkpt lat="46.1076289" lon="13.4028621"><ele>126.5</ele><time>2026-04-24T14:08:22.225Z</time></trkpt><trkpt lat="46.1077124" lon="13.4028894"><ele>127.0</ele><time>2026-04-24T14:08:23.226Z</time></trkpt><trkpt lat="46.1077952" lon="13.4029148"><ele>127.49999999999999</ele><time>2026-04-24T14:08:24.224Z</time></trkpt><trkpt lat="46.1078753" lon="13.4029421"><ele>128.0</ele><time>2026-04-24T14:08:25.226Z</time></trkpt><trkpt lat="46.1079581" lon="13.4029697"><ele>127.99999999999999</ele><time>2026-04-24T14:08:26.225Z</time></trkpt><trkpt lat="46.1080376" lon="13.4029956"><ele>128.0</ele><time>2026-04-24T14:08:27.225Z</time></trkpt><trkpt lat="46.1081121" lon="13.4030202"><ele>128.0</ele><time>2026-04-24T14:08:28.225Z</time></trkpt><trkpt lat="46.1081896" lon="13.4030419"><ele>128.0</ele><time>2026-04-24T14:08:29.226Z</time></trkpt><trkpt lat="46.1082692" lon="13.4030697"><ele>127.99999999999999</ele><time>2026-04-24T14:08:30.224Z</time></trkpt><trkpt lat="46.1083528" lon="13.4030969"><ele>128.0</ele><time>2026-04-24T14:08:31.224Z</time></trkpt><trkpt lat="46.1084358" lon="13.4031243"><ele>127.99999999999999</ele><time>2026-04-24T14:08:32.224Z</time></trkpt><trkpt lat="46.10852" lon="13.4031569"><ele>128.0</ele><time>2026-04-24T14:08:33.225Z</time></trkpt><trkpt lat="46.1086064" lon="13.4031899"><ele>128.0</ele><time>2026-04-24T14:08:34.225Z</time></trkpt><trkpt lat="46.1086904" lon="13.4032231"><ele>128.0</ele><time>2026-04-24T14:08:35.226Z</time></trkpt><trkpt lat="46.1087773" lon="13.4032502"><ele>127.99999999999999</ele><time>2026-04-24T14:08:36.224Z</time></trkpt><trkpt lat="46.1088615" lon="13.4032789"><ele>128.0</ele><time>2026-04-24T14:08:37.224Z</time></trkpt><trkpt lat="46.1089414" lon="13.4033108"><ele>128.0</ele><time>2026-04-24T14:08:38.224Z</time></trkpt><trkpt lat="46.109011" lon="13.4033312"><ele>128.0</ele><time>2026-04-24T14:08:39.225Z</time></trkpt><trkpt lat="46.1091334" lon="13.4033208"><ele>128.0</ele><time>2026-04-24T14:08:41.224Z</time></trkpt><trkpt lat="46.1092364" lon="13.4032199"><ele>128.0</ele><time>2026-04-24T14:08:43.225Z</time></trkpt><trkpt lat="46.1092828" lon="13.4031372"><ele>128.0</ele><time>2026-04-24T14:08:44.225Z</time></trkpt><trkpt lat="46.1093335" lon="13.4030457"><ele>129.4</ele><time>2026-04-24T14:08:45.226Z</time></trkpt><trkpt lat="46.1093941" lon="13.4029465"><ele>130.8</ele><time>2026-04-24T14:08:46.226Z</time></trkpt><trkpt lat="46.1094533" lon="13.4028406"><ele>132.2</ele><time>2026-04-24T14:08:47.225Z</time></trkpt><trkpt lat="46.1095065" lon="13.4027269"><ele>133.6</ele><time>2026-04-24T14:08:48.224Z</time></trkpt><trkpt lat="46.1095673" lon="13.4026156"><ele>135.0</ele><time>2026-04-24T14:08:49.225Z</time></trkpt><trkpt lat="46.1096304" lon="13.402506"><ele>135.0</ele><time>2026-04-24T14:08:50.226Z</time></trkpt><trkpt lat="46.1096853" lon="13.4023897"><ele>135.0</ele><time>2026-04-24T14:08:51.225Z</time></trkpt><trkpt lat="46.1097439" lon="13.4022713"><ele>135.0</ele><time>2026-04-24T14:08:52.225Z</time></trkpt><trkpt lat="46.1098072" lon="13.4021599"><ele>135.0</ele><time>2026-04-24T14:08:53.224Z</time></trkpt><trkpt lat="46.109877" lon="13.4020676"><ele>135.0</ele><time>2026-04-24T14:08:54.224Z</time></trkpt><trkpt lat="46.109951" lon="13.4020008"><ele>134.5</ele><time>2026-04-24T14:08:55.225Z</time></trkpt><trkpt lat="46.1100085" lon="13.4019578"><ele>134.0</ele><time>2026-04-24T14:08:56.225Z</time></trkpt><trkpt lat="46.1100666" lon="13.4019155"><ele>133.5</ele><time>2026-04-24T14:08:58.225Z</time></trkpt><trkpt lat="46.1100049" lon="13.4018633"><ele>133.0</ele><time>2026-04-24T14:09:23.224Z</time></trkpt><trkpt lat="46.1099207" lon="13.4018584"><ele>132.5</ele><time>2026-04-24T14:09:25.225Z</time></trkpt><trkpt lat="46.109823" lon="13.401848"><ele>132.0</ele><time>2026-04-24T14:09:27.225Z</time></trkpt><trkpt lat="46.1097134" lon="13.4018335"><ele>132.0</ele><time>2026-04-24T14:09:29.224Z</time></trkpt><trkpt lat="46.1095948" lon="13.401805"><ele>132.0</ele><time>2026-04-24T14:09:31.224Z</time></trkpt><trkpt lat="46.1094667" lon="13.4017777"><ele>132.0</ele><time>2026-04-24T14:09:33.224Z</time></trkpt><trkpt lat="46.1093489" lon="13.4017464"><ele>132.0</ele><time>2026-04-24T14:09:35.224Z</time></trkpt><trkpt lat="46.1092861" lon="13.4017287"><ele>132.0</ele><time>2026-04-24T14:09:36.224Z</time></trkpt><trkpt lat="46.1091654" lon="13.4016711"><ele>132.0</ele><time>2026-04-24T14:09:38.223Z</time></trkpt><trkpt lat="46.1091044" lon="13.4016358"><ele>132.0</ele><time>2026-04-24T14:09:39.224Z</time></trkpt><trkpt lat="46.1090459" lon="13.4015965"><ele>132.0</ele><time>2026-04-24T14:09:40.224Z</time></trkpt><trkpt lat="46.1089835" lon="13.4015605"><ele>132.0</ele><time>2026-04-24T14:09:41.224Z</time></trkpt><trkpt lat="46.1089225" lon="13.4015123"><ele>132.0</ele><time>2026-04-24T14:09:42.225Z</time></trkpt><trkpt lat="46.1088652" lon="13.4014585"><ele>132.0</ele><time>2026-04-24T14:09:43.224Z</time></trkpt><trkpt lat="46.1088075" lon="13.4014034"><ele>132.0</ele><time>2026-04-24T14:09:44.224Z</time></trkpt><trkpt lat="46.1087509" lon="13.401344"><ele>131.57142857142856</ele><time>2026-04-24T14:09:45.225Z</time></trkpt><trkpt lat="46.1086964" lon="13.4012829"><ele>131.14285714285714</ele><time>2026-04-24T14:09:46.224Z</time></trkpt><trkpt lat="46.1086417" lon="13.4012261"><ele>130.71428571428572</ele><time>2026-04-24T14:09:47.223Z</time></trkpt><trkpt lat="46.1085895" lon="13.4011647"><ele>130.28571428571428</ele><time>2026-04-24T14:09:48.224Z</time></trkpt><trkpt lat="46.1085428" lon="13.4010959"><ele>129.85714285714286</ele><time>2026-04-24T14:09:49.225Z</time></trkpt><trkpt lat="46.1084969" lon="13.4010255"><ele>129.42857142857142</ele><time>2026-04-24T14:09:50.223Z</time></trkpt><trkpt lat="46.1084533" lon="13.4009515"><ele>129.0</ele><time>2026-04-24T14:09:51.223Z</time></trkpt><trkpt lat="46.1084114" lon="13.4008778"><ele>128.99999999999997</ele><time>2026-04-24T14:09:52.224Z</time></trkpt><trkpt lat="46.1083703" lon="13.4008021"><ele>129.0</ele><time>2026-04-24T14:09:53.225Z</time></trkpt><trkpt lat="46.1083306" lon="13.4007254"><ele>129.0</ele><time>2026-04-24T14:09:54.223Z</time></trkpt><trkpt lat="46.1082903" lon="13.4006505"><ele>129.0</ele><time>2026-04-24T14:09:55.223Z</time></trkpt><trkpt lat="46.1082495" lon="13.4005726"><ele>129.0</ele><time>2026-04-24T14:09:56.223Z</time></trkpt><trkpt lat="46.1082111" lon="13.4004987"><ele>128.99999999999997</ele><time>2026-04-24T14:09:57.225Z</time></trkpt><trkpt lat="46.1081695" lon="13.4004235"><ele>129.0</ele><time>2026-04-24T14:09:58.224Z</time></trkpt><trkpt lat="46.1081263" lon="13.4003571"><ele>128.8</ele><time>2026-04-24T14:09:59.224Z</time></trkpt><trkpt lat="46.1080513" lon="13.4002532"><ele>128.60000000000002</ele><time>2026-04-24T14:10:01.224Z</time></trkpt><trkpt lat="46.1079959" lon="13.4001649"><ele>128.4</ele><time>2026-04-24T14:10:03.223Z</time></trkpt><trkpt lat="46.1079173" lon="13.400034"><ele>128.20000000000002</ele><time>2026-04-24T14:10:05.223Z</time></trkpt><trkpt lat="46.1078357" lon="13.3998892"><ele>128.0</ele><time>2026-04-24T14:10:07.223Z</time></trkpt><trkpt lat="46.1077911" lon="13.3998107"><ele>127.99999999999999</ele><time>2026-04-24T14:10:08.224Z</time></trkpt><trkpt lat="46.107746" lon="13.3997269"><ele>128.0</ele><time>2026-04-24T14:10:09.223Z</time></trkpt><trkpt lat="46.107699" lon="13.3996389"><ele>128.0</ele><time>2026-04-24T14:10:10.224Z</time></trkpt><trkpt lat="46.1076469" lon="13.3995456"><ele>128.0</ele><time>2026-04-24T14:10:11.224Z</time></trkpt><trkpt lat="46.1075911" lon="13.3994452"><ele>127.99999999999999</ele><time>2026-04-24T14:10:12.224Z</time></trkpt><trkpt lat="46.1075398" lon="13.3993495"><ele>128.0</ele><time>2026-04-24T14:10:13.223Z</time></trkpt><trkpt lat="46.1074863" lon="13.3992532"><ele>128.4</ele><time>2026-04-24T14:10:14.224Z</time></trkpt><trkpt lat="46.1074281" lon="13.3991506"><ele>128.8</ele><time>2026-04-24T14:10:15.224Z</time></trkpt><trkpt lat="46.107367" lon="13.3990424"><ele>129.2</ele><time>2026-04-24T14:10:16.224Z</time></trkpt><trkpt lat="46.107301" lon="13.3989314"><ele>129.6</ele><time>2026-04-24T14:10:17.223Z</time></trkpt><trkpt lat="46.1072361" lon="13.3988179"><ele>130.0</ele><time>2026-04-24T14:10:18.224Z</time></trkpt><trkpt lat="46.1071716" lon="13.3987075"><ele>129.33333333333334</ele><time>2026-04-24T14:10:19.223Z</time></trkpt><trkpt lat="46.1071112" lon="13.3985988"><ele>128.66666666666669</ele><time>2026-04-24T14:10:20.224Z</time></trkpt><trkpt lat="46.1070522" lon="13.3984991"><ele>128.0</ele><time>2026-04-24T14:10:21.224Z</time></trkpt><trkpt lat="46.1069936" lon="13.3984109"><ele>127.33333333333334</ele><time>2026-04-24T14:10:22.224Z</time></trkpt><trkpt lat="46.1069366" lon="13.3983376"><ele>126.66666666666667</ele><time>2026-04-24T14:10:23.223Z</time></trkpt><trkpt lat="46.1068706" lon="13.398272"><ele>126.0</ele><time>2026-04-24T14:10:24.225Z</time></trkpt><trkpt lat="46.1068018" lon="13.3982229"><ele>126.0</ele><time>2026-04-24T14:10:25.224Z</time></trkpt><trkpt lat="46.1067258" lon="13.3981924"><ele>126.0</ele><time>2026-04-24T14:10:26.224Z</time></trkpt><trkpt lat="46.1066338" lon="13.3981683"><ele>126.0</ele><time>2026-04-24T14:10:27.223Z</time></trkpt><trkpt lat="46.1065308" lon="13.398146"><ele>126.0</ele><time>2026-04-24T14:10:28.225Z</time></trkpt><trkpt lat="46.106432" lon="13.3981222"><ele>126.0</ele><time>2026-04-24T14:10:29.223Z</time></trkpt><trkpt lat="46.1063283" lon="13.3981056"><ele>126.19999999999999</ele><time>2026-04-24T14:10:30.224Z</time></trkpt><trkpt lat="46.1062242" lon="13.3980838"><ele>126.39999999999999</ele><time>2026-04-24T14:10:31.223Z</time></trkpt><trkpt lat="46.1061201" lon="13.3980603"><ele>126.6</ele><time>2026-04-24T14:10:32.224Z</time></trkpt><trkpt lat="46.1060235" lon="13.3980256"><ele>126.8</ele><time>2026-04-24T14:10:33.224Z</time></trkpt><trkpt lat="46.1059355" lon="13.3979842"><ele>127.0</ele><time>2026-04-24T14:10:34.224Z</time></trkpt><trkpt lat="46.1058597" lon="13.3979339"><ele>127.0</ele><time>2026-04-24T14:10:35.224Z</time></trkpt><trkpt lat="46.1057832" lon="13.3978688"><ele>126.99999999999999</ele><time>2026-04-24T14:10:36.224Z</time></trkpt><trkpt lat="46.1057066" lon="13.3977987"><ele>126.99999999999999</ele><time>2026-04-24T14:10:37.224Z</time></trkpt><trkpt lat="46.1056348" lon="13.3977138"><ele>127.0</ele><time>2026-04-24T14:10:38.225Z</time></trkpt><trkpt lat="46.1055661" lon="13.3976205"><ele>127.0</ele><time>2026-04-24T14:10:39.224Z</time></trkpt><trkpt lat="46.1054979" lon="13.3975202"><ele>126.6</ele><time>2026-04-24T14:10:40.225Z</time></trkpt><trkpt lat="46.1054324" lon="13.3974136"><ele>126.19999999999999</ele><time>2026-04-24T14:10:41.224Z</time></trkpt><trkpt lat="46.1053655" lon="13.3973024"><ele>125.8</ele><time>2026-04-24T14:10:42.224Z</time></trkpt><trkpt lat="46.1052937" lon="13.3971909"><ele>125.4</ele><time>2026-04-24T14:10:43.223Z</time></trkpt><trkpt lat="46.1052193" lon="13.3970676"><ele>125.0</ele><time>2026-04-24T14:10:44.224Z</time></trkpt><trkpt lat="46.1051464" lon="13.3969412"><ele>125.0</ele><time>2026-04-24T14:10:45.225Z</time></trkpt><trkpt lat="46.1050691" lon="13.3968131"><ele>125.0</ele><time>2026-04-24T14:10:46.224Z</time></trkpt><trkpt lat="46.1049907" lon="13.3966888"><ele>125.0</ele><time>2026-04-24T14:10:47.224Z</time></trkpt><trkpt lat="46.1049157" lon="13.3965624"><ele>125.0</ele><time>2026-04-24T14:10:48.223Z</time></trkpt><trkpt lat="46.1048492" lon="13.3964455"><ele>125.0</ele><time>2026-04-24T14:10:49.224Z</time></trkpt><trkpt lat="46.1047876" lon="13.3963382"><ele>125.0</ele><time>2026-04-24T14:10:50.223Z</time></trkpt><trkpt lat="46.1047243" lon="13.3962347"><ele>125.0</ele><time>2026-04-24T14:10:51.224Z</time></trkpt><trkpt lat="46.104653" lon="13.3961357"><ele>125.0</ele><time>2026-04-24T14:10:52.224Z</time></trkpt><trkpt lat="46.1045906" lon="13.3960186"><ele>125.0</ele><time>2026-04-24T14:10:53.224Z</time></trkpt><trkpt lat="46.10452" lon="13.3958956"><ele>125.0</ele><time>2026-04-24T14:10:54.225Z</time></trkpt><trkpt lat="46.1044469" lon="13.3957677"><ele>125.0</ele><time>2026-04-24T14:10:55.225Z</time></trkpt><trkpt lat="46.1043731" lon="13.3956369"><ele>125.0</ele><time>2026-04-24T14:10:56.225Z</time></trkpt><trkpt lat="46.1042976" lon="13.3955094"><ele>125.0</ele><time>2026-04-24T14:10:57.224Z</time></trkpt><trkpt lat="46.1042222" lon="13.3953833"><ele>125.0</ele><time>2026-04-24T14:10:58.223Z</time></trkpt><trkpt lat="46.1041465" lon="13.3952587"><ele>125.0</ele><time>2026-04-24T14:10:59.223Z</time></trkpt><trkpt lat="46.104072" lon="13.3951331"><ele>125.0</ele><time>2026-04-24T14:11:00.223Z</time></trkpt><trkpt lat="46.1039982" lon="13.3950075"><ele>125.0</ele><time>2026-04-24T14:11:01.224Z</time></trkpt><trkpt lat="46.1039241" lon="13.3948843"><ele>124.8</ele><time>2026-04-24T14:11:02.224Z</time></trkpt><trkpt lat="46.1038545" lon="13.3947665"><ele>124.6</ele><time>2026-04-24T14:11:03.223Z</time></trkpt><trkpt lat="46.1037886" lon="13.3946489"><ele>124.4</ele><time>2026-04-24T14:11:04.225Z</time></trkpt><trkpt lat="46.1037255" lon="13.3945339"><ele>124.2</ele><time>2026-04-24T14:11:05.224Z</time></trkpt><trkpt lat="46.1036664" lon="13.3944246"><ele>124.0</ele><time>2026-04-24T14:11:06.224Z</time></trkpt><trkpt lat="46.1036102" lon="13.3943207"><ele>124.00000000000001</ele><time>2026-04-24T14:11:07.225Z</time></trkpt><trkpt lat="46.1035601" lon="13.3942158"><ele>124.0</ele><time>2026-04-24T14:11:08.224Z</time></trkpt><trkpt lat="46.1035158" lon="13.3941087"><ele>124.0</ele><time>2026-04-24T14:11:09.224Z</time></trkpt><trkpt lat="46.103475" lon="13.3939943"><ele>124.0</ele><time>2026-04-24T14:11:10.224Z</time></trkpt><trkpt lat="46.1034385" lon="13.393872"><ele>124.00000000000001</ele><time>2026-04-24T14:11:11.224Z</time></trkpt><trkpt lat="46.103403" lon="13.3937494"><ele>124.0</ele><time>2026-04-24T14:11:12.224Z</time></trkpt><trkpt lat="46.1033707" lon="13.393629"><ele>124.16666666666667</ele><time>2026-04-24T14:11:13.225Z</time></trkpt><trkpt lat="46.1033403" lon="13.3935072"><ele>124.33333333333334</ele><time>2026-04-24T14:11:14.223Z</time></trkpt><trkpt lat="46.1033128" lon="13.393385"><ele>124.5</ele><time>2026-04-24T14:11:15.224Z</time></trkpt><trkpt lat="46.1032874" lon="13.393261"><ele>124.66666666666666</ele><time>2026-04-24T14:11:16.224Z</time></trkpt><trkpt lat="46.1032658" lon="13.3931339"><ele>124.83333333333333</ele><time>2026-04-24T14:11:17.225Z</time></trkpt><trkpt lat="46.1032472" lon="13.3930066"><ele>125.0</ele><time>2026-04-24T14:11:18.224Z</time></trkpt><trkpt lat="46.1032369" lon="13.3928765"><ele>124.6</ele><time>2026-04-24T14:11:19.223Z</time></trkpt><trkpt lat="46.1032353" lon="13.3927416"><ele>124.2</ele><time>2026-04-24T14:11:20.223Z</time></trkpt><trkpt lat="46.1032382" lon="13.3926012"><ele>123.80000000000001</ele><time>2026-04-24T14:11:21.224Z</time></trkpt><trkpt lat="46.1032393" lon="13.3924546"><ele>123.4</ele><time>2026-04-24T14:11:22.223Z</time></trkpt><trkpt lat="46.1032405" lon="13.3922997"><ele>123.0</ele><time>2026-04-24T14:11:23.224Z</time></trkpt><trkpt lat="46.1032384" lon="13.3921382"><ele>123.0</ele><time>2026-04-24T14:11:24.224Z</time></trkpt><trkpt lat="46.1032335" lon="13.3919786"><ele>123.00000000000001</ele><time>2026-04-24T14:11:25.223Z</time></trkpt><trkpt lat="46.1032212" lon="13.3918266"><ele>123.00000000000001</ele><time>2026-04-24T14:11:26.223Z</time></trkpt><trkpt lat="46.1032006" lon="13.3916838"><ele>123.0</ele><time>2026-04-24T14:11:27.224Z</time></trkpt><trkpt lat="46.103169" lon="13.3915503"><ele>123.0</ele><time>2026-04-24T14:11:28.223Z</time></trkpt><trkpt lat="46.1031307" lon="13.3914286"><ele>122.83333333333333</ele><time>2026-04-24T14:11:29.224Z</time></trkpt><trkpt lat="46.1030831" lon="13.3913185"><ele>122.66666666666666</ele><time>2026-04-24T14:11:30.224Z</time></trkpt><trkpt lat="46.1030299" lon="13.3912144"><ele>122.5</ele><time>2026-04-24T14:11:31.223Z</time></trkpt><trkpt lat="46.1029712" lon="13.3911151"><ele>122.33333333333333</ele><time>2026-04-24T14:11:32.224Z</time></trkpt><trkpt lat="46.1029087" lon="13.3910246"><ele>122.16666666666666</ele><time>2026-04-24T14:11:33.224Z</time></trkpt><trkpt lat="46.1028427" lon="13.3909394"><ele>122.0</ele><time>2026-04-24T14:11:34.223Z</time></trkpt><trkpt lat="46.1027729" lon="13.3908575"><ele>122.0</ele><time>2026-04-24T14:11:35.224Z</time></trkpt><trkpt lat="46.1027016" lon="13.3907685"><ele>121.99999999999999</ele><time>2026-04-24T14:11:36.224Z</time></trkpt><trkpt lat="46.102629" lon="13.390673"><ele>121.99999999999999</ele><time>2026-04-24T14:11:37.224Z</time></trkpt><trkpt lat="46.1025514" lon="13.3905733"><ele>122.0</ele><time>2026-04-24T14:11:38.224Z</time></trkpt><trkpt lat="46.1024747" lon="13.3904669"><ele>122.0</ele><time>2026-04-24T14:11:39.225Z</time></trkpt><trkpt lat="46.1024029" lon="13.3903533"><ele>121.8</ele><time>2026-04-24T14:11:40.224Z</time></trkpt><trkpt lat="46.1023365" lon="13.3902378"><ele>121.6</ele><time>2026-04-24T14:11:41.223Z</time></trkpt><trkpt lat="46.1022701" lon="13.390126"><ele>121.39999999999999</ele><time>2026-04-24T14:11:42.223Z</time></trkpt><trkpt lat="46.1022011" lon="13.3900174"><ele>121.19999999999999</ele><time>2026-04-24T14:11:43.223Z</time></trkpt><trkpt lat="46.1021248" lon="13.3899015"><ele>121.0</ele><time>2026-04-24T14:11:44.223Z</time></trkpt><trkpt lat="46.102048" lon="13.3897771"><ele>121.19999999999999</ele><time>2026-04-24T14:11:45.224Z</time></trkpt><trkpt lat="46.1019752" lon="13.3896493"><ele>121.39999999999999</ele><time>2026-04-24T14:11:46.224Z</time></trkpt><trkpt lat="46.1019066" lon="13.3895231"><ele>121.6</ele><time>2026-04-24T14:11:47.224Z</time></trkpt><trkpt lat="46.1018384" lon="13.389399"><ele>121.8</ele><time>2026-04-24T14:11:48.222Z</time></trkpt><trkpt lat="46.1017709" lon="13.389276"><ele>122.0</ele><time>2026-04-24T14:11:49.222Z</time></trkpt><trkpt lat="46.1017006" lon="13.3891584"><ele>122.0</ele><time>2026-04-24T14:11:50.223Z</time></trkpt><trkpt lat="46.1016256" lon="13.3890433"><ele>121.99999999999999</ele><time>2026-04-24T14:11:51.222Z</time></trkpt><trkpt lat="46.1015513" lon="13.38893"><ele>121.99999999999999</ele><time>2026-04-24T14:11:52.223Z</time></trkpt><trkpt lat="46.1014781" lon="13.3888169"><ele>122.0</ele><time>2026-04-24T14:11:53.222Z</time></trkpt><trkpt lat="46.1014049" lon="13.3887023"><ele>122.0</ele><time>2026-04-24T14:11:54.223Z</time></trkpt><trkpt lat="46.1013313" lon="13.3885868"><ele>121.8</ele><time>2026-04-24T14:11:55.224Z</time></trkpt><trkpt lat="46.1012573" lon="13.3884714"><ele>121.6</ele><time>2026-04-24T14:11:56.222Z</time></trkpt><trkpt lat="46.1011899" lon="13.3883589"><ele>121.39999999999999</ele><time>2026-04-24T14:11:57.222Z</time></trkpt><trkpt lat="46.1011245" lon="13.3882628"><ele>121.19999999999999</ele><time>2026-04-24T14:11:58.223Z</time></trkpt><trkpt lat="46.1010665" lon="13.3881788"><ele>121.0</ele><time>2026-04-24T14:11:59.223Z</time></trkpt><trkpt lat="46.1010147" lon="13.3880986"><ele>121.00000000000001</ele><time>2026-04-24T14:12:00.222Z</time></trkpt><trkpt lat="46.1009651" lon="13.3880217"><ele>121.0</ele><time>2026-04-24T14:12:01.223Z</time></trkpt><trkpt lat="46.1009209" lon="13.3879505"><ele>121.0</ele><time>2026-04-24T14:12:02.223Z</time></trkpt><trkpt lat="46.1008441" lon="13.3878757"><ele>121.0</ele><time>2026-04-24T14:12:04.222Z</time></trkpt><trkpt lat="46.1007594" lon="13.3878858"><ele>121.00000000000001</ele><time>2026-04-24T14:12:06.224Z</time></trkpt><trkpt lat="46.1006889" lon="13.3878918"><ele>121.0</ele><time>2026-04-24T14:12:08.223Z</time></trkpt><trkpt lat="46.1006223" lon="13.3878304"><ele>121.16666666666667</ele><time>2026-04-24T14:12:10.222Z</time></trkpt><trkpt lat="46.10052" lon="13.3878109"><ele>121.33333333333334</ele><time>2026-04-24T14:12:12.222Z</time></trkpt><trkpt lat="46.1004562" lon="13.3877587"><ele>121.5</ele><time>2026-04-24T14:12:15.222Z</time></trkpt><trkpt lat="46.1005462" lon="13.3876473"><ele>121.66666666666666</ele><time>2026-04-24T14:12:18.222Z</time></trkpt><trkpt lat="46.1006004" lon="13.3875938"><ele>121.83333333333333</ele><time>2026-04-24T14:12:19.224Z</time></trkpt><trkpt lat="46.1006538" lon="13.3875428"><ele>122.0</ele><time>2026-04-24T14:12:20.222Z</time></trkpt><trkpt lat="46.1007498" lon="13.3874514"><ele>121.49999999999999</ele><time>2026-04-24T14:12:22.223Z</time></trkpt><trkpt lat="46.1008419" lon="13.3873229"><ele>121.0</ele><time>2026-04-24T14:12:24.223Z</time></trkpt><trkpt lat="46.1008958" lon="13.3872514"><ele>120.5</ele><time>2026-04-24T14:12:25.224Z</time></trkpt><trkpt lat="46.1009576" lon="13.3871769"><ele>120.0</ele><time>2026-04-24T14:12:26.223Z</time></trkpt><trkpt lat="46.1010164" lon="13.3871112"><ele>119.49999999999999</ele><time>2026-04-24T14:12:27.223Z</time></trkpt><trkpt lat="46.1010734" lon="13.3870523"><ele>119.0</ele><time>2026-04-24T14:12:28.223Z</time></trkpt><trkpt lat="46.1011294" lon="13.3869995"><ele>119.0</ele><time>2026-04-24T14:12:29.222Z</time></trkpt><trkpt lat="46.1011876" lon="13.3869502"><ele>119.0</ele><time>2026-04-24T14:12:30.222Z</time></trkpt><trkpt lat="46.1012501" lon="13.3868927"><ele>119.0</ele><time>2026-04-24T14:12:31.224Z</time></trkpt><trkpt lat="46.1013112" lon="13.3868427"><ele>119.0</ele><time>2026-04-24T14:12:32.223Z</time></trkpt><trkpt lat="46.1013789" lon="13.3867927"><ele>119.0</ele><time>2026-04-24T14:12:33.223Z</time></trkpt><trkpt lat="46.1014507" lon="13.3867459"><ele>119.0</ele><time>2026-04-24T14:12:34.223Z</time></trkpt><trkpt lat="46.1015259" lon="13.386701"><ele>119.0</ele><time>2026-04-24T14:12:35.224Z</time></trkpt><trkpt lat="46.1015993" lon="13.3866571"><ele>118.99999999999999</ele><time>2026-04-24T14:12:36.224Z</time></trkpt><trkpt lat="46.101672" lon="13.3866136"><ele>119.0</ele><time>2026-04-24T14:12:37.222Z</time></trkpt><trkpt lat="46.1017431" lon="13.3865705"><ele>119.0</ele><time>2026-04-24T14:12:38.223Z</time></trkpt><trkpt lat="46.1018109" lon="13.386531"><ele>119.0</ele><time>2026-04-24T14:12:39.223Z</time></trkpt><trkpt lat="46.1018833" lon="13.3864901"><ele>118.99999999999999</ele><time>2026-04-24T14:12:40.223Z</time></trkpt><trkpt lat="46.1019541" lon="13.3864498"><ele>119.0</ele><time>2026-04-24T14:12:41.223Z</time></trkpt><trkpt lat="46.1020252" lon="13.3864079"><ele>118.99999999999999</ele><time>2026-04-24T14:12:42.224Z</time></trkpt><trkpt lat="46.1020968" lon="13.3863698"><ele>119.0</ele><time>2026-04-24T14:12:43.223Z</time></trkpt><trkpt lat="46.1021712" lon="13.3863247"><ele>119.0</ele><time>2026-04-24T14:12:44.223Z</time></trkpt><trkpt lat="46.102245" lon="13.3862825"><ele>119.0</ele><time>2026-04-24T14:12:45.224Z</time></trkpt><trkpt lat="46.1023216" lon="13.3862402"><ele>118.99999999999999</ele><time>2026-04-24T14:12:46.223Z</time></trkpt><trkpt lat="46.1023977" lon="13.3861946"><ele>119.0</ele><time>2026-04-24T14:12:47.222Z</time></trkpt><trkpt lat="46.1024714" lon="13.3861443"><ele>119.16666666666666</ele><time>2026-04-24T14:12:48.222Z</time></trkpt><trkpt lat="46.1025429" lon="13.3860894"><ele>119.33333333333333</ele><time>2026-04-24T14:12:49.223Z</time></trkpt><trkpt lat="46.1026147" lon="13.3860296"><ele>119.5</ele><time>2026-04-24T14:12:50.222Z</time></trkpt><trkpt lat="46.1026874" lon="13.3859676"><ele>119.66666666666666</ele><time>2026-04-24T14:12:51.223Z</time></trkpt><trkpt lat="46.1027598" lon="13.3859075"><ele>119.83333333333333</ele><time>2026-04-24T14:12:52.222Z</time></trkpt><trkpt lat="46.1028321" lon="13.385843"><ele>120.0</ele><time>2026-04-24T14:12:53.224Z</time></trkpt><trkpt lat="46.1029042" lon="13.3857753"><ele>120.0</ele><time>2026-04-24T14:12:54.223Z</time></trkpt><trkpt lat="46.102977" lon="13.3857078"><ele>120.0</ele><time>2026-04-24T14:12:55.224Z</time></trkpt><trkpt lat="46.1030501" lon="13.3856362"><ele>120.0</ele><time>2026-04-24T14:12:56.224Z</time></trkpt><trkpt lat="46.1031211" lon="13.385567"><ele>120.0</ele><time>2026-04-24T14:12:57.223Z</time></trkpt><trkpt lat="46.1031954" lon="13.3854985"><ele>120.0</ele><time>2026-04-24T14:12:58.222Z</time></trkpt><trkpt lat="46.1032707" lon="13.3854285"><ele>120.0</ele><time>2026-04-24T14:12:59.223Z</time></trkpt><trkpt lat="46.1033471" lon="13.3853562"><ele>119.66666666666667</ele><time>2026-04-24T14:13:00.223Z</time></trkpt><trkpt lat="46.1034214" lon="13.3852805"><ele>119.33333333333334</ele><time>2026-04-24T14:13:01.224Z</time></trkpt><trkpt lat="46.1034924" lon="13.3852045"><ele>119.0</ele><time>2026-04-24T14:13:02.224Z</time></trkpt><trkpt lat="46.1035608" lon="13.3851317"><ele>118.66666666666667</ele><time>2026-04-24T14:13:03.223Z</time></trkpt><trkpt lat="46.1036233" lon="13.3850588"><ele>118.33333333333334</ele><time>2026-04-24T14:13:04.224Z</time></trkpt><trkpt lat="46.1036754" lon="13.3849812"><ele>118.0</ele><time>2026-04-24T14:13:05.222Z</time></trkpt><trkpt lat="46.1037149" lon="13.3848962"><ele>118.00000000000001</ele><time>2026-04-24T14:13:06.224Z</time></trkpt><trkpt lat="46.1037501" lon="13.3848029"><ele>118.0</ele><time>2026-04-24T14:13:07.222Z</time></trkpt><trkpt lat="46.1037825" lon="13.3847033"><ele>118.0</ele><time>2026-04-24T14:13:08.222Z</time></trkpt><trkpt lat="46.1038181" lon="13.3846016"><ele>118.0</ele><time>2026-04-24T14:13:09.223Z</time></trkpt><trkpt lat="46.1038587" lon="13.3844969"><ele>118.00000000000001</ele><time>2026-04-24T14:13:10.222Z</time></trkpt><trkpt lat="46.103906" lon="13.3843938"><ele>118.0</ele><time>2026-04-24T14:13:11.223Z</time></trkpt><trkpt lat="46.103961" lon="13.3842995"><ele>118.0</ele><time>2026-04-24T14:13:12.224Z</time></trkpt><trkpt lat="46.1040234" lon="13.3842042"><ele>118.00000000000001</ele><time>2026-04-24T14:13:13.223Z</time></trkpt><trkpt lat="46.1040874" lon="13.3841031"><ele>118.00000000000001</ele><time>2026-04-24T14:13:14.223Z</time></trkpt><trkpt lat="46.1041556" lon="13.383997"><ele>118.0</ele><time>2026-04-24T14:13:15.223Z</time></trkpt><trkpt lat="46.1042282" lon="13.3838868"><ele>118.0</ele><time>2026-04-24T14:13:16.223Z</time></trkpt><trkpt lat="46.1043029" lon="13.3837758"><ele>118.60000000000001</ele><time>2026-04-24T14:13:17.223Z</time></trkpt><trkpt lat="46.1043725" lon="13.3836687"><ele>119.20000000000002</ele><time>2026-04-24T14:13:18.223Z</time></trkpt><trkpt lat="46.1044417" lon="13.3835618"><ele>119.8</ele><time>2026-04-24T14:13:19.224Z</time></trkpt><trkpt lat="46.1045098" lon="13.3834542"><ele>120.4</ele><time>2026-04-24T14:13:20.223Z</time></trkpt><trkpt lat="46.1045719" lon="13.3833528"><ele>121.0</ele><time>2026-04-24T14:13:21.224Z</time></trkpt><trkpt lat="46.1046371" lon="13.3832445"><ele>121.0</ele><time>2026-04-24T14:13:22.222Z</time></trkpt><trkpt lat="46.1046999" lon="13.3831283"><ele>121.0</ele><time>2026-04-24T14:13:23.224Z</time></trkpt><trkpt lat="46.1047561" lon="13.3830042"><ele>121.0</ele><time>2026-04-24T14:13:24.223Z</time></trkpt><trkpt lat="46.1048037" lon="13.3828722"><ele>121.0</ele><time>2026-04-24T14:13:25.222Z</time></trkpt><trkpt lat="46.1048535" lon="13.382736"><ele>121.0</ele><time>2026-04-24T14:13:26.223Z</time></trkpt><trkpt lat="46.1049021" lon="13.3826011"><ele>120.8</ele><time>2026-04-24T14:13:27.223Z</time></trkpt><trkpt lat="46.1049497" lon="13.3824663"><ele>120.6</ele><time>2026-04-24T14:13:28.222Z</time></trkpt><trkpt lat="46.1049977" lon="13.3823281"><ele>120.4</ele><time>2026-04-24T14:13:29.223Z</time></trkpt><trkpt lat="46.1050458" lon="13.3821923"><ele>120.2</ele><time>2026-04-24T14:13:30.223Z</time></trkpt><trkpt lat="46.1050916" lon="13.3820621"><ele>120.0</ele><time>2026-04-24T14:13:31.223Z</time></trkpt><trkpt lat="46.1051371" lon="13.3819425"><ele>119.6</ele><time>2026-04-24T14:13:32.222Z</time></trkpt><trkpt lat="46.1051839" lon="13.3818233"><ele>119.2</ele><time>2026-04-24T14:13:33.224Z</time></trkpt><trkpt lat="46.1052349" lon="13.3817057"><ele>118.80000000000001</ele><time>2026-04-24T14:13:34.222Z</time></trkpt><trkpt lat="46.1052891" lon="13.3815959"><ele>118.4</ele><time>2026-04-24T14:13:35.222Z</time></trkpt><trkpt lat="46.1053438" lon="13.3814905"><ele>118.0</ele><time>2026-04-24T14:13:36.223Z</time></trkpt><trkpt lat="46.1053983" lon="13.3813905"><ele>118.2</ele><time>2026-04-24T14:13:37.224Z</time></trkpt><trkpt lat="46.1054504" lon="13.3812854"><ele>118.4</ele><time>2026-04-24T14:13:38.222Z</time></trkpt><trkpt lat="46.1055005" lon="13.3811773"><ele>118.60000000000001</ele><time>2026-04-24T14:13:39.224Z</time></trkpt><trkpt lat="46.1055453" lon="13.3810551"><ele>118.80000000000001</ele><time>2026-04-24T14:13:40.223Z</time></trkpt><trkpt lat="46.1055882" lon="13.380926"><ele>119.0</ele><time>2026-04-24T14:13:41.223Z</time></trkpt><trkpt lat="46.1056263" lon="13.3807847"><ele>119.0</ele><time>2026-04-24T14:13:42.224Z</time></trkpt><trkpt lat="46.1056664" lon="13.3806424"><ele>119.0</ele><time>2026-04-24T14:13:43.222Z</time></trkpt><trkpt lat="46.1057069" lon="13.3804972"><ele>119.0</ele><time>2026-04-24T14:13:44.222Z</time></trkpt><trkpt lat="46.1057465" lon="13.3803476"><ele>119.0</ele><time>2026-04-24T14:13:45.222Z</time></trkpt><trkpt lat="46.1057869" lon="13.3802001"><ele>119.0</ele><time>2026-04-24T14:13:46.224Z</time></trkpt><trkpt lat="46.1058241" lon="13.3800572"><ele>119.0</ele><time>2026-04-24T14:13:47.223Z</time></trkpt><trkpt lat="46.1058639" lon="13.3799149"><ele>119.0</ele><time>2026-04-24T14:13:48.223Z</time></trkpt><trkpt lat="46.105897" lon="13.3797803"><ele>119.0</ele><time>2026-04-24T14:13:49.223Z</time></trkpt><trkpt lat="46.1059263" lon="13.3796395"><ele>119.0</ele><time>2026-04-24T14:13:50.223Z</time></trkpt><trkpt lat="46.1059488" lon="13.3794926"><ele>119.0</ele><time>2026-04-24T14:13:51.224Z</time></trkpt><trkpt lat="46.1059614" lon="13.3793408"><ele>118.5</ele><time>2026-04-24T14:13:52.223Z</time></trkpt><trkpt lat="46.1059625" lon="13.3791827"><ele>118.0</ele><time>2026-04-24T14:13:53.224Z</time></trkpt><trkpt lat="46.1059645" lon="13.3790203"><ele>117.5</ele><time>2026-04-24T14:13:54.223Z</time></trkpt><trkpt lat="46.10597" lon="13.3788543"><ele>117.0</ele><time>2026-04-24T14:13:55.224Z</time></trkpt><trkpt lat="46.1059735" lon="13.3786843"><ele>116.75</ele><time>2026-04-24T14:13:56.223Z</time></trkpt><trkpt lat="46.1059755" lon="13.3785146"><ele>116.5</ele><time>2026-04-24T14:13:57.222Z</time></trkpt><trkpt lat="46.1059784" lon="13.3783449"><ele>116.25</ele><time>2026-04-24T14:13:58.223Z</time></trkpt><trkpt lat="46.1059817" lon="13.3781748"><ele>116.0</ele><time>2026-04-24T14:13:59.224Z</time></trkpt><trkpt lat="46.1059842" lon="13.3780073"><ele>116.0</ele><time>2026-04-24T14:14:00.224Z</time></trkpt><trkpt lat="46.105988" lon="13.3778442"><ele>116.0</ele><time>2026-04-24T14:14:01.222Z</time></trkpt><trkpt lat="46.1059919" lon="13.377684"><ele>116.0</ele><time>2026-04-24T14:14:02.223Z</time></trkpt><trkpt lat="46.1060011" lon="13.3775254"><ele>116.0</ele><time>2026-04-24T14:14:03.222Z</time></trkpt><trkpt lat="46.1060277" lon="13.3773698"><ele>116.0</ele><time>2026-04-24T14:14:04.223Z</time></trkpt><trkpt lat="46.1060723" lon="13.3772186"><ele>116.19999999999999</ele><time>2026-04-24T14:14:05.223Z</time></trkpt><trkpt lat="46.1061243" lon="13.3770708"><ele>116.39999999999999</ele><time>2026-04-24T14:14:06.224Z</time></trkpt><trkpt lat="46.1061633" lon="13.3769203"><ele>116.6</ele><time>2026-04-24T14:14:07.223Z</time></trkpt><trkpt lat="46.1061852" lon="13.3767655"><ele>116.8</ele><time>2026-04-24T14:14:08.224Z</time></trkpt><trkpt lat="46.1061991" lon="13.3766082"><ele>117.0</ele><time>2026-04-24T14:14:09.223Z</time></trkpt><trkpt lat="46.1062076" lon="13.3764522"><ele>116.8</ele><time>2026-04-24T14:14:10.222Z</time></trkpt><trkpt lat="46.1062185" lon="13.3762985"><ele>116.6</ele><time>2026-04-24T14:14:11.224Z</time></trkpt><trkpt lat="46.1062281" lon="13.3761465"><ele>116.39999999999999</ele><time>2026-04-24T14:14:12.223Z</time></trkpt><trkpt lat="46.1062364" lon="13.3759937"><ele>116.19999999999999</ele><time>2026-04-24T14:14:13.222Z</time></trkpt><trkpt lat="46.1062456" lon="13.3758409"><ele>116.0</ele><time>2026-04-24T14:14:14.223Z</time></trkpt><trkpt lat="46.1062531" lon="13.3756879"><ele>116.0</ele><time>2026-04-24T14:14:15.223Z</time></trkpt><trkpt lat="46.1062606" lon="13.3755336"><ele>116.0</ele><time>2026-04-24T14:14:16.222Z</time></trkpt><trkpt lat="46.106269" lon="13.3753807"><ele>116.0</ele><time>2026-04-24T14:14:17.223Z</time></trkpt><trkpt lat="46.1062774" lon="13.3752319"><ele>116.0</ele><time>2026-04-24T14:14:18.222Z</time></trkpt><trkpt lat="46.1062848" lon="13.3750989"><ele>116.0</ele><time>2026-04-24T14:14:19.222Z</time></trkpt><trkpt lat="46.1062921" lon="13.3749935"><ele>115.99999999999999</ele><time>2026-04-24T14:14:20.222Z</time></trkpt><trkpt lat="46.1063043" lon="13.3748631"><ele>116.0</ele><time>2026-04-24T14:14:22.222Z</time></trkpt><trkpt lat="46.1063171" lon="13.3747705"><ele>116.0</ele><time>2026-04-24T14:14:27.223Z</time></trkpt><trkpt lat="46.1063456" lon="13.3746605"><ele>116.0</ele><time>2026-04-24T14:14:30.222Z</time></trkpt><trkpt lat="46.1063802" lon="13.3744858"><ele>115.99999999999999</ele><time>2026-04-24T14:14:32.222Z</time></trkpt><trkpt lat="46.1064089" lon="13.3743704"><ele>116.0</ele><time>2026-04-24T14:14:33.222Z</time></trkpt><trkpt lat="46.1064492" lon="13.3742576"><ele>115.8</ele><time>2026-04-24T14:14:34.223Z</time></trkpt><trkpt lat="46.1064949" lon="13.3741509"><ele>115.6</ele><time>2026-04-24T14:14:35.223Z</time></trkpt><trkpt lat="46.1065466" lon="13.3740414"><ele>115.4</ele><time>2026-04-24T14:14:36.224Z</time></trkpt><trkpt lat="46.1066019" lon="13.3739253"><ele>115.2</ele><time>2026-04-24T14:14:37.223Z</time></trkpt><trkpt lat="46.1066557" lon="13.3738063"><ele>115.0</ele><time>2026-04-24T14:14:38.222Z</time></trkpt><trkpt lat="46.1067058" lon="13.3736942"><ele>114.83333333333334</ele><time>2026-04-24T14:14:39.222Z</time></trkpt><trkpt lat="46.1067501" lon="13.373582"><ele>114.66666666666667</ele><time>2026-04-24T14:14:40.223Z</time></trkpt><trkpt lat="46.1067896" lon="13.3734665"><ele>114.5</ele><time>2026-04-24T14:14:41.223Z</time></trkpt><trkpt lat="46.1068216" lon="13.373346"><ele>114.33333333333334</ele><time>2026-04-24T14:14:42.222Z</time></trkpt><trkpt lat="46.1068465" lon="13.3732226"><ele>114.16666666666667</ele><time>2026-04-24T14:14:43.223Z</time></trkpt><trkpt lat="46.1068653" lon="13.373093"><ele>114.0</ele><time>2026-04-24T14:14:44.223Z</time></trkpt><trkpt lat="46.106881" lon="13.3729582"><ele>114.0</ele><time>2026-04-24T14:14:45.224Z</time></trkpt><trkpt lat="46.1068968" lon="13.3728191"><ele>114.0</ele><time>2026-04-24T14:14:46.223Z</time></trkpt><trkpt lat="46.1069137" lon="13.3726801"><ele>114.0</ele><time>2026-04-24T14:14:47.223Z</time></trkpt><trkpt lat="46.1069277" lon="13.3725383"><ele>114.0</ele><time>2026-04-24T14:14:48.223Z</time></trkpt><trkpt lat="46.1069374" lon="13.3723933"><ele>114.0</ele><time>2026-04-24T14:14:49.222Z</time></trkpt><trkpt lat="46.1069475" lon="13.3722452"><ele>114.0</ele><time>2026-04-24T14:14:50.222Z</time></trkpt><trkpt lat="46.1069654" lon="13.3720986"><ele>114.0</ele><time>2026-04-24T14:14:51.223Z</time></trkpt><trkpt lat="46.1069866" lon="13.3719548"><ele>114.0</ele><time>2026-04-24T14:14:52.223Z</time></trkpt><trkpt lat="46.107009" lon="13.3718109"><ele>114.0</ele><time>2026-04-24T14:14:53.223Z</time></trkpt><trkpt lat="46.1070274" lon="13.3716671"><ele>114.0</ele><time>2026-04-24T14:14:54.222Z</time></trkpt><trkpt lat="46.1070466" lon="13.3715189"><ele>114.0</ele><time>2026-04-24T14:14:55.222Z</time></trkpt><trkpt lat="46.107062" lon="13.371363"><ele>114.0</ele><time>2026-04-24T14:14:56.222Z</time></trkpt><trkpt lat="46.1070767" lon="13.3712076"><ele>114.0</ele><time>2026-04-24T14:14:57.222Z</time></trkpt><trkpt lat="46.1070838" lon="13.3710595"><ele>114.0</ele><time>2026-04-24T14:14:58.221Z</time></trkpt><trkpt lat="46.1070813" lon="13.3709124"><ele>114.0</ele><time>2026-04-24T14:14:59.221Z</time></trkpt><trkpt lat="46.1070715" lon="13.3707637"><ele>113.80000000000001</ele><time>2026-04-24T14:15:00.223Z</time></trkpt><trkpt lat="46.1070604" lon="13.3706133"><ele>113.60000000000001</ele><time>2026-04-24T14:15:01.222Z</time></trkpt><trkpt lat="46.1070536" lon="13.3704638"><ele>113.4</ele><time>2026-04-24T14:15:02.222Z</time></trkpt><trkpt lat="46.1070499" lon="13.3703209"><ele>113.2</ele><time>2026-04-24T14:15:03.221Z</time></trkpt><trkpt lat="46.1070472" lon="13.3701774"><ele>113.0</ele><time>2026-04-24T14:15:04.222Z</time></trkpt><trkpt lat="46.1070461" lon="13.3700273"><ele>113.0</ele><time>2026-04-24T14:15:05.222Z</time></trkpt><trkpt lat="46.1070457" lon="13.369878"><ele>113.00000000000001</ele><time>2026-04-24T14:15:06.223Z</time></trkpt><trkpt lat="46.1070468" lon="13.3697264"><ele>113.00000000000001</ele><time>2026-04-24T14:15:07.222Z</time></trkpt><trkpt lat="46.1070479" lon="13.3695761"><ele>113.0</ele><time>2026-04-24T14:15:08.222Z</time></trkpt><trkpt lat="46.1070588" lon="13.3694286"><ele>113.0</ele><time>2026-04-24T14:15:09.223Z</time></trkpt><trkpt lat="46.1070829" lon="13.3692801"><ele>113.0</ele><time>2026-04-24T14:15:10.222Z</time></trkpt><trkpt lat="46.1071152" lon="13.3691327"><ele>113.00000000000001</ele><time>2026-04-24T14:15:11.222Z</time></trkpt><trkpt lat="46.1071558" lon="13.3689889"><ele>113.00000000000001</ele><time>2026-04-24T14:15:12.221Z</time></trkpt><trkpt lat="46.107201" lon="13.368848"><ele>113.0</ele><time>2026-04-24T14:15:13.222Z</time></trkpt><trkpt lat="46.10725" lon="13.3687086"><ele>113.0</ele><time>2026-04-24T14:15:14.221Z</time></trkpt><trkpt lat="46.107304" lon="13.3685701"><ele>113.0</ele><time>2026-04-24T14:15:15.221Z</time></trkpt><trkpt lat="46.1073581" lon="13.3684311"><ele>113.00000000000001</ele><time>2026-04-24T14:15:16.221Z</time></trkpt><trkpt lat="46.1074119" lon="13.3682895"><ele>113.00000000000001</ele><time>2026-04-24T14:15:17.223Z</time></trkpt><trkpt lat="46.1074673" lon="13.368148"><ele>113.0</ele><time>2026-04-24T14:15:18.223Z</time></trkpt><trkpt lat="46.1075239" lon="13.3680049"><ele>113.0</ele><time>2026-04-24T14:15:19.222Z</time></trkpt><trkpt lat="46.1075793" lon="13.3678631"><ele>113.25</ele><time>2026-04-24T14:15:20.223Z</time></trkpt><trkpt lat="46.1076306" lon="13.3677179"><ele>113.5</ele><time>2026-04-24T14:15:21.222Z</time></trkpt><trkpt lat="46.1076764" lon="13.3675691"><ele>113.75</ele><time>2026-04-24T14:15:22.221Z</time></trkpt><trkpt lat="46.1077176" lon="13.3674179"><ele>114.0</ele><time>2026-04-24T14:15:23.222Z</time></trkpt><trkpt lat="46.1077597" lon="13.3672694"><ele>113.6</ele><time>2026-04-24T14:15:24.221Z</time></trkpt><trkpt lat="46.1078026" lon="13.3671221"><ele>113.2</ele><time>2026-04-24T14:15:25.223Z</time></trkpt><trkpt lat="46.1078432" lon="13.3669741"><ele>112.79999999999998</ele><time>2026-04-24T14:15:26.222Z</time></trkpt><trkpt lat="46.1078798" lon="13.3668306"><ele>112.39999999999999</ele><time>2026-04-24T14:15:27.221Z</time></trkpt><trkpt lat="46.1079095" lon="13.3666943"><ele>112.0</ele><time>2026-04-24T14:15:28.222Z</time></trkpt><trkpt lat="46.1079289" lon="13.3665556"><ele>112.0</ele><time>2026-04-24T14:15:29.222Z</time></trkpt><trkpt lat="46.1079409" lon="13.3664083"><ele>111.99999999999999</ele><time>2026-04-24T14:15:30.221Z</time></trkpt><trkpt lat="46.1079504" lon="13.3662568"><ele>111.99999999999999</ele><time>2026-04-24T14:15:31.222Z</time></trkpt><trkpt lat="46.1079609" lon="13.366106"><ele>112.0</ele><time>2026-04-24T14:15:32.223Z</time></trkpt><trkpt lat="46.1079702" lon="13.3659549"><ele>112.0</ele><time>2026-04-24T14:15:33.223Z</time></trkpt><trkpt lat="46.1079781" lon="13.3658041"><ele>111.6</ele><time>2026-04-24T14:15:34.221Z</time></trkpt><trkpt lat="46.107987" lon="13.3656568"><ele>111.19999999999999</ele><time>2026-04-24T14:15:35.221Z</time></trkpt><trkpt lat="46.1079966" lon="13.3655128"><ele>110.8</ele><time>2026-04-24T14:15:36.223Z</time></trkpt><trkpt lat="46.1080066" lon="13.3653692"><ele>110.4</ele><time>2026-04-24T14:15:37.222Z</time></trkpt><trkpt lat="46.108016" lon="13.3652288"><ele>110.0</ele><time>2026-04-24T14:15:38.222Z</time></trkpt><trkpt lat="46.108026" lon="13.3650881"><ele>110.49999999999999</ele><time>2026-04-24T14:15:39.221Z</time></trkpt><trkpt lat="46.1080377" lon="13.3649569"><ele>111.0</ele><time>2026-04-24T14:15:40.222Z</time></trkpt><trkpt lat="46.1080468" lon="13.364854"><ele>111.5</ele><time>2026-04-24T14:15:41.221Z</time></trkpt><trkpt lat="46.1080688" lon="13.3647318"><ele>112.0</ele><time>2026-04-24T14:15:43.222Z</time></trkpt><trkpt lat="46.1081368" lon="13.3646748"><ele>112.49999999999999</ele><time>2026-04-24T14:15:46.222Z</time></trkpt><trkpt lat="46.1082087" lon="13.3646427"><ele>113.0</ele><time>2026-04-24T14:16:00.222Z</time></trkpt><trkpt lat="46.1082146" lon="13.3644794"><ele>113.0</ele><time>2026-04-24T14:16:03.223Z</time></trkpt><trkpt lat="46.1081749" lon="13.3643163"><ele>113.00000000000001</ele><time>2026-04-24T14:16:05.222Z</time></trkpt><trkpt lat="46.1081211" lon="13.3641614"><ele>113.00000000000001</ele><time>2026-04-24T14:16:07.222Z</time></trkpt><trkpt lat="46.108076" lon="13.3639883"><ele>113.0</ele><time>2026-04-24T14:16:09.222Z</time></trkpt><trkpt lat="46.1080507" lon="13.3638932"><ele>113.0</ele><time>2026-04-24T14:16:10.222Z</time></trkpt><trkpt lat="46.1080233" lon="13.3637957"><ele>112.83333333333333</ele><time>2026-04-24T14:16:11.222Z</time></trkpt><trkpt lat="46.1079878" lon="13.3637011"><ele>112.66666666666666</ele><time>2026-04-24T14:16:12.222Z</time></trkpt><trkpt lat="46.1079452" lon="13.3636036"><ele>112.5</ele><time>2026-04-24T14:16:13.222Z</time></trkpt><trkpt lat="46.1078992" lon="13.363504"><ele>112.33333333333334</ele><time>2026-04-24T14:16:14.222Z</time></trkpt><trkpt lat="46.1078501" lon="13.3634028"><ele>112.16666666666667</ele><time>2026-04-24T14:16:15.221Z</time></trkpt><trkpt lat="46.1078031" lon="13.3633113"><ele>112.0</ele><time>2026-04-24T14:16:16.222Z</time></trkpt><trkpt lat="46.1077599" lon="13.3632236"><ele>112.00000000000001</ele><time>2026-04-24T14:16:17.221Z</time></trkpt><trkpt lat="46.1077154" lon="13.3631479"><ele>112.0</ele><time>2026-04-24T14:16:18.223Z</time></trkpt><trkpt lat="46.1076385" lon="13.3630329"><ele>112.0</ele><time>2026-04-24T14:16:20.223Z</time></trkpt><trkpt lat="46.1075915" lon="13.3629567"><ele>112.0</ele><time>2026-04-24T14:16:22.222Z</time></trkpt><trkpt lat="46.1075504" lon="13.362874"><ele>112.00000000000001</ele><time>2026-04-24T14:16:26.222Z</time></trkpt><trkpt lat="46.1074606" lon="13.362855"><ele>112.0</ele><time>2026-04-24T14:17:03.222Z</time></trkpt><trkpt lat="46.1073784" lon="13.3627545"><ele>112.0</ele><time>2026-04-24T14:17:05.222Z</time></trkpt><trkpt lat="46.1072862" lon="13.3626668"><ele>111.99999999999999</ele><time>2026-04-24T14:17:07.222Z</time></trkpt><trkpt lat="46.1071965" lon="13.3625834"><ele>111.99999999999999</ele><time>2026-04-24T14:17:09.223Z</time></trkpt><trkpt lat="46.1071405" lon="13.362538"><ele>112.0</ele><time>2026-04-24T14:17:11.222Z</time></trkpt><trkpt lat="46.1070805" lon="13.3624961"><ele>112.0</ele><time>2026-04-24T14:17:18.223Z</time></trkpt><trkpt lat="46.1069718" lon="13.3624191"><ele>112.00000000000001</ele><time>2026-04-24T14:17:20.222Z</time></trkpt><trkpt lat="46.1069125" lon="13.3623807"><ele>112.0</ele><time>2026-04-24T14:17:21.222Z</time></trkpt><trkpt lat="46.1068491" lon="13.3623403"><ele>112.0</ele><time>2026-04-24T14:17:22.221Z</time></trkpt><trkpt lat="46.1067877" lon="13.3622987"><ele>112.0</ele><time>2026-04-24T14:17:23.222Z</time></trkpt><trkpt lat="46.1067257" lon="13.3622656"><ele>112.00000000000001</ele><time>2026-04-24T14:17:24.222Z</time></trkpt><trkpt lat="46.1066145" lon="13.3622064"><ele>112.0</ele><time>2026-04-24T14:17:26.223Z</time></trkpt><trkpt lat="46.1065203" lon="13.3621678"><ele>111.8</ele><time>2026-04-24T14:17:28.222Z</time></trkpt><trkpt lat="46.106417" lon="13.3621406"><ele>111.6</ele><time>2026-04-24T14:17:30.222Z</time></trkpt><trkpt lat="46.1063407" lon="13.3621097"><ele>111.39999999999999</ele><time>2026-04-24T14:17:32.223Z</time></trkpt><trkpt lat="46.1062396" lon="13.3620824"><ele>111.19999999999999</ele><time>2026-04-24T14:17:34.222Z</time></trkpt><trkpt lat="46.1061125" lon="13.362059"><ele>111.0</ele><time>2026-04-24T14:17:36.221Z</time></trkpt><trkpt lat="46.1060395" lon="13.362042"><ele>111.0</ele><time>2026-04-24T14:17:37.222Z</time></trkpt><trkpt lat="46.1059633" lon="13.3620247"><ele>111.0</ele><time>2026-04-24T14:17:38.221Z</time></trkpt><trkpt lat="46.1058834" lon="13.3620003"><ele>111.0</ele><time>2026-04-24T14:17:39.221Z</time></trkpt><trkpt lat="46.1057987" lon="13.361976"><ele>111.0</ele><time>2026-04-24T14:17:40.221Z</time></trkpt><trkpt lat="46.105713" lon="13.3619513"><ele>111.0</ele><time>2026-04-24T14:17:41.223Z</time></trkpt><trkpt lat="46.1056313" lon="13.3619263"><ele>111.0</ele><time>2026-04-24T14:17:42.223Z</time></trkpt><trkpt lat="46.1055509" lon="13.3619007"><ele>110.66666666666667</ele><time>2026-04-24T14:17:43.221Z</time></trkpt><trkpt lat="46.1054848" lon="13.3618753"><ele>110.33333333333334</ele><time>2026-04-24T14:17:44.222Z</time></trkpt><trkpt lat="46.1053828" lon="13.3618375"><ele>110.0</ele><time>2026-04-24T14:17:46.222Z</time></trkpt><trkpt lat="46.1052806" lon="13.3618039"><ele>109.66666666666667</ele><time>2026-04-24T14:17:48.222Z</time></trkpt><trkpt lat="46.1052141" lon="13.3617847"><ele>109.33333333333334</ele><time>2026-04-24T14:17:49.222Z</time></trkpt><trkpt lat="46.1051505" lon="13.3617701"><ele>109.0</ele><time>2026-04-24T14:17:50.222Z</time></trkpt><trkpt lat="46.105085" lon="13.3617529"><ele>109.0</ele><time>2026-04-24T14:17:51.222Z</time></trkpt><trkpt lat="46.1050217" lon="13.3617358"><ele>109.0</ele><time>2026-04-24T14:17:52.222Z</time></trkpt><trkpt lat="46.1049554" lon="13.3617202"><ele>109.0</ele><time>2026-04-24T14:17:53.223Z</time></trkpt><trkpt lat="46.1048929" lon="13.3617013"><ele>109.0</ele><time>2026-04-24T14:17:54.223Z</time></trkpt><trkpt lat="46.1048306" lon="13.3616816"><ele>109.0</ele><time>2026-04-24T14:17:55.223Z</time></trkpt><trkpt lat="46.1047667" lon="13.3616635"><ele>109.0</ele><time>2026-04-24T14:17:56.222Z</time></trkpt><trkpt lat="46.1047024" lon="13.3616476"><ele>109.0</ele><time>2026-04-24T14:17:57.221Z</time></trkpt><trkpt lat="46.1045862" lon="13.3616148"><ele>109.25</ele><time>2026-04-24T14:17:59.221Z</time></trkpt><trkpt lat="46.1044725" lon="13.361574"><ele>109.5</ele><time>2026-04-24T14:18:01.221Z</time></trkpt><trkpt lat="46.1043608" lon="13.3615249"><ele>109.75</ele><time>2026-04-24T14:18:03.222Z</time></trkpt><trkpt lat="46.1042454" lon="13.3614628"><ele>110.0</ele><time>2026-04-24T14:18:05.222Z</time></trkpt><trkpt lat="46.1041261" lon="13.3614163"><ele>109.99999999999999</ele><time>2026-04-24T14:18:07.22Z</time></trkpt><trkpt lat="46.1039976" lon="13.3613849"><ele>110.0</ele><time>2026-04-24T14:18:09.22Z</time></trkpt><trkpt lat="46.1039271" lon="13.3613696"><ele>110.0</ele><time>2026-04-24T14:18:10.221Z</time></trkpt><trkpt lat="46.1038647" lon="13.3613535"><ele>110.0</ele><time>2026-04-24T14:18:11.221Z</time></trkpt><trkpt lat="46.1037973" lon="13.3613371"><ele>109.99999999999999</ele><time>2026-04-24T14:18:12.221Z</time></trkpt><trkpt lat="46.1037267" lon="13.3613208"><ele>110.0</ele><time>2026-04-24T14:18:13.222Z</time></trkpt><trkpt lat="46.1036103" lon="13.3612731"><ele>110.0</ele><time>2026-04-24T14:18:15.221Z</time></trkpt><trkpt lat="46.1035039" lon="13.3612109"><ele>110.0</ele><time>2026-04-24T14:18:17.221Z</time></trkpt><trkpt lat="46.1034096" lon="13.3611422"><ele>110.0</ele><time>2026-04-24T14:18:19.222Z</time></trkpt><trkpt lat="46.1033217" lon="13.3610674"><ele>110.0</ele><time>2026-04-24T14:18:21.222Z</time></trkpt><trkpt lat="46.1032523" lon="13.3609731"><ele>110.0</ele><time>2026-04-24T14:18:23.22Z</time></trkpt><trkpt lat="46.1031694" lon="13.3608583"><ele>110.14285714285714</ele><time>2026-04-24T14:18:25.22Z</time></trkpt><trkpt lat="46.1031268" lon="13.3607907"><ele>110.28571428571428</ele><time>2026-04-24T14:18:26.222Z</time></trkpt><trkpt lat="46.1030814" lon="13.3607109"><ele>110.42857142857142</ele><time>2026-04-24T14:18:27.222Z</time></trkpt><trkpt lat="46.1030445" lon="13.3606365"><ele>110.57142857142857</ele><time>2026-04-24T14:18:28.221Z</time></trkpt><trkpt lat="46.1030039" lon="13.3605491"><ele>110.71428571428572</ele><time>2026-04-24T14:18:29.222Z</time></trkpt><trkpt lat="46.1029646" lon="13.360461"><ele>110.85714285714285</ele><time>2026-04-24T14:18:30.221Z</time></trkpt><trkpt lat="46.1029229" lon="13.3603678"><ele>111.0</ele><time>2026-04-24T14:18:31.221Z</time></trkpt><trkpt lat="46.1028791" lon="13.3602701"><ele>111.16666666666667</ele><time>2026-04-24T14:18:32.221Z</time></trkpt><trkpt lat="46.1028337" lon="13.3601699"><ele>111.33333333333334</ele><time>2026-04-24T14:18:33.221Z</time></trkpt><trkpt lat="46.1027921" lon="13.3600691"><ele>111.5</ele><time>2026-04-24T14:18:34.221Z</time></trkpt><trkpt lat="46.1027512" lon="13.3599713"><ele>111.66666666666667</ele><time>2026-04-24T14:18:35.22Z</time></trkpt><trkpt lat="46.1027081" lon="13.3598792"><ele>111.83333333333334</ele><time>2026-04-24T14:18:36.221Z</time></trkpt><trkpt lat="46.1026672" lon="13.3597847"><ele>112.0</ele><time>2026-04-24T14:18:37.221Z</time></trkpt><trkpt lat="46.1026272" lon="13.35969"><ele>111.83333333333334</ele><time>2026-04-24T14:18:38.221Z</time></trkpt><trkpt lat="46.1025867" lon="13.3595971"><ele>111.66666666666667</ele><time>2026-04-24T14:18:39.221Z</time></trkpt><trkpt lat="46.1025467" lon="13.3595056"><ele>111.5</ele><time>2026-04-24T14:18:40.221Z</time></trkpt><trkpt lat="46.1025079" lon="13.359406"><ele>111.33333333333334</ele><time>2026-04-24T14:18:41.221Z</time></trkpt><trkpt lat="46.1024707" lon="13.3593021"><ele>111.16666666666667</ele><time>2026-04-24T14:18:42.221Z</time></trkpt><trkpt lat="46.1024343" lon="13.3591995"><ele>111.0</ele><time>2026-04-24T14:18:43.22Z</time></trkpt><trkpt lat="46.1023978" lon="13.3591065"><ele>111.0</ele><time>2026-04-24T14:18:44.22Z</time></trkpt><trkpt lat="46.1023519" lon="13.3590151"><ele>111.0</ele><time>2026-04-24T14:18:45.22Z</time></trkpt><trkpt lat="46.1023033" lon="13.3589204"><ele>111.0</ele><time>2026-04-24T14:18:46.221Z</time></trkpt><trkpt lat="46.1022541" lon="13.3588198"><ele>111.0</ele><time>2026-04-24T14:18:47.22Z</time></trkpt><trkpt lat="46.1022065" lon="13.3587135"><ele>111.0</ele><time>2026-04-24T14:18:48.221Z</time></trkpt><trkpt lat="46.1021619" lon="13.3586119"><ele>111.0</ele><time>2026-04-24T14:18:49.22Z</time></trkpt><trkpt lat="46.102116" lon="13.3585105"><ele>110.33333333333333</ele><time>2026-04-24T14:18:50.221Z</time></trkpt><trkpt lat="46.1020725" lon="13.3584096"><ele>109.66666666666666</ele><time>2026-04-24T14:18:51.22Z</time></trkpt><trkpt lat="46.1020325" lon="13.358315"><ele>109.0</ele><time>2026-04-24T14:18:52.221Z</time></trkpt><trkpt lat="46.101996" lon="13.3582311"><ele>108.33333333333333</ele><time>2026-04-24T14:18:53.222Z</time></trkpt><trkpt lat="46.1019334" lon="13.3580912"><ele>107.66666666666666</ele><time>2026-04-24T14:18:55.221Z</time></trkpt><trkpt lat="46.1018817" lon="13.3579787"><ele>107.0</ele><time>2026-04-24T14:18:57.221Z</time></trkpt><trkpt lat="46.1018414" lon="13.3578813"><ele>107.0</ele><time>2026-04-24T14:18:59.221Z</time></trkpt><trkpt lat="46.1017858" lon="13.3578233"><ele>106.99999999999999</ele><time>2026-04-24T14:19:02.22Z</time></trkpt><trkpt lat="46.1016958" lon="13.3578824"><ele>106.99999999999999</ele><time>2026-04-24T14:19:04.22Z</time></trkpt><trkpt lat="46.1016044" lon="13.3579542"><ele>107.0</ele><time>2026-04-24T14:19:06.22Z</time></trkpt><trkpt lat="46.1015184" lon="13.3578514"><ele>107.0</ele><time>2026-04-24T14:19:09.221Z</time></trkpt><trkpt lat="46.101483" lon="13.3577674"><ele>107.00000000000001</ele><time>2026-04-24T14:19:10.221Z</time></trkpt><trkpt lat="46.1014518" lon="13.3576794"><ele>107.0</ele><time>2026-04-24T14:19:11.22Z</time></trkpt><trkpt lat="46.1014184" lon="13.3575944"><ele>107.0</ele><time>2026-04-24T14:19:12.221Z</time></trkpt><trkpt lat="46.1013824" lon="13.3575101"><ele>107.0</ele><time>2026-04-24T14:19:13.22Z</time></trkpt><trkpt lat="46.1013425" lon="13.3574185"><ele>107.0</ele><time>2026-04-24T14:19:14.221Z</time></trkpt><trkpt lat="46.1013018" lon="13.3573231"><ele>107.00000000000001</ele><time>2026-04-24T14:19:15.221Z</time></trkpt><trkpt lat="46.1012567" lon="13.3572214"><ele>107.0</ele><time>2026-04-24T14:19:16.221Z</time></trkpt><trkpt lat="46.1012137" lon="13.3571243"><ele>107.6</ele><time>2026-04-24T14:19:17.22Z</time></trkpt><trkpt lat="46.1011617" lon="13.357018"><ele>108.19999999999999</ele><time>2026-04-24T14:19:18.22Z</time></trkpt><trkpt lat="46.10111" lon="13.3569019"><ele>108.8</ele><time>2026-04-24T14:19:19.221Z</time></trkpt><trkpt lat="46.1010568" lon="13.3567791"><ele>109.4</ele><time>2026-04-24T14:19:20.222Z</time></trkpt><trkpt lat="46.1010025" lon="13.3566507"><ele>110.0</ele><time>2026-04-24T14:19:21.221Z</time></trkpt><trkpt lat="46.100947" lon="13.3565229"><ele>110.0</ele><time>2026-04-24T14:19:22.221Z</time></trkpt><trkpt lat="46.1008924" lon="13.356406"><ele>110.0</ele><time>2026-04-24T14:19:23.221Z</time></trkpt><trkpt lat="46.1008396" lon="13.3562878"><ele>110.0</ele><time>2026-04-24T14:19:24.22Z</time></trkpt><trkpt lat="46.1007888" lon="13.3561726"><ele>110.0</ele><time>2026-04-24T14:19:25.221Z</time></trkpt><trkpt lat="46.1007371" lon="13.3560581"><ele>110.0</ele><time>2026-04-24T14:19:26.221Z</time></trkpt><trkpt lat="46.100685" lon="13.3559461"><ele>110.0</ele><time>2026-04-24T14:19:27.221Z</time></trkpt><trkpt lat="46.1006303" lon="13.3558317"><ele>110.0</ele><time>2026-04-24T14:19:28.221Z</time></trkpt><trkpt lat="46.1005724" lon="13.3557186"><ele>110.0</ele><time>2026-04-24T14:19:29.222Z</time></trkpt><trkpt lat="46.1005086" lon="13.3556106"><ele>110.0</ele><time>2026-04-24T14:19:30.221Z</time></trkpt><trkpt lat="46.1004377" lon="13.3555059"><ele>110.0</ele><time>2026-04-24T14:19:31.221Z</time></trkpt><trkpt lat="46.1003595" lon="13.3554052"><ele>110.0</ele><time>2026-04-24T14:19:32.222Z</time></trkpt><trkpt lat="46.1002738" lon="13.3553097"><ele>110.0</ele><time>2026-04-24T14:19:33.221Z</time></trkpt><trkpt lat="46.1001816" lon="13.3552206"><ele>110.0</ele><time>2026-04-24T14:19:34.22Z</time></trkpt><trkpt lat="46.1000861" lon="13.3551408"><ele>110.0</ele><time>2026-04-24T14:19:35.222Z</time></trkpt><trkpt lat="46.0999845" lon="13.3550679"><ele>110.0</ele><time>2026-04-24T14:19:36.221Z</time></trkpt><trkpt lat="46.0998775" lon="13.3549993"><ele>110.0</ele><time>2026-04-24T14:19:37.22Z</time></trkpt><trkpt lat="46.0997709" lon="13.3549421"><ele>110.0</ele><time>2026-04-24T14:19:38.221Z</time></trkpt><trkpt lat="46.0996598" lon="13.3548942"><ele>110.0</ele><time>2026-04-24T14:19:39.222Z</time></trkpt><trkpt lat="46.0995447" lon="13.3548593"><ele>110.0</ele><time>2026-04-24T14:19:40.221Z</time></trkpt><trkpt lat="46.0994294" lon="13.3548344"><ele>110.0</ele><time>2026-04-24T14:19:41.221Z</time></trkpt><trkpt lat="46.0993159" lon="13.3548033"><ele>110.0</ele><time>2026-04-24T14:19:42.22Z</time></trkpt><trkpt lat="46.0992157" lon="13.3547705"><ele>110.0</ele><time>2026-04-24T14:19:43.221Z</time></trkpt><trkpt lat="46.0991221" lon="13.3547443"><ele>110.0</ele><time>2026-04-24T14:19:44.222Z</time></trkpt><trkpt lat="46.0990277" lon="13.3547321"><ele>110.0</ele><time>2026-04-24T14:19:45.221Z</time></trkpt><trkpt lat="46.0989303" lon="13.3547312"><ele>109.4</ele><time>2026-04-24T14:19:46.22Z</time></trkpt><trkpt lat="46.0988298" lon="13.3547383"><ele>108.8</ele><time>2026-04-24T14:19:47.221Z</time></trkpt><trkpt lat="46.0987272" lon="13.3547529"><ele>108.19999999999999</ele><time>2026-04-24T14:19:48.222Z</time></trkpt><trkpt lat="46.0986212" lon="13.3547746"><ele>107.6</ele><time>2026-04-24T14:19:49.222Z</time></trkpt><trkpt lat="46.0985113" lon="13.3548054"><ele>107.0</ele><time>2026-04-24T14:19:50.221Z</time></trkpt><trkpt lat="46.0984002" lon="13.3548386"><ele>107.0</ele><time>2026-04-24T14:19:51.22Z</time></trkpt><trkpt lat="46.0982882" lon="13.3548664"><ele>106.99999999999999</ele><time>2026-04-24T14:19:52.221Z</time></trkpt><trkpt lat="46.0981869" lon="13.3548877"><ele>106.99999999999999</ele><time>2026-04-24T14:19:53.22Z</time></trkpt><trkpt lat="46.0980947" lon="13.3549105"><ele>107.0</ele><time>2026-04-24T14:19:54.22Z</time></trkpt><trkpt lat="46.0980141" lon="13.3549396"><ele>107.0</ele><time>2026-04-24T14:19:55.221Z</time></trkpt><trkpt lat="46.0979468" lon="13.3549722"><ele>107.33333333333333</ele><time>2026-04-24T14:19:56.222Z</time></trkpt><trkpt lat="46.0978846" lon="13.3549957"><ele>107.66666666666666</ele><time>2026-04-24T14:19:57.222Z</time></trkpt><trkpt lat="46.0978095" lon="13.3549421"><ele>108.0</ele><time>2026-04-24T14:19:59.22Z</time></trkpt><trkpt lat="46.0977854" lon="13.3547641"><ele>108.33333333333334</ele><time>2026-04-24T14:20:01.222Z</time></trkpt><trkpt lat="46.0977753" lon="13.3546406"><ele>108.66666666666667</ele><time>2026-04-24T14:20:02.222Z</time></trkpt><trkpt lat="46.0977645" lon="13.3545422"><ele>109.0</ele><time>2026-04-24T14:20:03.221Z</time></trkpt><trkpt lat="46.0977557" lon="13.3544214"><ele>109.00000000000001</ele><time>2026-04-24T14:20:05.221Z</time></trkpt><trkpt lat="46.0977451" lon="13.3542819"><ele>109.0</ele><time>2026-04-24T14:20:07.221Z</time></trkpt><trkpt lat="46.0977336" lon="13.3541884"><ele>109.0</ele><time>2026-04-24T14:20:08.22Z</time></trkpt><trkpt lat="46.0977253" lon="13.3540743"><ele>109.0</ele><time>2026-04-24T14:20:09.22Z</time></trkpt><trkpt lat="46.0977169" lon="13.3539701"><ele>109.00000000000001</ele><time>2026-04-24T14:20:10.222Z</time></trkpt><trkpt lat="46.0977077" lon="13.3538537"><ele>109.0</ele><time>2026-04-24T14:20:11.221Z</time></trkpt><trkpt lat="46.0976969" lon="13.3537332"><ele>108.80000000000001</ele><time>2026-04-24T14:20:12.22Z</time></trkpt><trkpt lat="46.0976846" lon="13.3536112"><ele>108.60000000000001</ele><time>2026-04-24T14:20:13.22Z</time></trkpt><trkpt lat="46.097673" lon="13.3534895"><ele>108.4</ele><time>2026-04-24T14:20:14.22Z</time></trkpt><trkpt lat="46.0976661" lon="13.3533583"><ele>108.2</ele><time>2026-04-24T14:20:15.22Z</time></trkpt><trkpt lat="46.0976566" lon="13.3532189"><ele>108.0</ele><time>2026-04-24T14:20:16.221Z</time></trkpt><trkpt lat="46.0976473" lon="13.3530645"><ele>108.0</ele><time>2026-04-24T14:20:17.221Z</time></trkpt><trkpt lat="46.0976385" lon="13.3529081"><ele>108.00000000000001</ele><time>2026-04-24T14:20:18.221Z</time></trkpt><trkpt lat="46.0976275" lon="13.3527507"><ele>108.00000000000001</ele><time>2026-04-24T14:20:19.221Z</time></trkpt><trkpt lat="46.0976181" lon="13.3525935"><ele>108.0</ele><time>2026-04-24T14:20:20.222Z</time></trkpt><trkpt lat="46.0976077" lon="13.3524318"><ele>108.0</ele><time>2026-04-24T14:20:21.221Z</time></trkpt><trkpt lat="46.0975986" lon="13.3522686"><ele>108.0</ele><time>2026-04-24T14:20:22.222Z</time></trkpt><trkpt lat="46.0975876" lon="13.3521072"><ele>108.0</ele><time>2026-04-24T14:20:23.22Z</time></trkpt><trkpt lat="46.0975758" lon="13.3519405"><ele>108.0</ele><time>2026-04-24T14:20:24.22Z</time></trkpt><trkpt lat="46.0975641" lon="13.3517702"><ele>108.0</ele><time>2026-04-24T14:20:25.22Z</time></trkpt><trkpt lat="46.0975523" lon="13.3515975"><ele>108.0</ele><time>2026-04-24T14:20:26.221Z</time></trkpt><trkpt lat="46.0975387" lon="13.3514269"><ele>108.00000000000001</ele><time>2026-04-24T14:20:27.221Z</time></trkpt><trkpt lat="46.097532" lon="13.3512628"><ele>108.00000000000001</ele><time>2026-04-24T14:20:28.222Z</time></trkpt><trkpt lat="46.097523" lon="13.351107"><ele>108.0</ele><time>2026-04-24T14:20:29.222Z</time></trkpt><trkpt lat="46.0975157" lon="13.3509517"><ele>108.0</ele><time>2026-04-24T14:20:30.22Z</time></trkpt><trkpt lat="46.0975066" lon="13.3508001"><ele>108.0</ele><time>2026-04-24T14:20:31.221Z</time></trkpt><trkpt lat="46.0974981" lon="13.3506505"><ele>108.00000000000001</ele><time>2026-04-24T14:20:32.221Z</time></trkpt><trkpt lat="46.0974898" lon="13.3505046"><ele>108.00000000000001</ele><time>2026-04-24T14:20:33.222Z</time></trkpt><trkpt lat="46.0974807" lon="13.3503603"><ele>108.0</ele><time>2026-04-24T14:20:34.221Z</time></trkpt><trkpt lat="46.0974696" lon="13.3502147"><ele>108.0</ele><time>2026-04-24T14:20:35.221Z</time></trkpt><trkpt lat="46.0974605" lon="13.3500684"><ele>108.0</ele><time>2026-04-24T14:20:36.221Z</time></trkpt><trkpt lat="46.0974526" lon="13.3499215"><ele>108.00000000000001</ele><time>2026-04-24T14:20:37.222Z</time></trkpt><trkpt lat="46.0974422" lon="13.3497728"><ele>108.00000000000001</ele><time>2026-04-24T14:20:38.221Z</time></trkpt><trkpt lat="46.0974323" lon="13.3496204"><ele>108.0</ele><time>2026-04-24T14:20:39.222Z</time></trkpt><trkpt lat="46.0974232" lon="13.3494668"><ele>108.0</ele><time>2026-04-24T14:20:40.222Z</time></trkpt><trkpt lat="46.0974123" lon="13.3493152"><ele>108.2</ele><time>2026-04-24T14:20:41.222Z</time></trkpt><trkpt lat="46.0974032" lon="13.3491612"><ele>108.4</ele><time>2026-04-24T14:20:42.222Z</time></trkpt><trkpt lat="46.0973955" lon="13.3490068"><ele>108.60000000000001</ele><time>2026-04-24T14:20:43.221Z</time></trkpt><trkpt lat="46.0973862" lon="13.3488526"><ele>108.80000000000001</ele><time>2026-04-24T14:20:44.222Z</time></trkpt><trkpt lat="46.0973762" lon="13.3486964"><ele>109.0</ele><time>2026-04-24T14:20:45.22Z</time></trkpt><trkpt lat="46.0973707" lon="13.34854"><ele>109.0</ele><time>2026-04-24T14:20:46.222Z</time></trkpt><trkpt lat="46.0973606" lon="13.348381"><ele>109.0</ele><time>2026-04-24T14:20:47.221Z</time></trkpt><trkpt lat="46.0973511" lon="13.3482269"><ele>109.0</ele><time>2026-04-24T14:20:48.221Z</time></trkpt><trkpt lat="46.0973406" lon="13.3480717"><ele>109.0</ele><time>2026-04-24T14:20:49.221Z</time></trkpt><trkpt lat="46.0973319" lon="13.3479196"><ele>109.0</ele><time>2026-04-24T14:20:50.22Z</time></trkpt><trkpt lat="46.0973226" lon="13.3477712"><ele>109.0</ele><time>2026-04-24T14:20:51.221Z</time></trkpt><trkpt lat="46.0973136" lon="13.3476352"><ele>109.0</ele><time>2026-04-24T14:20:52.222Z</time></trkpt><trkpt lat="46.097305" lon="13.3475035"><ele>109.0</ele><time>2026-04-24T14:20:53.22Z</time></trkpt><trkpt lat="46.0972967" lon="13.3473654"><ele>109.0</ele><time>2026-04-24T14:20:54.222Z</time></trkpt><trkpt lat="46.0972865" lon="13.3472307"><ele>109.0</ele><time>2026-04-24T14:20:55.221Z</time></trkpt><trkpt lat="46.0972778" lon="13.347098"><ele>109.2</ele><time>2026-04-24T14:20:56.222Z</time></trkpt><trkpt lat="46.0972721" lon="13.3469632"><ele>109.4</ele><time>2026-04-24T14:20:57.221Z</time></trkpt><trkpt lat="46.0972641" lon="13.346827"><ele>109.6</ele><time>2026-04-24T14:20:58.22Z</time></trkpt><trkpt lat="46.0972542" lon="13.3466874"><ele>109.8</ele><time>2026-04-24T14:20:59.221Z</time></trkpt><trkpt lat="46.0972449" lon="13.3465456"><ele>110.0</ele><time>2026-04-24T14:21:00.221Z</time></trkpt><trkpt lat="46.0972355" lon="13.3463952"><ele>109.75</ele><time>2026-04-24T14:21:01.221Z</time></trkpt><trkpt lat="46.0972267" lon="13.3462341"><ele>109.5</ele><time>2026-04-24T14:21:02.221Z</time></trkpt><trkpt lat="46.0972161" lon="13.346066"><ele>109.25</ele><time>2026-04-24T14:21:03.22Z</time></trkpt><trkpt lat="46.0972048" lon="13.3458949"><ele>109.0</ele><time>2026-04-24T14:21:04.222Z</time></trkpt><trkpt lat="46.0971931" lon="13.3457219"><ele>109.0</ele><time>2026-04-24T14:21:05.221Z</time></trkpt><trkpt lat="46.0971813" lon="13.3455481"><ele>109.0</ele><time>2026-04-24T14:21:06.22Z</time></trkpt><trkpt lat="46.0971707" lon="13.3453767"><ele>109.0</ele><time>2026-04-24T14:21:07.219Z</time></trkpt><trkpt lat="46.0971605" lon="13.3452062"><ele>109.0</ele><time>2026-04-24T14:21:08.219Z</time></trkpt><trkpt lat="46.0971476" lon="13.3450339"><ele>109.0</ele><time>2026-04-24T14:21:09.22Z</time></trkpt><trkpt lat="46.0971355" lon="13.3448617"><ele>109.0</ele><time>2026-04-24T14:21:10.22Z</time></trkpt><trkpt lat="46.0971226" lon="13.3446899"><ele>109.0</ele><time>2026-04-24T14:21:11.219Z</time></trkpt><trkpt lat="46.0971103" lon="13.3445153"><ele>109.0</ele><time>2026-04-24T14:21:12.219Z</time></trkpt><trkpt lat="46.0970988" lon="13.3443423"><ele>108.75</ele><time>2026-04-24T14:21:13.221Z</time></trkpt><trkpt lat="46.0970923" lon="13.3441677"><ele>108.5</ele><time>2026-04-24T14:21:14.221Z</time></trkpt><trkpt lat="46.0970823" lon="13.3439933"><ele>108.25</ele><time>2026-04-24T14:21:15.22Z</time></trkpt><trkpt lat="46.0970744" lon="13.3438196"><ele>108.0</ele><time>2026-04-24T14:21:16.219Z</time></trkpt><trkpt lat="46.0970664" lon="13.3436484"><ele>108.0</ele><time>2026-04-24T14:21:17.22Z</time></trkpt><trkpt lat="46.0970606" lon="13.3434787"><ele>108.0</ele><time>2026-04-24T14:21:18.219Z</time></trkpt><trkpt lat="46.0970538" lon="13.343311"><ele>108.0</ele><time>2026-04-24T14:21:19.221Z</time></trkpt><trkpt lat="46.0970422" lon="13.3431434"><ele>108.0</ele><time>2026-04-24T14:21:20.219Z</time></trkpt><trkpt lat="46.0970286" lon="13.3429747"><ele>108.0</ele><time>2026-04-24T14:21:21.22Z</time></trkpt><trkpt lat="46.097015" lon="13.3428057"><ele>108.0</ele><time>2026-04-24T14:21:22.219Z</time></trkpt><trkpt lat="46.0970034" lon="13.3426388"><ele>108.0</ele><time>2026-04-24T14:21:23.22Z</time></trkpt><trkpt lat="46.0969932" lon="13.3424714"><ele>108.0</ele><time>2026-04-24T14:21:24.219Z</time></trkpt><trkpt lat="46.0969834" lon="13.3423037"><ele>108.25</ele><time>2026-04-24T14:21:25.221Z</time></trkpt><trkpt lat="46.0969722" lon="13.3421361"><ele>108.5</ele><time>2026-04-24T14:21:26.219Z</time></trkpt><trkpt lat="46.0969613" lon="13.3419679"><ele>108.75</ele><time>2026-04-24T14:21:27.219Z</time></trkpt><trkpt lat="46.0969518" lon="13.341799"><ele>109.0</ele><time>2026-04-24T14:21:28.221Z</time></trkpt><trkpt lat="46.096942" lon="13.3416293"><ele>109.0</ele><time>2026-04-24T14:21:29.221Z</time></trkpt><trkpt lat="46.0969312" lon="13.3414558"><ele>109.0</ele><time>2026-04-24T14:21:30.22Z</time></trkpt><trkpt lat="46.0969196" lon="13.3412811"><ele>109.0</ele><time>2026-04-24T14:21:31.22Z</time></trkpt><trkpt lat="46.0969076" lon="13.341107"><ele>109.0</ele><time>2026-04-24T14:21:32.219Z</time></trkpt><trkpt lat="46.0968979" lon="13.3409285"><ele>109.0</ele><time>2026-04-24T14:21:33.221Z</time></trkpt><trkpt lat="46.0968858" lon="13.340749"><ele>109.0</ele><time>2026-04-24T14:21:34.219Z</time></trkpt><trkpt lat="46.0968747" lon="13.3405708"><ele>109.0</ele><time>2026-04-24T14:21:35.219Z</time></trkpt><trkpt lat="46.0968622" lon="13.3403961"><ele>109.0</ele><time>2026-04-24T14:21:36.22Z</time></trkpt><trkpt lat="46.0968515" lon="13.340218"><ele>109.0</ele><time>2026-04-24T14:21:37.22Z</time></trkpt><trkpt lat="46.0968386" lon="13.3400422"><ele>109.0</ele><time>2026-04-24T14:21:38.221Z</time></trkpt><trkpt lat="46.0968289" lon="13.3398663"><ele>109.0</ele><time>2026-04-24T14:21:39.219Z</time></trkpt><trkpt lat="46.0968195" lon="13.3396916"><ele>109.0</ele><time>2026-04-24T14:21:40.221Z</time></trkpt><trkpt lat="46.0968096" lon="13.3395207"><ele>108.75</ele><time>2026-04-24T14:21:41.22Z</time></trkpt><trkpt lat="46.096799" lon="13.3393511"><ele>108.5</ele><time>2026-04-24T14:21:42.22Z</time></trkpt><trkpt lat="46.0967883" lon="13.3391808"><ele>108.25</ele><time>2026-04-24T14:21:43.219Z</time></trkpt><trkpt lat="46.0967759" lon="13.3390088"><ele>108.0</ele><time>2026-04-24T14:21:44.221Z</time></trkpt><trkpt lat="46.0967644" lon="13.3388372"><ele>108.0</ele><time>2026-04-24T14:21:45.219Z</time></trkpt><trkpt lat="46.0967553" lon="13.338666"><ele>108.0</ele><time>2026-04-24T14:21:46.221Z</time></trkpt><trkpt lat="46.096745" lon="13.3384958"><ele>108.0</ele><time>2026-04-24T14:21:47.22Z</time></trkpt><trkpt lat="46.096733" lon="13.3383252"><ele>108.0</ele><time>2026-04-24T14:21:48.22Z</time></trkpt><trkpt lat="46.0967226" lon="13.3381548"><ele>108.25</ele><time>2026-04-24T14:21:49.22Z</time></trkpt><trkpt lat="46.0967122" lon="13.337988"><ele>108.5</ele><time>2026-04-24T14:21:50.219Z</time></trkpt><trkpt lat="46.096703" lon="13.3378188"><ele>108.75</ele><time>2026-04-24T14:21:51.22Z</time></trkpt><trkpt lat="46.0966926" lon="13.3376542"><ele>109.0</ele><time>2026-04-24T14:21:52.221Z</time></trkpt><trkpt lat="46.0966824" lon="13.3374952"><ele>109.0</ele><time>2026-04-24T14:21:53.22Z</time></trkpt><trkpt lat="46.0966726" lon="13.3373442"><ele>109.0</ele><time>2026-04-24T14:21:54.221Z</time></trkpt><trkpt lat="46.0966623" lon="13.3371951"><ele>109.0</ele><time>2026-04-24T14:21:55.221Z</time></trkpt><trkpt lat="46.0966517" lon="13.3370475"><ele>109.0</ele><time>2026-04-24T14:21:56.22Z</time></trkpt><trkpt lat="46.0966391" lon="13.3369012"><ele>109.0</ele><time>2026-04-24T14:21:57.22Z</time></trkpt><trkpt lat="46.0966284" lon="13.3367556"><ele>109.2</ele><time>2026-04-24T14:21:58.219Z</time></trkpt><trkpt lat="46.0966182" lon="13.3366112"><ele>109.4</ele><time>2026-04-24T14:21:59.22Z</time></trkpt><trkpt lat="46.0966104" lon="13.3364624"><ele>109.6</ele><time>2026-04-24T14:22:00.22Z</time></trkpt><trkpt lat="46.096604" lon="13.3363097"><ele>109.8</ele><time>2026-04-24T14:22:01.22Z</time></trkpt><trkpt lat="46.0965951" lon="13.3361567"><ele>110.0</ele><time>2026-04-24T14:22:02.22Z</time></trkpt><trkpt lat="46.0965868" lon="13.3360033"><ele>110.2</ele><time>2026-04-24T14:22:03.219Z</time></trkpt><trkpt lat="46.0965738" lon="13.335848"><ele>110.4</ele><time>2026-04-24T14:22:04.22Z</time></trkpt><trkpt lat="46.0965659" lon="13.3356879"><ele>110.6</ele><time>2026-04-24T14:22:05.22Z</time></trkpt><trkpt lat="46.0965572" lon="13.335528"><ele>110.8</ele><time>2026-04-24T14:22:06.22Z</time></trkpt><trkpt lat="46.0965474" lon="13.3353678"><ele>111.0</ele><time>2026-04-24T14:22:07.22Z</time></trkpt><trkpt lat="46.0965392" lon="13.3352061"><ele>110.6</ele><time>2026-04-24T14:22:08.221Z</time></trkpt><trkpt lat="46.0965307" lon="13.3350448"><ele>110.19999999999999</ele><time>2026-04-24T14:22:09.221Z</time></trkpt><trkpt lat="46.0965193" lon="13.3348848"><ele>109.80000000000001</ele><time>2026-04-24T14:22:10.221Z</time></trkpt><trkpt lat="46.0965056" lon="13.3347329"><ele>109.4</ele><time>2026-04-24T14:22:11.221Z</time></trkpt><trkpt lat="46.0964941" lon="13.3345843"><ele>109.0</ele><time>2026-04-24T14:22:12.22Z</time></trkpt><trkpt lat="46.0964864" lon="13.3344369"><ele>109.0</ele><time>2026-04-24T14:22:13.22Z</time></trkpt><trkpt lat="46.0964783" lon="13.3342906"><ele>109.0</ele><time>2026-04-24T14:22:14.221Z</time></trkpt><trkpt lat="46.0964705" lon="13.3341491"><ele>109.0</ele><time>2026-04-24T14:22:15.221Z</time></trkpt><trkpt lat="46.0964603" lon="13.3340211"><ele>109.0</ele><time>2026-04-24T14:22:16.219Z</time></trkpt><trkpt lat="46.0964487" lon="13.3339067"><ele>109.0</ele><time>2026-04-24T14:22:17.22Z</time></trkpt><trkpt lat="46.0964424" lon="13.333785"><ele>109.0</ele><time>2026-04-24T14:22:18.22Z</time></trkpt><trkpt lat="46.0964383" lon="13.333651"><ele>109.0</ele><time>2026-04-24T14:22:19.219Z</time></trkpt><trkpt lat="46.0964339" lon="13.3335118"><ele>109.0</ele><time>2026-04-24T14:22:20.221Z</time></trkpt><trkpt lat="46.0964319" lon="13.333372"><ele>109.0</ele><time>2026-04-24T14:22:21.22Z</time></trkpt><trkpt lat="46.096436" lon="13.3332358"><ele>109.0</ele><time>2026-04-24T14:22:22.219Z</time></trkpt><trkpt lat="46.096439" lon="13.3331062"><ele>109.00000000000001</ele><time>2026-04-24T14:22:23.219Z</time></trkpt><trkpt lat="46.0964335" lon="13.3329802"><ele>109.0</ele><time>2026-04-24T14:22:24.221Z</time></trkpt><trkpt lat="46.0964139" lon="13.3328692"><ele>109.0</ele><time>2026-04-24T14:22:25.219Z</time></trkpt><trkpt lat="46.0963775" lon="13.3327899"><ele>109.0</ele><time>2026-04-24T14:22:26.22Z</time></trkpt><trkpt lat="46.096253" lon="13.3327304"><ele>109.00000000000001</ele><time>2026-04-24T14:22:28.221Z</time></trkpt><trkpt lat="46.0961738" lon="13.3327378"><ele>109.0</ele><time>2026-04-24T14:22:29.221Z</time></trkpt><trkpt lat="46.0960919" lon="13.3327438"><ele>109.00000000000001</ele><time>2026-04-24T14:22:30.22Z</time></trkpt><trkpt lat="46.0960056" lon="13.33275"><ele>109.0</ele><time>2026-04-24T14:22:31.22Z</time></trkpt><trkpt lat="46.0959172" lon="13.3327589"><ele>109.0</ele><time>2026-04-24T14:22:32.22Z</time></trkpt><trkpt lat="46.0958339" lon="13.3327672"><ele>109.0</ele><time>2026-04-24T14:22:33.221Z</time></trkpt><trkpt lat="46.0957617" lon="13.3327758"><ele>109.00000000000001</ele><time>2026-04-24T14:22:34.22Z</time></trkpt><trkpt lat="46.0956968" lon="13.3327796"><ele>109.0</ele><time>2026-04-24T14:22:35.22Z</time></trkpt><trkpt lat="46.0955811" lon="13.3327945"><ele>109.4</ele><time>2026-04-24T14:22:37.22Z</time></trkpt><trkpt lat="46.0954619" lon="13.3328263"><ele>109.80000000000001</ele><time>2026-04-24T14:22:39.221Z</time></trkpt><trkpt lat="46.0953864" lon="13.3328413"><ele>110.19999999999999</ele><time>2026-04-24T14:22:40.221Z</time></trkpt><trkpt lat="46.0953027" lon="13.3328459"><ele>110.6</ele><time>2026-04-24T14:22:41.22Z</time></trkpt><trkpt lat="46.0952027" lon="13.3328443"><ele>111.0</ele><time>2026-04-24T14:22:42.22Z</time></trkpt><trkpt lat="46.0950721" lon="13.332837"><ele>111.0</ele><time>2026-04-24T14:22:43.221Z</time></trkpt><trkpt lat="46.0949371" lon="13.3328215"><ele>111.0</ele><time>2026-04-24T14:22:44.219Z</time></trkpt><trkpt lat="46.0948235" lon="13.3327989"><ele>111.0</ele><time>2026-04-24T14:22:45.22Z</time></trkpt><trkpt lat="46.094725" lon="13.3327766"><ele>111.0</ele><time>2026-04-24T14:22:46.22Z</time></trkpt><trkpt lat="46.0946303" lon="13.3327718"><ele>111.0</ele><time>2026-04-24T14:22:47.221Z</time></trkpt><trkpt lat="46.0945343" lon="13.3327706"><ele>110.8</ele><time>2026-04-24T14:22:48.22Z</time></trkpt><trkpt lat="46.0944411" lon="13.3327658"><ele>110.6</ele><time>2026-04-24T14:22:49.219Z</time></trkpt><trkpt lat="46.0943497" lon="13.3327628"><ele>110.4</ele><time>2026-04-24T14:22:50.22Z</time></trkpt><trkpt lat="46.0942604" lon="13.3327471"><ele>110.2</ele><time>2026-04-24T14:22:51.22Z</time></trkpt><trkpt lat="46.0941703" lon="13.3327255"><ele>110.0</ele><time>2026-04-24T14:22:52.221Z</time></trkpt><trkpt lat="46.0940792" lon="13.332707"><ele>109.6</ele><time>2026-04-24T14:22:53.22Z</time></trkpt><trkpt lat="46.0939878" lon="13.3326919"><ele>109.2</ele><time>2026-04-24T14:22:54.22Z</time></trkpt><trkpt lat="46.0938962" lon="13.3326815"><ele>108.80000000000001</ele><time>2026-04-24T14:22:55.22Z</time></trkpt><trkpt lat="46.0938059" lon="13.3326715"><ele>108.4</ele><time>2026-04-24T14:22:56.22Z</time></trkpt><trkpt lat="46.0937171" lon="13.3326605"><ele>108.0</ele><time>2026-04-24T14:22:57.219Z</time></trkpt><trkpt lat="46.0936303" lon="13.3326466"><ele>108.0</ele><time>2026-04-24T14:22:58.22Z</time></trkpt><trkpt lat="46.0935402" lon="13.3326309"><ele>108.00000000000001</ele><time>2026-04-24T14:22:59.221Z</time></trkpt><trkpt lat="46.0934473" lon="13.33263"><ele>108.00000000000001</ele><time>2026-04-24T14:23:00.219Z</time></trkpt><trkpt lat="46.0933597" lon="13.3326384"><ele>108.0</ele><time>2026-04-24T14:23:01.219Z</time></trkpt><trkpt lat="46.09327" lon="13.3326546"><ele>108.0</ele><time>2026-04-24T14:23:02.22Z</time></trkpt><trkpt lat="46.093177" lon="13.3326771"><ele>108.0</ele><time>2026-04-24T14:23:03.22Z</time></trkpt><trkpt lat="46.0930827" lon="13.3327025"><ele>108.00000000000001</ele><time>2026-04-24T14:23:04.22Z</time></trkpt><trkpt lat="46.0929861" lon="13.3327256"><ele>108.00000000000001</ele><time>2026-04-24T14:23:05.219Z</time></trkpt><trkpt lat="46.0928894" lon="13.3327515"><ele>108.0</ele><time>2026-04-24T14:23:06.22Z</time></trkpt><trkpt lat="46.0927902" lon="13.3327834"><ele>108.0</ele><time>2026-04-24T14:23:07.221Z</time></trkpt><trkpt lat="46.0926933" lon="13.3328004"><ele>108.0</ele><time>2026-04-24T14:23:08.221Z</time></trkpt><trkpt lat="46.0925961" lon="13.3328038"><ele>108.00000000000001</ele><time>2026-04-24T14:23:09.221Z</time></trkpt><trkpt lat="46.092498" lon="13.3327881"><ele>108.00000000000001</ele><time>2026-04-24T14:23:10.22Z</time></trkpt><trkpt lat="46.0924075" lon="13.3327471"><ele>108.0</ele><time>2026-04-24T14:23:11.22Z</time></trkpt><trkpt lat="46.0923259" lon="13.3326737"><ele>108.0</ele><time>2026-04-24T14:23:12.219Z</time></trkpt><trkpt lat="46.0922527" lon="13.3325793"><ele>108.0</ele><time>2026-04-24T14:23:13.219Z</time></trkpt><trkpt lat="46.0921854" lon="13.332471"><ele>108.00000000000001</ele><time>2026-04-24T14:23:14.221Z</time></trkpt><trkpt lat="46.0921224" lon="13.3323569"><ele>108.00000000000001</ele><time>2026-04-24T14:23:15.22Z</time></trkpt><trkpt lat="46.0920614" lon="13.3322344"><ele>108.0</ele><time>2026-04-24T14:23:16.219Z</time></trkpt><trkpt lat="46.0920019" lon="13.3321045"><ele>108.0</ele><time>2026-04-24T14:23:17.22Z</time></trkpt><trkpt lat="46.0919409" lon="13.3319739"><ele>108.0</ele><time>2026-04-24T14:23:18.22Z</time></trkpt><trkpt lat="46.0918802" lon="13.3318396"><ele>108.00000000000001</ele><time>2026-04-24T14:23:19.219Z</time></trkpt><trkpt lat="46.091819" lon="13.3317037"><ele>108.00000000000001</ele><time>2026-04-24T14:23:20.221Z</time></trkpt><trkpt lat="46.0917586" lon="13.3315668"><ele>108.0</ele><time>2026-04-24T14:23:21.221Z</time></trkpt><trkpt lat="46.0917013" lon="13.3314397"><ele>108.0</ele><time>2026-04-24T14:23:22.22Z</time></trkpt><trkpt lat="46.0916457" lon="13.3313304"><ele>108.0</ele><time>2026-04-24T14:23:23.22Z</time></trkpt><trkpt lat="46.0915909" lon="13.3312324"><ele>108.00000000000001</ele><time>2026-04-24T14:23:24.221Z</time></trkpt><trkpt lat="46.0915428" lon="13.3311221"><ele>108.00000000000001</ele><time>2026-04-24T14:23:25.22Z</time></trkpt><trkpt lat="46.0915054" lon="13.330983"><ele>108.0</ele><time>2026-04-24T14:23:26.22Z</time></trkpt><trkpt lat="46.0914771" lon="13.3308283"><ele>108.0</ele><time>2026-04-24T14:23:27.221Z</time></trkpt><trkpt lat="46.091447" lon="13.330661"><ele>107.5</ele><time>2026-04-24T14:23:28.221Z</time></trkpt><trkpt lat="46.0914099" lon="13.3304966"><ele>107.0</ele><time>2026-04-24T14:23:29.219Z</time></trkpt><trkpt lat="46.0913717" lon="13.3303353"><ele>106.5</ele><time>2026-04-24T14:23:30.22Z</time></trkpt><trkpt lat="46.0913309" lon="13.3301753"><ele>106.0</ele><time>2026-04-24T14:23:31.22Z</time></trkpt><trkpt lat="46.0912877" lon="13.3300164"><ele>106.0</ele><time>2026-04-24T14:23:32.22Z</time></trkpt><trkpt lat="46.0912422" lon="13.3298606"><ele>106.0</ele><time>2026-04-24T14:23:33.219Z</time></trkpt><trkpt lat="46.0912016" lon="13.3297089"><ele>106.0</ele><time>2026-04-24T14:23:34.22Z</time></trkpt><trkpt lat="46.091163" lon="13.3295707"><ele>106.0</ele><time>2026-04-24T14:23:35.22Z</time></trkpt><trkpt lat="46.0911248" lon="13.3294413"><ele>106.0</ele><time>2026-04-24T14:23:36.219Z</time></trkpt><trkpt lat="46.0910837" lon="13.3293182"><ele>106.19999999999999</ele><time>2026-04-24T14:23:37.219Z</time></trkpt><trkpt lat="46.0910384" lon="13.3291922"><ele>106.39999999999999</ele><time>2026-04-24T14:23:38.22Z</time></trkpt><trkpt lat="46.0909827" lon="13.3290663"><ele>106.6</ele><time>2026-04-24T14:23:39.22Z</time></trkpt><trkpt lat="46.0909146" lon="13.3289475"><ele>106.8</ele><time>2026-04-24T14:23:40.22Z</time></trkpt><trkpt lat="46.090831" lon="13.3288436"><ele>107.0</ele><time>2026-04-24T14:23:41.22Z</time></trkpt><trkpt lat="46.0907397" lon="13.3287439"><ele>107.5</ele><time>2026-04-24T14:23:42.221Z</time></trkpt><trkpt lat="46.0906453" lon="13.3286384"><ele>108.0</ele><time>2026-04-24T14:23:43.22Z</time></trkpt><trkpt lat="46.0905502" lon="13.3285256"><ele>108.5</ele><time>2026-04-24T14:23:44.22Z</time></trkpt><trkpt lat="46.0904501" lon="13.3284138"><ele>109.0</ele><time>2026-04-24T14:23:45.221Z</time></trkpt><trkpt lat="46.0903463" lon="13.3283035"><ele>109.0</ele><time>2026-04-24T14:23:46.22Z</time></trkpt><trkpt lat="46.0902402" lon="13.3281972"><ele>109.0</ele><time>2026-04-24T14:23:47.22Z</time></trkpt><trkpt lat="46.0901278" lon="13.3280962"><ele>109.0</ele><time>2026-04-24T14:23:48.221Z</time></trkpt><trkpt lat="46.0900097" lon="13.3279988"><ele>109.0</ele><time>2026-04-24T14:23:49.219Z</time></trkpt><trkpt lat="46.0898919" lon="13.327907"><ele>109.25</ele><time>2026-04-24T14:23:50.22Z</time></trkpt><trkpt lat="46.0897693" lon="13.3278152"><ele>109.5</ele><time>2026-04-24T14:23:51.22Z</time></trkpt><trkpt lat="46.089655" lon="13.3277366"><ele>109.75</ele><time>2026-04-24T14:23:52.219Z</time></trkpt><trkpt lat="46.0895469" lon="13.3276671"><ele>110.0</ele><time>2026-04-24T14:23:53.22Z</time></trkpt><trkpt lat="46.0894478" lon="13.3276052"><ele>109.99999999999999</ele><time>2026-04-24T14:23:54.22Z</time></trkpt><trkpt lat="46.0893523" lon="13.3275571"><ele>110.0</ele><time>2026-04-24T14:23:55.221Z</time></trkpt><trkpt lat="46.0892646" lon="13.3275178"><ele>110.0</ele><time>2026-04-24T14:23:56.22Z</time></trkpt><trkpt lat="46.0891757" lon="13.3274888"><ele>110.0</ele><time>2026-04-24T14:23:57.22Z</time></trkpt><trkpt lat="46.0890942" lon="13.3274619"><ele>109.99999999999999</ele><time>2026-04-24T14:23:58.219Z</time></trkpt><trkpt lat="46.0890134" lon="13.3274457"><ele>110.0</ele><time>2026-04-24T14:23:59.22Z</time></trkpt><trkpt lat="46.0889376" lon="13.3274379"><ele>109.8</ele><time>2026-04-24T14:24:00.22Z</time></trkpt><trkpt lat="46.0888752" lon="13.327412"><ele>109.6</ele><time>2026-04-24T14:24:01.221Z</time></trkpt><trkpt lat="46.0887881" lon="13.3272958"><ele>109.4</ele><time>2026-04-24T14:24:03.22Z</time></trkpt><trkpt lat="46.0887739" lon="13.3271188"><ele>109.2</ele><time>2026-04-24T14:24:05.22Z</time></trkpt><trkpt lat="46.0888021" lon="13.3270184"><ele>109.0</ele><time>2026-04-24T14:24:06.22Z</time></trkpt><trkpt lat="46.0888393" lon="13.3269341"><ele>109.00000000000001</ele><time>2026-04-24T14:24:07.22Z</time></trkpt><trkpt lat="46.0888653" lon="13.3268512"><ele>109.0</ele><time>2026-04-24T14:24:08.221Z</time></trkpt><trkpt lat="46.0888887" lon="13.3267621"><ele>109.0</ele><time>2026-04-24T14:24:09.22Z</time></trkpt><trkpt lat="46.0888995" lon="13.3266557"><ele>109.0</ele><time>2026-04-24T14:24:10.221Z</time></trkpt><trkpt lat="46.0889082" lon="13.3265489"><ele>109.00000000000001</ele><time>2026-04-24T14:24:11.22Z</time></trkpt><trkpt lat="46.0889078" lon="13.3264526"><ele>109.0</ele><time>2026-04-24T14:24:12.22Z</time></trkpt><trkpt lat="46.0888614" lon="13.3262856"><ele>108.83333333333334</ele><time>2026-04-24T14:24:14.219Z</time></trkpt><trkpt lat="46.0888174" lon="13.3262088"><ele>108.66666666666667</ele><time>2026-04-24T14:24:15.22Z</time></trkpt><trkpt lat="46.088773" lon="13.3261315"><ele>108.5</ele><time>2026-04-24T14:24:16.219Z</time></trkpt><trkpt lat="46.0887442" lon="13.3259959"><ele>108.33333333333334</ele><time>2026-04-24T14:24:18.219Z</time></trkpt><trkpt lat="46.0887954" lon="13.325896"><ele>108.16666666666667</ele><time>2026-04-24T14:24:20.219Z</time></trkpt><trkpt lat="46.0888636" lon="13.3258472"><ele>108.0</ele><time>2026-04-24T14:24:21.218Z</time></trkpt><trkpt lat="46.0889422" lon="13.3258035"><ele>108.0</ele><time>2026-04-24T14:24:22.219Z</time></trkpt><trkpt lat="46.0890287" lon="13.3257685"><ele>108.00000000000001</ele><time>2026-04-24T14:24:23.219Z</time></trkpt><trkpt lat="46.0891238" lon="13.3257325"><ele>108.00000000000001</ele><time>2026-04-24T14:24:24.219Z</time></trkpt><trkpt lat="46.0892183" lon="13.32569"><ele>108.0</ele><time>2026-04-24T14:24:25.22Z</time></trkpt><trkpt lat="46.0893181" lon="13.3256455"><ele>108.0</ele><time>2026-04-24T14:24:26.22Z</time></trkpt><trkpt lat="46.0894132" lon="13.3255999"><ele>108.4</ele><time>2026-04-24T14:24:27.219Z</time></trkpt><trkpt lat="46.0895025" lon="13.3255607"><ele>108.80000000000001</ele><time>2026-04-24T14:24:28.219Z</time></trkpt><trkpt lat="46.0895934" lon="13.3255256"><ele>109.2</ele><time>2026-04-24T14:24:29.219Z</time></trkpt><trkpt lat="46.0896821" lon="13.3254838"><ele>109.6</ele><time>2026-04-24T14:24:30.22Z</time></trkpt><trkpt lat="46.089777" lon="13.3254418"><ele>110.0</ele><time>2026-04-24T14:24:31.219Z</time></trkpt><trkpt lat="46.0898765" lon="13.3253949"><ele>110.0</ele><time>2026-04-24T14:24:32.218Z</time></trkpt><trkpt lat="46.0899804" lon="13.325349"><ele>110.0</ele><time>2026-04-24T14:24:33.219Z</time></trkpt><trkpt lat="46.0900734" lon="13.3252983"><ele>110.0</ele><time>2026-04-24T14:24:34.219Z</time></trkpt><trkpt lat="46.090162" lon="13.3252438"><ele>110.0</ele><time>2026-04-24T14:24:35.218Z</time></trkpt><trkpt lat="46.090236" lon="13.3251999"><ele>110.0</ele><time>2026-04-24T14:24:36.219Z</time></trkpt><trkpt lat="46.0903069" lon="13.3250982"><ele>110.0</ele><time>2026-04-24T14:24:38.219Z</time></trkpt><trkpt lat="46.0902741" lon="13.3249185"><ele>110.0</ele><time>2026-04-24T14:24:40.22Z</time></trkpt><trkpt lat="46.0902448" lon="13.3247925"><ele>110.0</ele><time>2026-04-24T14:24:41.219Z</time></trkpt><trkpt lat="46.0902153" lon="13.3246737"><ele>110.0</ele><time>2026-04-24T14:24:42.218Z</time></trkpt><trkpt lat="46.0901806" lon="13.3245467"><ele>110.0</ele><time>2026-04-24T14:24:43.219Z</time></trkpt><trkpt lat="46.0901446" lon="13.3244196"><ele>110.0</ele><time>2026-04-24T14:24:44.219Z</time></trkpt><trkpt lat="46.0901099" lon="13.3242883"><ele>110.0</ele><time>2026-04-24T14:24:45.218Z</time></trkpt><trkpt lat="46.0900721" lon="13.3241557"><ele>110.0</ele><time>2026-04-24T14:24:46.218Z</time></trkpt><trkpt lat="46.0900348" lon="13.3240185"><ele>110.0</ele><time>2026-04-24T14:24:47.218Z</time></trkpt><trkpt lat="46.0899957" lon="13.3238798"><ele>110.0</ele><time>2026-04-24T14:24:48.219Z</time></trkpt><trkpt lat="46.0899559" lon="13.3237394"><ele>110.2</ele><time>2026-04-24T14:24:49.219Z</time></trkpt><trkpt lat="46.089916" lon="13.3235924"><ele>110.4</ele><time>2026-04-24T14:24:50.219Z</time></trkpt><trkpt lat="46.0898788" lon="13.3234427"><ele>110.6</ele><time>2026-04-24T14:24:51.218Z</time></trkpt><trkpt lat="46.0898429" lon="13.3233013"><ele>110.8</ele><time>2026-04-24T14:24:52.219Z</time></trkpt><trkpt lat="46.0898101" lon="13.3231631"><ele>111.0</ele><time>2026-04-24T14:24:53.22Z</time></trkpt><trkpt lat="46.0897873" lon="13.3230528"><ele>111.0</ele><time>2026-04-24T14:24:54.22Z</time></trkpt><trkpt lat="46.0897661" lon="13.3229127"><ele>111.0</ele><time>2026-04-24T14:24:56.218Z</time></trkpt><trkpt lat="46.0898201" lon="13.3228077"><ele>111.0</ele><time>2026-04-24T14:25:06.218Z</time></trkpt><trkpt lat="46.0898977" lon="13.3227816"><ele>111.0</ele><time>2026-04-24T14:25:07.22Z</time></trkpt><trkpt lat="46.0899856" lon="13.3227616"><ele>111.0</ele><time>2026-04-24T14:25:08.218Z</time></trkpt><trkpt lat="46.0900841" lon="13.322733"><ele>110.75</ele><time>2026-04-24T14:25:09.218Z</time></trkpt><trkpt lat="46.0902064" lon="13.3226996"><ele>110.5</ele><time>2026-04-24T14:25:10.218Z</time></trkpt><trkpt lat="46.0903198" lon="13.3226618"><ele>110.25</ele><time>2026-04-24T14:25:11.22Z</time></trkpt><trkpt lat="46.0904467" lon="13.3226155"><ele>110.0</ele><time>2026-04-24T14:25:12.219Z</time></trkpt><trkpt lat="46.0905737" lon="13.3225704"><ele>110.0</ele><time>2026-04-24T14:25:13.219Z</time></trkpt><trkpt lat="46.0907025" lon="13.3225333"><ele>110.0</ele><time>2026-04-24T14:25:14.219Z</time></trkpt><trkpt lat="46.0908363" lon="13.3224942"><ele>110.0</ele><time>2026-04-24T14:25:15.219Z</time></trkpt><trkpt lat="46.0909736" lon="13.3224517"><ele>110.0</ele><time>2026-04-24T14:25:16.219Z</time></trkpt><trkpt lat="46.0911099" lon="13.3224077"><ele>110.5</ele><time>2026-04-24T14:25:17.218Z</time></trkpt><trkpt lat="46.0912373" lon="13.3223693"><ele>111.0</ele><time>2026-04-24T14:25:18.219Z</time></trkpt><trkpt lat="46.091358" lon="13.3223362"><ele>111.5</ele><time>2026-04-24T14:25:19.22Z</time></trkpt><trkpt lat="46.0914686" lon="13.3223042"><ele>112.0</ele><time>2026-04-24T14:25:20.219Z</time></trkpt><trkpt lat="46.0915712" lon="13.322275"><ele>112.0</ele><time>2026-04-24T14:25:21.22Z</time></trkpt><trkpt lat="46.0916667" lon="13.3222447"><ele>111.99999999999999</ele><time>2026-04-24T14:25:22.218Z</time></trkpt><trkpt lat="46.0917583" lon="13.3222239"><ele>111.99999999999999</ele><time>2026-04-24T14:25:23.218Z</time></trkpt><trkpt lat="46.0918475" lon="13.3222137"><ele>112.0</ele><time>2026-04-24T14:25:24.218Z</time></trkpt><trkpt lat="46.091928" lon="13.32222"><ele>112.0</ele><time>2026-04-24T14:25:25.219Z</time></trkpt><trkpt lat="46.0920222" lon="13.3222133"><ele>112.19999999999999</ele><time>2026-04-24T14:25:27.22Z</time></trkpt><trkpt lat="46.0920448" lon="13.3221218"><ele>112.39999999999999</ele><time>2026-04-24T14:25:29.22Z</time></trkpt><trkpt lat="46.0920052" lon="13.3219472"><ele>112.60000000000001</ele><time>2026-04-24T14:25:31.219Z</time></trkpt><trkpt lat="46.0919939" lon="13.3218349"><ele>112.80000000000001</ele><time>2026-04-24T14:25:32.22Z</time></trkpt><trkpt lat="46.0919827" lon="13.3217041"><ele>113.0</ele><time>2026-04-24T14:25:33.218Z</time></trkpt><trkpt lat="46.091969" lon="13.3215724"><ele>113.0</ele><time>2026-04-24T14:25:34.219Z</time></trkpt><trkpt lat="46.091962" lon="13.3214415"><ele>113.00000000000001</ele><time>2026-04-24T14:25:35.219Z</time></trkpt><trkpt lat="46.0919533" lon="13.3213047"><ele>113.00000000000001</ele><time>2026-04-24T14:25:36.219Z</time></trkpt><trkpt lat="46.0919382" lon="13.3211661"><ele>113.0</ele><time>2026-04-24T14:25:37.219Z</time></trkpt><trkpt lat="46.0919137" lon="13.3210328"><ele>113.0</ele><time>2026-04-24T14:25:38.218Z</time></trkpt><trkpt lat="46.091882" lon="13.3208966"><ele>113.0</ele><time>2026-04-24T14:25:39.218Z</time></trkpt><trkpt lat="46.0918465" lon="13.3207616"><ele>113.00000000000001</ele><time>2026-04-24T14:25:40.22Z</time></trkpt><trkpt lat="46.0918014" lon="13.3206312"><ele>113.00000000000001</ele><time>2026-04-24T14:25:41.22Z</time></trkpt><trkpt lat="46.0917477" lon="13.3205038"><ele>113.0</ele><time>2026-04-24T14:25:42.218Z</time></trkpt><trkpt lat="46.0916898" lon="13.3203778"><ele>113.0</ele><time>2026-04-24T14:25:43.219Z</time></trkpt><trkpt lat="46.0916249" lon="13.320249"><ele>113.0</ele><time>2026-04-24T14:25:44.219Z</time></trkpt><trkpt lat="46.0915494" lon="13.3201157"><ele>113.0</ele><time>2026-04-24T14:25:45.218Z</time></trkpt><trkpt lat="46.0914668" lon="13.3199778"><ele>113.0</ele><time>2026-04-24T14:25:46.219Z</time></trkpt><trkpt lat="46.091378" lon="13.3198373"><ele>113.0</ele><time>2026-04-24T14:25:47.22Z</time></trkpt><trkpt lat="46.0912831" lon="13.3196908"><ele>113.0</ele><time>2026-04-24T14:25:48.219Z</time></trkpt><trkpt lat="46.0911802" lon="13.3195407"><ele>113.0</ele><time>2026-04-24T14:25:49.218Z</time></trkpt><trkpt lat="46.0910774" lon="13.3193878"><ele>113.0</ele><time>2026-04-24T14:25:50.219Z</time></trkpt><trkpt lat="46.0909757" lon="13.3192309"><ele>113.0</ele><time>2026-04-24T14:25:51.22Z</time></trkpt><trkpt lat="46.0908697" lon="13.3190724"><ele>113.0</ele><time>2026-04-24T14:25:52.219Z</time></trkpt><trkpt lat="46.0907603" lon="13.3189089"><ele>113.0</ele><time>2026-04-24T14:25:53.219Z</time></trkpt><trkpt lat="46.0906464" lon="13.3187444"><ele>113.0</ele><time>2026-04-24T14:25:54.219Z</time></trkpt><trkpt lat="46.0905343" lon="13.3185813"><ele>113.0</ele><time>2026-04-24T14:25:55.219Z</time></trkpt><trkpt lat="46.0904239" lon="13.3184168"><ele>113.0</ele><time>2026-04-24T14:25:56.219Z</time></trkpt><trkpt lat="46.0903125" lon="13.3182492"><ele>113.0</ele><time>2026-04-24T14:25:57.219Z</time></trkpt><trkpt lat="46.0901975" lon="13.318085"><ele>113.0</ele><time>2026-04-24T14:25:58.219Z</time></trkpt><trkpt lat="46.0900863" lon="13.3179244"><ele>113.0</ele><time>2026-04-24T14:25:59.22Z</time></trkpt><trkpt lat="46.0899839" lon="13.3177769"><ele>113.0</ele><time>2026-04-24T14:26:00.218Z</time></trkpt><trkpt lat="46.089892" lon="13.3176422"><ele>113.0</ele><time>2026-04-24T14:26:01.219Z</time></trkpt><trkpt lat="46.0898102" lon="13.3175247"><ele>113.0</ele><time>2026-04-24T14:26:02.219Z</time></trkpt><trkpt lat="46.0897365" lon="13.317415"><ele>113.00000000000001</ele><time>2026-04-24T14:26:03.218Z</time></trkpt><trkpt lat="46.089669" lon="13.3173136"><ele>113.00000000000001</ele><time>2026-04-24T14:26:04.218Z</time></trkpt><trkpt lat="46.0896048" lon="13.3172208"><ele>113.0</ele><time>2026-04-24T14:26:05.219Z</time></trkpt><trkpt lat="46.0895397" lon="13.3171214"><ele>113.0</ele><time>2026-04-24T14:26:06.218Z</time></trkpt><trkpt lat="46.0894628" lon="13.3170107"><ele>113.0</ele><time>2026-04-24T14:26:07.219Z</time></trkpt><trkpt lat="46.0893625" lon="13.3168665"><ele>113.0</ele><time>2026-04-24T14:26:08.22Z</time></trkpt><trkpt lat="46.0892505" lon="13.3167031"><ele>113.0</ele><time>2026-04-24T14:26:09.219Z</time></trkpt><trkpt lat="46.0891402" lon="13.3165406"><ele>112.25</ele><time>2026-04-24T14:26:10.218Z</time></trkpt><trkpt lat="46.089042" lon="13.3163844"><ele>111.5</ele><time>2026-04-24T14:26:11.218Z</time></trkpt><trkpt lat="46.0889433" lon="13.3162266"><ele>110.75</ele><time>2026-04-24T14:26:12.219Z</time></trkpt><trkpt lat="46.088846" lon="13.3160667"><ele>110.0</ele><time>2026-04-24T14:26:13.219Z</time></trkpt><trkpt lat="46.0887513" lon="13.3159051"><ele>110.0</ele><time>2026-04-24T14:26:14.22Z</time></trkpt><trkpt lat="46.0886593" lon="13.3157406"><ele>110.0</ele><time>2026-04-24T14:26:15.22Z</time></trkpt><trkpt lat="46.0885728" lon="13.3155744"><ele>110.0</ele><time>2026-04-24T14:26:16.219Z</time></trkpt><trkpt lat="46.0884886" lon="13.3154011"><ele>110.0</ele><time>2026-04-24T14:26:17.218Z</time></trkpt><trkpt lat="46.0884047" lon="13.3152273"><ele>110.25</ele><time>2026-04-24T14:26:18.218Z</time></trkpt><trkpt lat="46.0883286" lon="13.31505"><ele>110.5</ele><time>2026-04-24T14:26:19.218Z</time></trkpt><trkpt lat="46.0882542" lon="13.3148769"><ele>110.75</ele><time>2026-04-24T14:26:20.219Z</time></trkpt><trkpt lat="46.0881759" lon="13.3146866"><ele>111.0</ele><time>2026-04-24T14:26:21.219Z</time></trkpt><trkpt lat="46.0880937" lon="13.3144859"><ele>111.0</ele><time>2026-04-24T14:26:22.218Z</time></trkpt><trkpt lat="46.0880163" lon="13.3142863"><ele>111.0</ele><time>2026-04-24T14:26:23.218Z</time></trkpt><trkpt lat="46.0879396" lon="13.314089"><ele>111.0</ele><time>2026-04-24T14:26:24.219Z</time></trkpt><trkpt lat="46.0878593" lon="13.3138935"><ele>110.33333333333334</ele><time>2026-04-24T14:26:25.218Z</time></trkpt><trkpt lat="46.087781" lon="13.3136994"><ele>109.66666666666667</ele><time>2026-04-24T14:26:26.218Z</time></trkpt><trkpt lat="46.0876996" lon="13.3134989"><ele>109.0</ele><time>2026-04-24T14:26:27.218Z</time></trkpt><trkpt lat="46.0876125" lon="13.3132999"><ele>109.0</ele><time>2026-04-24T14:26:28.219Z</time></trkpt><trkpt lat="46.0875281" lon="13.3130962"><ele>109.0</ele><time>2026-04-24T14:26:29.219Z</time></trkpt><trkpt lat="46.0874432" lon="13.3128854"><ele>109.0</ele><time>2026-04-24T14:26:30.22Z</time></trkpt><trkpt lat="46.0873608" lon="13.312673"><ele>108.66666666666667</ele><time>2026-04-24T14:26:31.219Z</time></trkpt><trkpt lat="46.087277" lon="13.3124642"><ele>108.33333333333334</ele><time>2026-04-24T14:26:32.218Z</time></trkpt><trkpt lat="46.0871929" lon="13.3122574"><ele>108.0</ele><time>2026-04-24T14:26:33.219Z</time></trkpt><trkpt lat="46.08711" lon="13.3120535"><ele>108.66666666666666</ele><time>2026-04-24T14:26:34.218Z</time></trkpt><trkpt lat="46.0870263" lon="13.3118537"><ele>109.33333333333333</ele><time>2026-04-24T14:26:35.218Z</time></trkpt><trkpt lat="46.0869443" lon="13.3116566"><ele>110.0</ele><time>2026-04-24T14:26:36.219Z</time></trkpt><trkpt lat="46.0868635" lon="13.3114536"><ele>110.33333333333333</ele><time>2026-04-24T14:26:37.22Z</time></trkpt><trkpt lat="46.0867808" lon="13.3112504"><ele>110.66666666666666</ele><time>2026-04-24T14:26:38.22Z</time></trkpt><trkpt lat="46.0866969" lon="13.3110454"><ele>111.0</ele><time>2026-04-24T14:26:39.219Z</time></trkpt><trkpt lat="46.0866057" lon="13.3108385"><ele>111.0</ele><time>2026-04-24T14:26:40.22Z</time></trkpt><trkpt lat="46.0865164" lon="13.3106264"><ele>111.0</ele><time>2026-04-24T14:26:41.22Z</time></trkpt><trkpt lat="46.086428" lon="13.3104055"><ele>111.0</ele><time>2026-04-24T14:26:42.219Z</time></trkpt><trkpt lat="46.0863407" lon="13.310188"><ele>111.0</ele><time>2026-04-24T14:26:43.219Z</time></trkpt><trkpt lat="46.0862522" lon="13.3099662"><ele>111.0</ele><time>2026-04-24T14:26:44.219Z</time></trkpt><trkpt lat="46.0861633" lon="13.3097419"><ele>111.0</ele><time>2026-04-24T14:26:45.219Z</time></trkpt><trkpt lat="46.0860756" lon="13.3095284"><ele>111.0</ele><time>2026-04-24T14:26:46.22Z</time></trkpt><trkpt lat="46.0859872" lon="13.3093152"><ele>111.0</ele><time>2026-04-24T14:26:47.22Z</time></trkpt><trkpt lat="46.0858994" lon="13.3091023"><ele>111.0</ele><time>2026-04-24T14:26:48.219Z</time></trkpt><trkpt lat="46.0858117" lon="13.3088895"><ele>110.33333333333334</ele><time>2026-04-24T14:26:49.219Z</time></trkpt><trkpt lat="46.0857229" lon="13.308679"><ele>109.66666666666667</ele><time>2026-04-24T14:26:50.219Z</time></trkpt><trkpt lat="46.0856363" lon="13.3084701"><ele>109.0</ele><time>2026-04-24T14:26:51.219Z</time></trkpt><trkpt lat="46.0855484" lon="13.3082594"><ele>109.0</ele><time>2026-04-24T14:26:52.219Z</time></trkpt><trkpt lat="46.0854632" lon="13.3080474"><ele>109.0</ele><time>2026-04-24T14:26:53.219Z</time></trkpt><trkpt lat="46.0853771" lon="13.3078366"><ele>109.0</ele><time>2026-04-24T14:26:54.219Z</time></trkpt><trkpt lat="46.0852898" lon="13.3076251"><ele>109.0</ele><time>2026-04-24T14:26:55.219Z</time></trkpt><trkpt lat="46.0852028" lon="13.3074135"><ele>109.0</ele><time>2026-04-24T14:26:56.219Z</time></trkpt><trkpt lat="46.085116" lon="13.3072027"><ele>109.0</ele><time>2026-04-24T14:26:57.218Z</time></trkpt><trkpt lat="46.0850283" lon="13.306991"><ele>109.0</ele><time>2026-04-24T14:26:58.219Z</time></trkpt><trkpt lat="46.0849411" lon="13.3067823"><ele>109.0</ele><time>2026-04-24T14:26:59.218Z</time></trkpt><trkpt lat="46.0848597" lon="13.3065802"><ele>109.0</ele><time>2026-04-24T14:27:00.219Z</time></trkpt><trkpt lat="46.0847813" lon="13.3063932"><ele>109.25</ele><time>2026-04-24T14:27:01.218Z</time></trkpt><trkpt lat="46.0847026" lon="13.3062086"><ele>109.5</ele><time>2026-04-24T14:27:02.219Z</time></trkpt><trkpt lat="46.0846273" lon="13.3060234"><ele>109.75</ele><time>2026-04-24T14:27:03.218Z</time></trkpt><trkpt lat="46.0845537" lon="13.3058379"><ele>110.0</ele><time>2026-04-24T14:27:04.218Z</time></trkpt><trkpt lat="46.0844804" lon="13.3056476"><ele>110.0</ele><time>2026-04-24T14:27:05.219Z</time></trkpt><trkpt lat="46.0844093" lon="13.3054576"><ele>110.0</ele><time>2026-04-24T14:27:06.219Z</time></trkpt><trkpt lat="46.0843387" lon="13.3052672"><ele>110.0</ele><time>2026-04-24T14:27:07.219Z</time></trkpt><trkpt lat="46.0842628" lon="13.3050621"><ele>110.0</ele><time>2026-04-24T14:27:08.218Z</time></trkpt><trkpt lat="46.0841856" lon="13.3048361"><ele>110.0</ele><time>2026-04-24T14:27:09.219Z</time></trkpt><trkpt lat="46.0841142" lon="13.3046066"><ele>110.0</ele><time>2026-04-24T14:27:10.22Z</time></trkpt><trkpt lat="46.0840507" lon="13.3043887"><ele>109.66666666666666</ele><time>2026-04-24T14:27:11.22Z</time></trkpt><trkpt lat="46.0839852" lon="13.3041695"><ele>109.33333333333334</ele><time>2026-04-24T14:27:12.22Z</time></trkpt><trkpt lat="46.0839176" lon="13.3039522"><ele>109.0</ele><time>2026-04-24T14:27:13.219Z</time></trkpt><trkpt lat="46.0838505" lon="13.3037418"><ele>109.66666666666667</ele><time>2026-04-24T14:27:14.218Z</time></trkpt><trkpt lat="46.0837851" lon="13.3035351"><ele>110.33333333333334</ele><time>2026-04-24T14:27:15.22Z</time></trkpt><trkpt lat="46.0837232" lon="13.3033322"><ele>111.0</ele><time>2026-04-24T14:27:16.218Z</time></trkpt><trkpt lat="46.0836632" lon="13.3031297"><ele>111.66666666666666</ele><time>2026-04-24T14:27:17.219Z</time></trkpt><trkpt lat="46.0835994" lon="13.3029294"><ele>112.33333333333333</ele><time>2026-04-24T14:27:18.219Z</time></trkpt><trkpt lat="46.0835341" lon="13.3027259"><ele>113.0</ele><time>2026-04-24T14:27:19.219Z</time></trkpt><trkpt lat="46.0834727" lon="13.3025242"><ele>113.0</ele><time>2026-04-24T14:27:20.219Z</time></trkpt><trkpt lat="46.0834052" lon="13.3023141"><ele>113.0</ele><time>2026-04-24T14:27:21.219Z</time></trkpt><trkpt lat="46.0833384" lon="13.3021025"><ele>113.0</ele><time>2026-04-24T14:27:22.22Z</time></trkpt><trkpt lat="46.0832752" lon="13.3018889"><ele>112.0</ele><time>2026-04-24T14:27:23.218Z</time></trkpt><trkpt lat="46.0832096" lon="13.3016767"><ele>111.0</ele><time>2026-04-24T14:27:24.218Z</time></trkpt><trkpt lat="46.0831414" lon="13.3014659"><ele>110.0</ele><time>2026-04-24T14:27:25.219Z</time></trkpt><trkpt lat="46.0830741" lon="13.3012545"><ele>110.0</ele><time>2026-04-24T14:27:26.219Z</time></trkpt><trkpt lat="46.0830073" lon="13.3010391"><ele>110.0</ele><time>2026-04-24T14:27:27.218Z</time></trkpt><trkpt lat="46.0829389" lon="13.300825"><ele>110.0</ele><time>2026-04-24T14:27:28.219Z</time></trkpt><trkpt lat="46.0828709" lon="13.3006093"><ele>110.66666666666666</ele><time>2026-04-24T14:27:29.22Z</time></trkpt><trkpt lat="46.0828045" lon="13.3003925"><ele>111.33333333333334</ele><time>2026-04-24T14:27:30.219Z</time></trkpt><trkpt lat="46.0827455" lon="13.3001981"><ele>112.0</ele><time>2026-04-24T14:27:31.219Z</time></trkpt><trkpt lat="46.0826914" lon="13.3000114"><ele>112.0</ele><time>2026-04-24T14:27:32.219Z</time></trkpt><trkpt lat="46.0826365" lon="13.2998298"><ele>112.0</ele><time>2026-04-24T14:27:33.218Z</time></trkpt><trkpt lat="46.0825819" lon="13.2996493"><ele>112.0</ele><time>2026-04-24T14:27:34.219Z</time></trkpt><trkpt lat="46.0825259" lon="13.2994667"><ele>112.0</ele><time>2026-04-24T14:27:35.219Z</time></trkpt><trkpt lat="46.0824684" lon="13.2992749"><ele>111.66666666666667</ele><time>2026-04-24T14:27:36.219Z</time></trkpt><trkpt lat="46.0824093" lon="13.2990797"><ele>111.33333333333334</ele><time>2026-04-24T14:27:37.218Z</time></trkpt><trkpt lat="46.0823498" lon="13.2988751"><ele>111.0</ele><time>2026-04-24T14:27:38.217Z</time></trkpt><trkpt lat="46.0822902" lon="13.2986698"><ele>111.0</ele><time>2026-04-24T14:27:39.217Z</time></trkpt><trkpt lat="46.0822296" lon="13.2984599"><ele>111.0</ele><time>2026-04-24T14:27:40.217Z</time></trkpt><trkpt lat="46.0821659" lon="13.298252"><ele>111.0</ele><time>2026-04-24T14:27:41.219Z</time></trkpt><trkpt lat="46.0821011" lon="13.2980406"><ele>111.25</ele><time>2026-04-24T14:27:42.217Z</time></trkpt><trkpt lat="46.0820437" lon="13.2978404"><ele>111.5</ele><time>2026-04-24T14:27:43.217Z</time></trkpt><trkpt lat="46.081989" lon="13.2976538"><ele>111.75</ele><time>2026-04-24T14:27:44.218Z</time></trkpt><trkpt lat="46.0819383" lon="13.2974758"><ele>112.0</ele><time>2026-04-24T14:27:45.217Z</time></trkpt><trkpt lat="46.0818906" lon="13.2973076"><ele>112.25</ele><time>2026-04-24T14:27:46.218Z</time></trkpt><trkpt lat="46.0818416" lon="13.2971385"><ele>112.5</ele><time>2026-04-24T14:27:47.219Z</time></trkpt><trkpt lat="46.0817929" lon="13.2969752"><ele>112.75</ele><time>2026-04-24T14:27:48.217Z</time></trkpt><trkpt lat="46.0817445" lon="13.2968113"><ele>113.0</ele><time>2026-04-24T14:27:49.218Z</time></trkpt><trkpt lat="46.0816979" lon="13.296644"><ele>113.0</ele><time>2026-04-24T14:27:50.218Z</time></trkpt><trkpt lat="46.0816538" lon="13.2964824"><ele>113.00000000000001</ele><time>2026-04-24T14:27:51.219Z</time></trkpt><trkpt lat="46.0816155" lon="13.2963402"><ele>113.00000000000001</ele><time>2026-04-24T14:27:52.218Z</time></trkpt><trkpt lat="46.0815856" lon="13.2962161"><ele>113.0</ele><time>2026-04-24T14:27:53.217Z</time></trkpt><trkpt lat="46.081563" lon="13.2961142"><ele>113.0</ele><time>2026-04-24T14:27:54.218Z</time></trkpt><trkpt lat="46.0815387" lon="13.295998"><ele>112.80000000000001</ele><time>2026-04-24T14:27:56.217Z</time></trkpt><trkpt lat="46.0814636" lon="13.2959019"><ele>112.60000000000001</ele><time>2026-04-24T14:28:23.218Z</time></trkpt><trkpt lat="46.0813736" lon="13.2957533"><ele>112.39999999999999</ele><time>2026-04-24T14:28:25.218Z</time></trkpt><trkpt lat="46.0813292" lon="13.2956333"><ele>112.19999999999999</ele><time>2026-04-24T14:28:26.217Z</time></trkpt><trkpt lat="46.0812839" lon="13.2955012"><ele>112.0</ele><time>2026-04-24T14:28:27.218Z</time></trkpt><trkpt lat="46.0812342" lon="13.2953619"><ele>112.0</ele><time>2026-04-24T14:28:28.217Z</time></trkpt><trkpt lat="46.081182" lon="13.2952174"><ele>112.0</ele><time>2026-04-24T14:28:29.217Z</time></trkpt><trkpt lat="46.0811302" lon="13.2950703"><ele>112.0</ele><time>2026-04-24T14:28:30.218Z</time></trkpt><trkpt lat="46.0810752" lon="13.2949145"><ele>112.0</ele><time>2026-04-24T14:28:31.219Z</time></trkpt><trkpt lat="46.0810216" lon="13.2947559"><ele>111.5</ele><time>2026-04-24T14:28:32.219Z</time></trkpt><trkpt lat="46.0809652" lon="13.294597"><ele>111.0</ele><time>2026-04-24T14:28:33.217Z</time></trkpt><trkpt lat="46.080909" lon="13.2944476"><ele>110.5</ele><time>2026-04-24T14:28:34.219Z</time></trkpt><trkpt lat="46.0808558" lon="13.2943047"><ele>110.0</ele><time>2026-04-24T14:28:35.218Z</time></trkpt><trkpt lat="46.0808101" lon="13.2941709"><ele>110.0</ele><time>2026-04-24T14:28:36.219Z</time></trkpt><trkpt lat="46.0807666" lon="13.2940389"><ele>110.0</ele><time>2026-04-24T14:28:37.217Z</time></trkpt><trkpt lat="46.0807228" lon="13.293915"><ele>110.0</ele><time>2026-04-24T14:28:38.218Z</time></trkpt><trkpt lat="46.0806793" lon="13.293805"><ele>110.0</ele><time>2026-04-24T14:28:39.218Z</time></trkpt><trkpt lat="46.0806406" lon="13.293698"><ele>110.0</ele><time>2026-04-24T14:28:40.218Z</time></trkpt><trkpt lat="46.0806069" lon="13.2935928"><ele>109.83333333333333</ele><time>2026-04-24T14:28:41.219Z</time></trkpt><trkpt lat="46.08058" lon="13.2934878"><ele>109.66666666666666</ele><time>2026-04-24T14:28:42.218Z</time></trkpt><trkpt lat="46.0805571" lon="13.2933851"><ele>109.5</ele><time>2026-04-24T14:28:43.217Z</time></trkpt><trkpt lat="46.0805435" lon="13.2932748"><ele>109.33333333333334</ele><time>2026-04-24T14:28:44.218Z</time></trkpt><trkpt lat="46.0805362" lon="13.2931645"><ele>109.16666666666667</ele><time>2026-04-24T14:28:45.219Z</time></trkpt><trkpt lat="46.0805412" lon="13.2930536"><ele>109.0</ele><time>2026-04-24T14:28:46.219Z</time></trkpt><trkpt lat="46.0805519" lon="13.2929393"><ele>109.00000000000001</ele><time>2026-04-24T14:28:47.218Z</time></trkpt><trkpt lat="46.0805585" lon="13.2928163"><ele>109.0</ele><time>2026-04-24T14:28:48.218Z</time></trkpt><trkpt lat="46.0805678" lon="13.2926977"><ele>109.0</ele><time>2026-04-24T14:28:49.217Z</time></trkpt><trkpt lat="46.0805784" lon="13.2925683"><ele>109.0</ele><time>2026-04-24T14:28:50.219Z</time></trkpt><trkpt lat="46.080584" lon="13.2924408"><ele>109.00000000000001</ele><time>2026-04-24T14:28:51.217Z</time></trkpt><trkpt lat="46.0805887" lon="13.2923146"><ele>109.0</ele><time>2026-04-24T14:28:52.217Z</time></trkpt><trkpt lat="46.0805996" lon="13.292196"><ele>109.16666666666667</ele><time>2026-04-24T14:28:53.218Z</time></trkpt><trkpt lat="46.0806173" lon="13.2920893"><ele>109.33333333333334</ele><time>2026-04-24T14:28:54.218Z</time></trkpt><trkpt lat="46.0806438" lon="13.2919948"><ele>109.5</ele><time>2026-04-24T14:28:55.219Z</time></trkpt><trkpt lat="46.0806754" lon="13.2919096"><ele>109.66666666666666</ele><time>2026-04-24T14:28:56.217Z</time></trkpt><trkpt lat="46.0807156" lon="13.2918332"><ele>109.83333333333333</ele><time>2026-04-24T14:28:57.217Z</time></trkpt><trkpt lat="46.0808122" lon="13.2917141"><ele>110.0</ele><time>2026-04-24T14:28:59.218Z</time></trkpt><trkpt lat="46.0808815" lon="13.2916656"><ele>110.4</ele><time>2026-04-24T14:29:00.218Z</time></trkpt><trkpt lat="46.0809572" lon="13.2916241"><ele>110.8</ele><time>2026-04-24T14:29:01.218Z</time></trkpt><trkpt lat="46.0810419" lon="13.291578"><ele>111.19999999999999</ele><time>2026-04-24T14:29:02.219Z</time></trkpt><trkpt lat="46.0811256" lon="13.2915327"><ele>111.6</ele><time>2026-04-24T14:29:03.218Z</time></trkpt><trkpt lat="46.0812159" lon="13.2914828"><ele>112.0</ele><time>2026-04-24T14:29:04.219Z</time></trkpt><trkpt lat="46.0813074" lon="13.2914262"><ele>111.6</ele><time>2026-04-24T14:29:05.219Z</time></trkpt><trkpt lat="46.081399" lon="13.2913672"><ele>111.19999999999999</ele><time>2026-04-24T14:29:06.219Z</time></trkpt><trkpt lat="46.0814937" lon="13.2913029"><ele>110.8</ele><time>2026-04-24T14:29:07.218Z</time></trkpt><trkpt lat="46.0815916" lon="13.2912349"><ele>110.4</ele><time>2026-04-24T14:29:08.218Z</time></trkpt><trkpt lat="46.0816897" lon="13.2911701"><ele>110.0</ele><time>2026-04-24T14:29:09.218Z</time></trkpt><trkpt lat="46.0817892" lon="13.291106"><ele>109.8</ele><time>2026-04-24T14:29:10.219Z</time></trkpt><trkpt lat="46.0818817" lon="13.2910462"><ele>109.6</ele><time>2026-04-24T14:29:11.218Z</time></trkpt><trkpt lat="46.0819728" lon="13.290991"><ele>109.4</ele><time>2026-04-24T14:29:12.219Z</time></trkpt><trkpt lat="46.0820574" lon="13.2909393"><ele>109.2</ele><time>2026-04-24T14:29:13.218Z</time></trkpt><trkpt lat="46.0821344" lon="13.2908795"><ele>109.0</ele><time>2026-04-24T14:29:14.219Z</time></trkpt><trkpt lat="46.0821969" lon="13.2908211"><ele>109.0</ele><time>2026-04-24T14:29:15.218Z</time></trkpt><trkpt lat="46.082247" lon="13.290761"><ele>109.0</ele><time>2026-04-24T14:29:16.218Z</time></trkpt><trkpt lat="46.0823263" lon="13.2906317"><ele>109.0</ele><time>2026-04-24T14:29:18.218Z</time></trkpt><trkpt lat="46.0823885" lon="13.2904989"><ele>109.0</ele><time>2026-04-24T14:29:20.218Z</time></trkpt><trkpt lat="46.0824437" lon="13.2903499"><ele>109.0</ele><time>2026-04-24T14:29:22.219Z</time></trkpt><trkpt lat="46.0824651" lon="13.2902052"><ele>109.4</ele><time>2026-04-24T14:29:24.218Z</time></trkpt><trkpt lat="46.0824668" lon="13.2900366"><ele>109.80000000000001</ele><time>2026-04-24T14:29:26.218Z</time></trkpt><trkpt lat="46.0824614" lon="13.2898767"><ele>110.19999999999999</ele><time>2026-04-24T14:29:28.218Z</time></trkpt><trkpt lat="46.0824604" lon="13.2897821"><ele>110.6</ele><time>2026-04-24T14:29:30.219Z</time></trkpt><trkpt lat="46.0824634" lon="13.2896658"><ele>111.0</ele><time>2026-04-24T14:29:33.217Z</time></trkpt><trkpt lat="46.0824753" lon="13.2895053"><ele>111.0</ele><time>2026-04-24T14:29:35.218Z</time></trkpt><trkpt lat="46.0824816" lon="13.289414"><ele>111.0</ele><time>2026-04-24T14:29:36.218Z</time></trkpt><trkpt lat="46.0824915" lon="13.2892451"><ele>111.0</ele><time>2026-04-24T14:29:38.217Z</time></trkpt><trkpt lat="46.0825107" lon="13.2890941"><ele>111.0</ele><time>2026-04-24T14:29:40.219Z</time></trkpt><trkpt lat="46.0825382" lon="13.2889511"><ele>111.0</ele><time>2026-04-24T14:29:42.218Z</time></trkpt><trkpt lat="46.0825699" lon="13.2888175"><ele>111.0</ele><time>2026-04-24T14:29:44.218Z</time></trkpt><trkpt lat="46.0826016" lon="13.2887204"><ele>111.0</ele><time>2026-04-24T14:29:46.218Z</time></trkpt><trkpt lat="46.0826142" lon="13.2886292"><ele>111.0</ele><time>2026-04-24T14:29:49.218Z</time></trkpt><trkpt lat="46.0825594" lon="13.2887865"><ele>111.0</ele><time>2026-04-24T14:30:33.218Z</time></trkpt><trkpt lat="46.0825436" lon="13.2889304"><ele>111.0</ele><time>2026-04-24T14:30:35.219Z</time></trkpt><trkpt lat="46.0825135" lon="13.2891021"><ele>111.0</ele><time>2026-04-24T14:30:37.218Z</time></trkpt><trkpt lat="46.0824983" lon="13.2891912"><ele>111.0</ele><time>2026-04-24T14:30:38.218Z</time></trkpt><trkpt lat="46.0824917" lon="13.2892947"><ele>111.0</ele><time>2026-04-24T14:30:39.218Z</time></trkpt><trkpt lat="46.0824798" lon="13.2894161"><ele>111.0</ele><time>2026-04-24T14:30:40.219Z</time></trkpt><trkpt lat="46.0824673" lon="13.2895196"><ele>111.0</ele><time>2026-04-24T14:30:41.217Z</time></trkpt><trkpt lat="46.0824558" lon="13.2896355"><ele>111.0</ele><time>2026-04-24T14:30:42.218Z</time></trkpt><trkpt lat="46.0824489" lon="13.2897686"><ele>111.33333333333333</ele><time>2026-04-24T14:30:43.218Z</time></trkpt><trkpt lat="46.0824494" lon="13.2898818"><ele>111.66666666666666</ele><time>2026-04-24T14:30:44.218Z</time></trkpt><trkpt lat="46.0824636" lon="13.2899768"><ele>112.0</ele><time>2026-04-24T14:30:45.219Z</time></trkpt><trkpt lat="46.082488" lon="13.290139"><ele>112.33333333333333</ele><time>2026-04-24T14:30:47.219Z</time></trkpt><trkpt lat="46.0824837" lon="13.2902481"><ele>112.66666666666666</ele><time>2026-04-24T14:30:49.217Z</time></trkpt><trkpt lat="46.0824821" lon="13.2901371"><ele>113.0</ele><time>2026-04-24T14:30:55.216Z</time></trkpt><trkpt lat="46.0825356" lon="13.2900706"><ele>112.99999999999999</ele><time>2026-04-24T14:30:57.217Z</time></trkpt><trkpt lat="46.0826255" lon="13.2900889"><ele>113.0</ele><time>2026-04-24T14:31:00.218Z</time></trkpt><trkpt lat="46.0827277" lon="13.2901318"><ele>113.0</ele><time>2026-04-24T14:31:02.217Z</time></trkpt><trkpt lat="46.0827939" lon="13.2901393"><ele>113.0</ele><time>2026-04-24T14:31:03.217Z</time></trkpt><trkpt lat="46.0828688" lon="13.2901343"><ele>112.99999999999999</ele><time>2026-04-24T14:31:04.216Z</time></trkpt><trkpt lat="46.082953" lon="13.2901251"><ele>113.0</ele><time>2026-04-24T14:31:05.217Z</time></trkpt><trkpt lat="46.0830446" lon="13.2901093"><ele>113.0</ele><time>2026-04-24T14:31:06.217Z</time></trkpt><trkpt lat="46.0831412" lon="13.2900792"><ele>113.00000000000001</ele><time>2026-04-24T14:31:07.216Z</time></trkpt><trkpt lat="46.0832461" lon="13.2900486"><ele>113.00000000000001</ele><time>2026-04-24T14:31:08.218Z</time></trkpt><trkpt lat="46.0833396" lon="13.2900121"><ele>113.0</ele><time>2026-04-24T14:31:09.218Z</time></trkpt><trkpt lat="46.0834294" lon="13.2899832"><ele>113.0</ele><time>2026-04-24T14:31:10.217Z</time></trkpt><trkpt lat="46.0835175" lon="13.2899514"><ele>113.0</ele><time>2026-04-24T14:31:11.217Z</time></trkpt><trkpt lat="46.0836095" lon="13.2899148"><ele>113.00000000000001</ele><time>2026-04-24T14:31:12.217Z</time></trkpt><trkpt lat="46.0837028" lon="13.2898699"><ele>113.00000000000001</ele><time>2026-04-24T14:31:13.216Z</time></trkpt><trkpt lat="46.0838007" lon="13.2898215"><ele>113.0</ele><time>2026-04-24T14:31:14.218Z</time></trkpt><trkpt lat="46.0839025" lon="13.2897819"><ele>113.0</ele><time>2026-04-24T14:31:15.218Z</time></trkpt><trkpt lat="46.0840077" lon="13.2897397"><ele>112.60000000000001</ele><time>2026-04-24T14:31:16.217Z</time></trkpt><trkpt lat="46.0841115" lon="13.2896955"><ele>112.20000000000002</ele><time>2026-04-24T14:31:17.217Z</time></trkpt><trkpt lat="46.0842087" lon="13.289651"><ele>111.8</ele><time>2026-04-24T14:31:18.218Z</time></trkpt><trkpt lat="46.0843053" lon="13.2895995"><ele>111.4</ele><time>2026-04-24T14:31:19.216Z</time></trkpt><trkpt lat="46.0844026" lon="13.2895476"><ele>111.0</ele><time>2026-04-24T14:31:20.216Z</time></trkpt><trkpt lat="46.0844999" lon="13.289483"><ele>111.0</ele><time>2026-04-24T14:31:21.218Z</time></trkpt><trkpt lat="46.0845965" lon="13.2894231"><ele>111.0</ele><time>2026-04-24T14:31:22.217Z</time></trkpt><trkpt lat="46.0846947" lon="13.289358"><ele>111.0</ele><time>2026-04-24T14:31:23.217Z</time></trkpt><trkpt lat="46.084792" lon="13.2892899"><ele>111.0</ele><time>2026-04-24T14:31:24.217Z</time></trkpt><trkpt lat="46.0848929" lon="13.2892301"><ele>111.0</ele><time>2026-04-24T14:31:25.216Z</time></trkpt><trkpt lat="46.0849914" lon="13.2891719"><ele>111.19999999999999</ele><time>2026-04-24T14:31:26.217Z</time></trkpt><trkpt lat="46.085086" lon="13.2891086"><ele>111.39999999999999</ele><time>2026-04-24T14:31:27.217Z</time></trkpt><trkpt lat="46.0851862" lon="13.2890521"><ele>111.6</ele><time>2026-04-24T14:31:28.217Z</time></trkpt><trkpt lat="46.085287" lon="13.2889991"><ele>111.8</ele><time>2026-04-24T14:31:29.217Z</time></trkpt><trkpt lat="46.0853883" lon="13.2889397"><ele>112.0</ele><time>2026-04-24T14:31:30.217Z</time></trkpt><trkpt lat="46.0854912" lon="13.288882"><ele>112.25</ele><time>2026-04-24T14:31:31.216Z</time></trkpt><trkpt lat="46.0855951" lon="13.2888295"><ele>112.5</ele><time>2026-04-24T14:31:32.218Z</time></trkpt><trkpt lat="46.0857002" lon="13.2887723"><ele>112.75</ele><time>2026-04-24T14:31:33.218Z</time></trkpt><trkpt lat="46.0858077" lon="13.2887178"><ele>113.0</ele><time>2026-04-24T14:31:34.217Z</time></trkpt><trkpt lat="46.0859194" lon="13.288673"><ele>112.5</ele><time>2026-04-24T14:31:35.216Z</time></trkpt><trkpt lat="46.0860328" lon="13.2886202"><ele>112.0</ele><time>2026-04-24T14:31:36.216Z</time></trkpt><trkpt lat="46.0861413" lon="13.2885679"><ele>111.5</ele><time>2026-04-24T14:31:37.217Z</time></trkpt><trkpt lat="46.0862493" lon="13.2885075"><ele>111.0</ele><time>2026-04-24T14:31:38.217Z</time></trkpt><trkpt lat="46.0863561" lon="13.2884539"><ele>111.0</ele><time>2026-04-24T14:31:39.217Z</time></trkpt><trkpt lat="46.086463" lon="13.2884034"><ele>111.0</ele><time>2026-04-24T14:31:40.217Z</time></trkpt><trkpt lat="46.0865618" lon="13.2883593"><ele>111.0</ele><time>2026-04-24T14:31:41.216Z</time></trkpt><trkpt lat="46.0866633" lon="13.288311"><ele>111.0</ele><time>2026-04-24T14:31:42.217Z</time></trkpt><trkpt lat="46.0867619" lon="13.2882572"><ele>111.0</ele><time>2026-04-24T14:31:43.217Z</time></trkpt><trkpt lat="46.0868616" lon="13.2882073"><ele>111.16666666666667</ele><time>2026-04-24T14:31:44.216Z</time></trkpt><trkpt lat="46.0869587" lon="13.2881645"><ele>111.33333333333334</ele><time>2026-04-24T14:31:45.216Z</time></trkpt><trkpt lat="46.0870502" lon="13.2881323"><ele>111.5</ele><time>2026-04-24T14:31:46.216Z</time></trkpt><trkpt lat="46.0871358" lon="13.2881139"><ele>111.66666666666667</ele><time>2026-04-24T14:31:47.217Z</time></trkpt><trkpt lat="46.0872062" lon="13.2881183"><ele>111.83333333333334</ele><time>2026-04-24T14:31:48.216Z</time></trkpt><trkpt lat="46.0872677" lon="13.2881421"><ele>112.0</ele><time>2026-04-24T14:31:49.217Z</time></trkpt><trkpt lat="46.0873835" lon="13.2882115"><ele>111.83333333333334</ele><time>2026-04-24T14:31:51.217Z</time></trkpt><trkpt lat="46.0874392" lon="13.2882567"><ele>111.66666666666667</ele><time>2026-04-24T14:31:52.217Z</time></trkpt><trkpt lat="46.0874974" lon="13.2883167"><ele>111.5</ele><time>2026-04-24T14:31:53.218Z</time></trkpt><trkpt lat="46.0875528" lon="13.2883924"><ele>111.33333333333334</ele><time>2026-04-24T14:31:54.217Z</time></trkpt><trkpt lat="46.0876062" lon="13.2884805"><ele>111.16666666666667</ele><time>2026-04-24T14:31:55.218Z</time></trkpt><trkpt lat="46.0876626" lon="13.2885722"><ele>111.0</ele><time>2026-04-24T14:31:56.217Z</time></trkpt><trkpt lat="46.0877195" lon="13.288674"><ele>111.0</ele><time>2026-04-24T14:31:57.216Z</time></trkpt><trkpt lat="46.0877741" lon="13.2887847"><ele>111.0</ele><time>2026-04-24T14:31:58.216Z</time></trkpt><trkpt lat="46.0878271" lon="13.2888945"><ele>111.0</ele><time>2026-04-24T14:31:59.217Z</time></trkpt><trkpt lat="46.0878837" lon="13.2889972"><ele>111.0</ele><time>2026-04-24T14:32:00.216Z</time></trkpt><trkpt lat="46.0879405" lon="13.2890842"><ele>111.0</ele><time>2026-04-24T14:32:01.216Z</time></trkpt><trkpt lat="46.0880028" lon="13.2891618"><ele>111.0</ele><time>2026-04-24T14:32:02.217Z</time></trkpt><trkpt lat="46.0880744" lon="13.289217"><ele>111.19999999999999</ele><time>2026-04-24T14:32:03.216Z</time></trkpt><trkpt lat="46.0881509" lon="13.2892512"><ele>111.39999999999999</ele><time>2026-04-24T14:32:04.216Z</time></trkpt><trkpt lat="46.0882333" lon="13.2892742"><ele>111.6</ele><time>2026-04-24T14:32:05.216Z</time></trkpt><trkpt lat="46.0883361" lon="13.2892782"><ele>111.8</ele><time>2026-04-24T14:32:06.217Z</time></trkpt><trkpt lat="46.0884392" lon="13.2892701"><ele>112.0</ele><time>2026-04-24T14:32:07.218Z</time></trkpt><trkpt lat="46.0885447" lon="13.2892572"><ele>112.39999999999999</ele><time>2026-04-24T14:32:08.217Z</time></trkpt><trkpt lat="46.0886525" lon="13.2892487"><ele>112.79999999999998</ele><time>2026-04-24T14:32:09.216Z</time></trkpt><trkpt lat="46.0887615" lon="13.2892481"><ele>113.2</ele><time>2026-04-24T14:32:10.217Z</time></trkpt><trkpt lat="46.0888755" lon="13.2892567"><ele>113.6</ele><time>2026-04-24T14:32:11.217Z</time></trkpt><trkpt lat="46.0889884" lon="13.2892619"><ele>114.0</ele><time>2026-04-24T14:32:12.217Z</time></trkpt><trkpt lat="46.0891012" lon="13.289269"><ele>114.0</ele><time>2026-04-24T14:32:13.216Z</time></trkpt><trkpt lat="46.0892168" lon="13.2892754"><ele>114.0</ele><time>2026-04-24T14:32:14.217Z</time></trkpt><trkpt lat="46.0893309" lon="13.2892747"><ele>114.0</ele><time>2026-04-24T14:32:15.217Z</time></trkpt><trkpt lat="46.0894591" lon="13.2892788"><ele>114.0</ele><time>2026-04-24T14:32:16.217Z</time></trkpt><trkpt lat="46.0895751" lon="13.2892868"><ele>114.0</ele><time>2026-04-24T14:32:17.218Z</time></trkpt><trkpt lat="46.0896965" lon="13.2892898"><ele>114.0</ele><time>2026-04-24T14:32:18.217Z</time></trkpt><trkpt lat="46.0898197" lon="13.2892963"><ele>114.0</ele><time>2026-04-24T14:32:19.217Z</time></trkpt><trkpt lat="46.0899384" lon="13.2893015"><ele>114.0</ele><time>2026-04-24T14:32:20.216Z</time></trkpt><trkpt lat="46.0900553" lon="13.2893094"><ele>114.5</ele><time>2026-04-24T14:32:21.217Z</time></trkpt><trkpt lat="46.0901723" lon="13.289316"><ele>115.0</ele><time>2026-04-24T14:32:22.217Z</time></trkpt><trkpt lat="46.0903027" lon="13.2893208"><ele>115.5</ele><time>2026-04-24T14:32:23.217Z</time></trkpt><trkpt lat="46.0904439" lon="13.2893228"><ele>116.0</ele><time>2026-04-24T14:32:24.217Z</time></trkpt><trkpt lat="46.0905677" lon="13.2893312"><ele>116.0</ele><time>2026-04-24T14:32:25.217Z</time></trkpt><trkpt lat="46.0906856" lon="13.289346"><ele>116.0</ele><time>2026-04-24T14:32:26.218Z</time></trkpt><trkpt lat="46.0907933" lon="13.2893649"><ele>116.0</ele><time>2026-04-24T14:32:27.217Z</time></trkpt><trkpt lat="46.0909026" lon="13.2893851"><ele>116.0</ele><time>2026-04-24T14:32:28.216Z</time></trkpt><trkpt lat="46.0910163" lon="13.2894058"><ele>115.6</ele><time>2026-04-24T14:32:29.218Z</time></trkpt><trkpt lat="46.0911325" lon="13.2894237"><ele>115.19999999999999</ele><time>2026-04-24T14:32:30.217Z</time></trkpt><trkpt lat="46.0912539" lon="13.2894464"><ele>114.80000000000001</ele><time>2026-04-24T14:32:31.217Z</time></trkpt><trkpt lat="46.0913588" lon="13.2894708"><ele>114.4</ele><time>2026-04-24T14:32:32.217Z</time></trkpt><trkpt lat="46.0914476" lon="13.2894947"><ele>114.0</ele><time>2026-04-24T14:32:33.217Z</time></trkpt><trkpt lat="46.0915177" lon="13.2895157"><ele>114.2</ele><time>2026-04-24T14:32:34.216Z</time></trkpt><trkpt lat="46.0916268" lon="13.2895559"><ele>114.4</ele><time>2026-04-24T14:32:36.217Z</time></trkpt><trkpt lat="46.0917059" lon="13.2896082"><ele>114.6</ele><time>2026-04-24T14:33:48.218Z</time></trkpt><trkpt lat="46.0917474" lon="13.2896958"><ele>114.8</ele><time>2026-04-24T14:33:50.216Z</time></trkpt><trkpt lat="46.0917549" lon="13.2898131"><ele>115.0</ele><time>2026-04-24T14:33:52.216Z</time></trkpt><trkpt lat="46.0917397" lon="13.2899813"><ele>115.16666666666667</ele><time>2026-04-24T14:33:54.216Z</time></trkpt><trkpt lat="46.0917322" lon="13.2900773"><ele>115.33333333333334</ele><time>2026-04-24T14:33:55.217Z</time></trkpt><trkpt lat="46.0917312" lon="13.2902219"><ele>115.5</ele><time>2026-04-24T14:33:57.216Z</time></trkpt><trkpt lat="46.0917331" lon="13.2903294"><ele>115.66666666666666</ele><time>2026-04-24T14:33:59.217Z</time></trkpt><trkpt lat="46.0917676" lon="13.2904134"><ele>115.83333333333333</ele><time>2026-04-24T14:34:01.217Z</time></trkpt><trkpt lat="46.0918544" lon="13.290466"><ele>116.0</ele><time>2026-04-24T14:34:04.215Z</time></trkpt><trkpt lat="46.0919397" lon="13.2904901"><ele>115.99999999999999</ele><time>2026-04-24T14:34:06.217Z</time></trkpt><trkpt lat="46.0920435" lon="13.2904728"><ele>116.0</ele><time>2026-04-24T14:34:08.216Z</time></trkpt><trkpt lat="46.0921498" lon="13.2904111"><ele>116.0</ele><time>2026-04-24T14:34:10.215Z</time></trkpt><trkpt lat="46.0922145" lon="13.2903667"><ele>116.0</ele><time>2026-04-24T14:34:11.217Z</time></trkpt><trkpt lat="46.0922775" lon="13.2903221"><ele>115.99999999999999</ele><time>2026-04-24T14:34:12.216Z</time></trkpt><trkpt lat="46.0923437" lon="13.2902785"><ele>116.0</ele><time>2026-04-24T14:34:13.217Z</time></trkpt><trkpt lat="46.0924059" lon="13.290233"><ele>115.57142857142858</ele><time>2026-04-24T14:34:14.217Z</time></trkpt><trkpt lat="46.0924681" lon="13.2901868"><ele>115.14285714285714</ele><time>2026-04-24T14:34:15.216Z</time></trkpt><trkpt lat="46.0925303" lon="13.2901376"><ele>114.71428571428572</ele><time>2026-04-24T14:34:16.216Z</time></trkpt><trkpt lat="46.0925884" lon="13.2900863"><ele>114.28571428571429</ele><time>2026-04-24T14:34:17.216Z</time></trkpt><trkpt lat="46.0926482" lon="13.290039"><ele>113.85714285714286</ele><time>2026-04-24T14:34:18.216Z</time></trkpt><trkpt lat="46.0927087" lon="13.2899878"><ele>113.42857142857143</ele><time>2026-04-24T14:34:19.215Z</time></trkpt><trkpt lat="46.0927696" lon="13.2899443"><ele>113.0</ele><time>2026-04-24T14:34:20.217Z</time></trkpt><trkpt lat="46.0928271" lon="13.2899069"><ele>113.0</ele><time>2026-04-24T14:34:21.215Z</time></trkpt><trkpt lat="46.0929181" lon="13.2898661"><ele>113.00000000000001</ele><time>2026-04-24T14:34:23.216Z</time></trkpt><trkpt lat="46.0930279" lon="13.2898746"><ele>113.00000000000001</ele><time>2026-04-24T14:34:25.215Z</time></trkpt><trkpt lat="46.0931518" lon="13.2898525"><ele>113.0</ele><time>2026-04-24T14:34:27.217Z</time></trkpt><trkpt lat="46.093222" lon="13.2898162"><ele>113.0</ele><time>2026-04-24T14:34:28.216Z</time></trkpt><trkpt lat="46.0932927" lon="13.2897667"><ele>112.4</ele><time>2026-04-24T14:34:29.216Z</time></trkpt><trkpt lat="46.0933686" lon="13.2897072"><ele>111.80000000000001</ele><time>2026-04-24T14:34:30.217Z</time></trkpt><trkpt lat="46.0934522" lon="13.2896554"><ele>111.2</ele><time>2026-04-24T14:34:31.217Z</time></trkpt><trkpt lat="46.0935398" lon="13.2896053"><ele>110.6</ele><time>2026-04-24T14:34:32.217Z</time></trkpt><trkpt lat="46.0936229" lon="13.2895514"><ele>110.0</ele><time>2026-04-24T14:34:33.217Z</time></trkpt><trkpt lat="46.0937084" lon="13.2894915"><ele>110.0</ele><time>2026-04-24T14:34:34.216Z</time></trkpt><trkpt lat="46.0937963" lon="13.2894248"><ele>110.0</ele><time>2026-04-24T14:34:35.215Z</time></trkpt><trkpt lat="46.0938871" lon="13.2893609"><ele>110.0</ele><time>2026-04-24T14:34:36.215Z</time></trkpt><trkpt lat="46.0939803" lon="13.2892942"><ele>110.0</ele><time>2026-04-24T14:34:37.216Z</time></trkpt><trkpt lat="46.0940643" lon="13.2892297"><ele>110.0</ele><time>2026-04-24T14:34:38.217Z</time></trkpt><trkpt lat="46.0941367" lon="13.2891693"><ele>110.66666666666666</ele><time>2026-04-24T14:34:39.216Z</time></trkpt><trkpt lat="46.0942118" lon="13.2891298"><ele>111.33333333333333</ele><time>2026-04-24T14:34:40.217Z</time></trkpt><trkpt lat="46.0942883" lon="13.2890811"><ele>112.0</ele><time>2026-04-24T14:34:41.216Z</time></trkpt><trkpt lat="46.0943569" lon="13.2890382"><ele>112.66666666666666</ele><time>2026-04-24T14:34:42.216Z</time></trkpt><trkpt lat="46.0944209" lon="13.2890009"><ele>113.33333333333333</ele><time>2026-04-24T14:34:43.217Z</time></trkpt><trkpt lat="46.0944822" lon="13.2889646"><ele>114.0</ele><time>2026-04-24T14:34:44.216Z</time></trkpt><trkpt lat="46.0945705" lon="13.2889058"><ele>114.0</ele><time>2026-04-24T14:34:46.216Z</time></trkpt><trkpt lat="46.0946396" lon="13.2888504"><ele>114.0</ele><time>2026-04-24T14:34:49.216Z</time></trkpt><trkpt lat="46.0946698" lon="13.2887667"><ele>114.0</ele><time>2026-04-24T14:34:52.217Z</time></trkpt><trkpt lat="46.094725" lon="13.2886473"><ele>114.0</ele><time>2026-04-24T14:34:55.216Z</time></trkpt><trkpt lat="46.0948173" lon="13.288581"><ele>114.0</ele><time>2026-04-24T14:34:57.215Z</time></trkpt><trkpt lat="46.0949033" lon="13.2885283"><ele>114.0</ele><time>2026-04-24T14:34:59.216Z</time></trkpt><trkpt lat="46.0950126" lon="13.2884608"><ele>115.0</ele><time>2026-04-24T14:35:01.215Z</time></trkpt><trkpt lat="46.0951299" lon="13.2883929"><ele>116.0</ele><time>2026-04-24T14:35:03.217Z</time></trkpt><trkpt lat="46.0951958" lon="13.2883564"><ele>117.0</ele><time>2026-04-24T14:35:04.216Z</time></trkpt><trkpt lat="46.0952673" lon="13.2883062"><ele>118.0</ele><time>2026-04-24T14:35:05.216Z</time></trkpt><trkpt lat="46.0953423" lon="13.288253"><ele>119.0</ele><time>2026-04-24T14:35:06.216Z</time></trkpt><trkpt lat="46.0954219" lon="13.2882024"><ele>120.0</ele><time>2026-04-24T14:35:07.216Z</time></trkpt><trkpt lat="46.0955008" lon="13.288153"><ele>120.0</ele><time>2026-04-24T14:35:08.216Z</time></trkpt><trkpt lat="46.0955823" lon="13.2880946"><ele>120.0</ele><time>2026-04-24T14:35:09.216Z</time></trkpt><trkpt lat="46.095658" lon="13.2880422"><ele>120.0</ele><time>2026-04-24T14:35:10.215Z</time></trkpt><trkpt lat="46.0957314" lon="13.2879934"><ele>120.0</ele><time>2026-04-24T14:35:11.216Z</time></trkpt><trkpt lat="46.095801" lon="13.2879461"><ele>120.0</ele><time>2026-04-24T14:35:12.215Z</time></trkpt><trkpt lat="46.095867" lon="13.2879038"><ele>120.0</ele><time>2026-04-24T14:35:13.216Z</time></trkpt><trkpt lat="46.095927" lon="13.2878671"><ele>119.6</ele><time>2026-04-24T14:35:14.217Z</time></trkpt><trkpt lat="46.0960275" lon="13.2878053"><ele>119.2</ele><time>2026-04-24T14:35:16.215Z</time></trkpt><trkpt lat="46.0961167" lon="13.2877449"><ele>118.80000000000001</ele><time>2026-04-24T14:35:18.216Z</time></trkpt><trkpt lat="46.096232" lon="13.2876951"><ele>118.4</ele><time>2026-04-24T14:35:20.216Z</time></trkpt><trkpt lat="46.0962943" lon="13.2876622"><ele>118.0</ele><time>2026-04-24T14:35:21.217Z</time></trkpt><trkpt lat="46.0963541" lon="13.2876168"><ele>118.0</ele><time>2026-04-24T14:35:22.217Z</time></trkpt><trkpt lat="46.0964135" lon="13.2875722"><ele>118.0</ele><time>2026-04-24T14:35:23.216Z</time></trkpt><trkpt lat="46.0964726" lon="13.2875213"><ele>118.0</ele><time>2026-04-24T14:35:24.215Z</time></trkpt><trkpt lat="46.0965335" lon="13.2874708"><ele>118.0</ele><time>2026-04-24T14:35:25.215Z</time></trkpt><trkpt lat="46.0965951" lon="13.2874216"><ele>118.0</ele><time>2026-04-24T14:35:26.216Z</time></trkpt><trkpt lat="46.0966577" lon="13.287372"><ele>118.0</ele><time>2026-04-24T14:35:27.215Z</time></trkpt><trkpt lat="46.0967228" lon="13.2873235"><ele>118.0</ele><time>2026-04-24T14:35:28.217Z</time></trkpt><trkpt lat="46.0967885" lon="13.2872737"><ele>118.16666666666667</ele><time>2026-04-24T14:35:29.217Z</time></trkpt><trkpt lat="46.0968479" lon="13.287236"><ele>118.33333333333334</ele><time>2026-04-24T14:35:30.216Z</time></trkpt><trkpt lat="46.0969078" lon="13.2872075"><ele>118.5</ele><time>2026-04-24T14:35:31.215Z</time></trkpt><trkpt lat="46.0969945" lon="13.2871533"><ele>118.66666666666666</ele><time>2026-04-24T14:35:33.217Z</time></trkpt><trkpt lat="46.0970593" lon="13.2871016"><ele>118.83333333333333</ele><time>2026-04-24T14:35:36.217Z</time></trkpt><trkpt lat="46.0969961" lon="13.2870963"><ele>119.0</ele><time>2026-04-24T14:35:42.216Z</time></trkpt><trkpt lat="46.0969224" lon="13.2871945"><ele>119.0</ele><time>2026-04-24T14:35:44.215Z</time></trkpt><trkpt lat="46.0967976" lon="13.2872747"><ele>119.0</ele><time>2026-04-24T14:35:46.216Z</time></trkpt><trkpt lat="46.0967225" lon="13.2873254"><ele>119.0</ele><time>2026-04-24T14:35:47.216Z</time></trkpt><trkpt lat="46.0966535" lon="13.2873786"><ele>119.0</ele><time>2026-04-24T14:35:48.215Z</time></trkpt><trkpt lat="46.0965805" lon="13.2874382"><ele>119.0</ele><time>2026-04-24T14:35:49.216Z</time></trkpt><trkpt lat="46.0965039" lon="13.2874971"><ele>118.83333333333333</ele><time>2026-04-24T14:35:50.216Z</time></trkpt><trkpt lat="46.0964324" lon="13.2875556"><ele>118.66666666666666</ele><time>2026-04-24T14:35:51.215Z</time></trkpt><trkpt lat="46.0963614" lon="13.2876122"><ele>118.5</ele><time>2026-04-24T14:35:52.217Z</time></trkpt><trkpt lat="46.096294" lon="13.2876607"><ele>118.33333333333334</ele><time>2026-04-24T14:35:53.217Z</time></trkpt><trkpt lat="46.0962264" lon="13.2877016"><ele>118.16666666666667</ele><time>2026-04-24T14:35:54.215Z</time></trkpt><trkpt lat="46.0961487" lon="13.287732"><ele>118.0</ele><time>2026-04-24T14:35:55.216Z</time></trkpt><trkpt lat="46.0960718" lon="13.2877743"><ele>118.0</ele><time>2026-04-24T14:35:56.216Z</time></trkpt><trkpt lat="46.0959876" lon="13.2878262"><ele>118.00000000000001</ele><time>2026-04-24T14:35:57.216Z</time></trkpt><trkpt lat="46.0958991" lon="13.2878853"><ele>118.00000000000001</ele><time>2026-04-24T14:35:58.216Z</time></trkpt><trkpt lat="46.0958028" lon="13.2879397"><ele>118.0</ele><time>2026-04-24T14:35:59.216Z</time></trkpt><trkpt lat="46.095703" lon="13.2880079"><ele>118.0</ele><time>2026-04-24T14:36:00.217Z</time></trkpt><trkpt lat="46.0955973" lon="13.2880789"><ele>118.4</ele><time>2026-04-24T14:36:01.216Z</time></trkpt><trkpt lat="46.0954886" lon="13.288157"><ele>118.80000000000001</ele><time>2026-04-24T14:36:02.216Z</time></trkpt><trkpt lat="46.0953814" lon="13.288231"><ele>119.2</ele><time>2026-04-24T14:36:03.216Z</time></trkpt><trkpt lat="46.0952862" lon="13.2882982"><ele>119.6</ele><time>2026-04-24T14:36:04.216Z</time></trkpt><trkpt lat="46.0951997" lon="13.2883564"><ele>120.0</ele><time>2026-04-24T14:36:05.217Z</time></trkpt><trkpt lat="46.0951231" lon="13.2884096"><ele>120.0</ele><time>2026-04-24T14:36:06.216Z</time></trkpt><trkpt lat="46.0950638" lon="13.2884462"><ele>120.0</ele><time>2026-04-24T14:36:07.216Z</time></trkpt><trkpt lat="46.0950069" lon="13.2884921"><ele>120.0</ele><time>2026-04-24T14:36:09.216Z</time></trkpt><trkpt lat="46.0950069" lon="13.2883479"><ele>120.0</ele><time>2026-04-24T14:36:15.215Z</time></trkpt><trkpt lat="46.0950278" lon="13.2882423"><ele>120.0</ele><time>2026-04-24T14:36:16.215Z</time></trkpt><trkpt lat="46.0950479" lon="13.2881248"><ele>120.0</ele><time>2026-04-24T14:36:17.217Z</time></trkpt><trkpt lat="46.0950608" lon="13.2879915"><ele>119.6</ele><time>2026-04-24T14:36:18.217Z</time></trkpt><trkpt lat="46.0950672" lon="13.2878521"><ele>119.2</ele><time>2026-04-24T14:36:19.217Z</time></trkpt><trkpt lat="46.09507" lon="13.2877049"><ele>118.80000000000001</ele><time>2026-04-24T14:36:20.216Z</time></trkpt><trkpt lat="46.0950729" lon="13.2875452"><ele>118.4</ele><time>2026-04-24T14:36:21.216Z</time></trkpt><trkpt lat="46.0950738" lon="13.2873899"><ele>118.0</ele><time>2026-04-24T14:36:22.216Z</time></trkpt><trkpt lat="46.0950724" lon="13.2872205"><ele>118.0</ele><time>2026-04-24T14:36:23.216Z</time></trkpt><trkpt lat="46.0950734" lon="13.2870501"><ele>118.0</ele><time>2026-04-24T14:36:24.216Z</time></trkpt><trkpt lat="46.0950759" lon="13.2868893"><ele>118.0</ele><time>2026-04-24T14:36:25.215Z</time></trkpt><trkpt lat="46.0950849" lon="13.2867258"><ele>118.0</ele><time>2026-04-24T14:36:26.216Z</time></trkpt><trkpt lat="46.0950945" lon="13.2865686"><ele>118.0</ele><time>2026-04-24T14:36:27.216Z</time></trkpt><trkpt lat="46.0951018" lon="13.2864091"><ele>118.00000000000001</ele><time>2026-04-24T14:36:28.216Z</time></trkpt><trkpt lat="46.0951102" lon="13.2862526"><ele>118.00000000000001</ele><time>2026-04-24T14:36:29.217Z</time></trkpt><trkpt lat="46.0951217" lon="13.2860962"><ele>118.0</ele><time>2026-04-24T14:36:30.216Z</time></trkpt><trkpt lat="46.0951319" lon="13.285959"><ele>118.0</ele><time>2026-04-24T14:36:31.216Z</time></trkpt><trkpt lat="46.0951387" lon="13.2858267"><ele>118.00000000000001</ele><time>2026-04-24T14:36:32.217Z</time></trkpt><trkpt lat="46.0951405" lon="13.2857136"><ele>118.0</ele><time>2026-04-24T14:36:33.216Z</time></trkpt><trkpt lat="46.0951354" lon="13.2856081"><ele>118.0</ele><time>2026-04-24T14:36:34.216Z</time></trkpt><trkpt lat="46.0951144" lon="13.2854635"><ele>118.0</ele><time>2026-04-24T14:36:36.216Z</time></trkpt><trkpt lat="46.0950984" lon="13.2853729"><ele>118.00000000000001</ele><time>2026-04-24T14:36:38.217Z</time></trkpt><trkpt lat="46.0950794" lon="13.2852796"><ele>118.0</ele><time>2026-04-24T14:36:40.217Z</time></trkpt><trkpt lat="46.0950773" lon="13.2851867"><ele>118.16666666666667</ele><time>2026-04-24T14:36:43.217Z</time></trkpt><trkpt lat="46.0950627" lon="13.2850753"><ele>118.33333333333334</ele><time>2026-04-24T14:36:46.216Z</time></trkpt><trkpt lat="46.0949861" lon="13.2850292"><ele>118.5</ele><time>2026-04-24T14:36:49.216Z</time></trkpt><trkpt lat="46.0949663" lon="13.2851622"><ele>118.66666666666666</ele><time>2026-04-24T14:36:52.215Z</time></trkpt><trkpt lat="46.0950242" lon="13.2852366"><ele>118.83333333333333</ele><time>2026-04-24T14:36:54.215Z</time></trkpt><trkpt lat="46.0950817" lon="13.2852981"><ele>119.0</ele><time>2026-04-24T14:36:56.214Z</time></trkpt><trkpt lat="46.0951029" lon="13.2854077"><ele>118.99999999999999</ele><time>2026-04-24T14:36:58.215Z</time></trkpt><trkpt lat="46.0951216" lon="13.2855533"><ele>119.0</ele><time>2026-04-24T14:37:00.216Z</time></trkpt><trkpt lat="46.0951274" lon="13.2856478"><ele>119.0</ele><time>2026-04-24T14:37:01.215Z</time></trkpt><trkpt lat="46.0951279" lon="13.2857586"><ele>119.0</ele><time>2026-04-24T14:37:02.215Z</time></trkpt><trkpt lat="46.0951251" lon="13.2858798"><ele>118.99999999999999</ele><time>2026-04-24T14:37:03.214Z</time></trkpt><trkpt lat="46.0951155" lon="13.2860113"><ele>119.0</ele><time>2026-04-24T14:37:04.214Z</time></trkpt><trkpt lat="46.0951048" lon="13.2861474"><ele>118.80000000000001</ele><time>2026-04-24T14:37:05.216Z</time></trkpt><trkpt lat="46.0950959" lon="13.2862904"><ele>118.60000000000001</ele><time>2026-04-24T14:37:06.215Z</time></trkpt><trkpt lat="46.0950859" lon="13.2864341"><ele>118.4</ele><time>2026-04-24T14:37:07.215Z</time></trkpt><trkpt lat="46.0950773" lon="13.286561"><ele>118.2</ele><time>2026-04-24T14:37:08.214Z</time></trkpt><trkpt lat="46.0950689" lon="13.2866872"><ele>118.0</ele><time>2026-04-24T14:37:09.215Z</time></trkpt><trkpt lat="46.0950617" lon="13.2868273"><ele>118.0</ele><time>2026-04-24T14:37:10.215Z</time></trkpt><trkpt lat="46.0950578" lon="13.2869743"><ele>118.00000000000001</ele><time>2026-04-24T14:37:11.215Z</time></trkpt><trkpt lat="46.0950582" lon="13.2871249"><ele>118.00000000000001</ele><time>2026-04-24T14:37:12.215Z</time></trkpt><trkpt lat="46.0950577" lon="13.2872748"><ele>118.0</ele><time>2026-04-24T14:37:13.215Z</time></trkpt><trkpt lat="46.0950555" lon="13.2874258"><ele>118.0</ele><time>2026-04-24T14:37:14.214Z</time></trkpt><trkpt lat="46.0950512" lon="13.2875755"><ele>117.80000000000001</ele><time>2026-04-24T14:37:15.214Z</time></trkpt><trkpt lat="46.0950488" lon="13.2877281"><ele>117.60000000000001</ele><time>2026-04-24T14:37:16.214Z</time></trkpt><trkpt lat="46.0950493" lon="13.2878798"><ele>117.39999999999999</ele><time>2026-04-24T14:37:17.215Z</time></trkpt><trkpt lat="46.0950456" lon="13.2880202"><ele>117.19999999999999</ele><time>2026-04-24T14:37:18.215Z</time></trkpt><trkpt lat="46.0950353" lon="13.2881407"><ele>117.0</ele><time>2026-04-24T14:37:19.215Z</time></trkpt><trkpt lat="46.0950193" lon="13.2882552"><ele>117.5</ele><time>2026-04-24T14:37:20.215Z</time></trkpt><trkpt lat="46.0950027" lon="13.2883555"><ele>118.0</ele><time>2026-04-24T14:37:21.214Z</time></trkpt><trkpt lat="46.0949712" lon="13.288472"><ele>118.5</ele><time>2026-04-24T14:37:23.215Z</time></trkpt><trkpt lat="46.0948688" lon="13.2885693"><ele>119.0</ele><time>2026-04-24T14:37:25.215Z</time></trkpt><trkpt lat="46.0947971" lon="13.2886121"><ele>119.5</ele><time>2026-04-24T14:37:26.215Z</time></trkpt><trkpt lat="46.0947342" lon="13.288663"><ele>120.0</ele><time>2026-04-24T14:37:27.214Z</time></trkpt><trkpt lat="46.0946855" lon="13.288747"><ele>120.0</ele><time>2026-04-24T14:37:29.214Z</time></trkpt><trkpt lat="46.0947117" lon="13.2888382"><ele>120.0</ele><time>2026-04-24T14:37:31.216Z</time></trkpt><trkpt lat="46.0947946" lon="13.2889604"><ele>120.0</ele><time>2026-04-24T14:37:33.215Z</time></trkpt><trkpt lat="46.0948542" lon="13.2890127"><ele>120.0</ele><time>2026-04-24T14:37:34.214Z</time></trkpt><trkpt lat="46.094921" lon="13.2890522"><ele>120.0</ele><time>2026-04-24T14:37:35.215Z</time></trkpt><trkpt lat="46.0949902" lon="13.289075"><ele>120.0</ele><time>2026-04-24T14:37:36.216Z</time></trkpt><trkpt lat="46.0950973" lon="13.2890867"><ele>120.0</ele><time>2026-04-24T14:37:37.215Z</time></trkpt><trkpt lat="46.095191" lon="13.2890978"><ele>120.0</ele><time>2026-04-24T14:37:38.214Z</time></trkpt><trkpt lat="46.0952663" lon="13.2891134"><ele>120.0</ele><time>2026-04-24T14:37:39.214Z</time></trkpt><trkpt lat="46.0953306" lon="13.2891446"><ele>120.0</ele><time>2026-04-24T14:37:40.215Z</time></trkpt><trkpt lat="46.095414" lon="13.2892404"><ele>120.0</ele><time>2026-04-24T14:37:42.215Z</time></trkpt><trkpt lat="46.0954572" lon="13.289338"><ele>120.0</ele><time>2026-04-24T14:37:45.215Z</time></trkpt><trkpt lat="46.0954567" lon="13.289434"><ele>120.0</ele><time>2026-04-24T14:37:50.215Z</time></trkpt><trkpt lat="46.0954483" lon="13.2895299"><ele>120.0</ele><time>2026-04-24T14:37:51.214Z</time></trkpt><trkpt lat="46.0954475" lon="13.289631"><ele>120.0</ele><time>2026-04-24T14:37:52.214Z</time></trkpt><trkpt lat="46.0955039" lon="13.2897822"><ele>120.0</ele><time>2026-04-24T14:37:54.214Z</time></trkpt><trkpt lat="46.0955635" lon="13.2898256"><ele>120.0</ele><time>2026-04-24T14:37:55.214Z</time></trkpt><trkpt lat="46.0956315" lon="13.2898371"><ele>120.0</ele><time>2026-04-24T14:37:56.216Z</time></trkpt><trkpt lat="46.0957096" lon="13.2898135"><ele>120.2</ele><time>2026-04-24T14:37:57.215Z</time></trkpt><trkpt lat="46.095788" lon="13.2897363"><ele>120.4</ele><time>2026-04-24T14:37:58.216Z</time></trkpt><trkpt lat="46.0958624" lon="13.289626"><ele>120.6</ele><time>2026-04-24T14:37:59.215Z</time></trkpt><trkpt lat="46.0959545" lon="13.2895198"><ele>120.8</ele><time>2026-04-24T14:38:00.215Z</time></trkpt><trkpt lat="46.0960705" lon="13.2894475"><ele>121.0</ele><time>2026-04-24T14:38:01.216Z</time></trkpt><trkpt lat="46.096197" lon="13.2893738"><ele>121.0</ele><time>2026-04-24T14:38:02.215Z</time></trkpt><trkpt lat="46.0963236" lon="13.2892993"><ele>121.0</ele><time>2026-04-24T14:38:03.216Z</time></trkpt><trkpt lat="46.0964613" lon="13.2892168"><ele>121.0</ele><time>2026-04-24T14:38:04.216Z</time></trkpt><trkpt lat="46.0966026" lon="13.2891381"><ele>121.0</ele><time>2026-04-24T14:38:05.215Z</time></trkpt><trkpt lat="46.0967477" lon="13.2890658"><ele>121.0</ele><time>2026-04-24T14:38:06.216Z</time></trkpt><trkpt lat="46.0968962" lon="13.2889875"><ele>121.0</ele><time>2026-04-24T14:38:07.215Z</time></trkpt><trkpt lat="46.0970507" lon="13.2889102"><ele>121.0</ele><time>2026-04-24T14:38:08.215Z</time></trkpt><trkpt lat="46.0972067" lon="13.2888293"><ele>120.66666666666667</ele><time>2026-04-24T14:38:09.214Z</time></trkpt><trkpt lat="46.0973646" lon="13.288742"><ele>120.33333333333334</ele><time>2026-04-24T14:38:10.215Z</time></trkpt><trkpt lat="46.0975225" lon="13.2886493"><ele>120.0</ele><time>2026-04-24T14:38:11.214Z</time></trkpt><trkpt lat="46.0976826" lon="13.2885557"><ele>120.0</ele><time>2026-04-24T14:38:12.214Z</time></trkpt><trkpt lat="46.097838" lon="13.2884495"><ele>120.0</ele><time>2026-04-24T14:38:13.215Z</time></trkpt><trkpt lat="46.0979908" lon="13.2883289"><ele>120.0</ele><time>2026-04-24T14:38:14.216Z</time></trkpt><trkpt lat="46.0981379" lon="13.2881912"><ele>120.0</ele><time>2026-04-24T14:38:15.215Z</time></trkpt><trkpt lat="46.0982811" lon="13.2880438"><ele>120.0</ele><time>2026-04-24T14:38:16.215Z</time></trkpt><trkpt lat="46.0984231" lon="13.2878841"><ele>120.0</ele><time>2026-04-24T14:38:17.214Z</time></trkpt><trkpt lat="46.0985623" lon="13.2877177"><ele>120.0</ele><time>2026-04-24T14:38:18.215Z</time></trkpt><trkpt lat="46.0987012" lon="13.2875437"><ele>120.0</ele><time>2026-04-24T14:38:19.215Z</time></trkpt><trkpt lat="46.0988377" lon="13.2873612"><ele>120.0</ele><time>2026-04-24T14:38:20.214Z</time></trkpt><trkpt lat="46.0989712" lon="13.2871657"><ele>119.66666666666666</ele><time>2026-04-24T14:38:21.214Z</time></trkpt><trkpt lat="46.0991003" lon="13.2869582"><ele>119.33333333333333</ele><time>2026-04-24T14:38:22.216Z</time></trkpt><trkpt lat="46.0992267" lon="13.2867393"><ele>119.0</ele><time>2026-04-24T14:38:23.214Z</time></trkpt><trkpt lat="46.0993496" lon="13.2865119"><ele>119.0</ele><time>2026-04-24T14:38:24.215Z</time></trkpt><trkpt lat="46.0994716" lon="13.2862792"><ele>119.0</ele><time>2026-04-24T14:38:25.215Z</time></trkpt><trkpt lat="46.0995962" lon="13.2860493"><ele>119.0</ele><time>2026-04-24T14:38:26.215Z</time></trkpt><trkpt lat="46.0997263" lon="13.2858203"><ele>119.0</ele><time>2026-04-24T14:38:27.215Z</time></trkpt><trkpt lat="46.099865" lon="13.2855967"><ele>119.0</ele><time>2026-04-24T14:38:28.215Z</time></trkpt><trkpt lat="46.1000127" lon="13.2853706"><ele>119.0</ele><time>2026-04-24T14:38:29.214Z</time></trkpt><trkpt lat="46.1001762" lon="13.2851549"><ele>119.5</ele><time>2026-04-24T14:38:30.214Z</time></trkpt><trkpt lat="46.1003495" lon="13.2849463"><ele>120.0</ele><time>2026-04-24T14:38:31.215Z</time></trkpt><trkpt lat="46.1005333" lon="13.2847444"><ele>120.5</ele><time>2026-04-24T14:38:32.215Z</time></trkpt><trkpt lat="46.1007272" lon="13.2845483"><ele>121.0</ele><time>2026-04-24T14:38:33.215Z</time></trkpt><trkpt lat="46.1009325" lon="13.284365"><ele>121.0</ele><time>2026-04-24T14:38:34.215Z</time></trkpt><trkpt lat="46.1011489" lon="13.2841958"><ele>121.0</ele><time>2026-04-24T14:38:35.215Z</time></trkpt><trkpt lat="46.1013773" lon="13.284043"><ele>121.5</ele><time>2026-04-24T14:38:36.216Z</time></trkpt><trkpt lat="46.1016145" lon="13.2839074"><ele>122.0</ele><time>2026-04-24T14:38:37.216Z</time></trkpt><trkpt lat="46.1018622" lon="13.2837909"><ele>122.0</ele><time>2026-04-24T14:38:38.215Z</time></trkpt><trkpt lat="46.1021201" lon="13.2836959"><ele>122.0</ele><time>2026-04-24T14:38:39.214Z</time></trkpt><trkpt lat="46.1023815" lon="13.2836168"><ele>122.5</ele><time>2026-04-24T14:38:40.215Z</time></trkpt><trkpt lat="46.1026465" lon="13.2835457"><ele>123.0</ele><time>2026-04-24T14:38:41.216Z</time></trkpt><trkpt lat="46.1029153" lon="13.2834783"><ele>123.0</ele><time>2026-04-24T14:38:42.214Z</time></trkpt><trkpt lat="46.1031831" lon="13.2834108"><ele>123.0</ele><time>2026-04-24T14:38:43.215Z</time></trkpt><trkpt lat="46.1034517" lon="13.2833406"><ele>122.5</ele><time>2026-04-24T14:38:44.216Z</time></trkpt><trkpt lat="46.103719" lon="13.2832727"><ele>122.0</ele><time>2026-04-24T14:38:45.215Z</time></trkpt><trkpt lat="46.1039846" lon="13.2832055"><ele>122.0</ele><time>2026-04-24T14:38:46.216Z</time></trkpt><trkpt lat="46.1042479" lon="13.2831356"><ele>122.0</ele><time>2026-04-24T14:38:47.215Z</time></trkpt><trkpt lat="46.1045103" lon="13.2830677"><ele>122.0</ele><time>2026-04-24T14:38:48.215Z</time></trkpt><trkpt lat="46.104768" lon="13.2830037"><ele>122.0</ele><time>2026-04-24T14:38:49.215Z</time></trkpt><trkpt lat="46.1050247" lon="13.2829377"><ele>122.0</ele><time>2026-04-24T14:38:50.215Z</time></trkpt><trkpt lat="46.1052811" lon="13.2828709"><ele>122.0</ele><time>2026-04-24T14:38:51.214Z</time></trkpt><trkpt lat="46.1055383" lon="13.2828077"><ele>122.0</ele><time>2026-04-24T14:38:52.215Z</time></trkpt><trkpt lat="46.1057914" lon="13.2827434"><ele>122.0</ele><time>2026-04-24T14:38:53.214Z</time></trkpt><trkpt lat="46.1060469" lon="13.2826753"><ele>122.0</ele><time>2026-04-24T14:38:54.216Z</time></trkpt><trkpt lat="46.1063012" lon="13.2826086"><ele>122.0</ele><time>2026-04-24T14:38:55.215Z</time></trkpt><trkpt lat="46.1065577" lon="13.2825405"><ele>122.5</ele><time>2026-04-24T14:38:56.216Z</time></trkpt><trkpt lat="46.1068128" lon="13.2824768"><ele>123.0</ele><time>2026-04-24T14:38:57.215Z</time></trkpt><trkpt lat="46.1070669" lon="13.2824093"><ele>123.0</ele><time>2026-04-24T14:38:58.215Z</time></trkpt><trkpt lat="46.1073219" lon="13.2823394"><ele>123.0</ele><time>2026-04-24T14:38:59.214Z</time></trkpt><trkpt lat="46.1075753" lon="13.2822638"><ele>125.0</ele><time>2026-04-24T14:39:00.214Z</time></trkpt><trkpt lat="46.1078288" lon="13.2821777"><ele>127.0</ele><time>2026-04-24T14:39:01.214Z</time></trkpt><trkpt lat="46.1080783" lon="13.282076"><ele>128.0</ele><time>2026-04-24T14:39:02.214Z</time></trkpt><trkpt lat="46.108329" lon="13.2819622"><ele>129.0</ele><time>2026-04-24T14:39:03.214Z</time></trkpt><trkpt lat="46.108577" lon="13.2818284"><ele>129.0</ele><time>2026-04-24T14:39:04.214Z</time></trkpt><trkpt lat="46.1088229" lon="13.2816852"><ele>129.0</ele><time>2026-04-24T14:39:05.215Z</time></trkpt><trkpt lat="46.1090676" lon="13.2815424"><ele>126.5</ele><time>2026-04-24T14:39:06.215Z</time></trkpt><trkpt lat="46.1093135" lon="13.2813973"><ele>124.0</ele><time>2026-04-24T14:39:07.215Z</time></trkpt><trkpt lat="46.1095617" lon="13.2812543"><ele>124.0</ele><time>2026-04-24T14:39:08.215Z</time></trkpt><trkpt lat="46.1098095" lon="13.2811143"><ele>124.0</ele><time>2026-04-24T14:39:09.215Z</time></trkpt><trkpt lat="46.1100585" lon="13.2809848"><ele>125.5</ele><time>2026-04-24T14:39:10.215Z</time></trkpt><trkpt lat="46.1103022" lon="13.2808621"><ele>127.0</ele><time>2026-04-24T14:39:11.215Z</time></trkpt><trkpt lat="46.1105307" lon="13.2807562"><ele>127.33333333333334</ele><time>2026-04-24T14:39:12.215Z</time></trkpt><trkpt lat="46.1107489" lon="13.2806565"><ele>127.66666666666666</ele><time>2026-04-24T14:39:13.216Z</time></trkpt><trkpt lat="46.1109578" lon="13.2805656"><ele>128.0</ele><time>2026-04-24T14:39:14.216Z</time></trkpt><trkpt lat="46.1111544" lon="13.2804888"><ele>128.0</ele><time>2026-04-24T14:39:15.215Z</time></trkpt><trkpt lat="46.1113392" lon="13.2804112"><ele>128.0</ele><time>2026-04-24T14:39:16.215Z</time></trkpt><trkpt lat="46.11152" lon="13.2803328"><ele>128.0</ele><time>2026-04-24T14:39:17.214Z</time></trkpt><trkpt lat="46.111696" lon="13.2802571"><ele>128.33333333333331</ele><time>2026-04-24T14:39:18.215Z</time></trkpt><trkpt lat="46.1118688" lon="13.2801892"><ele>128.66666666666666</ele><time>2026-04-24T14:39:19.214Z</time></trkpt><trkpt lat="46.1120346" lon="13.28012"><ele>129.0</ele><time>2026-04-24T14:39:20.215Z</time></trkpt><trkpt lat="46.1121935" lon="13.2800549"><ele>129.0</ele><time>2026-04-24T14:39:21.214Z</time></trkpt><trkpt lat="46.1123438" lon="13.2799849"><ele>129.0</ele><time>2026-04-24T14:39:22.215Z</time></trkpt><trkpt lat="46.1124838" lon="13.2799165"><ele>129.0</ele><time>2026-04-24T14:39:23.215Z</time></trkpt><trkpt lat="46.1126121" lon="13.2798403"><ele>129.0</ele><time>2026-04-24T14:39:24.216Z</time></trkpt><trkpt lat="46.1127273" lon="13.2797535"><ele>129.2</ele><time>2026-04-24T14:39:25.216Z</time></trkpt><trkpt lat="46.1128344" lon="13.2796588"><ele>129.4</ele><time>2026-04-24T14:39:26.215Z</time></trkpt><trkpt lat="46.1129284" lon="13.2795588"><ele>129.6</ele><time>2026-04-24T14:39:27.214Z</time></trkpt><trkpt lat="46.1130095" lon="13.2794625"><ele>129.8</ele><time>2026-04-24T14:39:28.216Z</time></trkpt><trkpt lat="46.1130788" lon="13.2793855"><ele>130.0</ele><time>2026-04-24T14:39:29.215Z</time></trkpt><trkpt lat="46.1131386" lon="13.2793345"><ele>130.0</ele><time>2026-04-24T14:39:30.215Z</time></trkpt><trkpt lat="46.113211" lon="13.2792952"><ele>130.0</ele><time>2026-04-24T14:39:32.214Z</time></trkpt><trkpt lat="46.1132818" lon="13.2792953"><ele>130.0</ele><time>2026-04-24T14:39:38.214Z</time></trkpt><trkpt lat="46.1133465" lon="13.2793349"><ele>130.0</ele><time>2026-04-24T14:39:39.215Z</time></trkpt><trkpt lat="46.1134202" lon="13.2793914"><ele>130.0</ele><time>2026-04-24T14:39:40.215Z</time></trkpt><trkpt lat="46.113496" lon="13.2794579"><ele>130.0</ele><time>2026-04-24T14:39:41.215Z</time></trkpt><trkpt lat="46.1135803" lon="13.2795098"><ele>129.8</ele><time>2026-04-24T14:39:42.215Z</time></trkpt><trkpt lat="46.1136743" lon="13.2795398"><ele>129.6</ele><time>2026-04-24T14:39:43.214Z</time></trkpt><trkpt lat="46.113775" lon="13.2795312"><ele>129.4</ele><time>2026-04-24T14:39:44.215Z</time></trkpt><trkpt lat="46.113869" lon="13.2794922"><ele>129.2</ele><time>2026-04-24T14:39:45.214Z</time></trkpt><trkpt lat="46.1139491" lon="13.279418"><ele>129.0</ele><time>2026-04-24T14:39:46.215Z</time></trkpt><trkpt lat="46.1140199" lon="13.2793122"><ele>129.0</ele><time>2026-04-24T14:39:47.213Z</time></trkpt><trkpt lat="46.1140669" lon="13.2791849"><ele>129.0</ele><time>2026-04-24T14:39:48.214Z</time></trkpt><trkpt lat="46.1140947" lon="13.2790432"><ele>129.0</ele><time>2026-04-24T14:39:49.213Z</time></trkpt><trkpt lat="46.1140939" lon="13.2788926"><ele>129.0</ele><time>2026-04-24T14:39:50.214Z</time></trkpt><trkpt lat="46.1140694" lon="13.2787347"><ele>129.0</ele><time>2026-04-24T14:39:51.214Z</time></trkpt><trkpt lat="46.1140195" lon="13.2785757"><ele>129.5</ele><time>2026-04-24T14:39:52.213Z</time></trkpt><trkpt lat="46.1139499" lon="13.2784078"><ele>130.0</ele><time>2026-04-24T14:39:53.213Z</time></trkpt><trkpt lat="46.1138737" lon="13.2782376"><ele>130.5</ele><time>2026-04-24T14:39:54.215Z</time></trkpt><trkpt lat="46.1137971" lon="13.278057"><ele>131.0</ele><time>2026-04-24T14:39:55.214Z</time></trkpt><trkpt lat="46.1137126" lon="13.2778645"><ele>131.0</ele><time>2026-04-24T14:39:56.214Z</time></trkpt><trkpt lat="46.1136272" lon="13.2776603"><ele>131.0</ele><time>2026-04-24T14:39:57.213Z</time></trkpt><trkpt lat="46.1135421" lon="13.2774594"><ele>131.0</ele><time>2026-04-24T14:39:58.214Z</time></trkpt><trkpt lat="46.113454" lon="13.2772626"><ele>130.33333333333331</ele><time>2026-04-24T14:39:59.214Z</time></trkpt><trkpt lat="46.1133676" lon="13.2770627"><ele>129.66666666666666</ele><time>2026-04-24T14:40:00.215Z</time></trkpt><trkpt lat="46.113279" lon="13.2768619"><ele>129.0</ele><time>2026-04-24T14:40:01.213Z</time></trkpt><trkpt lat="46.1131851" lon="13.2766581"><ele>129.0</ele><time>2026-04-24T14:40:02.213Z</time></trkpt><trkpt lat="46.1130922" lon="13.2764462"><ele>129.0</ele><time>2026-04-24T14:40:03.215Z</time></trkpt><trkpt lat="46.1129982" lon="13.2762315"><ele>129.0</ele><time>2026-04-24T14:40:04.213Z</time></trkpt><trkpt lat="46.1129015" lon="13.2760161"><ele>129.0</ele><time>2026-04-24T14:40:05.215Z</time></trkpt><trkpt lat="46.1128031" lon="13.2757999"><ele>129.0</ele><time>2026-04-24T14:40:06.214Z</time></trkpt><trkpt lat="46.1127065" lon="13.2755779"><ele>129.0</ele><time>2026-04-24T14:40:07.214Z</time></trkpt><trkpt lat="46.1126091" lon="13.2753515"><ele>129.0</ele><time>2026-04-24T14:40:08.214Z</time></trkpt><trkpt lat="46.1125117" lon="13.2751288"><ele>129.0</ele><time>2026-04-24T14:40:09.213Z</time></trkpt><trkpt lat="46.1124111" lon="13.274904"><ele>129.0</ele><time>2026-04-24T14:40:10.213Z</time></trkpt><trkpt lat="46.1123075" lon="13.2746761"><ele>129.0</ele><time>2026-04-24T14:40:11.213Z</time></trkpt><trkpt lat="46.1122052" lon="13.2744482"><ele>129.0</ele><time>2026-04-24T14:40:12.214Z</time></trkpt><trkpt lat="46.1121034" lon="13.2742151"><ele>129.0</ele><time>2026-04-24T14:40:13.213Z</time></trkpt><trkpt lat="46.1120031" lon="13.2739816"><ele>129.66666666666666</ele><time>2026-04-24T14:40:14.214Z</time></trkpt><trkpt lat="46.1119" lon="13.2737558"><ele>130.33333333333331</ele><time>2026-04-24T14:40:15.214Z</time></trkpt><trkpt lat="46.1118034" lon="13.2735404"><ele>131.0</ele><time>2026-04-24T14:40:16.214Z</time></trkpt><trkpt lat="46.111714" lon="13.273341"><ele>131.0</ele><time>2026-04-24T14:40:17.213Z</time></trkpt><trkpt lat="46.1116317" lon="13.2731487"><ele>131.0</ele><time>2026-04-24T14:40:18.214Z</time></trkpt><trkpt lat="46.1115531" lon="13.2729743"><ele>131.0</ele><time>2026-04-24T14:40:19.213Z</time></trkpt><trkpt lat="46.1114811" lon="13.2728034"><ele>131.0</ele><time>2026-04-24T14:40:20.214Z</time></trkpt><trkpt lat="46.1114229" lon="13.2726324"><ele>131.0</ele><time>2026-04-24T14:40:21.214Z</time></trkpt><trkpt lat="46.11138" lon="13.2724637"><ele>131.0</ele><time>2026-04-24T14:40:22.214Z</time></trkpt><trkpt lat="46.1113504" lon="13.2723055"><ele>131.0</ele><time>2026-04-24T14:40:23.215Z</time></trkpt><trkpt lat="46.1113297" lon="13.2721484"><ele>131.0</ele><time>2026-04-24T14:40:24.214Z</time></trkpt><trkpt lat="46.1113236" lon="13.2719943"><ele>131.0</ele><time>2026-04-24T14:40:25.214Z</time></trkpt><trkpt lat="46.1113451" lon="13.2718531"><ele>131.0</ele><time>2026-04-24T14:40:26.214Z</time></trkpt><trkpt lat="46.1113869" lon="13.2717025"><ele>131.0</ele><time>2026-04-24T14:40:27.214Z</time></trkpt><trkpt lat="46.1114293" lon="13.2715424"><ele>131.0</ele><time>2026-04-24T14:40:28.213Z</time></trkpt><trkpt lat="46.1114608" lon="13.2713744"><ele>131.16666666666666</ele><time>2026-04-24T14:40:29.215Z</time></trkpt><trkpt lat="46.1114917" lon="13.2712224"><ele>131.33333333333331</ele><time>2026-04-24T14:40:30.215Z</time></trkpt><trkpt lat="46.1115288" lon="13.2710989"><ele>131.5</ele><time>2026-04-24T14:40:31.213Z</time></trkpt><trkpt lat="46.1115685" lon="13.271019"><ele>131.66666666666666</ele><time>2026-04-24T14:40:32.215Z</time></trkpt><trkpt lat="46.1116354" lon="13.2709435"><ele>131.83333333333334</ele><time>2026-04-24T14:40:34.214Z</time></trkpt><trkpt lat="46.1116728" lon="13.2708662"><ele>132.0</ele><time>2026-04-24T14:41:16.215Z</time></trkpt><trkpt lat="46.1117259" lon="13.270705"><ele>131.6</ele><time>2026-04-24T14:41:30.215Z</time></trkpt><trkpt lat="46.1117866" lon="13.2706137"><ele>131.2</ele><time>2026-04-24T14:41:31.214Z</time></trkpt><trkpt lat="46.1118563" lon="13.2705243"><ele>130.8</ele><time>2026-04-24T14:41:32.214Z</time></trkpt><trkpt lat="46.1119474" lon="13.2704213"><ele>130.4</ele><time>2026-04-24T14:41:33.214Z</time></trkpt><trkpt lat="46.1120545" lon="13.2703111"><ele>130.0</ele><time>2026-04-24T14:41:34.213Z</time></trkpt><trkpt lat="46.1121682" lon="13.270196"><ele>129.66666666666669</ele><time>2026-04-24T14:41:35.213Z</time></trkpt><trkpt lat="46.1122917" lon="13.2700717"><ele>129.33333333333334</ele><time>2026-04-24T14:41:36.214Z</time></trkpt><trkpt lat="46.1124314" lon="13.2699334"><ele>129.0</ele><time>2026-04-24T14:41:37.215Z</time></trkpt><trkpt lat="46.1125818" lon="13.269784"><ele>129.33333333333334</ele><time>2026-04-24T14:41:38.214Z</time></trkpt><trkpt lat="46.1127351" lon="13.2696311"><ele>129.66666666666669</ele><time>2026-04-24T14:41:39.214Z</time></trkpt><trkpt lat="46.1128917" lon="13.2694751"><ele>130.0</ele><time>2026-04-24T14:41:40.214Z</time></trkpt><trkpt lat="46.1130604" lon="13.2693116"><ele>130.0</ele><time>2026-04-24T14:41:41.215Z</time></trkpt><trkpt lat="46.1132358" lon="13.269136"><ele>130.0</ele><time>2026-04-24T14:41:42.214Z</time></trkpt><trkpt lat="46.11342" lon="13.2689506"><ele>130.0</ele><time>2026-04-24T14:41:43.214Z</time></trkpt><trkpt lat="46.1136055" lon="13.2687662"><ele>130.66666666666669</ele><time>2026-04-24T14:41:44.213Z</time></trkpt><trkpt lat="46.1137879" lon="13.2685823"><ele>131.33333333333334</ele><time>2026-04-24T14:41:45.213Z</time></trkpt><trkpt lat="46.1139686" lon="13.2684058"><ele>132.0</ele><time>2026-04-24T14:41:46.215Z</time></trkpt><trkpt lat="46.1141454" lon="13.2682278"><ele>131.66666666666666</ele><time>2026-04-24T14:41:47.214Z</time></trkpt><trkpt lat="46.1143228" lon="13.2680515"><ele>131.33333333333331</ele><time>2026-04-24T14:41:48.214Z</time></trkpt><trkpt lat="46.1145001" lon="13.267877"><ele>131.0</ele><time>2026-04-24T14:41:49.214Z</time></trkpt><trkpt lat="46.1146778" lon="13.2677019"><ele>131.0</ele><time>2026-04-24T14:41:50.214Z</time></trkpt><trkpt lat="46.1148575" lon="13.2675247"><ele>131.0</ele><time>2026-04-24T14:41:51.214Z</time></trkpt><trkpt lat="46.1150375" lon="13.2673462"><ele>131.0</ele><time>2026-04-24T14:41:52.214Z</time></trkpt><trkpt lat="46.1152221" lon="13.26717"><ele>131.33333333333331</ele><time>2026-04-24T14:41:53.214Z</time></trkpt><trkpt lat="46.1154111" lon="13.2670114"><ele>131.66666666666666</ele><time>2026-04-24T14:41:54.215Z</time></trkpt><trkpt lat="46.1156088" lon="13.2668631"><ele>132.0</ele><time>2026-04-24T14:41:55.214Z</time></trkpt><trkpt lat="46.1158151" lon="13.266735"><ele>132.0</ele><time>2026-04-24T14:41:56.213Z</time></trkpt><trkpt lat="46.1160262" lon="13.2666149"><ele>132.0</ele><time>2026-04-24T14:41:57.214Z</time></trkpt><trkpt lat="46.1162397" lon="13.2664983"><ele>132.0</ele><time>2026-04-24T14:41:58.214Z</time></trkpt><trkpt lat="46.1164575" lon="13.2664012"><ele>132.0</ele><time>2026-04-24T14:41:59.213Z</time></trkpt><trkpt lat="46.1166733" lon="13.2662924"><ele>132.0</ele><time>2026-04-24T14:42:00.214Z</time></trkpt><trkpt lat="46.1168843" lon="13.2661774"><ele>132.0</ele><time>2026-04-24T14:42:01.214Z</time></trkpt><trkpt lat="46.1170934" lon="13.2660442"><ele>132.0</ele><time>2026-04-24T14:42:02.214Z</time></trkpt><trkpt lat="46.1172944" lon="13.2658939"><ele>132.0</ele><time>2026-04-24T14:42:03.213Z</time></trkpt><trkpt lat="46.117492" lon="13.2657287"><ele>132.0</ele><time>2026-04-24T14:42:04.213Z</time></trkpt><trkpt lat="46.1176891" lon="13.2655515"><ele>132.0</ele><time>2026-04-24T14:42:05.214Z</time></trkpt><trkpt lat="46.1178798" lon="13.2653543"><ele>132.0</ele><time>2026-04-24T14:42:06.214Z</time></trkpt><trkpt lat="46.1180649" lon="13.2651502"><ele>132.0</ele><time>2026-04-24T14:42:07.214Z</time></trkpt><trkpt lat="46.1182405" lon="13.2649269"><ele>133.0</ele><time>2026-04-24T14:42:08.214Z</time></trkpt><trkpt lat="46.1184074" lon="13.2646909"><ele>134.0</ele><time>2026-04-24T14:42:09.213Z</time></trkpt><trkpt lat="46.1185648" lon="13.264439"><ele>134.0</ele><time>2026-04-24T14:42:10.214Z</time></trkpt><trkpt lat="46.1187151" lon="13.2641792"><ele>134.0</ele><time>2026-04-24T14:42:11.213Z</time></trkpt><trkpt lat="46.1188533" lon="13.2639104"><ele>134.0</ele><time>2026-04-24T14:42:12.213Z</time></trkpt><trkpt lat="46.1189785" lon="13.2636229"><ele>134.0</ele><time>2026-04-24T14:42:13.215Z</time></trkpt><trkpt lat="46.1190959" lon="13.2633257"><ele>134.0</ele><time>2026-04-24T14:42:14.214Z</time></trkpt><trkpt lat="46.1191998" lon="13.2630188"><ele>134.0</ele><time>2026-04-24T14:42:15.215Z</time></trkpt><trkpt lat="46.1192953" lon="13.2627047"><ele>134.0</ele><time>2026-04-24T14:42:16.214Z</time></trkpt><trkpt lat="46.1193758" lon="13.26238"><ele>134.0</ele><time>2026-04-24T14:42:17.214Z</time></trkpt><trkpt lat="46.1194503" lon="13.2620486"><ele>134.5</ele><time>2026-04-24T14:42:18.214Z</time></trkpt><trkpt lat="46.1195091" lon="13.2617025"><ele>135.0</ele><time>2026-04-24T14:42:19.214Z</time></trkpt><trkpt lat="46.1195554" lon="13.2613457"><ele>135.5</ele><time>2026-04-24T14:42:20.214Z</time></trkpt><trkpt lat="46.119586" lon="13.2609838"><ele>136.0</ele><time>2026-04-24T14:42:21.213Z</time></trkpt><trkpt lat="46.1196026" lon="13.260613"><ele>136.0</ele><time>2026-04-24T14:42:22.214Z</time></trkpt><trkpt lat="46.119612" lon="13.2602268"><ele>136.0</ele><time>2026-04-24T14:42:23.215Z</time></trkpt><trkpt lat="46.1196106" lon="13.2598302"><ele>136.0</ele><time>2026-04-24T14:42:24.215Z</time></trkpt><trkpt lat="46.1196023" lon="13.2594202"><ele>136.0</ele><time>2026-04-24T14:42:25.213Z</time></trkpt><trkpt lat="46.1195856" lon="13.2590241"><ele>135.5</ele><time>2026-04-24T14:42:26.214Z</time></trkpt><trkpt lat="46.119562" lon="13.2586157"><ele>135.0</ele><time>2026-04-24T14:42:27.213Z</time></trkpt><trkpt lat="46.1195353" lon="13.2582043"><ele>135.0</ele><time>2026-04-24T14:42:28.214Z</time></trkpt><trkpt lat="46.119506" lon="13.2577838"><ele>135.0</ele><time>2026-04-24T14:42:29.215Z</time></trkpt><trkpt lat="46.1194785" lon="13.257354"><ele>136.0</ele><time>2026-04-24T14:42:30.215Z</time></trkpt><trkpt lat="46.1194512" lon="13.2569197"><ele>137.0</ele><time>2026-04-24T14:42:31.215Z</time></trkpt><trkpt lat="46.1194232" lon="13.2564764"><ele>137.0</ele><time>2026-04-24T14:42:32.213Z</time></trkpt><trkpt lat="46.1193965" lon="13.2560231"><ele>137.0</ele><time>2026-04-24T14:42:33.215Z</time></trkpt><trkpt lat="46.1193688" lon="13.2555722"><ele>137.0</ele><time>2026-04-24T14:42:34.214Z</time></trkpt><trkpt lat="46.1193428" lon="13.2551419"><ele>137.0</ele><time>2026-04-24T14:42:35.214Z</time></trkpt><trkpt lat="46.1193202" lon="13.2547261"><ele>135.5</ele><time>2026-04-24T14:42:36.213Z</time></trkpt><trkpt lat="46.1192978" lon="13.2543276"><ele>134.0</ele><time>2026-04-24T14:42:37.213Z</time></trkpt><trkpt lat="46.1192744" lon="13.2539541"><ele>132.5</ele><time>2026-04-24T14:42:38.213Z</time></trkpt><trkpt lat="46.119255" lon="13.2536019"><ele>131.0</ele><time>2026-04-24T14:42:39.213Z</time></trkpt><trkpt lat="46.1192367" lon="13.2532683"><ele>130.66666666666666</ele><time>2026-04-24T14:42:40.214Z</time></trkpt><trkpt lat="46.1192198" lon="13.2529501"><ele>130.33333333333334</ele><time>2026-04-24T14:42:41.214Z</time></trkpt><trkpt lat="46.1192038" lon="13.2526406"><ele>130.0</ele><time>2026-04-24T14:42:42.215Z</time></trkpt><trkpt lat="46.1191903" lon="13.2523453"><ele>131.33333333333334</ele><time>2026-04-24T14:42:43.215Z</time></trkpt><trkpt lat="46.119179" lon="13.2520609"><ele>132.66666666666666</ele><time>2026-04-24T14:42:44.215Z</time></trkpt><trkpt lat="46.1191718" lon="13.2517893"><ele>134.0</ele><time>2026-04-24T14:42:45.214Z</time></trkpt><trkpt lat="46.1191689" lon="13.2515279"><ele>134.0</ele><time>2026-04-24T14:42:46.213Z</time></trkpt><trkpt lat="46.1191722" lon="13.251298"><ele>134.0</ele><time>2026-04-24T14:42:47.213Z</time></trkpt><trkpt lat="46.1191882" lon="13.2510934"><ele>134.0</ele><time>2026-04-24T14:42:48.213Z</time></trkpt><trkpt lat="46.1192144" lon="13.2509128"><ele>134.0</ele><time>2026-04-24T14:42:49.214Z</time></trkpt><trkpt lat="46.1192625" lon="13.2507567"><ele>134.0</ele><time>2026-04-24T14:42:50.213Z</time></trkpt><trkpt lat="46.1193264" lon="13.2506312"><ele>134.0</ele><time>2026-04-24T14:42:51.214Z</time></trkpt><trkpt lat="46.1194064" lon="13.2505363"><ele>134.0</ele><time>2026-04-24T14:42:52.212Z</time></trkpt><trkpt lat="46.1195029" lon="13.2504828"><ele>134.0</ele><time>2026-04-24T14:42:53.213Z</time></trkpt><trkpt lat="46.1196122" lon="13.2504776"><ele>134.0</ele><time>2026-04-24T14:42:54.213Z</time></trkpt><trkpt lat="46.1197201" lon="13.2505197"><ele>134.0</ele><time>2026-04-24T14:42:55.213Z</time></trkpt><trkpt lat="46.1198138" lon="13.2506083"><ele>134.0</ele><time>2026-04-24T14:42:56.213Z</time></trkpt><trkpt lat="46.1198771" lon="13.250733"><ele>134.0</ele><time>2026-04-24T14:42:57.212Z</time></trkpt><trkpt lat="46.1199091" lon="13.250883"><ele>134.0</ele><time>2026-04-24T14:42:58.214Z</time></trkpt><trkpt lat="46.1199196" lon="13.2510213"><ele>134.0</ele><time>2026-04-24T14:42:59.213Z</time></trkpt><trkpt lat="46.119928" lon="13.2511377"><ele>134.2</ele><time>2026-04-24T14:43:00.213Z</time></trkpt><trkpt lat="46.1199494" lon="13.2512595"><ele>134.4</ele><time>2026-04-24T14:43:02.213Z</time></trkpt><trkpt lat="46.1200483" lon="13.2513727"><ele>134.6</ele><time>2026-04-24T14:43:12.212Z</time></trkpt><trkpt lat="46.1201483" lon="13.2513822"><ele>134.8</ele><time>2026-04-24T14:43:13.213Z</time></trkpt><trkpt lat="46.1202723" lon="13.2513638"><ele>135.0</ele><time>2026-04-24T14:43:14.214Z</time></trkpt><trkpt lat="46.1204262" lon="13.2513358"><ele>135.0</ele><time>2026-04-24T14:43:15.212Z</time></trkpt><trkpt lat="46.1205891" lon="13.2513091"><ele>135.0</ele><time>2026-04-24T14:43:16.213Z</time></trkpt><trkpt lat="46.1207494" lon="13.2512797"><ele>135.0</ele><time>2026-04-24T14:43:17.213Z</time></trkpt><trkpt lat="46.1209082" lon="13.25125"><ele>135.0</ele><time>2026-04-24T14:43:18.213Z</time></trkpt><trkpt lat="46.1210753" lon="13.2512143"><ele>135.0</ele><time>2026-04-24T14:43:19.214Z</time></trkpt><trkpt lat="46.1212408" lon="13.251176"><ele>135.0</ele><time>2026-04-24T14:43:20.214Z</time></trkpt><trkpt lat="46.1214099" lon="13.251136"><ele>134.66666666666666</ele><time>2026-04-24T14:43:21.213Z</time></trkpt><trkpt lat="46.1215771" lon="13.2510965"><ele>134.33333333333331</ele><time>2026-04-24T14:43:22.212Z</time></trkpt><trkpt lat="46.121745" lon="13.2510577"><ele>134.0</ele><time>2026-04-24T14:43:23.213Z</time></trkpt><trkpt lat="46.1219151" lon="13.2510163"><ele>134.0</ele><time>2026-04-24T14:43:24.212Z</time></trkpt><trkpt lat="46.1220885" lon="13.2509724"><ele>134.0</ele><time>2026-04-24T14:43:25.212Z</time></trkpt><trkpt lat="46.1222601" lon="13.2509331"><ele>134.0</ele><time>2026-04-24T14:43:26.213Z</time></trkpt><trkpt lat="46.1224332" lon="13.2508961"><ele>135.0</ele><time>2026-04-24T14:43:27.213Z</time></trkpt><trkpt lat="46.1226097" lon="13.2508589"><ele>136.0</ele><time>2026-04-24T14:43:28.213Z</time></trkpt><trkpt lat="46.1227935" lon="13.2508278"><ele>137.0</ele><time>2026-04-24T14:43:29.213Z</time></trkpt><trkpt lat="46.1229948" lon="13.2508124"><ele>137.0</ele><time>2026-04-24T14:43:30.212Z</time></trkpt><trkpt lat="46.1232071" lon="13.2508158"><ele>137.0</ele><time>2026-04-24T14:43:31.213Z</time></trkpt><trkpt lat="46.1234109" lon="13.25082"><ele>137.0</ele><time>2026-04-24T14:43:32.213Z</time></trkpt><trkpt lat="46.1236209" lon="13.2508256"><ele>137.66666666666666</ele><time>2026-04-24T14:43:33.213Z</time></trkpt><trkpt lat="46.1238438" lon="13.2508385"><ele>138.33333333333334</ele><time>2026-04-24T14:43:34.214Z</time></trkpt><trkpt lat="46.1240685" lon="13.2508499"><ele>139.0</ele><time>2026-04-24T14:43:35.212Z</time></trkpt><trkpt lat="46.1242893" lon="13.2508621"><ele>138.66666666666669</ele><time>2026-04-24T14:43:36.214Z</time></trkpt><trkpt lat="46.1245087" lon="13.2508741"><ele>138.33333333333334</ele><time>2026-04-24T14:43:37.212Z</time></trkpt><trkpt lat="46.1247268" lon="13.2508847"><ele>138.0</ele><time>2026-04-24T14:43:38.213Z</time></trkpt><trkpt lat="46.1249429" lon="13.2508951"><ele>138.0</ele><time>2026-04-24T14:43:39.213Z</time></trkpt><trkpt lat="46.125161" lon="13.2509063"><ele>138.0</ele><time>2026-04-24T14:43:40.212Z</time></trkpt><trkpt lat="46.1253793" lon="13.250916"><ele>138.0</ele><time>2026-04-24T14:43:41.214Z</time></trkpt><trkpt lat="46.1255958" lon="13.2509249"><ele>138.0</ele><time>2026-04-24T14:43:42.214Z</time></trkpt><trkpt lat="46.1258133" lon="13.2509308"><ele>138.0</ele><time>2026-04-24T14:43:43.213Z</time></trkpt><trkpt lat="46.1260304" lon="13.2509386"><ele>138.0</ele><time>2026-04-24T14:43:44.212Z</time></trkpt><trkpt lat="46.1262463" lon="13.2509511"><ele>138.0</ele><time>2026-04-24T14:43:45.213Z</time></trkpt><trkpt lat="46.1264605" lon="13.2509607"><ele>138.0</ele><time>2026-04-24T14:43:46.213Z</time></trkpt><trkpt lat="46.1266746" lon="13.2509684"><ele>138.0</ele><time>2026-04-24T14:43:47.213Z</time></trkpt><trkpt lat="46.1268879" lon="13.2509751"><ele>138.0</ele><time>2026-04-24T14:43:48.214Z</time></trkpt><trkpt lat="46.127097" lon="13.2509859"><ele>138.0</ele><time>2026-04-24T14:43:49.212Z</time></trkpt><trkpt lat="46.1273064" lon="13.2510005"><ele>138.0</ele><time>2026-04-24T14:43:50.214Z</time></trkpt><trkpt lat="46.1275057" lon="13.2510072"><ele>138.0</ele><time>2026-04-24T14:43:51.213Z</time></trkpt><trkpt lat="46.1276933" lon="13.2510145"><ele>138.0</ele><time>2026-04-24T14:43:52.213Z</time></trkpt><trkpt lat="46.1278614" lon="13.2510203"><ele>138.0</ele><time>2026-04-24T14:43:53.213Z</time></trkpt><trkpt lat="46.1280079" lon="13.2510248"><ele>138.0</ele><time>2026-04-24T14:43:54.213Z</time></trkpt><trkpt lat="46.1281368" lon="13.2510307"><ele>138.0</ele><time>2026-04-24T14:43:55.212Z</time></trkpt><trkpt lat="46.1282475" lon="13.2510413"><ele>138.0</ele><time>2026-04-24T14:43:56.213Z</time></trkpt><trkpt lat="46.1283404" lon="13.2510653"><ele>138.0</ele><time>2026-04-24T14:43:57.212Z</time></trkpt><trkpt lat="46.1284194" lon="13.2511156"><ele>138.0</ele><time>2026-04-24T14:43:58.213Z</time></trkpt><trkpt lat="46.1284928" lon="13.2511973"><ele>138.4</ele><time>2026-04-24T14:43:59.213Z</time></trkpt><trkpt lat="46.1285664" lon="13.2512787"><ele>138.8</ele><time>2026-04-24T14:44:00.213Z</time></trkpt><trkpt lat="46.128631" lon="13.2513285"><ele>139.2</ele><time>2026-04-24T14:44:01.213Z</time></trkpt><trkpt lat="46.1287186" lon="13.2513638"><ele>139.6</ele><time>2026-04-24T14:44:03.214Z</time></trkpt><trkpt lat="46.1288154" lon="13.2512581"><ele>140.0</ele><time>2026-04-24T14:44:55.213Z</time></trkpt><trkpt lat="46.1288717" lon="13.25119"><ele>140.0</ele><time>2026-04-24T14:44:56.213Z</time></trkpt><trkpt lat="46.1289458" lon="13.2511343"><ele>140.0</ele><time>2026-04-24T14:44:57.213Z</time></trkpt><trkpt lat="46.1290518" lon="13.2510904"><ele>140.0</ele><time>2026-04-24T14:44:58.212Z</time></trkpt><trkpt lat="46.1291883" lon="13.2510752"><ele>140.0</ele><time>2026-04-24T14:44:59.213Z</time></trkpt><trkpt lat="46.1293307" lon="13.2510774"><ele>140.0</ele><time>2026-04-24T14:45:00.213Z</time></trkpt><trkpt lat="46.129477" lon="13.2510783"><ele>140.0</ele><time>2026-04-24T14:45:01.212Z</time></trkpt><trkpt lat="46.1296312" lon="13.2510811"><ele>140.0</ele><time>2026-04-24T14:45:02.212Z</time></trkpt><trkpt lat="46.129791" lon="13.2510864"><ele>140.66666666666666</ele><time>2026-04-24T14:45:03.213Z</time></trkpt><trkpt lat="46.1299547" lon="13.2510928"><ele>141.33333333333334</ele><time>2026-04-24T14:45:04.212Z</time></trkpt><trkpt lat="46.1301184" lon="13.2511053"><ele>142.0</ele><time>2026-04-24T14:45:05.212Z</time></trkpt><trkpt lat="46.1302853" lon="13.2511211"><ele>142.0</ele><time>2026-04-24T14:45:06.213Z</time></trkpt><trkpt lat="46.1304607" lon="13.2511319"><ele>142.0</ele><time>2026-04-24T14:45:07.212Z</time></trkpt><trkpt lat="46.1306372" lon="13.2511407"><ele>142.0</ele><time>2026-04-24T14:45:08.214Z</time></trkpt><trkpt lat="46.1308122" lon="13.2511481"><ele>142.0</ele><time>2026-04-24T14:45:09.213Z</time></trkpt><trkpt lat="46.1309874" lon="13.2511529"><ele>142.0</ele><time>2026-04-24T14:45:10.213Z</time></trkpt><trkpt lat="46.1311629" lon="13.2511609"><ele>142.0</ele><time>2026-04-24T14:45:11.213Z</time></trkpt><trkpt lat="46.1313363" lon="13.2511693"><ele>142.0</ele><time>2026-04-24T14:45:12.213Z</time></trkpt><trkpt lat="46.1315089" lon="13.2511827"><ele>142.0</ele><time>2026-04-24T14:45:13.214Z</time></trkpt><trkpt lat="46.1316803" lon="13.2511905"><ele>142.0</ele><time>2026-04-24T14:45:14.213Z</time></trkpt><trkpt lat="46.1318522" lon="13.2511983"><ele>142.0</ele><time>2026-04-24T14:45:15.213Z</time></trkpt><trkpt lat="46.1320237" lon="13.251203"><ele>142.0</ele><time>2026-04-24T14:45:16.214Z</time></trkpt><trkpt lat="46.1321925" lon="13.25121"><ele>142.0</ele><time>2026-04-24T14:45:17.214Z</time></trkpt><trkpt lat="46.1323603" lon="13.2512165"><ele>142.33333333333334</ele><time>2026-04-24T14:45:18.212Z</time></trkpt><trkpt lat="46.1325272" lon="13.2512228"><ele>142.66666666666666</ele><time>2026-04-24T14:45:19.212Z</time></trkpt><trkpt lat="46.1326955" lon="13.2512284"><ele>143.0</ele><time>2026-04-24T14:45:20.212Z</time></trkpt><trkpt lat="46.1328633" lon="13.2512342"><ele>143.0</ele><time>2026-04-24T14:45:21.212Z</time></trkpt><trkpt lat="46.1330311" lon="13.251244"><ele>143.0</ele><time>2026-04-24T14:45:22.212Z</time></trkpt><trkpt lat="46.133198" lon="13.2512508"><ele>143.0</ele><time>2026-04-24T14:45:23.214Z</time></trkpt><trkpt lat="46.1333626" lon="13.2512598"><ele>143.33333333333331</ele><time>2026-04-24T14:45:24.213Z</time></trkpt><trkpt lat="46.1335261" lon="13.2512634"><ele>143.66666666666666</ele><time>2026-04-24T14:45:25.213Z</time></trkpt><trkpt lat="46.1336859" lon="13.251266"><ele>144.0</ele><time>2026-04-24T14:45:26.213Z</time></trkpt><trkpt lat="46.1338336" lon="13.2512716"><ele>144.0</ele><time>2026-04-24T14:45:27.213Z</time></trkpt><trkpt lat="46.1339698" lon="13.2512782"><ele>144.0</ele><time>2026-04-24T14:45:28.213Z</time></trkpt><trkpt lat="46.1340912" lon="13.2512837"><ele>144.0</ele><time>2026-04-24T14:45:29.214Z</time></trkpt><trkpt lat="46.1342001" lon="13.2512892"><ele>144.0</ele><time>2026-04-24T14:45:30.213Z</time></trkpt><trkpt lat="46.1343045" lon="13.2512924"><ele>144.25</ele><time>2026-04-24T14:45:31.214Z</time></trkpt><trkpt lat="46.134416" lon="13.2512924"><ele>144.5</ele><time>2026-04-24T14:45:32.214Z</time></trkpt><trkpt lat="46.1345277" lon="13.2512997"><ele>144.75</ele><time>2026-04-24T14:45:33.214Z</time></trkpt><trkpt lat="46.134641" lon="13.2512993"><ele>145.0</ele><time>2026-04-24T14:45:34.213Z</time></trkpt><trkpt lat="46.1347544" lon="13.2512988"><ele>145.0</ele><time>2026-04-24T14:45:35.214Z</time></trkpt><trkpt lat="46.1348689" lon="13.251299"><ele>145.0</ele><time>2026-04-24T14:45:36.213Z</time></trkpt><trkpt lat="46.1349796" lon="13.2513045"><ele>145.0</ele><time>2026-04-24T14:45:37.213Z</time></trkpt><trkpt lat="46.1350778" lon="13.2513153"><ele>145.0</ele><time>2026-04-24T14:45:38.212Z</time></trkpt><trkpt lat="46.1351685" lon="13.2513211"><ele>145.0</ele><time>2026-04-24T14:45:39.214Z</time></trkpt><trkpt lat="46.1352511" lon="13.2513295"><ele>145.4</ele><time>2026-04-24T14:45:40.212Z</time></trkpt><trkpt lat="46.1353246" lon="13.2513337"><ele>145.8</ele><time>2026-04-24T14:45:41.212Z</time></trkpt><trkpt lat="46.1354391" lon="13.2513375"><ele>146.2</ele><time>2026-04-24T14:45:43.213Z</time></trkpt><trkpt lat="46.1355582" lon="13.251342"><ele>146.6</ele><time>2026-04-24T14:45:45.214Z</time></trkpt><trkpt lat="46.1356262" lon="13.2513465"><ele>147.0</ele><time>2026-04-24T14:45:46.212Z</time></trkpt><trkpt lat="46.1357004" lon="13.2513572"><ele>147.16666666666666</ele><time>2026-04-24T14:45:47.212Z</time></trkpt><trkpt lat="46.1357839" lon="13.2513694"><ele>147.33333333333334</ele><time>2026-04-24T14:45:48.213Z</time></trkpt><trkpt lat="46.1358693" lon="13.2513795"><ele>147.5</ele><time>2026-04-24T14:45:49.213Z</time></trkpt><trkpt lat="46.1359542" lon="13.2513901"><ele>147.66666666666669</ele><time>2026-04-24T14:45:50.213Z</time></trkpt><trkpt lat="46.1360343" lon="13.251401"><ele>147.83333333333334</ele><time>2026-04-24T14:45:51.214Z</time></trkpt><trkpt lat="46.1361102" lon="13.2514142"><ele>148.0</ele><time>2026-04-24T14:45:52.212Z</time></trkpt><trkpt lat="46.1361815" lon="13.2514283"><ele>148.0</ele><time>2026-04-24T14:45:53.212Z</time></trkpt><trkpt lat="46.1362841" lon="13.2514433"><ele>148.0</ele><time>2026-04-24T14:45:55.213Z</time></trkpt><trkpt lat="46.1363523" lon="13.2513527"><ele>148.0</ele><time>2026-04-24T14:46:00.212Z</time></trkpt><trkpt lat="46.1363659" lon="13.2512564"><ele>148.0</ele><time>2026-04-24T14:46:01.213Z</time></trkpt><trkpt lat="46.1363767" lon="13.2511411"><ele>148.0</ele><time>2026-04-24T14:46:02.213Z</time></trkpt><trkpt lat="46.1363803" lon="13.2509636"><ele>148.0</ele><time>2026-04-24T14:46:03.213Z</time></trkpt><trkpt lat="46.1363888" lon="13.2508197"><ele>148.0</ele><time>2026-04-24T14:46:04.212Z</time></trkpt><trkpt lat="46.1363922" lon="13.2506643"><ele>148.0</ele><time>2026-04-24T14:46:05.212Z</time></trkpt><trkpt lat="46.1363952" lon="13.2504953"><ele>148.0</ele><time>2026-04-24T14:46:06.213Z</time></trkpt><trkpt lat="46.1363968" lon="13.2503239"><ele>148.0</ele><time>2026-04-24T14:46:07.213Z</time></trkpt><trkpt lat="46.1363933" lon="13.2501428"><ele>147.75</ele><time>2026-04-24T14:46:08.211Z</time></trkpt><trkpt lat="46.1363921" lon="13.2499564"><ele>147.5</ele><time>2026-04-24T14:46:09.212Z</time></trkpt><trkpt lat="46.1363906" lon="13.2497733"><ele>147.25</ele><time>2026-04-24T14:46:10.211Z</time></trkpt><trkpt lat="46.1363901" lon="13.2495979"><ele>147.0</ele><time>2026-04-24T14:46:11.213Z</time></trkpt><trkpt lat="46.1363955" lon="13.2494319"><ele>147.16666666666666</ele><time>2026-04-24T14:46:12.212Z</time></trkpt><trkpt lat="46.1364035" lon="13.249285"><ele>147.33333333333334</ele><time>2026-04-24T14:46:13.212Z</time></trkpt><trkpt lat="46.1364101" lon="13.2491481"><ele>147.5</ele><time>2026-04-24T14:46:14.213Z</time></trkpt><trkpt lat="46.1364183" lon="13.2490158"><ele>147.66666666666669</ele><time>2026-04-24T14:46:15.213Z</time></trkpt><trkpt lat="46.1364333" lon="13.2489237"><ele>147.83333333333334</ele><time>2026-04-24T14:46:16.212Z</time></trkpt><trkpt lat="46.136444" lon="13.2488311"><ele>148.0</ele><time>2026-04-24T14:46:17.211Z</time></trkpt><trkpt lat="46.1365247" lon="13.2488511"><ele>148.0</ele><time>2026-04-24T14:46:18.213Z</time></trkpt><trkpt lat="46.1366626" lon="13.2489215"><ele>148.0</ele><time>2026-04-24T14:46:20.213Z</time></trkpt><trkpt lat="46.1367629" lon="13.2489471"><ele>148.0</ele><time>2026-04-24T14:46:21.212Z</time></trkpt><trkpt lat="46.1368649" lon="13.2489464"><ele>148.0</ele><time>2026-04-24T14:46:22.212Z</time></trkpt><trkpt lat="46.1369863" lon="13.2489436"><ele>148.0</ele><time>2026-04-24T14:46:23.213Z</time></trkpt><trkpt lat="46.1371139" lon="13.2489409"><ele>148.0</ele><time>2026-04-24T14:46:24.212Z</time></trkpt><trkpt lat="46.1372422" lon="13.2489386"><ele>148.0</ele><time>2026-04-24T14:46:25.212Z</time></trkpt><trkpt lat="46.1373709" lon="13.2489374"><ele>148.0</ele><time>2026-04-24T14:46:26.213Z</time></trkpt><trkpt lat="46.137502" lon="13.2489353"><ele>148.5</ele><time>2026-04-24T14:46:27.211Z</time></trkpt><trkpt lat="46.1376356" lon="13.2489291"><ele>149.0</ele><time>2026-04-24T14:46:28.212Z</time></trkpt><trkpt lat="46.1377654" lon="13.2489181"><ele>149.5</ele><time>2026-04-24T14:46:29.211Z</time></trkpt><trkpt lat="46.1378911" lon="13.2489071"><ele>150.0</ele><time>2026-04-24T14:46:30.211Z</time></trkpt><trkpt lat="46.1380226" lon="13.2489025"><ele>150.0</ele><time>2026-04-24T14:46:31.213Z</time></trkpt><trkpt lat="46.1381542" lon="13.2489221"><ele>150.0</ele><time>2026-04-24T14:46:32.211Z</time></trkpt><trkpt lat="46.1382798" lon="13.248959"><ele>150.0</ele><time>2026-04-24T14:46:33.212Z</time></trkpt><trkpt lat="46.1384051" lon="13.2490002"><ele>150.0</ele><time>2026-04-24T14:46:34.212Z</time></trkpt><trkpt lat="46.1385317" lon="13.2490425"><ele>150.0</ele><time>2026-04-24T14:46:35.212Z</time></trkpt><trkpt lat="46.1386569" lon="13.2490776"><ele>150.0</ele><time>2026-04-24T14:46:36.212Z</time></trkpt><trkpt lat="46.1387856" lon="13.2491091"><ele>150.0</ele><time>2026-04-24T14:46:37.212Z</time></trkpt><trkpt lat="46.1389146" lon="13.2491393"><ele>150.0</ele><time>2026-04-24T14:46:38.211Z</time></trkpt><trkpt lat="46.1390395" lon="13.249166"><ele>150.0</ele><time>2026-04-24T14:46:39.212Z</time></trkpt><trkpt lat="46.1391561" lon="13.249186"><ele>150.0</ele><time>2026-04-24T14:46:40.211Z</time></trkpt><trkpt lat="46.1392649" lon="13.2492109"><ele>150.0</ele><time>2026-04-24T14:46:41.213Z</time></trkpt><trkpt lat="46.1393659" lon="13.2492535"><ele>150.0</ele><time>2026-04-24T14:46:42.213Z</time></trkpt><trkpt lat="46.1394621" lon="13.2492988"><ele>150.0</ele><time>2026-04-24T14:46:43.211Z</time></trkpt><trkpt lat="46.1395568" lon="13.249342"><ele>150.0</ele><time>2026-04-24T14:46:44.211Z</time></trkpt><trkpt lat="46.1396546" lon="13.2493804"><ele>150.0</ele><time>2026-04-24T14:46:45.212Z</time></trkpt><trkpt lat="46.1397556" lon="13.2494025"><ele>150.0</ele><time>2026-04-24T14:46:46.212Z</time></trkpt><trkpt lat="46.1398601" lon="13.249418"><ele>150.0</ele><time>2026-04-24T14:46:47.212Z</time></trkpt><trkpt lat="46.1399721" lon="13.2494228"><ele>150.0</ele><time>2026-04-24T14:46:48.212Z</time></trkpt><trkpt lat="46.1400898" lon="13.2494278"><ele>150.25</ele><time>2026-04-24T14:46:49.212Z</time></trkpt><trkpt lat="46.1402091" lon="13.2494283"><ele>150.5</ele><time>2026-04-24T14:46:50.213Z</time></trkpt><trkpt lat="46.1403328" lon="13.2494323"><ele>150.75</ele><time>2026-04-24T14:46:51.213Z</time></trkpt><trkpt lat="46.1404617" lon="13.2494337"><ele>151.0</ele><time>2026-04-24T14:46:52.212Z</time></trkpt><trkpt lat="46.1405957" lon="13.2494269"><ele>151.0</ele><time>2026-04-24T14:46:53.213Z</time></trkpt><trkpt lat="46.140732" lon="13.2494223"><ele>151.0</ele><time>2026-04-24T14:46:54.213Z</time></trkpt><trkpt lat="46.1408718" lon="13.2494178"><ele>151.0</ele><time>2026-04-24T14:46:55.213Z</time></trkpt><trkpt lat="46.141015" lon="13.2494173"><ele>151.0</ele><time>2026-04-24T14:46:56.212Z</time></trkpt><trkpt lat="46.1411598" lon="13.249412"><ele>151.0</ele><time>2026-04-24T14:46:57.213Z</time></trkpt><trkpt lat="46.1412977" lon="13.2494059"><ele>151.0</ele><time>2026-04-24T14:46:58.212Z</time></trkpt><trkpt lat="46.1414237" lon="13.2494039"><ele>151.0</ele><time>2026-04-24T14:46:59.213Z</time></trkpt><trkpt lat="46.1415394" lon="13.2494073"><ele>151.0</ele><time>2026-04-24T14:47:00.212Z</time></trkpt><trkpt lat="46.1416503" lon="13.2494126"><ele>151.4</ele><time>2026-04-24T14:47:01.211Z</time></trkpt><trkpt lat="46.1417534" lon="13.2494218"><ele>151.8</ele><time>2026-04-24T14:47:02.211Z</time></trkpt><trkpt lat="46.1418533" lon="13.249441"><ele>152.20000000000002</ele><time>2026-04-24T14:47:03.211Z</time></trkpt><trkpt lat="46.1419597" lon="13.2494693"><ele>152.6</ele><time>2026-04-24T14:47:04.212Z</time></trkpt><trkpt lat="46.1420683" lon="13.2495018"><ele>153.0</ele><time>2026-04-24T14:47:05.212Z</time></trkpt><trkpt lat="46.142178" lon="13.2495262"><ele>153.0</ele><time>2026-04-24T14:47:06.213Z</time></trkpt><trkpt lat="46.1422925" lon="13.2495446"><ele>153.0</ele><time>2026-04-24T14:47:07.212Z</time></trkpt><trkpt lat="46.1424119" lon="13.2495676"><ele>153.0</ele><time>2026-04-24T14:47:08.212Z</time></trkpt><trkpt lat="46.1425352" lon="13.2495804"><ele>153.0</ele><time>2026-04-24T14:47:09.213Z</time></trkpt><trkpt lat="46.1426581" lon="13.2495918"><ele>153.25</ele><time>2026-04-24T14:47:10.212Z</time></trkpt><trkpt lat="46.1427867" lon="13.2495988"><ele>153.5</ele><time>2026-04-24T14:47:11.212Z</time></trkpt><trkpt lat="46.142916" lon="13.2496028"><ele>153.75</ele><time>2026-04-24T14:47:12.212Z</time></trkpt><trkpt lat="46.1430446" lon="13.249603"><ele>154.0</ele><time>2026-04-24T14:47:13.212Z</time></trkpt><trkpt lat="46.1431775" lon="13.2496033"><ele>154.0</ele><time>2026-04-24T14:47:14.211Z</time></trkpt><trkpt lat="46.1433107" lon="13.2496001"><ele>154.0</ele><time>2026-04-24T14:47:15.212Z</time></trkpt><trkpt lat="46.1434319" lon="13.2495904"><ele>154.0</ele><time>2026-04-24T14:47:16.211Z</time></trkpt><trkpt lat="46.1435455" lon="13.2495624"><ele>154.0</ele><time>2026-04-24T14:47:17.211Z</time></trkpt><trkpt lat="46.1436496" lon="13.2495234"><ele>154.0</ele><time>2026-04-24T14:47:18.212Z</time></trkpt><trkpt lat="46.1437449" lon="13.2494772"><ele>154.0</ele><time>2026-04-24T14:47:19.211Z</time></trkpt><trkpt lat="46.1438176" lon="13.2494389"><ele>154.0</ele><time>2026-04-24T14:47:20.211Z</time></trkpt><trkpt lat="46.1438949" lon="13.2494253"><ele>154.0</ele><time>2026-04-24T14:47:22.213Z</time></trkpt><trkpt lat="46.1439371" lon="13.2495329"><ele>154.0</ele><time>2026-04-24T14:47:24.212Z</time></trkpt><trkpt lat="46.1439412" lon="13.2496326"><ele>154.0</ele><time>2026-04-24T14:47:25.212Z</time></trkpt><trkpt lat="46.1439548" lon="13.249767"><ele>153.8</ele><time>2026-04-24T14:47:26.212Z</time></trkpt><trkpt lat="46.1439677" lon="13.2498901"><ele>153.60000000000002</ele><time>2026-04-24T14:47:27.212Z</time></trkpt><trkpt lat="46.1439759" lon="13.2500212"><ele>153.4</ele><time>2026-04-24T14:47:28.212Z</time></trkpt><trkpt lat="46.1439793" lon="13.2501466"><ele>153.20000000000002</ele><time>2026-04-24T14:47:29.212Z</time></trkpt><trkpt lat="46.1439766" lon="13.2502811"><ele>153.0</ele><time>2026-04-24T14:47:30.213Z</time></trkpt><trkpt lat="46.1439734" lon="13.2504219"><ele>153.0</ele><time>2026-04-24T14:47:31.212Z</time></trkpt><trkpt lat="46.1439678" lon="13.2505689"><ele>153.0</ele><time>2026-04-24T14:47:32.211Z</time></trkpt><trkpt lat="46.143965" lon="13.2507206"><ele>153.0</ele><time>2026-04-24T14:47:33.212Z</time></trkpt><trkpt lat="46.1439567" lon="13.2508787"><ele>153.0</ele><time>2026-04-24T14:47:34.211Z</time></trkpt><trkpt lat="46.1439527" lon="13.25104"><ele>153.0</ele><time>2026-04-24T14:47:35.212Z</time></trkpt><trkpt lat="46.1439465" lon="13.2511973"><ele>153.0</ele><time>2026-04-24T14:47:36.212Z</time></trkpt><trkpt lat="46.143939" lon="13.251355"><ele>153.0</ele><time>2026-04-24T14:47:37.212Z</time></trkpt><trkpt lat="46.1439308" lon="13.2515157"><ele>153.0</ele><time>2026-04-24T14:47:38.211Z</time></trkpt><trkpt lat="46.1439247" lon="13.2516686"><ele>153.0</ele><time>2026-04-24T14:47:39.212Z</time></trkpt><trkpt lat="46.1439258" lon="13.2518086"><ele>153.0</ele><time>2026-04-24T14:47:40.212Z</time></trkpt><trkpt lat="46.1439311" lon="13.2519397"><ele>153.0</ele><time>2026-04-24T14:47:41.211Z</time></trkpt><trkpt lat="46.1439438" lon="13.2520656"><ele>153.0</ele><time>2026-04-24T14:47:42.213Z</time></trkpt><trkpt lat="46.1439611" lon="13.2521859"><ele>153.0</ele><time>2026-04-24T14:47:43.212Z</time></trkpt><trkpt lat="46.143986" lon="13.2523013"><ele>153.0</ele><time>2026-04-24T14:47:44.213Z</time></trkpt><trkpt lat="46.1440112" lon="13.2524146"><ele>153.0</ele><time>2026-04-24T14:47:45.212Z</time></trkpt><trkpt lat="46.1440404" lon="13.2525227"><ele>153.0</ele><time>2026-04-24T14:47:46.212Z</time></trkpt><trkpt lat="46.1440739" lon="13.2526274"><ele>152.85714285714286</ele><time>2026-04-24T14:47:47.213Z</time></trkpt><trkpt lat="46.1441054" lon="13.2527306"><ele>152.71428571428572</ele><time>2026-04-24T14:47:48.212Z</time></trkpt><trkpt lat="46.1441401" lon="13.2528257"><ele>152.57142857142856</ele><time>2026-04-24T14:47:49.212Z</time></trkpt><trkpt lat="46.1441693" lon="13.2529234"><ele>152.42857142857144</ele><time>2026-04-24T14:47:50.213Z</time></trkpt><trkpt lat="46.1441931" lon="13.253024"><ele>152.2857142857143</ele><time>2026-04-24T14:47:51.212Z</time></trkpt><trkpt lat="46.1442159" lon="13.2531232"><ele>152.14285714285714</ele><time>2026-04-24T14:47:52.212Z</time></trkpt><trkpt lat="46.1442359" lon="13.2532282"><ele>152.0</ele><time>2026-04-24T14:47:53.212Z</time></trkpt><trkpt lat="46.144256" lon="13.2533274"><ele>151.83333333333331</ele><time>2026-04-24T14:47:54.212Z</time></trkpt><trkpt lat="46.1442751" lon="13.2534309"><ele>151.66666666666666</ele><time>2026-04-24T14:47:55.212Z</time></trkpt><trkpt lat="46.1442894" lon="13.2535331"><ele>151.5</ele><time>2026-04-24T14:47:56.211Z</time></trkpt><trkpt lat="46.1443056" lon="13.2536345"><ele>151.33333333333334</ele><time>2026-04-24T14:47:57.213Z</time></trkpt><trkpt lat="46.1443185" lon="13.2537291"><ele>151.16666666666669</ele><time>2026-04-24T14:47:58.213Z</time></trkpt><trkpt lat="46.1443426" lon="13.2538808"><ele>151.0</ele><time>2026-04-24T14:48:00.213Z</time></trkpt><trkpt lat="46.1443863" lon="13.253957"><ele>151.0</ele><time>2026-04-24T14:48:02.211Z</time></trkpt><trkpt lat="46.1444823" lon="13.253974"><ele>151.0</ele><time>2026-04-24T14:48:04.211Z</time></trkpt><trkpt lat="46.1446086" lon="13.2539846"><ele>151.0</ele><time>2026-04-24T14:48:06.213Z</time></trkpt><trkpt lat="46.1446822" lon="13.2539898"><ele>151.0</ele><time>2026-04-24T14:48:07.212Z</time></trkpt><trkpt lat="46.1447585" lon="13.2539923"><ele>151.0</ele><time>2026-04-24T14:48:08.212Z</time></trkpt><trkpt lat="46.1448384" lon="13.2539936"><ele>151.5</ele><time>2026-04-24T14:48:09.212Z</time></trkpt><trkpt lat="46.1449199" lon="13.2539985"><ele>152.0</ele><time>2026-04-24T14:48:10.213Z</time></trkpt><trkpt lat="46.1450043" lon="13.254002"><ele>152.5</ele><time>2026-04-24T14:48:11.212Z</time></trkpt><trkpt lat="46.1450881" lon="13.2540038"><ele>153.0</ele><time>2026-04-24T14:48:12.211Z</time></trkpt><trkpt lat="46.145173" lon="13.2540031"><ele>153.5</ele><time>2026-04-24T14:48:13.212Z</time></trkpt><trkpt lat="46.1452562" lon="13.2540013"><ele>154.0</ele><time>2026-04-24T14:48:14.211Z</time></trkpt><trkpt lat="46.1453427" lon="13.2540031"><ele>154.0</ele><time>2026-04-24T14:48:15.212Z</time></trkpt><trkpt lat="46.1454281" lon="13.254006"><ele>154.0</ele><time>2026-04-24T14:48:16.211Z</time></trkpt><trkpt lat="46.1455165" lon="13.2540081"><ele>154.0</ele><time>2026-04-24T14:48:17.212Z</time></trkpt><trkpt lat="46.1456053" lon="13.2540104"><ele>154.0</ele><time>2026-04-24T14:48:18.212Z</time></trkpt><trkpt lat="46.1456924" lon="13.2540112"><ele>154.0</ele><time>2026-04-24T14:48:19.211Z</time></trkpt><trkpt lat="46.1457808" lon="13.2540106"><ele>154.0</ele><time>2026-04-24T14:48:20.212Z</time></trkpt><trkpt lat="46.1458693" lon="13.2540089"><ele>154.0</ele><time>2026-04-24T14:48:21.212Z</time></trkpt><trkpt lat="46.1459579" lon="13.254011"><ele>154.0</ele><time>2026-04-24T14:48:22.211Z</time></trkpt><trkpt lat="46.1460484" lon="13.2540121"><ele>154.0</ele><time>2026-04-24T14:48:23.211Z</time></trkpt><trkpt lat="46.1461353" lon="13.2540145"><ele>154.0</ele><time>2026-04-24T14:48:24.211Z</time></trkpt><trkpt lat="46.1462199" lon="13.2540197"><ele>154.0</ele><time>2026-04-24T14:48:25.211Z</time></trkpt><trkpt lat="46.1463083" lon="13.2540233"><ele>154.0</ele><time>2026-04-24T14:48:26.213Z</time></trkpt><trkpt lat="46.1463962" lon="13.2540271"><ele>154.0</ele><time>2026-04-24T14:48:27.213Z</time></trkpt><trkpt lat="46.146487" lon="13.2540323"><ele>154.0</ele><time>2026-04-24T14:48:28.212Z</time></trkpt><trkpt lat="46.1465794" lon="13.2540414"><ele>154.0</ele><time>2026-04-24T14:48:29.211Z</time></trkpt><trkpt lat="46.1466734" lon="13.2540527"><ele>154.0</ele><time>2026-04-24T14:48:30.211Z</time></trkpt><trkpt lat="46.1467665" lon="13.2540608"><ele>154.0</ele><time>2026-04-24T14:48:31.211Z</time></trkpt><trkpt lat="46.14686" lon="13.2540691"><ele>154.0</ele><time>2026-04-24T14:48:32.212Z</time></trkpt><trkpt lat="46.1469541" lon="13.2540782"><ele>154.0</ele><time>2026-04-24T14:48:33.211Z</time></trkpt><trkpt lat="46.1470519" lon="13.2540908"><ele>154.0</ele><time>2026-04-24T14:48:34.213Z</time></trkpt><trkpt lat="46.1471474" lon="13.2541035"><ele>154.0</ele><time>2026-04-24T14:48:35.213Z</time></trkpt><trkpt lat="46.1472459" lon="13.2541179"><ele>154.0</ele><time>2026-04-24T14:48:36.213Z</time></trkpt><trkpt lat="46.1473429" lon="13.2541287"><ele>154.2</ele><time>2026-04-24T14:48:37.212Z</time></trkpt><trkpt lat="46.1474417" lon="13.2541393"><ele>154.4</ele><time>2026-04-24T14:48:38.212Z</time></trkpt><trkpt lat="46.1475357" lon="13.2541484"><ele>154.6</ele><time>2026-04-24T14:48:39.212Z</time></trkpt><trkpt lat="46.1476258" lon="13.2541571"><ele>154.8</ele><time>2026-04-24T14:48:40.213Z</time></trkpt><trkpt lat="46.1477136" lon="13.2541659"><ele>155.0</ele><time>2026-04-24T14:48:41.212Z</time></trkpt><trkpt lat="46.147799" lon="13.2541765"><ele>155.0</ele><time>2026-04-24T14:48:42.211Z</time></trkpt><trkpt lat="46.1478836" lon="13.2541841"><ele>155.0</ele><time>2026-04-24T14:48:43.212Z</time></trkpt><trkpt lat="46.1479693" lon="13.2541942"><ele>155.0</ele><time>2026-04-24T14:48:44.212Z</time></trkpt><trkpt lat="46.1480542" lon="13.2542044"><ele>155.0</ele><time>2026-04-24T14:48:45.211Z</time></trkpt><trkpt lat="46.1481371" lon="13.2542162"><ele>155.0</ele><time>2026-04-24T14:48:46.212Z</time></trkpt><trkpt lat="46.1482192" lon="13.2542248"><ele>155.0</ele><time>2026-04-24T14:48:47.211Z</time></trkpt><trkpt lat="46.1483016" lon="13.2542322"><ele>155.16666666666666</ele><time>2026-04-24T14:48:48.212Z</time></trkpt><trkpt lat="46.1483836" lon="13.2542416"><ele>155.33333333333331</ele><time>2026-04-24T14:48:49.213Z</time></trkpt><trkpt lat="46.1484652" lon="13.2542481"><ele>155.5</ele><time>2026-04-24T14:48:50.211Z</time></trkpt><trkpt lat="46.1485478" lon="13.2542577"><ele>155.66666666666666</ele><time>2026-04-24T14:48:51.212Z</time></trkpt><trkpt lat="46.1486303" lon="13.2542685"><ele>155.83333333333334</ele><time>2026-04-24T14:48:52.212Z</time></trkpt><trkpt lat="46.1487135" lon="13.2542759"><ele>156.0</ele><time>2026-04-24T14:48:53.212Z</time></trkpt><trkpt lat="46.1487964" lon="13.2542854"><ele>156.0</ele><time>2026-04-24T14:48:54.21Z</time></trkpt><trkpt lat="46.1488786" lon="13.2542937"><ele>156.0</ele><time>2026-04-24T14:48:55.211Z</time></trkpt><trkpt lat="46.1489617" lon="13.2543008"><ele>156.0</ele><time>2026-04-24T14:48:56.211Z</time></trkpt><trkpt lat="46.149045" lon="13.2543095"><ele>156.0</ele><time>2026-04-24T14:48:57.21Z</time></trkpt><trkpt lat="46.1491277" lon="13.254315"><ele>156.0</ele><time>2026-04-24T14:48:58.211Z</time></trkpt><trkpt lat="46.1492103" lon="13.2543193"><ele>156.0</ele><time>2026-04-24T14:48:59.21Z</time></trkpt><trkpt lat="46.1492914" lon="13.2543266"><ele>156.16666666666666</ele><time>2026-04-24T14:49:00.211Z</time></trkpt><trkpt lat="46.149367" lon="13.2543381"><ele>156.33333333333334</ele><time>2026-04-24T14:49:01.21Z</time></trkpt><trkpt lat="46.1494307" lon="13.2543465"><ele>156.5</ele><time>2026-04-24T14:49:02.21Z</time></trkpt><trkpt lat="46.149498" lon="13.254325"><ele>156.66666666666669</ele><time>2026-04-24T14:49:04.211Z</time></trkpt><trkpt lat="46.1495095" lon="13.2542321"><ele>156.83333333333334</ele><time>2026-04-24T14:49:06.211Z</time></trkpt><trkpt lat="46.1495235" lon="13.2540835"><ele>157.0</ele><time>2026-04-24T14:49:08.21Z</time></trkpt><trkpt lat="46.1495341" lon="13.2539618"><ele>156.6</ele><time>2026-04-24T14:49:10.212Z</time></trkpt><trkpt lat="46.1495225" lon="13.2538303"><ele>156.2</ele><time>2026-04-24T14:49:12.21Z</time></trkpt><trkpt lat="46.149536" lon="13.2536603"><ele>155.8</ele><time>2026-04-24T14:49:14.211Z</time></trkpt><trkpt lat="46.1495358" lon="13.2535025"><ele>155.4</ele><time>2026-04-24T14:49:16.211Z</time></trkpt><trkpt lat="46.1495466" lon="13.2533201"><ele>155.0</ele><time>2026-04-24T14:49:18.212Z</time></trkpt><trkpt lat="46.1495531" lon="13.2532231"><ele>155.0</ele><time>2026-04-24T14:49:19.212Z</time></trkpt><trkpt lat="46.1495623" lon="13.2531282"><ele>155.0</ele><time>2026-04-24T14:49:20.212Z</time></trkpt><trkpt lat="46.1495754" lon="13.2529578"><ele>155.0</ele><time>2026-04-24T14:49:22.211Z</time></trkpt><trkpt lat="46.1496084" lon="13.252842"><ele>155.0</ele><time>2026-04-24T14:49:24.21Z</time></trkpt><trkpt lat="46.1496894" lon="13.2528346"><ele>155.0</ele><time>2026-04-24T14:49:26.211Z</time></trkpt><trkpt lat="46.149783" lon="13.2528657"><ele>155.0</ele><time>2026-04-24T14:49:28.211Z</time></trkpt><trkpt lat="46.1498832" lon="13.2528761"><ele>155.6</ele><time>2026-04-24T14:49:30.211Z</time></trkpt><trkpt lat="46.1499421" lon="13.2527896"><ele>156.2</ele><time>2026-04-24T14:49:32.211Z</time></trkpt><trkpt lat="46.1499608" lon="13.2526491"><ele>156.8</ele><time>2026-04-24T14:49:34.211Z</time></trkpt><trkpt lat="46.1499906" lon="13.2524839"><ele>157.4</ele><time>2026-04-24T14:49:36.212Z</time></trkpt><trkpt lat="46.1500544" lon="13.2523342"><ele>158.0</ele><time>2026-04-24T14:49:38.21Z</time></trkpt><trkpt lat="46.1500888" lon="13.2522561"><ele>158.0</ele><time>2026-04-24T14:49:39.211Z</time></trkpt><trkpt lat="46.150132" lon="13.2521849"><ele>158.0</ele><time>2026-04-24T14:49:40.211Z</time></trkpt><trkpt lat="46.1501746" lon="13.2521125"><ele>158.0</ele><time>2026-04-24T14:49:41.211Z</time></trkpt><trkpt lat="46.1502476" lon="13.2519853"><ele>158.0</ele><time>2026-04-24T14:49:43.211Z</time></trkpt><trkpt lat="46.1503108" lon="13.2519444"><ele>158.0</ele><time>2026-04-24T14:49:45.211Z</time></trkpt><trkpt lat="46.1504107" lon="13.251933"><ele>158.0</ele><time>2026-04-24T14:49:47.21Z</time></trkpt><trkpt lat="46.1504805" lon="13.2519396"><ele>158.0</ele><time>2026-04-24T14:49:48.211Z</time></trkpt><trkpt lat="46.1505482" lon="13.2519445"><ele>158.0</ele><time>2026-04-24T14:49:49.211Z</time></trkpt><trkpt lat="46.1506298" lon="13.2519527"><ele>158.0</ele><time>2026-04-24T14:49:50.21Z</time></trkpt><trkpt lat="46.1507155" lon="13.2519565"><ele>158.0</ele><time>2026-04-24T14:49:51.21Z</time></trkpt><trkpt lat="46.1507943" lon="13.2519652"><ele>158.0</ele><time>2026-04-24T14:49:52.211Z</time></trkpt><trkpt lat="46.1508615" lon="13.2519667"><ele>158.0</ele><time>2026-04-24T14:49:53.21Z</time></trkpt><trkpt lat="46.1509545" lon="13.2518638"><ele>158.20000000000002</ele><time>2026-04-24T14:49:55.211Z</time></trkpt><trkpt lat="46.1509708" lon="13.2517661"><ele>158.4</ele><time>2026-04-24T14:49:56.211Z</time></trkpt><trkpt lat="46.1509673" lon="13.2516504"><ele>158.60000000000002</ele><time>2026-04-24T14:49:57.21Z</time></trkpt><trkpt lat="46.1509678" lon="13.251514"><ele>158.8</ele><time>2026-04-24T14:49:58.211Z</time></trkpt><trkpt lat="46.1509692" lon="13.2513622"><ele>159.0</ele><time>2026-04-24T14:49:59.211Z</time></trkpt><trkpt lat="46.1509692" lon="13.2512073"><ele>158.5</ele><time>2026-04-24T14:50:00.21Z</time></trkpt><trkpt lat="46.1509728" lon="13.2510498"><ele>158.0</ele><time>2026-04-24T14:50:01.212Z</time></trkpt><trkpt lat="46.1509752" lon="13.250889"><ele>157.5</ele><time>2026-04-24T14:50:02.211Z</time></trkpt><trkpt lat="46.1509742" lon="13.250723"><ele>157.0</ele><time>2026-04-24T14:50:03.212Z</time></trkpt><trkpt lat="46.1509759" lon="13.2505521"><ele>157.0</ele><time>2026-04-24T14:50:04.212Z</time></trkpt><trkpt lat="46.1509772" lon="13.2503804"><ele>157.0</ele><time>2026-04-24T14:50:05.21Z</time></trkpt><trkpt lat="46.1509797" lon="13.2502019"><ele>157.0</ele><time>2026-04-24T14:50:06.211Z</time></trkpt><trkpt lat="46.1509817" lon="13.2500384"><ele>157.0</ele><time>2026-04-24T14:50:07.21Z</time></trkpt><trkpt lat="46.1509851" lon="13.2498834"><ele>157.2</ele><time>2026-04-24T14:50:08.212Z</time></trkpt><trkpt lat="46.1509888" lon="13.2497383"><ele>157.39999999999998</ele><time>2026-04-24T14:50:09.212Z</time></trkpt><trkpt lat="46.1509968" lon="13.2496"><ele>157.60000000000002</ele><time>2026-04-24T14:50:10.211Z</time></trkpt><trkpt lat="46.1510088" lon="13.249468"><ele>157.8</ele><time>2026-04-24T14:50:11.21Z</time></trkpt><trkpt lat="46.1510281" lon="13.249337"><ele>158.0</ele><time>2026-04-24T14:50:12.211Z</time></trkpt><trkpt lat="46.1510559" lon="13.2492065"><ele>158.0</ele><time>2026-04-24T14:50:13.211Z</time></trkpt><trkpt lat="46.1510921" lon="13.2490883"><ele>158.0</ele><time>2026-04-24T14:50:14.212Z</time></trkpt><trkpt lat="46.1511302" lon="13.2489826"><ele>158.0</ele><time>2026-04-24T14:50:15.212Z</time></trkpt><trkpt lat="46.1511682" lon="13.2489022"><ele>158.0</ele><time>2026-04-24T14:50:16.211Z</time></trkpt><trkpt lat="46.1512729" lon="13.2488323"><ele>158.0</ele><time>2026-04-24T14:50:18.212Z</time></trkpt><trkpt lat="46.1514031" lon="13.2488798"><ele>157.8</ele><time>2026-04-24T14:50:20.211Z</time></trkpt><trkpt lat="46.1514773" lon="13.2488968"><ele>157.60000000000002</ele><time>2026-04-24T14:50:21.21Z</time></trkpt><trkpt lat="46.1515471" lon="13.2488975"><ele>157.39999999999998</ele><time>2026-04-24T14:50:22.211Z</time></trkpt><trkpt lat="46.1516504" lon="13.2488149"><ele>157.2</ele><time>2026-04-24T14:50:24.21Z</time></trkpt><trkpt lat="46.1516982" lon="13.2486424"><ele>157.0</ele><time>2026-04-24T14:50:26.212Z</time></trkpt><trkpt lat="46.1517024" lon="13.248515"><ele>157.0</ele><time>2026-04-24T14:50:27.21Z</time></trkpt><trkpt lat="46.1517075" lon="13.2483777"><ele>157.0</ele><time>2026-04-24T14:50:28.21Z</time></trkpt><trkpt lat="46.1517141" lon="13.2482334"><ele>157.0</ele><time>2026-04-24T14:50:29.21Z</time></trkpt><trkpt lat="46.1517126" lon="13.2480777"><ele>157.0</ele><time>2026-04-24T14:50:30.211Z</time></trkpt><trkpt lat="46.1517071" lon="13.2479202"><ele>157.0</ele><time>2026-04-24T14:50:31.211Z</time></trkpt><trkpt lat="46.1517023" lon="13.2477498"><ele>156.75</ele><time>2026-04-24T14:50:32.21Z</time></trkpt><trkpt lat="46.1516999" lon="13.2475811"><ele>156.5</ele><time>2026-04-24T14:50:33.211Z</time></trkpt><trkpt lat="46.1516999" lon="13.2474111"><ele>156.25</ele><time>2026-04-24T14:50:34.21Z</time></trkpt><trkpt lat="46.1516996" lon="13.2472342"><ele>156.0</ele><time>2026-04-24T14:50:35.211Z</time></trkpt><trkpt lat="46.1517045" lon="13.2470557"><ele>156.5</ele><time>2026-04-24T14:50:36.212Z</time></trkpt><trkpt lat="46.1517069" lon="13.2468776"><ele>157.0</ele><time>2026-04-24T14:50:37.211Z</time></trkpt><trkpt lat="46.1517073" lon="13.2466999"><ele>157.5</ele><time>2026-04-24T14:50:38.21Z</time></trkpt><trkpt lat="46.1517076" lon="13.2465168"><ele>158.0</ele><time>2026-04-24T14:50:39.211Z</time></trkpt><trkpt lat="46.1517089" lon="13.2463264"><ele>158.0</ele><time>2026-04-24T14:50:40.21Z</time></trkpt><trkpt lat="46.1517068" lon="13.246138"><ele>158.0</ele><time>2026-04-24T14:50:41.21Z</time></trkpt><trkpt lat="46.1517009" lon="13.2459419"><ele>158.0</ele><time>2026-04-24T14:50:42.211Z</time></trkpt><trkpt lat="46.1516942" lon="13.2457448"><ele>158.0</ele><time>2026-04-24T14:50:43.21Z</time></trkpt><trkpt lat="46.1516874" lon="13.245539"><ele>157.75</ele><time>2026-04-24T14:50:44.21Z</time></trkpt><trkpt lat="46.1516853" lon="13.245332"><ele>157.5</ele><time>2026-04-24T14:50:45.211Z</time></trkpt><trkpt lat="46.1516821" lon="13.2451231"><ele>157.25</ele><time>2026-04-24T14:50:46.21Z</time></trkpt><trkpt lat="46.1516783" lon="13.244917"><ele>157.0</ele><time>2026-04-24T14:50:47.211Z</time></trkpt><trkpt lat="46.1516773" lon="13.2447237"><ele>157.0</ele><time>2026-04-24T14:50:48.21Z</time></trkpt><trkpt lat="46.1516727" lon="13.2445475"><ele>157.0</ele><time>2026-04-24T14:50:49.21Z</time></trkpt><trkpt lat="46.1516748" lon="13.2443872"><ele>157.0</ele><time>2026-04-24T14:50:50.21Z</time></trkpt><trkpt lat="46.151671" lon="13.2442426"><ele>157.0</ele><time>2026-04-24T14:50:51.21Z</time></trkpt><trkpt lat="46.1516681" lon="13.2441223"><ele>157.0</ele><time>2026-04-24T14:50:52.211Z</time></trkpt><trkpt lat="46.151659" lon="13.2439882"><ele>157.8</ele><time>2026-04-24T14:50:54.211Z</time></trkpt><trkpt lat="46.1515882" lon="13.2438454"><ele>158.6</ele><time>2026-04-24T14:51:01.212Z</time></trkpt><trkpt lat="46.1515603" lon="13.2437456"><ele>159.4</ele><time>2026-04-24T14:51:02.211Z</time></trkpt><trkpt lat="46.1515562" lon="13.2436317"><ele>160.20000000000002</ele><time>2026-04-24T14:51:03.211Z</time></trkpt><trkpt lat="46.1515742" lon="13.2435184"><ele>161.0</ele><time>2026-04-24T14:51:04.211Z</time></trkpt><trkpt lat="46.1515987" lon="13.2433873"><ele>161.0</ele><time>2026-04-24T14:51:05.211Z</time></trkpt><trkpt lat="46.1516298" lon="13.2432454"><ele>161.0</ele><time>2026-04-24T14:51:06.21Z</time></trkpt><trkpt lat="46.1516663" lon="13.2431178"><ele>161.0</ele><time>2026-04-24T14:51:07.211Z</time></trkpt><trkpt lat="46.1517097" lon="13.242986"><ele>161.0</ele><time>2026-04-24T14:51:08.211Z</time></trkpt><trkpt lat="46.1517448" lon="13.2428463"><ele>161.0</ele><time>2026-04-24T14:51:09.21Z</time></trkpt><trkpt lat="46.1517728" lon="13.2426951"><ele>161.4</ele><time>2026-04-24T14:51:10.211Z</time></trkpt><trkpt lat="46.1517922" lon="13.2425409"><ele>161.8</ele><time>2026-04-24T14:51:11.212Z</time></trkpt><trkpt lat="46.1518026" lon="13.2423761"><ele>162.20000000000002</ele><time>2026-04-24T14:51:12.21Z</time></trkpt><trkpt lat="46.1518089" lon="13.2422086"><ele>162.60000000000002</ele><time>2026-04-24T14:51:13.212Z</time></trkpt><trkpt lat="46.1518171" lon="13.2420562"><ele>163.0</ele><time>2026-04-24T14:51:14.212Z</time></trkpt><trkpt lat="46.1518239" lon="13.2419162"><ele>163.2</ele><time>2026-04-24T14:51:15.21Z</time></trkpt><trkpt lat="46.1518392" lon="13.2418079"><ele>163.4</ele><time>2026-04-24T14:51:16.211Z</time></trkpt><trkpt lat="46.1518692" lon="13.2417238"><ele>163.6</ele><time>2026-04-24T14:51:17.21Z</time></trkpt><trkpt lat="46.1519817" lon="13.2416342"><ele>163.79999999999998</ele><time>2026-04-24T14:51:19.211Z</time></trkpt><trkpt lat="46.152067" lon="13.241616"><ele>164.0</ele><time>2026-04-24T14:51:20.21Z</time></trkpt><trkpt lat="46.1521617" lon="13.2415916"><ele>164.0</ele><time>2026-04-24T14:51:21.21Z</time></trkpt><trkpt lat="46.1522552" lon="13.2415681"><ele>164.0</ele><time>2026-04-24T14:51:22.211Z</time></trkpt><trkpt lat="46.1523566" lon="13.241545"><ele>164.0</ele><time>2026-04-24T14:51:23.211Z</time></trkpt><trkpt lat="46.1524601" lon="13.241522"><ele>164.0</ele><time>2026-04-24T14:51:24.211Z</time></trkpt><trkpt lat="46.1525643" lon="13.241487"><ele>164.0</ele><time>2026-04-24T14:51:25.212Z</time></trkpt><trkpt lat="46.1526702" lon="13.241447"><ele>164.25</ele><time>2026-04-24T14:51:26.21Z</time></trkpt><trkpt lat="46.152776" lon="13.2414039"><ele>164.5</ele><time>2026-04-24T14:51:27.21Z</time></trkpt><trkpt lat="46.1528837" lon="13.241363"><ele>164.75</ele><time>2026-04-24T14:51:28.211Z</time></trkpt><trkpt lat="46.1529968" lon="13.2413209"><ele>165.0</ele><time>2026-04-24T14:51:29.211Z</time></trkpt><trkpt lat="46.1531134" lon="13.2412819"><ele>165.5</ele><time>2026-04-24T14:51:30.211Z</time></trkpt><trkpt lat="46.1532282" lon="13.2412439"><ele>166.0</ele><time>2026-04-24T14:51:31.212Z</time></trkpt><trkpt lat="46.1533434" lon="13.2412064"><ele>166.5</ele><time>2026-04-24T14:51:32.211Z</time></trkpt><trkpt lat="46.1534607" lon="13.2411718"><ele>167.0</ele><time>2026-04-24T14:51:33.212Z</time></trkpt><trkpt lat="46.1535772" lon="13.2411336"><ele>167.0</ele><time>2026-04-24T14:51:34.211Z</time></trkpt><trkpt lat="46.1536923" lon="13.2411046"><ele>167.0</ele><time>2026-04-24T14:51:35.211Z</time></trkpt><trkpt lat="46.1538038" lon="13.2410725"><ele>167.0</ele><time>2026-04-24T14:51:36.212Z</time></trkpt><trkpt lat="46.1539113" lon="13.241038"><ele>167.0</ele><time>2026-04-24T14:51:37.211Z</time></trkpt><trkpt lat="46.1540188" lon="13.2410073"><ele>166.8</ele><time>2026-04-24T14:51:38.211Z</time></trkpt><trkpt lat="46.1541248" lon="13.2409796"><ele>166.6</ele><time>2026-04-24T14:51:39.21Z</time></trkpt><trkpt lat="46.1542286" lon="13.2409607"><ele>166.4</ele><time>2026-04-24T14:51:40.212Z</time></trkpt><trkpt lat="46.1543262" lon="13.2409644"><ele>166.20000000000002</ele><time>2026-04-24T14:51:41.211Z</time></trkpt><trkpt lat="46.1544052" lon="13.2409789"><ele>166.0</ele><time>2026-04-24T14:51:42.212Z</time></trkpt><trkpt lat="46.1544845" lon="13.2409667"><ele>166.0</ele><time>2026-04-24T14:51:44.211Z</time></trkpt><trkpt lat="46.1544959" lon="13.2408639"><ele>166.0</ele><time>2026-04-24T14:51:46.21Z</time></trkpt><trkpt lat="46.1544693" lon="13.2407044"><ele>166.0</ele><time>2026-04-24T14:51:48.21Z</time></trkpt><trkpt lat="46.1544639" lon="13.2406039"><ele>166.0</ele><time>2026-04-24T14:51:49.21Z</time></trkpt><trkpt lat="46.1544637" lon="13.2405084"><ele>166.0</ele><time>2026-04-24T14:51:50.209Z</time></trkpt><trkpt lat="46.1544701" lon="13.2404082"><ele>166.0</ele><time>2026-04-24T14:51:51.209Z</time></trkpt><trkpt lat="46.1544764" lon="13.2403091"><ele>166.0</ele><time>2026-04-24T14:51:52.21Z</time></trkpt><trkpt lat="46.1544828" lon="13.2402081"><ele>166.0</ele><time>2026-04-24T14:51:53.209Z</time></trkpt><trkpt lat="46.1544864" lon="13.240105"><ele>166.0</ele><time>2026-04-24T14:51:54.21Z</time></trkpt><trkpt lat="46.1544841" lon="13.2400035"><ele>166.0</ele><time>2026-04-24T14:51:55.211Z</time></trkpt><trkpt lat="46.1544822" lon="13.2399091"><ele>166.0</ele><time>2026-04-24T14:51:56.21Z</time></trkpt><trkpt lat="46.1544787" lon="13.2398125"><ele>166.0</ele><time>2026-04-24T14:51:57.209Z</time></trkpt><trkpt lat="46.1544816" lon="13.239636"><ele>166.14285714285714</ele><time>2026-04-24T14:51:59.21Z</time></trkpt><trkpt lat="46.1544905" lon="13.239458"><ele>166.2857142857143</ele><time>2026-04-24T14:52:01.209Z</time></trkpt><trkpt lat="46.1544921" lon="13.2393657"><ele>166.42857142857144</ele><time>2026-04-24T14:52:02.21Z</time></trkpt><trkpt lat="46.1544974" lon="13.2392737"><ele>166.57142857142856</ele><time>2026-04-24T14:52:03.211Z</time></trkpt><trkpt lat="46.1545034" lon="13.2391804"><ele>166.71428571428572</ele><time>2026-04-24T14:52:04.211Z</time></trkpt><trkpt lat="46.1545084" lon="13.2390881"><ele>166.85714285714286</ele><time>2026-04-24T14:52:05.21Z</time></trkpt><trkpt lat="46.1545126" lon="13.2389922"><ele>167.0</ele><time>2026-04-24T14:52:06.211Z</time></trkpt><trkpt lat="46.1545153" lon="13.2388931"><ele>167.0</ele><time>2026-04-24T14:52:07.211Z</time></trkpt><trkpt lat="46.1545219" lon="13.2387958"><ele>167.0</ele><time>2026-04-24T14:52:08.209Z</time></trkpt><trkpt lat="46.1545333" lon="13.2386984"><ele>167.0</ele><time>2026-04-24T14:52:09.209Z</time></trkpt><trkpt lat="46.1545439" lon="13.2386013"><ele>167.0</ele><time>2026-04-24T14:52:10.209Z</time></trkpt><trkpt lat="46.1545559" lon="13.2385048"><ele>167.0</ele><time>2026-04-24T14:52:11.21Z</time></trkpt><trkpt lat="46.154567" lon="13.2384079"><ele>167.0</ele><time>2026-04-24T14:52:12.21Z</time></trkpt><trkpt lat="46.1545804" lon="13.2383097"><ele>167.0</ele><time>2026-04-24T14:52:13.211Z</time></trkpt><trkpt lat="46.1545943" lon="13.2382111"><ele>167.0</ele><time>2026-04-24T14:52:14.209Z</time></trkpt><trkpt lat="46.1546113" lon="13.238115"><ele>167.0</ele><time>2026-04-24T14:52:15.209Z</time></trkpt><trkpt lat="46.1546267" lon="13.2380174"><ele>167.0</ele><time>2026-04-24T14:52:16.209Z</time></trkpt><trkpt lat="46.1546384" lon="13.2379172"><ele>167.0</ele><time>2026-04-24T14:52:17.211Z</time></trkpt><trkpt lat="46.154652" lon="13.23781"><ele>167.0</ele><time>2026-04-24T14:52:18.21Z</time></trkpt><trkpt lat="46.1546694" lon="13.2376953"><ele>167.0</ele><time>2026-04-24T14:52:19.209Z</time></trkpt><trkpt lat="46.1546913" lon="13.2375842"><ele>167.0</ele><time>2026-04-24T14:52:20.21Z</time></trkpt><trkpt lat="46.1547137" lon="13.2374802"><ele>167.0</ele><time>2026-04-24T14:52:21.21Z</time></trkpt><trkpt lat="46.154734" lon="13.2373786"><ele>167.0</ele><time>2026-04-24T14:52:22.209Z</time></trkpt><trkpt lat="46.1547484" lon="13.2372783"><ele>167.0</ele><time>2026-04-24T14:52:23.21Z</time></trkpt><trkpt lat="46.1547548" lon="13.2371836"><ele>167.0</ele><time>2026-04-24T14:52:24.21Z</time></trkpt><trkpt lat="46.1547569" lon="13.2370864"><ele>167.0</ele><time>2026-04-24T14:52:25.209Z</time></trkpt><trkpt lat="46.1547325" lon="13.2369975"><ele>167.0</ele><time>2026-04-24T14:52:26.21Z</time></trkpt><trkpt lat="46.1546926" lon="13.236911"><ele>167.0</ele><time>2026-04-24T14:52:27.211Z</time></trkpt><trkpt lat="46.154674" lon="13.2368237"><ele>167.16666666666666</ele><time>2026-04-24T14:52:28.21Z</time></trkpt><trkpt lat="46.1546704" lon="13.2367305"><ele>167.33333333333331</ele><time>2026-04-24T14:52:29.211Z</time></trkpt><trkpt lat="46.154675" lon="13.2366322"><ele>167.5</ele><time>2026-04-24T14:52:30.211Z</time></trkpt><trkpt lat="46.154678" lon="13.2365333"><ele>167.66666666666666</ele><time>2026-04-24T14:52:31.209Z</time></trkpt><trkpt lat="46.1546769" lon="13.2364276"><ele>167.83333333333334</ele><time>2026-04-24T14:52:32.211Z</time></trkpt><trkpt lat="46.1546685" lon="13.236328"><ele>168.0</ele><time>2026-04-24T14:52:33.211Z</time></trkpt><trkpt lat="46.1546323" lon="13.2361595"><ele>168.0</ele><time>2026-04-24T14:52:35.209Z</time></trkpt><trkpt lat="46.1546046" lon="13.2360761"><ele>168.0</ele><time>2026-04-24T14:52:36.209Z</time></trkpt><trkpt lat="46.1545614" lon="13.235908"><ele>168.0</ele><time>2026-04-24T14:52:38.21Z</time></trkpt><trkpt lat="46.1545181" lon="13.2357377"><ele>168.0</ele><time>2026-04-24T14:52:40.211Z</time></trkpt><trkpt lat="46.1544833" lon="13.2355807"><ele>168.0</ele><time>2026-04-24T14:52:42.21Z</time></trkpt><trkpt lat="46.1544486" lon="13.2354439"><ele>168.16666666666666</ele><time>2026-04-24T14:52:44.21Z</time></trkpt><trkpt lat="46.1544118" lon="13.2352819"><ele>168.33333333333334</ele><time>2026-04-24T14:52:46.211Z</time></trkpt><trkpt lat="46.1543911" lon="13.2351018"><ele>168.5</ele><time>2026-04-24T14:52:48.209Z</time></trkpt><trkpt lat="46.154392" lon="13.2350085"><ele>168.66666666666669</ele><time>2026-04-24T14:52:49.21Z</time></trkpt><trkpt lat="46.1543958" lon="13.2349136"><ele>168.83333333333334</ele><time>2026-04-24T14:52:50.211Z</time></trkpt><trkpt lat="46.1544022" lon="13.2348184"><ele>169.0</ele><time>2026-04-24T14:52:51.21Z</time></trkpt><trkpt lat="46.1544113" lon="13.2347172"><ele>169.14285714285714</ele><time>2026-04-24T14:52:52.21Z</time></trkpt><trkpt lat="46.1544235" lon="13.2346195"><ele>169.28571428571428</ele><time>2026-04-24T14:52:53.211Z</time></trkpt><trkpt lat="46.1544411" lon="13.2345247"><ele>169.42857142857144</ele><time>2026-04-24T14:52:54.211Z</time></trkpt><trkpt lat="46.1544674" lon="13.2344343"><ele>169.57142857142856</ele><time>2026-04-24T14:52:55.21Z</time></trkpt><trkpt lat="46.1544995" lon="13.2343459"><ele>169.7142857142857</ele><time>2026-04-24T14:52:56.211Z</time></trkpt><trkpt lat="46.1545377" lon="13.2342588"><ele>169.85714285714286</ele><time>2026-04-24T14:52:57.21Z</time></trkpt><trkpt lat="46.1545841" lon="13.2341745"><ele>170.0</ele><time>2026-04-24T14:52:58.209Z</time></trkpt><trkpt lat="46.1546266" lon="13.2340903"><ele>170.0</ele><time>2026-04-24T14:52:59.21Z</time></trkpt><trkpt lat="46.1546665" lon="13.2340115"><ele>170.0</ele><time>2026-04-24T14:53:00.209Z</time></trkpt><trkpt lat="46.1547066" lon="13.2339324"><ele>170.0</ele><time>2026-04-24T14:53:01.211Z</time></trkpt><trkpt lat="46.1547512" lon="13.2338553"><ele>170.0</ele><time>2026-04-24T14:53:02.21Z</time></trkpt><trkpt lat="46.1547986" lon="13.23378"><ele>170.0</ele><time>2026-04-24T14:53:03.21Z</time></trkpt><trkpt lat="46.1548447" lon="13.2337112"><ele>170.0</ele><time>2026-04-24T14:53:04.211Z</time></trkpt><trkpt lat="46.1548945" lon="13.2336411"><ele>170.0</ele><time>2026-04-24T14:53:05.209Z</time></trkpt><trkpt lat="46.1549471" lon="13.2335772"><ele>170.14285714285714</ele><time>2026-04-24T14:53:06.21Z</time></trkpt><trkpt lat="46.1550012" lon="13.2335154"><ele>170.28571428571428</ele><time>2026-04-24T14:53:07.211Z</time></trkpt><trkpt lat="46.1550598" lon="13.2334526"><ele>170.42857142857142</ele><time>2026-04-24T14:53:08.211Z</time></trkpt><trkpt lat="46.1551179" lon="13.2333862"><ele>170.57142857142856</ele><time>2026-04-24T14:53:09.21Z</time></trkpt><trkpt lat="46.1551781" lon="13.2333222"><ele>170.71428571428572</ele><time>2026-04-24T14:53:10.211Z</time></trkpt><trkpt lat="46.1552369" lon="13.233258"><ele>170.85714285714283</ele><time>2026-04-24T14:53:11.21Z</time></trkpt><trkpt lat="46.155296" lon="13.2331947"><ele>171.0</ele><time>2026-04-24T14:53:12.209Z</time></trkpt><trkpt lat="46.1553547" lon="13.2331318"><ele>171.0</ele><time>2026-04-24T14:53:13.209Z</time></trkpt><trkpt lat="46.1554128" lon="13.2330713"><ele>171.0</ele><time>2026-04-24T14:53:14.209Z</time></trkpt><trkpt lat="46.1554707" lon="13.2330153"><ele>171.0</ele><time>2026-04-24T14:53:15.21Z</time></trkpt><trkpt lat="46.155528" lon="13.2329595"><ele>171.0</ele><time>2026-04-24T14:53:16.21Z</time></trkpt><trkpt lat="46.1555823" lon="13.2329059"><ele>171.0</ele><time>2026-04-24T14:53:17.211Z</time></trkpt><trkpt lat="46.1556357" lon="13.2328517"><ele>171.0</ele><time>2026-04-24T14:53:18.21Z</time></trkpt><trkpt lat="46.1557386" lon="13.2327527"><ele>171.0</ele><time>2026-04-24T14:53:20.209Z</time></trkpt><trkpt lat="46.1557935" lon="13.2327032"><ele>171.0</ele><time>2026-04-24T14:53:21.211Z</time></trkpt><trkpt lat="46.155903" lon="13.2325963"><ele>171.0</ele><time>2026-04-24T14:53:23.211Z</time></trkpt><trkpt lat="46.15596" lon="13.2325462"><ele>171.0</ele><time>2026-04-24T14:53:24.209Z</time></trkpt><trkpt lat="46.1560172" lon="13.2324941"><ele>171.0</ele><time>2026-04-24T14:53:25.209Z</time></trkpt><trkpt lat="46.1560781" lon="13.2324421"><ele>171.0</ele><time>2026-04-24T14:53:26.21Z</time></trkpt><trkpt lat="46.1561372" lon="13.2323912"><ele>170.99999999999997</ele><time>2026-04-24T14:53:27.21Z</time></trkpt><trkpt lat="46.1561983" lon="13.2323405"><ele>171.0</ele><time>2026-04-24T14:53:28.209Z</time></trkpt><trkpt lat="46.1562592" lon="13.2322924"><ele>171.0</ele><time>2026-04-24T14:53:29.21Z</time></trkpt><trkpt lat="46.1563232" lon="13.2322474"><ele>171.0</ele><time>2026-04-24T14:53:30.21Z</time></trkpt><trkpt lat="46.1563878" lon="13.2322025"><ele>171.0</ele><time>2026-04-24T14:53:31.211Z</time></trkpt><trkpt lat="46.1564486" lon="13.2321486"><ele>170.99999999999997</ele><time>2026-04-24T14:53:32.21Z</time></trkpt><trkpt lat="46.1565049" lon="13.2320874"><ele>171.0</ele><time>2026-04-24T14:53:33.21Z</time></trkpt><trkpt lat="46.1565598" lon="13.2320246"><ele>171.28571428571428</ele><time>2026-04-24T14:53:34.211Z</time></trkpt><trkpt lat="46.1566178" lon="13.2319613"><ele>171.57142857142856</ele><time>2026-04-24T14:53:35.21Z</time></trkpt><trkpt lat="46.1566763" lon="13.2318963"><ele>171.85714285714283</ele><time>2026-04-24T14:53:36.21Z</time></trkpt><trkpt lat="46.1567358" lon="13.2318276"><ele>172.14285714285714</ele><time>2026-04-24T14:53:37.21Z</time></trkpt><trkpt lat="46.1567956" lon="13.2317618"><ele>172.42857142857144</ele><time>2026-04-24T14:53:38.209Z</time></trkpt><trkpt lat="46.1568498" lon="13.2316875"><ele>172.7142857142857</ele><time>2026-04-24T14:53:39.209Z</time></trkpt><trkpt lat="46.156894" lon="13.2316007"><ele>173.0</ele><time>2026-04-24T14:53:40.21Z</time></trkpt><trkpt lat="46.1569366" lon="13.2315116"><ele>173.16666666666666</ele><time>2026-04-24T14:53:41.21Z</time></trkpt><trkpt lat="46.1569746" lon="13.231417"><ele>173.33333333333331</ele><time>2026-04-24T14:53:42.211Z</time></trkpt><trkpt lat="46.1570055" lon="13.2313267"><ele>173.5</ele><time>2026-04-24T14:53:43.21Z</time></trkpt><trkpt lat="46.1570234" lon="13.2312383"><ele>173.66666666666666</ele><time>2026-04-24T14:53:44.21Z</time></trkpt><trkpt lat="46.1570425" lon="13.2310661"><ele>173.83333333333334</ele><time>2026-04-24T14:53:46.209Z</time></trkpt><trkpt lat="46.1570441" lon="13.2309739"><ele>174.0</ele><time>2026-04-24T14:53:47.21Z</time></trkpt><trkpt lat="46.1570386" lon="13.2308728"><ele>174.0</ele><time>2026-04-24T14:53:48.21Z</time></trkpt><trkpt lat="46.1570358" lon="13.2307728"><ele>174.0</ele><time>2026-04-24T14:53:49.21Z</time></trkpt><trkpt lat="46.1570363" lon="13.2306703"><ele>174.0</ele><time>2026-04-24T14:53:50.21Z</time></trkpt><trkpt lat="46.15703" lon="13.2305724"><ele>174.0</ele><time>2026-04-24T14:53:51.209Z</time></trkpt><trkpt lat="46.1570279" lon="13.2304749"><ele>174.0</ele><time>2026-04-24T14:53:52.209Z</time></trkpt><trkpt lat="46.157025" lon="13.2303764"><ele>174.0</ele><time>2026-04-24T14:53:53.21Z</time></trkpt><trkpt lat="46.1570224" lon="13.2302793"><ele>174.0</ele><time>2026-04-24T14:53:54.209Z</time></trkpt><trkpt lat="46.1570191" lon="13.2301824"><ele>174.14285714285714</ele><time>2026-04-24T14:53:55.21Z</time></trkpt><trkpt lat="46.1570178" lon="13.2300856"><ele>174.28571428571428</ele><time>2026-04-24T14:53:56.21Z</time></trkpt><trkpt lat="46.1570157" lon="13.2299864"><ele>174.42857142857144</ele><time>2026-04-24T14:53:57.209Z</time></trkpt><trkpt lat="46.1570166" lon="13.2298878"><ele>174.57142857142856</ele><time>2026-04-24T14:53:58.21Z</time></trkpt><trkpt lat="46.157021" lon="13.22979"><ele>174.71428571428572</ele><time>2026-04-24T14:53:59.209Z</time></trkpt><trkpt lat="46.1570244" lon="13.2296919"><ele>174.85714285714286</ele><time>2026-04-24T14:54:00.209Z</time></trkpt><trkpt lat="46.1570292" lon="13.2295948"><ele>175.0</ele><time>2026-04-24T14:54:01.211Z</time></trkpt><trkpt lat="46.1570383" lon="13.2294995"><ele>175.0</ele><time>2026-04-24T14:54:02.211Z</time></trkpt><trkpt lat="46.1570513" lon="13.2294031"><ele>175.0</ele><time>2026-04-24T14:54:03.211Z</time></trkpt><trkpt lat="46.1570686" lon="13.2293098"><ele>175.0</ele><time>2026-04-24T14:54:04.21Z</time></trkpt><trkpt lat="46.1570941" lon="13.2292214"><ele>175.0</ele><time>2026-04-24T14:54:05.21Z</time></trkpt><trkpt lat="46.1571272" lon="13.2291369"><ele>175.0</ele><time>2026-04-24T14:54:06.209Z</time></trkpt><trkpt lat="46.1571661" lon="13.2290554"><ele>175.0</ele><time>2026-04-24T14:54:07.209Z</time></trkpt><trkpt lat="46.1572024" lon="13.2289748"><ele>175.0</ele><time>2026-04-24T14:54:08.21Z</time></trkpt><trkpt lat="46.1572305" lon="13.2288918"><ele>174.6</ele><time>2026-04-24T14:54:09.21Z</time></trkpt><trkpt lat="46.1572523" lon="13.2288047"><ele>174.2</ele><time>2026-04-24T14:54:10.209Z</time></trkpt><trkpt lat="46.1572857" lon="13.2286284"><ele>173.8</ele><time>2026-04-24T14:54:12.21Z</time></trkpt><trkpt lat="46.1572963" lon="13.2285382"><ele>173.4</ele><time>2026-04-24T14:54:13.209Z</time></trkpt><trkpt lat="46.157318" lon="13.2283682"><ele>173.0</ele><time>2026-04-24T14:54:15.21Z</time></trkpt><trkpt lat="46.1573297" lon="13.2282162"><ele>173.66666666666666</ele><time>2026-04-24T14:54:17.211Z</time></trkpt><trkpt lat="46.1573145" lon="13.2280673"><ele>174.33333333333331</ele><time>2026-04-24T14:54:19.21Z</time></trkpt><trkpt lat="46.1573242" lon="13.2279746"><ele>175.0</ele><time>2026-04-24T14:54:20.21Z</time></trkpt><trkpt lat="46.1573544" lon="13.2278777"><ele>175.66666666666666</ele><time>2026-04-24T14:54:21.209Z</time></trkpt><trkpt lat="46.1573828" lon="13.2277812"><ele>176.33333333333334</ele><time>2026-04-24T14:54:22.209Z</time></trkpt><trkpt lat="46.1574034" lon="13.227679"><ele>177.0</ele><time>2026-04-24T14:54:23.21Z</time></trkpt><trkpt lat="46.157426" lon="13.2275658"><ele>177.8</ele><time>2026-04-24T14:54:24.21Z</time></trkpt><trkpt lat="46.1574515" lon="13.2274447"><ele>178.6</ele><time>2026-04-24T14:54:25.211Z</time></trkpt><trkpt lat="46.1574826" lon="13.2273142"><ele>179.4</ele><time>2026-04-24T14:54:26.209Z</time></trkpt><trkpt lat="46.157526" lon="13.2271847"><ele>180.20000000000002</ele><time>2026-04-24T14:54:27.211Z</time></trkpt><trkpt lat="46.1575826" lon="13.2270588"><ele>181.0</ele><time>2026-04-24T14:54:28.21Z</time></trkpt><trkpt lat="46.1576577" lon="13.2269324"><ele>183.0</ele><time>2026-04-24T14:54:29.21Z</time></trkpt><trkpt lat="46.1577481" lon="13.2268118"><ele>185.0</ele><time>2026-04-24T14:54:30.209Z</time></trkpt><trkpt lat="46.1578468" lon="13.226686"><ele>187.0</ele><time>2026-04-24T14:54:31.209Z</time></trkpt><trkpt lat="46.1579451" lon="13.2265596"><ele>189.0</ele><time>2026-04-24T14:54:32.21Z</time></trkpt><trkpt lat="46.1580439" lon="13.2264291"><ele>189.0</ele><time>2026-04-24T14:54:33.21Z</time></trkpt><trkpt lat="46.1581516" lon="13.226293"><ele>189.0</ele><time>2026-04-24T14:54:34.21Z</time></trkpt><trkpt lat="46.1582616" lon="13.2261563"><ele>189.0</ele><time>2026-04-24T14:54:35.21Z</time></trkpt><trkpt lat="46.1583748" lon="13.2260127"><ele>189.0</ele><time>2026-04-24T14:54:36.209Z</time></trkpt><trkpt lat="46.1584795" lon="13.2258776"><ele>188.39999999999998</ele><time>2026-04-24T14:54:37.21Z</time></trkpt><trkpt lat="46.1585725" lon="13.2257568"><ele>187.8</ele><time>2026-04-24T14:54:38.21Z</time></trkpt><trkpt lat="46.1586585" lon="13.2256499"><ele>187.2</ele><time>2026-04-24T14:54:39.209Z</time></trkpt><trkpt lat="46.1587377" lon="13.2255539"><ele>186.60000000000002</ele><time>2026-04-24T14:54:40.21Z</time></trkpt><trkpt lat="46.1588077" lon="13.2254678"><ele>186.0</ele><time>2026-04-24T14:54:41.211Z</time></trkpt><trkpt lat="46.158867" lon="13.2253824"><ele>186.0</ele><time>2026-04-24T14:54:42.209Z</time></trkpt><trkpt lat="46.1589111" lon="13.2252936"><ele>186.0</ele><time>2026-04-24T14:54:43.21Z</time></trkpt><trkpt lat="46.1589395" lon="13.2251897"><ele>186.0</ele><time>2026-04-24T14:54:44.21Z</time></trkpt><trkpt lat="46.1589483" lon="13.225064"><ele>186.0</ele><time>2026-04-24T14:54:45.211Z</time></trkpt><trkpt lat="46.1589413" lon="13.2249237"><ele>186.0</ele><time>2026-04-24T14:54:46.21Z</time></trkpt><trkpt lat="46.1589307" lon="13.2247687"><ele>186.0</ele><time>2026-04-24T14:54:47.209Z</time></trkpt><trkpt lat="46.1589197" lon="13.2246045"><ele>186.0</ele><time>2026-04-24T14:54:48.21Z</time></trkpt><trkpt lat="46.1589079" lon="13.2244327"><ele>186.0</ele><time>2026-04-24T14:54:49.21Z</time></trkpt><trkpt lat="46.1588966" lon="13.224264"><ele>186.0</ele><time>2026-04-24T14:54:50.209Z</time></trkpt><trkpt lat="46.1588848" lon="13.2240993"><ele>186.0</ele><time>2026-04-24T14:54:51.209Z</time></trkpt><trkpt lat="46.1588743" lon="13.2239379"><ele>186.16666666666666</ele><time>2026-04-24T14:54:52.208Z</time></trkpt><trkpt lat="46.1588657" lon="13.2237857"><ele>186.33333333333334</ele><time>2026-04-24T14:54:53.208Z</time></trkpt><trkpt lat="46.1588603" lon="13.2236471"><ele>186.5</ele><time>2026-04-24T14:54:54.21Z</time></trkpt><trkpt lat="46.1588528" lon="13.2235221"><ele>186.66666666666669</ele><time>2026-04-24T14:54:55.209Z</time></trkpt><trkpt lat="46.1588387" lon="13.2234107"><ele>186.83333333333334</ele><time>2026-04-24T14:54:56.21Z</time></trkpt><trkpt lat="46.1588144" lon="13.2232986"><ele>187.0</ele><time>2026-04-24T14:54:57.209Z</time></trkpt><trkpt lat="46.1587811" lon="13.2231798"><ele>186.8</ele><time>2026-04-24T14:54:58.209Z</time></trkpt><trkpt lat="46.1587443" lon="13.2230515"><ele>186.6</ele><time>2026-04-24T14:54:59.208Z</time></trkpt><trkpt lat="46.1587056" lon="13.222917"><ele>186.4</ele><time>2026-04-24T14:55:00.209Z</time></trkpt><trkpt lat="46.1586675" lon="13.2227773"><ele>186.20000000000002</ele><time>2026-04-24T14:55:01.21Z</time></trkpt><trkpt lat="46.1586327" lon="13.2226334"><ele>186.0</ele><time>2026-04-24T14:55:02.209Z</time></trkpt><trkpt lat="46.1586035" lon="13.2224839"><ele>186.0</ele><time>2026-04-24T14:55:03.209Z</time></trkpt><trkpt lat="46.1585797" lon="13.2223283"><ele>186.0</ele><time>2026-04-24T14:55:04.209Z</time></trkpt><trkpt lat="46.1585615" lon="13.2221655"><ele>186.0</ele><time>2026-04-24T14:55:05.209Z</time></trkpt><trkpt lat="46.1585485" lon="13.2219936"><ele>186.0</ele><time>2026-04-24T14:55:06.208Z</time></trkpt><trkpt lat="46.1585414" lon="13.2218145"><ele>186.0</ele><time>2026-04-24T14:55:07.208Z</time></trkpt><trkpt lat="46.1585412" lon="13.2216325"><ele>186.0</ele><time>2026-04-24T14:55:08.208Z</time></trkpt><trkpt lat="46.1585416" lon="13.2214615"><ele>186.0</ele><time>2026-04-24T14:55:09.209Z</time></trkpt><trkpt lat="46.1585394" lon="13.2213031"><ele>186.0</ele><time>2026-04-24T14:55:10.208Z</time></trkpt><trkpt lat="46.1585364" lon="13.2211504"><ele>186.20000000000002</ele><time>2026-04-24T14:55:11.207Z</time></trkpt><trkpt lat="46.1585102" lon="13.2210133"><ele>186.4</ele><time>2026-04-24T14:55:12.208Z</time></trkpt><trkpt lat="46.1584764" lon="13.2208752"><ele>186.6</ele><time>2026-04-24T14:55:13.209Z</time></trkpt><trkpt lat="46.1584436" lon="13.2207322"><ele>186.8</ele><time>2026-04-24T14:55:14.208Z</time></trkpt><trkpt lat="46.1584091" lon="13.2205773"><ele>187.0</ele><time>2026-04-24T14:55:15.209Z</time></trkpt><trkpt lat="46.1583657" lon="13.2204143"><ele>187.25</ele><time>2026-04-24T14:55:16.207Z</time></trkpt><trkpt lat="46.1583204" lon="13.2202477"><ele>187.5</ele><time>2026-04-24T14:55:17.207Z</time></trkpt><trkpt lat="46.1582812" lon="13.2200882"><ele>187.75</ele><time>2026-04-24T14:55:18.209Z</time></trkpt><trkpt lat="46.1582399" lon="13.2199323"><ele>188.0</ele><time>2026-04-24T14:55:19.209Z</time></trkpt><trkpt lat="46.1582005" lon="13.2197764"><ele>187.5</ele><time>2026-04-24T14:55:20.208Z</time></trkpt><trkpt lat="46.1581642" lon="13.2196216"><ele>187.0</ele><time>2026-04-24T14:55:21.209Z</time></trkpt><trkpt lat="46.1581257" lon="13.2194668"><ele>186.5</ele><time>2026-04-24T14:55:22.208Z</time></trkpt><trkpt lat="46.1580859" lon="13.2193118"><ele>186.0</ele><time>2026-04-24T14:55:23.208Z</time></trkpt><trkpt lat="46.1580479" lon="13.2191607"><ele>186.0</ele><time>2026-04-24T14:55:24.208Z</time></trkpt><trkpt lat="46.158011" lon="13.2190257"><ele>186.0</ele><time>2026-04-24T14:55:25.207Z</time></trkpt><trkpt lat="46.1579859" lon="13.2188967"><ele>186.0</ele><time>2026-04-24T14:55:26.209Z</time></trkpt><trkpt lat="46.1579726" lon="13.218771"><ele>186.0</ele><time>2026-04-24T14:55:27.207Z</time></trkpt><trkpt lat="46.1579704" lon="13.2186439"><ele>186.0</ele><time>2026-04-24T14:55:28.208Z</time></trkpt><trkpt lat="46.1579726" lon="13.218505"><ele>186.0</ele><time>2026-04-24T14:55:29.208Z</time></trkpt><trkpt lat="46.1579835" lon="13.2183591"><ele>186.0</ele><time>2026-04-24T14:55:30.208Z</time></trkpt><trkpt lat="46.1580004" lon="13.2182063"><ele>186.0</ele><time>2026-04-24T14:55:31.209Z</time></trkpt><trkpt lat="46.1580162" lon="13.2180447"><ele>186.0</ele><time>2026-04-24T14:55:32.208Z</time></trkpt><trkpt lat="46.1580331" lon="13.2178851"><ele>186.0</ele><time>2026-04-24T14:55:33.208Z</time></trkpt><trkpt lat="46.1580477" lon="13.217743"><ele>186.0</ele><time>2026-04-24T14:55:34.208Z</time></trkpt><trkpt lat="46.1580601" lon="13.2176174"><ele>186.0</ele><time>2026-04-24T14:55:35.209Z</time></trkpt><trkpt lat="46.1580715" lon="13.2175012"><ele>186.0</ele><time>2026-04-24T14:55:36.208Z</time></trkpt><trkpt lat="46.1580852" lon="13.2173962"><ele>186.0</ele><time>2026-04-24T14:55:37.208Z</time></trkpt><trkpt lat="46.1581026" lon="13.2172572"><ele>186.0</ele><time>2026-04-24T14:55:39.208Z</time></trkpt><trkpt lat="46.1581165" lon="13.2171413"><ele>186.0</ele><time>2026-04-24T14:55:50.209Z</time></trkpt><trkpt lat="46.1581464" lon="13.2170511"><ele>186.0</ele><time>2026-04-24T14:55:52.209Z</time></trkpt><trkpt lat="46.1581822" lon="13.2169434"><ele>186.0</ele><time>2026-04-24T14:55:54.208Z</time></trkpt><trkpt lat="46.1582267" lon="13.2168166"><ele>186.0</ele><time>2026-04-24T14:55:56.208Z</time></trkpt><trkpt lat="46.1582966" lon="13.2166499"><ele>186.0</ele><time>2026-04-24T14:55:58.207Z</time></trkpt><trkpt lat="46.1583296" lon="13.2165707"><ele>186.0</ele><time>2026-04-24T14:55:59.207Z</time></trkpt><trkpt lat="46.1583657" lon="13.2164808"><ele>186.83333333333334</ele><time>2026-04-24T14:56:00.209Z</time></trkpt><trkpt lat="46.1584063" lon="13.2163764"><ele>187.66666666666666</ele><time>2026-04-24T14:56:01.208Z</time></trkpt><trkpt lat="46.1584523" lon="13.2162584"><ele>188.5</ele><time>2026-04-24T14:56:02.209Z</time></trkpt><trkpt lat="46.1585023" lon="13.2161402"><ele>189.33333333333331</ele><time>2026-04-24T14:56:03.207Z</time></trkpt><trkpt lat="46.1585457" lon="13.2160395"><ele>190.16666666666666</ele><time>2026-04-24T14:56:04.209Z</time></trkpt><trkpt lat="46.158585" lon="13.2159499"><ele>191.0</ele><time>2026-04-24T14:56:05.207Z</time></trkpt><trkpt lat="46.1586199" lon="13.2158722"><ele>191.0</ele><time>2026-04-24T14:56:06.207Z</time></trkpt><trkpt lat="46.1586792" lon="13.2157326"><ele>191.0</ele><time>2026-04-24T14:56:08.209Z</time></trkpt><trkpt lat="46.1587509" lon="13.2155862"><ele>191.0</ele><time>2026-04-24T14:56:10.208Z</time></trkpt><trkpt lat="46.1587872" lon="13.2155094"><ele>191.0</ele><time>2026-04-24T14:56:11.208Z</time></trkpt><trkpt lat="46.1588474" lon="13.215372"><ele>191.0</ele><time>2026-04-24T14:56:13.208Z</time></trkpt><trkpt lat="46.1589154" lon="13.2152126"><ele>191.16666666666666</ele><time>2026-04-24T14:56:15.209Z</time></trkpt><trkpt lat="46.1589538" lon="13.2151012"><ele>191.33333333333331</ele><time>2026-04-24T14:56:16.208Z</time></trkpt><trkpt lat="46.1589889" lon="13.2149975"><ele>191.5</ele><time>2026-04-24T14:56:17.209Z</time></trkpt><trkpt lat="46.1590225" lon="13.2148863"><ele>191.66666666666666</ele><time>2026-04-24T14:56:18.209Z</time></trkpt><trkpt lat="46.1590535" lon="13.2147655"><ele>191.83333333333334</ele><time>2026-04-24T14:56:19.209Z</time></trkpt><trkpt lat="46.1590859" lon="13.2146281"><ele>192.0</ele><time>2026-04-24T14:56:20.209Z</time></trkpt><trkpt lat="46.1591106" lon="13.2144924"><ele>192.16666666666666</ele><time>2026-04-24T14:56:21.208Z</time></trkpt><trkpt lat="46.1591272" lon="13.2143692"><ele>192.33333333333331</ele><time>2026-04-24T14:56:22.208Z</time></trkpt><trkpt lat="46.1591405" lon="13.2142589"><ele>192.5</ele><time>2026-04-24T14:56:23.208Z</time></trkpt><trkpt lat="46.1591537" lon="13.2141504"><ele>192.66666666666666</ele><time>2026-04-24T14:56:24.207Z</time></trkpt><trkpt lat="46.159166" lon="13.2140401"><ele>192.83333333333331</ele><time>2026-04-24T14:56:25.207Z</time></trkpt><trkpt lat="46.1591834" lon="13.2139206"><ele>193.0</ele><time>2026-04-24T14:56:26.207Z</time></trkpt><trkpt lat="46.1591984" lon="13.2137985"><ele>192.99999999999997</ele><time>2026-04-24T14:56:27.209Z</time></trkpt><trkpt lat="46.1592143" lon="13.2136834"><ele>193.0</ele><time>2026-04-24T14:56:28.207Z</time></trkpt><trkpt lat="46.159226" lon="13.2135436"><ele>193.0</ele><time>2026-04-24T14:56:30.207Z</time></trkpt><trkpt lat="46.1592257" lon="13.2134465"><ele>193.0</ele><time>2026-04-24T14:56:38.207Z</time></trkpt><trkpt lat="46.1592407" lon="13.2133302"><ele>192.99999999999997</ele><time>2026-04-24T14:56:40.208Z</time></trkpt><trkpt lat="46.1592629" lon="13.2131914"><ele>193.0</ele><time>2026-04-24T14:56:42.208Z</time></trkpt><trkpt lat="46.1592765" lon="13.2130929"><ele>193.49999999999997</ele><time>2026-04-24T14:56:43.208Z</time></trkpt><trkpt lat="46.1592925" lon="13.2129928"><ele>194.0</ele><time>2026-04-24T14:56:44.208Z</time></trkpt><trkpt lat="46.1593088" lon="13.212882"><ele>194.5</ele><time>2026-04-24T14:56:45.207Z</time></trkpt><trkpt lat="46.159326" lon="13.2127649"><ele>195.0</ele><time>2026-04-24T14:56:46.207Z</time></trkpt><trkpt lat="46.1593467" lon="13.2126485"><ele>195.49999999999997</ele><time>2026-04-24T14:56:47.207Z</time></trkpt><trkpt lat="46.1593679" lon="13.2125225"><ele>196.0</ele><time>2026-04-24T14:56:48.207Z</time></trkpt><trkpt lat="46.1593949" lon="13.2123958"><ele>196.33333333333331</ele><time>2026-04-24T14:56:49.208Z</time></trkpt><trkpt lat="46.1594266" lon="13.2122773"><ele>196.66666666666666</ele><time>2026-04-24T14:56:50.208Z</time></trkpt><trkpt lat="46.1594608" lon="13.212163"><ele>197.0</ele><time>2026-04-24T14:56:51.208Z</time></trkpt><trkpt lat="46.1594984" lon="13.2120468"><ele>197.33333333333331</ele><time>2026-04-24T14:56:52.207Z</time></trkpt><trkpt lat="46.1595368" lon="13.2119359"><ele>197.66666666666666</ele><time>2026-04-24T14:56:53.207Z</time></trkpt><trkpt lat="46.1595763" lon="13.2118239"><ele>198.0</ele><time>2026-04-24T14:56:54.207Z</time></trkpt><trkpt lat="46.1596162" lon="13.2117197"><ele>198.0</ele><time>2026-04-24T14:56:55.207Z</time></trkpt><trkpt lat="46.1596519" lon="13.2116217"><ele>198.0</ele><time>2026-04-24T14:56:56.208Z</time></trkpt><trkpt lat="46.1596889" lon="13.2115323"><ele>198.0</ele><time>2026-04-24T14:56:57.209Z</time></trkpt><trkpt lat="46.1597219" lon="13.2114539"><ele>198.0</ele><time>2026-04-24T14:56:58.207Z</time></trkpt><trkpt lat="46.1597839" lon="13.211315"><ele>198.0</ele><time>2026-04-24T14:57:00.209Z</time></trkpt><trkpt lat="46.1598549" lon="13.2111828"><ele>198.0</ele><time>2026-04-24T14:57:02.208Z</time></trkpt><trkpt lat="46.1598981" lon="13.2111111"><ele>196.8</ele><time>2026-04-24T14:57:03.208Z</time></trkpt><trkpt lat="46.1599829" lon="13.2110066"><ele>195.60000000000002</ele><time>2026-04-24T14:57:05.209Z</time></trkpt><trkpt lat="46.1600721" lon="13.2109021"><ele>194.39999999999998</ele><time>2026-04-24T14:57:07.207Z</time></trkpt><trkpt lat="46.1601406" lon="13.2108466"><ele>193.2</ele><time>2026-04-24T14:57:14.207Z</time></trkpt><trkpt lat="46.1602111" lon="13.210797"><ele>192.0</ele><time>2026-04-24T14:57:17.208Z</time></trkpt><trkpt lat="46.1602756" lon="13.210754"><ele>192.0</ele><time>2026-04-24T14:57:19.207Z</time></trkpt><trkpt lat="46.1603543" lon="13.2107078"><ele>192.0</ele><time>2026-04-24T14:57:21.207Z</time></trkpt><trkpt lat="46.1604343" lon="13.2106696"><ele>192.0</ele><time>2026-04-24T14:57:23.208Z</time></trkpt><trkpt lat="46.1605241" lon="13.2106271"><ele>192.0</ele><time>2026-04-24T14:57:25.208Z</time></trkpt><trkpt lat="46.1606401" lon="13.2106084"><ele>192.0</ele><time>2026-04-24T14:57:27.209Z</time></trkpt><trkpt lat="46.1607088" lon="13.2106035"><ele>192.0</ele><time>2026-04-24T14:57:28.208Z</time></trkpt><trkpt lat="46.1607822" lon="13.2105967"><ele>191.83333333333334</ele><time>2026-04-24T14:57:29.209Z</time></trkpt><trkpt lat="46.1608483" lon="13.2105968"><ele>191.66666666666666</ele><time>2026-04-24T14:57:30.208Z</time></trkpt><trkpt lat="46.1609211" lon="13.2106068"><ele>191.5</ele><time>2026-04-24T14:57:31.207Z</time></trkpt><trkpt lat="46.1609911" lon="13.2106258"><ele>191.33333333333331</ele><time>2026-04-24T14:57:32.208Z</time></trkpt><trkpt lat="46.1610555" lon="13.2106416"><ele>191.16666666666666</ele><time>2026-04-24T14:57:33.208Z</time></trkpt><trkpt lat="46.1611663" lon="13.2106736"><ele>191.0</ele><time>2026-04-24T14:57:35.208Z</time></trkpt><trkpt lat="46.161246" lon="13.2106987"><ele>191.0</ele><time>2026-04-24T14:57:37.207Z</time></trkpt><trkpt lat="46.1613101" lon="13.210726"><ele>191.0</ele><time>2026-04-24T14:57:39.208Z</time></trkpt><trkpt lat="46.1613724" lon="13.2107431"><ele>191.0</ele><time>2026-04-24T14:57:41.208Z</time></trkpt><trkpt lat="46.161443" lon="13.2107576"><ele>191.0</ele><time>2026-04-24T14:57:43.209Z</time></trkpt><trkpt lat="46.1615053" lon="13.2107922"><ele>191.0</ele><time>2026-04-24T14:57:45.209Z</time></trkpt><trkpt lat="46.1615815" lon="13.2108302"><ele>191.0</ele><time>2026-04-24T14:57:48.208Z</time></trkpt><trkpt lat="46.1616735" lon="13.2108442"><ele>191.0</ele><time>2026-04-24T14:58:27.207Z</time></trkpt><trkpt lat="46.1617917" lon="13.2108674"><ele>191.33333333333331</ele><time>2026-04-24T14:58:29.207Z</time></trkpt><trkpt lat="46.1618607" lon="13.2108653"><ele>191.66666666666666</ele><time>2026-04-24T14:58:30.207Z</time></trkpt><trkpt lat="46.1619399" lon="13.2108506"><ele>192.0</ele><time>2026-04-24T14:58:31.206Z</time></trkpt><trkpt lat="46.1620223" lon="13.2108351"><ele>192.33333333333331</ele><time>2026-04-24T14:58:32.208Z</time></trkpt><trkpt lat="46.162105" lon="13.2108146"><ele>192.66666666666666</ele><time>2026-04-24T14:58:33.208Z</time></trkpt><trkpt lat="46.1621941" lon="13.21079"><ele>193.0</ele><time>2026-04-24T14:58:34.207Z</time></trkpt><trkpt lat="46.1622835" lon="13.2107646"><ele>192.8</ele><time>2026-04-24T14:58:35.206Z</time></trkpt><trkpt lat="46.1623815" lon="13.2107375"><ele>192.60000000000002</ele><time>2026-04-24T14:58:36.208Z</time></trkpt><trkpt lat="46.1624737" lon="13.2107125"><ele>192.39999999999998</ele><time>2026-04-24T14:58:37.206Z</time></trkpt><trkpt lat="46.1625749" lon="13.2106867"><ele>192.2</ele><time>2026-04-24T14:58:38.206Z</time></trkpt><trkpt lat="46.1626811" lon="13.2106582"><ele>192.0</ele><time>2026-04-24T14:58:39.207Z</time></trkpt><trkpt lat="46.1627902" lon="13.2106298"><ele>191.0</ele><time>2026-04-24T14:58:40.206Z</time></trkpt><trkpt lat="46.1628972" lon="13.2105989"><ele>190.0</ele><time>2026-04-24T14:58:41.207Z</time></trkpt><trkpt lat="46.1630141" lon="13.2105681"><ele>189.0</ele><time>2026-04-24T14:58:42.207Z</time></trkpt><trkpt lat="46.1631387" lon="13.2105305"><ele>188.0</ele><time>2026-04-24T14:58:43.207Z</time></trkpt><trkpt lat="46.1632623" lon="13.2104941"><ele>187.75</ele><time>2026-04-24T14:58:44.206Z</time></trkpt><trkpt lat="46.1633849" lon="13.2104583"><ele>187.5</ele><time>2026-04-24T14:58:45.207Z</time></trkpt><trkpt lat="46.1635063" lon="13.2104196"><ele>187.25</ele><time>2026-04-24T14:58:46.207Z</time></trkpt><trkpt lat="46.1636241" lon="13.2103774"><ele>187.0</ele><time>2026-04-24T14:58:47.206Z</time></trkpt><trkpt lat="46.1637467" lon="13.2103346"><ele>187.0</ele><time>2026-04-24T14:58:48.206Z</time></trkpt><trkpt lat="46.1638658" lon="13.2102976"><ele>187.0</ele><time>2026-04-24T14:58:49.207Z</time></trkpt><trkpt lat="46.1639888" lon="13.2102554"><ele>187.0</ele><time>2026-04-24T14:58:50.207Z</time></trkpt><trkpt lat="46.164118" lon="13.2101994"><ele>187.0</ele><time>2026-04-24T14:58:51.206Z</time></trkpt><trkpt lat="46.1642423" lon="13.2101342"><ele>186.5</ele><time>2026-04-24T14:58:52.206Z</time></trkpt><trkpt lat="46.1643658" lon="13.2100682"><ele>186.0</ele><time>2026-04-24T14:58:53.206Z</time></trkpt><trkpt lat="46.1644904" lon="13.2099913"><ele>185.5</ele><time>2026-04-24T14:58:54.206Z</time></trkpt><trkpt lat="46.1646149" lon="13.2099041"><ele>185.0</ele><time>2026-04-24T14:58:55.207Z</time></trkpt><trkpt lat="46.1647441" lon="13.2098065"><ele>182.33333333333331</ele><time>2026-04-24T14:58:56.207Z</time></trkpt><trkpt lat="46.164877" lon="13.2097055"><ele>179.66666666666666</ele><time>2026-04-24T14:58:57.206Z</time></trkpt><trkpt lat="46.1650155" lon="13.2095968"><ele>177.0</ele><time>2026-04-24T14:58:58.206Z</time></trkpt><trkpt lat="46.1651645" lon="13.209483"><ele>177.0</ele><time>2026-04-24T14:58:59.206Z</time></trkpt><trkpt lat="46.1653107" lon="13.2093708"><ele>177.0</ele><time>2026-04-24T14:59:00.206Z</time></trkpt><trkpt lat="46.165462" lon="13.2092545"><ele>177.0</ele><time>2026-04-24T14:59:01.207Z</time></trkpt><trkpt lat="46.1656116" lon="13.20914"><ele>176.66666666666666</ele><time>2026-04-24T14:59:02.207Z</time></trkpt><trkpt lat="46.1657679" lon="13.2090197"><ele>176.33333333333331</ele><time>2026-04-24T14:59:03.207Z</time></trkpt><trkpt lat="46.1659374" lon="13.2088965"><ele>176.0</ele><time>2026-04-24T14:59:04.207Z</time></trkpt><trkpt lat="46.1661042" lon="13.2087756"><ele>175.0</ele><time>2026-04-24T14:59:05.206Z</time></trkpt><trkpt lat="46.1662903" lon="13.2086329"><ele>174.0</ele><time>2026-04-24T14:59:06.207Z</time></trkpt><trkpt lat="46.1665002" lon="13.2084712"><ele>173.0</ele><time>2026-04-24T14:59:07.206Z</time></trkpt><trkpt lat="46.1667033" lon="13.2083119"><ele>172.0</ele><time>2026-04-24T14:59:08.207Z</time></trkpt><trkpt lat="46.1669012" lon="13.2081535"><ele>171.0</ele><time>2026-04-24T14:59:09.206Z</time></trkpt><trkpt lat="46.16711" lon="13.2079889"><ele>171.0</ele><time>2026-04-24T14:59:10.206Z</time></trkpt><trkpt lat="46.1673175" lon="13.2078261"><ele>171.0</ele><time>2026-04-24T14:59:11.208Z</time></trkpt><trkpt lat="46.1675321" lon="13.207658"><ele>171.5</ele><time>2026-04-24T14:59:12.207Z</time></trkpt><trkpt lat="46.167734" lon="13.2075008"><ele>172.0</ele><time>2026-04-24T14:59:13.207Z</time></trkpt><trkpt lat="46.1679476" lon="13.2073409"><ele>171.5</ele><time>2026-04-24T14:59:14.206Z</time></trkpt><trkpt lat="46.1681693" lon="13.2071826"><ele>171.0</ele><time>2026-04-24T14:59:15.207Z</time></trkpt><trkpt lat="46.1683909" lon="13.2070499"><ele>173.5</ele><time>2026-04-24T14:59:16.206Z</time></trkpt><trkpt lat="46.1686152" lon="13.2069402"><ele>176.0</ele><time>2026-04-24T14:59:17.207Z</time></trkpt><trkpt lat="46.1688517" lon="13.2068492"><ele>175.5</ele><time>2026-04-24T14:59:18.207Z</time></trkpt><trkpt lat="46.1690945" lon="13.2067786"><ele>175.0</ele><time>2026-04-24T14:59:19.207Z</time></trkpt><trkpt lat="46.1693477" lon="13.2067231"><ele>175.0</ele><time>2026-04-24T14:59:20.207Z</time></trkpt><trkpt lat="46.169597" lon="13.2066713"><ele>175.0</ele><time>2026-04-24T14:59:21.207Z</time></trkpt><trkpt lat="46.1698487" lon="13.2066213"><ele>175.5</ele><time>2026-04-24T14:59:22.207Z</time></trkpt><trkpt lat="46.1701017" lon="13.2065687"><ele>176.0</ele><time>2026-04-24T14:59:23.206Z</time></trkpt><trkpt lat="46.1703549" lon="13.2065166"><ele>175.0</ele><time>2026-04-24T14:59:24.207Z</time></trkpt><trkpt lat="46.1706113" lon="13.2064669"><ele>174.0</ele><time>2026-04-24T14:59:25.208Z</time></trkpt><trkpt lat="46.1708668" lon="13.2064122"><ele>174.0</ele><time>2026-04-24T14:59:26.208Z</time></trkpt><trkpt lat="46.171122" lon="13.2063588"><ele>174.0</ele><time>2026-04-24T14:59:27.207Z</time></trkpt><trkpt lat="46.1713892" lon="13.2063065"><ele>174.5</ele><time>2026-04-24T14:59:28.207Z</time></trkpt><trkpt lat="46.1716329" lon="13.2062517"><ele>175.0</ele><time>2026-04-24T14:59:29.207Z</time></trkpt><trkpt lat="46.1718819" lon="13.2061967"><ele>175.0</ele><time>2026-04-24T14:59:30.208Z</time></trkpt><trkpt lat="46.1721407" lon="13.2061415"><ele>175.0</ele><time>2026-04-24T14:59:31.207Z</time></trkpt><trkpt lat="46.1723881" lon="13.2060898"><ele>174.0</ele><time>2026-04-24T14:59:32.207Z</time></trkpt><trkpt lat="46.1726256" lon="13.2060404"><ele>173.0</ele><time>2026-04-24T14:59:33.206Z</time></trkpt><trkpt lat="46.1728716" lon="13.2059882"><ele>173.0</ele><time>2026-04-24T14:59:34.206Z</time></trkpt><trkpt lat="46.17312" lon="13.2059361"><ele>173.0</ele><time>2026-04-24T14:59:35.208Z</time></trkpt><trkpt lat="46.1733735" lon="13.2058836"><ele>174.0</ele><time>2026-04-24T14:59:36.207Z</time></trkpt><trkpt lat="46.1736133" lon="13.2058332"><ele>175.0</ele><time>2026-04-24T14:59:37.207Z</time></trkpt><trkpt lat="46.1738576" lon="13.2057826"><ele>175.0</ele><time>2026-04-24T14:59:38.207Z</time></trkpt><trkpt lat="46.1740955" lon="13.2057313"><ele>175.0</ele><time>2026-04-24T14:59:39.208Z</time></trkpt><trkpt lat="46.1743134" lon="13.2056859"><ele>174.66666666666669</ele><time>2026-04-24T14:59:40.207Z</time></trkpt><trkpt lat="46.1745121" lon="13.2056459"><ele>174.33333333333334</ele><time>2026-04-24T14:59:41.206Z</time></trkpt><trkpt lat="46.1747084" lon="13.2056072"><ele>174.0</ele><time>2026-04-24T14:59:42.206Z</time></trkpt><trkpt lat="46.1748925" lon="13.2055717"><ele>174.66666666666666</ele><time>2026-04-24T14:59:43.207Z</time></trkpt><trkpt lat="46.1750713" lon="13.205534"><ele>175.33333333333331</ele><time>2026-04-24T14:59:44.207Z</time></trkpt><trkpt lat="46.1752305" lon="13.2054974"><ele>176.0</ele><time>2026-04-24T14:59:45.207Z</time></trkpt><trkpt lat="46.1753807" lon="13.2054637"><ele>176.0</ele><time>2026-04-24T14:59:46.206Z</time></trkpt><trkpt lat="46.1755185" lon="13.2054328"><ele>176.0</ele><time>2026-04-24T14:59:47.208Z</time></trkpt><trkpt lat="46.175636" lon="13.2054064"><ele>176.0</ele><time>2026-04-24T14:59:48.206Z</time></trkpt><trkpt lat="46.1757373" lon="13.2053834"><ele>176.0</ele><time>2026-04-24T14:59:49.207Z</time></trkpt><trkpt lat="46.1758198" lon="13.2053653"><ele>176.0</ele><time>2026-04-24T14:59:50.207Z</time></trkpt><trkpt lat="46.1758905" lon="13.2053412"><ele>176.25</ele><time>2026-04-24T14:59:51.208Z</time></trkpt><trkpt lat="46.1759744" lon="13.205295"><ele>176.5</ele><time>2026-04-24T14:59:52.207Z</time></trkpt><trkpt lat="46.1760751" lon="13.2052464"><ele>176.75</ele><time>2026-04-24T14:59:53.208Z</time></trkpt><trkpt lat="46.1761896" lon="13.2051896"><ele>177.0</ele><time>2026-04-24T14:59:54.207Z</time></trkpt><trkpt lat="46.1763295" lon="13.205122"><ele>177.0</ele><time>2026-04-24T14:59:55.207Z</time></trkpt><trkpt lat="46.1764712" lon="13.2050691"><ele>177.0</ele><time>2026-04-24T14:59:56.208Z</time></trkpt><trkpt lat="46.1766191" lon="13.205032"><ele>177.0</ele><time>2026-04-24T14:59:57.207Z</time></trkpt><trkpt lat="46.176779" lon="13.2051121"><ele>177.25</ele><time>2026-04-24T14:59:58.208Z</time></trkpt><trkpt lat="46.1769313" lon="13.2050873"><ele>177.5</ele><time>2026-04-24T14:59:59.206Z</time></trkpt><trkpt lat="46.1770772" lon="13.2050655"><ele>177.75</ele><time>2026-04-24T15:00:00.207Z</time></trkpt><trkpt lat="46.1772109" lon="13.205043"><ele>178.0</ele><time>2026-04-24T15:00:01.206Z</time></trkpt><trkpt lat="46.1773512" lon="13.2050137"><ele>178.25</ele><time>2026-04-24T15:00:02.207Z</time></trkpt><trkpt lat="46.1774942" lon="13.204984"><ele>178.5</ele><time>2026-04-24T15:00:03.208Z</time></trkpt><trkpt lat="46.1776361" lon="13.204954"><ele>178.75</ele><time>2026-04-24T15:00:04.206Z</time></trkpt><trkpt lat="46.177783" lon="13.2049225"><ele>179.0</ele><time>2026-04-24T15:00:05.207Z</time></trkpt><trkpt lat="46.1779561" lon="13.2048853"><ele>179.0</ele><time>2026-04-24T15:00:06.207Z</time></trkpt><trkpt lat="46.1781495" lon="13.2048432"><ele>179.0</ele><time>2026-04-24T15:00:07.207Z</time></trkpt><trkpt lat="46.1783553" lon="13.2047993"><ele>179.0</ele><time>2026-04-24T15:00:08.207Z</time></trkpt><trkpt lat="46.1785407" lon="13.2047572"><ele>178.66666666666666</ele><time>2026-04-24T15:00:09.207Z</time></trkpt><trkpt lat="46.1787176" lon="13.204716"><ele>178.33333333333334</ele><time>2026-04-24T15:00:10.208Z</time></trkpt><trkpt lat="46.1788876" lon="13.2046733"><ele>178.0</ele><time>2026-04-24T15:00:11.207Z</time></trkpt><trkpt lat="46.1790406" lon="13.2046348"><ele>177.5</ele><time>2026-04-24T15:00:12.207Z</time></trkpt><trkpt lat="46.1791799" lon="13.2045992"><ele>177.0</ele><time>2026-04-24T15:00:13.208Z</time></trkpt><trkpt lat="46.1793125" lon="13.2045631"><ele>176.5</ele><time>2026-04-24T15:00:14.207Z</time></trkpt><trkpt lat="46.1794336" lon="13.2045264"><ele>176.0</ele><time>2026-04-24T15:00:15.207Z</time></trkpt><trkpt lat="46.1795413" lon="13.2044889"><ele>176.0</ele><time>2026-04-24T15:00:16.206Z</time></trkpt><trkpt lat="46.1796358" lon="13.2044519"><ele>176.0</ele><time>2026-04-24T15:00:17.207Z</time></trkpt><trkpt lat="46.1797224" lon="13.204416"><ele>176.0</ele><time>2026-04-24T15:00:18.207Z</time></trkpt><trkpt lat="46.1798078" lon="13.2043806"><ele>176.0</ele><time>2026-04-24T15:00:19.207Z</time></trkpt><trkpt lat="46.1798814" lon="13.2043492"><ele>176.0</ele><time>2026-04-24T15:00:20.207Z</time></trkpt><trkpt lat="46.1799506" lon="13.2043153"><ele>176.0</ele><time>2026-04-24T15:00:21.208Z</time></trkpt><trkpt lat="46.180015" lon="13.2042842"><ele>176.5</ele><time>2026-04-24T15:00:22.207Z</time></trkpt><trkpt lat="46.1800801" lon="13.2042463"><ele>177.0</ele><time>2026-04-24T15:00:23.207Z</time></trkpt><trkpt lat="46.1801501" lon="13.2042036"><ele>177.5</ele><time>2026-04-24T15:00:24.208Z</time></trkpt><trkpt lat="46.1802186" lon="13.2041611"><ele>178.0</ele><time>2026-04-24T15:00:25.206Z</time></trkpt><trkpt lat="46.1802917" lon="13.2041169"><ele>178.5</ele><time>2026-04-24T15:00:26.207Z</time></trkpt><trkpt lat="46.1803749" lon="13.204065"><ele>179.0</ele><time>2026-04-24T15:00:27.206Z</time></trkpt><trkpt lat="46.1804589" lon="13.2040114"><ele>179.0</ele><time>2026-04-24T15:00:28.206Z</time></trkpt><trkpt lat="46.1805404" lon="13.2039602"><ele>179.0</ele><time>2026-04-24T15:00:29.207Z</time></trkpt><trkpt lat="46.1806246" lon="13.2039066"><ele>179.0</ele><time>2026-04-24T15:00:30.207Z</time></trkpt><trkpt lat="46.1807093" lon="13.2038528"><ele>179.0</ele><time>2026-04-24T15:00:31.207Z</time></trkpt><trkpt lat="46.1807999" lon="13.2037948"><ele>179.0</ele><time>2026-04-24T15:00:32.207Z</time></trkpt><trkpt lat="46.180888" lon="13.203739"><ele>179.2</ele><time>2026-04-24T15:00:33.207Z</time></trkpt><trkpt lat="46.1809826" lon="13.2036783"><ele>179.39999999999998</ele><time>2026-04-24T15:00:34.208Z</time></trkpt><trkpt lat="46.1810824" lon="13.2036142"><ele>179.6</ele><time>2026-04-24T15:00:35.208Z</time></trkpt><trkpt lat="46.1811824" lon="13.2035518"><ele>179.8</ele><time>2026-04-24T15:00:36.207Z</time></trkpt><trkpt lat="46.1812821" lon="13.2034827"><ele>180.0</ele><time>2026-04-24T15:00:37.206Z</time></trkpt><trkpt lat="46.1813899" lon="13.2034062"><ele>180.0</ele><time>2026-04-24T15:00:38.206Z</time></trkpt><trkpt lat="46.1815031" lon="13.2033269"><ele>180.0</ele><time>2026-04-24T15:00:39.206Z</time></trkpt><trkpt lat="46.1816264" lon="13.2032452"><ele>180.0</ele><time>2026-04-24T15:00:40.206Z</time></trkpt><trkpt lat="46.1817498" lon="13.2031669"><ele>180.0</ele><time>2026-04-24T15:00:41.208Z</time></trkpt><trkpt lat="46.1818783" lon="13.2030852"><ele>179.5</ele><time>2026-04-24T15:00:42.207Z</time></trkpt><trkpt lat="46.1820109" lon="13.2030009"><ele>179.0</ele><time>2026-04-24T15:00:43.207Z</time></trkpt><trkpt lat="46.1821356" lon="13.2029216"><ele>178.5</ele><time>2026-04-24T15:00:44.207Z</time></trkpt><trkpt lat="46.1822707" lon="13.2028345"><ele>178.0</ele><time>2026-04-24T15:00:45.207Z</time></trkpt><trkpt lat="46.1824229" lon="13.2027336"><ele>180.33333333333334</ele><time>2026-04-24T15:00:46.208Z</time></trkpt><trkpt lat="46.1825751" lon="13.2026361"><ele>182.66666666666666</ele><time>2026-04-24T15:00:47.206Z</time></trkpt><trkpt lat="46.1827333" lon="13.2025377"><ele>185.0</ele><time>2026-04-24T15:00:48.207Z</time></trkpt><trkpt lat="46.1828759" lon="13.2024502"><ele>185.0</ele><time>2026-04-24T15:00:49.208Z</time></trkpt><trkpt lat="46.1830169" lon="13.2023631"><ele>185.0</ele><time>2026-04-24T15:00:50.206Z</time></trkpt><trkpt lat="46.1831567" lon="13.2022761"><ele>185.0</ele><time>2026-04-24T15:00:51.207Z</time></trkpt><trkpt lat="46.1832852" lon="13.2021952"><ele>185.0</ele><time>2026-04-24T15:00:52.207Z</time></trkpt><trkpt lat="46.1834064" lon="13.2021183"><ele>185.0</ele><time>2026-04-24T15:00:53.208Z</time></trkpt><trkpt lat="46.1835313" lon="13.2020391"><ele>185.0</ele><time>2026-04-24T15:00:54.206Z</time></trkpt><trkpt lat="46.1836572" lon="13.2019589"><ele>185.0</ele><time>2026-04-24T15:00:55.205Z</time></trkpt><trkpt lat="46.1837849" lon="13.2018754"><ele>185.0</ele><time>2026-04-24T15:00:56.206Z</time></trkpt><trkpt lat="46.1839037" lon="13.2017984"><ele>185.0</ele><time>2026-04-24T15:00:57.205Z</time></trkpt><trkpt lat="46.1840285" lon="13.2017161"><ele>185.0</ele><time>2026-04-24T15:00:58.205Z</time></trkpt><trkpt lat="46.1841569" lon="13.2016317"><ele>185.0</ele><time>2026-04-24T15:00:59.206Z</time></trkpt><trkpt lat="46.1842831" lon="13.2015505"><ele>185.0</ele><time>2026-04-24T15:01:00.206Z</time></trkpt><trkpt lat="46.1844057" lon="13.2014729"><ele>185.0</ele><time>2026-04-24T15:01:01.207Z</time></trkpt><trkpt lat="46.1845336" lon="13.2013931"><ele>185.0</ele><time>2026-04-24T15:01:02.205Z</time></trkpt><trkpt lat="46.1846594" lon="13.2013131"><ele>185.0</ele><time>2026-04-24T15:01:03.205Z</time></trkpt><trkpt lat="46.1847873" lon="13.2012308"><ele>185.0</ele><time>2026-04-24T15:01:04.206Z</time></trkpt><trkpt lat="46.1849093" lon="13.2011521"><ele>185.25</ele><time>2026-04-24T15:01:05.205Z</time></trkpt><trkpt lat="46.185034" lon="13.2010717"><ele>185.5</ele><time>2026-04-24T15:01:06.207Z</time></trkpt><trkpt lat="46.1851637" lon="13.2009876"><ele>185.75</ele><time>2026-04-24T15:01:07.207Z</time></trkpt><trkpt lat="46.1852898" lon="13.2009061"><ele>186.0</ele><time>2026-04-24T15:01:08.207Z</time></trkpt><trkpt lat="46.1854138" lon="13.2008264"><ele>186.0</ele><time>2026-04-24T15:01:09.205Z</time></trkpt><trkpt lat="46.1855533" lon="13.2007363"><ele>186.0</ele><time>2026-04-24T15:01:10.207Z</time></trkpt><trkpt lat="46.1857088" lon="13.2006303"><ele>186.0</ele><time>2026-04-24T15:01:11.206Z</time></trkpt><trkpt lat="46.1858881" lon="13.2005151"><ele>185.33333333333334</ele><time>2026-04-24T15:01:12.205Z</time></trkpt><trkpt lat="46.1860719" lon="13.2004068"><ele>184.66666666666669</ele><time>2026-04-24T15:01:13.205Z</time></trkpt><trkpt lat="46.1862539" lon="13.2003007"><ele>184.0</ele><time>2026-04-24T15:01:14.206Z</time></trkpt><trkpt lat="46.1864406" lon="13.2001907"><ele>184.66666666666669</ele><time>2026-04-24T15:01:15.206Z</time></trkpt><trkpt lat="46.1866115" lon="13.2000891"><ele>185.33333333333334</ele><time>2026-04-24T15:01:16.207Z</time></trkpt><trkpt lat="46.1867834" lon="13.1999808"><ele>186.0</ele><time>2026-04-24T15:01:17.206Z</time></trkpt><trkpt lat="46.1869531" lon="13.1998654"><ele>186.0</ele><time>2026-04-24T15:01:18.206Z</time></trkpt><trkpt lat="46.1871207" lon="13.1997428"><ele>186.0</ele><time>2026-04-24T15:01:19.206Z</time></trkpt><trkpt lat="46.1872915" lon="13.1996096"><ele>186.0</ele><time>2026-04-24T15:01:20.205Z</time></trkpt><trkpt lat="46.1874499" lon="13.199479"><ele>186.0</ele><time>2026-04-24T15:01:21.206Z</time></trkpt><trkpt lat="46.1876153" lon="13.1993407"><ele>186.0</ele><time>2026-04-24T15:01:22.206Z</time></trkpt><trkpt lat="46.1877828" lon="13.199196"><ele>186.0</ele><time>2026-04-24T15:01:23.206Z</time></trkpt><trkpt lat="46.1879456" lon="13.1990527"><ele>185.66666666666666</ele><time>2026-04-24T15:01:24.206Z</time></trkpt><trkpt lat="46.1881008" lon="13.1989132"><ele>185.33333333333331</ele><time>2026-04-24T15:01:25.205Z</time></trkpt><trkpt lat="46.1882626" lon="13.1987669"><ele>185.0</ele><time>2026-04-24T15:01:26.206Z</time></trkpt><trkpt lat="46.1884214" lon="13.1986248"><ele>185.0</ele><time>2026-04-24T15:01:27.206Z</time></trkpt><trkpt lat="46.1885834" lon="13.1984826"><ele>185.0</ele><time>2026-04-24T15:01:28.206Z</time></trkpt><trkpt lat="46.1887355" lon="13.1983543"><ele>185.0</ele><time>2026-04-24T15:01:29.206Z</time></trkpt><trkpt lat="46.188884" lon="13.1982346"><ele>186.0</ele><time>2026-04-24T15:01:30.206Z</time></trkpt><trkpt lat="46.1890336" lon="13.1981184"><ele>187.0</ele><time>2026-04-24T15:01:31.205Z</time></trkpt><trkpt lat="46.1891718" lon="13.1980187"><ele>188.0</ele><time>2026-04-24T15:01:32.206Z</time></trkpt><trkpt lat="46.1893182" lon="13.1979107"><ele>188.0</ele><time>2026-04-24T15:01:33.207Z</time></trkpt><trkpt lat="46.1894612" lon="13.1978076"><ele>188.0</ele><time>2026-04-24T15:01:34.206Z</time></trkpt><trkpt lat="46.1896042" lon="13.1977042"><ele>188.0</ele><time>2026-04-24T15:01:35.207Z</time></trkpt><trkpt lat="46.1897439" lon="13.1976015"><ele>188.0</ele><time>2026-04-24T15:01:36.205Z</time></trkpt><trkpt lat="46.1898839" lon="13.1975002"><ele>188.0</ele><time>2026-04-24T15:01:37.205Z</time></trkpt><trkpt lat="46.1900221" lon="13.1973928"><ele>188.0</ele><time>2026-04-24T15:01:38.205Z</time></trkpt><trkpt lat="46.1901623" lon="13.1972835"><ele>187.33333333333331</ele><time>2026-04-24T15:01:39.206Z</time></trkpt><trkpt lat="46.1903026" lon="13.1971782"><ele>186.66666666666666</ele><time>2026-04-24T15:01:40.206Z</time></trkpt><trkpt lat="46.1904428" lon="13.1970718"><ele>186.0</ele><time>2026-04-24T15:01:41.207Z</time></trkpt><trkpt lat="46.1905835" lon="13.1969577"><ele>186.5</ele><time>2026-04-24T15:01:42.207Z</time></trkpt><trkpt lat="46.1907205" lon="13.1968513"><ele>187.0</ele><time>2026-04-24T15:01:43.207Z</time></trkpt><trkpt lat="46.1908452" lon="13.1967522"><ele>187.5</ele><time>2026-04-24T15:01:44.206Z</time></trkpt><trkpt lat="46.1909634" lon="13.1966568"><ele>188.0</ele><time>2026-04-24T15:01:45.207Z</time></trkpt><trkpt lat="46.1910773" lon="13.1965703"><ele>188.25</ele><time>2026-04-24T15:01:46.206Z</time></trkpt><trkpt lat="46.1911913" lon="13.1964777"><ele>188.5</ele><time>2026-04-24T15:01:47.207Z</time></trkpt><trkpt lat="46.191302" lon="13.1963836"><ele>188.75</ele><time>2026-04-24T15:01:48.206Z</time></trkpt><trkpt lat="46.1914117" lon="13.196297"><ele>189.0</ele><time>2026-04-24T15:01:49.206Z</time></trkpt><trkpt lat="46.1915197" lon="13.1962148"><ele>189.5</ele><time>2026-04-24T15:01:50.206Z</time></trkpt><trkpt lat="46.1916277" lon="13.1961295"><ele>190.0</ele><time>2026-04-24T15:01:51.206Z</time></trkpt><trkpt lat="46.1917411" lon="13.1960401"><ele>190.5</ele><time>2026-04-24T15:01:52.207Z</time></trkpt><trkpt lat="46.1918536" lon="13.1959534"><ele>191.0</ele><time>2026-04-24T15:01:53.207Z</time></trkpt><trkpt lat="46.1919604" lon="13.1958702"><ele>191.0</ele><time>2026-04-24T15:01:54.207Z</time></trkpt><trkpt lat="46.1920668" lon="13.1957798"><ele>191.0</ele><time>2026-04-24T15:01:55.206Z</time></trkpt><trkpt lat="46.1921811" lon="13.1956798"><ele>191.0</ele><time>2026-04-24T15:01:56.206Z</time></trkpt><trkpt lat="46.1923013" lon="13.1955855"><ele>191.0</ele><time>2026-04-24T15:01:57.206Z</time></trkpt><trkpt lat="46.1924153" lon="13.1954914"><ele>191.4</ele><time>2026-04-24T15:01:58.206Z</time></trkpt><trkpt lat="46.1925194" lon="13.195405"><ele>191.8</ele><time>2026-04-24T15:01:59.206Z</time></trkpt><trkpt lat="46.1926281" lon="13.1953246"><ele>192.20000000000002</ele><time>2026-04-24T15:02:00.206Z</time></trkpt><trkpt lat="46.192726" lon="13.1952502"><ele>192.60000000000002</ele><time>2026-04-24T15:02:01.207Z</time></trkpt><trkpt lat="46.192803" lon="13.1951944"><ele>193.0</ele><time>2026-04-24T15:02:02.206Z</time></trkpt><trkpt lat="46.1929076" lon="13.1951037"><ele>193.00000000000003</ele><time>2026-04-24T15:02:04.207Z</time></trkpt><trkpt lat="46.1929831" lon="13.1950335"><ele>193.0</ele><time>2026-04-24T15:02:05.207Z</time></trkpt><trkpt lat="46.193052" lon="13.1949832"><ele>193.0</ele><time>2026-04-24T15:02:06.205Z</time></trkpt><trkpt lat="46.1931129" lon="13.1949511"><ele>193.0</ele><time>2026-04-24T15:02:07.205Z</time></trkpt><trkpt lat="46.1931798" lon="13.1949161"><ele>193.0</ele><time>2026-04-24T15:02:08.205Z</time></trkpt><trkpt lat="46.1932487" lon="13.1948821"><ele>193.00000000000003</ele><time>2026-04-24T15:02:09.206Z</time></trkpt><trkpt lat="46.1933129" lon="13.1948448"><ele>193.0</ele><time>2026-04-24T15:02:10.206Z</time></trkpt><trkpt lat="46.1933877" lon="13.194803"><ele>192.60000000000002</ele><time>2026-04-24T15:02:11.207Z</time></trkpt><trkpt lat="46.1934632" lon="13.1947587"><ele>192.20000000000002</ele><time>2026-04-24T15:02:12.207Z</time></trkpt><trkpt lat="46.1935365" lon="13.1947164"><ele>191.8</ele><time>2026-04-24T15:02:13.207Z</time></trkpt><trkpt lat="46.1936165" lon="13.1946705"><ele>191.4</ele><time>2026-04-24T15:02:14.206Z</time></trkpt><trkpt lat="46.1937078" lon="13.194619"><ele>191.0</ele><time>2026-04-24T15:02:15.205Z</time></trkpt><trkpt lat="46.1938078" lon="13.1945595"><ele>191.0</ele><time>2026-04-24T15:02:16.207Z</time></trkpt><trkpt lat="46.1939084" lon="13.1945002"><ele>191.0</ele><time>2026-04-24T15:02:17.206Z</time></trkpt><trkpt lat="46.1940146" lon="13.1944499"><ele>191.0</ele><time>2026-04-24T15:02:18.206Z</time></trkpt><trkpt lat="46.1941183" lon="13.1943939"><ele>191.0</ele><time>2026-04-24T15:02:19.207Z</time></trkpt><trkpt lat="46.1942285" lon="13.1943386"><ele>191.0</ele><time>2026-04-24T15:02:20.205Z</time></trkpt><trkpt lat="46.194344" lon="13.1942732"><ele>191.5</ele><time>2026-04-24T15:02:21.206Z</time></trkpt><trkpt lat="46.1944648" lon="13.1942044"><ele>192.0</ele><time>2026-04-24T15:02:22.205Z</time></trkpt><trkpt lat="46.1945883" lon="13.1941402"><ele>192.5</ele><time>2026-04-24T15:02:23.206Z</time></trkpt><trkpt lat="46.194718" lon="13.1940749"><ele>193.0</ele><time>2026-04-24T15:02:24.206Z</time></trkpt><trkpt lat="46.1948545" lon="13.1940041"><ele>193.66666666666666</ele><time>2026-04-24T15:02:25.206Z</time></trkpt><trkpt lat="46.195001" lon="13.193926"><ele>194.33333333333331</ele><time>2026-04-24T15:02:26.207Z</time></trkpt><trkpt lat="46.1951624" lon="13.193839"><ele>195.0</ele><time>2026-04-24T15:02:27.207Z</time></trkpt><trkpt lat="46.1953348" lon="13.1937354"><ele>195.0</ele><time>2026-04-24T15:02:28.206Z</time></trkpt><trkpt lat="46.1955192" lon="13.1936289"><ele>195.0</ele><time>2026-04-24T15:02:29.207Z</time></trkpt><trkpt lat="46.1957085" lon="13.1935329"><ele>195.0</ele><time>2026-04-24T15:02:30.206Z</time></trkpt><trkpt lat="46.1958998" lon="13.1934383"><ele>196.5</ele><time>2026-04-24T15:02:31.207Z</time></trkpt><trkpt lat="46.1961063" lon="13.1933314"><ele>198.0</ele><time>2026-04-24T15:02:32.206Z</time></trkpt><trkpt lat="46.1963252" lon="13.1932254"><ele>197.0</ele><time>2026-04-24T15:02:33.205Z</time></trkpt><trkpt lat="46.1965471" lon="13.1931393"><ele>196.0</ele><time>2026-04-24T15:02:34.205Z</time></trkpt><trkpt lat="46.1967644" lon="13.1930647"><ele>196.0</ele><time>2026-04-24T15:02:35.205Z</time></trkpt><trkpt lat="46.1969861" lon="13.1930036"><ele>196.0</ele><time>2026-04-24T15:02:36.206Z</time></trkpt><trkpt lat="46.1971985" lon="13.1929452"><ele>196.0</ele><time>2026-04-24T15:02:37.205Z</time></trkpt><trkpt lat="46.1974007" lon="13.1928896"><ele>196.0</ele><time>2026-04-24T15:02:38.206Z</time></trkpt><trkpt lat="46.1976035" lon="13.1928379"><ele>196.0</ele><time>2026-04-24T15:02:39.206Z</time></trkpt><trkpt lat="46.1978006" lon="13.1927876"><ele>196.0</ele><time>2026-04-24T15:02:40.207Z</time></trkpt><trkpt lat="46.1979907" lon="13.192736"><ele>196.33333333333331</ele><time>2026-04-24T15:02:41.205Z</time></trkpt><trkpt lat="46.1981842" lon="13.1926834"><ele>196.66666666666669</ele><time>2026-04-24T15:02:42.205Z</time></trkpt><trkpt lat="46.1983976" lon="13.1926205"><ele>197.0</ele><time>2026-04-24T15:02:43.206Z</time></trkpt><trkpt lat="46.198634" lon="13.192551"><ele>197.0</ele><time>2026-04-24T15:02:44.206Z</time></trkpt><trkpt lat="46.1988828" lon="13.1924826"><ele>197.0</ele><time>2026-04-24T15:02:45.205Z</time></trkpt><trkpt lat="46.1991355" lon="13.1924172"><ele>200.5</ele><time>2026-04-24T15:02:46.207Z</time></trkpt><trkpt lat="46.1993742" lon="13.1923506"><ele>204.0</ele><time>2026-04-24T15:02:47.206Z</time></trkpt><trkpt lat="46.1996009" lon="13.1922779"><ele>205.5</ele><time>2026-04-24T15:02:48.205Z</time></trkpt><trkpt lat="46.1998203" lon="13.1921907"><ele>207.0</ele><time>2026-04-24T15:02:49.206Z</time></trkpt><trkpt lat="46.2000346" lon="13.1920874"><ele>207.5</ele><time>2026-04-24T15:02:50.206Z</time></trkpt><trkpt lat="46.2002478" lon="13.1919642"><ele>208.0</ele><time>2026-04-24T15:02:51.206Z</time></trkpt><trkpt lat="46.2004609" lon="13.191824"><ele>205.0</ele><time>2026-04-24T15:02:52.206Z</time></trkpt><trkpt lat="46.2006698" lon="13.1916861"><ele>202.0</ele><time>2026-04-24T15:02:53.205Z</time></trkpt><trkpt lat="46.2008797" lon="13.1915487"><ele>201.5</ele><time>2026-04-24T15:02:54.206Z</time></trkpt><trkpt lat="46.2010839" lon="13.1914129"><ele>201.0</ele><time>2026-04-24T15:02:55.206Z</time></trkpt><trkpt lat="46.2012908" lon="13.1912781"><ele>201.0</ele><time>2026-04-24T15:02:56.207Z</time></trkpt><trkpt lat="46.2014969" lon="13.191141"><ele>201.0</ele><time>2026-04-24T15:02:57.206Z</time></trkpt><trkpt lat="46.2016988" lon="13.1910059"><ele>201.0</ele><time>2026-04-24T15:02:58.206Z</time></trkpt><trkpt lat="46.2019018" lon="13.1908709"><ele>200.0</ele><time>2026-04-24T15:02:59.206Z</time></trkpt><trkpt lat="46.2021055" lon="13.1907385"><ele>199.0</ele><time>2026-04-24T15:03:00.206Z</time></trkpt><trkpt lat="46.2023083" lon="13.1906107"><ele>198.0</ele><time>2026-04-24T15:03:01.206Z</time></trkpt><trkpt lat="46.202508" lon="13.1904872"><ele>197.33333333333331</ele><time>2026-04-24T15:03:02.205Z</time></trkpt><trkpt lat="46.2027017" lon="13.1903585"><ele>196.66666666666666</ele><time>2026-04-24T15:03:03.206Z</time></trkpt><trkpt lat="46.2028963" lon="13.1902333"><ele>196.0</ele><time>2026-04-24T15:03:04.205Z</time></trkpt><trkpt lat="46.2030892" lon="13.1901037"><ele>196.33333333333331</ele><time>2026-04-24T15:03:05.207Z</time></trkpt><trkpt lat="46.2032694" lon="13.1899849"><ele>196.66666666666669</ele><time>2026-04-24T15:03:06.206Z</time></trkpt><trkpt lat="46.2034224" lon="13.1898887"><ele>197.0</ele><time>2026-04-24T15:03:07.206Z</time></trkpt><trkpt lat="46.2035499" lon="13.1898087"><ele>196.39999999999998</ele><time>2026-04-24T15:03:08.205Z</time></trkpt><trkpt lat="46.2036651" lon="13.189738"><ele>195.79999999999998</ele><time>2026-04-24T15:03:09.205Z</time></trkpt><trkpt lat="46.2037683" lon="13.189663"><ele>195.2</ele><time>2026-04-24T15:03:10.206Z</time></trkpt><trkpt lat="46.2038596" lon="13.1895912"><ele>194.6</ele><time>2026-04-24T15:03:11.205Z</time></trkpt><trkpt lat="46.2039463" lon="13.1895223"><ele>194.0</ele><time>2026-04-24T15:03:12.206Z</time></trkpt><trkpt lat="46.2040433" lon="13.1894518"><ele>193.5</ele><time>2026-04-24T15:03:13.205Z</time></trkpt><trkpt lat="46.2041411" lon="13.1893839"><ele>193.0</ele><time>2026-04-24T15:03:14.205Z</time></trkpt><trkpt lat="46.2042432" lon="13.1893171"><ele>192.5</ele><time>2026-04-24T15:03:15.205Z</time></trkpt><trkpt lat="46.2043535" lon="13.1892435"><ele>192.0</ele><time>2026-04-24T15:03:16.205Z</time></trkpt><trkpt lat="46.2044861" lon="13.1891515"><ele>192.0</ele><time>2026-04-24T15:03:17.206Z</time></trkpt><trkpt lat="46.2046313" lon="13.1890586"><ele>192.0</ele><time>2026-04-24T15:03:18.206Z</time></trkpt><trkpt lat="46.2047718" lon="13.1889695"><ele>192.0</ele><time>2026-04-24T15:03:19.206Z</time></trkpt><trkpt lat="46.2049111" lon="13.1888829"><ele>192.0</ele><time>2026-04-24T15:03:20.206Z</time></trkpt><trkpt lat="46.2050478" lon="13.1887938"><ele>192.0</ele><time>2026-04-24T15:03:21.206Z</time></trkpt><trkpt lat="46.2051844" lon="13.1887051"><ele>192.0</ele><time>2026-04-24T15:03:22.206Z</time></trkpt><trkpt lat="46.2053194" lon="13.1886184"><ele>192.0</ele><time>2026-04-24T15:03:23.205Z</time></trkpt><trkpt lat="46.2054559" lon="13.1885247"><ele>192.0</ele><time>2026-04-24T15:03:24.206Z</time></trkpt><trkpt lat="46.205598" lon="13.188432"><ele>192.0</ele><time>2026-04-24T15:03:25.205Z</time></trkpt><trkpt lat="46.2057429" lon="13.1883371"><ele>192.0</ele><time>2026-04-24T15:03:26.206Z</time></trkpt><trkpt lat="46.2058895" lon="13.1882456"><ele>192.66666666666669</ele><time>2026-04-24T15:03:27.205Z</time></trkpt><trkpt lat="46.2060371" lon="13.1881527"><ele>193.33333333333334</ele><time>2026-04-24T15:03:28.206Z</time></trkpt><trkpt lat="46.2061921" lon="13.188048"><ele>194.0</ele><time>2026-04-24T15:03:29.206Z</time></trkpt><trkpt lat="46.2063506" lon="13.1879406"><ele>194.0</ele><time>2026-04-24T15:03:30.205Z</time></trkpt><trkpt lat="46.2065093" lon="13.1878341"><ele>194.0</ele><time>2026-04-24T15:03:31.206Z</time></trkpt><trkpt lat="46.2066702" lon="13.1877277"><ele>194.0</ele><time>2026-04-24T15:03:32.206Z</time></trkpt><trkpt lat="46.2068327" lon="13.1876283"><ele>194.0</ele><time>2026-04-24T15:03:33.206Z</time></trkpt><trkpt lat="46.206994" lon="13.1875236"><ele>194.0</ele><time>2026-04-24T15:03:34.206Z</time></trkpt><trkpt lat="46.20715" lon="13.1874209"><ele>194.0</ele><time>2026-04-24T15:03:35.205Z</time></trkpt><trkpt lat="46.2073061" lon="13.1873164"><ele>194.0</ele><time>2026-04-24T15:03:36.205Z</time></trkpt><trkpt lat="46.2074635" lon="13.1872146"><ele>194.0</ele><time>2026-04-24T15:03:37.207Z</time></trkpt><trkpt lat="46.2076231" lon="13.1871098"><ele>194.0</ele><time>2026-04-24T15:03:38.206Z</time></trkpt><trkpt lat="46.2077821" lon="13.1870036"><ele>194.0</ele><time>2026-04-24T15:03:39.206Z</time></trkpt><trkpt lat="46.2079444" lon="13.1868976"><ele>194.0</ele><time>2026-04-24T15:03:40.207Z</time></trkpt><trkpt lat="46.2081096" lon="13.1867928"><ele>194.0</ele><time>2026-04-24T15:03:41.206Z</time></trkpt><trkpt lat="46.2082757" lon="13.1866882"><ele>194.66666666666669</ele><time>2026-04-24T15:03:42.206Z</time></trkpt><trkpt lat="46.2084408" lon="13.1865849"><ele>195.33333333333331</ele><time>2026-04-24T15:03:43.205Z</time></trkpt><trkpt lat="46.2086042" lon="13.1864823"><ele>196.0</ele><time>2026-04-24T15:03:44.205Z</time></trkpt><trkpt lat="46.2087632" lon="13.1863767"><ele>196.0</ele><time>2026-04-24T15:03:45.206Z</time></trkpt><trkpt lat="46.2089234" lon="13.1862723"><ele>196.0</ele><time>2026-04-24T15:03:46.205Z</time></trkpt><trkpt lat="46.2090823" lon="13.1861712"><ele>196.0</ele><time>2026-04-24T15:03:47.205Z</time></trkpt><trkpt lat="46.2092402" lon="13.1860675"><ele>195.33333333333331</ele><time>2026-04-24T15:03:48.207Z</time></trkpt><trkpt lat="46.2093974" lon="13.185963"><ele>194.66666666666669</ele><time>2026-04-24T15:03:49.207Z</time></trkpt><trkpt lat="46.2095552" lon="13.1858615"><ele>194.0</ele><time>2026-04-24T15:03:50.206Z</time></trkpt><trkpt lat="46.2097142" lon="13.1857566"><ele>194.0</ele><time>2026-04-24T15:03:51.206Z</time></trkpt><trkpt lat="46.2098743" lon="13.1856503"><ele>194.0</ele><time>2026-04-24T15:03:52.207Z</time></trkpt><trkpt lat="46.210034" lon="13.1855433"><ele>194.0</ele><time>2026-04-24T15:03:53.206Z</time></trkpt><trkpt lat="46.210196" lon="13.1854393"><ele>194.0</ele><time>2026-04-24T15:03:54.206Z</time></trkpt><trkpt lat="46.2103583" lon="13.1853321"><ele>194.0</ele><time>2026-04-24T15:03:55.205Z</time></trkpt><trkpt lat="46.2105243" lon="13.1852226"><ele>194.0</ele><time>2026-04-24T15:03:56.206Z</time></trkpt><trkpt lat="46.2106925" lon="13.1851128"><ele>193.66666666666669</ele><time>2026-04-24T15:03:57.206Z</time></trkpt><trkpt lat="46.2108602" lon="13.1850026"><ele>193.33333333333331</ele><time>2026-04-24T15:03:58.206Z</time></trkpt><trkpt lat="46.2110275" lon="13.1848894"><ele>193.0</ele><time>2026-04-24T15:03:59.207Z</time></trkpt><trkpt lat="46.2111963" lon="13.1847761"><ele>193.0</ele><time>2026-04-24T15:04:00.206Z</time></trkpt><trkpt lat="46.211367" lon="13.1846609"><ele>193.0</ele><time>2026-04-24T15:04:01.207Z</time></trkpt><trkpt lat="46.2115408" lon="13.1845472"><ele>193.0</ele><time>2026-04-24T15:04:02.206Z</time></trkpt><trkpt lat="46.2117154" lon="13.1844356"><ele>193.0</ele><time>2026-04-24T15:04:03.206Z</time></trkpt><trkpt lat="46.211891" lon="13.1843224"><ele>193.0</ele><time>2026-04-24T15:04:04.205Z</time></trkpt><trkpt lat="46.2120678" lon="13.1842089"><ele>193.0</ele><time>2026-04-24T15:04:05.206Z</time></trkpt><trkpt lat="46.2122445" lon="13.1840941"><ele>193.66666666666666</ele><time>2026-04-24T15:04:06.206Z</time></trkpt><trkpt lat="46.2124247" lon="13.1839788"><ele>194.33333333333331</ele><time>2026-04-24T15:04:07.205Z</time></trkpt><trkpt lat="46.2126055" lon="13.1838609"><ele>195.0</ele><time>2026-04-24T15:04:08.206Z</time></trkpt><trkpt lat="46.2127846" lon="13.1837445"><ele>195.0</ele><time>2026-04-24T15:04:09.205Z</time></trkpt><trkpt lat="46.2129651" lon="13.1836285"><ele>195.0</ele><time>2026-04-24T15:04:10.206Z</time></trkpt><trkpt lat="46.2131425" lon="13.1835126"><ele>195.0</ele><time>2026-04-24T15:04:11.205Z</time></trkpt><trkpt lat="46.2133169" lon="13.1833976"><ele>195.33333333333331</ele><time>2026-04-24T15:04:12.205Z</time></trkpt><trkpt lat="46.2134915" lon="13.1832844"><ele>195.66666666666666</ele><time>2026-04-24T15:04:13.205Z</time></trkpt><trkpt lat="46.2136627" lon="13.1831707"><ele>196.0</ele><time>2026-04-24T15:04:14.205Z</time></trkpt><trkpt lat="46.2138368" lon="13.1830558"><ele>195.33333333333331</ele><time>2026-04-24T15:04:15.204Z</time></trkpt><trkpt lat="46.2140039" lon="13.1829484"><ele>194.66666666666669</ele><time>2026-04-24T15:04:16.205Z</time></trkpt><trkpt lat="46.2141717" lon="13.182839"><ele>194.0</ele><time>2026-04-24T15:04:17.204Z</time></trkpt><trkpt lat="46.2143389" lon="13.182729"><ele>194.0</ele><time>2026-04-24T15:04:18.205Z</time></trkpt><trkpt lat="46.2145067" lon="13.1826225"><ele>194.0</ele><time>2026-04-24T15:04:19.205Z</time></trkpt><trkpt lat="46.2146744" lon="13.1825195"><ele>194.0</ele><time>2026-04-24T15:04:20.204Z</time></trkpt><trkpt lat="46.214844" lon="13.1824207"><ele>193.0</ele><time>2026-04-24T15:04:21.205Z</time></trkpt><trkpt lat="46.215015" lon="13.182323"><ele>192.0</ele><time>2026-04-24T15:04:22.205Z</time></trkpt><trkpt lat="46.2151868" lon="13.1822263"><ele>191.0</ele><time>2026-04-24T15:04:23.204Z</time></trkpt><trkpt lat="46.2153586" lon="13.1821366"><ele>191.0</ele><time>2026-04-24T15:04:24.204Z</time></trkpt><trkpt lat="46.2155305" lon="13.182048"><ele>191.0</ele><time>2026-04-24T15:04:25.205Z</time></trkpt><trkpt lat="46.2156982" lon="13.1819631"><ele>191.0</ele><time>2026-04-24T15:04:26.205Z</time></trkpt><trkpt lat="46.2158701" lon="13.1818804"><ele>191.66666666666666</ele><time>2026-04-24T15:04:27.205Z</time></trkpt><trkpt lat="46.2160424" lon="13.1817921"><ele>192.33333333333331</ele><time>2026-04-24T15:04:28.205Z</time></trkpt><trkpt lat="46.2162199" lon="13.1817004"><ele>193.0</ele><time>2026-04-24T15:04:29.205Z</time></trkpt><trkpt lat="46.2163957" lon="13.1816077"><ele>193.0</ele><time>2026-04-24T15:04:30.204Z</time></trkpt><trkpt lat="46.2165697" lon="13.1815183"><ele>193.0</ele><time>2026-04-24T15:04:31.204Z</time></trkpt><trkpt lat="46.2167412" lon="13.1814268"><ele>193.0</ele><time>2026-04-24T15:04:32.206Z</time></trkpt><trkpt lat="46.2169113" lon="13.1813402"><ele>193.0</ele><time>2026-04-24T15:04:33.205Z</time></trkpt><trkpt lat="46.2170834" lon="13.1812565"><ele>193.0</ele><time>2026-04-24T15:04:34.206Z</time></trkpt><trkpt lat="46.2172579" lon="13.1811752"><ele>193.0</ele><time>2026-04-24T15:04:35.205Z</time></trkpt><trkpt lat="46.2174284" lon="13.1810926"><ele>193.66666666666666</ele><time>2026-04-24T15:04:36.205Z</time></trkpt><trkpt lat="46.2175935" lon="13.1810077"><ele>194.33333333333331</ele><time>2026-04-24T15:04:37.206Z</time></trkpt><trkpt lat="46.2177519" lon="13.180931"><ele>195.0</ele><time>2026-04-24T15:04:38.205Z</time></trkpt><trkpt lat="46.2179031" lon="13.1808557"><ele>195.0</ele><time>2026-04-24T15:04:39.204Z</time></trkpt><trkpt lat="46.2180528" lon="13.1807842"><ele>195.0</ele><time>2026-04-24T15:04:40.204Z</time></trkpt><trkpt lat="46.2181981" lon="13.1807154"><ele>195.0</ele><time>2026-04-24T15:04:41.205Z</time></trkpt><trkpt lat="46.2183368" lon="13.1806434"><ele>194.75</ele><time>2026-04-24T15:04:42.205Z</time></trkpt><trkpt lat="46.2184712" lon="13.1805764"><ele>194.5</ele><time>2026-04-24T15:04:43.206Z</time></trkpt><trkpt lat="46.2185978" lon="13.1805122"><ele>194.25</ele><time>2026-04-24T15:04:44.204Z</time></trkpt><trkpt lat="46.2187201" lon="13.1804493"><ele>194.0</ele><time>2026-04-24T15:04:45.205Z</time></trkpt><trkpt lat="46.218836" lon="13.1803892"><ele>194.0</ele><time>2026-04-24T15:04:46.204Z</time></trkpt><trkpt lat="46.2189411" lon="13.1803263"><ele>194.0</ele><time>2026-04-24T15:04:47.206Z</time></trkpt><trkpt lat="46.2190529" lon="13.1802706"><ele>194.0</ele><time>2026-04-24T15:04:48.205Z</time></trkpt><trkpt lat="46.2191648" lon="13.1802103"><ele>194.0</ele><time>2026-04-24T15:04:49.205Z</time></trkpt><trkpt lat="46.2192767" lon="13.1801535"><ele>193.5</ele><time>2026-04-24T15:04:50.205Z</time></trkpt><trkpt lat="46.2193942" lon="13.1800952"><ele>193.0</ele><time>2026-04-24T15:04:51.205Z</time></trkpt><trkpt lat="46.2195111" lon="13.1800438"><ele>192.5</ele><time>2026-04-24T15:04:52.204Z</time></trkpt><trkpt lat="46.2196224" lon="13.1799936"><ele>192.0</ele><time>2026-04-24T15:04:53.206Z</time></trkpt><trkpt lat="46.2197288" lon="13.179946"><ele>192.16666666666666</ele><time>2026-04-24T15:04:54.205Z</time></trkpt><trkpt lat="46.2198215" lon="13.1799037"><ele>192.33333333333331</ele><time>2026-04-24T15:04:55.205Z</time></trkpt><trkpt lat="46.2199022" lon="13.1798671"><ele>192.5</ele><time>2026-04-24T15:04:56.206Z</time></trkpt><trkpt lat="46.2199751" lon="13.1798333"><ele>192.66666666666666</ele><time>2026-04-24T15:04:57.205Z</time></trkpt><trkpt lat="46.2200564" lon="13.1797987"><ele>192.83333333333331</ele><time>2026-04-24T15:04:58.204Z</time></trkpt><trkpt lat="46.2201397" lon="13.1797601"><ele>193.0</ele><time>2026-04-24T15:04:59.204Z</time></trkpt><trkpt lat="46.2202158" lon="13.179725"><ele>193.00000000000003</ele><time>2026-04-24T15:05:00.206Z</time></trkpt><trkpt lat="46.2202851" lon="13.1796943"><ele>193.0</ele><time>2026-04-24T15:05:01.205Z</time></trkpt><trkpt lat="46.2203511" lon="13.179662"><ele>193.0</ele><time>2026-04-24T15:05:02.206Z</time></trkpt><trkpt lat="46.2204162" lon="13.1796292"><ele>193.0</ele><time>2026-04-24T15:05:03.204Z</time></trkpt><trkpt lat="46.2204848" lon="13.1795993"><ele>193.0</ele><time>2026-04-24T15:05:04.205Z</time></trkpt><trkpt lat="46.2205521" lon="13.1795706"><ele>193.00000000000003</ele><time>2026-04-24T15:05:05.205Z</time></trkpt><trkpt lat="46.2206164" lon="13.1795363"><ele>193.0</ele><time>2026-04-24T15:05:06.206Z</time></trkpt><trkpt lat="46.2206798" lon="13.1795045"><ele>193.16666666666666</ele><time>2026-04-24T15:05:07.204Z</time></trkpt><trkpt lat="46.2207466" lon="13.1794672"><ele>193.33333333333331</ele><time>2026-04-24T15:05:08.204Z</time></trkpt><trkpt lat="46.2208192" lon="13.1794311"><ele>193.5</ele><time>2026-04-24T15:05:09.205Z</time></trkpt><trkpt lat="46.2209033" lon="13.1793903"><ele>193.66666666666669</ele><time>2026-04-24T15:05:10.206Z</time></trkpt><trkpt lat="46.2209949" lon="13.1793428"><ele>193.83333333333334</ele><time>2026-04-24T15:05:11.204Z</time></trkpt><trkpt lat="46.221088" lon="13.1792945"><ele>194.0</ele><time>2026-04-24T15:05:12.205Z</time></trkpt><trkpt lat="46.2211853" lon="13.1792453"><ele>194.0</ele><time>2026-04-24T15:05:13.205Z</time></trkpt><trkpt lat="46.2212885" lon="13.1791911"><ele>194.0</ele><time>2026-04-24T15:05:14.206Z</time></trkpt><trkpt lat="46.2213969" lon="13.1791371"><ele>194.0</ele><time>2026-04-24T15:05:15.205Z</time></trkpt><trkpt lat="46.2215044" lon="13.1790813"><ele>194.0</ele><time>2026-04-24T15:05:16.205Z</time></trkpt><trkpt lat="46.2216157" lon="13.1790255"><ele>194.0</ele><time>2026-04-24T15:05:17.206Z</time></trkpt><trkpt lat="46.2217313" lon="13.178966"><ele>194.0</ele><time>2026-04-24T15:05:18.205Z</time></trkpt><trkpt lat="46.2218474" lon="13.1789133"><ele>194.0</ele><time>2026-04-24T15:05:19.204Z</time></trkpt><trkpt lat="46.2219662" lon="13.1788561"><ele>194.0</ele><time>2026-04-24T15:05:20.204Z</time></trkpt><trkpt lat="46.222082" lon="13.1787992"><ele>194.0</ele><time>2026-04-24T15:05:21.205Z</time></trkpt><trkpt lat="46.2222007" lon="13.1787385"><ele>194.0</ele><time>2026-04-24T15:05:22.205Z</time></trkpt><trkpt lat="46.2223219" lon="13.1786795"><ele>194.0</ele><time>2026-04-24T15:05:23.205Z</time></trkpt><trkpt lat="46.2224415" lon="13.1786232"><ele>194.0</ele><time>2026-04-24T15:05:24.205Z</time></trkpt><trkpt lat="46.2225577" lon="13.178567"><ele>194.0</ele><time>2026-04-24T15:05:25.205Z</time></trkpt><trkpt lat="46.2226725" lon="13.1785121"><ele>194.0</ele><time>2026-04-24T15:05:26.205Z</time></trkpt><trkpt lat="46.2227947" lon="13.1784527"><ele>194.0</ele><time>2026-04-24T15:05:27.205Z</time></trkpt><trkpt lat="46.2229126" lon="13.1783923"><ele>194.0</ele><time>2026-04-24T15:05:28.204Z</time></trkpt><trkpt lat="46.223026" lon="13.178338"><ele>194.0</ele><time>2026-04-24T15:05:29.204Z</time></trkpt><trkpt lat="46.2231383" lon="13.1782875"><ele>194.0</ele><time>2026-04-24T15:05:30.204Z</time></trkpt><trkpt lat="46.2232567" lon="13.1782303"><ele>194.0</ele><time>2026-04-24T15:05:31.206Z</time></trkpt><trkpt lat="46.2233878" lon="13.1781638"><ele>194.0</ele><time>2026-04-24T15:05:32.206Z</time></trkpt><trkpt lat="46.2235228" lon="13.1780959"><ele>193.33333333333334</ele><time>2026-04-24T15:05:33.204Z</time></trkpt><trkpt lat="46.223661" lon="13.1780231"><ele>192.66666666666669</ele><time>2026-04-24T15:05:34.205Z</time></trkpt><trkpt lat="46.2238028" lon="13.1779389"><ele>192.0</ele><time>2026-04-24T15:05:35.204Z</time></trkpt><trkpt lat="46.2239455" lon="13.1778503"><ele>191.66666666666666</ele><time>2026-04-24T15:05:36.205Z</time></trkpt><trkpt lat="46.224084" lon="13.1777584"><ele>191.33333333333331</ele><time>2026-04-24T15:05:37.204Z</time></trkpt><trkpt lat="46.2242218" lon="13.1776491"><ele>191.0</ele><time>2026-04-24T15:05:38.206Z</time></trkpt><trkpt lat="46.2243642" lon="13.1775099"><ele>191.0</ele><time>2026-04-24T15:05:39.204Z</time></trkpt><trkpt lat="46.2245012" lon="13.177377"><ele>191.0</ele><time>2026-04-24T15:05:40.206Z</time></trkpt><trkpt lat="46.224632" lon="13.1772389"><ele>191.0</ele><time>2026-04-24T15:05:41.205Z</time></trkpt><trkpt lat="46.2247624" lon="13.1770989"><ele>190.66666666666666</ele><time>2026-04-24T15:05:42.204Z</time></trkpt><trkpt lat="46.2248913" lon="13.1769566"><ele>190.33333333333334</ele><time>2026-04-24T15:05:43.205Z</time></trkpt><trkpt lat="46.2250192" lon="13.1768175"><ele>190.0</ele><time>2026-04-24T15:05:44.205Z</time></trkpt><trkpt lat="46.2251473" lon="13.1766784"><ele>190.0</ele><time>2026-04-24T15:05:45.205Z</time></trkpt><trkpt lat="46.2252745" lon="13.1765361"><ele>190.0</ele><time>2026-04-24T15:05:46.205Z</time></trkpt><trkpt lat="46.2254011" lon="13.176395"><ele>190.0</ele><time>2026-04-24T15:05:47.205Z</time></trkpt><trkpt lat="46.2255288" lon="13.1762568"><ele>190.0</ele><time>2026-04-24T15:05:48.205Z</time></trkpt><trkpt lat="46.2256604" lon="13.1761156"><ele>190.0</ele><time>2026-04-24T15:05:49.204Z</time></trkpt><trkpt lat="46.2257933" lon="13.1759703"><ele>190.0</ele><time>2026-04-24T15:05:50.206Z</time></trkpt><trkpt lat="46.2259263" lon="13.175825"><ele>190.33333333333334</ele><time>2026-04-24T15:05:51.205Z</time></trkpt><trkpt lat="46.2260625" lon="13.1756737"><ele>190.66666666666666</ele><time>2026-04-24T15:05:52.204Z</time></trkpt><trkpt lat="46.2261994" lon="13.1755212"><ele>191.0</ele><time>2026-04-24T15:05:53.204Z</time></trkpt><trkpt lat="46.2263349" lon="13.1753733"><ele>191.0</ele><time>2026-04-24T15:05:54.205Z</time></trkpt><trkpt lat="46.2264643" lon="13.1752307"><ele>191.0</ele><time>2026-04-24T15:05:55.205Z</time></trkpt><trkpt lat="46.2265923" lon="13.1750912"><ele>191.0</ele><time>2026-04-24T15:05:56.205Z</time></trkpt><trkpt lat="46.2267175" lon="13.1749535"><ele>190.66666666666666</ele><time>2026-04-24T15:05:57.204Z</time></trkpt><trkpt lat="46.2268412" lon="13.1748135"><ele>190.33333333333334</ele><time>2026-04-24T15:05:58.204Z</time></trkpt><trkpt lat="46.2269632" lon="13.1746735"><ele>190.0</ele><time>2026-04-24T15:05:59.204Z</time></trkpt><trkpt lat="46.227087" lon="13.1745327"><ele>190.0</ele><time>2026-04-24T15:06:00.205Z</time></trkpt><trkpt lat="46.2272092" lon="13.1743871"><ele>190.0</ele><time>2026-04-24T15:06:01.205Z</time></trkpt><trkpt lat="46.2273291" lon="13.1742372"><ele>190.0</ele><time>2026-04-24T15:06:02.205Z</time></trkpt><trkpt lat="46.2274451" lon="13.174087"><ele>190.0</ele><time>2026-04-24T15:06:03.205Z</time></trkpt><trkpt lat="46.2275652" lon="13.1739302"><ele>190.0</ele><time>2026-04-24T15:06:04.206Z</time></trkpt><trkpt lat="46.2276855" lon="13.1737704"><ele>190.0</ele><time>2026-04-24T15:06:05.204Z</time></trkpt><trkpt lat="46.2278052" lon="13.1736027"><ele>190.0</ele><time>2026-04-24T15:06:06.205Z</time></trkpt><trkpt lat="46.2279276" lon="13.1734288"><ele>190.0</ele><time>2026-04-24T15:06:07.204Z</time></trkpt><trkpt lat="46.2280442" lon="13.1732442"><ele>190.0</ele><time>2026-04-24T15:06:08.204Z</time></trkpt><trkpt lat="46.2281571" lon="13.1730576"><ele>189.66666666666669</ele><time>2026-04-24T15:06:09.206Z</time></trkpt><trkpt lat="46.2282717" lon="13.172874"><ele>189.33333333333334</ele><time>2026-04-24T15:06:10.204Z</time></trkpt><trkpt lat="46.2283761" lon="13.1726947"><ele>189.0</ele><time>2026-04-24T15:06:11.204Z</time></trkpt><trkpt lat="46.2284759" lon="13.1725141"><ele>188.33333333333334</ele><time>2026-04-24T15:06:12.205Z</time></trkpt><trkpt lat="46.2285696" lon="13.1723319"><ele>187.66666666666669</ele><time>2026-04-24T15:06:13.205Z</time></trkpt><trkpt lat="46.2286632" lon="13.1721483"><ele>187.0</ele><time>2026-04-24T15:06:14.204Z</time></trkpt><trkpt lat="46.2287516" lon="13.1719608"><ele>187.0</ele><time>2026-04-24T15:06:15.204Z</time></trkpt><trkpt lat="46.2288406" lon="13.17177"><ele>187.0</ele><time>2026-04-24T15:06:16.204Z</time></trkpt><trkpt lat="46.2289259" lon="13.1715737"><ele>187.0</ele><time>2026-04-24T15:06:17.205Z</time></trkpt><trkpt lat="46.2290074" lon="13.1713713"><ele>187.66666666666669</ele><time>2026-04-24T15:06:18.206Z</time></trkpt><trkpt lat="46.2290887" lon="13.1711657"><ele>188.33333333333334</ele><time>2026-04-24T15:06:19.206Z</time></trkpt><trkpt lat="46.2291646" lon="13.1709646"><ele>189.0</ele><time>2026-04-24T15:06:20.204Z</time></trkpt><trkpt lat="46.2292338" lon="13.1707717"><ele>188.75</ele><time>2026-04-24T15:06:21.204Z</time></trkpt><trkpt lat="46.229294" lon="13.1705783"><ele>188.5</ele><time>2026-04-24T15:06:22.204Z</time></trkpt><trkpt lat="46.2293535" lon="13.1703803"><ele>188.25</ele><time>2026-04-24T15:06:23.206Z</time></trkpt><trkpt lat="46.2294098" lon="13.1701741"><ele>188.0</ele><time>2026-04-24T15:06:24.206Z</time></trkpt><trkpt lat="46.2294612" lon="13.1699619"><ele>187.66666666666666</ele><time>2026-04-24T15:06:25.206Z</time></trkpt><trkpt lat="46.2295148" lon="13.169749"><ele>187.33333333333334</ele><time>2026-04-24T15:06:26.205Z</time></trkpt><trkpt lat="46.2295666" lon="13.1695331"><ele>187.0</ele><time>2026-04-24T15:06:27.206Z</time></trkpt><trkpt lat="46.2296192" lon="13.1693101"><ele>187.0</ele><time>2026-04-24T15:06:28.206Z</time></trkpt><trkpt lat="46.2296692" lon="13.1690917"><ele>187.0</ele><time>2026-04-24T15:06:29.205Z</time></trkpt><trkpt lat="46.2297152" lon="13.1688763"><ele>187.0</ele><time>2026-04-24T15:06:30.205Z</time></trkpt><trkpt lat="46.2297593" lon="13.1686546"><ele>187.33333333333334</ele><time>2026-04-24T15:06:31.206Z</time></trkpt><trkpt lat="46.2298013" lon="13.1684348"><ele>187.66666666666666</ele><time>2026-04-24T15:06:32.204Z</time></trkpt><trkpt lat="46.2298433" lon="13.168217"><ele>188.0</ele><time>2026-04-24T15:06:33.206Z</time></trkpt><trkpt lat="46.2298838" lon="13.1680134"><ele>187.5</ele><time>2026-04-24T15:06:34.205Z</time></trkpt><trkpt lat="46.2299223" lon="13.1678098"><ele>187.0</ele><time>2026-04-24T15:06:35.204Z</time></trkpt><trkpt lat="46.2299577" lon="13.1676207"><ele>186.5</ele><time>2026-04-24T15:06:36.206Z</time></trkpt><trkpt lat="46.2299905" lon="13.1674448"><ele>186.0</ele><time>2026-04-24T15:06:37.206Z</time></trkpt><trkpt lat="46.2300207" lon="13.1672784"><ele>186.0</ele><time>2026-04-24T15:06:38.205Z</time></trkpt><trkpt lat="46.2300508" lon="13.1671257"><ele>186.0</ele><time>2026-04-24T15:06:39.205Z</time></trkpt><trkpt lat="46.2300811" lon="13.1669716"><ele>186.0</ele><time>2026-04-24T15:06:40.205Z</time></trkpt><trkpt lat="46.2301138" lon="13.1668134"><ele>186.0</ele><time>2026-04-24T15:06:41.204Z</time></trkpt><trkpt lat="46.2301485" lon="13.1666493"><ele>186.0</ele><time>2026-04-24T15:06:42.205Z</time></trkpt><trkpt lat="46.2301817" lon="13.1664806"><ele>186.0</ele><time>2026-04-24T15:06:43.204Z</time></trkpt><trkpt lat="46.2302116" lon="13.1663166"><ele>186.0</ele><time>2026-04-24T15:06:44.204Z</time></trkpt><trkpt lat="46.2302411" lon="13.1661586"><ele>186.0</ele><time>2026-04-24T15:06:45.205Z</time></trkpt><trkpt lat="46.2302701" lon="13.1659955"><ele>186.0</ele><time>2026-04-24T15:06:46.205Z</time></trkpt><trkpt lat="46.2302994" lon="13.1658335"><ele>186.0</ele><time>2026-04-24T15:06:47.204Z</time></trkpt><trkpt lat="46.2303297" lon="13.1656731"><ele>186.0</ele><time>2026-04-24T15:06:48.206Z</time></trkpt><trkpt lat="46.2303648" lon="13.1655025"><ele>186.0</ele><time>2026-04-24T15:06:49.205Z</time></trkpt><trkpt lat="46.2303963" lon="13.1653246"><ele>186.0</ele><time>2026-04-24T15:06:50.204Z</time></trkpt><trkpt lat="46.2304324" lon="13.165143"><ele>186.0</ele><time>2026-04-24T15:06:51.206Z</time></trkpt><trkpt lat="46.230467" lon="13.1649536"><ele>186.0</ele><time>2026-04-24T15:06:52.206Z</time></trkpt><trkpt lat="46.2305018" lon="13.1647594"><ele>186.0</ele><time>2026-04-24T15:06:53.204Z</time></trkpt><trkpt lat="46.2305392" lon="13.1645571"><ele>186.0</ele><time>2026-04-24T15:06:54.205Z</time></trkpt><trkpt lat="46.2305729" lon="13.1643516"><ele>186.0</ele><time>2026-04-24T15:06:55.204Z</time></trkpt><trkpt lat="46.2306102" lon="13.1641519"><ele>186.0</ele><time>2026-04-24T15:06:56.204Z</time></trkpt><trkpt lat="46.2306432" lon="13.1639641"><ele>186.0</ele><time>2026-04-24T15:06:57.205Z</time></trkpt><trkpt lat="46.2306767" lon="13.1637733"><ele>186.0</ele><time>2026-04-24T15:06:58.205Z</time></trkpt><trkpt lat="46.2307079" lon="13.1635901"><ele>186.0</ele><time>2026-04-24T15:06:59.204Z</time></trkpt><trkpt lat="46.2307418" lon="13.1634151"><ele>186.0</ele><time>2026-04-24T15:07:00.204Z</time></trkpt><trkpt lat="46.2307776" lon="13.1632314"><ele>186.0</ele><time>2026-04-24T15:07:01.206Z</time></trkpt><trkpt lat="46.2308104" lon="13.1630438"><ele>186.5</ele><time>2026-04-24T15:07:02.205Z</time></trkpt><trkpt lat="46.2308454" lon="13.1628502"><ele>187.0</ele><time>2026-04-24T15:07:03.204Z</time></trkpt><trkpt lat="46.2308805" lon="13.1626454"><ele>187.5</ele><time>2026-04-24T15:07:04.205Z</time></trkpt><trkpt lat="46.2309173" lon="13.1624386"><ele>188.0</ele><time>2026-04-24T15:07:05.205Z</time></trkpt><trkpt lat="46.2309581" lon="13.1622287"><ele>188.0</ele><time>2026-04-24T15:07:06.206Z</time></trkpt><trkpt lat="46.2310005" lon="13.1619915"><ele>188.0</ele><time>2026-04-24T15:07:07.205Z</time></trkpt><trkpt lat="46.2310434" lon="13.1617257"><ele>188.0</ele><time>2026-04-24T15:07:08.204Z</time></trkpt><trkpt lat="46.231092" lon="13.1614482"><ele>187.66666666666666</ele><time>2026-04-24T15:07:09.206Z</time></trkpt><trkpt lat="46.2311444" lon="13.161145"><ele>187.33333333333334</ele><time>2026-04-24T15:07:10.204Z</time></trkpt><trkpt lat="46.2312009" lon="13.1608181"><ele>187.0</ele><time>2026-04-24T15:07:11.205Z</time></trkpt><trkpt lat="46.2312639" lon="13.1604883"><ele>186.66666666666669</ele><time>2026-04-24T15:07:12.206Z</time></trkpt><trkpt lat="46.2313268" lon="13.1601795"><ele>186.33333333333334</ele><time>2026-04-24T15:07:13.204Z</time></trkpt><trkpt lat="46.2313813" lon="13.1598939"><ele>186.0</ele><time>2026-04-24T15:07:14.205Z</time></trkpt><trkpt lat="46.2314328" lon="13.1596219"><ele>186.33333333333334</ele><time>2026-04-24T15:07:15.204Z</time></trkpt><trkpt lat="46.2314833" lon="13.1593512"><ele>186.66666666666669</ele><time>2026-04-24T15:07:16.205Z</time></trkpt><trkpt lat="46.2315315" lon="13.1590691"><ele>187.0</ele><time>2026-04-24T15:07:17.206Z</time></trkpt><trkpt lat="46.2315817" lon="13.158792"><ele>187.0</ele><time>2026-04-24T15:07:18.205Z</time></trkpt><trkpt lat="46.2316313" lon="13.1585258"><ele>187.0</ele><time>2026-04-24T15:07:19.205Z</time></trkpt><trkpt lat="46.2316791" lon="13.1582771"><ele>187.0</ele><time>2026-04-24T15:07:20.205Z</time></trkpt><trkpt lat="46.231724" lon="13.1580396"><ele>186.66666666666669</ele><time>2026-04-24T15:07:21.203Z</time></trkpt><trkpt lat="46.2317645" lon="13.1578119"><ele>186.33333333333334</ele><time>2026-04-24T15:07:22.204Z</time></trkpt><trkpt lat="46.2318055" lon="13.1575936"><ele>186.0</ele><time>2026-04-24T15:07:23.204Z</time></trkpt><trkpt lat="46.231845" lon="13.1573798"><ele>186.0</ele><time>2026-04-24T15:07:24.205Z</time></trkpt><trkpt lat="46.2318845" lon="13.1571655"><ele>186.0</ele><time>2026-04-24T15:07:25.204Z</time></trkpt><trkpt lat="46.2319228" lon="13.1569575"><ele>186.0</ele><time>2026-04-24T15:07:26.203Z</time></trkpt><trkpt lat="46.2319611" lon="13.1567548"><ele>186.0</ele><time>2026-04-24T15:07:27.204Z</time></trkpt><trkpt lat="46.2320004" lon="13.1565469"><ele>186.5</ele><time>2026-04-24T15:07:28.204Z</time></trkpt><trkpt lat="46.2320396" lon="13.1563426"><ele>187.0</ele><time>2026-04-24T15:07:29.204Z</time></trkpt><trkpt lat="46.2320795" lon="13.1561408"><ele>187.5</ele><time>2026-04-24T15:07:30.204Z</time></trkpt><trkpt lat="46.232124" lon="13.1559347"><ele>188.0</ele><time>2026-04-24T15:07:31.204Z</time></trkpt><trkpt lat="46.2321821" lon="13.1557163"><ele>188.0</ele><time>2026-04-24T15:07:32.203Z</time></trkpt><trkpt lat="46.2322476" lon="13.1554697"><ele>188.0</ele><time>2026-04-24T15:07:33.203Z</time></trkpt><trkpt lat="46.2323169" lon="13.1552003"><ele>188.0</ele><time>2026-04-24T15:07:34.204Z</time></trkpt><trkpt lat="46.2323851" lon="13.1549201"><ele>187.0</ele><time>2026-04-24T15:07:35.204Z</time></trkpt><trkpt lat="46.2324517" lon="13.1546412"><ele>186.0</ele><time>2026-04-24T15:07:36.205Z</time></trkpt><trkpt lat="46.2325148" lon="13.1543753"><ele>185.0</ele><time>2026-04-24T15:07:37.203Z</time></trkpt><trkpt lat="46.2325715" lon="13.1541293"><ele>185.0</ele><time>2026-04-24T15:07:38.204Z</time></trkpt><trkpt lat="46.2326249" lon="13.1539071"><ele>185.0</ele><time>2026-04-24T15:07:39.204Z</time></trkpt><trkpt lat="46.2326708" lon="13.1537282"><ele>185.0</ele><time>2026-04-24T15:07:40.203Z</time></trkpt><trkpt lat="46.2327109" lon="13.1535959"><ele>185.0</ele><time>2026-04-24T15:07:41.204Z</time></trkpt><trkpt lat="46.2327471" lon="13.1535009"><ele>185.0</ele><time>2026-04-24T15:07:42.204Z</time></trkpt><trkpt lat="46.2327902" lon="13.1534312"><ele>185.0</ele><time>2026-04-24T15:07:43.203Z</time></trkpt><trkpt lat="46.2329011" lon="13.1533818"><ele>185.0</ele><time>2026-04-24T15:07:45.204Z</time></trkpt><trkpt lat="46.2330006" lon="13.1534095"><ele>185.0</ele><time>2026-04-24T15:07:46.205Z</time></trkpt><trkpt lat="46.2331191" lon="13.1534536"><ele>185.0</ele><time>2026-04-24T15:07:47.204Z</time></trkpt><trkpt lat="46.233238" lon="13.1534943"><ele>185.25</ele><time>2026-04-24T15:07:48.203Z</time></trkpt><trkpt lat="46.2333634" lon="13.15354"><ele>185.5</ele><time>2026-04-24T15:07:49.204Z</time></trkpt><trkpt lat="46.2334971" lon="13.1535869"><ele>185.75</ele><time>2026-04-24T15:07:50.204Z</time></trkpt><trkpt lat="46.2336359" lon="13.1536399"><ele>186.0</ele><time>2026-04-24T15:07:51.204Z</time></trkpt><trkpt lat="46.2337778" lon="13.1537077"><ele>186.0</ele><time>2026-04-24T15:07:52.204Z</time></trkpt><trkpt lat="46.2339157" lon="13.1537768"><ele>186.0</ele><time>2026-04-24T15:07:53.203Z</time></trkpt><trkpt lat="46.234057" lon="13.1538471"><ele>186.0</ele><time>2026-04-24T15:07:54.204Z</time></trkpt><trkpt lat="46.2341983" lon="13.1539113"><ele>186.0</ele><time>2026-04-24T15:07:55.203Z</time></trkpt><trkpt lat="46.2343433" lon="13.1539741"><ele>188.0</ele><time>2026-04-24T15:07:56.205Z</time></trkpt><trkpt lat="46.2344884" lon="13.1540395"><ele>190.0</ele><time>2026-04-24T15:07:57.203Z</time></trkpt><trkpt lat="46.2346365" lon="13.1541025"><ele>192.0</ele><time>2026-04-24T15:07:58.204Z</time></trkpt><trkpt lat="46.2347854" lon="13.1541679"><ele>192.75</ele><time>2026-04-24T15:07:59.205Z</time></trkpt><trkpt lat="46.2349303" lon="13.1542384"><ele>193.5</ele><time>2026-04-24T15:08:00.203Z</time></trkpt><trkpt lat="46.2350632" lon="13.154308"><ele>194.25</ele><time>2026-04-24T15:08:01.205Z</time></trkpt><trkpt lat="46.2351856" lon="13.1543825"><ele>195.0</ele><time>2026-04-24T15:08:02.204Z</time></trkpt><trkpt lat="46.2352889" lon="13.1544628"><ele>195.0</ele><time>2026-04-24T15:08:03.205Z</time></trkpt><trkpt lat="46.2353731" lon="13.154545"><ele>195.0</ele><time>2026-04-24T15:08:04.204Z</time></trkpt><trkpt lat="46.235437" lon="13.1546222"><ele>195.0</ele><time>2026-04-24T15:08:05.204Z</time></trkpt><trkpt lat="46.2355017" lon="13.1547058"><ele>195.0</ele><time>2026-04-24T15:08:06.204Z</time></trkpt><trkpt lat="46.2355717" lon="13.1547598"><ele>195.0</ele><time>2026-04-24T15:08:07.203Z</time></trkpt><trkpt lat="46.2356797" lon="13.1547747"><ele>195.0</ele><time>2026-04-24T15:08:08.204Z</time></trkpt><trkpt lat="46.2357905" lon="13.1548226"><ele>195.0</ele><time>2026-04-24T15:08:09.203Z</time></trkpt><trkpt lat="46.2358944" lon="13.1548682"><ele>195.0</ele><time>2026-04-24T15:08:10.205Z</time></trkpt><trkpt lat="46.2359943" lon="13.1549087"><ele>195.0</ele><time>2026-04-24T15:08:11.204Z</time></trkpt><trkpt lat="46.2360756" lon="13.1549471"><ele>195.0</ele><time>2026-04-24T15:08:12.204Z</time></trkpt><trkpt lat="46.2361707" lon="13.1550242"><ele>195.6</ele><time>2026-04-24T15:08:14.204Z</time></trkpt><trkpt lat="46.2362363" lon="13.1550216"><ele>196.2</ele><time>2026-04-24T15:09:28.204Z</time></trkpt><trkpt lat="46.2363607" lon="13.1550374"><ele>196.8</ele><time>2026-04-24T15:09:30.205Z</time></trkpt><trkpt lat="46.2364451" lon="13.155053"><ele>197.4</ele><time>2026-04-24T15:09:31.205Z</time></trkpt><trkpt lat="46.2365438" lon="13.1550934"><ele>198.0</ele><time>2026-04-24T15:09:32.205Z</time></trkpt><trkpt lat="46.2366432" lon="13.1551394"><ele>198.0</ele><time>2026-04-24T15:09:33.204Z</time></trkpt><trkpt lat="46.2367487" lon="13.1551931"><ele>198.0</ele><time>2026-04-24T15:09:34.205Z</time></trkpt><trkpt lat="46.2368547" lon="13.1552506"><ele>198.0</ele><time>2026-04-24T15:09:35.205Z</time></trkpt><trkpt lat="46.2369641" lon="13.1553152"><ele>198.0</ele><time>2026-04-24T15:09:36.204Z</time></trkpt><trkpt lat="46.2370781" lon="13.1553813"><ele>198.0</ele><time>2026-04-24T15:09:37.204Z</time></trkpt><trkpt lat="46.2371998" lon="13.1554543"><ele>198.0</ele><time>2026-04-24T15:09:38.203Z</time></trkpt><trkpt lat="46.2373235" lon="13.155528"><ele>198.0</ele><time>2026-04-24T15:09:39.203Z</time></trkpt><trkpt lat="46.2374502" lon="13.1556022"><ele>198.0</ele><time>2026-04-24T15:09:40.205Z</time></trkpt><trkpt lat="46.2375683" lon="13.1556702"><ele>198.8</ele><time>2026-04-24T15:09:41.203Z</time></trkpt><trkpt lat="46.2376801" lon="13.1557268"><ele>199.60000000000002</ele><time>2026-04-24T15:09:42.204Z</time></trkpt><trkpt lat="46.2377845" lon="13.1557717"><ele>200.39999999999998</ele><time>2026-04-24T15:09:43.204Z</time></trkpt><trkpt lat="46.2378855" lon="13.1558"><ele>201.2</ele><time>2026-04-24T15:09:44.203Z</time></trkpt><trkpt lat="46.2379781" lon="13.1558153"><ele>202.0</ele><time>2026-04-24T15:09:45.204Z</time></trkpt><trkpt lat="46.2380677" lon="13.1558244"><ele>202.8</ele><time>2026-04-24T15:09:46.203Z</time></trkpt><trkpt lat="46.2381618" lon="13.1558297"><ele>203.6</ele><time>2026-04-24T15:09:47.204Z</time></trkpt><trkpt lat="46.2382395" lon="13.1558493"><ele>204.4</ele><time>2026-04-24T15:09:48.204Z</time></trkpt><trkpt lat="46.2383241" lon="13.1558947"><ele>205.20000000000002</ele><time>2026-04-24T15:09:50.204Z</time></trkpt><trkpt lat="46.2384128" lon="13.1559437"><ele>206.0</ele><time>2026-04-24T15:09:58.204Z</time></trkpt><trkpt lat="46.2385487" lon="13.1558599"><ele>206.0</ele><time>2026-04-24T15:10:00.203Z</time></trkpt><trkpt lat="46.2386373" lon="13.1558052"><ele>206.0</ele><time>2026-04-24T15:10:01.204Z</time></trkpt><trkpt lat="46.2387274" lon="13.1557701"><ele>206.0</ele><time>2026-04-24T15:10:02.204Z</time></trkpt><trkpt lat="46.2388295" lon="13.155733"><ele>206.0</ele><time>2026-04-24T15:10:03.203Z</time></trkpt><trkpt lat="46.2389378" lon="13.1557007"><ele>206.0</ele><time>2026-04-24T15:10:04.203Z</time></trkpt><trkpt lat="46.2390563" lon="13.1556713"><ele>205.8</ele><time>2026-04-24T15:10:05.204Z</time></trkpt><trkpt lat="46.239165" lon="13.1556425"><ele>205.60000000000002</ele><time>2026-04-24T15:10:06.203Z</time></trkpt><trkpt lat="46.2392753" lon="13.1556066"><ele>205.4</ele><time>2026-04-24T15:10:07.204Z</time></trkpt><trkpt lat="46.2393855" lon="13.155569"><ele>205.2</ele><time>2026-04-24T15:10:08.204Z</time></trkpt><trkpt lat="46.239492" lon="13.1555168"><ele>205.0</ele><time>2026-04-24T15:10:09.203Z</time></trkpt><trkpt lat="46.2395948" lon="13.1554558"><ele>205.0</ele><time>2026-04-24T15:10:10.203Z</time></trkpt><trkpt lat="46.2396935" lon="13.15541"><ele>205.0</ele><time>2026-04-24T15:10:11.204Z</time></trkpt><trkpt lat="46.2397888" lon="13.1553491"><ele>205.0</ele><time>2026-04-24T15:10:12.204Z</time></trkpt><trkpt lat="46.2398845" lon="13.1552999"><ele>205.0</ele><time>2026-04-24T15:10:13.204Z</time></trkpt><trkpt lat="46.2399826" lon="13.1552654"><ele>205.0</ele><time>2026-04-24T15:10:14.204Z</time></trkpt><trkpt lat="46.2400692" lon="13.155216"><ele>206.2</ele><time>2026-04-24T15:10:15.205Z</time></trkpt><trkpt lat="46.2401611" lon="13.1551629"><ele>207.4</ele><time>2026-04-24T15:10:16.205Z</time></trkpt><trkpt lat="46.2402552" lon="13.1551054"><ele>208.60000000000002</ele><time>2026-04-24T15:10:17.203Z</time></trkpt><trkpt lat="46.2403533" lon="13.1550508"><ele>209.8</ele><time>2026-04-24T15:10:18.203Z</time></trkpt><trkpt lat="46.240456" lon="13.1550069"><ele>211.0</ele><time>2026-04-24T15:10:19.203Z</time></trkpt><trkpt lat="46.2405621" lon="13.1549477"><ele>212.25</ele><time>2026-04-24T15:10:20.204Z</time></trkpt><trkpt lat="46.2406761" lon="13.1548895"><ele>213.5</ele><time>2026-04-24T15:10:21.203Z</time></trkpt><trkpt lat="46.2407902" lon="13.1548273"><ele>214.75</ele><time>2026-04-24T15:10:22.203Z</time></trkpt><trkpt lat="46.2408974" lon="13.1547744"><ele>216.0</ele><time>2026-04-24T15:10:23.203Z</time></trkpt><trkpt lat="46.2410087" lon="13.1547177"><ele>218.4</ele><time>2026-04-24T15:10:24.203Z</time></trkpt><trkpt lat="46.2411114" lon="13.154672"><ele>220.8</ele><time>2026-04-24T15:10:25.203Z</time></trkpt><trkpt lat="46.2412044" lon="13.1546356"><ele>223.20000000000002</ele><time>2026-04-24T15:10:26.203Z</time></trkpt><trkpt lat="46.2412866" lon="13.1546017"><ele>225.60000000000002</ele><time>2026-04-24T15:10:27.202Z</time></trkpt><trkpt lat="46.2413679" lon="13.1545582"><ele>228.0</ele><time>2026-04-24T15:10:28.203Z</time></trkpt><trkpt lat="46.2414548" lon="13.1545148"><ele>227.2</ele><time>2026-04-24T15:10:29.203Z</time></trkpt><trkpt lat="46.2415421" lon="13.1544774"><ele>226.4</ele><time>2026-04-24T15:10:30.202Z</time></trkpt><trkpt lat="46.2416356" lon="13.1544442"><ele>225.59999999999997</ele><time>2026-04-24T15:10:31.203Z</time></trkpt><trkpt lat="46.241731" lon="13.1544125"><ele>224.79999999999998</ele><time>2026-04-24T15:10:32.204Z</time></trkpt><trkpt lat="46.2418291" lon="13.1543809"><ele>224.0</ele><time>2026-04-24T15:10:33.203Z</time></trkpt><trkpt lat="46.2419229" lon="13.1543401"><ele>224.0</ele><time>2026-04-24T15:10:34.203Z</time></trkpt><trkpt lat="46.2420142" lon="13.1542842"><ele>223.99999999999997</ele><time>2026-04-24T15:10:35.203Z</time></trkpt><trkpt lat="46.2421064" lon="13.1542288"><ele>223.99999999999997</ele><time>2026-04-24T15:10:36.203Z</time></trkpt><trkpt lat="46.2421915" lon="13.1541713"><ele>224.0</ele><time>2026-04-24T15:10:37.203Z</time></trkpt><trkpt lat="46.2422765" lon="13.1541216"><ele>224.0</ele><time>2026-04-24T15:10:38.203Z</time></trkpt><trkpt lat="46.2423561" lon="13.1540699"><ele>223.50000000000003</ele><time>2026-04-24T15:10:39.202Z</time></trkpt><trkpt lat="46.2424331" lon="13.1540382"><ele>223.0</ele><time>2026-04-24T15:10:40.202Z</time></trkpt><trkpt lat="46.2425105" lon="13.1540059"><ele>222.5</ele><time>2026-04-24T15:10:41.203Z</time></trkpt><trkpt lat="46.2425878" lon="13.1539739"><ele>222.0</ele><time>2026-04-24T15:10:42.203Z</time></trkpt><trkpt lat="46.2426881" lon="13.1539485"><ele>221.50000000000003</ele><time>2026-04-24T15:10:43.204Z</time></trkpt><trkpt lat="46.2427945" lon="13.1539409"><ele>221.0</ele><time>2026-04-24T15:10:44.204Z</time></trkpt><trkpt lat="46.2428965" lon="13.1539405"><ele>221.0</ele><time>2026-04-24T15:10:45.202Z</time></trkpt><trkpt lat="46.2430079" lon="13.1539414"><ele>221.00000000000003</ele><time>2026-04-24T15:10:46.203Z</time></trkpt><trkpt lat="46.2431164" lon="13.1539309"><ele>221.00000000000003</ele><time>2026-04-24T15:10:47.203Z</time></trkpt><trkpt lat="46.2432243" lon="13.1539072"><ele>221.0</ele><time>2026-04-24T15:10:48.203Z</time></trkpt><trkpt lat="46.243329" lon="13.1538643"><ele>221.0</ele><time>2026-04-24T15:10:49.203Z</time></trkpt><trkpt lat="46.243435" lon="13.1538354"><ele>220.0</ele><time>2026-04-24T15:10:50.204Z</time></trkpt><trkpt lat="46.2435343" lon="13.153809"><ele>219.00000000000003</ele><time>2026-04-24T15:10:51.203Z</time></trkpt><trkpt lat="46.2436218" lon="13.1538039"><ele>218.00000000000003</ele><time>2026-04-24T15:10:52.203Z</time></trkpt><trkpt lat="46.2436897" lon="13.1538279"><ele>217.0</ele><time>2026-04-24T15:10:53.204Z</time></trkpt><trkpt lat="46.2437678" lon="13.1539293"><ele>216.0</ele><time>2026-04-24T15:10:55.202Z</time></trkpt><trkpt lat="46.2438286" lon="13.154086"><ele>216.0</ele><time>2026-04-24T15:10:57.202Z</time></trkpt><trkpt lat="46.2438848" lon="13.154131"><ele>216.0</ele><time>2026-04-24T15:10:58.202Z</time></trkpt><trkpt lat="46.2439481" lon="13.1541444"><ele>216.0</ele><time>2026-04-24T15:10:59.202Z</time></trkpt><trkpt lat="46.2440105" lon="13.1541132"><ele>216.0</ele><time>2026-04-24T15:11:00.202Z</time></trkpt><trkpt lat="46.2440671" lon="13.1540421"><ele>216.0</ele><time>2026-04-24T15:11:01.203Z</time></trkpt><trkpt lat="46.2441092" lon="13.1539402"><ele>216.0</ele><time>2026-04-24T15:11:02.203Z</time></trkpt><trkpt lat="46.2441606" lon="13.1538551"><ele>216.0</ele><time>2026-04-24T15:11:03.203Z</time></trkpt><trkpt lat="46.244232" lon="13.153796"><ele>215.60000000000002</ele><time>2026-04-24T15:11:04.202Z</time></trkpt><trkpt lat="46.2443117" lon="13.1537357"><ele>215.20000000000002</ele><time>2026-04-24T15:11:05.202Z</time></trkpt><trkpt lat="46.2443961" lon="13.153668"><ele>214.79999999999998</ele><time>2026-04-24T15:11:06.203Z</time></trkpt><trkpt lat="46.2444848" lon="13.1535968"><ele>214.39999999999998</ele><time>2026-04-24T15:11:07.202Z</time></trkpt><trkpt lat="46.2445787" lon="13.1535168"><ele>214.0</ele><time>2026-04-24T15:11:08.203Z</time></trkpt><trkpt lat="46.2446678" lon="13.1534176"><ele>214.0</ele><time>2026-04-24T15:11:09.202Z</time></trkpt><trkpt lat="46.2447487" lon="13.1533068"><ele>214.0</ele><time>2026-04-24T15:11:10.202Z</time></trkpt><trkpt lat="46.2448342" lon="13.1532007"><ele>214.0</ele><time>2026-04-24T15:11:11.203Z</time></trkpt><trkpt lat="46.2449263" lon="13.1531003"><ele>214.0</ele><time>2026-04-24T15:11:12.203Z</time></trkpt><trkpt lat="46.2450218" lon="13.1530145"><ele>214.5</ele><time>2026-04-24T15:11:13.202Z</time></trkpt><trkpt lat="46.2451263" lon="13.152951"><ele>215.0</ele><time>2026-04-24T15:11:14.203Z</time></trkpt><trkpt lat="46.2452366" lon="13.1528946"><ele>215.5</ele><time>2026-04-24T15:11:15.203Z</time></trkpt><trkpt lat="46.2453438" lon="13.1528398"><ele>216.0</ele><time>2026-04-24T15:11:16.202Z</time></trkpt><trkpt lat="46.2454542" lon="13.1527836"><ele>216.0</ele><time>2026-04-24T15:11:17.204Z</time></trkpt><trkpt lat="46.2455628" lon="13.1527177"><ele>216.0</ele><time>2026-04-24T15:11:18.203Z</time></trkpt><trkpt lat="46.2456724" lon="13.1526441"><ele>216.0</ele><time>2026-04-24T15:11:19.203Z</time></trkpt><trkpt lat="46.2457853" lon="13.1525693"><ele>216.0</ele><time>2026-04-24T15:11:20.203Z</time></trkpt><trkpt lat="46.2459008" lon="13.1524925"><ele>216.25</ele><time>2026-04-24T15:11:21.203Z</time></trkpt><trkpt lat="46.2460203" lon="13.1524098"><ele>216.5</ele><time>2026-04-24T15:11:22.202Z</time></trkpt><trkpt lat="46.2461421" lon="13.1523211"><ele>216.75</ele><time>2026-04-24T15:11:23.204Z</time></trkpt><trkpt lat="46.2462681" lon="13.1522235"><ele>217.0</ele><time>2026-04-24T15:11:24.203Z</time></trkpt><trkpt lat="46.2463937" lon="13.1521179"><ele>217.25</ele><time>2026-04-24T15:11:25.203Z</time></trkpt><trkpt lat="46.2465168" lon="13.152009"><ele>217.5</ele><time>2026-04-24T15:11:26.204Z</time></trkpt><trkpt lat="46.24664" lon="13.1518916"><ele>217.75</ele><time>2026-04-24T15:11:27.202Z</time></trkpt><trkpt lat="46.2467611" lon="13.1517735"><ele>218.0</ele><time>2026-04-24T15:11:28.203Z</time></trkpt><trkpt lat="46.2468845" lon="13.1516499"><ele>216.66666666666669</ele><time>2026-04-24T15:11:29.203Z</time></trkpt><trkpt lat="46.2470107" lon="13.1515286"><ele>215.33333333333331</ele><time>2026-04-24T15:11:30.202Z</time></trkpt><trkpt lat="46.2471387" lon="13.1513966"><ele>214.0</ele><time>2026-04-24T15:11:31.202Z</time></trkpt><trkpt lat="46.2472663" lon="13.151264"><ele>212.66666666666666</ele><time>2026-04-24T15:11:32.202Z</time></trkpt><trkpt lat="46.2473964" lon="13.1511296"><ele>211.33333333333331</ele><time>2026-04-24T15:11:33.203Z</time></trkpt><trkpt lat="46.2475319" lon="13.1509949"><ele>210.0</ele><time>2026-04-24T15:11:34.202Z</time></trkpt><trkpt lat="46.2476682" lon="13.1508624"><ele>210.0</ele><time>2026-04-24T15:11:35.204Z</time></trkpt><trkpt lat="46.2478052" lon="13.1507231"><ele>210.0</ele><time>2026-04-24T15:11:36.202Z</time></trkpt><trkpt lat="46.2479435" lon="13.1505813"><ele>210.0</ele><time>2026-04-24T15:11:37.203Z</time></trkpt><trkpt lat="46.2480832" lon="13.1504404"><ele>207.0</ele><time>2026-04-24T15:11:38.203Z</time></trkpt><trkpt lat="46.2482242" lon="13.1502994"><ele>204.0</ele><time>2026-04-24T15:11:39.202Z</time></trkpt><trkpt lat="46.248362" lon="13.1501599"><ele>201.0</ele><time>2026-04-24T15:11:40.202Z</time></trkpt><trkpt lat="46.2484972" lon="13.1500195"><ele>201.0</ele><time>2026-04-24T15:11:41.204Z</time></trkpt><trkpt lat="46.2486343" lon="13.1498774"><ele>201.0</ele><time>2026-04-24T15:11:42.203Z</time></trkpt><trkpt lat="46.2487722" lon="13.1497392"><ele>201.0</ele><time>2026-04-24T15:11:43.202Z</time></trkpt><trkpt lat="46.2489137" lon="13.1495987"><ele>199.0</ele><time>2026-04-24T15:11:44.203Z</time></trkpt><trkpt lat="46.249051" lon="13.1494625"><ele>197.0</ele><time>2026-04-24T15:11:45.203Z</time></trkpt><trkpt lat="46.2491955" lon="13.1493288"><ele>195.0</ele><time>2026-04-24T15:11:46.204Z</time></trkpt><trkpt lat="46.2493325" lon="13.1491939"><ele>195.0</ele><time>2026-04-24T15:11:47.202Z</time></trkpt><trkpt lat="46.2494741" lon="13.1490658"><ele>195.0</ele><time>2026-04-24T15:11:48.203Z</time></trkpt><trkpt lat="46.2496128" lon="13.1489329"><ele>195.0</ele><time>2026-04-24T15:11:49.204Z</time></trkpt><trkpt lat="46.2497526" lon="13.148809"><ele>194.33333333333331</ele><time>2026-04-24T15:11:50.202Z</time></trkpt><trkpt lat="46.249892" lon="13.1486919"><ele>193.66666666666666</ele><time>2026-04-24T15:11:51.203Z</time></trkpt><trkpt lat="46.2500365" lon="13.1485862"><ele>193.0</ele><time>2026-04-24T15:11:52.202Z</time></trkpt><trkpt lat="46.2501822" lon="13.1484922"><ele>193.0</ele><time>2026-04-24T15:11:53.203Z</time></trkpt><trkpt lat="46.2503275" lon="13.1483988"><ele>193.0</ele><time>2026-04-24T15:11:54.203Z</time></trkpt><trkpt lat="46.2504739" lon="13.1483086"><ele>193.0</ele><time>2026-04-24T15:11:55.204Z</time></trkpt><trkpt lat="46.2506237" lon="13.1482274"><ele>192.33333333333331</ele><time>2026-04-24T15:11:56.202Z</time></trkpt><trkpt lat="46.2507698" lon="13.1481465"><ele>191.66666666666666</ele><time>2026-04-24T15:11:57.203Z</time></trkpt><trkpt lat="46.2509193" lon="13.148067"><ele>191.0</ele><time>2026-04-24T15:11:58.203Z</time></trkpt><trkpt lat="46.2510685" lon="13.1479923"><ele>191.0</ele><time>2026-04-24T15:11:59.203Z</time></trkpt><trkpt lat="46.2512144" lon="13.1479175"><ele>191.0</ele><time>2026-04-24T15:12:00.203Z</time></trkpt><trkpt lat="46.2513598" lon="13.1478412"><ele>191.0</ele><time>2026-04-24T15:12:01.203Z</time></trkpt><trkpt lat="46.2515084" lon="13.1477653"><ele>192.0</ele><time>2026-04-24T15:12:02.202Z</time></trkpt><trkpt lat="46.2516589" lon="13.147693"><ele>193.0</ele><time>2026-04-24T15:12:03.203Z</time></trkpt><trkpt lat="46.2518128" lon="13.1476326"><ele>194.0</ele><time>2026-04-24T15:12:04.203Z</time></trkpt><trkpt lat="46.2519693" lon="13.1475833"><ele>194.0</ele><time>2026-04-24T15:12:05.203Z</time></trkpt><trkpt lat="46.2521316" lon="13.1475478"><ele>194.0</ele><time>2026-04-24T15:12:06.203Z</time></trkpt><trkpt lat="46.2522958" lon="13.1475241"><ele>194.0</ele><time>2026-04-24T15:12:07.203Z</time></trkpt><trkpt lat="46.2524612" lon="13.1474987"><ele>194.0</ele><time>2026-04-24T15:12:08.202Z</time></trkpt><trkpt lat="46.252626" lon="13.1474675"><ele>194.0</ele><time>2026-04-24T15:12:09.202Z</time></trkpt><trkpt lat="46.2527918" lon="13.1474441"><ele>194.0</ele><time>2026-04-24T15:12:10.202Z</time></trkpt><trkpt lat="46.2529572" lon="13.147428"><ele>195.0</ele><time>2026-04-24T15:12:11.203Z</time></trkpt><trkpt lat="46.2531227" lon="13.14742"><ele>196.0</ele><time>2026-04-24T15:12:12.203Z</time></trkpt><trkpt lat="46.2532883" lon="13.1474275"><ele>197.0</ele><time>2026-04-24T15:12:13.203Z</time></trkpt><trkpt lat="46.253452" lon="13.1474434"><ele>197.0</ele><time>2026-04-24T15:12:14.203Z</time></trkpt><trkpt lat="46.253618" lon="13.1474572"><ele>197.0</ele><time>2026-04-24T15:12:15.202Z</time></trkpt><trkpt lat="46.2537841" lon="13.1474644"><ele>197.0</ele><time>2026-04-24T15:12:16.203Z</time></trkpt><trkpt lat="46.2539512" lon="13.1474681"><ele>198.33333333333334</ele><time>2026-04-24T15:12:17.204Z</time></trkpt><trkpt lat="46.2541162" lon="13.1474743"><ele>199.66666666666669</ele><time>2026-04-24T15:12:18.203Z</time></trkpt><trkpt lat="46.2542812" lon="13.1474835"><ele>201.0</ele><time>2026-04-24T15:12:19.204Z</time></trkpt><trkpt lat="46.2544451" lon="13.1474923"><ele>201.0</ele><time>2026-04-24T15:12:20.203Z</time></trkpt><trkpt lat="46.2546092" lon="13.1475009"><ele>201.0</ele><time>2026-04-24T15:12:21.204Z</time></trkpt><trkpt lat="46.2547758" lon="13.1475101"><ele>201.0</ele><time>2026-04-24T15:12:22.203Z</time></trkpt><trkpt lat="46.2549448" lon="13.1475174"><ele>201.0</ele><time>2026-04-24T15:12:23.203Z</time></trkpt><trkpt lat="46.2551119" lon="13.1475285"><ele>201.0</ele><time>2026-04-24T15:12:24.202Z</time></trkpt><trkpt lat="46.2552795" lon="13.1475376"><ele>201.0</ele><time>2026-04-24T15:12:25.202Z</time></trkpt><trkpt lat="46.2554498" lon="13.1475508"><ele>201.0</ele><time>2026-04-24T15:12:26.204Z</time></trkpt><trkpt lat="46.2556194" lon="13.1475655"><ele>201.0</ele><time>2026-04-24T15:12:27.202Z</time></trkpt><trkpt lat="46.2557879" lon="13.1475829"><ele>201.0</ele><time>2026-04-24T15:12:28.203Z</time></trkpt><trkpt lat="46.2559549" lon="13.1476134"><ele>202.33333333333331</ele><time>2026-04-24T15:12:29.202Z</time></trkpt><trkpt lat="46.2561277" lon="13.1476505"><ele>203.66666666666666</ele><time>2026-04-24T15:12:30.203Z</time></trkpt><trkpt lat="46.2562982" lon="13.1476859"><ele>205.0</ele><time>2026-04-24T15:12:31.203Z</time></trkpt><trkpt lat="46.2564696" lon="13.1477237"><ele>205.0</ele><time>2026-04-24T15:12:32.204Z</time></trkpt><trkpt lat="46.2566517" lon="13.1477565"><ele>205.0</ele><time>2026-04-24T15:12:33.202Z</time></trkpt><trkpt lat="46.2568324" lon="13.1477721"><ele>205.0</ele><time>2026-04-24T15:12:34.203Z</time></trkpt><trkpt lat="46.2570239" lon="13.147773"><ele>205.0</ele><time>2026-04-24T15:12:35.203Z</time></trkpt><trkpt lat="46.2572187" lon="13.1477679"><ele>205.0</ele><time>2026-04-24T15:12:36.204Z</time></trkpt><trkpt lat="46.2574113" lon="13.147765"><ele>205.0</ele><time>2026-04-24T15:12:37.203Z</time></trkpt><trkpt lat="46.2576209" lon="13.1477591"><ele>205.0</ele><time>2026-04-24T15:12:38.202Z</time></trkpt><trkpt lat="46.2578219" lon="13.1477466"><ele>205.0</ele><time>2026-04-24T15:12:39.203Z</time></trkpt><trkpt lat="46.2580182" lon="13.1477337"><ele>205.0</ele><time>2026-04-24T15:12:40.204Z</time></trkpt><trkpt lat="46.2582168" lon="13.1477245"><ele>206.0</ele><time>2026-04-24T15:12:41.204Z</time></trkpt><trkpt lat="46.2584151" lon="13.1477122"><ele>207.0</ele><time>2026-04-24T15:12:42.203Z</time></trkpt><trkpt lat="46.2586129" lon="13.1477001"><ele>208.0</ele><time>2026-04-24T15:12:43.203Z</time></trkpt><trkpt lat="46.2588126" lon="13.1476913"><ele>210.0</ele><time>2026-04-24T15:12:44.203Z</time></trkpt><trkpt lat="46.259004" lon="13.1476842"><ele>212.0</ele><time>2026-04-24T15:12:45.204Z</time></trkpt><trkpt lat="46.2591835" lon="13.1476826"><ele>214.0</ele><time>2026-04-24T15:12:46.203Z</time></trkpt><trkpt lat="46.25935" lon="13.1476826"><ele>214.0</ele><time>2026-04-24T15:12:47.203Z</time></trkpt><trkpt lat="46.2595114" lon="13.1476912"><ele>214.0</ele><time>2026-04-24T15:12:48.202Z</time></trkpt><trkpt lat="46.2596665" lon="13.1476937"><ele>214.0</ele><time>2026-04-24T15:12:49.203Z</time></trkpt><trkpt lat="46.2598292" lon="13.1476919"><ele>213.33333333333331</ele><time>2026-04-24T15:12:50.203Z</time></trkpt><trkpt lat="46.2600038" lon="13.1476899"><ele>212.66666666666669</ele><time>2026-04-24T15:12:51.204Z</time></trkpt><trkpt lat="46.2601913" lon="13.1476785"><ele>212.0</ele><time>2026-04-24T15:12:52.203Z</time></trkpt><trkpt lat="46.2603922" lon="13.1476491"><ele>212.0</ele><time>2026-04-24T15:12:53.203Z</time></trkpt><trkpt lat="46.2606063" lon="13.1475926"><ele>212.0</ele><time>2026-04-24T15:12:54.203Z</time></trkpt><trkpt lat="46.2608157" lon="13.1475217"><ele>212.0</ele><time>2026-04-24T15:12:55.202Z</time></trkpt><trkpt lat="46.2610165" lon="13.1474382"><ele>212.33333333333334</ele><time>2026-04-24T15:12:56.203Z</time></trkpt><trkpt lat="46.2612106" lon="13.1473449"><ele>212.66666666666669</ele><time>2026-04-24T15:12:57.203Z</time></trkpt><trkpt lat="46.2613976" lon="13.1472532"><ele>213.0</ele><time>2026-04-24T15:12:58.203Z</time></trkpt><trkpt lat="46.2615828" lon="13.1471634"><ele>213.0</ele><time>2026-04-24T15:12:59.204Z</time></trkpt><trkpt lat="46.2617644" lon="13.1470771"><ele>213.0</ele><time>2026-04-24T15:13:00.203Z</time></trkpt><trkpt lat="46.2619459" lon="13.1469993"><ele>213.0</ele><time>2026-04-24T15:13:01.202Z</time></trkpt><trkpt lat="46.2621273" lon="13.1469332"><ele>213.33333333333331</ele><time>2026-04-24T15:13:02.202Z</time></trkpt><trkpt lat="46.2623106" lon="13.1468692"><ele>213.66666666666666</ele><time>2026-04-24T15:13:03.202Z</time></trkpt><trkpt lat="46.2624919" lon="13.1468218"><ele>214.0</ele><time>2026-04-24T15:13:04.202Z</time></trkpt><trkpt lat="46.2626722" lon="13.1467785"><ele>214.0</ele><time>2026-04-24T15:13:05.203Z</time></trkpt><trkpt lat="46.2628546" lon="13.1467423"><ele>214.0</ele><time>2026-04-24T15:13:06.203Z</time></trkpt><trkpt lat="46.2630381" lon="13.1467033"><ele>214.0</ele><time>2026-04-24T15:13:07.203Z</time></trkpt><trkpt lat="46.2632202" lon="13.1466612"><ele>214.0</ele><time>2026-04-24T15:13:08.204Z</time></trkpt><trkpt lat="46.2634054" lon="13.1466228"><ele>214.0</ele><time>2026-04-24T15:13:09.203Z</time></trkpt><trkpt lat="46.2635906" lon="13.1465878"><ele>214.0</ele><time>2026-04-24T15:13:10.203Z</time></trkpt><trkpt lat="46.2637771" lon="13.1465551"><ele>212.0</ele><time>2026-04-24T15:13:11.204Z</time></trkpt><trkpt lat="46.2639643" lon="13.1465196"><ele>210.0</ele><time>2026-04-24T15:13:12.204Z</time></trkpt><trkpt lat="46.2641507" lon="13.1464879"><ele>208.0</ele><time>2026-04-24T15:13:13.203Z</time></trkpt><trkpt lat="46.2643376" lon="13.1464668"><ele>208.0</ele><time>2026-04-24T15:13:14.203Z</time></trkpt><trkpt lat="46.2645281" lon="13.1464639"><ele>208.0</ele><time>2026-04-24T15:13:15.204Z</time></trkpt><trkpt lat="46.2647106" lon="13.1464755"><ele>208.0</ele><time>2026-04-24T15:13:16.202Z</time></trkpt><trkpt lat="46.2649" lon="13.1465033"><ele>208.66666666666666</ele><time>2026-04-24T15:13:17.203Z</time></trkpt><trkpt lat="46.2650819" lon="13.1465438"><ele>209.33333333333331</ele><time>2026-04-24T15:13:18.204Z</time></trkpt><trkpt lat="46.2652637" lon="13.1465966"><ele>210.0</ele><time>2026-04-24T15:13:19.204Z</time></trkpt><trkpt lat="46.2654318" lon="13.1466594"><ele>211.0</ele><time>2026-04-24T15:13:20.203Z</time></trkpt><trkpt lat="46.2655889" lon="13.1467289"><ele>212.0</ele><time>2026-04-24T15:13:21.203Z</time></trkpt><trkpt lat="46.2657411" lon="13.1468105"><ele>213.0</ele><time>2026-04-24T15:13:22.203Z</time></trkpt><trkpt lat="46.26589" lon="13.1468949"><ele>213.0</ele><time>2026-04-24T15:13:23.203Z</time></trkpt><trkpt lat="46.2660324" lon="13.1469923"><ele>213.0</ele><time>2026-04-24T15:13:24.204Z</time></trkpt><trkpt lat="46.2661668" lon="13.1470858"><ele>213.0</ele><time>2026-04-24T15:13:25.204Z</time></trkpt><trkpt lat="46.2663022" lon="13.1471646"><ele>213.0</ele><time>2026-04-24T15:13:26.203Z</time></trkpt><trkpt lat="46.2664402" lon="13.1472358"><ele>213.0</ele><time>2026-04-24T15:13:27.202Z</time></trkpt><trkpt lat="46.2665854" lon="13.1472495"><ele>213.0</ele><time>2026-04-24T15:13:28.202Z</time></trkpt><trkpt lat="46.2667249" lon="13.1472526"><ele>213.0</ele><time>2026-04-24T15:13:29.204Z</time></trkpt><trkpt lat="46.2668645" lon="13.1472447"><ele>212.5</ele><time>2026-04-24T15:13:30.204Z</time></trkpt><trkpt lat="46.267008" lon="13.1472348"><ele>212.0</ele><time>2026-04-24T15:13:31.203Z</time></trkpt><trkpt lat="46.2671508" lon="13.1472375"><ele>211.5</ele><time>2026-04-24T15:13:32.204Z</time></trkpt><trkpt lat="46.2672946" lon="13.1472351"><ele>211.0</ele><time>2026-04-24T15:13:33.203Z</time></trkpt><trkpt lat="46.2674423" lon="13.1472308"><ele>210.25</ele><time>2026-04-24T15:13:34.202Z</time></trkpt><trkpt lat="46.2675897" lon="13.1472254"><ele>209.5</ele><time>2026-04-24T15:13:35.204Z</time></trkpt><trkpt lat="46.2677329" lon="13.147222"><ele>208.75</ele><time>2026-04-24T15:13:36.202Z</time></trkpt><trkpt lat="46.2678779" lon="13.1472198"><ele>208.0</ele><time>2026-04-24T15:13:37.202Z</time></trkpt><trkpt lat="46.2680199" lon="13.1472161"><ele>209.25</ele><time>2026-04-24T15:13:38.202Z</time></trkpt><trkpt lat="46.2681661" lon="13.1472111"><ele>210.5</ele><time>2026-04-24T15:13:39.202Z</time></trkpt><trkpt lat="46.268303" lon="13.1471963"><ele>211.75</ele><time>2026-04-24T15:13:40.203Z</time></trkpt><trkpt lat="46.2684462" lon="13.1471868"><ele>213.0</ele><time>2026-04-24T15:13:41.203Z</time></trkpt><trkpt lat="46.2685818" lon="13.1471319"><ele>213.0</ele><time>2026-04-24T15:13:42.201Z</time></trkpt><trkpt lat="46.2687099" lon="13.1470491"><ele>213.0</ele><time>2026-04-24T15:13:43.201Z</time></trkpt><trkpt lat="46.26884" lon="13.1469676"><ele>213.0</ele><time>2026-04-24T15:13:44.201Z</time></trkpt><trkpt lat="46.2689669" lon="13.1468689"><ele>213.0</ele><time>2026-04-24T15:13:45.202Z</time></trkpt><trkpt lat="46.2690929" lon="13.1467677"><ele>215.5</ele><time>2026-04-24T15:13:46.202Z</time></trkpt><trkpt lat="46.2692191" lon="13.1466754"><ele>218.0</ele><time>2026-04-24T15:13:47.203Z</time></trkpt><trkpt lat="46.2693461" lon="13.1465835"><ele>220.5</ele><time>2026-04-24T15:13:48.201Z</time></trkpt><trkpt lat="46.2694817" lon="13.1465061"><ele>223.0</ele><time>2026-04-24T15:13:49.201Z</time></trkpt><trkpt lat="46.2696223" lon="13.1464443"><ele>220.66666666666666</ele><time>2026-04-24T15:13:50.202Z</time></trkpt><trkpt lat="46.2697714" lon="13.1464035"><ele>218.33333333333331</ele><time>2026-04-24T15:13:51.201Z</time></trkpt><trkpt lat="46.269923" lon="13.1463735"><ele>216.0</ele><time>2026-04-24T15:13:52.202Z</time></trkpt><trkpt lat="46.2700768" lon="13.1463342"><ele>216.0</ele><time>2026-04-24T15:13:53.202Z</time></trkpt><trkpt lat="46.2702293" lon="13.1462823"><ele>216.0</ele><time>2026-04-24T15:13:54.202Z</time></trkpt><trkpt lat="46.2703817" lon="13.1462088"><ele>216.0</ele><time>2026-04-24T15:13:55.202Z</time></trkpt><trkpt lat="46.2705348" lon="13.1461332"><ele>222.0</ele><time>2026-04-24T15:13:56.202Z</time></trkpt><trkpt lat="46.2706851" lon="13.1460414"><ele>228.0</ele><time>2026-04-24T15:13:57.202Z</time></trkpt><trkpt lat="46.2708263" lon="13.1459409"><ele>234.0</ele><time>2026-04-24T15:13:58.202Z</time></trkpt><trkpt lat="46.2709709" lon="13.1458443"><ele>234.0</ele><time>2026-04-24T15:13:59.202Z</time></trkpt><trkpt lat="46.2711228" lon="13.1457589"><ele>234.0</ele><time>2026-04-24T15:14:00.201Z</time></trkpt><trkpt lat="46.2712612" lon="13.1456755"><ele>234.0</ele><time>2026-04-24T15:14:01.201Z</time></trkpt><trkpt lat="46.2713908" lon="13.1455942"><ele>230.75</ele><time>2026-04-24T15:14:02.202Z</time></trkpt><trkpt lat="46.2715144" lon="13.1455111"><ele>227.5</ele><time>2026-04-24T15:14:03.203Z</time></trkpt><trkpt lat="46.2716409" lon="13.1454295"><ele>224.25</ele><time>2026-04-24T15:14:04.203Z</time></trkpt><trkpt lat="46.2717692" lon="13.1453478"><ele>221.0</ele><time>2026-04-24T15:14:05.202Z</time></trkpt><trkpt lat="46.2718955" lon="13.1452689"><ele>221.0</ele><time>2026-04-24T15:14:06.202Z</time></trkpt><trkpt lat="46.272019" lon="13.1451933"><ele>221.0</ele><time>2026-04-24T15:14:07.203Z</time></trkpt><trkpt lat="46.2721454" lon="13.1451235"><ele>221.0</ele><time>2026-04-24T15:14:08.202Z</time></trkpt><trkpt lat="46.2722827" lon="13.145055"><ele>221.0</ele><time>2026-04-24T15:14:09.201Z</time></trkpt><trkpt lat="46.2724333" lon="13.1449841"><ele>217.66666666666669</ele><time>2026-04-24T15:14:10.202Z</time></trkpt><trkpt lat="46.2726065" lon="13.1449197"><ele>214.33333333333331</ele><time>2026-04-24T15:14:11.202Z</time></trkpt><trkpt lat="46.2728055" lon="13.1448417"><ele>211.0</ele><time>2026-04-24T15:14:12.202Z</time></trkpt><trkpt lat="46.2730171" lon="13.1447687"><ele>215.33333333333331</ele><time>2026-04-24T15:14:13.201Z</time></trkpt><trkpt lat="46.2732281" lon="13.1447036"><ele>219.66666666666669</ele><time>2026-04-24T15:14:14.201Z</time></trkpt><trkpt lat="46.273432" lon="13.1446473"><ele>224.0</ele><time>2026-04-24T15:14:15.201Z</time></trkpt><trkpt lat="46.273628" lon="13.1445835"><ele>224.0</ele><time>2026-04-24T15:14:16.201Z</time></trkpt><trkpt lat="46.273814" lon="13.1445192"><ele>224.0</ele><time>2026-04-24T15:14:17.201Z</time></trkpt><trkpt lat="46.2739885" lon="13.1444566"><ele>224.0</ele><time>2026-04-24T15:14:18.201Z</time></trkpt><trkpt lat="46.2741496" lon="13.1443989"><ele>229.33333333333334</ele><time>2026-04-24T15:14:19.202Z</time></trkpt><trkpt lat="46.2743025" lon="13.1443464"><ele>234.66666666666669</ele><time>2026-04-24T15:14:20.202Z</time></trkpt><trkpt lat="46.2744495" lon="13.1442995"><ele>240.0</ele><time>2026-04-24T15:14:21.202Z</time></trkpt><trkpt lat="46.2745926" lon="13.1442501"><ele>240.0</ele><time>2026-04-24T15:14:22.202Z</time></trkpt><trkpt lat="46.2747387" lon="13.1442042"><ele>240.0</ele><time>2026-04-24T15:14:23.203Z</time></trkpt><trkpt lat="46.2748718" lon="13.1441562"><ele>240.0</ele><time>2026-04-24T15:14:24.203Z</time></trkpt><trkpt lat="46.2749922" lon="13.1440953"><ele>240.0</ele><time>2026-04-24T15:14:25.203Z</time></trkpt><trkpt lat="46.2750806" lon="13.1440227"><ele>241.0</ele><time>2026-04-24T15:14:26.202Z</time></trkpt><trkpt lat="46.2751741" lon="13.1439305"><ele>242.0</ele><time>2026-04-24T15:14:27.202Z</time></trkpt><trkpt lat="46.275259" lon="13.1438322"><ele>243.0</ele><time>2026-04-24T15:14:28.201Z</time></trkpt><trkpt lat="46.2753359" lon="13.1437247"><ele>244.0</ele><time>2026-04-24T15:14:29.202Z</time></trkpt><trkpt lat="46.2753881" lon="13.1436476"><ele>245.0</ele><time>2026-04-24T15:14:30.203Z</time></trkpt><trkpt lat="46.2754103" lon="13.1435365"><ele>245.0</ele><time>2026-04-24T15:14:31.203Z</time></trkpt><trkpt lat="46.2754224" lon="13.1434113"><ele>245.0</ele><time>2026-04-24T15:14:32.201Z</time></trkpt><trkpt lat="46.275421" lon="13.1432642"><ele>245.0</ele><time>2026-04-24T15:14:33.203Z</time></trkpt><trkpt lat="46.2754418" lon="13.1431508"><ele>245.0</ele><time>2026-04-24T15:14:34.203Z</time></trkpt><trkpt lat="46.2754451" lon="13.1429858"><ele>245.0</ele><time>2026-04-24T15:14:35.202Z</time></trkpt><trkpt lat="46.2754056" lon="13.1428213"><ele>245.50000000000003</ele><time>2026-04-24T15:14:37.201Z</time></trkpt><trkpt lat="46.2753023" lon="13.1427629"><ele>246.0</ele><time>2026-04-24T15:14:39.203Z</time></trkpt><trkpt lat="46.2752389" lon="13.1427509"><ele>246.5</ele><time>2026-04-24T15:14:40.202Z</time></trkpt><trkpt lat="46.2751627" lon="13.1427303"><ele>247.0</ele><time>2026-04-24T15:14:41.201Z</time></trkpt><trkpt lat="46.2751003" lon="13.1426865"><ele>247.50000000000003</ele><time>2026-04-24T15:14:42.201Z</time></trkpt><trkpt lat="46.2750464" lon="13.1426258"><ele>248.0</ele><time>2026-04-24T15:14:43.202Z</time></trkpt><trkpt lat="46.2749938" lon="13.1425596"><ele>248.00000000000003</ele><time>2026-04-24T15:14:44.202Z</time></trkpt><trkpt lat="46.2749424" lon="13.1424914"><ele>248.0</ele><time>2026-04-24T15:14:45.202Z</time></trkpt><trkpt lat="46.2748856" lon="13.1424195"><ele>248.0</ele><time>2026-04-24T15:14:46.201Z</time></trkpt><trkpt lat="46.2748238" lon="13.1423378"><ele>248.0</ele><time>2026-04-24T15:14:47.201Z</time></trkpt><trkpt lat="46.2747673" lon="13.1422533"><ele>248.00000000000003</ele><time>2026-04-24T15:14:48.203Z</time></trkpt><trkpt lat="46.2747129" lon="13.1421568"><ele>248.0</ele><time>2026-04-24T15:14:49.201Z</time></trkpt><trkpt lat="46.2746746" lon="13.1420528"><ele>245.50000000000003</ele><time>2026-04-24T15:14:50.202Z</time></trkpt><trkpt lat="46.2746498" lon="13.1419396"><ele>243.0</ele><time>2026-04-24T15:14:51.202Z</time></trkpt><trkpt lat="46.2746391" lon="13.1418246"><ele>240.5</ele><time>2026-04-24T15:14:52.201Z</time></trkpt><trkpt lat="46.2746344" lon="13.1417177"><ele>238.0</ele><time>2026-04-24T15:14:53.203Z</time></trkpt><trkpt lat="46.2746233" lon="13.1416191"><ele>235.50000000000003</ele><time>2026-04-24T15:14:54.202Z</time></trkpt><trkpt lat="46.2745999" lon="13.1415164"><ele>233.0</ele><time>2026-04-24T15:14:55.203Z</time></trkpt><trkpt lat="46.2745611" lon="13.1413721"><ele>233.0</ele><time>2026-04-24T15:14:56.202Z</time></trkpt><trkpt lat="46.2745286" lon="13.1412266"><ele>233.0</ele><time>2026-04-24T15:14:57.201Z</time></trkpt><trkpt lat="46.2744958" lon="13.1410683"><ele>233.0</ele><time>2026-04-24T15:14:58.202Z</time></trkpt><trkpt lat="46.2744693" lon="13.1409127"><ele>233.0</ele><time>2026-04-24T15:14:59.202Z</time></trkpt><trkpt lat="46.2744599" lon="13.1407504"><ele>233.0</ele><time>2026-04-24T15:15:00.201Z</time></trkpt><trkpt lat="46.2744663" lon="13.1405706"><ele>232.25</ele><time>2026-04-24T15:15:01.203Z</time></trkpt><trkpt lat="46.2744828" lon="13.1403897"><ele>231.5</ele><time>2026-04-24T15:15:02.202Z</time></trkpt><trkpt lat="46.2745029" lon="13.1402141"><ele>230.75</ele><time>2026-04-24T15:15:03.202Z</time></trkpt><trkpt lat="46.2745254" lon="13.1400409"><ele>230.0</ele><time>2026-04-24T15:15:04.203Z</time></trkpt><trkpt lat="46.2745397" lon="13.1398758"><ele>228.2</ele><time>2026-04-24T15:15:05.202Z</time></trkpt><trkpt lat="46.2745411" lon="13.1397267"><ele>226.4</ele><time>2026-04-24T15:15:06.202Z</time></trkpt><trkpt lat="46.2745234" lon="13.139581"><ele>224.60000000000002</ele><time>2026-04-24T15:15:07.201Z</time></trkpt><trkpt lat="46.2744863" lon="13.1394359"><ele>222.8</ele><time>2026-04-24T15:15:08.202Z</time></trkpt><trkpt lat="46.274439" lon="13.1392937"><ele>221.0</ele><time>2026-04-24T15:15:09.201Z</time></trkpt><trkpt lat="46.2743843" lon="13.1391423"><ele>219.8</ele><time>2026-04-24T15:15:10.202Z</time></trkpt><trkpt lat="46.2743404" lon="13.1389859"><ele>218.60000000000002</ele><time>2026-04-24T15:15:11.202Z</time></trkpt><trkpt lat="46.274314" lon="13.1388342"><ele>217.4</ele><time>2026-04-24T15:15:12.203Z</time></trkpt><trkpt lat="46.2743065" lon="13.1386856"><ele>216.2</ele><time>2026-04-24T15:15:13.203Z</time></trkpt><trkpt lat="46.2743106" lon="13.1385483"><ele>215.0</ele><time>2026-04-24T15:15:14.202Z</time></trkpt><trkpt lat="46.2743242" lon="13.1384086"><ele>215.0</ele><time>2026-04-24T15:15:15.202Z</time></trkpt><trkpt lat="46.2743516" lon="13.1382707"><ele>215.0</ele><time>2026-04-24T15:15:16.202Z</time></trkpt><trkpt lat="46.2743809" lon="13.1381207"><ele>215.0</ele><time>2026-04-24T15:15:17.203Z</time></trkpt><trkpt lat="46.274404" lon="13.1379532"><ele>215.0</ele><time>2026-04-24T15:15:18.202Z</time></trkpt><trkpt lat="46.2744273" lon="13.1377832"><ele>215.0</ele><time>2026-04-24T15:15:19.201Z</time></trkpt><trkpt lat="46.2744553" lon="13.1376094"><ele>214.0</ele><time>2026-04-24T15:15:20.202Z</time></trkpt><trkpt lat="46.2744937" lon="13.1374377"><ele>213.0</ele><time>2026-04-24T15:15:21.202Z</time></trkpt><trkpt lat="46.2745295" lon="13.1372728"><ele>212.0</ele><time>2026-04-24T15:15:22.201Z</time></trkpt><trkpt lat="46.274552" lon="13.1371147"><ele>211.0</ele><time>2026-04-24T15:15:23.203Z</time></trkpt><trkpt lat="46.2745606" lon="13.1369673"><ele>210.4</ele><time>2026-04-24T15:15:24.203Z</time></trkpt><trkpt lat="46.2745552" lon="13.136827"><ele>209.8</ele><time>2026-04-24T15:15:25.202Z</time></trkpt><trkpt lat="46.2745332" lon="13.1366969"><ele>209.20000000000002</ele><time>2026-04-24T15:15:26.202Z</time></trkpt><trkpt lat="46.2744936" lon="13.1365772"><ele>208.60000000000002</ele><time>2026-04-24T15:15:27.202Z</time></trkpt><trkpt lat="46.2744315" lon="13.1364588"><ele>208.0</ele><time>2026-04-24T15:15:28.202Z</time></trkpt><trkpt lat="46.2743538" lon="13.1363436"><ele>207.5</ele><time>2026-04-24T15:15:29.203Z</time></trkpt><trkpt lat="46.2742711" lon="13.1362186"><ele>207.0</ele><time>2026-04-24T15:15:30.202Z</time></trkpt><trkpt lat="46.2741844" lon="13.1360833"><ele>206.5</ele><time>2026-04-24T15:15:31.202Z</time></trkpt><trkpt lat="46.2740994" lon="13.1359513"><ele>206.0</ele><time>2026-04-24T15:15:32.201Z</time></trkpt><trkpt lat="46.274014" lon="13.1358246"><ele>203.8</ele><time>2026-04-24T15:15:33.201Z</time></trkpt><trkpt lat="46.2739275" lon="13.1357087"><ele>201.60000000000002</ele><time>2026-04-24T15:15:34.203Z</time></trkpt><trkpt lat="46.2738446" lon="13.1355984"><ele>199.4</ele><time>2026-04-24T15:15:35.202Z</time></trkpt><trkpt lat="46.2737597" lon="13.1354994"><ele>197.2</ele><time>2026-04-24T15:15:36.203Z</time></trkpt><trkpt lat="46.2736741" lon="13.1354134"><ele>195.0</ele><time>2026-04-24T15:15:37.203Z</time></trkpt><trkpt lat="46.2735831" lon="13.1353379"><ele>195.0</ele><time>2026-04-24T15:15:38.202Z</time></trkpt><trkpt lat="46.2734886" lon="13.1352606"><ele>195.0</ele><time>2026-04-24T15:15:39.202Z</time></trkpt><trkpt lat="46.2733892" lon="13.1351817"><ele>195.0</ele><time>2026-04-24T15:15:40.201Z</time></trkpt><trkpt lat="46.2732865" lon="13.1350931"><ele>195.0</ele><time>2026-04-24T15:15:41.202Z</time></trkpt><trkpt lat="46.273189" lon="13.1349927"><ele>194.2</ele><time>2026-04-24T15:15:42.202Z</time></trkpt><trkpt lat="46.2731005" lon="13.1348869"><ele>193.4</ele><time>2026-04-24T15:15:43.201Z</time></trkpt><trkpt lat="46.2730209" lon="13.1347795"><ele>192.60000000000002</ele><time>2026-04-24T15:15:44.201Z</time></trkpt><trkpt lat="46.2729566" lon="13.1346756"><ele>191.8</ele><time>2026-04-24T15:15:45.202Z</time></trkpt><trkpt lat="46.2729093" lon="13.134574"><ele>191.0</ele><time>2026-04-24T15:15:46.202Z</time></trkpt><trkpt lat="46.2728672" lon="13.134479"><ele>191.0</ele><time>2026-04-24T15:15:47.202Z</time></trkpt><trkpt lat="46.2728246" lon="13.1343635"><ele>191.0</ele><time>2026-04-24T15:15:48.202Z</time></trkpt><trkpt lat="46.2727671" lon="13.1342287"><ele>191.0</ele><time>2026-04-24T15:15:49.202Z</time></trkpt><trkpt lat="46.2727119" lon="13.1341043"><ele>191.0</ele><time>2026-04-24T15:15:50.202Z</time></trkpt><trkpt lat="46.2726557" lon="13.1339866"><ele>191.0</ele><time>2026-04-24T15:15:51.202Z</time></trkpt><trkpt lat="46.2725981" lon="13.1338726"><ele>191.0</ele><time>2026-04-24T15:15:52.202Z</time></trkpt><trkpt lat="46.2725427" lon="13.1337409"><ele>191.0</ele><time>2026-04-24T15:15:53.203Z</time></trkpt><trkpt lat="46.272494" lon="13.1335739"><ele>191.0</ele><time>2026-04-24T15:15:54.201Z</time></trkpt><trkpt lat="46.2724451" lon="13.1333596"><ele>191.0</ele><time>2026-04-24T15:15:55.202Z</time></trkpt><trkpt lat="46.2723873" lon="13.1331081"><ele>191.0</ele><time>2026-04-24T15:15:56.201Z</time></trkpt><trkpt lat="46.2723209" lon="13.1328554"><ele>191.0</ele><time>2026-04-24T15:15:57.202Z</time></trkpt><trkpt lat="46.2722542" lon="13.1326216"><ele>191.0</ele><time>2026-04-24T15:15:58.203Z</time></trkpt><trkpt lat="46.272186" lon="13.1323809"><ele>190.75</ele><time>2026-04-24T15:15:59.202Z</time></trkpt><trkpt lat="46.2721263" lon="13.132164"><ele>190.5</ele><time>2026-04-24T15:16:00.203Z</time></trkpt><trkpt lat="46.2720982" lon="13.132004"><ele>190.25</ele><time>2026-04-24T15:16:01.201Z</time></trkpt><trkpt lat="46.2720535" lon="13.1318443"><ele>190.0</ele><time>2026-04-24T15:16:02.202Z</time></trkpt><trkpt lat="46.2720147" lon="13.13169"><ele>190.0</ele><time>2026-04-24T15:16:03.202Z</time></trkpt><trkpt lat="46.271993" lon="13.13157"><ele>190.0</ele><time>2026-04-24T15:16:04.202Z</time></trkpt><trkpt lat="46.2719774" lon="13.1314723"><ele>190.0</ele><time>2026-04-24T15:16:05.202Z</time></trkpt><trkpt lat="46.2719605" lon="13.1313662"><ele>190.0</ele><time>2026-04-24T15:16:07.201Z</time></trkpt><trkpt lat="46.2719337" lon="13.1311962"><ele>190.0</ele><time>2026-04-24T15:16:22.201Z</time></trkpt><trkpt lat="46.2719368" lon="13.1310298"><ele>190.16666666666669</ele><time>2026-04-24T15:16:24.202Z</time></trkpt><trkpt lat="46.2719496" lon="13.1308524"><ele>190.33333333333334</ele><time>2026-04-24T15:16:26.203Z</time></trkpt><trkpt lat="46.2719481" lon="13.1307522"><ele>190.5</ele><time>2026-04-24T15:16:27.201Z</time></trkpt><trkpt lat="46.271941" lon="13.1306527"><ele>190.66666666666666</ele><time>2026-04-24T15:16:28.202Z</time></trkpt><trkpt lat="46.2719333" lon="13.130543"><ele>190.83333333333331</ele><time>2026-04-24T15:16:29.203Z</time></trkpt><trkpt lat="46.2719266" lon="13.1304288"><ele>191.0</ele><time>2026-04-24T15:16:30.203Z</time></trkpt><trkpt lat="46.2719152" lon="13.1303172"><ele>191.0</ele><time>2026-04-24T15:16:31.202Z</time></trkpt><trkpt lat="46.2719076" lon="13.130212"><ele>191.0</ele><time>2026-04-24T15:16:32.203Z</time></trkpt><trkpt lat="46.2718954" lon="13.1300954"><ele>191.0</ele><time>2026-04-24T15:16:33.202Z</time></trkpt><trkpt lat="46.2718827" lon="13.1299764"><ele>191.0</ele><time>2026-04-24T15:16:34.202Z</time></trkpt><trkpt lat="46.2718696" lon="13.12986"><ele>191.0</ele><time>2026-04-24T15:16:35.202Z</time></trkpt><trkpt lat="46.2718696" lon="13.1297521"><ele>191.0</ele><time>2026-04-24T15:16:36.202Z</time></trkpt><trkpt lat="46.2718875" lon="13.1296596"><ele>191.0</ele><time>2026-04-24T15:16:37.202Z</time></trkpt><trkpt lat="46.2720979" lon="13.1294262"><ele>191.0</ele><time>2026-04-24T15:16:40.201Z</time></trkpt><trkpt lat="46.2722217" lon="13.1293647"><ele>191.0</ele><time>2026-04-24T15:16:41.202Z</time></trkpt><trkpt lat="46.2723385" lon="13.1293014"><ele>191.5</ele><time>2026-04-24T15:16:42.203Z</time></trkpt><trkpt lat="46.272451" lon="13.1292399"><ele>192.0</ele><time>2026-04-24T15:16:43.203Z</time></trkpt><trkpt lat="46.2725578" lon="13.1291855"><ele>192.5</ele><time>2026-04-24T15:16:44.202Z</time></trkpt><trkpt lat="46.2726652" lon="13.1291394"><ele>193.0</ele><time>2026-04-24T15:16:45.202Z</time></trkpt><trkpt lat="46.2727687" lon="13.1290906"><ele>193.0</ele><time>2026-04-24T15:16:46.203Z</time></trkpt><trkpt lat="46.2728714" lon="13.1290458"><ele>193.0</ele><time>2026-04-24T15:16:47.201Z</time></trkpt><trkpt lat="46.2729756" lon="13.129007"><ele>193.0</ele><time>2026-04-24T15:16:48.202Z</time></trkpt><trkpt lat="46.2730786" lon="13.1289707"><ele>193.0</ele><time>2026-04-24T15:16:49.201Z</time></trkpt><trkpt lat="46.2731825" lon="13.1289295"><ele>193.0</ele><time>2026-04-24T15:16:50.202Z</time></trkpt><trkpt lat="46.2732882" lon="13.1288977"><ele>193.0</ele><time>2026-04-24T15:16:51.202Z</time></trkpt><trkpt lat="46.2733965" lon="13.1288672"><ele>193.0</ele><time>2026-04-24T15:16:52.201Z</time></trkpt><trkpt lat="46.273508" lon="13.1288409"><ele>193.0</ele><time>2026-04-24T15:16:53.202Z</time></trkpt><trkpt lat="46.2736197" lon="13.1288218"><ele>193.0</ele><time>2026-04-24T15:16:54.202Z</time></trkpt><trkpt lat="46.2737335" lon="13.1288123"><ele>193.0</ele><time>2026-04-24T15:16:55.203Z</time></trkpt><trkpt lat="46.2738407" lon="13.1287945"><ele>193.0</ele><time>2026-04-24T15:16:56.201Z</time></trkpt><trkpt lat="46.2739417" lon="13.1287743"><ele>193.0</ele><time>2026-04-24T15:16:57.202Z</time></trkpt><trkpt lat="46.2740341" lon="13.1287597"><ele>193.0</ele><time>2026-04-24T15:16:58.202Z</time></trkpt><trkpt lat="46.2741186" lon="13.1287448"><ele>193.0</ele><time>2026-04-24T15:16:59.203Z</time></trkpt><trkpt lat="46.2742005" lon="13.1287334"><ele>193.16666666666666</ele><time>2026-04-24T15:17:00.202Z</time></trkpt><trkpt lat="46.2742718" lon="13.1287384"><ele>193.33333333333331</ele><time>2026-04-24T15:17:01.203Z</time></trkpt><trkpt lat="46.2743429" lon="13.1287353"><ele>193.5</ele><time>2026-04-24T15:17:02.201Z</time></trkpt><trkpt lat="46.2744143" lon="13.1287067"><ele>193.66666666666669</ele><time>2026-04-24T15:17:03.201Z</time></trkpt><trkpt lat="46.2744919" lon="13.1286491"><ele>193.83333333333334</ele><time>2026-04-24T15:17:04.202Z</time></trkpt><trkpt lat="46.2745718" lon="13.1285878"><ele>194.0</ele><time>2026-04-24T15:17:05.202Z</time></trkpt><trkpt lat="46.2746699" lon="13.1285409"><ele>194.0</ele><time>2026-04-24T15:17:06.202Z</time></trkpt><trkpt lat="46.27476" lon="13.1284965"><ele>194.0</ele><time>2026-04-24T15:17:07.202Z</time></trkpt><trkpt lat="46.2748493" lon="13.1284447"><ele>194.0</ele><time>2026-04-24T15:17:08.201Z</time></trkpt><trkpt lat="46.2749391" lon="13.1283871"><ele>194.0</ele><time>2026-04-24T15:17:09.202Z</time></trkpt><trkpt lat="46.2750338" lon="13.1283384"><ele>194.0</ele><time>2026-04-24T15:17:10.202Z</time></trkpt><trkpt lat="46.2751297" lon="13.1282912"><ele>194.0</ele><time>2026-04-24T15:17:11.202Z</time></trkpt><trkpt lat="46.2752294" lon="13.1282424"><ele>194.0</ele><time>2026-04-24T15:17:12.202Z</time></trkpt><trkpt lat="46.2753305" lon="13.1281923"><ele>194.0</ele><time>2026-04-24T15:17:13.203Z</time></trkpt><trkpt lat="46.2754305" lon="13.1281392"><ele>194.0</ele><time>2026-04-24T15:17:14.202Z</time></trkpt><trkpt lat="46.2755306" lon="13.1280834"><ele>194.0</ele><time>2026-04-24T15:17:15.201Z</time></trkpt><trkpt lat="46.2756297" lon="13.1280208"><ele>194.0</ele><time>2026-04-24T15:17:16.201Z</time></trkpt><trkpt lat="46.2757295" lon="13.1279625"><ele>194.0</ele><time>2026-04-24T15:17:17.201Z</time></trkpt><trkpt lat="46.2758313" lon="13.1279023"><ele>194.0</ele><time>2026-04-24T15:17:18.202Z</time></trkpt><trkpt lat="46.2759306" lon="13.127849"><ele>194.0</ele><time>2026-04-24T15:17:19.202Z</time></trkpt><trkpt lat="46.2760303" lon="13.1278036"><ele>194.0</ele><time>2026-04-24T15:17:20.202Z</time></trkpt><trkpt lat="46.2761301" lon="13.127762"><ele>194.0</ele><time>2026-04-24T15:17:21.201Z</time></trkpt><trkpt lat="46.2762258" lon="13.1277166"><ele>194.0</ele><time>2026-04-24T15:17:22.202Z</time></trkpt><trkpt lat="46.2763188" lon="13.1276688"><ele>194.0</ele><time>2026-04-24T15:17:23.203Z</time></trkpt><trkpt lat="46.2764096" lon="13.1276197"><ele>194.0</ele><time>2026-04-24T15:17:24.202Z</time></trkpt><trkpt lat="46.2765956" lon="13.1275202"><ele>194.2</ele><time>2026-04-24T15:17:26.203Z</time></trkpt><trkpt lat="46.2766881" lon="13.1274662"><ele>194.39999999999998</ele><time>2026-04-24T15:17:27.203Z</time></trkpt><trkpt lat="46.2767807" lon="13.1274117"><ele>194.6</ele><time>2026-04-24T15:17:28.203Z</time></trkpt><trkpt lat="46.2768748" lon="13.127357"><ele>194.8</ele><time>2026-04-24T15:17:29.201Z</time></trkpt><trkpt lat="46.2769671" lon="13.1273021"><ele>195.0</ele><time>2026-04-24T15:17:30.202Z</time></trkpt><trkpt lat="46.2770471" lon="13.1272637"><ele>195.0</ele><time>2026-04-24T15:17:31.203Z</time></trkpt><trkpt lat="46.2771194" lon="13.1272603"><ele>195.0</ele><time>2026-04-24T15:17:32.201Z</time></trkpt><trkpt lat="46.2771861" lon="13.1272928"><ele>195.0</ele><time>2026-04-24T15:17:33.202Z</time></trkpt><trkpt lat="46.2772377" lon="13.1273574"><ele>195.0</ele><time>2026-04-24T15:17:34.201Z</time></trkpt><trkpt lat="46.2772754" lon="13.1274583"><ele>195.0</ele><time>2026-04-24T15:17:35.201Z</time></trkpt><trkpt lat="46.2773044" lon="13.1275914"><ele>195.0</ele><time>2026-04-24T15:17:36.203Z</time></trkpt><trkpt lat="46.2773392" lon="13.1277535"><ele>195.0</ele><time>2026-04-24T15:17:37.201Z</time></trkpt><trkpt lat="46.2773784" lon="13.1279037"><ele>195.0</ele><time>2026-04-24T15:17:38.202Z</time></trkpt><trkpt lat="46.2774174" lon="13.1280453"><ele>195.0</ele><time>2026-04-24T15:17:39.201Z</time></trkpt><trkpt lat="46.2774541" lon="13.1281898"><ele>195.0</ele><time>2026-04-24T15:17:40.202Z</time></trkpt><trkpt lat="46.2774935" lon="13.1283592"><ele>195.0</ele><time>2026-04-24T15:17:41.203Z</time></trkpt><trkpt lat="46.2775352" lon="13.1285435"><ele>195.0</ele><time>2026-04-24T15:17:42.202Z</time></trkpt><trkpt lat="46.2775832" lon="13.1287539"><ele>195.0</ele><time>2026-04-24T15:17:43.202Z</time></trkpt><trkpt lat="46.2776248" lon="13.1289664"><ele>195.0</ele><time>2026-04-24T15:17:44.202Z</time></trkpt><trkpt lat="46.277661" lon="13.1291793"><ele>195.0</ele><time>2026-04-24T15:17:45.202Z</time></trkpt><trkpt lat="46.2777021" lon="13.129391"><ele>195.0</ele><time>2026-04-24T15:17:46.201Z</time></trkpt><trkpt lat="46.2777585" lon="13.1295984"><ele>195.0</ele><time>2026-04-24T15:17:47.202Z</time></trkpt><trkpt lat="46.2778205" lon="13.1298026"><ele>195.75</ele><time>2026-04-24T15:17:48.202Z</time></trkpt><trkpt lat="46.2778805" lon="13.1300018"><ele>196.5</ele><time>2026-04-24T15:17:49.203Z</time></trkpt><trkpt lat="46.2779355" lon="13.1301825"><ele>197.25</ele><time>2026-04-24T15:17:50.201Z</time></trkpt><trkpt lat="46.2779826" lon="13.1303469"><ele>198.0</ele><time>2026-04-24T15:17:51.202Z</time></trkpt><trkpt lat="46.2780582" lon="13.1306104"><ele>198.0</ele><time>2026-04-24T15:17:53.201Z</time></trkpt><trkpt lat="46.2780853" lon="13.1307018"><ele>198.0</ele><time>2026-04-24T15:17:54.201Z</time></trkpt><trkpt lat="46.2781539" lon="13.130787"><ele>198.0</ele><time>2026-04-24T15:17:56.201Z</time></trkpt><trkpt lat="46.2782161" lon="13.1306932"><ele>198.0</ele><time>2026-04-24T15:17:58.2Z</time></trkpt><trkpt lat="46.2782461" lon="13.130575"><ele>198.0</ele><time>2026-04-24T15:17:59.2Z</time></trkpt><trkpt lat="46.2782909" lon="13.130441"><ele>198.0</ele><time>2026-04-24T15:18:00.2Z</time></trkpt><trkpt lat="46.2783508" lon="13.130304"><ele>198.5</ele><time>2026-04-24T15:18:01.201Z</time></trkpt><trkpt lat="46.2784245" lon="13.1301635"><ele>199.0</ele><time>2026-04-24T15:18:02.202Z</time></trkpt><trkpt lat="46.2784983" lon="13.1300362"><ele>199.5</ele><time>2026-04-24T15:18:03.2Z</time></trkpt><trkpt lat="46.278574" lon="13.129913"><ele>200.0</ele><time>2026-04-24T15:18:04.2Z</time></trkpt><trkpt lat="46.2786483" lon="13.1298024"><ele>199.66666666666669</ele><time>2026-04-24T15:18:05.201Z</time></trkpt><trkpt lat="46.2787204" lon="13.1297001"><ele>199.33333333333334</ele><time>2026-04-24T15:18:06.201Z</time></trkpt><trkpt lat="46.2787849" lon="13.129605"><ele>199.0</ele><time>2026-04-24T15:18:07.2Z</time></trkpt><trkpt lat="46.2788372" lon="13.1295196"><ele>198.66666666666669</ele><time>2026-04-24T15:18:08.2Z</time></trkpt><trkpt lat="46.2789092" lon="13.1294474"><ele>198.33333333333334</ele><time>2026-04-24T15:18:10.201Z</time></trkpt><trkpt lat="46.2789579" lon="13.1295433"><ele>198.0</ele><time>2026-04-24T15:18:13.201Z</time></trkpt><trkpt lat="46.2789943" lon="13.1296779"><ele>198.0</ele><time>2026-04-24T15:18:26.202Z</time></trkpt><trkpt lat="46.2790366" lon="13.1298551"><ele>198.0</ele><time>2026-04-24T15:18:28.201Z</time></trkpt><trkpt lat="46.2790695" lon="13.1299825"><ele>198.0</ele><time>2026-04-24T15:18:30.2Z</time></trkpt><trkpt lat="46.2790928" lon="13.1300948"><ele>198.0</ele><time>2026-04-24T15:18:33.201Z</time></trkpt><trkpt lat="46.2790561" lon="13.1300013"><ele>198.0</ele><time>2026-04-24T15:20:45.2Z</time></trkpt><trkpt lat="46.2790318" lon="13.1299056"><ele>198.0</ele><time>2026-04-24T15:20:51.201Z</time></trkpt><trkpt lat="46.2790265" lon="13.1298072"><ele>198.0</ele><time>2026-04-24T15:20:57.096Z</time></trkpt><trkpt lat="46.2790286" lon="13.129705"><ele>198.0</ele><time>2026-04-24T15:21:03.201Z</time></trkpt><trkpt lat="46.2790911" lon="13.1296579"><ele>198.0</ele><time>2026-04-24T15:21:10.159Z</time></trkpt></trkseg></trk></gpx>